<?xml version='1.0' encoding='UTF-8'?><gpx version="1.1" creator="JPX - https://github.com/jenetics/jpx" xmlns="http://www.topografix.com/GPX/1/1"><trk><trkseg><trkpt lat="45.0536838" lon="9.6501341"><ele>62.0</ele><time>2026-04-11T11:33:15.966Z</time></trkpt><trkpt lat="45.0537504" lon="9.6501226"><ele>62.0</ele><time>2026-04-11T11:33:21.998Z</time></trkpt><trkpt lat="45.0536198" lon="9.6501896"><ele>62.0</ele><time>2026-04-11T11:37:39.937Z</time></trkpt><trkpt lat="45.0535414" lon="9.6501629"><ele>62.0</ele><time>2026-04-11T11:37:40.938Z</time></trkpt><trkpt lat="45.0534569" lon="9.6501381"><ele>62.0</ele><time>2026-04-11T11:37:41.937Z</time></trkpt><trkpt lat="45.0533553" lon="9.6501137"><ele>61.25</ele><time>2026-04-11T11:37:42.938Z</time></trkpt><trkpt lat="45.0532352" lon="9.6500862"><ele>60.5</ele><time>2026-04-11T11:37:43.937Z</time></trkpt><trkpt lat="45.0531083" lon="9.6500532"><ele>59.75</ele><time>2026-04-11T11:37:44.937Z</time></trkpt><trkpt lat="45.0529818" lon="9.6500199"><ele>59.0</ele><time>2026-04-11T11:37:45.942Z</time></trkpt><trkpt lat="45.0528594" lon="9.6499866"><ele>59.0</ele><time>2026-04-11T11:37:46.937Z</time></trkpt><trkpt lat="45.0527352" lon="9.6499579"><ele>59.0</ele><time>2026-04-11T11:37:47.937Z</time></trkpt><trkpt lat="45.0526054" lon="9.6499274"><ele>59.0</ele><time>2026-04-11T11:37:48.939Z</time></trkpt><trkpt lat="45.0524671" lon="9.6498945"><ele>59.0</ele><time>2026-04-11T11:37:49.939Z</time></trkpt><trkpt lat="45.0523123" lon="9.6498639"><ele>59.0</ele><time>2026-04-11T11:37:50.946Z</time></trkpt><trkpt lat="45.0521504" lon="9.6498319"><ele>59.0</ele><time>2026-04-11T11:37:51.937Z</time></trkpt><trkpt lat="45.0520017" lon="9.6497932"><ele>59.0</ele><time>2026-04-11T11:37:52.936Z</time></trkpt><trkpt lat="45.05187" lon="9.6497517"><ele>59.0</ele><time>2026-04-11T11:37:53.938Z</time></trkpt><trkpt lat="45.0517648" lon="9.6497141"><ele>59.00000000000001</ele><time>2026-04-11T11:37:54.937Z</time></trkpt><trkpt lat="45.0516898" lon="9.6496716"><ele>59.00000000000001</ele><time>2026-04-11T11:37:55.947Z</time></trkpt><trkpt lat="45.0516368" lon="9.6496226"><ele>59.0</ele><time>2026-04-11T11:37:56.939Z</time></trkpt><trkpt lat="45.0515955" lon="9.6494564"><ele>59.0</ele><time>2026-04-11T11:37:58.939Z</time></trkpt><trkpt lat="45.0516241" lon="9.6492804"><ele>60.0</ele><time>2026-04-11T11:37:59.94Z</time></trkpt><trkpt lat="45.051654" lon="9.6490772"><ele>61.0</ele><time>2026-04-11T11:38:00.939Z</time></trkpt><trkpt lat="45.0516802" lon="9.648862"><ele>62.0</ele><time>2026-04-11T11:38:01.939Z</time></trkpt><trkpt lat="45.0516995" lon="9.6486429"><ele>61.66666666666667</ele><time>2026-04-11T11:38:02.939Z</time></trkpt><trkpt lat="45.0517208" lon="9.648425"><ele>61.33333333333333</ele><time>2026-04-11T11:38:03.94Z</time></trkpt><trkpt lat="45.0517414" lon="9.6482027"><ele>61.0</ele><time>2026-04-11T11:38:04.943Z</time></trkpt><trkpt lat="45.0517615" lon="9.6479824"><ele>60.666666666666664</ele><time>2026-04-11T11:38:05.938Z</time></trkpt><trkpt lat="45.0517805" lon="9.647768"><ele>60.33333333333333</ele><time>2026-04-11T11:38:06.939Z</time></trkpt><trkpt lat="45.0518001" lon="9.6475574"><ele>60.0</ele><time>2026-04-11T11:38:07.938Z</time></trkpt><trkpt lat="45.0518175" lon="9.6473506"><ele>60.0</ele><time>2026-04-11T11:38:08.94Z</time></trkpt><trkpt lat="45.0518344" lon="9.6471421"><ele>60.0</ele><time>2026-04-11T11:38:09.945Z</time></trkpt><trkpt lat="45.0518499" lon="9.6469304"><ele>60.0</ele><time>2026-04-11T11:38:10.938Z</time></trkpt><trkpt lat="45.0518661" lon="9.6467155"><ele>60.0</ele><time>2026-04-11T11:38:11.939Z</time></trkpt><trkpt lat="45.051884" lon="9.6465031"><ele>60.0</ele><time>2026-04-11T11:38:12.939Z</time></trkpt><trkpt lat="45.0519011" lon="9.646294"><ele>60.0</ele><time>2026-04-11T11:38:13.939Z</time></trkpt><trkpt lat="45.0519178" lon="9.6460867"><ele>60.0</ele><time>2026-04-11T11:38:14.946Z</time></trkpt><trkpt lat="45.0519356" lon="9.6458784"><ele>60.0</ele><time>2026-04-11T11:38:15.939Z</time></trkpt><trkpt lat="45.0519513" lon="9.6456656"><ele>60.0</ele><time>2026-04-11T11:38:16.937Z</time></trkpt><trkpt lat="45.0519634" lon="9.6454499"><ele>60.0</ele><time>2026-04-11T11:38:17.939Z</time></trkpt><trkpt lat="45.0519684" lon="9.645226"><ele>59.25</ele><time>2026-04-11T11:38:18.941Z</time></trkpt><trkpt lat="45.0519656" lon="9.6450079"><ele>58.5</ele><time>2026-04-11T11:38:19.938Z</time></trkpt><trkpt lat="45.0519579" lon="9.6448117"><ele>57.75</ele><time>2026-04-11T11:38:20.939Z</time></trkpt><trkpt lat="45.0519517" lon="9.6446186"><ele>57.0</ele><time>2026-04-11T11:38:21.939Z</time></trkpt><trkpt lat="45.0519482" lon="9.6444133"><ele>57.0</ele><time>2026-04-11T11:38:22.939Z</time></trkpt><trkpt lat="45.0519537" lon="9.6442024"><ele>57.0</ele><time>2026-04-11T11:38:23.939Z</time></trkpt><trkpt lat="45.0519665" lon="9.6439908"><ele>57.0</ele><time>2026-04-11T11:38:24.939Z</time></trkpt><trkpt lat="45.051982" lon="9.6437845"><ele>57.0</ele><time>2026-04-11T11:38:25.943Z</time></trkpt><trkpt lat="45.0519979" lon="9.6435866"><ele>57.0</ele><time>2026-04-11T11:38:26.939Z</time></trkpt><trkpt lat="45.0520148" lon="9.6433876"><ele>57.0</ele><time>2026-04-11T11:38:27.938Z</time></trkpt><trkpt lat="45.0520313" lon="9.6431863"><ele>57.0</ele><time>2026-04-11T11:38:28.937Z</time></trkpt><trkpt lat="45.0520467" lon="9.6429784"><ele>57.0</ele><time>2026-04-11T11:38:29.938Z</time></trkpt><trkpt lat="45.0520631" lon="9.6427666"><ele>57.0</ele><time>2026-04-11T11:38:30.939Z</time></trkpt><trkpt lat="45.052081" lon="9.6425515"><ele>57.0</ele><time>2026-04-11T11:38:31.94Z</time></trkpt><trkpt lat="45.0520992" lon="9.6423361"><ele>57.0</ele><time>2026-04-11T11:38:32.946Z</time></trkpt><trkpt lat="45.0521162" lon="9.6421221"><ele>57.33333333333333</ele><time>2026-04-11T11:38:33.94Z</time></trkpt><trkpt lat="45.052133" lon="9.6419095"><ele>57.666666666666664</ele><time>2026-04-11T11:38:34.938Z</time></trkpt><trkpt lat="45.0521498" lon="9.6416975"><ele>58.0</ele><time>2026-04-11T11:38:35.938Z</time></trkpt><trkpt lat="45.0521708" lon="9.641487"><ele>58.0</ele><time>2026-04-11T11:38:36.939Z</time></trkpt><trkpt lat="45.0521997" lon="9.6412762"><ele>58.0</ele><time>2026-04-11T11:38:37.938Z</time></trkpt><trkpt lat="45.0522387" lon="9.6410714"><ele>58.0</ele><time>2026-04-11T11:38:38.939Z</time></trkpt><trkpt lat="45.0522853" lon="9.6408702"><ele>58.25</ele><time>2026-04-11T11:38:39.939Z</time></trkpt><trkpt lat="45.0523404" lon="9.6406751"><ele>58.5</ele><time>2026-04-11T11:38:40.939Z</time></trkpt><trkpt lat="45.0524084" lon="9.6404904"><ele>58.75</ele><time>2026-04-11T11:38:41.946Z</time></trkpt><trkpt lat="45.0524893" lon="9.6403142"><ele>59.0</ele><time>2026-04-11T11:38:42.939Z</time></trkpt><trkpt lat="45.0525813" lon="9.6401416"><ele>59.0</ele><time>2026-04-11T11:38:43.938Z</time></trkpt><trkpt lat="45.0526871" lon="9.6399794"><ele>59.0</ele><time>2026-04-11T11:38:44.94Z</time></trkpt><trkpt lat="45.0528079" lon="9.6398232"><ele>59.0</ele><time>2026-04-11T11:38:45.94Z</time></trkpt><trkpt lat="45.0529425" lon="9.6396719"><ele>59.0</ele><time>2026-04-11T11:38:46.94Z</time></trkpt><trkpt lat="45.0530863" lon="9.639536"><ele>59.0</ele><time>2026-04-11T11:38:47.938Z</time></trkpt><trkpt lat="45.05324" lon="9.6394204"><ele>59.0</ele><time>2026-04-11T11:38:48.938Z</time></trkpt><trkpt lat="45.0534023" lon="9.6393284"><ele>58.333333333333336</ele><time>2026-04-11T11:38:49.94Z</time></trkpt><trkpt lat="45.0535793" lon="9.6392482"><ele>57.66666666666667</ele><time>2026-04-11T11:38:50.939Z</time></trkpt><trkpt lat="45.0537677" lon="9.6391739"><ele>57.0</ele><time>2026-04-11T11:38:51.937Z</time></trkpt><trkpt lat="45.0539522" lon="9.6391056"><ele>57.0</ele><time>2026-04-11T11:38:52.944Z</time></trkpt><trkpt lat="45.054119" lon="9.6390459"><ele>57.0</ele><time>2026-04-11T11:38:53.938Z</time></trkpt><trkpt lat="45.0542696" lon="9.6389888"><ele>57.0</ele><time>2026-04-11T11:38:54.938Z</time></trkpt><trkpt lat="45.0544028" lon="9.638938"><ele>57.2</ele><time>2026-04-11T11:38:55.938Z</time></trkpt><trkpt lat="45.0545214" lon="9.6388973"><ele>57.400000000000006</ele><time>2026-04-11T11:38:56.938Z</time></trkpt><trkpt lat="45.0546189" lon="9.6388674"><ele>57.599999999999994</ele><time>2026-04-11T11:38:57.941Z</time></trkpt><trkpt lat="45.0546998" lon="9.6388457"><ele>57.8</ele><time>2026-04-11T11:38:58.937Z</time></trkpt><trkpt lat="45.0547962" lon="9.6387805"><ele>58.0</ele><time>2026-04-11T11:39:00.938Z</time></trkpt><trkpt lat="45.0547759" lon="9.6386912"><ele>58.0</ele><time>2026-04-11T11:39:02.938Z</time></trkpt><trkpt lat="45.0546761" lon="9.6386877"><ele>58.0</ele><time>2026-04-11T11:39:04.937Z</time></trkpt><trkpt lat="45.0545675" lon="9.6387239"><ele>58.0</ele><time>2026-04-11T11:39:05.938Z</time></trkpt><trkpt lat="45.0544418" lon="9.6387954"><ele>58.0</ele><time>2026-04-11T11:39:06.944Z</time></trkpt><trkpt lat="45.0543071" lon="9.6388725"><ele>58.0</ele><time>2026-04-11T11:39:07.938Z</time></trkpt><trkpt lat="45.0541652" lon="9.6389336"><ele>58.0</ele><time>2026-04-11T11:39:08.938Z</time></trkpt><trkpt lat="45.0540184" lon="9.6389833"><ele>58.0</ele><time>2026-04-11T11:39:09.937Z</time></trkpt><trkpt lat="45.0538698" lon="9.6390373"><ele>57.666666666666664</ele><time>2026-04-11T11:39:10.938Z</time></trkpt><trkpt lat="45.0537206" lon="9.6390929"><ele>57.33333333333333</ele><time>2026-04-11T11:39:11.938Z</time></trkpt><trkpt lat="45.0535715" lon="9.6391492"><ele>57.0</ele><time>2026-04-11T11:39:12.938Z</time></trkpt><trkpt lat="45.0534185" lon="9.6392076"><ele>57.66666666666667</ele><time>2026-04-11T11:39:13.938Z</time></trkpt><trkpt lat="45.0532661" lon="9.6392607"><ele>58.333333333333336</ele><time>2026-04-11T11:39:14.938Z</time></trkpt><trkpt lat="45.0531102" lon="9.6392978"><ele>59.0</ele><time>2026-04-11T11:39:15.937Z</time></trkpt><trkpt lat="45.0529486" lon="9.6393054"><ele>59.0</ele><time>2026-04-11T11:39:16.938Z</time></trkpt><trkpt lat="45.0527788" lon="9.6392773"><ele>59.0</ele><time>2026-04-11T11:39:17.938Z</time></trkpt><trkpt lat="45.0526077" lon="9.6392254"><ele>59.0</ele><time>2026-04-11T11:39:18.939Z</time></trkpt><trkpt lat="45.0524422" lon="9.6391621"><ele>59.66666666666667</ele><time>2026-04-11T11:39:19.946Z</time></trkpt><trkpt lat="45.0522836" lon="9.6390995"><ele>60.33333333333333</ele><time>2026-04-11T11:39:20.938Z</time></trkpt><trkpt lat="45.052126" lon="9.6390437"><ele>61.0</ele><time>2026-04-11T11:39:21.938Z</time></trkpt><trkpt lat="45.0519678" lon="9.6390053"><ele>61.0</ele><time>2026-04-11T11:39:22.937Z</time></trkpt><trkpt lat="45.0518082" lon="9.638986"><ele>61.0</ele><time>2026-04-11T11:39:23.937Z</time></trkpt><trkpt lat="45.051645" lon="9.6389811"><ele>61.0</ele><time>2026-04-11T11:39:24.944Z</time></trkpt><trkpt lat="45.0514819" lon="9.6389774"><ele>60.0</ele><time>2026-04-11T11:39:25.938Z</time></trkpt><trkpt lat="45.0513147" lon="9.6389686"><ele>59.0</ele><time>2026-04-11T11:39:26.938Z</time></trkpt><trkpt lat="45.0511502" lon="9.6389502"><ele>58.0</ele><time>2026-04-11T11:39:27.938Z</time></trkpt><trkpt lat="45.050987" lon="9.6389184"><ele>58.0</ele><time>2026-04-11T11:39:28.938Z</time></trkpt><trkpt lat="45.0508266" lon="9.6388665"><ele>58.0</ele><time>2026-04-11T11:39:29.939Z</time></trkpt><trkpt lat="45.0506694" lon="9.6387961"><ele>58.0</ele><time>2026-04-11T11:39:30.938Z</time></trkpt><trkpt lat="45.0505131" lon="9.6387098"><ele>57.33333333333333</ele><time>2026-04-11T11:39:31.938Z</time></trkpt><trkpt lat="45.0503601" lon="9.6386224"><ele>56.66666666666667</ele><time>2026-04-11T11:39:32.946Z</time></trkpt><trkpt lat="45.0502058" lon="9.6385727"><ele>56.0</ele><time>2026-04-11T11:39:33.938Z</time></trkpt><trkpt lat="45.0500519" lon="9.6385481"><ele>56.0</ele><time>2026-04-11T11:39:34.937Z</time></trkpt><trkpt lat="45.0499015" lon="9.6385424"><ele>56.0</ele><time>2026-04-11T11:39:35.939Z</time></trkpt><trkpt lat="45.0497486" lon="9.638541"><ele>56.0</ele><time>2026-04-11T11:39:36.939Z</time></trkpt><trkpt lat="45.0495921" lon="9.6385509"><ele>56.0</ele><time>2026-04-11T11:39:37.943Z</time></trkpt><trkpt lat="45.0494329" lon="9.6385826"><ele>56.0</ele><time>2026-04-11T11:39:38.939Z</time></trkpt><trkpt lat="45.0492716" lon="9.6386418"><ele>56.0</ele><time>2026-04-11T11:39:39.939Z</time></trkpt><trkpt lat="45.049111" lon="9.6387083"><ele>56.0</ele><time>2026-04-11T11:39:40.938Z</time></trkpt><trkpt lat="45.0489492" lon="9.6387681"><ele>56.0</ele><time>2026-04-11T11:39:41.94Z</time></trkpt><trkpt lat="45.0487861" lon="9.6388175"><ele>56.0</ele><time>2026-04-11T11:39:42.94Z</time></trkpt><trkpt lat="45.0486226" lon="9.6388534"><ele>56.0</ele><time>2026-04-11T11:39:43.939Z</time></trkpt><trkpt lat="45.0484585" lon="9.6388731"><ele>56.0</ele><time>2026-04-11T11:39:44.946Z</time></trkpt><trkpt lat="45.0482913" lon="9.6388763"><ele>56.0</ele><time>2026-04-11T11:39:45.94Z</time></trkpt><trkpt lat="45.0481215" lon="9.6388436"><ele>57.0</ele><time>2026-04-11T11:39:46.939Z</time></trkpt><trkpt lat="45.0479538" lon="9.6387951"><ele>58.0</ele><time>2026-04-11T11:39:47.941Z</time></trkpt><trkpt lat="45.0477893" lon="9.6387432"><ele>59.0</ele><time>2026-04-11T11:39:48.939Z</time></trkpt><trkpt lat="45.0476242" lon="9.6386883"><ele>59.0</ele><time>2026-04-11T11:39:49.939Z</time></trkpt><trkpt lat="45.0474577" lon="9.6386299"><ele>59.0</ele><time>2026-04-11T11:39:50.943Z</time></trkpt><trkpt lat="45.0472928" lon="9.6385717"><ele>59.0</ele><time>2026-04-11T11:39:51.939Z</time></trkpt><trkpt lat="45.0471292" lon="9.6385182"><ele>59.0</ele><time>2026-04-11T11:39:52.938Z</time></trkpt><trkpt lat="45.0469657" lon="9.6384722"><ele>59.0</ele><time>2026-04-11T11:39:53.94Z</time></trkpt><trkpt lat="45.0468025" lon="9.6384335"><ele>59.0</ele><time>2026-04-11T11:39:54.939Z</time></trkpt><trkpt lat="45.046638" lon="9.6384012"><ele>59.333333333333336</ele><time>2026-04-11T11:39:55.946Z</time></trkpt><trkpt lat="45.0464764" lon="9.6383697"><ele>59.66666666666667</ele><time>2026-04-11T11:39:56.94Z</time></trkpt><trkpt lat="45.0463133" lon="9.6383384"><ele>60.0</ele><time>2026-04-11T11:39:57.939Z</time></trkpt><trkpt lat="45.0461525" lon="9.6383089"><ele>60.0</ele><time>2026-04-11T11:39:58.937Z</time></trkpt><trkpt lat="45.04599" lon="9.6382823"><ele>60.0</ele><time>2026-04-11T11:39:59.941Z</time></trkpt><trkpt lat="45.0458241" lon="9.6382574"><ele>60.0</ele><time>2026-04-11T11:40:00.941Z</time></trkpt><trkpt lat="45.0456535" lon="9.638233"><ele>60.33333333333333</ele><time>2026-04-11T11:40:01.939Z</time></trkpt><trkpt lat="45.0454789" lon="9.6382068"><ele>60.666666666666664</ele><time>2026-04-11T11:40:02.939Z</time></trkpt><trkpt lat="45.0453035" lon="9.6381767"><ele>61.0</ele><time>2026-04-11T11:40:03.939Z</time></trkpt><trkpt lat="45.0451307" lon="9.6381433"><ele>61.0</ele><time>2026-04-11T11:40:04.94Z</time></trkpt><trkpt lat="45.044967" lon="9.638111"><ele>61.0</ele><time>2026-04-11T11:40:05.939Z</time></trkpt><trkpt lat="45.0448056" lon="9.6380763"><ele>61.0</ele><time>2026-04-11T11:40:06.938Z</time></trkpt><trkpt lat="45.0446388" lon="9.6380408"><ele>61.0</ele><time>2026-04-11T11:40:07.938Z</time></trkpt><trkpt lat="45.0444664" lon="9.6380023"><ele>61.0</ele><time>2026-04-11T11:40:08.938Z</time></trkpt><trkpt lat="45.0442885" lon="9.637961"><ele>61.0</ele><time>2026-04-11T11:40:09.937Z</time></trkpt><trkpt lat="45.0441078" lon="9.637919"><ele>61.0</ele><time>2026-04-11T11:40:10.942Z</time></trkpt><trkpt lat="45.0439266" lon="9.6378774"><ele>61.0</ele><time>2026-04-11T11:40:11.939Z</time></trkpt><trkpt lat="45.0437473" lon="9.6378357"><ele>61.0</ele><time>2026-04-11T11:40:12.939Z</time></trkpt><trkpt lat="45.0435689" lon="9.6377902"><ele>61.0</ele><time>2026-04-11T11:40:13.94Z</time></trkpt><trkpt lat="45.0433934" lon="9.6377319"><ele>61.0</ele><time>2026-04-11T11:40:14.94Z</time></trkpt><trkpt lat="45.0432199" lon="9.63766"><ele>61.0</ele><time>2026-04-11T11:40:15.938Z</time></trkpt><trkpt lat="45.0430479" lon="9.6375766"><ele>61.0</ele><time>2026-04-11T11:40:16.939Z</time></trkpt><trkpt lat="45.0428788" lon="9.6374801"><ele>61.0</ele><time>2026-04-11T11:40:17.944Z</time></trkpt><trkpt lat="45.0427124" lon="9.6373692"><ele>61.0</ele><time>2026-04-11T11:40:18.939Z</time></trkpt><trkpt lat="45.042546" lon="9.6372472"><ele>61.0</ele><time>2026-04-11T11:40:19.941Z</time></trkpt><trkpt lat="45.042376" lon="9.6371258"><ele>61.0</ele><time>2026-04-11T11:40:20.94Z</time></trkpt><trkpt lat="45.0422017" lon="9.6370196"><ele>61.0</ele><time>2026-04-11T11:40:21.94Z</time></trkpt><trkpt lat="45.0420234" lon="9.6369331"><ele>61.0</ele><time>2026-04-11T11:40:22.939Z</time></trkpt><trkpt lat="45.0418467" lon="9.6368567"><ele>61.0</ele><time>2026-04-11T11:40:23.939Z</time></trkpt><trkpt lat="45.041668" lon="9.6367807"><ele>61.0</ele><time>2026-04-11T11:40:24.946Z</time></trkpt><trkpt lat="45.0414898" lon="9.6367043"><ele>61.33333333333333</ele><time>2026-04-11T11:40:25.94Z</time></trkpt><trkpt lat="45.0413075" lon="9.6366253"><ele>61.66666666666667</ele><time>2026-04-11T11:40:26.939Z</time></trkpt><trkpt lat="45.0411272" lon="9.6365445"><ele>62.0</ele><time>2026-04-11T11:40:27.938Z</time></trkpt><trkpt lat="45.0409499" lon="9.6364645"><ele>62.0</ele><time>2026-04-11T11:40:28.937Z</time></trkpt><trkpt lat="45.040776" lon="9.6363857"><ele>62.0</ele><time>2026-04-11T11:40:29.937Z</time></trkpt><trkpt lat="45.0406029" lon="9.6363057"><ele>62.0</ele><time>2026-04-11T11:40:30.938Z</time></trkpt><trkpt lat="45.040432" lon="9.6362275"><ele>62.0</ele><time>2026-04-11T11:40:31.947Z</time></trkpt><trkpt lat="45.0402644" lon="9.6361536"><ele>62.0</ele><time>2026-04-11T11:40:32.941Z</time></trkpt><trkpt lat="45.0400954" lon="9.6360791"><ele>62.0</ele><time>2026-04-11T11:40:33.938Z</time></trkpt><trkpt lat="45.0399268" lon="9.636003"><ele>62.0</ele><time>2026-04-11T11:40:34.938Z</time></trkpt><trkpt lat="45.0397585" lon="9.6359289"><ele>62.0</ele><time>2026-04-11T11:40:35.938Z</time></trkpt><trkpt lat="45.0395886" lon="9.6358554"><ele>62.0</ele><time>2026-04-11T11:40:36.941Z</time></trkpt><trkpt lat="45.0394186" lon="9.6357847"><ele>62.0</ele><time>2026-04-11T11:40:37.938Z</time></trkpt><trkpt lat="45.0392496" lon="9.6357116"><ele>62.0</ele><time>2026-04-11T11:40:38.948Z</time></trkpt><trkpt lat="45.0390832" lon="9.6356361"><ele>62.0</ele><time>2026-04-11T11:40:39.939Z</time></trkpt><trkpt lat="45.0389166" lon="9.6355576"><ele>62.66666666666667</ele><time>2026-04-11T11:40:40.937Z</time></trkpt><trkpt lat="45.0387514" lon="9.6354807"><ele>63.33333333333333</ele><time>2026-04-11T11:40:41.937Z</time></trkpt><trkpt lat="45.0385919" lon="9.6354074"><ele>64.0</ele><time>2026-04-11T11:40:42.94Z</time></trkpt><trkpt lat="45.0384384" lon="9.6353375"><ele>63.5</ele><time>2026-04-11T11:40:43.944Z</time></trkpt><trkpt lat="45.0382888" lon="9.6352704"><ele>63.0</ele><time>2026-04-11T11:40:44.938Z</time></trkpt><trkpt lat="45.0381461" lon="9.6352093"><ele>62.5</ele><time>2026-04-11T11:40:45.938Z</time></trkpt><trkpt lat="45.0380143" lon="9.6351529"><ele>62.0</ele><time>2026-04-11T11:40:46.937Z</time></trkpt><trkpt lat="45.0378986" lon="9.6350969"><ele>62.0</ele><time>2026-04-11T11:40:47.941Z</time></trkpt><trkpt lat="45.0378035" lon="9.6350266"><ele>62.0</ele><time>2026-04-11T11:40:48.938Z</time></trkpt><trkpt lat="45.0377339" lon="9.6349294"><ele>62.0</ele><time>2026-04-11T11:40:49.938Z</time></trkpt><trkpt lat="45.0377067" lon="9.6347832"><ele>62.0</ele><time>2026-04-11T11:40:50.945Z</time></trkpt><trkpt lat="45.0377085" lon="9.6346141"><ele>62.0</ele><time>2026-04-11T11:40:51.938Z</time></trkpt><trkpt lat="45.0377067" lon="9.6344622"><ele>62.0</ele><time>2026-04-11T11:40:52.937Z</time></trkpt><trkpt lat="45.0376795" lon="9.6343602"><ele>62.0</ele><time>2026-04-11T11:40:53.939Z</time></trkpt><trkpt lat="45.0376289" lon="9.6343066"><ele>62.0</ele><time>2026-04-11T11:40:54.939Z</time></trkpt><trkpt lat="45.0375473" lon="9.634295"><ele>62.0</ele><time>2026-04-11T11:40:55.939Z</time></trkpt><trkpt lat="45.0374229" lon="9.6343166"><ele>62.0</ele><time>2026-04-11T11:40:56.945Z</time></trkpt><trkpt lat="45.0372715" lon="9.6343471"><ele>62.333333333333336</ele><time>2026-04-11T11:40:57.939Z</time></trkpt><trkpt lat="45.0371022" lon="9.6343766"><ele>62.66666666666667</ele><time>2026-04-11T11:40:58.937Z</time></trkpt><trkpt lat="45.0369192" lon="9.6344039"><ele>63.0</ele><time>2026-04-11T11:40:59.938Z</time></trkpt><trkpt lat="45.0367313" lon="9.6344281"><ele>63.66666666666667</ele><time>2026-04-11T11:41:00.937Z</time></trkpt><trkpt lat="45.0365459" lon="9.6344524"><ele>64.33333333333334</ele><time>2026-04-11T11:41:01.939Z</time></trkpt><trkpt lat="45.0363659" lon="9.6344725"><ele>65.0</ele><time>2026-04-11T11:41:02.938Z</time></trkpt><trkpt lat="45.03619" lon="9.6344918"><ele>65.33333333333334</ele><time>2026-04-11T11:41:03.937Z</time></trkpt><trkpt lat="45.036014" lon="9.6345168"><ele>65.66666666666667</ele><time>2026-04-11T11:41:04.937Z</time></trkpt><trkpt lat="45.0358389" lon="9.6345419"><ele>66.0</ele><time>2026-04-11T11:41:05.938Z</time></trkpt><trkpt lat="45.0356627" lon="9.6345645"><ele>65.33333333333333</ele><time>2026-04-11T11:41:06.937Z</time></trkpt><trkpt lat="45.0354871" lon="9.634589"><ele>64.66666666666666</ele><time>2026-04-11T11:41:07.938Z</time></trkpt><trkpt lat="45.0353121" lon="9.6346135"><ele>64.0</ele><time>2026-04-11T11:41:08.938Z</time></trkpt><trkpt lat="45.0351412" lon="9.6346278"><ele>64.0</ele><time>2026-04-11T11:41:09.937Z</time></trkpt><trkpt lat="45.0349853" lon="9.6346391"><ele>64.0</ele><time>2026-04-11T11:41:10.938Z</time></trkpt><trkpt lat="45.0348392" lon="9.6346544"><ele>64.0</ele><time>2026-04-11T11:41:11.938Z</time></trkpt><trkpt lat="45.034709" lon="9.6346712"><ele>64.0</ele><time>2026-04-11T11:41:12.943Z</time></trkpt><trkpt lat="45.0346058" lon="9.6346803"><ele>64.33333333333333</ele><time>2026-04-11T11:41:13.938Z</time></trkpt><trkpt lat="45.0345263" lon="9.6346753"><ele>64.66666666666666</ele><time>2026-04-11T11:41:14.939Z</time></trkpt><trkpt lat="45.0344676" lon="9.6346402"><ele>65.0</ele><time>2026-04-11T11:41:15.937Z</time></trkpt><trkpt lat="45.0344369" lon="9.6345437"><ele>65.33333333333333</ele><time>2026-04-11T11:41:16.938Z</time></trkpt><trkpt lat="45.0344047" lon="9.6344008"><ele>65.66666666666667</ele><time>2026-04-11T11:41:17.94Z</time></trkpt><trkpt lat="45.034358" lon="9.6342363"><ele>66.0</ele><time>2026-04-11T11:41:18.939Z</time></trkpt><trkpt lat="45.0342919" lon="9.6340496"><ele>66.0</ele><time>2026-04-11T11:41:19.946Z</time></trkpt><trkpt lat="45.034216" lon="9.6338427"><ele>66.0</ele><time>2026-04-11T11:41:20.939Z</time></trkpt><trkpt lat="45.034137" lon="9.6336181"><ele>66.0</ele><time>2026-04-11T11:41:21.939Z</time></trkpt><trkpt lat="45.0340536" lon="9.6333793"><ele>66.0</ele><time>2026-04-11T11:41:22.939Z</time></trkpt><trkpt lat="45.0339694" lon="9.6331327"><ele>66.0</ele><time>2026-04-11T11:41:23.94Z</time></trkpt><trkpt lat="45.0338842" lon="9.6328869"><ele>66.0</ele><time>2026-04-11T11:41:24.945Z</time></trkpt><trkpt lat="45.0337995" lon="9.6326406"><ele>66.0</ele><time>2026-04-11T11:41:25.938Z</time></trkpt><trkpt lat="45.0337148" lon="9.6323933"><ele>66.0</ele><time>2026-04-11T11:41:26.937Z</time></trkpt><trkpt lat="45.0336309" lon="9.6321533"><ele>66.0</ele><time>2026-04-11T11:41:27.938Z</time></trkpt><trkpt lat="45.0335463" lon="9.6319148"><ele>66.0</ele><time>2026-04-11T11:41:28.937Z</time></trkpt><trkpt lat="45.0334612" lon="9.6316779"><ele>66.0</ele><time>2026-04-11T11:41:29.937Z</time></trkpt><trkpt lat="45.0333789" lon="9.6314508"><ele>66.0</ele><time>2026-04-11T11:41:30.938Z</time></trkpt><trkpt lat="45.0333001" lon="9.631228"><ele>66.0</ele><time>2026-04-11T11:41:31.938Z</time></trkpt><trkpt lat="45.0332211" lon="9.6310021"><ele>66.0</ele><time>2026-04-11T11:41:32.94Z</time></trkpt><trkpt lat="45.0331428" lon="9.6307694"><ele>66.0</ele><time>2026-04-11T11:41:33.939Z</time></trkpt><trkpt lat="45.0330586" lon="9.6305263"><ele>66.33333333333333</ele><time>2026-04-11T11:41:34.944Z</time></trkpt><trkpt lat="45.0329702" lon="9.6302769"><ele>66.66666666666666</ele><time>2026-04-11T11:41:35.94Z</time></trkpt><trkpt lat="45.0328815" lon="9.6300262"><ele>67.0</ele><time>2026-04-11T11:41:36.939Z</time></trkpt><trkpt lat="45.0327943" lon="9.6297798"><ele>67.0</ele><time>2026-04-11T11:41:37.939Z</time></trkpt><trkpt lat="45.0327105" lon="9.6295364"><ele>67.0</ele><time>2026-04-11T11:41:38.939Z</time></trkpt><trkpt lat="45.032626" lon="9.6292895"><ele>67.0</ele><time>2026-04-11T11:41:39.939Z</time></trkpt><trkpt lat="45.0325394" lon="9.6290451"><ele>67.0</ele><time>2026-04-11T11:41:40.938Z</time></trkpt><trkpt lat="45.0324481" lon="9.6287972"><ele>67.0</ele><time>2026-04-11T11:41:41.937Z</time></trkpt><trkpt lat="45.032355" lon="9.6285467"><ele>67.0</ele><time>2026-04-11T11:41:42.937Z</time></trkpt><trkpt lat="45.0322633" lon="9.6283033"><ele>67.0</ele><time>2026-04-11T11:41:43.945Z</time></trkpt><trkpt lat="45.03218" lon="9.6280717"><ele>67.0</ele><time>2026-04-11T11:41:44.938Z</time></trkpt><trkpt lat="45.032105" lon="9.6278467"><ele>67.0</ele><time>2026-04-11T11:41:45.937Z</time></trkpt><trkpt lat="45.0320367" lon="9.62761"><ele>67.0</ele><time>2026-04-11T11:41:46.939Z</time></trkpt><trkpt lat="45.0319783" lon="9.6273617"><ele>67.0</ele><time>2026-04-11T11:41:47.939Z</time></trkpt><trkpt lat="45.0319383" lon="9.6271233"><ele>67.0</ele><time>2026-04-11T11:41:48.94Z</time></trkpt><trkpt lat="45.031915" lon="9.6268883"><ele>66.75</ele><time>2026-04-11T11:41:49.938Z</time></trkpt><trkpt lat="45.0319033" lon="9.6266717"><ele>66.5</ele><time>2026-04-11T11:41:50.938Z</time></trkpt><trkpt lat="45.0318883" lon="9.626485"><ele>66.25</ele><time>2026-04-11T11:41:51.94Z</time></trkpt><trkpt lat="45.03186" lon="9.6263217"><ele>66.0</ele><time>2026-04-11T11:41:52.939Z</time></trkpt><trkpt lat="45.0318117" lon="9.62619"><ele>65.75</ele><time>2026-04-11T11:41:53.939Z</time></trkpt><trkpt lat="45.0317433" lon="9.62609"><ele>65.5</ele><time>2026-04-11T11:41:54.937Z</time></trkpt><trkpt lat="45.031665" lon="9.625995"><ele>65.25</ele><time>2026-04-11T11:41:55.938Z</time></trkpt><trkpt lat="45.031555" lon="9.625895"><ele>65.0</ele><time>2026-04-11T11:41:56.94Z</time></trkpt><trkpt lat="45.03143" lon="9.6257733"><ele>66.0</ele><time>2026-04-11T11:41:57.939Z</time></trkpt><trkpt lat="45.031325" lon="9.6256217"><ele>67.0</ele><time>2026-04-11T11:41:58.943Z</time></trkpt><trkpt lat="45.0312367" lon="9.6254117"><ele>68.0</ele><time>2026-04-11T11:41:59.938Z</time></trkpt><trkpt lat="45.0311533" lon="9.625155"><ele>68.0</ele><time>2026-04-11T11:42:00.938Z</time></trkpt><trkpt lat="45.0310617" lon="9.6248833"><ele>68.0</ele><time>2026-04-11T11:42:01.937Z</time></trkpt><trkpt lat="45.030965" lon="9.6246067"><ele>68.0</ele><time>2026-04-11T11:42:02.938Z</time></trkpt><trkpt lat="45.03087" lon="9.6243417"><ele>68.0</ele><time>2026-04-11T11:42:03.939Z</time></trkpt><trkpt lat="45.0307833" lon="9.6240883"><ele>68.0</ele><time>2026-04-11T11:42:04.938Z</time></trkpt><trkpt lat="45.0306983" lon="9.6238433"><ele>68.0</ele><time>2026-04-11T11:42:05.943Z</time></trkpt><trkpt lat="45.030615" lon="9.6236117"><ele>68.0</ele><time>2026-04-11T11:42:06.938Z</time></trkpt><trkpt lat="45.030535" lon="9.6234217"><ele>68.0</ele><time>2026-04-11T11:42:07.938Z</time></trkpt><trkpt lat="45.0304567" lon="9.62329"><ele>68.0</ele><time>2026-04-11T11:42:08.938Z</time></trkpt><trkpt lat="45.030375" lon="9.6231933"><ele>68.0</ele><time>2026-04-11T11:42:09.937Z</time></trkpt><trkpt lat="45.0302983" lon="9.6230767"><ele>68.0</ele><time>2026-04-11T11:42:10.944Z</time></trkpt><trkpt lat="45.0302367" lon="9.6229067"><ele>68.0</ele><time>2026-04-11T11:42:11.937Z</time></trkpt><trkpt lat="45.030175" lon="9.6227083"><ele>68.0</ele><time>2026-04-11T11:42:12.937Z</time></trkpt><trkpt lat="45.0301033" lon="9.6224867"><ele>68.66666666666667</ele><time>2026-04-11T11:42:13.937Z</time></trkpt><trkpt lat="45.030035" lon="9.6222517"><ele>69.33333333333333</ele><time>2026-04-11T11:42:14.938Z</time></trkpt><trkpt lat="45.0299767" lon="9.622025"><ele>70.0</ele><time>2026-04-11T11:42:15.937Z</time></trkpt><trkpt lat="45.029915" lon="9.6218083"><ele>70.0</ele><time>2026-04-11T11:42:16.938Z</time></trkpt><trkpt lat="45.029845" lon="9.6216067"><ele>70.0</ele><time>2026-04-11T11:42:17.944Z</time></trkpt><trkpt lat="45.0297733" lon="9.6214183"><ele>70.0</ele><time>2026-04-11T11:42:18.94Z</time></trkpt><trkpt lat="45.0297017" lon="9.6212567"><ele>70.0</ele><time>2026-04-11T11:42:19.939Z</time></trkpt><trkpt lat="45.0296033" lon="9.6211283"><ele>70.0</ele><time>2026-04-11T11:42:20.94Z</time></trkpt><trkpt lat="45.0294717" lon="9.6210117"><ele>70.0</ele><time>2026-04-11T11:42:21.939Z</time></trkpt><trkpt lat="45.02932" lon="9.6209133"><ele>70.0</ele><time>2026-04-11T11:42:22.941Z</time></trkpt><trkpt lat="45.029165" lon="9.6208283"><ele>70.0</ele><time>2026-04-11T11:42:23.942Z</time></trkpt><trkpt lat="45.0290083" lon="9.620755"><ele>70.0</ele><time>2026-04-11T11:42:24.943Z</time></trkpt><trkpt lat="45.028845" lon="9.62069"><ele>70.0</ele><time>2026-04-11T11:42:25.938Z</time></trkpt><trkpt lat="45.0286783" lon="9.6206217"><ele>70.0</ele><time>2026-04-11T11:42:26.939Z</time></trkpt><trkpt lat="45.0285067" lon="9.6205633"><ele>70.0</ele><time>2026-04-11T11:42:27.938Z</time></trkpt><trkpt lat="45.0283267" lon="9.6205167"><ele>70.0</ele><time>2026-04-11T11:42:28.938Z</time></trkpt><trkpt lat="45.0281417" lon="9.62048"><ele>71.0</ele><time>2026-04-11T11:42:29.937Z</time></trkpt><trkpt lat="45.0279533" lon="9.6204417"><ele>72.0</ele><time>2026-04-11T11:42:30.942Z</time></trkpt><trkpt lat="45.0277633" lon="9.6204067"><ele>73.0</ele><time>2026-04-11T11:42:31.939Z</time></trkpt><trkpt lat="45.027575" lon="9.6203717"><ele>72.66666666666666</ele><time>2026-04-11T11:42:32.937Z</time></trkpt><trkpt lat="45.0273917" lon="9.62034"><ele>72.33333333333333</ele><time>2026-04-11T11:42:33.936Z</time></trkpt><trkpt lat="45.0272117" lon="9.62032"><ele>72.0</ele><time>2026-04-11T11:42:34.937Z</time></trkpt><trkpt lat="45.0270333" lon="9.6203083"><ele>72.0</ele><time>2026-04-11T11:42:35.939Z</time></trkpt><trkpt lat="45.0268567" lon="9.6203"><ele>72.0</ele><time>2026-04-11T11:42:36.936Z</time></trkpt><trkpt lat="45.0266817" lon="9.620305"><ele>72.0</ele><time>2026-04-11T11:42:37.936Z</time></trkpt><trkpt lat="45.0265083" lon="9.62031"><ele>71.66666666666667</ele><time>2026-04-11T11:42:38.937Z</time></trkpt><trkpt lat="45.0263333" lon="9.62031"><ele>71.33333333333334</ele><time>2026-04-11T11:42:39.936Z</time></trkpt><trkpt lat="45.02616" lon="9.62031"><ele>71.0</ele><time>2026-04-11T11:42:40.948Z</time></trkpt><trkpt lat="45.025995" lon="9.6203183"><ele>71.0</ele><time>2026-04-11T11:42:41.937Z</time></trkpt><trkpt lat="45.02584" lon="9.6203367"><ele>71.0</ele><time>2026-04-11T11:42:42.939Z</time></trkpt><trkpt lat="45.0256967" lon="9.6203383"><ele>71.0</ele><time>2026-04-11T11:42:43.937Z</time></trkpt><trkpt lat="45.02555" lon="9.620285"><ele>70.66666666666667</ele><time>2026-04-11T11:42:44.938Z</time></trkpt><trkpt lat="45.0254083" lon="9.6201917"><ele>70.33333333333333</ele><time>2026-04-11T11:42:45.937Z</time></trkpt><trkpt lat="45.025275" lon="9.62009"><ele>70.0</ele><time>2026-04-11T11:42:46.937Z</time></trkpt><trkpt lat="45.0251467" lon="9.6199967"><ele>70.0</ele><time>2026-04-11T11:42:47.939Z</time></trkpt><trkpt lat="45.02502" lon="9.619915"><ele>70.0</ele><time>2026-04-11T11:42:48.938Z</time></trkpt><trkpt lat="45.0248933" lon="9.6198367"><ele>70.0</ele><time>2026-04-11T11:42:49.938Z</time></trkpt><trkpt lat="45.0247683" lon="9.61976"><ele>70.0</ele><time>2026-04-11T11:42:50.941Z</time></trkpt><trkpt lat="45.02464" lon="9.61968"><ele>70.25</ele><time>2026-04-11T11:42:51.938Z</time></trkpt><trkpt lat="45.0245167" lon="9.619605"><ele>70.5</ele><time>2026-04-11T11:42:52.939Z</time></trkpt><trkpt lat="45.024385" lon="9.6195267"><ele>70.75</ele><time>2026-04-11T11:42:53.937Z</time></trkpt><trkpt lat="45.0242317" lon="9.6194317"><ele>71.0</ele><time>2026-04-11T11:42:54.938Z</time></trkpt><trkpt lat="45.024075" lon="9.6193367"><ele>71.0</ele><time>2026-04-11T11:42:55.939Z</time></trkpt><trkpt lat="45.0239217" lon="9.6192383"><ele>71.0</ele><time>2026-04-11T11:42:56.938Z</time></trkpt><trkpt lat="45.0237633" lon="9.6191333"><ele>71.0</ele><time>2026-04-11T11:42:57.944Z</time></trkpt><trkpt lat="45.023605" lon="9.619025"><ele>71.0</ele><time>2026-04-11T11:42:58.937Z</time></trkpt><trkpt lat="45.0234417" lon="9.6189133"><ele>71.0</ele><time>2026-04-11T11:42:59.938Z</time></trkpt><trkpt lat="45.023275" lon="9.618805"><ele>71.0</ele><time>2026-04-11T11:43:00.939Z</time></trkpt><trkpt lat="45.02311" lon="9.6187"><ele>72.0</ele><time>2026-04-11T11:43:01.938Z</time></trkpt><trkpt lat="45.0229483" lon="9.6186033"><ele>73.0</ele><time>2026-04-11T11:43:02.938Z</time></trkpt><trkpt lat="45.0227867" lon="9.6185217"><ele>74.0</ele><time>2026-04-11T11:43:03.936Z</time></trkpt><trkpt lat="45.0226183" lon="9.6184667"><ele>74.0</ele><time>2026-04-11T11:43:04.936Z</time></trkpt><trkpt lat="45.0224483" lon="9.6184367"><ele>74.0</ele><time>2026-04-11T11:43:05.936Z</time></trkpt><trkpt lat="45.0222733" lon="9.6184233"><ele>74.0</ele><time>2026-04-11T11:43:06.938Z</time></trkpt><trkpt lat="45.0220917" lon="9.6184167"><ele>74.0</ele><time>2026-04-11T11:43:07.936Z</time></trkpt><trkpt lat="45.0219083" lon="9.61841"><ele>74.0</ele><time>2026-04-11T11:43:08.942Z</time></trkpt><trkpt lat="45.021725" lon="9.6183983"><ele>74.0</ele><time>2026-04-11T11:43:09.937Z</time></trkpt><trkpt lat="45.02154" lon="9.6183867"><ele>73.33333333333334</ele><time>2026-04-11T11:43:10.939Z</time></trkpt><trkpt lat="45.021355" lon="9.618375"><ele>72.66666666666667</ele><time>2026-04-11T11:43:11.939Z</time></trkpt><trkpt lat="45.0211683" lon="9.6183633"><ele>72.0</ele><time>2026-04-11T11:43:12.939Z</time></trkpt><trkpt lat="45.0209817" lon="9.6183533"><ele>73.33333333333333</ele><time>2026-04-11T11:43:13.939Z</time></trkpt><trkpt lat="45.0207983" lon="9.6183433"><ele>74.66666666666666</ele><time>2026-04-11T11:43:14.938Z</time></trkpt><trkpt lat="45.0206233" lon="9.6183333"><ele>76.0</ele><time>2026-04-11T11:43:15.936Z</time></trkpt><trkpt lat="45.0204483" lon="9.61833"><ele>76.0</ele><time>2026-04-11T11:43:16.939Z</time></trkpt><trkpt lat="45.0202767" lon="9.618345"><ele>76.0</ele><time>2026-04-11T11:43:17.936Z</time></trkpt><trkpt lat="45.0201067" lon="9.6183833"><ele>76.0</ele><time>2026-04-11T11:43:18.936Z</time></trkpt><trkpt lat="45.0199383" lon="9.6184083"><ele>75.33333333333333</ele><time>2026-04-11T11:43:19.937Z</time></trkpt><trkpt lat="45.0197633" lon="9.6183867"><ele>74.66666666666667</ele><time>2026-04-11T11:43:20.937Z</time></trkpt><trkpt lat="45.0195867" lon="9.6183333"><ele>74.0</ele><time>2026-04-11T11:43:21.936Z</time></trkpt><trkpt lat="45.01941" lon="9.618265"><ele>74.0</ele><time>2026-04-11T11:43:22.941Z</time></trkpt><trkpt lat="45.0192367" lon="9.6182033"><ele>74.0</ele><time>2026-04-11T11:43:23.938Z</time></trkpt><trkpt lat="45.0190633" lon="9.6181483"><ele>74.0</ele><time>2026-04-11T11:43:24.937Z</time></trkpt><trkpt lat="45.0188933" lon="9.6180883"><ele>73.66666666666667</ele><time>2026-04-11T11:43:25.937Z</time></trkpt><trkpt lat="45.0187233" lon="9.61802"><ele>73.33333333333333</ele><time>2026-04-11T11:43:26.937Z</time></trkpt><trkpt lat="45.01855" lon="9.6179483"><ele>73.0</ele><time>2026-04-11T11:43:27.943Z</time></trkpt><trkpt lat="45.0183767" lon="9.61788"><ele>73.0</ele><time>2026-04-11T11:43:28.939Z</time></trkpt><trkpt lat="45.018205" lon="9.617815"><ele>73.0</ele><time>2026-04-11T11:43:29.938Z</time></trkpt><trkpt lat="45.0180267" lon="9.6177483"><ele>73.0</ele><time>2026-04-11T11:43:30.937Z</time></trkpt><trkpt lat="45.0178517" lon="9.6176817"><ele>73.0</ele><time>2026-04-11T11:43:31.937Z</time></trkpt><trkpt lat="45.017675" lon="9.6176133"><ele>73.0</ele><time>2026-04-11T11:43:32.937Z</time></trkpt><trkpt lat="45.0174933" lon="9.6175433"><ele>73.0</ele><time>2026-04-11T11:43:33.937Z</time></trkpt><trkpt lat="45.0173117" lon="9.6174733"><ele>73.66666666666666</ele><time>2026-04-11T11:43:34.938Z</time></trkpt><trkpt lat="45.017135" lon="9.6174017"><ele>74.33333333333333</ele><time>2026-04-11T11:43:35.937Z</time></trkpt><trkpt lat="45.0169583" lon="9.6173267"><ele>75.0</ele><time>2026-04-11T11:43:36.936Z</time></trkpt><trkpt lat="45.01678" lon="9.6172533"><ele>75.33333333333333</ele><time>2026-04-11T11:43:37.936Z</time></trkpt><trkpt lat="45.0166033" lon="9.61718"><ele>75.66666666666666</ele><time>2026-04-11T11:43:38.937Z</time></trkpt><trkpt lat="45.0164283" lon="9.6171083"><ele>76.0</ele><time>2026-04-11T11:43:39.936Z</time></trkpt><trkpt lat="45.01625" lon="9.6170383"><ele>75.66666666666666</ele><time>2026-04-11T11:43:40.943Z</time></trkpt><trkpt lat="45.01607" lon="9.616965"><ele>75.33333333333333</ele><time>2026-04-11T11:43:41.938Z</time></trkpt><trkpt lat="45.0158917" lon="9.61689"><ele>75.0</ele><time>2026-04-11T11:43:42.939Z</time></trkpt><trkpt lat="45.015715" lon="9.6168133"><ele>75.0</ele><time>2026-04-11T11:43:43.939Z</time></trkpt><trkpt lat="45.0155433" lon="9.61674"><ele>75.0</ele><time>2026-04-11T11:43:44.939Z</time></trkpt><trkpt lat="45.0153717" lon="9.6166667"><ele>75.0</ele><time>2026-04-11T11:43:45.939Z</time></trkpt><trkpt lat="45.0151983" lon="9.6165983"><ele>75.0</ele><time>2026-04-11T11:43:46.939Z</time></trkpt><trkpt lat="45.0150283" lon="9.6165317"><ele>75.0</ele><time>2026-04-11T11:43:47.943Z</time></trkpt><trkpt lat="45.01486" lon="9.6164633"><ele>75.0</ele><time>2026-04-11T11:43:48.937Z</time></trkpt><trkpt lat="45.0146917" lon="9.6163967"><ele>75.33333333333333</ele><time>2026-04-11T11:43:49.937Z</time></trkpt><trkpt lat="45.0145233" lon="9.6163317"><ele>75.66666666666666</ele><time>2026-04-11T11:43:50.939Z</time></trkpt><trkpt lat="45.0143483" lon="9.6162683"><ele>76.0</ele><time>2026-04-11T11:43:51.937Z</time></trkpt><trkpt lat="45.01417" lon="9.6161983"><ele>75.66666666666666</ele><time>2026-04-11T11:43:52.942Z</time></trkpt><trkpt lat="45.0139933" lon="9.6161233"><ele>75.33333333333333</ele><time>2026-04-11T11:43:53.936Z</time></trkpt><trkpt lat="45.013815" lon="9.6160433"><ele>75.0</ele><time>2026-04-11T11:43:54.937Z</time></trkpt><trkpt lat="45.0136383" lon="9.6159633"><ele>75.0</ele><time>2026-04-11T11:43:55.939Z</time></trkpt><trkpt lat="45.0134583" lon="9.6158883"><ele>75.0</ele><time>2026-04-11T11:43:56.938Z</time></trkpt><trkpt lat="45.013275" lon="9.6158133"><ele>75.0</ele><time>2026-04-11T11:43:57.943Z</time></trkpt><trkpt lat="45.0130917" lon="9.61574"><ele>75.0</ele><time>2026-04-11T11:43:58.938Z</time></trkpt><trkpt lat="45.01291" lon="9.6156683"><ele>75.0</ele><time>2026-04-11T11:43:59.939Z</time></trkpt><trkpt lat="45.01273" lon="9.6155983"><ele>75.0</ele><time>2026-04-11T11:44:00.938Z</time></trkpt><trkpt lat="45.01255" lon="9.6155233"><ele>75.33333333333333</ele><time>2026-04-11T11:44:01.936Z</time></trkpt><trkpt lat="45.01237" lon="9.6154467"><ele>75.66666666666666</ele><time>2026-04-11T11:44:02.944Z</time></trkpt><trkpt lat="45.0121867" lon="9.61537"><ele>76.0</ele><time>2026-04-11T11:44:03.938Z</time></trkpt><trkpt lat="45.012005" lon="9.615295"><ele>76.0</ele><time>2026-04-11T11:44:04.94Z</time></trkpt><trkpt lat="45.0118217" lon="9.61522"><ele>76.0</ele><time>2026-04-11T11:44:05.938Z</time></trkpt><trkpt lat="45.0116417" lon="9.615145"><ele>76.0</ele><time>2026-04-11T11:44:06.939Z</time></trkpt><trkpt lat="45.0114617" lon="9.6150717"><ele>76.66666666666666</ele><time>2026-04-11T11:44:07.939Z</time></trkpt><trkpt lat="45.01128" lon="9.615"><ele>77.33333333333333</ele><time>2026-04-11T11:44:08.939Z</time></trkpt><trkpt lat="45.0111" lon="9.6149267"><ele>78.0</ele><time>2026-04-11T11:44:09.939Z</time></trkpt><trkpt lat="45.010925" lon="9.6148583"><ele>78.0</ele><time>2026-04-11T11:44:10.938Z</time></trkpt><trkpt lat="45.0107517" lon="9.6147883"><ele>78.0</ele><time>2026-04-11T11:44:11.939Z</time></trkpt><trkpt lat="45.010575" lon="9.614715"><ele>78.0</ele><time>2026-04-11T11:44:12.938Z</time></trkpt><trkpt lat="45.0103883" lon="9.614635"><ele>78.0</ele><time>2026-04-11T11:44:13.936Z</time></trkpt><trkpt lat="45.0102033" lon="9.614555"><ele>78.0</ele><time>2026-04-11T11:44:14.938Z</time></trkpt><trkpt lat="45.0100183" lon="9.6144783"><ele>78.0</ele><time>2026-04-11T11:44:15.938Z</time></trkpt><trkpt lat="45.0098333" lon="9.6144033"><ele>79.0</ele><time>2026-04-11T11:44:16.937Z</time></trkpt><trkpt lat="45.0096483" lon="9.6143317"><ele>80.0</ele><time>2026-04-11T11:44:17.937Z</time></trkpt><trkpt lat="45.0094667" lon="9.6142617"><ele>81.0</ele><time>2026-04-11T11:44:18.937Z</time></trkpt><trkpt lat="45.009295" lon="9.614195"><ele>81.33333333333333</ele><time>2026-04-11T11:44:19.937Z</time></trkpt><trkpt lat="45.0091367" lon="9.6141317"><ele>81.66666666666666</ele><time>2026-04-11T11:44:20.937Z</time></trkpt><trkpt lat="45.0089917" lon="9.6140683"><ele>82.0</ele><time>2026-04-11T11:44:21.937Z</time></trkpt><trkpt lat="45.0088583" lon="9.61401"><ele>82.0</ele><time>2026-04-11T11:44:22.937Z</time></trkpt><trkpt lat="45.0087383" lon="9.6139633"><ele>82.0</ele><time>2026-04-11T11:44:23.938Z</time></trkpt><trkpt lat="45.008635" lon="9.613935"><ele>82.0</ele><time>2026-04-11T11:44:24.945Z</time></trkpt><trkpt lat="45.0085517" lon="9.613945"><ele>82.0</ele><time>2026-04-11T11:44:25.938Z</time></trkpt><trkpt lat="45.0084917" lon="9.6139967"><ele>82.0</ele><time>2026-04-11T11:44:26.937Z</time></trkpt><trkpt lat="45.0084467" lon="9.614095"><ele>82.0</ele><time>2026-04-11T11:44:27.936Z</time></trkpt><trkpt lat="45.008425" lon="9.614225"><ele>82.0</ele><time>2026-04-11T11:44:28.937Z</time></trkpt><trkpt lat="45.0084233" lon="9.6143983"><ele>82.0</ele><time>2026-04-11T11:44:29.937Z</time></trkpt><trkpt lat="45.0084183" lon="9.614585"><ele>82.0</ele><time>2026-04-11T11:44:30.937Z</time></trkpt><trkpt lat="45.0084117" lon="9.61478"><ele>82.0</ele><time>2026-04-11T11:44:31.937Z</time></trkpt><trkpt lat="45.00841" lon="9.61496"><ele>82.0</ele><time>2026-04-11T11:44:32.937Z</time></trkpt><trkpt lat="45.0084033" lon="9.6151133"><ele>82.0</ele><time>2026-04-11T11:44:33.942Z</time></trkpt><trkpt lat="45.00838" lon="9.6152217"><ele>82.0</ele><time>2026-04-11T11:44:34.938Z</time></trkpt><trkpt lat="45.0083433" lon="9.615295"><ele>82.0</ele><time>2026-04-11T11:44:35.937Z</time></trkpt><trkpt lat="45.00828" lon="9.61532"><ele>82.0</ele><time>2026-04-11T11:44:36.938Z</time></trkpt><trkpt lat="45.0082083" lon="9.6153083"><ele>82.25</ele><time>2026-04-11T11:44:37.937Z</time></trkpt><trkpt lat="45.008115" lon="9.6152633"><ele>82.5</ele><time>2026-04-11T11:44:38.941Z</time></trkpt><trkpt lat="45.0080133" lon="9.6152083"><ele>82.75</ele><time>2026-04-11T11:44:39.936Z</time></trkpt><trkpt lat="45.0078917" lon="9.6151517"><ele>83.0</ele><time>2026-04-11T11:44:40.937Z</time></trkpt><trkpt lat="45.0077733" lon="9.61511"><ele>83.0</ele><time>2026-04-11T11:44:41.937Z</time></trkpt><trkpt lat="45.00766" lon="9.615075"><ele>83.0</ele><time>2026-04-11T11:44:42.936Z</time></trkpt><trkpt lat="45.007555" lon="9.6150583"><ele>83.0</ele><time>2026-04-11T11:44:43.941Z</time></trkpt><trkpt lat="45.00745" lon="9.615035"><ele>83.0</ele><time>2026-04-11T11:44:44.938Z</time></trkpt><trkpt lat="45.0073333" lon="9.6149933"><ele>83.0</ele><time>2026-04-11T11:44:45.937Z</time></trkpt><trkpt lat="45.0072" lon="9.6149483"><ele>81.66666666666667</ele><time>2026-04-11T11:44:46.937Z</time></trkpt><trkpt lat="45.0070517" lon="9.6149117"><ele>80.33333333333333</ele><time>2026-04-11T11:44:47.937Z</time></trkpt><trkpt lat="45.0068983" lon="9.6148767"><ele>79.0</ele><time>2026-04-11T11:44:48.943Z</time></trkpt><trkpt lat="45.0067483" lon="9.61484"><ele>80.0</ele><time>2026-04-11T11:44:49.937Z</time></trkpt><trkpt lat="45.006615" lon="9.614805"><ele>81.0</ele><time>2026-04-11T11:44:50.937Z</time></trkpt><trkpt lat="45.0065033" lon="9.61479"><ele>82.0</ele><time>2026-04-11T11:44:51.939Z</time></trkpt><trkpt lat="45.0063867" lon="9.6148133"><ele>83.0</ele><time>2026-04-11T11:44:52.936Z</time></trkpt><trkpt lat="45.0062517" lon="9.6148467"><ele>83.0</ele><time>2026-04-11T11:44:53.937Z</time></trkpt><trkpt lat="45.0061" lon="9.6148683"><ele>83.0</ele><time>2026-04-11T11:44:54.937Z</time></trkpt><trkpt lat="45.00595" lon="9.6148833"><ele>83.0</ele><time>2026-04-11T11:44:55.945Z</time></trkpt><trkpt lat="45.0058117" lon="9.6148917"><ele>83.0</ele><time>2026-04-11T11:44:56.937Z</time></trkpt><trkpt lat="45.005685" lon="9.6148817"><ele>83.25</ele><time>2026-04-11T11:44:57.938Z</time></trkpt><trkpt lat="45.0055633" lon="9.61483"><ele>83.5</ele><time>2026-04-11T11:44:58.936Z</time></trkpt><trkpt lat="45.00544" lon="9.6147433"><ele>83.75</ele><time>2026-04-11T11:44:59.937Z</time></trkpt><trkpt lat="45.0053083" lon="9.6146617"><ele>84.0</ele><time>2026-04-11T11:45:00.943Z</time></trkpt><trkpt lat="45.0051833" lon="9.6145917"><ele>84.0</ele><time>2026-04-11T11:45:01.938Z</time></trkpt><trkpt lat="45.0050583" lon="9.614535"><ele>84.0</ele><time>2026-04-11T11:45:02.938Z</time></trkpt><trkpt lat="45.0049333" lon="9.614485"><ele>84.0</ele><time>2026-04-11T11:45:03.937Z</time></trkpt><trkpt lat="45.0048083" lon="9.6144383"><ele>84.0</ele><time>2026-04-11T11:45:04.937Z</time></trkpt><trkpt lat="45.0046767" lon="9.6143833"><ele>84.25</ele><time>2026-04-11T11:45:05.936Z</time></trkpt><trkpt lat="45.00454" lon="9.614325"><ele>84.5</ele><time>2026-04-11T11:45:06.938Z</time></trkpt><trkpt lat="45.0043967" lon="9.614265"><ele>84.75</ele><time>2026-04-11T11:45:07.937Z</time></trkpt><trkpt lat="45.00426" lon="9.614205"><ele>85.0</ele><time>2026-04-11T11:45:08.937Z</time></trkpt><trkpt lat="45.0041183" lon="9.6141533"><ele>85.0</ele><time>2026-04-11T11:45:09.937Z</time></trkpt><trkpt lat="45.0039767" lon="9.6141133"><ele>85.0</ele><time>2026-04-11T11:45:10.936Z</time></trkpt><trkpt lat="45.0038267" lon="9.6141017"><ele>85.0</ele><time>2026-04-11T11:45:11.941Z</time></trkpt><trkpt lat="45.0036717" lon="9.6141017"><ele>85.0</ele><time>2026-04-11T11:45:12.937Z</time></trkpt><trkpt lat="45.0035183" lon="9.614095"><ele>85.0</ele><time>2026-04-11T11:45:13.937Z</time></trkpt><trkpt lat="45.00337" lon="9.61409"><ele>85.0</ele><time>2026-04-11T11:45:14.939Z</time></trkpt><trkpt lat="45.0032267" lon="9.614085"><ele>85.0</ele><time>2026-04-11T11:45:15.938Z</time></trkpt><trkpt lat="45.0030883" lon="9.614075"><ele>85.0</ele><time>2026-04-11T11:45:16.937Z</time></trkpt><trkpt lat="45.0029433" lon="9.614045"><ele>85.0</ele><time>2026-04-11T11:45:17.936Z</time></trkpt><trkpt lat="45.0028017" lon="9.614"><ele>85.0</ele><time>2026-04-11T11:45:18.937Z</time></trkpt><trkpt lat="45.0026583" lon="9.6139533"><ele>85.0</ele><time>2026-04-11T11:45:19.938Z</time></trkpt><trkpt lat="45.0025167" lon="9.61391"><ele>85.25</ele><time>2026-04-11T11:45:20.939Z</time></trkpt><trkpt lat="45.0023733" lon="9.6138633"><ele>85.5</ele><time>2026-04-11T11:45:21.942Z</time></trkpt><trkpt lat="45.0022383" lon="9.6138017"><ele>85.75</ele><time>2026-04-11T11:45:22.938Z</time></trkpt><trkpt lat="45.0021017" lon="9.6137367"><ele>86.0</ele><time>2026-04-11T11:45:23.938Z</time></trkpt><trkpt lat="45.0019533" lon="9.6136783"><ele>86.0</ele><time>2026-04-11T11:45:24.938Z</time></trkpt><trkpt lat="45.0018083" lon="9.613635"><ele>86.0</ele><time>2026-04-11T11:45:25.937Z</time></trkpt><trkpt lat="45.0016667" lon="9.6136133"><ele>86.0</ele><time>2026-04-11T11:45:26.942Z</time></trkpt><trkpt lat="45.0015283" lon="9.613595"><ele>86.0</ele><time>2026-04-11T11:45:27.937Z</time></trkpt><trkpt lat="45.0013917" lon="9.613575"><ele>86.0</ele><time>2026-04-11T11:45:28.937Z</time></trkpt><trkpt lat="45.0012533" lon="9.6135517"><ele>86.0</ele><time>2026-04-11T11:45:29.938Z</time></trkpt><trkpt lat="45.0011167" lon="9.613535"><ele>86.0</ele><time>2026-04-11T11:45:30.937Z</time></trkpt><trkpt lat="45.0009783" lon="9.6135233"><ele>86.0</ele><time>2026-04-11T11:45:31.938Z</time></trkpt><trkpt lat="45.0008433" lon="9.6135183"><ele>86.25</ele><time>2026-04-11T11:45:32.937Z</time></trkpt><trkpt lat="45.0007067" lon="9.6135217"><ele>86.5</ele><time>2026-04-11T11:45:33.941Z</time></trkpt><trkpt lat="45.0005667" lon="9.61353"><ele>86.75</ele><time>2026-04-11T11:45:34.937Z</time></trkpt><trkpt lat="45.000435" lon="9.613545"><ele>87.0</ele><time>2026-04-11T11:45:35.937Z</time></trkpt><trkpt lat="45.0003133" lon="9.6135683"><ele>87.0</ele><time>2026-04-11T11:45:36.936Z</time></trkpt><trkpt lat="45.000205" lon="9.613605"><ele>87.0</ele><time>2026-04-11T11:45:37.938Z</time></trkpt><trkpt lat="45.0001083" lon="9.6136483"><ele>87.0</ele><time>2026-04-11T11:45:38.945Z</time></trkpt><trkpt lat="45.0000233" lon="9.6136867"><ele>87.0</ele><time>2026-04-11T11:45:39.937Z</time></trkpt><trkpt lat="44.99993" lon="9.6137133"><ele>87.0</ele><time>2026-04-11T11:45:41.937Z</time></trkpt><trkpt lat="44.9998333" lon="9.6137133"><ele>87.0</ele><time>2026-04-11T11:45:43.942Z</time></trkpt><trkpt lat="44.999755" lon="9.6137067"><ele>87.0</ele><time>2026-04-11T11:45:44.937Z</time></trkpt><trkpt lat="44.9996617" lon="9.6136833"><ele>87.0</ele><time>2026-04-11T11:45:45.936Z</time></trkpt><trkpt lat="44.9995533" lon="9.6136417"><ele>87.0</ele><time>2026-04-11T11:45:46.937Z</time></trkpt><trkpt lat="44.9994367" lon="9.6135783"><ele>87.0</ele><time>2026-04-11T11:45:47.937Z</time></trkpt><trkpt lat="44.9993117" lon="9.6135083"><ele>87.0</ele><time>2026-04-11T11:45:48.944Z</time></trkpt><trkpt lat="44.99917" lon="9.61343"><ele>87.0</ele><time>2026-04-11T11:45:49.937Z</time></trkpt><trkpt lat="44.99903" lon="9.6133567"><ele>87.0</ele><time>2026-04-11T11:45:50.937Z</time></trkpt><trkpt lat="44.99889" lon="9.6132833"><ele>87.33333333333333</ele><time>2026-04-11T11:45:51.937Z</time></trkpt><trkpt lat="44.9987433" lon="9.61321"><ele>87.66666666666666</ele><time>2026-04-11T11:45:52.937Z</time></trkpt><trkpt lat="44.9986" lon="9.6131317"><ele>88.0</ele><time>2026-04-11T11:45:53.937Z</time></trkpt><trkpt lat="44.9984533" lon="9.613055"><ele>88.0</ele><time>2026-04-11T11:45:54.937Z</time></trkpt><trkpt lat="44.9983" lon="9.6129883"><ele>88.0</ele><time>2026-04-11T11:45:55.938Z</time></trkpt><trkpt lat="44.9981417" lon="9.6129467"><ele>88.0</ele><time>2026-04-11T11:45:56.937Z</time></trkpt><trkpt lat="44.9979867" lon="9.61294"><ele>88.0</ele><time>2026-04-11T11:45:57.94Z</time></trkpt><trkpt lat="44.9978333" lon="9.61297"><ele>88.0</ele><time>2026-04-11T11:45:58.937Z</time></trkpt><trkpt lat="44.9976817" lon="9.6130333"><ele>88.0</ele><time>2026-04-11T11:45:59.937Z</time></trkpt><trkpt lat="44.997545" lon="9.613135"><ele>88.33333333333333</ele><time>2026-04-11T11:46:00.938Z</time></trkpt><trkpt lat="44.9974183" lon="9.613275"><ele>88.66666666666667</ele><time>2026-04-11T11:46:01.938Z</time></trkpt><trkpt lat="44.9973" lon="9.6134317"><ele>89.0</ele><time>2026-04-11T11:46:02.939Z</time></trkpt><trkpt lat="44.99719" lon="9.6135833"><ele>89.0</ele><time>2026-04-11T11:46:03.937Z</time></trkpt><trkpt lat="44.9970783" lon="9.61373"><ele>89.0</ele><time>2026-04-11T11:46:04.941Z</time></trkpt><trkpt lat="44.9969667" lon="9.6138717"><ele>89.0</ele><time>2026-04-11T11:46:05.94Z</time></trkpt><trkpt lat="44.9968633" lon="9.6140217"><ele>89.0</ele><time>2026-04-11T11:46:06.938Z</time></trkpt><trkpt lat="44.9967617" lon="9.6141817"><ele>89.0</ele><time>2026-04-11T11:46:07.938Z</time></trkpt><trkpt lat="44.9966567" lon="9.61434"><ele>89.0</ele><time>2026-04-11T11:46:08.938Z</time></trkpt><trkpt lat="44.9965467" lon="9.61449"><ele>89.0</ele><time>2026-04-11T11:46:09.937Z</time></trkpt><trkpt lat="44.9964433" lon="9.6146317"><ele>89.0</ele><time>2026-04-11T11:46:10.937Z</time></trkpt><trkpt lat="44.9963417" lon="9.61477"><ele>89.0</ele><time>2026-04-11T11:46:11.942Z</time></trkpt><trkpt lat="44.9962383" lon="9.6149083"><ele>89.0</ele><time>2026-04-11T11:46:12.937Z</time></trkpt><trkpt lat="44.996135" lon="9.6150433"><ele>89.0</ele><time>2026-04-11T11:46:13.938Z</time></trkpt><trkpt lat="44.9960317" lon="9.6151633"><ele>89.0</ele><time>2026-04-11T11:46:14.938Z</time></trkpt><trkpt lat="44.9959283" lon="9.6152617"><ele>89.0</ele><time>2026-04-11T11:46:15.937Z</time></trkpt><trkpt lat="44.9958333" lon="9.6153317"><ele>89.0</ele><time>2026-04-11T11:46:16.94Z</time></trkpt><trkpt lat="44.9957367" lon="9.6153633"><ele>88.75</ele><time>2026-04-11T11:46:17.938Z</time></trkpt><trkpt lat="44.9956367" lon="9.6153483"><ele>88.5</ele><time>2026-04-11T11:46:18.937Z</time></trkpt><trkpt lat="44.9955417" lon="9.61528"><ele>88.25</ele><time>2026-04-11T11:46:19.938Z</time></trkpt><trkpt lat="44.9954367" lon="9.615175"><ele>88.0</ele><time>2026-04-11T11:46:20.937Z</time></trkpt><trkpt lat="44.99532" lon="9.6150617"><ele>88.0</ele><time>2026-04-11T11:46:21.937Z</time></trkpt><trkpt lat="44.9951917" lon="9.61495"><ele>88.0</ele><time>2026-04-11T11:46:22.939Z</time></trkpt><trkpt lat="44.9950633" lon="9.61484"><ele>88.0</ele><time>2026-04-11T11:46:23.938Z</time></trkpt><trkpt lat="44.9949367" lon="9.6147383"><ele>88.0</ele><time>2026-04-11T11:46:24.938Z</time></trkpt><trkpt lat="44.9948167" lon="9.614645"><ele>87.75</ele><time>2026-04-11T11:46:25.938Z</time></trkpt><trkpt lat="44.994705" lon="9.6145583"><ele>87.5</ele><time>2026-04-11T11:46:26.939Z</time></trkpt><trkpt lat="44.9946" lon="9.6144783"><ele>87.25</ele><time>2026-04-11T11:46:27.938Z</time></trkpt><trkpt lat="44.9945" lon="9.61441"><ele>87.0</ele><time>2026-04-11T11:46:28.943Z</time></trkpt><trkpt lat="44.99441" lon="9.6143833"><ele>87.0</ele><time>2026-04-11T11:46:29.937Z</time></trkpt><trkpt lat="44.9943383" lon="9.614395"><ele>87.0</ele><time>2026-04-11T11:46:30.938Z</time></trkpt><trkpt lat="44.994265" lon="9.614505"><ele>87.0</ele><time>2026-04-11T11:46:32.939Z</time></trkpt><trkpt lat="44.9942833" lon="9.614615"><ele>87.0</ele><time>2026-04-11T11:46:34.938Z</time></trkpt><trkpt lat="44.9943433" lon="9.6147083"><ele>87.0</ele><time>2026-04-11T11:49:29.938Z</time></trkpt><trkpt lat="44.994355" lon="9.614805"><ele>87.0</ele><time>2026-04-11T11:53:19.938Z</time></trkpt><trkpt lat="44.9942867" lon="9.6148033"><ele>87.0</ele><time>2026-04-11T11:53:23.937Z</time></trkpt><trkpt lat="44.9942217" lon="9.614785"><ele>87.0</ele><time>2026-04-11T11:53:28.937Z</time></trkpt><trkpt lat="44.9942317" lon="9.6146567"><ele>87.0</ele><time>2026-04-11T12:03:02.938Z</time></trkpt><trkpt lat="44.9942283" lon="9.6145533"><ele>87.0</ele><time>2026-04-11T12:03:04.938Z</time></trkpt><trkpt lat="44.9942567" lon="9.61444"><ele>87.0</ele><time>2026-04-11T12:03:06.938Z</time></trkpt><trkpt lat="44.9942933" lon="9.6143567"><ele>87.0</ele><time>2026-04-11T12:03:08.942Z</time></trkpt><trkpt lat="44.994335" lon="9.61428"><ele>87.0</ele><time>2026-04-11T12:03:10.938Z</time></trkpt><trkpt lat="44.99435" lon="9.6141783"><ele>87.0</ele><time>2026-04-11T12:03:12.938Z</time></trkpt><trkpt lat="44.994315" lon="9.61405"><ele>87.0</ele><time>2026-04-11T12:03:22.938Z</time></trkpt><trkpt lat="44.994275" lon="9.6139267"><ele>87.0</ele><time>2026-04-11T12:03:24.938Z</time></trkpt><trkpt lat="44.9942217" lon="9.6138633"><ele>87.0</ele><time>2026-04-11T12:03:25.938Z</time></trkpt><trkpt lat="44.9941517" lon="9.6137983"><ele>87.0</ele><time>2026-04-11T12:03:26.938Z</time></trkpt><trkpt lat="44.994075" lon="9.613735"><ele>87.16666666666667</ele><time>2026-04-11T12:03:27.938Z</time></trkpt><trkpt lat="44.994005" lon="9.6136617"><ele>87.33333333333333</ele><time>2026-04-11T12:03:28.937Z</time></trkpt><trkpt lat="44.9939383" lon="9.6135833"><ele>87.5</ele><time>2026-04-11T12:03:29.936Z</time></trkpt><trkpt lat="44.99387" lon="9.6135133"><ele>87.66666666666666</ele><time>2026-04-11T12:03:30.941Z</time></trkpt><trkpt lat="44.9937983" lon="9.6134467"><ele>87.83333333333333</ele><time>2026-04-11T12:03:31.938Z</time></trkpt><trkpt lat="44.993725" lon="9.61339"><ele>88.0</ele><time>2026-04-11T12:03:32.937Z</time></trkpt><trkpt lat="44.9936433" lon="9.613325"><ele>88.0</ele><time>2026-04-11T12:03:33.936Z</time></trkpt><trkpt lat="44.9935467" lon="9.6132383"><ele>88.0</ele><time>2026-04-11T12:03:34.936Z</time></trkpt><trkpt lat="44.9934567" lon="9.6131617"><ele>88.0</ele><time>2026-04-11T12:03:35.939Z</time></trkpt><trkpt lat="44.99337" lon="9.6130717"><ele>88.0</ele><time>2026-04-11T12:03:36.936Z</time></trkpt><trkpt lat="44.9932683" lon="9.6129767"><ele>88.0</ele><time>2026-04-11T12:03:37.936Z</time></trkpt><trkpt lat="44.99316" lon="9.6128783"><ele>88.75</ele><time>2026-04-11T12:03:38.937Z</time></trkpt><trkpt lat="44.9930417" lon="9.612775"><ele>89.5</ele><time>2026-04-11T12:03:39.936Z</time></trkpt><trkpt lat="44.99292" lon="9.6126667"><ele>90.25</ele><time>2026-04-11T12:03:40.941Z</time></trkpt><trkpt lat="44.9928067" lon="9.6125667"><ele>91.0</ele><time>2026-04-11T12:03:41.937Z</time></trkpt><trkpt lat="44.9926933" lon="9.6124683"><ele>91.0</ele><time>2026-04-11T12:03:42.937Z</time></trkpt><trkpt lat="44.9925767" lon="9.6123683"><ele>91.0</ele><time>2026-04-11T12:03:43.937Z</time></trkpt><trkpt lat="44.99246" lon="9.61227"><ele>91.0</ele><time>2026-04-11T12:03:44.937Z</time></trkpt><trkpt lat="44.9923433" lon="9.6121733"><ele>91.0</ele><time>2026-04-11T12:03:45.937Z</time></trkpt><trkpt lat="44.9922283" lon="9.6120767"><ele>90.75</ele><time>2026-04-11T12:03:46.937Z</time></trkpt><trkpt lat="44.9921133" lon="9.6119783"><ele>90.5</ele><time>2026-04-11T12:03:47.938Z</time></trkpt><trkpt lat="44.9919983" lon="9.6118817"><ele>90.25</ele><time>2026-04-11T12:03:48.938Z</time></trkpt><trkpt lat="44.99188" lon="9.6117833"><ele>90.0</ele><time>2026-04-11T12:03:49.938Z</time></trkpt><trkpt lat="44.99177" lon="9.611685"><ele>90.75</ele><time>2026-04-11T12:03:50.938Z</time></trkpt><trkpt lat="44.9916617" lon="9.6115833"><ele>91.5</ele><time>2026-04-11T12:03:51.945Z</time></trkpt><trkpt lat="44.991545" lon="9.61148"><ele>92.25</ele><time>2026-04-11T12:03:52.938Z</time></trkpt><trkpt lat="44.9914333" lon="9.6113817"><ele>93.0</ele><time>2026-04-11T12:03:53.938Z</time></trkpt><trkpt lat="44.9913217" lon="9.6112867"><ele>93.0</ele><time>2026-04-11T12:03:54.939Z</time></trkpt><trkpt lat="44.991205" lon="9.6111867"><ele>93.0</ele><time>2026-04-11T12:03:55.938Z</time></trkpt><trkpt lat="44.9910917" lon="9.6110867"><ele>93.0</ele><time>2026-04-11T12:03:56.945Z</time></trkpt><trkpt lat="44.9909767" lon="9.610985"><ele>93.0</ele><time>2026-04-11T12:03:57.938Z</time></trkpt><trkpt lat="44.9908583" lon="9.61088"><ele>92.75</ele><time>2026-04-11T12:03:58.94Z</time></trkpt><trkpt lat="44.9907433" lon="9.610775"><ele>92.5</ele><time>2026-04-11T12:03:59.938Z</time></trkpt><trkpt lat="44.9906267" lon="9.6106717"><ele>92.25</ele><time>2026-04-11T12:04:00.937Z</time></trkpt><trkpt lat="44.9905117" lon="9.6105667"><ele>92.0</ele><time>2026-04-11T12:04:01.938Z</time></trkpt><trkpt lat="44.9903967" lon="9.610465"><ele>92.0</ele><time>2026-04-11T12:04:02.94Z</time></trkpt><trkpt lat="44.9902817" lon="9.6103633"><ele>92.0</ele><time>2026-04-11T12:04:03.939Z</time></trkpt><trkpt lat="44.9901717" lon="9.6102667"><ele>92.0</ele><time>2026-04-11T12:04:04.94Z</time></trkpt><trkpt lat="44.99006" lon="9.61017"><ele>92.0</ele><time>2026-04-11T12:04:05.939Z</time></trkpt><trkpt lat="44.9899467" lon="9.6100683"><ele>91.75</ele><time>2026-04-11T12:04:06.94Z</time></trkpt><trkpt lat="44.9898333" lon="9.6099667"><ele>91.5</ele><time>2026-04-11T12:04:07.939Z</time></trkpt><trkpt lat="44.9897217" lon="9.6098617"><ele>91.25</ele><time>2026-04-11T12:04:08.944Z</time></trkpt><trkpt lat="44.9896033" lon="9.6097533"><ele>91.0</ele><time>2026-04-11T12:04:09.938Z</time></trkpt><trkpt lat="44.9894833" lon="9.6096417"><ele>91.0</ele><time>2026-04-11T12:04:10.937Z</time></trkpt><trkpt lat="44.98936" lon="9.6095317"><ele>91.0</ele><time>2026-04-11T12:04:11.938Z</time></trkpt><trkpt lat="44.9892383" lon="9.60942"><ele>91.0</ele><time>2026-04-11T12:04:12.937Z</time></trkpt><trkpt lat="44.9891183" lon="9.60931"><ele>91.0</ele><time>2026-04-11T12:04:13.936Z</time></trkpt><trkpt lat="44.9890017" lon="9.609205"><ele>91.0</ele><time>2026-04-11T12:04:14.938Z</time></trkpt><trkpt lat="44.9888883" lon="9.609105"><ele>91.0</ele><time>2026-04-11T12:04:15.937Z</time></trkpt><trkpt lat="44.988775" lon="9.609005"><ele>91.0</ele><time>2026-04-11T12:04:16.94Z</time></trkpt><trkpt lat="44.9886583" lon="9.6089017"><ele>91.0</ele><time>2026-04-11T12:04:17.937Z</time></trkpt><trkpt lat="44.988535" lon="9.60879"><ele>91.0</ele><time>2026-04-11T12:04:18.937Z</time></trkpt><trkpt lat="44.9884067" lon="9.6086733"><ele>91.0</ele><time>2026-04-11T12:04:19.939Z</time></trkpt><trkpt lat="44.988275" lon="9.6085517"><ele>91.0</ele><time>2026-04-11T12:04:20.938Z</time></trkpt><trkpt lat="44.9881483" lon="9.6084333"><ele>92.0</ele><time>2026-04-11T12:04:21.944Z</time></trkpt><trkpt lat="44.98802" lon="9.6083167"><ele>93.0</ele><time>2026-04-11T12:04:22.937Z</time></trkpt><trkpt lat="44.98789" lon="9.6082017"><ele>94.0</ele><time>2026-04-11T12:04:23.937Z</time></trkpt><trkpt lat="44.9877583" lon="9.6080933"><ele>94.0</ele><time>2026-04-11T12:04:24.938Z</time></trkpt><trkpt lat="44.9876267" lon="9.60799"><ele>94.0</ele><time>2026-04-11T12:04:25.937Z</time></trkpt><trkpt lat="44.98749" lon="9.6078883"><ele>94.0</ele><time>2026-04-11T12:04:26.938Z</time></trkpt><trkpt lat="44.9873483" lon="9.6077883"><ele>93.66666666666666</ele><time>2026-04-11T12:04:27.938Z</time></trkpt><trkpt lat="44.9872067" lon="9.607695"><ele>93.33333333333333</ele><time>2026-04-11T12:04:28.937Z</time></trkpt><trkpt lat="44.9870633" lon="9.6076033"><ele>93.0</ele><time>2026-04-11T12:04:29.943Z</time></trkpt><trkpt lat="44.9869167" lon="9.6075167"><ele>93.0</ele><time>2026-04-11T12:04:30.937Z</time></trkpt><trkpt lat="44.9867683" lon="9.6074383"><ele>93.0</ele><time>2026-04-11T12:04:31.937Z</time></trkpt><trkpt lat="44.98662" lon="9.60737"><ele>93.0</ele><time>2026-04-11T12:04:32.938Z</time></trkpt><trkpt lat="44.98647" lon="9.607305"><ele>93.33333333333333</ele><time>2026-04-11T12:04:33.939Z</time></trkpt><trkpt lat="44.9863183" lon="9.6072417"><ele>93.66666666666666</ele><time>2026-04-11T12:04:34.937Z</time></trkpt><trkpt lat="44.986165" lon="9.60718"><ele>94.0</ele><time>2026-04-11T12:04:35.942Z</time></trkpt><trkpt lat="44.9860067" lon="9.60712"><ele>94.0</ele><time>2026-04-11T12:04:36.937Z</time></trkpt><trkpt lat="44.9858467" lon="9.607065"><ele>94.0</ele><time>2026-04-11T12:04:37.937Z</time></trkpt><trkpt lat="44.9856867" lon="9.6070133"><ele>94.0</ele><time>2026-04-11T12:04:38.939Z</time></trkpt><trkpt lat="44.9855233" lon="9.6069717"><ele>93.66666666666666</ele><time>2026-04-11T12:04:39.937Z</time></trkpt><trkpt lat="44.9853633" lon="9.606945"><ele>93.33333333333333</ele><time>2026-04-11T12:04:40.938Z</time></trkpt><trkpt lat="44.9852067" lon="9.606925"><ele>93.0</ele><time>2026-04-11T12:04:41.937Z</time></trkpt><trkpt lat="44.9850467" lon="9.6069117"><ele>93.33333333333333</ele><time>2026-04-11T12:04:42.936Z</time></trkpt><trkpt lat="44.9848817" lon="9.6069033"><ele>93.66666666666666</ele><time>2026-04-11T12:04:43.937Z</time></trkpt><trkpt lat="44.984715" lon="9.6068967"><ele>94.0</ele><time>2026-04-11T12:04:44.937Z</time></trkpt><trkpt lat="44.9845467" lon="9.6068917"><ele>94.0</ele><time>2026-04-11T12:04:45.938Z</time></trkpt><trkpt lat="44.9843783" lon="9.6068883"><ele>94.0</ele><time>2026-04-11T12:04:46.938Z</time></trkpt><trkpt lat="44.984215" lon="9.60689"><ele>94.0</ele><time>2026-04-11T12:04:47.939Z</time></trkpt><trkpt lat="44.9840533" lon="9.606895"><ele>94.33333333333333</ele><time>2026-04-11T12:04:48.939Z</time></trkpt><trkpt lat="44.983895" lon="9.6068983"><ele>94.66666666666667</ele><time>2026-04-11T12:04:49.938Z</time></trkpt><trkpt lat="44.9837333" lon="9.6069033"><ele>95.0</ele><time>2026-04-11T12:04:50.939Z</time></trkpt><trkpt lat="44.98357" lon="9.6069067"><ele>95.0</ele><time>2026-04-11T12:04:51.938Z</time></trkpt><trkpt lat="44.983405" lon="9.6069067"><ele>95.0</ele><time>2026-04-11T12:04:52.939Z</time></trkpt><trkpt lat="44.9832433" lon="9.6069117"><ele>95.0</ele><time>2026-04-11T12:04:53.939Z</time></trkpt><trkpt lat="44.9830833" lon="9.6069183"><ele>95.0</ele><time>2026-04-11T12:04:54.94Z</time></trkpt><trkpt lat="44.9829267" lon="9.6069217"><ele>95.0</ele><time>2026-04-11T12:04:55.938Z</time></trkpt><trkpt lat="44.9827717" lon="9.6069267"><ele>95.0</ele><time>2026-04-11T12:04:56.943Z</time></trkpt><trkpt lat="44.982615" lon="9.6069333"><ele>95.0</ele><time>2026-04-11T12:04:57.938Z</time></trkpt><trkpt lat="44.9824567" lon="9.6069367"><ele>95.0</ele><time>2026-04-11T12:04:58.939Z</time></trkpt><trkpt lat="44.982295" lon="9.60694"><ele>95.0</ele><time>2026-04-11T12:04:59.937Z</time></trkpt><trkpt lat="44.9821367" lon="9.6069467"><ele>95.0</ele><time>2026-04-11T12:05:00.937Z</time></trkpt><trkpt lat="44.9819733" lon="9.6069483"><ele>95.0</ele><time>2026-04-11T12:05:01.937Z</time></trkpt><trkpt lat="44.98181" lon="9.60695"><ele>95.0</ele><time>2026-04-11T12:05:02.937Z</time></trkpt><trkpt lat="44.981645" lon="9.6069533"><ele>94.33333333333334</ele><time>2026-04-11T12:05:03.943Z</time></trkpt><trkpt lat="44.98148" lon="9.60696"><ele>93.66666666666667</ele><time>2026-04-11T12:05:04.937Z</time></trkpt><trkpt lat="44.981315" lon="9.6069633"><ele>93.0</ele><time>2026-04-11T12:05:05.937Z</time></trkpt><trkpt lat="44.981155" lon="9.6069667"><ele>93.0</ele><time>2026-04-11T12:05:06.937Z</time></trkpt><trkpt lat="44.9809967" lon="9.6069683"><ele>93.0</ele><time>2026-04-11T12:05:07.938Z</time></trkpt><trkpt lat="44.9808417" lon="9.60697"><ele>93.0</ele><time>2026-04-11T12:05:08.939Z</time></trkpt><trkpt lat="44.9806817" lon="9.6069667"><ele>94.0</ele><time>2026-04-11T12:05:09.937Z</time></trkpt><trkpt lat="44.9805217" lon="9.6069617"><ele>95.0</ele><time>2026-04-11T12:05:10.938Z</time></trkpt><trkpt lat="44.980365" lon="9.6069533"><ele>96.0</ele><time>2026-04-11T12:05:11.939Z</time></trkpt><trkpt lat="44.980205" lon="9.6069383"><ele>96.0</ele><time>2026-04-11T12:05:12.937Z</time></trkpt><trkpt lat="44.980045" lon="9.6069183"><ele>96.0</ele><time>2026-04-11T12:05:13.937Z</time></trkpt><trkpt lat="44.979885" lon="9.60689"><ele>96.0</ele><time>2026-04-11T12:05:14.938Z</time></trkpt><trkpt lat="44.9797233" lon="9.6068583"><ele>96.33333333333334</ele><time>2026-04-11T12:05:15.937Z</time></trkpt><trkpt lat="44.9795633" lon="9.6068217"><ele>96.66666666666667</ele><time>2026-04-11T12:05:16.943Z</time></trkpt><trkpt lat="44.9794017" lon="9.6067817"><ele>97.0</ele><time>2026-04-11T12:05:17.938Z</time></trkpt><trkpt lat="44.97924" lon="9.60674"><ele>96.33333333333334</ele><time>2026-04-11T12:05:18.937Z</time></trkpt><trkpt lat="44.97908" lon="9.6067"><ele>95.66666666666667</ele><time>2026-04-11T12:05:19.939Z</time></trkpt><trkpt lat="44.9789167" lon="9.6066617"><ele>95.0</ele><time>2026-04-11T12:05:20.937Z</time></trkpt><trkpt lat="44.9787533" lon="9.60662"><ele>95.0</ele><time>2026-04-11T12:05:21.943Z</time></trkpt><trkpt lat="44.9785917" lon="9.6065817"><ele>95.0</ele><time>2026-04-11T12:05:22.937Z</time></trkpt><trkpt lat="44.9784333" lon="9.6065433"><ele>95.0</ele><time>2026-04-11T12:05:23.937Z</time></trkpt><trkpt lat="44.9782717" lon="9.6065033"><ele>96.33333333333334</ele><time>2026-04-11T12:05:24.937Z</time></trkpt><trkpt lat="44.9781083" lon="9.606465"><ele>97.66666666666667</ele><time>2026-04-11T12:05:25.938Z</time></trkpt><trkpt lat="44.9779433" lon="9.6064267"><ele>99.0</ele><time>2026-04-11T12:05:26.941Z</time></trkpt><trkpt lat="44.97778" lon="9.60639"><ele>99.0</ele><time>2026-04-11T12:05:27.937Z</time></trkpt><trkpt lat="44.97762" lon="9.6063517"><ele>99.0</ele><time>2026-04-11T12:05:28.937Z</time></trkpt><trkpt lat="44.97746" lon="9.606315"><ele>99.0</ele><time>2026-04-11T12:05:29.937Z</time></trkpt><trkpt lat="44.9772983" lon="9.606275"><ele>98.66666666666666</ele><time>2026-04-11T12:05:30.937Z</time></trkpt><trkpt lat="44.9771367" lon="9.606235"><ele>98.33333333333333</ele><time>2026-04-11T12:05:31.937Z</time></trkpt><trkpt lat="44.9769717" lon="9.6061917"><ele>98.0</ele><time>2026-04-11T12:05:32.937Z</time></trkpt><trkpt lat="44.9768067" lon="9.60615"><ele>98.0</ele><time>2026-04-11T12:05:33.937Z</time></trkpt><trkpt lat="44.9766417" lon="9.6061083"><ele>98.0</ele><time>2026-04-11T12:05:34.938Z</time></trkpt><trkpt lat="44.9764767" lon="9.6060717"><ele>98.0</ele><time>2026-04-11T12:05:35.943Z</time></trkpt><trkpt lat="44.976315" lon="9.6060417"><ele>98.0</ele><time>2026-04-11T12:05:36.937Z</time></trkpt><trkpt lat="44.976155" lon="9.606005"><ele>98.0</ele><time>2026-04-11T12:05:37.937Z</time></trkpt><trkpt lat="44.9759917" lon="9.605965"><ele>98.0</ele><time>2026-04-11T12:05:38.938Z</time></trkpt><trkpt lat="44.97583" lon="9.6059217"><ele>97.66666666666666</ele><time>2026-04-11T12:05:39.936Z</time></trkpt><trkpt lat="44.9756667" lon="9.60588"><ele>97.33333333333334</ele><time>2026-04-11T12:05:40.939Z</time></trkpt><trkpt lat="44.9755" lon="9.60584"><ele>97.0</ele><time>2026-04-11T12:05:41.937Z</time></trkpt><trkpt lat="44.975335" lon="9.6058017"><ele>97.0</ele><time>2026-04-11T12:05:42.938Z</time></trkpt><trkpt lat="44.9751733" lon="9.60576"><ele>97.0</ele><time>2026-04-11T12:05:43.937Z</time></trkpt><trkpt lat="44.9750083" lon="9.6057183"><ele>97.0</ele><time>2026-04-11T12:05:44.938Z</time></trkpt><trkpt lat="44.974845" lon="9.60569"><ele>98.33333333333334</ele><time>2026-04-11T12:05:45.939Z</time></trkpt><trkpt lat="44.9746783" lon="9.605675"><ele>99.66666666666666</ele><time>2026-04-11T12:05:46.937Z</time></trkpt><trkpt lat="44.97451" lon="9.6056667"><ele>101.0</ele><time>2026-04-11T12:05:47.937Z</time></trkpt><trkpt lat="44.97434" lon="9.6056617"><ele>101.0</ele><time>2026-04-11T12:05:48.939Z</time></trkpt><trkpt lat="44.9741717" lon="9.605655"><ele>101.0</ele><time>2026-04-11T12:05:49.937Z</time></trkpt><trkpt lat="44.9740017" lon="9.6056467"><ele>101.0</ele><time>2026-04-11T12:05:50.943Z</time></trkpt><trkpt lat="44.9738333" lon="9.60564"><ele>101.0</ele><time>2026-04-11T12:05:51.938Z</time></trkpt><trkpt lat="44.9736717" lon="9.6056333"><ele>101.0</ele><time>2026-04-11T12:05:52.938Z</time></trkpt><trkpt lat="44.9735183" lon="9.6056283"><ele>101.0</ele><time>2026-04-11T12:05:53.938Z</time></trkpt><trkpt lat="44.9733633" lon="9.6056233"><ele>100.66666666666666</ele><time>2026-04-11T12:05:54.937Z</time></trkpt><trkpt lat="44.9732067" lon="9.605615"><ele>100.33333333333334</ele><time>2026-04-11T12:05:55.944Z</time></trkpt><trkpt lat="44.973035" lon="9.605605"><ele>100.0</ele><time>2026-04-11T12:05:56.939Z</time></trkpt><trkpt lat="44.972855" lon="9.6055933"><ele>100.0</ele><time>2026-04-11T12:05:57.937Z</time></trkpt><trkpt lat="44.97268" lon="9.6055767"><ele>100.0</ele><time>2026-04-11T12:05:58.937Z</time></trkpt><trkpt lat="44.972515" lon="9.60556"><ele>100.0</ele><time>2026-04-11T12:05:59.937Z</time></trkpt><trkpt lat="44.9723567" lon="9.605535"><ele>99.66666666666667</ele><time>2026-04-11T12:06:00.937Z</time></trkpt><trkpt lat="44.9721967" lon="9.6055"><ele>99.33333333333334</ele><time>2026-04-11T12:06:01.94Z</time></trkpt><trkpt lat="44.9720317" lon="9.6054667"><ele>99.0</ele><time>2026-04-11T12:06:02.944Z</time></trkpt><trkpt lat="44.9718683" lon="9.6054333"><ele>99.0</ele><time>2026-04-11T12:06:03.937Z</time></trkpt><trkpt lat="44.9717" lon="9.6054"><ele>99.0</ele><time>2026-04-11T12:06:04.937Z</time></trkpt><trkpt lat="44.9715333" lon="9.6053667"><ele>99.0</ele><time>2026-04-11T12:06:05.937Z</time></trkpt><trkpt lat="44.9713717" lon="9.60534"><ele>99.5</ele><time>2026-04-11T12:06:06.937Z</time></trkpt><trkpt lat="44.9712217" lon="9.605325"><ele>100.0</ele><time>2026-04-11T12:06:07.943Z</time></trkpt><trkpt lat="44.97108" lon="9.60533"><ele>100.5</ele><time>2026-04-11T12:06:08.939Z</time></trkpt><trkpt lat="44.9709417" lon="9.605355"><ele>101.0</ele><time>2026-04-11T12:06:09.937Z</time></trkpt><trkpt lat="44.9708067" lon="9.6054033"><ele>101.0</ele><time>2026-04-11T12:06:10.941Z</time></trkpt><trkpt lat="44.9706817" lon="9.605475"><ele>101.0</ele><time>2026-04-11T12:06:11.937Z</time></trkpt><trkpt lat="44.9705683" lon="9.605555"><ele>101.0</ele><time>2026-04-11T12:06:12.937Z</time></trkpt><trkpt lat="44.9704583" lon="9.6056183"><ele>101.0</ele><time>2026-04-11T12:06:13.939Z</time></trkpt><trkpt lat="44.9703583" lon="9.6056367"><ele>101.0</ele><time>2026-04-11T12:06:14.938Z</time></trkpt><trkpt lat="44.9702633" lon="9.6056017"><ele>101.0</ele><time>2026-04-11T12:06:15.938Z</time></trkpt><trkpt lat="44.9701683" lon="9.6055183"><ele>101.0</ele><time>2026-04-11T12:06:16.938Z</time></trkpt><trkpt lat="44.9700733" lon="9.605405"><ele>101.0</ele><time>2026-04-11T12:06:17.939Z</time></trkpt><trkpt lat="44.9699733" lon="9.6052767"><ele>101.75</ele><time>2026-04-11T12:06:18.942Z</time></trkpt><trkpt lat="44.9698717" lon="9.6051333"><ele>102.5</ele><time>2026-04-11T12:06:19.938Z</time></trkpt><trkpt lat="44.96977" lon="9.6049867"><ele>103.25</ele><time>2026-04-11T12:06:20.938Z</time></trkpt><trkpt lat="44.9696633" lon="9.6048433"><ele>104.0</ele><time>2026-04-11T12:06:21.938Z</time></trkpt><trkpt lat="44.969545" lon="9.6047067"><ele>104.0</ele><time>2026-04-11T12:06:22.937Z</time></trkpt><trkpt lat="44.9694233" lon="9.604575"><ele>104.0</ele><time>2026-04-11T12:06:23.938Z</time></trkpt><trkpt lat="44.9692967" lon="9.60445"><ele>104.0</ele><time>2026-04-11T12:06:24.943Z</time></trkpt><trkpt lat="44.9691667" lon="9.6043267"><ele>104.66666666666666</ele><time>2026-04-11T12:06:25.937Z</time></trkpt><trkpt lat="44.96903" lon="9.60421"><ele>105.33333333333334</ele><time>2026-04-11T12:06:26.937Z</time></trkpt><trkpt lat="44.9688883" lon="9.6041017"><ele>106.0</ele><time>2026-04-11T12:06:27.937Z</time></trkpt><trkpt lat="44.9687417" lon="9.604"><ele>106.0</ele><time>2026-04-11T12:06:28.938Z</time></trkpt><trkpt lat="44.96859" lon="9.6039033"><ele>106.0</ele><time>2026-04-11T12:06:29.937Z</time></trkpt><trkpt lat="44.9684333" lon="9.603815"><ele>106.0</ele><time>2026-04-11T12:06:30.937Z</time></trkpt><trkpt lat="44.9682717" lon="9.60374"><ele>105.33333333333334</ele><time>2026-04-11T12:06:31.942Z</time></trkpt><trkpt lat="44.9681067" lon="9.6036733"><ele>104.66666666666666</ele><time>2026-04-11T12:06:32.941Z</time></trkpt><trkpt lat="44.9679383" lon="9.6036183"><ele>104.0</ele><time>2026-04-11T12:06:33.938Z</time></trkpt><trkpt lat="44.9677683" lon="9.6035733"><ele>103.66666666666666</ele><time>2026-04-11T12:06:34.938Z</time></trkpt><trkpt lat="44.9676033" lon="9.6035383"><ele>103.33333333333334</ele><time>2026-04-11T12:06:35.938Z</time></trkpt><trkpt lat="44.9674417" lon="9.6035133"><ele>103.0</ele><time>2026-04-11T12:06:36.939Z</time></trkpt><trkpt lat="44.967275" lon="9.6035017"><ele>103.66666666666667</ele><time>2026-04-11T12:06:37.938Z</time></trkpt><trkpt lat="44.967105" lon="9.6035017"><ele>104.33333333333334</ele><time>2026-04-11T12:06:38.948Z</time></trkpt><trkpt lat="44.9669333" lon="9.6035117"><ele>105.0</ele><time>2026-04-11T12:06:39.938Z</time></trkpt><trkpt lat="44.9667583" lon="9.6035367"><ele>105.33333333333334</ele><time>2026-04-11T12:06:40.939Z</time></trkpt><trkpt lat="44.966585" lon="9.6035733"><ele>105.66666666666667</ele><time>2026-04-11T12:06:41.938Z</time></trkpt><trkpt lat="44.9664133" lon="9.6036117"><ele>106.0</ele><time>2026-04-11T12:06:42.938Z</time></trkpt><trkpt lat="44.9662467" lon="9.6036433"><ele>105.66666666666667</ele><time>2026-04-11T12:06:43.938Z</time></trkpt><trkpt lat="44.9660817" lon="9.6036683"><ele>105.33333333333334</ele><time>2026-04-11T12:06:44.938Z</time></trkpt><trkpt lat="44.9659233" lon="9.6036917"><ele>105.0</ele><time>2026-04-11T12:06:45.937Z</time></trkpt><trkpt lat="44.965775" lon="9.6037067"><ele>105.0</ele><time>2026-04-11T12:06:46.937Z</time></trkpt><trkpt lat="44.96564" lon="9.603715"><ele>105.0</ele><time>2026-04-11T12:06:47.938Z</time></trkpt><trkpt lat="44.965515" lon="9.6037183"><ele>105.0</ele><time>2026-04-11T12:06:48.939Z</time></trkpt><trkpt lat="44.965395" lon="9.60372"><ele>105.0</ele><time>2026-04-11T12:06:49.938Z</time></trkpt><trkpt lat="44.9652733" lon="9.60373"><ele>105.0</ele><time>2026-04-11T12:06:50.938Z</time></trkpt><trkpt lat="44.965145" lon="9.6037467"><ele>105.0</ele><time>2026-04-11T12:06:51.937Z</time></trkpt><trkpt lat="44.965015" lon="9.6037717"><ele>105.0</ele><time>2026-04-11T12:06:52.937Z</time></trkpt><trkpt lat="44.9648917" lon="9.6038017"><ele>105.0</ele><time>2026-04-11T12:06:53.942Z</time></trkpt><trkpt lat="44.96477" lon="9.6038283"><ele>105.0</ele><time>2026-04-11T12:06:54.937Z</time></trkpt><trkpt lat="44.9646433" lon="9.603855"><ele>105.0</ele><time>2026-04-11T12:06:55.937Z</time></trkpt><trkpt lat="44.964515" lon="9.603885"><ele>105.0</ele><time>2026-04-11T12:06:56.94Z</time></trkpt><trkpt lat="44.964375" lon="9.6039117"><ele>105.0</ele><time>2026-04-11T12:06:57.939Z</time></trkpt><trkpt lat="44.96423" lon="9.6039333"><ele>105.0</ele><time>2026-04-11T12:06:58.938Z</time></trkpt><trkpt lat="44.9640817" lon="9.6039583"><ele>105.0</ele><time>2026-04-11T12:06:59.938Z</time></trkpt><trkpt lat="44.9639267" lon="9.603985"><ele>105.0</ele><time>2026-04-11T12:07:00.941Z</time></trkpt><trkpt lat="44.963775" lon="9.6040117"><ele>105.0</ele><time>2026-04-11T12:07:01.938Z</time></trkpt><trkpt lat="44.9636317" lon="9.6040383"><ele>105.0</ele><time>2026-04-11T12:07:02.944Z</time></trkpt><trkpt lat="44.9634883" lon="9.6040667"><ele>105.0</ele><time>2026-04-11T12:07:03.937Z</time></trkpt><trkpt lat="44.9633483" lon="9.6040933"><ele>105.0</ele><time>2026-04-11T12:07:04.938Z</time></trkpt><trkpt lat="44.9632017" lon="9.6041233"><ele>105.25</ele><time>2026-04-11T12:07:05.937Z</time></trkpt><trkpt lat="44.9630567" lon="9.60416"><ele>105.5</ele><time>2026-04-11T12:07:06.938Z</time></trkpt><trkpt lat="44.9629133" lon="9.6041967"><ele>105.75</ele><time>2026-04-11T12:07:07.937Z</time></trkpt><trkpt lat="44.9627667" lon="9.6042267"><ele>106.0</ele><time>2026-04-11T12:07:08.938Z</time></trkpt><trkpt lat="44.9626167" lon="9.604255"><ele>106.33333333333334</ele><time>2026-04-11T12:07:09.938Z</time></trkpt><trkpt lat="44.9624567" lon="9.6042817"><ele>106.66666666666666</ele><time>2026-04-11T12:07:10.942Z</time></trkpt><trkpt lat="44.9623033" lon="9.6043117"><ele>107.0</ele><time>2026-04-11T12:07:11.937Z</time></trkpt><trkpt lat="44.9621433" lon="9.6043467"><ele>107.0</ele><time>2026-04-11T12:07:12.937Z</time></trkpt><trkpt lat="44.9619833" lon="9.6043767"><ele>107.0</ele><time>2026-04-11T12:07:13.939Z</time></trkpt><trkpt lat="44.9618283" lon="9.6043967"><ele>107.0</ele><time>2026-04-11T12:07:14.938Z</time></trkpt><trkpt lat="44.96167" lon="9.6044067"><ele>106.66666666666666</ele><time>2026-04-11T12:07:15.937Z</time></trkpt><trkpt lat="44.96151" lon="9.6044183"><ele>106.33333333333334</ele><time>2026-04-11T12:07:16.942Z</time></trkpt><trkpt lat="44.9613533" lon="9.60445"><ele>106.0</ele><time>2026-04-11T12:07:17.937Z</time></trkpt><trkpt lat="44.9611967" lon="9.60448"><ele>106.0</ele><time>2026-04-11T12:07:18.943Z</time></trkpt><trkpt lat="44.9610517" lon="9.60451"><ele>106.0</ele><time>2026-04-11T12:07:19.94Z</time></trkpt><trkpt lat="44.9609067" lon="9.6045317"><ele>106.0</ele><time>2026-04-11T12:07:20.937Z</time></trkpt><trkpt lat="44.96076" lon="9.6045567"><ele>106.0</ele><time>2026-04-11T12:07:21.938Z</time></trkpt><trkpt lat="44.960615" lon="9.6045883"><ele>106.5</ele><time>2026-04-11T12:07:22.937Z</time></trkpt><trkpt lat="44.9604717" lon="9.6046167"><ele>107.0</ele><time>2026-04-11T12:07:23.938Z</time></trkpt><trkpt lat="44.9603267" lon="9.604625"><ele>107.5</ele><time>2026-04-11T12:07:24.938Z</time></trkpt><trkpt lat="44.96018" lon="9.6045917"><ele>108.0</ele><time>2026-04-11T12:07:25.94Z</time></trkpt><trkpt lat="44.9600283" lon="9.6045333"><ele>108.0</ele><time>2026-04-11T12:07:26.942Z</time></trkpt><trkpt lat="44.959875" lon="9.604475"><ele>108.0</ele><time>2026-04-11T12:07:27.94Z</time></trkpt><trkpt lat="44.959715" lon="9.6044167"><ele>108.0</ele><time>2026-04-11T12:07:28.937Z</time></trkpt><trkpt lat="44.9595533" lon="9.604355"><ele>108.0</ele><time>2026-04-11T12:07:29.937Z</time></trkpt><trkpt lat="44.9593933" lon="9.6042917"><ele>108.0</ele><time>2026-04-11T12:07:30.937Z</time></trkpt><trkpt lat="44.959235" lon="9.6042283"><ele>108.0</ele><time>2026-04-11T12:07:31.941Z</time></trkpt><trkpt lat="44.959075" lon="9.604165"><ele>108.33333333333334</ele><time>2026-04-11T12:07:32.938Z</time></trkpt><trkpt lat="44.9589133" lon="9.604105"><ele>108.66666666666667</ele><time>2026-04-11T12:07:33.938Z</time></trkpt><trkpt lat="44.9587633" lon="9.6040483"><ele>109.0</ele><time>2026-04-11T12:07:34.937Z</time></trkpt><trkpt lat="44.9586183" lon="9.6039983"><ele>109.0</ele><time>2026-04-11T12:07:35.937Z</time></trkpt><trkpt lat="44.9584717" lon="9.6039483"><ele>109.0</ele><time>2026-04-11T12:07:36.938Z</time></trkpt><trkpt lat="44.9583217" lon="9.6039"><ele>109.0</ele><time>2026-04-11T12:07:37.937Z</time></trkpt><trkpt lat="44.9581683" lon="9.60385"><ele>109.33333333333334</ele><time>2026-04-11T12:07:38.946Z</time></trkpt><trkpt lat="44.95801" lon="9.6037983"><ele>109.66666666666666</ele><time>2026-04-11T12:07:39.938Z</time></trkpt><trkpt lat="44.9578483" lon="9.603745"><ele>110.0</ele><time>2026-04-11T12:07:40.937Z</time></trkpt><trkpt lat="44.9576933" lon="9.603695"><ele>110.0</ele><time>2026-04-11T12:07:41.94Z</time></trkpt><trkpt lat="44.9575367" lon="9.603645"><ele>110.0</ele><time>2026-04-11T12:07:42.938Z</time></trkpt><trkpt lat="44.9573817" lon="9.603595"><ele>110.0</ele><time>2026-04-11T12:07:43.944Z</time></trkpt><trkpt lat="44.9572333" lon="9.6035417"><ele>110.0</ele><time>2026-04-11T12:07:44.939Z</time></trkpt><trkpt lat="44.9570867" lon="9.603485"><ele>110.0</ele><time>2026-04-11T12:07:45.938Z</time></trkpt><trkpt lat="44.95694" lon="9.6034233"><ele>110.0</ele><time>2026-04-11T12:07:46.937Z</time></trkpt><trkpt lat="44.95679" lon="9.6033567"><ele>110.33333333333333</ele><time>2026-04-11T12:07:47.937Z</time></trkpt><trkpt lat="44.95664" lon="9.603295"><ele>110.66666666666666</ele><time>2026-04-11T12:07:48.945Z</time></trkpt><trkpt lat="44.95649" lon="9.6032367"><ele>111.0</ele><time>2026-04-11T12:07:49.937Z</time></trkpt><trkpt lat="44.9563333" lon="9.6031833"><ele>111.0</ele><time>2026-04-11T12:07:50.939Z</time></trkpt><trkpt lat="44.9561717" lon="9.603125"><ele>111.0</ele><time>2026-04-11T12:07:51.937Z</time></trkpt><trkpt lat="44.9560133" lon="9.6030717"><ele>111.0</ele><time>2026-04-11T12:07:52.938Z</time></trkpt><trkpt lat="44.9558533" lon="9.6030117"><ele>111.0</ele><time>2026-04-11T12:07:53.937Z</time></trkpt><trkpt lat="44.9556933" lon="9.602955"><ele>111.0</ele><time>2026-04-11T12:07:54.937Z</time></trkpt><trkpt lat="44.9555333" lon="9.602895"><ele>111.0</ele><time>2026-04-11T12:07:55.941Z</time></trkpt><trkpt lat="44.9553733" lon="9.60284"><ele>111.0</ele><time>2026-04-11T12:07:56.94Z</time></trkpt><trkpt lat="44.955215" lon="9.6027833"><ele>111.0</ele><time>2026-04-11T12:07:57.938Z</time></trkpt><trkpt lat="44.9550583" lon="9.6027233"><ele>111.0</ele><time>2026-04-11T12:07:58.938Z</time></trkpt><trkpt lat="44.9549017" lon="9.6026633"><ele>111.0</ele><time>2026-04-11T12:07:59.938Z</time></trkpt><trkpt lat="44.9547433" lon="9.6025983"><ele>111.0</ele><time>2026-04-11T12:08:00.937Z</time></trkpt><trkpt lat="44.9545867" lon="9.6025367"><ele>111.0</ele><time>2026-04-11T12:08:01.943Z</time></trkpt><trkpt lat="44.95443" lon="9.6024783"><ele>111.0</ele><time>2026-04-11T12:08:02.944Z</time></trkpt><trkpt lat="44.9542667" lon="9.6024183"><ele>111.0</ele><time>2026-04-11T12:08:03.938Z</time></trkpt><trkpt lat="44.954105" lon="9.6023567"><ele>111.0</ele><time>2026-04-11T12:08:04.937Z</time></trkpt><trkpt lat="44.9539433" lon="9.6022967"><ele>111.33333333333334</ele><time>2026-04-11T12:08:05.937Z</time></trkpt><trkpt lat="44.9537767" lon="9.6022383"><ele>111.66666666666667</ele><time>2026-04-11T12:08:06.938Z</time></trkpt><trkpt lat="44.9536083" lon="9.6021783"><ele>112.0</ele><time>2026-04-11T12:08:07.939Z</time></trkpt><trkpt lat="44.9534417" lon="9.602115"><ele>112.0</ele><time>2026-04-11T12:08:08.938Z</time></trkpt><trkpt lat="44.953275" lon="9.6020517"><ele>112.0</ele><time>2026-04-11T12:08:09.937Z</time></trkpt><trkpt lat="44.9531083" lon="9.6019867"><ele>112.0</ele><time>2026-04-11T12:08:10.94Z</time></trkpt><trkpt lat="44.9529383" lon="9.601925"><ele>112.0</ele><time>2026-04-11T12:08:11.938Z</time></trkpt><trkpt lat="44.9527717" lon="9.6018717"><ele>112.0</ele><time>2026-04-11T12:08:12.938Z</time></trkpt><trkpt lat="44.9526117" lon="9.6018083"><ele>112.0</ele><time>2026-04-11T12:08:13.938Z</time></trkpt><trkpt lat="44.9524617" lon="9.6017083"><ele>112.0</ele><time>2026-04-11T12:08:14.939Z</time></trkpt><trkpt lat="44.952325" lon="9.6015783"><ele>112.0</ele><time>2026-04-11T12:08:15.938Z</time></trkpt><trkpt lat="44.95219" lon="9.6014433"><ele>112.0</ele><time>2026-04-11T12:08:16.938Z</time></trkpt><trkpt lat="44.9520617" lon="9.601325"><ele>112.0</ele><time>2026-04-11T12:08:17.944Z</time></trkpt><trkpt lat="44.9519383" lon="9.6012283"><ele>112.0</ele><time>2026-04-11T12:08:18.938Z</time></trkpt><trkpt lat="44.9518183" lon="9.601175"><ele>112.0</ele><time>2026-04-11T12:08:19.937Z</time></trkpt><trkpt lat="44.9517033" lon="9.60118"><ele>112.0</ele><time>2026-04-11T12:08:20.939Z</time></trkpt><trkpt lat="44.95159" lon="9.601225"><ele>112.0</ele><time>2026-04-11T12:08:21.938Z</time></trkpt><trkpt lat="44.951475" lon="9.6012867"><ele>112.0</ele><time>2026-04-11T12:08:22.937Z</time></trkpt><trkpt lat="44.95136" lon="9.6013517"><ele>112.0</ele><time>2026-04-11T12:08:23.937Z</time></trkpt><trkpt lat="44.9512517" lon="9.601425"><ele>112.0</ele><time>2026-04-11T12:08:24.942Z</time></trkpt><trkpt lat="44.9511483" lon="9.6015133"><ele>112.0</ele><time>2026-04-11T12:08:25.938Z</time></trkpt><trkpt lat="44.9510617" lon="9.601615"><ele>111.99999999999999</ele><time>2026-04-11T12:08:26.938Z</time></trkpt><trkpt lat="44.9509833" lon="9.6017083"><ele>111.99999999999999</ele><time>2026-04-11T12:08:27.938Z</time></trkpt><trkpt lat="44.9508967" lon="9.6017867"><ele>112.0</ele><time>2026-04-11T12:08:28.937Z</time></trkpt><trkpt lat="44.9507983" lon="9.6018467"><ele>112.0</ele><time>2026-04-11T12:08:29.943Z</time></trkpt><trkpt lat="44.9506933" lon="9.6018967"><ele>112.5</ele><time>2026-04-11T12:08:30.938Z</time></trkpt><trkpt lat="44.9505817" lon="9.6019267"><ele>113.0</ele><time>2026-04-11T12:08:31.938Z</time></trkpt><trkpt lat="44.9504517" lon="9.601915"><ele>113.5</ele><time>2026-04-11T12:08:32.938Z</time></trkpt><trkpt lat="44.9503133" lon="9.6018833"><ele>114.0</ele><time>2026-04-11T12:08:33.938Z</time></trkpt><trkpt lat="44.9501617" lon="9.6018417"><ele>114.33333333333334</ele><time>2026-04-11T12:08:34.937Z</time></trkpt><trkpt lat="44.9500067" lon="9.6017967"><ele>114.66666666666667</ele><time>2026-04-11T12:08:35.941Z</time></trkpt><trkpt lat="44.949845" lon="9.6017583"><ele>115.0</ele><time>2026-04-11T12:08:36.937Z</time></trkpt><trkpt lat="44.9496817" lon="9.6017183"><ele>115.0</ele><time>2026-04-11T12:08:37.937Z</time></trkpt><trkpt lat="44.949525" lon="9.6016783"><ele>115.0</ele><time>2026-04-11T12:08:38.937Z</time></trkpt><trkpt lat="44.949375" lon="9.6016417"><ele>115.0</ele><time>2026-04-11T12:08:39.937Z</time></trkpt><trkpt lat="44.94923" lon="9.6016083"><ele>114.75</ele><time>2026-04-11T12:08:40.936Z</time></trkpt><trkpt lat="44.9490867" lon="9.6015767"><ele>114.5</ele><time>2026-04-11T12:08:41.937Z</time></trkpt><trkpt lat="44.948945" lon="9.6015467"><ele>114.25</ele><time>2026-04-11T12:08:42.938Z</time></trkpt><trkpt lat="44.9488067" lon="9.6015217"><ele>114.0</ele><time>2026-04-11T12:08:43.937Z</time></trkpt><trkpt lat="44.9486683" lon="9.6014967"><ele>114.0</ele><time>2026-04-11T12:08:44.938Z</time></trkpt><trkpt lat="44.9485267" lon="9.6014767"><ele>114.0</ele><time>2026-04-11T12:08:45.937Z</time></trkpt><trkpt lat="44.9483867" lon="9.6014717"><ele>114.0</ele><time>2026-04-11T12:08:46.936Z</time></trkpt><trkpt lat="44.94825" lon="9.6014817"><ele>114.0</ele><time>2026-04-11T12:08:47.937Z</time></trkpt><trkpt lat="44.9481117" lon="9.601495"><ele>114.25</ele><time>2026-04-11T12:08:48.939Z</time></trkpt><trkpt lat="44.9479733" lon="9.60151"><ele>114.5</ele><time>2026-04-11T12:08:49.936Z</time></trkpt><trkpt lat="44.94783" lon="9.6015183"><ele>114.75</ele><time>2026-04-11T12:08:50.938Z</time></trkpt><trkpt lat="44.9476883" lon="9.6015183"><ele>115.0</ele><time>2026-04-11T12:08:51.936Z</time></trkpt><trkpt lat="44.9475433" lon="9.601515"><ele>115.25</ele><time>2026-04-11T12:08:52.936Z</time></trkpt><trkpt lat="44.9474067" lon="9.6015183"><ele>115.5</ele><time>2026-04-11T12:08:53.936Z</time></trkpt><trkpt lat="44.9472717" lon="9.6015283"><ele>115.75</ele><time>2026-04-11T12:08:54.94Z</time></trkpt><trkpt lat="44.9471417" lon="9.60154"><ele>116.0</ele><time>2026-04-11T12:08:55.937Z</time></trkpt><trkpt lat="44.9470183" lon="9.6015467"><ele>116.0</ele><time>2026-04-11T12:08:56.937Z</time></trkpt><trkpt lat="44.9469017" lon="9.601545"><ele>116.0</ele><time>2026-04-11T12:08:57.936Z</time></trkpt><trkpt lat="44.946795" lon="9.6015383"><ele>116.0</ele><time>2026-04-11T12:08:58.938Z</time></trkpt><trkpt lat="44.94669" lon="9.6015317"><ele>116.0</ele><time>2026-04-11T12:08:59.936Z</time></trkpt><trkpt lat="44.9465933" lon="9.6015217"><ele>116.0</ele><time>2026-04-11T12:09:00.936Z</time></trkpt><trkpt lat="44.9465" lon="9.6015083"><ele>116.0</ele><time>2026-04-11T12:09:01.937Z</time></trkpt><trkpt lat="44.9464" lon="9.601495"><ele>116.0</ele><time>2026-04-11T12:09:02.945Z</time></trkpt><trkpt lat="44.9462933" lon="9.6014833"><ele>116.0</ele><time>2026-04-11T12:09:03.937Z</time></trkpt><trkpt lat="44.9461867" lon="9.6014733"><ele>116.0</ele><time>2026-04-11T12:09:04.937Z</time></trkpt><trkpt lat="44.946085" lon="9.601465"><ele>116.0</ele><time>2026-04-11T12:09:05.938Z</time></trkpt><trkpt lat="44.9459917" lon="9.6014533"><ele>116.0</ele><time>2026-04-11T12:09:06.937Z</time></trkpt><trkpt lat="44.9459" lon="9.60144"><ele>116.0</ele><time>2026-04-11T12:09:07.943Z</time></trkpt><trkpt lat="44.9458" lon="9.6014267"><ele>116.0</ele><time>2026-04-11T12:09:08.938Z</time></trkpt><trkpt lat="44.9456967" lon="9.6014183"><ele>116.0</ele><time>2026-04-11T12:09:09.938Z</time></trkpt><trkpt lat="44.9455917" lon="9.6014167"><ele>116.0</ele><time>2026-04-11T12:09:10.938Z</time></trkpt><trkpt lat="44.9454883" lon="9.6014233"><ele>116.0</ele><time>2026-04-11T12:09:11.937Z</time></trkpt><trkpt lat="44.94539" lon="9.6014367"><ele>116.0</ele><time>2026-04-11T12:09:12.941Z</time></trkpt><trkpt lat="44.9452983" lon="9.6014517"><ele>116.0</ele><time>2026-04-11T12:09:13.937Z</time></trkpt><trkpt lat="44.9452067" lon="9.6014667"><ele>116.0</ele><time>2026-04-11T12:09:14.937Z</time></trkpt><trkpt lat="44.94511" lon="9.6014817"><ele>116.0</ele><time>2026-04-11T12:09:15.938Z</time></trkpt><trkpt lat="44.9450117" lon="9.6014967"><ele>116.0</ele><time>2026-04-11T12:09:16.939Z</time></trkpt><trkpt lat="44.94491" lon="9.60151"><ele>116.0</ele><time>2026-04-11T12:09:17.937Z</time></trkpt><trkpt lat="44.94481" lon="9.60153"><ele>116.0</ele><time>2026-04-11T12:09:18.937Z</time></trkpt><trkpt lat="44.9447117" lon="9.6015433"><ele>116.0</ele><time>2026-04-11T12:09:19.94Z</time></trkpt><trkpt lat="44.9446167" lon="9.6015517"><ele>116.0</ele><time>2026-04-11T12:09:20.937Z</time></trkpt><trkpt lat="44.9445217" lon="9.60155"><ele>116.0</ele><time>2026-04-11T12:09:21.937Z</time></trkpt><trkpt lat="44.944415" lon="9.6015617"><ele>116.0</ele><time>2026-04-11T12:09:22.936Z</time></trkpt><trkpt lat="44.9443133" lon="9.60159"><ele>116.0</ele><time>2026-04-11T12:09:23.937Z</time></trkpt><trkpt lat="44.9442117" lon="9.6016133"><ele>116.0</ele><time>2026-04-11T12:09:24.936Z</time></trkpt><trkpt lat="44.9441067" lon="9.6016367"><ele>116.0</ele><time>2026-04-11T12:09:25.937Z</time></trkpt><trkpt lat="44.9440033" lon="9.6016617"><ele>116.4</ele><time>2026-04-11T12:09:26.938Z</time></trkpt><trkpt lat="44.9439117" lon="9.6016883"><ele>116.8</ele><time>2026-04-11T12:09:27.936Z</time></trkpt><trkpt lat="44.9438183" lon="9.6017133"><ele>117.20000000000002</ele><time>2026-04-11T12:09:28.936Z</time></trkpt><trkpt lat="44.9437283" lon="9.6017317"><ele>117.60000000000001</ele><time>2026-04-11T12:09:29.94Z</time></trkpt><trkpt lat="44.94364" lon="9.6017483"><ele>118.0</ele><time>2026-04-11T12:09:30.936Z</time></trkpt><trkpt lat="44.943545" lon="9.6017717"><ele>118.0</ele><time>2026-04-11T12:09:31.937Z</time></trkpt><trkpt lat="44.9434483" lon="9.601795"><ele>118.00000000000001</ele><time>2026-04-11T12:09:32.937Z</time></trkpt><trkpt lat="44.9433567" lon="9.6018217"><ele>118.00000000000001</ele><time>2026-04-11T12:09:33.939Z</time></trkpt><trkpt lat="44.9432583" lon="9.6018433"><ele>118.0</ele><time>2026-04-11T12:09:34.936Z</time></trkpt><trkpt lat="44.9431583" lon="9.6018717"><ele>118.0</ele><time>2026-04-11T12:09:35.938Z</time></trkpt><trkpt lat="44.94306" lon="9.6018933"><ele>118.0</ele><time>2026-04-11T12:09:36.937Z</time></trkpt><trkpt lat="44.94296" lon="9.60191"><ele>118.00000000000001</ele><time>2026-04-11T12:09:37.937Z</time></trkpt><trkpt lat="44.9428567" lon="9.6019267"><ele>118.00000000000001</ele><time>2026-04-11T12:09:38.94Z</time></trkpt><trkpt lat="44.9427533" lon="9.6019417"><ele>118.0</ele><time>2026-04-11T12:09:39.937Z</time></trkpt><trkpt lat="44.9426433" lon="9.601955"><ele>118.0</ele><time>2026-04-11T12:09:40.936Z</time></trkpt><trkpt lat="44.942535" lon="9.6019717"><ele>118.0</ele><time>2026-04-11T12:09:41.938Z</time></trkpt><trkpt lat="44.9424333" lon="9.601985"><ele>118.00000000000001</ele><time>2026-04-11T12:09:42.936Z</time></trkpt><trkpt lat="44.942335" lon="9.6019983"><ele>118.00000000000001</ele><time>2026-04-11T12:09:43.937Z</time></trkpt><trkpt lat="44.9422417" lon="9.6020117"><ele>118.0</ele><time>2026-04-11T12:09:44.937Z</time></trkpt><trkpt lat="44.942145" lon="9.6020217"><ele>118.0</ele><time>2026-04-11T12:09:45.936Z</time></trkpt><trkpt lat="44.9420467" lon="9.6020333"><ele>117.80000000000001</ele><time>2026-04-11T12:09:46.936Z</time></trkpt><trkpt lat="44.9419467" lon="9.602045"><ele>117.60000000000001</ele><time>2026-04-11T12:09:47.938Z</time></trkpt><trkpt lat="44.9418483" lon="9.6020617"><ele>117.39999999999999</ele><time>2026-04-11T12:09:48.942Z</time></trkpt><trkpt lat="44.9417467" lon="9.602085"><ele>117.19999999999999</ele><time>2026-04-11T12:09:49.937Z</time></trkpt><trkpt lat="44.9416467" lon="9.602115"><ele>117.0</ele><time>2026-04-11T12:09:50.937Z</time></trkpt><trkpt lat="44.9415483" lon="9.6021483"><ele>117.0</ele><time>2026-04-11T12:09:51.937Z</time></trkpt><trkpt lat="44.9414533" lon="9.6021883"><ele>116.99999999999999</ele><time>2026-04-11T12:09:52.937Z</time></trkpt><trkpt lat="44.941365" lon="9.60223"><ele>116.99999999999999</ele><time>2026-04-11T12:09:53.936Z</time></trkpt><trkpt lat="44.9412733" lon="9.6022717"><ele>117.0</ele><time>2026-04-11T12:09:54.937Z</time></trkpt><trkpt lat="44.94118" lon="9.602315"><ele>117.0</ele><time>2026-04-11T12:09:55.939Z</time></trkpt><trkpt lat="44.941085" lon="9.6023567"><ele>117.0</ele><time>2026-04-11T12:09:56.938Z</time></trkpt><trkpt lat="44.9409967" lon="9.6023983"><ele>116.99999999999999</ele><time>2026-04-11T12:09:57.937Z</time></trkpt><trkpt lat="44.9409117" lon="9.6024417"><ele>116.99999999999999</ele><time>2026-04-11T12:09:58.939Z</time></trkpt><trkpt lat="44.9408267" lon="9.60248"><ele>117.0</ele><time>2026-04-11T12:09:59.939Z</time></trkpt><trkpt lat="44.9407417" lon="9.60251"><ele>117.0</ele><time>2026-04-11T12:10:00.937Z</time></trkpt><trkpt lat="44.9406467" lon="9.6025283"><ele>117.0</ele><time>2026-04-11T12:10:01.939Z</time></trkpt><trkpt lat="44.9405367" lon="9.602535"><ele>116.99999999999999</ele><time>2026-04-11T12:10:02.937Z</time></trkpt><trkpt lat="44.9404333" lon="9.602525"><ele>116.99999999999999</ele><time>2026-04-11T12:10:03.936Z</time></trkpt><trkpt lat="44.9403333" lon="9.6025067"><ele>117.0</ele><time>2026-04-11T12:10:04.936Z</time></trkpt><trkpt lat="44.9402383" lon="9.6024867"><ele>117.0</ele><time>2026-04-11T12:10:05.939Z</time></trkpt><trkpt lat="44.9401517" lon="9.6024583"><ele>117.0</ele><time>2026-04-11T12:10:06.941Z</time></trkpt><trkpt lat="44.9400683" lon="9.602415"><ele>116.99999999999999</ele><time>2026-04-11T12:10:07.937Z</time></trkpt><trkpt lat="44.9399833" lon="9.6023817"><ele>116.99999999999999</ele><time>2026-04-11T12:10:08.94Z</time></trkpt><trkpt lat="44.93989" lon="9.6023667"><ele>117.0</ele><time>2026-04-11T12:10:09.937Z</time></trkpt><trkpt lat="44.939795" lon="9.6023533"><ele>117.0</ele><time>2026-04-11T12:10:10.937Z</time></trkpt><trkpt lat="44.9396967" lon="9.6023417"><ele>117.39999999999999</ele><time>2026-04-11T12:10:11.937Z</time></trkpt><trkpt lat="44.9396" lon="9.6023317"><ele>117.79999999999998</ele><time>2026-04-11T12:10:12.938Z</time></trkpt><trkpt lat="44.9395067" lon="9.6023217"><ele>118.2</ele><time>2026-04-11T12:10:13.937Z</time></trkpt><trkpt lat="44.939415" lon="9.602315"><ele>118.6</ele><time>2026-04-11T12:10:14.943Z</time></trkpt><trkpt lat="44.9393267" lon="9.6023117"><ele>119.0</ele><time>2026-04-11T12:10:15.937Z</time></trkpt><trkpt lat="44.9392333" lon="9.602305"><ele>119.33333333333333</ele><time>2026-04-11T12:10:16.938Z</time></trkpt><trkpt lat="44.9391417" lon="9.6022967"><ele>119.66666666666666</ele><time>2026-04-11T12:10:17.937Z</time></trkpt><trkpt lat="44.93905" lon="9.6022833"><ele>120.0</ele><time>2026-04-11T12:10:18.937Z</time></trkpt><trkpt lat="44.938965" lon="9.6022667"><ele>120.33333333333334</ele><time>2026-04-11T12:10:19.937Z</time></trkpt><trkpt lat="44.9388833" lon="9.6022567"><ele>120.66666666666667</ele><time>2026-04-11T12:10:20.94Z</time></trkpt><trkpt lat="44.9387933" lon="9.6022417"><ele>121.0</ele><time>2026-04-11T12:10:21.94Z</time></trkpt><trkpt lat="44.9387" lon="9.602225"><ele>121.0</ele><time>2026-04-11T12:10:22.936Z</time></trkpt><trkpt lat="44.9386017" lon="9.6022117"><ele>121.0</ele><time>2026-04-11T12:10:23.937Z</time></trkpt><trkpt lat="44.9385083" lon="9.602205"><ele>121.0</ele><time>2026-04-11T12:10:24.936Z</time></trkpt><trkpt lat="44.9384117" lon="9.6022117"><ele>121.0</ele><time>2026-04-11T12:10:25.936Z</time></trkpt><trkpt lat="44.93832" lon="9.6022267"><ele>121.0</ele><time>2026-04-11T12:10:26.937Z</time></trkpt><trkpt lat="44.9382333" lon="9.6022517"><ele>121.0</ele><time>2026-04-11T12:10:27.943Z</time></trkpt><trkpt lat="44.9381467" lon="9.6022867"><ele>121.0</ele><time>2026-04-11T12:10:28.937Z</time></trkpt><trkpt lat="44.93806" lon="9.6023267"><ele>121.0</ele><time>2026-04-11T12:10:29.936Z</time></trkpt><trkpt lat="44.9379767" lon="9.6023733"><ele>121.0</ele><time>2026-04-11T12:10:30.937Z</time></trkpt><trkpt lat="44.9378967" lon="9.6024317"><ele>121.0</ele><time>2026-04-11T12:10:31.937Z</time></trkpt><trkpt lat="44.937815" lon="9.602495"><ele>121.00000000000001</ele><time>2026-04-11T12:10:32.937Z</time></trkpt><trkpt lat="44.937735" lon="9.60255"><ele>121.0</ele><time>2026-04-11T12:10:33.938Z</time></trkpt><trkpt lat="44.9376533" lon="9.6025917"><ele>121.0</ele><time>2026-04-11T12:10:34.942Z</time></trkpt><trkpt lat="44.9375717" lon="9.6026283"><ele>121.0</ele><time>2026-04-11T12:10:35.937Z</time></trkpt><trkpt lat="44.937485" lon="9.60266"><ele>121.00000000000001</ele><time>2026-04-11T12:10:36.937Z</time></trkpt><trkpt lat="44.9374" lon="9.60269"><ele>121.0</ele><time>2026-04-11T12:10:37.936Z</time></trkpt><trkpt lat="44.9373167" lon="9.6027183"><ele>121.16666666666667</ele><time>2026-04-11T12:10:38.939Z</time></trkpt><trkpt lat="44.93723" lon="9.6027433"><ele>121.33333333333334</ele><time>2026-04-11T12:10:39.937Z</time></trkpt><trkpt lat="44.9371417" lon="9.602765"><ele>121.5</ele><time>2026-04-11T12:10:40.941Z</time></trkpt><trkpt lat="44.9370517" lon="9.60279"><ele>121.66666666666666</ele><time>2026-04-11T12:10:41.937Z</time></trkpt><trkpt lat="44.9369667" lon="9.6028217"><ele>121.83333333333333</ele><time>2026-04-11T12:10:42.937Z</time></trkpt><trkpt lat="44.936885" lon="9.60286"><ele>122.0</ele><time>2026-04-11T12:10:43.938Z</time></trkpt><trkpt lat="44.9368017" lon="9.6028967"><ele>121.99999999999999</ele><time>2026-04-11T12:10:44.94Z</time></trkpt><trkpt lat="44.9367167" lon="9.60293"><ele>122.0</ele><time>2026-04-11T12:10:45.943Z</time></trkpt><trkpt lat="44.93663" lon="9.6029467"><ele>122.0</ele><time>2026-04-11T12:10:46.937Z</time></trkpt><trkpt lat="44.9365467" lon="9.6029583"><ele>122.0</ele><time>2026-04-11T12:10:47.937Z</time></trkpt><trkpt lat="44.93647" lon="9.602975"><ele>121.99999999999999</ele><time>2026-04-11T12:10:48.937Z</time></trkpt><trkpt lat="44.9363967" lon="9.602995"><ele>122.0</ele><time>2026-04-11T12:10:49.938Z</time></trkpt><trkpt lat="44.93633" lon="9.60302"><ele>122.0</ele><time>2026-04-11T12:10:50.939Z</time></trkpt><trkpt lat="44.93627" lon="9.603055"><ele>121.99999999999999</ele><time>2026-04-11T12:10:51.937Z</time></trkpt><trkpt lat="44.936195" lon="9.6031633"><ele>121.99999999999999</ele><time>2026-04-11T12:10:53.938Z</time></trkpt><trkpt lat="44.936155" lon="9.60331"><ele>122.0</ele><time>2026-04-11T12:10:55.937Z</time></trkpt><trkpt lat="44.936165" lon="9.60349"><ele>122.0</ele><time>2026-04-11T12:10:57.937Z</time></trkpt><trkpt lat="44.9361733" lon="9.603585"><ele>122.0</ele><time>2026-04-11T12:10:58.937Z</time></trkpt><trkpt lat="44.9361817" lon="9.603735"><ele>121.99999999999999</ele><time>2026-04-11T12:11:00.938Z</time></trkpt><trkpt lat="44.936125" lon="9.60383"><ele>121.99999999999999</ele><time>2026-04-11T12:11:02.937Z</time></trkpt><trkpt lat="44.93602" lon="9.6038617"><ele>122.0</ele><time>2026-04-11T12:11:04.938Z</time></trkpt><trkpt lat="44.9358917" lon="9.6038517"><ele>122.0</ele><time>2026-04-11T12:11:06.938Z</time></trkpt><trkpt lat="44.935825" lon="9.6038467"><ele>122.28571428571428</ele><time>2026-04-11T12:11:07.938Z</time></trkpt><trkpt lat="44.9357567" lon="9.603845"><ele>122.57142857142857</ele><time>2026-04-11T12:11:08.938Z</time></trkpt><trkpt lat="44.9356833" lon="9.6038433"><ele>122.85714285714286</ele><time>2026-04-11T12:11:09.938Z</time></trkpt><trkpt lat="44.935605" lon="9.6038317"><ele>123.14285714285714</ele><time>2026-04-11T12:11:10.937Z</time></trkpt><trkpt lat="44.93553" lon="9.6038233"><ele>123.42857142857144</ele><time>2026-04-11T12:11:11.937Z</time></trkpt><trkpt lat="44.9354633" lon="9.6038167"><ele>123.71428571428572</ele><time>2026-04-11T12:11:12.937Z</time></trkpt><trkpt lat="44.935395" lon="9.60381"><ele>124.0</ele><time>2026-04-11T12:11:13.938Z</time></trkpt><trkpt lat="44.93531" lon="9.6038017"><ele>124.00000000000001</ele><time>2026-04-11T12:11:14.937Z</time></trkpt><trkpt lat="44.935235" lon="9.6037917"><ele>124.0</ele><time>2026-04-11T12:11:15.943Z</time></trkpt><trkpt lat="44.9351667" lon="9.6037867"><ele>124.0</ele><time>2026-04-11T12:11:16.937Z</time></trkpt><trkpt lat="44.93506" lon="9.60377"><ele>124.0</ele><time>2026-04-11T12:11:18.938Z</time></trkpt><trkpt lat="44.9349983" lon="9.60369"><ele>124.00000000000001</ele><time>2026-04-11T12:11:20.938Z</time></trkpt><trkpt lat="44.9349617" lon="9.603575"><ele>124.0</ele><time>2026-04-11T12:11:22.942Z</time></trkpt><trkpt lat="44.9348617" lon="9.603505"><ele>123.66666666666667</ele><time>2026-04-11T12:11:24.937Z</time></trkpt><trkpt lat="44.9347767" lon="9.603465"><ele>123.33333333333334</ele><time>2026-04-11T12:11:25.937Z</time></trkpt><trkpt lat="44.93469" lon="9.6034167"><ele>123.0</ele><time>2026-04-11T12:11:26.937Z</time></trkpt><trkpt lat="44.934605" lon="9.60338"><ele>122.66666666666666</ele><time>2026-04-11T12:11:27.937Z</time></trkpt><trkpt lat="44.9345317" lon="9.6033483"><ele>122.33333333333333</ele><time>2026-04-11T12:11:28.937Z</time></trkpt><trkpt lat="44.9344667" lon="9.6033167"><ele>122.0</ele><time>2026-04-11T12:11:29.942Z</time></trkpt><trkpt lat="44.9343567" lon="9.6032917"><ele>121.99999999999999</ele><time>2026-04-11T12:11:31.938Z</time></trkpt><trkpt lat="44.9343" lon="9.6033717"><ele>122.0</ele><time>2026-04-11T12:11:33.937Z</time></trkpt><trkpt lat="44.9342867" lon="9.6034683"><ele>122.0</ele><time>2026-04-11T12:11:34.944Z</time></trkpt><trkpt lat="44.9342717" lon="9.60357"><ele>122.0</ele><time>2026-04-11T12:11:35.938Z</time></trkpt><trkpt lat="44.9342533" lon="9.6036767"><ele>121.99999999999999</ele><time>2026-04-11T12:11:36.937Z</time></trkpt><trkpt lat="44.9342317" lon="9.603785"><ele>122.0</ele><time>2026-04-11T12:11:37.94Z</time></trkpt><trkpt lat="44.9342117" lon="9.6038883"><ele>122.42857142857142</ele><time>2026-04-11T12:11:38.938Z</time></trkpt><trkpt lat="44.9341883" lon="9.6039867"><ele>122.85714285714286</ele><time>2026-04-11T12:11:39.942Z</time></trkpt><trkpt lat="44.9341667" lon="9.6040817"><ele>123.28571428571428</ele><time>2026-04-11T12:11:40.938Z</time></trkpt><trkpt lat="44.93415" lon="9.60418"><ele>123.71428571428571</ele><time>2026-04-11T12:11:41.937Z</time></trkpt><trkpt lat="44.9341333" lon="9.604275"><ele>124.14285714285714</ele><time>2026-04-11T12:11:42.938Z</time></trkpt><trkpt lat="44.9341183" lon="9.604365"><ele>124.57142857142857</ele><time>2026-04-11T12:11:43.938Z</time></trkpt><trkpt lat="44.9340817" lon="9.6044883"><ele>125.0</ele><time>2026-04-11T12:11:45.937Z</time></trkpt><trkpt lat="44.93401" lon="9.604525"><ele>124.99999999999999</ele><time>2026-04-11T12:11:48.939Z</time></trkpt><trkpt lat="44.9339167" lon="9.6044767"><ele>125.0</ele><time>2026-04-11T12:11:50.94Z</time></trkpt><trkpt lat="44.933855" lon="9.6044433"><ele>125.0</ele><time>2026-04-11T12:11:51.939Z</time></trkpt><trkpt lat="44.9337883" lon="9.60441"><ele>125.0</ele><time>2026-04-11T12:11:52.945Z</time></trkpt><trkpt lat="44.933725" lon="9.604385"><ele>124.99999999999999</ele><time>2026-04-11T12:11:53.939Z</time></trkpt><trkpt lat="44.9336633" lon="9.60436"><ele>125.0</ele><time>2026-04-11T12:11:54.937Z</time></trkpt><trkpt lat="44.93356" lon="9.604305"><ele>125.0</ele><time>2026-04-11T12:11:56.938Z</time></trkpt><trkpt lat="44.933445" lon="9.604285"><ele>125.0</ele><time>2026-04-11T12:11:59.937Z</time></trkpt><trkpt lat="44.9333817" lon="9.6043533"><ele>125.0</ele><time>2026-04-11T12:12:01.937Z</time></trkpt><trkpt lat="44.9333533" lon="9.604475"><ele>125.0</ele><time>2026-04-11T12:12:03.937Z</time></trkpt><trkpt lat="44.9333633" lon="9.60463"><ele>125.0</ele><time>2026-04-11T12:12:05.937Z</time></trkpt><trkpt lat="44.9333683" lon="9.6047367"><ele>125.16666666666666</ele><time>2026-04-11T12:12:06.939Z</time></trkpt><trkpt lat="44.9333683" lon="9.6048433"><ele>125.33333333333333</ele><time>2026-04-11T12:12:07.937Z</time></trkpt><trkpt lat="44.9333683" lon="9.6049417"><ele>125.5</ele><time>2026-04-11T12:12:08.938Z</time></trkpt><trkpt lat="44.9333667" lon="9.6050333"><ele>125.66666666666666</ele><time>2026-04-11T12:12:09.937Z</time></trkpt><trkpt lat="44.93336" lon="9.60521"><ele>125.83333333333333</ele><time>2026-04-11T12:12:11.939Z</time></trkpt><trkpt lat="44.933355" lon="9.605305"><ele>126.0</ele><time>2026-04-11T12:12:12.938Z</time></trkpt><trkpt lat="44.9333433" lon="9.6054017"><ele>126.19999999999999</ele><time>2026-04-11T12:12:13.94Z</time></trkpt><trkpt lat="44.9333283" lon="9.6055017"><ele>126.39999999999999</ele><time>2026-04-11T12:12:14.938Z</time></trkpt><trkpt lat="44.9333083" lon="9.60562"><ele>126.6</ele><time>2026-04-11T12:12:15.938Z</time></trkpt><trkpt lat="44.9332833" lon="9.6057567"><ele>126.8</ele><time>2026-04-11T12:12:16.937Z</time></trkpt><trkpt lat="44.93326" lon="9.6059083"><ele>127.0</ele><time>2026-04-11T12:12:17.938Z</time></trkpt><trkpt lat="44.9332383" lon="9.6060617"><ele>127.0</ele><time>2026-04-11T12:12:18.94Z</time></trkpt><trkpt lat="44.93322" lon="9.6062117"><ele>126.99999999999999</ele><time>2026-04-11T12:12:19.939Z</time></trkpt><trkpt lat="44.9332033" lon="9.6063617"><ele>126.99999999999999</ele><time>2026-04-11T12:12:20.94Z</time></trkpt><trkpt lat="44.9331867" lon="9.6065117"><ele>127.0</ele><time>2026-04-11T12:12:21.939Z</time></trkpt><trkpt lat="44.9331683" lon="9.6066667"><ele>127.0</ele><time>2026-04-11T12:12:22.938Z</time></trkpt><trkpt lat="44.93315" lon="9.6068283"><ele>126.5</ele><time>2026-04-11T12:12:23.945Z</time></trkpt><trkpt lat="44.93313" lon="9.6070033"><ele>126.0</ele><time>2026-04-11T12:12:24.939Z</time></trkpt><trkpt lat="44.9331083" lon="9.6071883"><ele>125.5</ele><time>2026-04-11T12:12:25.939Z</time></trkpt><trkpt lat="44.933085" lon="9.6073817"><ele>125.0</ele><time>2026-04-11T12:12:26.938Z</time></trkpt><trkpt lat="44.9330633" lon="9.6075617"><ele>125.0</ele><time>2026-04-11T12:12:27.937Z</time></trkpt><trkpt lat="44.93304" lon="9.6077283"><ele>125.0</ele><time>2026-04-11T12:12:28.944Z</time></trkpt><trkpt lat="44.93302" lon="9.6078867"><ele>125.0</ele><time>2026-04-11T12:12:29.938Z</time></trkpt><trkpt lat="44.9330033" lon="9.6080467"><ele>125.0</ele><time>2026-04-11T12:12:30.937Z</time></trkpt><trkpt lat="44.9329867" lon="9.60821"><ele>125.0</ele><time>2026-04-11T12:12:31.937Z</time></trkpt><trkpt lat="44.9329683" lon="9.6083833"><ele>125.0</ele><time>2026-04-11T12:12:32.938Z</time></trkpt><trkpt lat="44.9329467" lon="9.6085617"><ele>125.0</ele><time>2026-04-11T12:12:33.937Z</time></trkpt><trkpt lat="44.932925" lon="9.6087417"><ele>125.0</ele><time>2026-04-11T12:12:34.939Z</time></trkpt><trkpt lat="44.9329033" lon="9.6089167"><ele>125.25</ele><time>2026-04-11T12:12:35.944Z</time></trkpt><trkpt lat="44.93288" lon="9.609085"><ele>125.5</ele><time>2026-04-11T12:12:36.937Z</time></trkpt><trkpt lat="44.93286" lon="9.6092533"><ele>125.75</ele><time>2026-04-11T12:12:37.937Z</time></trkpt><trkpt lat="44.93284" lon="9.6094233"><ele>126.0</ele><time>2026-04-11T12:12:38.937Z</time></trkpt><trkpt lat="44.9328217" lon="9.6095917"><ele>126.0</ele><time>2026-04-11T12:12:39.937Z</time></trkpt><trkpt lat="44.9328033" lon="9.60976"><ele>126.0</ele><time>2026-04-11T12:12:40.937Z</time></trkpt><trkpt lat="44.9327783" lon="9.609925"><ele>126.0</ele><time>2026-04-11T12:12:41.938Z</time></trkpt><trkpt lat="44.9327433" lon="9.6100917"><ele>126.0</ele><time>2026-04-11T12:12:42.937Z</time></trkpt><trkpt lat="44.9326967" lon="9.6102517"><ele>126.25</ele><time>2026-04-11T12:12:43.937Z</time></trkpt><trkpt lat="44.9326383" lon="9.6104033"><ele>126.5</ele><time>2026-04-11T12:12:44.938Z</time></trkpt><trkpt lat="44.9325633" lon="9.6105417"><ele>126.75</ele><time>2026-04-11T12:12:45.938Z</time></trkpt><trkpt lat="44.932455" lon="9.6106617"><ele>127.0</ele><time>2026-04-11T12:12:46.943Z</time></trkpt><trkpt lat="44.9323283" lon="9.6107567"><ele>127.0</ele><time>2026-04-11T12:12:47.937Z</time></trkpt><trkpt lat="44.9321933" lon="9.61083"><ele>127.0</ele><time>2026-04-11T12:12:48.938Z</time></trkpt><trkpt lat="44.9320583" lon="9.6108783"><ele>127.0</ele><time>2026-04-11T12:12:49.938Z</time></trkpt><trkpt lat="44.93192" lon="9.6109033"><ele>127.0</ele><time>2026-04-11T12:12:50.939Z</time></trkpt><trkpt lat="44.93178" lon="9.610895"><ele>127.0</ele><time>2026-04-11T12:12:51.938Z</time></trkpt><trkpt lat="44.9316467" lon="9.61085"><ele>127.0</ele><time>2026-04-11T12:12:52.938Z</time></trkpt><trkpt lat="44.9315233" lon="9.6107817"><ele>127.0</ele><time>2026-04-11T12:12:53.944Z</time></trkpt><trkpt lat="44.9314033" lon="9.6107083"><ele>127.0</ele><time>2026-04-11T12:12:54.938Z</time></trkpt><trkpt lat="44.9312833" lon="9.6106367"><ele>127.0</ele><time>2026-04-11T12:12:55.937Z</time></trkpt><trkpt lat="44.9311683" lon="9.6105683"><ele>127.0</ele><time>2026-04-11T12:12:56.938Z</time></trkpt><trkpt lat="44.93105" lon="9.6104983"><ele>127.0</ele><time>2026-04-11T12:12:57.937Z</time></trkpt><trkpt lat="44.9309283" lon="9.6104267"><ele>127.0</ele><time>2026-04-11T12:12:58.937Z</time></trkpt><trkpt lat="44.930805" lon="9.6103517"><ele>126.75</ele><time>2026-04-11T12:12:59.946Z</time></trkpt><trkpt lat="44.9306817" lon="9.610275"><ele>126.5</ele><time>2026-04-11T12:13:00.938Z</time></trkpt><trkpt lat="44.930555" lon="9.6101967"><ele>126.25</ele><time>2026-04-11T12:13:01.937Z</time></trkpt><trkpt lat="44.9304283" lon="9.6101167"><ele>126.0</ele><time>2026-04-11T12:13:02.939Z</time></trkpt><trkpt lat="44.9302983" lon="9.6100367"><ele>126.0</ele><time>2026-04-11T12:13:03.938Z</time></trkpt><trkpt lat="44.9301683" lon="9.6099567"><ele>126.0</ele><time>2026-04-11T12:13:04.94Z</time></trkpt><trkpt lat="44.93004" lon="9.6098767"><ele>126.0</ele><time>2026-04-11T12:13:05.938Z</time></trkpt><trkpt lat="44.9299083" lon="9.6097933"><ele>126.0</ele><time>2026-04-11T12:13:06.938Z</time></trkpt><trkpt lat="44.9297767" lon="9.6097083"><ele>126.5</ele><time>2026-04-11T12:13:07.939Z</time></trkpt><trkpt lat="44.9296417" lon="9.6096233"><ele>127.0</ele><time>2026-04-11T12:13:08.938Z</time></trkpt><trkpt lat="44.9295083" lon="9.6095383"><ele>127.5</ele><time>2026-04-11T12:13:09.937Z</time></trkpt><trkpt lat="44.9293733" lon="9.60945"><ele>128.0</ele><time>2026-04-11T12:13:10.937Z</time></trkpt><trkpt lat="44.929235" lon="9.6093617"><ele>128.33333333333331</ele><time>2026-04-11T12:13:11.937Z</time></trkpt><trkpt lat="44.929095" lon="9.6092717"><ele>128.66666666666666</ele><time>2026-04-11T12:13:12.937Z</time></trkpt><trkpt lat="44.9289533" lon="9.6091783"><ele>129.0</ele><time>2026-04-11T12:13:13.937Z</time></trkpt><trkpt lat="44.92881" lon="9.609085"><ele>129.0</ele><time>2026-04-11T12:13:14.938Z</time></trkpt><trkpt lat="44.92867" lon="9.608995"><ele>129.0</ele><time>2026-04-11T12:13:15.937Z</time></trkpt><trkpt lat="44.9285217" lon="9.6089"><ele>129.0</ele><time>2026-04-11T12:13:16.937Z</time></trkpt><trkpt lat="44.928375" lon="9.6088017"><ele>128.66666666666666</ele><time>2026-04-11T12:13:17.943Z</time></trkpt><trkpt lat="44.928225" lon="9.6087033"><ele>128.33333333333331</ele><time>2026-04-11T12:13:18.938Z</time></trkpt><trkpt lat="44.9280767" lon="9.608605"><ele>128.0</ele><time>2026-04-11T12:13:19.939Z</time></trkpt><trkpt lat="44.9279233" lon="9.6085067"><ele>127.66666666666666</ele><time>2026-04-11T12:13:20.939Z</time></trkpt><trkpt lat="44.9277667" lon="9.6084067"><ele>127.33333333333334</ele><time>2026-04-11T12:13:21.939Z</time></trkpt><trkpt lat="44.92761" lon="9.6083067"><ele>127.0</ele><time>2026-04-11T12:13:22.942Z</time></trkpt><trkpt lat="44.9274517" lon="9.6082033"><ele>127.0</ele><time>2026-04-11T12:13:23.938Z</time></trkpt><trkpt lat="44.9272917" lon="9.6080983"><ele>127.0</ele><time>2026-04-11T12:13:24.939Z</time></trkpt><trkpt lat="44.9271367" lon="9.6079967"><ele>127.0</ele><time>2026-04-11T12:13:25.938Z</time></trkpt><trkpt lat="44.926985" lon="9.6078967"><ele>126.33333333333334</ele><time>2026-04-11T12:13:26.938Z</time></trkpt><trkpt lat="44.926835" lon="9.6078"><ele>125.66666666666666</ele><time>2026-04-11T12:13:27.938Z</time></trkpt><trkpt lat="44.9266817" lon="9.6077"><ele>125.0</ele><time>2026-04-11T12:13:28.937Z</time></trkpt><trkpt lat="44.92653" lon="9.6076017"><ele>124.66666666666666</ele><time>2026-04-11T12:13:29.937Z</time></trkpt><trkpt lat="44.9263783" lon="9.6075033"><ele>124.33333333333334</ele><time>2026-04-11T12:13:30.938Z</time></trkpt><trkpt lat="44.9262317" lon="9.60741"><ele>124.0</ele><time>2026-04-11T12:13:31.937Z</time></trkpt><trkpt lat="44.9260933" lon="9.60732"><ele>124.0</ele><time>2026-04-11T12:13:32.939Z</time></trkpt><trkpt lat="44.9259617" lon="9.6072333"><ele>124.0</ele><time>2026-04-11T12:13:33.939Z</time></trkpt><trkpt lat="44.9258267" lon="9.6071417"><ele>124.0</ele><time>2026-04-11T12:13:34.938Z</time></trkpt><trkpt lat="44.9256883" lon="9.60705"><ele>124.0</ele><time>2026-04-11T12:13:35.944Z</time></trkpt><trkpt lat="44.925545" lon="9.6069583"><ele>124.25</ele><time>2026-04-11T12:13:36.938Z</time></trkpt><trkpt lat="44.9254033" lon="9.60687"><ele>124.5</ele><time>2026-04-11T12:13:37.939Z</time></trkpt><trkpt lat="44.9252733" lon="9.60679"><ele>124.75</ele><time>2026-04-11T12:13:38.939Z</time></trkpt><trkpt lat="44.925145" lon="9.60671"><ele>125.0</ele><time>2026-04-11T12:13:39.938Z</time></trkpt><trkpt lat="44.9250117" lon="9.6066267"><ele>125.0</ele><time>2026-04-11T12:13:40.942Z</time></trkpt><trkpt lat="44.924875" lon="9.60654"><ele>125.0</ele><time>2026-04-11T12:13:41.939Z</time></trkpt><trkpt lat="44.9247367" lon="9.6064533"><ele>125.0</ele><time>2026-04-11T12:13:42.937Z</time></trkpt><trkpt lat="44.9245933" lon="9.6063683"><ele>125.0</ele><time>2026-04-11T12:13:43.938Z</time></trkpt><trkpt lat="44.924455" lon="9.6062867"><ele>125.0</ele><time>2026-04-11T12:13:44.938Z</time></trkpt><trkpt lat="44.9243233" lon="9.6062083"><ele>125.0</ele><time>2026-04-11T12:13:45.94Z</time></trkpt><trkpt lat="44.9241933" lon="9.60613"><ele>125.0</ele><time>2026-04-11T12:13:46.938Z</time></trkpt><trkpt lat="44.924065" lon="9.6060467"><ele>125.0</ele><time>2026-04-11T12:13:47.938Z</time></trkpt><trkpt lat="44.923935" lon="9.6059617"><ele>125.0</ele><time>2026-04-11T12:13:48.937Z</time></trkpt><trkpt lat="44.9238033" lon="9.6058767"><ele>125.0</ele><time>2026-04-11T12:13:49.937Z</time></trkpt><trkpt lat="44.92367" lon="9.6057867"><ele>125.0</ele><time>2026-04-11T12:13:50.938Z</time></trkpt><trkpt lat="44.923535" lon="9.6056933"><ele>125.0</ele><time>2026-04-11T12:13:51.937Z</time></trkpt><trkpt lat="44.9234" lon="9.605595"><ele>125.0</ele><time>2026-04-11T12:13:52.94Z</time></trkpt><trkpt lat="44.9232617" lon="9.605495"><ele>125.0</ele><time>2026-04-11T12:13:53.937Z</time></trkpt><trkpt lat="44.923125" lon="9.605395"><ele>125.66666666666666</ele><time>2026-04-11T12:13:54.938Z</time></trkpt><trkpt lat="44.9229883" lon="9.605295"><ele>126.33333333333334</ele><time>2026-04-11T12:13:55.937Z</time></trkpt><trkpt lat="44.9228467" lon="9.6052017"><ele>127.0</ele><time>2026-04-11T12:13:56.938Z</time></trkpt><trkpt lat="44.9227067" lon="9.6051183"><ele>127.0</ele><time>2026-04-11T12:13:57.937Z</time></trkpt><trkpt lat="44.922575" lon="9.60506"><ele>127.0</ele><time>2026-04-11T12:13:58.939Z</time></trkpt><trkpt lat="44.9224433" lon="9.6050233"><ele>127.0</ele><time>2026-04-11T12:13:59.938Z</time></trkpt><trkpt lat="44.9223017" lon="9.6050183"><ele>127.0</ele><time>2026-04-11T12:14:00.937Z</time></trkpt><trkpt lat="44.9221583" lon="9.6050467"><ele>127.66666666666667</ele><time>2026-04-11T12:14:01.947Z</time></trkpt><trkpt lat="44.9220117" lon="9.6050867"><ele>128.33333333333334</ele><time>2026-04-11T12:14:02.937Z</time></trkpt><trkpt lat="44.9218583" lon="9.60511"><ele>129.0</ele><time>2026-04-11T12:14:03.938Z</time></trkpt><trkpt lat="44.921705" lon="9.6051067"><ele>129.5</ele><time>2026-04-11T12:14:04.937Z</time></trkpt><trkpt lat="44.9215583" lon="9.605085"><ele>130.0</ele><time>2026-04-11T12:14:05.939Z</time></trkpt><trkpt lat="44.9214183" lon="9.6050417"><ele>130.5</ele><time>2026-04-11T12:14:06.938Z</time></trkpt><trkpt lat="44.92128" lon="9.6049583"><ele>131.0</ele><time>2026-04-11T12:14:07.939Z</time></trkpt><trkpt lat="44.9211617" lon="9.6048317"><ele>131.0</ele><time>2026-04-11T12:14:08.938Z</time></trkpt><trkpt lat="44.921065" lon="9.6046733"><ele>131.0</ele><time>2026-04-11T12:14:09.938Z</time></trkpt><trkpt lat="44.9209767" lon="9.604505"><ele>131.0</ele><time>2026-04-11T12:14:10.94Z</time></trkpt><trkpt lat="44.9208917" lon="9.60434"><ele>131.0</ele><time>2026-04-11T12:14:11.938Z</time></trkpt><trkpt lat="44.9207983" lon="9.6041883"><ele>130.75</ele><time>2026-04-11T12:14:12.938Z</time></trkpt><trkpt lat="44.920695" lon="9.60405"><ele>130.5</ele><time>2026-04-11T12:14:13.937Z</time></trkpt><trkpt lat="44.9205683" lon="9.6039367"><ele>130.25</ele><time>2026-04-11T12:14:14.938Z</time></trkpt><trkpt lat="44.9204433" lon="9.60384"><ele>130.0</ele><time>2026-04-11T12:14:15.938Z</time></trkpt><trkpt lat="44.9203167" lon="9.60375"><ele>130.25</ele><time>2026-04-11T12:14:16.937Z</time></trkpt><trkpt lat="44.9201867" lon="9.6036583"><ele>130.5</ele><time>2026-04-11T12:14:17.94Z</time></trkpt><trkpt lat="44.9200533" lon="9.60356"><ele>130.75</ele><time>2026-04-11T12:14:18.937Z</time></trkpt><trkpt lat="44.9199217" lon="9.60346"><ele>131.0</ele><time>2026-04-11T12:14:19.938Z</time></trkpt><trkpt lat="44.9197883" lon="9.6033583"><ele>131.0</ele><time>2026-04-11T12:14:20.939Z</time></trkpt><trkpt lat="44.919655" lon="9.60326"><ele>131.0</ele><time>2026-04-11T12:14:21.938Z</time></trkpt><trkpt lat="44.9195217" lon="9.6031617"><ele>131.0</ele><time>2026-04-11T12:14:22.942Z</time></trkpt><trkpt lat="44.919395" lon="9.6030633"><ele>131.0</ele><time>2026-04-11T12:14:23.937Z</time></trkpt><trkpt lat="44.91926" lon="9.6029733"><ele>131.33333333333331</ele><time>2026-04-11T12:14:24.938Z</time></trkpt><trkpt lat="44.9191233" lon="9.60288"><ele>131.66666666666666</ele><time>2026-04-11T12:14:25.937Z</time></trkpt><trkpt lat="44.9189867" lon="9.6027783"><ele>132.0</ele><time>2026-04-11T12:14:26.938Z</time></trkpt><trkpt lat="44.9188517" lon="9.6026733"><ele>132.0</ele><time>2026-04-11T12:14:27.936Z</time></trkpt><trkpt lat="44.9187183" lon="9.602575"><ele>132.0</ele><time>2026-04-11T12:14:28.938Z</time></trkpt><trkpt lat="44.91859" lon="9.6024817"><ele>132.0</ele><time>2026-04-11T12:14:29.939Z</time></trkpt><trkpt lat="44.9184667" lon="9.6023917"><ele>132.0</ele><time>2026-04-11T12:14:30.939Z</time></trkpt><trkpt lat="44.9183383" lon="9.602295"><ele>132.33333333333334</ele><time>2026-04-11T12:14:31.938Z</time></trkpt><trkpt lat="44.9182083" lon="9.6021917"><ele>132.66666666666669</ele><time>2026-04-11T12:14:32.939Z</time></trkpt><trkpt lat="44.9180817" lon="9.6020783"><ele>133.0</ele><time>2026-04-11T12:14:33.94Z</time></trkpt><trkpt lat="44.9179567" lon="9.60196"><ele>133.0</ele><time>2026-04-11T12:14:34.941Z</time></trkpt><trkpt lat="44.9178333" lon="9.6018367"><ele>133.0</ele><time>2026-04-11T12:14:35.938Z</time></trkpt><trkpt lat="44.9177117" lon="9.6017167"><ele>133.0</ele><time>2026-04-11T12:14:36.938Z</time></trkpt><trkpt lat="44.9175983" lon="9.6016033"><ele>133.0</ele><time>2026-04-11T12:14:37.94Z</time></trkpt><trkpt lat="44.9174867" lon="9.601495"><ele>133.25</ele><time>2026-04-11T12:14:38.939Z</time></trkpt><trkpt lat="44.9173733" lon="9.6013883"><ele>133.5</ele><time>2026-04-11T12:14:39.945Z</time></trkpt><trkpt lat="44.9172533" lon="9.6012883"><ele>133.75</ele><time>2026-04-11T12:14:40.937Z</time></trkpt><trkpt lat="44.91713" lon="9.6011967"><ele>134.0</ele><time>2026-04-11T12:14:41.938Z</time></trkpt><trkpt lat="44.917" lon="9.6011083"><ele>134.0</ele><time>2026-04-11T12:14:42.938Z</time></trkpt><trkpt lat="44.9168667" lon="9.6010183"><ele>134.0</ele><time>2026-04-11T12:14:43.938Z</time></trkpt><trkpt lat="44.9167267" lon="9.6009267"><ele>134.0</ele><time>2026-04-11T12:14:44.942Z</time></trkpt><trkpt lat="44.9165817" lon="9.600835"><ele>134.66666666666666</ele><time>2026-04-11T12:14:45.938Z</time></trkpt><trkpt lat="44.9164367" lon="9.6007483"><ele>135.33333333333334</ele><time>2026-04-11T12:14:46.939Z</time></trkpt><trkpt lat="44.9162883" lon="9.60066"><ele>136.0</ele><time>2026-04-11T12:14:47.937Z</time></trkpt><trkpt lat="44.9161417" lon="9.60057"><ele>136.0</ele><time>2026-04-11T12:14:48.938Z</time></trkpt><trkpt lat="44.9159967" lon="9.6004867"><ele>136.0</ele><time>2026-04-11T12:14:49.937Z</time></trkpt><trkpt lat="44.91585" lon="9.6004017"><ele>136.0</ele><time>2026-04-11T12:14:50.938Z</time></trkpt><trkpt lat="44.9157067" lon="9.6003133"><ele>135.5</ele><time>2026-04-11T12:14:51.938Z</time></trkpt><trkpt lat="44.9155717" lon="9.6002283"><ele>135.0</ele><time>2026-04-11T12:14:52.937Z</time></trkpt><trkpt lat="44.9154383" lon="9.600145"><ele>134.5</ele><time>2026-04-11T12:14:53.943Z</time></trkpt><trkpt lat="44.915305" lon="9.6000567"><ele>134.0</ele><time>2026-04-11T12:14:54.937Z</time></trkpt><trkpt lat="44.9151717" lon="9.5999667"><ele>133.75</ele><time>2026-04-11T12:14:55.938Z</time></trkpt><trkpt lat="44.9150367" lon="9.5998767"><ele>133.5</ele><time>2026-04-11T12:14:56.937Z</time></trkpt><trkpt lat="44.9149067" lon="9.59979"><ele>133.25</ele><time>2026-04-11T12:14:57.937Z</time></trkpt><trkpt lat="44.9147833" lon="9.599705"><ele>133.0</ele><time>2026-04-11T12:14:58.937Z</time></trkpt><trkpt lat="44.9146517" lon="9.5996133"><ele>133.0</ele><time>2026-04-11T12:14:59.937Z</time></trkpt><trkpt lat="44.9145167" lon="9.5995183"><ele>133.0</ele><time>2026-04-11T12:15:00.942Z</time></trkpt><trkpt lat="44.9143833" lon="9.5994317"><ele>133.0</ele><time>2026-04-11T12:15:01.937Z</time></trkpt><trkpt lat="44.914255" lon="9.5993517"><ele>133.0</ele><time>2026-04-11T12:15:02.938Z</time></trkpt><trkpt lat="44.914135" lon="9.5992783"><ele>133.8</ele><time>2026-04-11T12:15:03.936Z</time></trkpt><trkpt lat="44.914025" lon="9.59921"><ele>134.60000000000002</ele><time>2026-04-11T12:15:04.938Z</time></trkpt><trkpt lat="44.9139267" lon="9.5991467"><ele>135.39999999999998</ele><time>2026-04-11T12:15:05.94Z</time></trkpt><trkpt lat="44.91383" lon="9.59908"><ele>136.2</ele><time>2026-04-11T12:15:06.936Z</time></trkpt><trkpt lat="44.9137417" lon="9.5989967"><ele>137.0</ele><time>2026-04-11T12:15:07.936Z</time></trkpt><trkpt lat="44.9136633" lon="9.5988883"><ele>137.0</ele><time>2026-04-11T12:15:08.938Z</time></trkpt><trkpt lat="44.9135933" lon="9.5987483"><ele>137.0</ele><time>2026-04-11T12:15:09.937Z</time></trkpt><trkpt lat="44.913525" lon="9.59859"><ele>137.0</ele><time>2026-04-11T12:15:10.936Z</time></trkpt><trkpt lat="44.9134583" lon="9.5984167"><ele>137.0</ele><time>2026-04-11T12:15:11.938Z</time></trkpt><trkpt lat="44.9133883" lon="9.5982417"><ele>137.0</ele><time>2026-04-11T12:15:12.943Z</time></trkpt><trkpt lat="44.9133183" lon="9.59806"><ele>137.0</ele><time>2026-04-11T12:15:13.937Z</time></trkpt><trkpt lat="44.913245" lon="9.5978767"><ele>137.0</ele><time>2026-04-11T12:15:14.938Z</time></trkpt><trkpt lat="44.9131717" lon="9.5976917"><ele>137.0</ele><time>2026-04-11T12:15:15.936Z</time></trkpt><trkpt lat="44.913095" lon="9.597505"><ele>137.0</ele><time>2026-04-11T12:15:16.937Z</time></trkpt><trkpt lat="44.9130083" lon="9.5973217"><ele>137.0</ele><time>2026-04-11T12:15:17.936Z</time></trkpt><trkpt lat="44.9129117" lon="9.59715"><ele>137.0</ele><time>2026-04-11T12:15:18.937Z</time></trkpt><trkpt lat="44.9128083" lon="9.5969967"><ele>137.25</ele><time>2026-04-11T12:15:19.943Z</time></trkpt><trkpt lat="44.9126983" lon="9.5968533"><ele>137.5</ele><time>2026-04-11T12:15:20.937Z</time></trkpt><trkpt lat="44.9125817" lon="9.5967283"><ele>137.75</ele><time>2026-04-11T12:15:21.937Z</time></trkpt><trkpt lat="44.9124617" lon="9.5966117"><ele>138.0</ele><time>2026-04-11T12:15:22.937Z</time></trkpt><trkpt lat="44.91233" lon="9.596505"><ele>138.33333333333334</ele><time>2026-04-11T12:15:23.937Z</time></trkpt><trkpt lat="44.9121933" lon="9.5964083"><ele>138.66666666666669</ele><time>2026-04-11T12:15:24.938Z</time></trkpt><trkpt lat="44.9120483" lon="9.5963217"><ele>139.0</ele><time>2026-04-11T12:15:25.937Z</time></trkpt><trkpt lat="44.9118983" lon="9.59624"><ele>138.0</ele><time>2026-04-11T12:15:26.941Z</time></trkpt><trkpt lat="44.9117433" lon="9.5961617"><ele>137.0</ele><time>2026-04-11T12:15:27.939Z</time></trkpt><trkpt lat="44.91159" lon="9.59608"><ele>136.0</ele><time>2026-04-11T12:15:28.937Z</time></trkpt><trkpt lat="44.9114367" lon="9.5960017"><ele>134.66666666666669</ele><time>2026-04-11T12:15:29.937Z</time></trkpt><trkpt lat="44.9112833" lon="9.5959217"><ele>133.33333333333334</ele><time>2026-04-11T12:15:30.938Z</time></trkpt><trkpt lat="44.91113" lon="9.5958417"><ele>132.0</ele><time>2026-04-11T12:15:31.936Z</time></trkpt><trkpt lat="44.9109783" lon="9.59576"><ele>133.0</ele><time>2026-04-11T12:15:32.94Z</time></trkpt><trkpt lat="44.910825" lon="9.5956783"><ele>134.0</ele><time>2026-04-11T12:15:33.937Z</time></trkpt><trkpt lat="44.9106733" lon="9.5955967"><ele>135.0</ele><time>2026-04-11T12:15:34.937Z</time></trkpt><trkpt lat="44.9105233" lon="9.59551"><ele>135.0</ele><time>2026-04-11T12:15:35.938Z</time></trkpt><trkpt lat="44.9103767" lon="9.5954117"><ele>135.0</ele><time>2026-04-11T12:15:36.938Z</time></trkpt><trkpt lat="44.910235" lon="9.5952967"><ele>135.0</ele><time>2026-04-11T12:15:37.942Z</time></trkpt><trkpt lat="44.9101" lon="9.5951633"><ele>134.0</ele><time>2026-04-11T12:15:38.938Z</time></trkpt><trkpt lat="44.9099717" lon="9.5950183"><ele>133.0</ele><time>2026-04-11T12:15:39.936Z</time></trkpt><trkpt lat="44.9098483" lon="9.59486"><ele>132.0</ele><time>2026-04-11T12:15:40.937Z</time></trkpt><trkpt lat="44.9097317" lon="9.5946917"><ele>132.0</ele><time>2026-04-11T12:15:41.938Z</time></trkpt><trkpt lat="44.90962" lon="9.5945183"><ele>132.0</ele><time>2026-04-11T12:15:42.942Z</time></trkpt><trkpt lat="44.90951" lon="9.594345"><ele>132.0</ele><time>2026-04-11T12:15:43.937Z</time></trkpt><trkpt lat="44.9094" lon="9.59417"><ele>131.66666666666666</ele><time>2026-04-11T12:15:44.937Z</time></trkpt><trkpt lat="44.9092933" lon="9.5939933"><ele>131.33333333333331</ele><time>2026-04-11T12:15:45.937Z</time></trkpt><trkpt lat="44.9091883" lon="9.5938167"><ele>131.0</ele><time>2026-04-11T12:15:46.938Z</time></trkpt><trkpt lat="44.90908" lon="9.5936483"><ele>132.0</ele><time>2026-04-11T12:15:47.937Z</time></trkpt><trkpt lat="44.908975" lon="9.5934867"><ele>133.0</ele><time>2026-04-11T12:15:48.937Z</time></trkpt><trkpt lat="44.908865" lon="9.59332"><ele>134.0</ele><time>2026-04-11T12:15:49.945Z</time></trkpt><trkpt lat="44.9087567" lon="9.59315"><ele>134.0</ele><time>2026-04-11T12:15:50.939Z</time></trkpt><trkpt lat="44.9086467" lon="9.592975"><ele>134.0</ele><time>2026-04-11T12:15:51.938Z</time></trkpt><trkpt lat="44.90853" lon="9.5928017"><ele>134.0</ele><time>2026-04-11T12:15:52.937Z</time></trkpt><trkpt lat="44.908405" lon="9.5926383"><ele>134.0</ele><time>2026-04-11T12:15:53.938Z</time></trkpt><trkpt lat="44.9082717" lon="9.59249"><ele>134.0</ele><time>2026-04-11T12:15:54.941Z</time></trkpt><trkpt lat="44.908135" lon="9.5923583"><ele>134.0</ele><time>2026-04-11T12:15:55.939Z</time></trkpt><trkpt lat="44.9079967" lon="9.5922367"><ele>134.0</ele><time>2026-04-11T12:15:56.94Z</time></trkpt><trkpt lat="44.9078567" lon="9.5921233"><ele>134.0</ele><time>2026-04-11T12:15:57.939Z</time></trkpt><trkpt lat="44.9077133" lon="9.59201"><ele>134.0</ele><time>2026-04-11T12:15:58.937Z</time></trkpt><trkpt lat="44.907575" lon="9.5918933"><ele>134.33333333333331</ele><time>2026-04-11T12:15:59.945Z</time></trkpt><trkpt lat="44.9074383" lon="9.5917783"><ele>134.66666666666666</ele><time>2026-04-11T12:16:00.937Z</time></trkpt><trkpt lat="44.9073017" lon="9.5916667"><ele>135.0</ele><time>2026-04-11T12:16:01.937Z</time></trkpt><trkpt lat="44.9071633" lon="9.5915567"><ele>135.0</ele><time>2026-04-11T12:16:02.938Z</time></trkpt><trkpt lat="44.9070283" lon="9.5914433"><ele>135.0</ele><time>2026-04-11T12:16:03.937Z</time></trkpt><trkpt lat="44.9068917" lon="9.59133"><ele>135.0</ele><time>2026-04-11T12:16:04.937Z</time></trkpt><trkpt lat="44.906755" lon="9.5912183"><ele>136.66666666666666</ele><time>2026-04-11T12:16:05.938Z</time></trkpt><trkpt lat="44.90662" lon="9.5911083"><ele>138.33333333333331</ele><time>2026-04-11T12:16:06.938Z</time></trkpt><trkpt lat="44.9064867" lon="9.590995"><ele>140.0</ele><time>2026-04-11T12:16:07.937Z</time></trkpt><trkpt lat="44.9063517" lon="9.590885"><ele>140.0</ele><time>2026-04-11T12:16:08.937Z</time></trkpt><trkpt lat="44.9062167" lon="9.5907733"><ele>140.0</ele><time>2026-04-11T12:16:09.936Z</time></trkpt><trkpt lat="44.9060817" lon="9.5906617"><ele>140.0</ele><time>2026-04-11T12:16:10.936Z</time></trkpt><trkpt lat="44.9059483" lon="9.5905533"><ele>140.0</ele><time>2026-04-11T12:16:11.937Z</time></trkpt><trkpt lat="44.905815" lon="9.5904417"><ele>140.0</ele><time>2026-04-11T12:16:12.937Z</time></trkpt><trkpt lat="44.905685" lon="9.5903233"><ele>140.0</ele><time>2026-04-11T12:16:13.936Z</time></trkpt><trkpt lat="44.905555" lon="9.590215"><ele>140.0</ele><time>2026-04-11T12:16:14.937Z</time></trkpt><trkpt lat="44.90542" lon="9.5901067"><ele>140.0</ele><time>2026-04-11T12:16:15.938Z</time></trkpt><trkpt lat="44.9052817" lon="9.5899967"><ele>140.0</ele><time>2026-04-11T12:16:16.944Z</time></trkpt><trkpt lat="44.9051417" lon="9.589885"><ele>142.33333333333331</ele><time>2026-04-11T12:16:17.937Z</time></trkpt><trkpt lat="44.9050017" lon="9.58977"><ele>144.66666666666666</ele><time>2026-04-11T12:16:18.938Z</time></trkpt><trkpt lat="44.904865" lon="9.589655"><ele>147.0</ele><time>2026-04-11T12:16:19.937Z</time></trkpt><trkpt lat="44.9047267" lon="9.58954"><ele>145.0</ele><time>2026-04-11T12:16:20.939Z</time></trkpt><trkpt lat="44.9045917" lon="9.589425"><ele>143.0</ele><time>2026-04-11T12:16:21.937Z</time></trkpt><trkpt lat="44.9044533" lon="9.58931"><ele>141.0</ele><time>2026-04-11T12:16:22.937Z</time></trkpt><trkpt lat="44.9043167" lon="9.5891983"><ele>144.66666666666666</ele><time>2026-04-11T12:16:23.937Z</time></trkpt><trkpt lat="44.9041817" lon="9.5890867"><ele>148.33333333333331</ele><time>2026-04-11T12:16:24.937Z</time></trkpt><trkpt lat="44.9040517" lon="9.58898"><ele>152.0</ele><time>2026-04-11T12:16:25.937Z</time></trkpt><trkpt lat="44.903925" lon="9.5888733"><ele>152.0</ele><time>2026-04-11T12:16:26.938Z</time></trkpt><trkpt lat="44.903795" lon="9.58877"><ele>152.0</ele><time>2026-04-11T12:16:27.948Z</time></trkpt><trkpt lat="44.9036583" lon="9.588665"><ele>152.0</ele><time>2026-04-11T12:16:28.938Z</time></trkpt><trkpt lat="44.9035217" lon="9.58856"><ele>152.0</ele><time>2026-04-11T12:16:29.936Z</time></trkpt><trkpt lat="44.9033917" lon="9.5884617"><ele>152.0</ele><time>2026-04-11T12:16:30.936Z</time></trkpt><trkpt lat="44.903265" lon="9.5883583"><ele>152.0</ele><time>2026-04-11T12:16:31.937Z</time></trkpt><trkpt lat="44.90314" lon="9.5882567"><ele>152.0</ele><time>2026-04-11T12:16:32.938Z</time></trkpt><trkpt lat="44.9030183" lon="9.58816"><ele>152.0</ele><time>2026-04-11T12:16:33.937Z</time></trkpt><trkpt lat="44.902905" lon="9.5880667"><ele>152.0</ele><time>2026-04-11T12:16:34.944Z</time></trkpt><trkpt lat="44.9028017" lon="9.58798"><ele>152.0</ele><time>2026-04-11T12:16:35.937Z</time></trkpt><trkpt lat="44.9027033" lon="9.5879"><ele>152.0</ele><time>2026-04-11T12:16:36.938Z</time></trkpt><trkpt lat="44.9026267" lon="9.5878267"><ele>153.16666666666666</ele><time>2026-04-11T12:16:37.937Z</time></trkpt><trkpt lat="44.9025533" lon="9.5877467"><ele>154.33333333333331</ele><time>2026-04-11T12:16:38.939Z</time></trkpt><trkpt lat="44.9025017" lon="9.58765"><ele>155.5</ele><time>2026-04-11T12:16:39.938Z</time></trkpt><trkpt lat="44.90248" lon="9.5875433"><ele>156.66666666666666</ele><time>2026-04-11T12:16:40.941Z</time></trkpt><trkpt lat="44.90246" lon="9.5874417"><ele>157.83333333333334</ele><time>2026-04-11T12:16:41.937Z</time></trkpt><trkpt lat="44.9024233" lon="9.58735"><ele>159.0</ele><time>2026-04-11T12:16:42.938Z</time></trkpt><trkpt lat="44.9023633" lon="9.5872733"><ele>159.0</ele><time>2026-04-11T12:16:43.937Z</time></trkpt><trkpt lat="44.9022933" lon="9.5872"><ele>159.0</ele><time>2026-04-11T12:16:44.938Z</time></trkpt><trkpt lat="44.90222" lon="9.58712"><ele>159.0</ele><time>2026-04-11T12:16:45.946Z</time></trkpt><trkpt lat="44.9021317" lon="9.5870333"><ele>159.0</ele><time>2026-04-11T12:16:46.937Z</time></trkpt><trkpt lat="44.902035" lon="9.5869383"><ele>159.0</ele><time>2026-04-11T12:16:47.937Z</time></trkpt><trkpt lat="44.9019383" lon="9.5868367"><ele>159.0</ele><time>2026-04-11T12:16:48.938Z</time></trkpt><trkpt lat="44.901845" lon="9.5867367"><ele>159.0</ele><time>2026-04-11T12:16:49.939Z</time></trkpt><trkpt lat="44.901755" lon="9.58664"><ele>159.0</ele><time>2026-04-11T12:16:50.944Z</time></trkpt><trkpt lat="44.9016583" lon="9.586545"><ele>159.0</ele><time>2026-04-11T12:16:51.938Z</time></trkpt><trkpt lat="44.9015617" lon="9.58644"><ele>159.0</ele><time>2026-04-11T12:16:52.938Z</time></trkpt><trkpt lat="44.901465" lon="9.5863267"><ele>159.0</ele><time>2026-04-11T12:16:53.937Z</time></trkpt><trkpt lat="44.9013667" lon="9.586205"><ele>159.0</ele><time>2026-04-11T12:16:54.938Z</time></trkpt><trkpt lat="44.9012717" lon="9.5860683"><ele>159.0</ele><time>2026-04-11T12:16:55.943Z</time></trkpt><trkpt lat="44.9011833" lon="9.5859133"><ele>156.25</ele><time>2026-04-11T12:16:56.939Z</time></trkpt><trkpt lat="44.9011" lon="9.5857483"><ele>153.5</ele><time>2026-04-11T12:16:57.939Z</time></trkpt><trkpt lat="44.9010183" lon="9.585575"><ele>150.75</ele><time>2026-04-11T12:16:58.937Z</time></trkpt><trkpt lat="44.9009317" lon="9.5854"><ele>148.0</ele><time>2026-04-11T12:16:59.937Z</time></trkpt><trkpt lat="44.900845" lon="9.5852333"><ele>148.0</ele><time>2026-04-11T12:17:00.937Z</time></trkpt><trkpt lat="44.9007617" lon="9.58507"><ele>148.0</ele><time>2026-04-11T12:17:01.938Z</time></trkpt><trkpt lat="44.90068" lon="9.5849"><ele>148.0</ele><time>2026-04-11T12:17:02.937Z</time></trkpt><trkpt lat="44.9006" lon="9.58473"><ele>148.0</ele><time>2026-04-11T12:17:03.938Z</time></trkpt><trkpt lat="44.9005333" lon="9.58456"><ele>147.5</ele><time>2026-04-11T12:17:04.942Z</time></trkpt><trkpt lat="44.9004783" lon="9.5843817"><ele>147.0</ele><time>2026-04-11T12:17:05.937Z</time></trkpt><trkpt lat="44.9004317" lon="9.5842033"><ele>146.5</ele><time>2026-04-11T12:17:06.937Z</time></trkpt><trkpt lat="44.90039" lon="9.5840317"><ele>146.0</ele><time>2026-04-11T12:17:07.937Z</time></trkpt><trkpt lat="44.9003467" lon="9.5838617"><ele>146.0</ele><time>2026-04-11T12:17:08.938Z</time></trkpt><trkpt lat="44.9003033" lon="9.5836917"><ele>146.0</ele><time>2026-04-11T12:17:09.941Z</time></trkpt><trkpt lat="44.9002717" lon="9.58351"><ele>146.0</ele><time>2026-04-11T12:17:10.937Z</time></trkpt><trkpt lat="44.9002633" lon="9.5833117"><ele>146.0</ele><time>2026-04-11T12:17:11.937Z</time></trkpt><trkpt lat="44.90027" lon="9.5831"><ele>145.0</ele><time>2026-04-11T12:17:12.937Z</time></trkpt><trkpt lat="44.900285" lon="9.5828883"><ele>144.0</ele><time>2026-04-11T12:17:13.938Z</time></trkpt><trkpt lat="44.9003017" lon="9.5826833"><ele>143.0</ele><time>2026-04-11T12:17:14.943Z</time></trkpt><trkpt lat="44.90032" lon="9.58248"><ele>142.0</ele><time>2026-04-11T12:17:15.94Z</time></trkpt><trkpt lat="44.9003367" lon="9.582275"><ele>140.25</ele><time>2026-04-11T12:17:16.936Z</time></trkpt><trkpt lat="44.9003533" lon="9.5820733"><ele>138.5</ele><time>2026-04-11T12:17:17.939Z</time></trkpt><trkpt lat="44.90037" lon="9.5818733"><ele>136.75</ele><time>2026-04-11T12:17:18.938Z</time></trkpt><trkpt lat="44.9003883" lon="9.5816733"><ele>135.0</ele><time>2026-04-11T12:17:19.942Z</time></trkpt><trkpt lat="44.9004083" lon="9.5814683"><ele>135.0</ele><time>2026-04-11T12:17:20.939Z</time></trkpt><trkpt lat="44.9004267" lon="9.58127"><ele>135.0</ele><time>2026-04-11T12:17:21.938Z</time></trkpt><trkpt lat="44.900445" lon="9.581075"><ele>135.0</ele><time>2026-04-11T12:17:22.938Z</time></trkpt><trkpt lat="44.9004617" lon="9.58089"><ele>135.0</ele><time>2026-04-11T12:17:23.939Z</time></trkpt><trkpt lat="44.9004717" lon="9.5807183"><ele>137.0</ele><time>2026-04-11T12:17:24.937Z</time></trkpt><trkpt lat="44.9004533" lon="9.58056"><ele>139.0</ele><time>2026-04-11T12:17:25.937Z</time></trkpt><trkpt lat="44.90039" lon="9.580425"><ele>141.0</ele><time>2026-04-11T12:17:26.943Z</time></trkpt><trkpt lat="44.90029" lon="9.5803317"><ele>143.0</ele><time>2026-04-11T12:17:27.938Z</time></trkpt><trkpt lat="44.9001733" lon="9.5802883"><ele>146.0</ele><time>2026-04-11T12:17:28.937Z</time></trkpt><trkpt lat="44.9000467" lon="9.5802567"><ele>149.0</ele><time>2026-04-11T12:17:29.937Z</time></trkpt><trkpt lat="44.899925" lon="9.5801933"><ele>152.0</ele><time>2026-04-11T12:17:30.939Z</time></trkpt><trkpt lat="44.8998" lon="9.5801183"><ele>155.0</ele><time>2026-04-11T12:17:31.939Z</time></trkpt><trkpt lat="44.8996767" lon="9.5800383"><ele>155.0</ele><time>2026-04-11T12:17:32.939Z</time></trkpt><trkpt lat="44.899555" lon="9.5799567"><ele>155.0</ele><time>2026-04-11T12:17:33.938Z</time></trkpt><trkpt lat="44.899445" lon="9.5798767"><ele>155.0</ele><time>2026-04-11T12:17:34.939Z</time></trkpt><trkpt lat="44.89934" lon="9.5797983"><ele>155.0</ele><time>2026-04-11T12:17:35.937Z</time></trkpt><trkpt lat="44.89923" lon="9.5797183"><ele>153.5</ele><time>2026-04-11T12:17:36.937Z</time></trkpt><trkpt lat="44.899115" lon="9.57964"><ele>152.0</ele><time>2026-04-11T12:17:37.937Z</time></trkpt><trkpt lat="44.899" lon="9.5795583"><ele>150.5</ele><time>2026-04-11T12:17:38.938Z</time></trkpt><trkpt lat="44.898885" lon="9.5794717"><ele>149.0</ele><time>2026-04-11T12:17:39.943Z</time></trkpt><trkpt lat="44.8987667" lon="9.5793783"><ele>151.25</ele><time>2026-04-11T12:17:40.937Z</time></trkpt><trkpt lat="44.898655" lon="9.579285"><ele>153.5</ele><time>2026-04-11T12:17:41.938Z</time></trkpt><trkpt lat="44.8985467" lon="9.57918"><ele>155.75</ele><time>2026-04-11T12:17:42.938Z</time></trkpt><trkpt lat="44.8984383" lon="9.579065"><ele>158.0</ele><time>2026-04-11T12:17:43.938Z</time></trkpt><trkpt lat="44.898335" lon="9.57894"><ele>158.0</ele><time>2026-04-11T12:17:44.938Z</time></trkpt><trkpt lat="44.8982367" lon="9.5788117"><ele>158.0</ele><time>2026-04-11T12:17:45.944Z</time></trkpt><trkpt lat="44.8981467" lon="9.57868"><ele>158.0</ele><time>2026-04-11T12:17:46.937Z</time></trkpt><trkpt lat="44.8980617" lon="9.5785517"><ele>158.0</ele><time>2026-04-11T12:17:47.938Z</time></trkpt><trkpt lat="44.8979767" lon="9.5784217"><ele>159.25</ele><time>2026-04-11T12:17:48.939Z</time></trkpt><trkpt lat="44.8978867" lon="9.5782933"><ele>160.5</ele><time>2026-04-11T12:17:49.94Z</time></trkpt><trkpt lat="44.8978017" lon="9.5781733"><ele>161.75</ele><time>2026-04-11T12:17:50.945Z</time></trkpt><trkpt lat="44.8977183" lon="9.5780583"><ele>163.0</ele><time>2026-04-11T12:17:51.939Z</time></trkpt><trkpt lat="44.8976383" lon="9.5779433"><ele>163.60000000000002</ele><time>2026-04-11T12:17:52.939Z</time></trkpt><trkpt lat="44.8975583" lon="9.5778367"><ele>164.20000000000002</ele><time>2026-04-11T12:17:53.94Z</time></trkpt><trkpt lat="44.8974817" lon="9.577735"><ele>164.8</ele><time>2026-04-11T12:17:54.938Z</time></trkpt><trkpt lat="44.897415" lon="9.5776433"><ele>165.4</ele><time>2026-04-11T12:17:55.937Z</time></trkpt><trkpt lat="44.897355" lon="9.5775633"><ele>166.0</ele><time>2026-04-11T12:17:56.946Z</time></trkpt><trkpt lat="44.8973117" lon="9.577495"><ele>166.0</ele><time>2026-04-11T12:17:57.938Z</time></trkpt><trkpt lat="44.8972733" lon="9.57742"><ele>166.0</ele><time>2026-04-11T12:17:59.937Z</time></trkpt><trkpt lat="44.8972267" lon="9.5773083"><ele>166.0</ele><time>2026-04-11T12:18:01.937Z</time></trkpt><trkpt lat="44.8971033" lon="9.57722"><ele>166.0</ele><time>2026-04-11T12:18:03.942Z</time></trkpt><trkpt lat="44.8970117" lon="9.5772"><ele>166.0</ele><time>2026-04-11T12:18:04.937Z</time></trkpt><trkpt lat="44.8969133" lon="9.5771783"><ele>166.0</ele><time>2026-04-11T12:18:05.938Z</time></trkpt><trkpt lat="44.8968217" lon="9.57713"><ele>166.0</ele><time>2026-04-11T12:18:06.937Z</time></trkpt><trkpt lat="44.8967217" lon="9.57706"><ele>166.0</ele><time>2026-04-11T12:18:07.937Z</time></trkpt><trkpt lat="44.896615" lon="9.57697"><ele>166.0</ele><time>2026-04-11T12:18:08.938Z</time></trkpt><trkpt lat="44.8965033" lon="9.57687"><ele>166.5</ele><time>2026-04-11T12:18:09.937Z</time></trkpt><trkpt lat="44.8963933" lon="9.5767667"><ele>167.0</ele><time>2026-04-11T12:18:10.937Z</time></trkpt><trkpt lat="44.896285" lon="9.5766683"><ele>167.5</ele><time>2026-04-11T12:18:11.937Z</time></trkpt><trkpt lat="44.8961767" lon="9.5765717"><ele>168.0</ele><time>2026-04-11T12:18:12.944Z</time></trkpt><trkpt lat="44.89607" lon="9.5764733"><ele>168.0</ele><time>2026-04-11T12:18:13.937Z</time></trkpt><trkpt lat="44.8959583" lon="9.5763733"><ele>168.0</ele><time>2026-04-11T12:18:14.938Z</time></trkpt><trkpt lat="44.895845" lon="9.5762733"><ele>168.0</ele><time>2026-04-11T12:18:15.937Z</time></trkpt><trkpt lat="44.8957367" lon="9.5761717"><ele>168.0</ele><time>2026-04-11T12:18:16.938Z</time></trkpt><trkpt lat="44.8956267" lon="9.5760683"><ele>167.5</ele><time>2026-04-11T12:18:17.937Z</time></trkpt><trkpt lat="44.8955117" lon="9.5759617"><ele>167.0</ele><time>2026-04-11T12:18:18.938Z</time></trkpt><trkpt lat="44.8953917" lon="9.57585"><ele>166.5</ele><time>2026-04-11T12:18:19.938Z</time></trkpt><trkpt lat="44.895265" lon="9.575735"><ele>166.0</ele><time>2026-04-11T12:18:20.938Z</time></trkpt><trkpt lat="44.8951417" lon="9.5756233"><ele>165.75</ele><time>2026-04-11T12:18:21.944Z</time></trkpt><trkpt lat="44.8950217" lon="9.575515"><ele>165.5</ele><time>2026-04-11T12:18:22.938Z</time></trkpt><trkpt lat="44.8949017" lon="9.575405"><ele>165.25</ele><time>2026-04-11T12:18:23.937Z</time></trkpt><trkpt lat="44.89478" lon="9.5752933"><ele>165.0</ele><time>2026-04-11T12:18:24.938Z</time></trkpt><trkpt lat="44.894655" lon="9.5751833"><ele>166.5</ele><time>2026-04-11T12:18:25.938Z</time></trkpt><trkpt lat="44.8945317" lon="9.5750733"><ele>168.0</ele><time>2026-04-11T12:18:26.939Z</time></trkpt><trkpt lat="44.8944117" lon="9.57497"><ele>169.5</ele><time>2026-04-11T12:18:27.937Z</time></trkpt><trkpt lat="44.89429" lon="9.5748717"><ele>171.0</ele><time>2026-04-11T12:18:28.937Z</time></trkpt><trkpt lat="44.8941633" lon="9.5747767"><ele>171.0</ele><time>2026-04-11T12:18:29.937Z</time></trkpt><trkpt lat="44.89403" lon="9.574685"><ele>171.0</ele><time>2026-04-11T12:18:30.938Z</time></trkpt><trkpt lat="44.8938867" lon="9.574605"><ele>171.0</ele><time>2026-04-11T12:18:31.937Z</time></trkpt><trkpt lat="44.89374" lon="9.5745283"><ele>171.5</ele><time>2026-04-11T12:18:32.947Z</time></trkpt><trkpt lat="44.893595" lon="9.5744533"><ele>172.0</ele><time>2026-04-11T12:18:33.937Z</time></trkpt><trkpt lat="44.8934567" lon="9.57438"><ele>172.5</ele><time>2026-04-11T12:18:34.938Z</time></trkpt><trkpt lat="44.893325" lon="9.5743083"><ele>173.0</ele><time>2026-04-11T12:18:35.938Z</time></trkpt><trkpt lat="44.893195" lon="9.574235"><ele>173.0</ele><time>2026-04-11T12:18:36.937Z</time></trkpt><trkpt lat="44.8930667" lon="9.574145"><ele>173.0</ele><time>2026-04-11T12:18:37.938Z</time></trkpt><trkpt lat="44.8929417" lon="9.5740283"><ele>173.0</ele><time>2026-04-11T12:18:38.944Z</time></trkpt><trkpt lat="44.89282" lon="9.5738867"><ele>173.0</ele><time>2026-04-11T12:18:39.937Z</time></trkpt><trkpt lat="44.8927" lon="9.5737383"><ele>173.0</ele><time>2026-04-11T12:18:40.936Z</time></trkpt><trkpt lat="44.8925833" lon="9.5735883"><ele>173.0</ele><time>2026-04-11T12:18:41.938Z</time></trkpt><trkpt lat="44.8924583" lon="9.57344"><ele>174.66666666666666</ele><time>2026-04-11T12:18:42.937Z</time></trkpt><trkpt lat="44.8923333" lon="9.5733017"><ele>176.33333333333334</ele><time>2026-04-11T12:18:43.943Z</time></trkpt><trkpt lat="44.892205" lon="9.573165"><ele>178.0</ele><time>2026-04-11T12:18:44.938Z</time></trkpt><trkpt lat="44.8920767" lon="9.5730067"><ele>179.66666666666669</ele><time>2026-04-11T12:18:45.937Z</time></trkpt><trkpt lat="44.891955" lon="9.5728233"><ele>181.33333333333334</ele><time>2026-04-11T12:18:46.938Z</time></trkpt><trkpt lat="44.8918367" lon="9.5726317"><ele>183.0</ele><time>2026-04-11T12:18:47.939Z</time></trkpt><trkpt lat="44.891715" lon="9.57245"><ele>183.0</ele><time>2026-04-11T12:18:48.938Z</time></trkpt><trkpt lat="44.8915817" lon="9.5722967"><ele>183.0</ele><time>2026-04-11T12:18:49.939Z</time></trkpt><trkpt lat="44.8914383" lon="9.572165"><ele>183.0</ele><time>2026-04-11T12:18:50.94Z</time></trkpt><trkpt lat="44.8912967" lon="9.5720383"><ele>190.0</ele><time>2026-04-11T12:18:51.938Z</time></trkpt><trkpt lat="44.89117" lon="9.5718917"><ele>197.0</ele><time>2026-04-11T12:18:52.942Z</time></trkpt><trkpt lat="44.89105" lon="9.57174"><ele>204.0</ele><time>2026-04-11T12:18:53.939Z</time></trkpt><trkpt lat="44.8909433" lon="9.571595"><ele>202.5</ele><time>2026-04-11T12:18:54.938Z</time></trkpt><trkpt lat="44.8908417" lon="9.5714517"><ele>201.0</ele><time>2026-04-11T12:18:55.938Z</time></trkpt><trkpt lat="44.8907417" lon="9.57131"><ele>199.5</ele><time>2026-04-11T12:18:56.939Z</time></trkpt><trkpt lat="44.890645" lon="9.5711767"><ele>198.0</ele><time>2026-04-11T12:18:57.938Z</time></trkpt><trkpt lat="44.8905417" lon="9.571055"><ele>198.0</ele><time>2026-04-11T12:18:58.937Z</time></trkpt><trkpt lat="44.8904267" lon="9.5709567"><ele>198.0</ele><time>2026-04-11T12:18:59.939Z</time></trkpt><trkpt lat="44.8903017" lon="9.5708883"><ele>198.0</ele><time>2026-04-11T12:19:00.938Z</time></trkpt><trkpt lat="44.890175" lon="9.5708283"><ele>198.0</ele><time>2026-04-11T12:19:01.938Z</time></trkpt><trkpt lat="44.8900567" lon="9.5707467"><ele>196.25</ele><time>2026-04-11T12:19:02.939Z</time></trkpt><trkpt lat="44.88994" lon="9.57064"><ele>194.5</ele><time>2026-04-11T12:19:03.937Z</time></trkpt><trkpt lat="44.8898333" lon="9.570525"><ele>192.75</ele><time>2026-04-11T12:19:04.937Z</time></trkpt><trkpt lat="44.8897367" lon="9.5704017"><ele>191.0</ele><time>2026-04-11T12:19:05.939Z</time></trkpt><trkpt lat="44.88966" lon="9.570255"><ele>191.0</ele><time>2026-04-11T12:19:06.938Z</time></trkpt><trkpt lat="44.8896117" lon="9.5700783"><ele>191.0</ele><time>2026-04-11T12:19:07.943Z</time></trkpt><trkpt lat="44.889605" lon="9.5698867"><ele>191.0</ele><time>2026-04-11T12:19:08.939Z</time></trkpt><trkpt lat="44.8896433" lon="9.5697033"><ele>191.0</ele><time>2026-04-11T12:19:09.938Z</time></trkpt><trkpt lat="44.8897233" lon="9.56955"><ele>191.0</ele><time>2026-04-11T12:19:10.937Z</time></trkpt><trkpt lat="44.88982" lon="9.569415"><ele>191.0</ele><time>2026-04-11T12:19:11.938Z</time></trkpt><trkpt lat="44.88991" lon="9.5692733"><ele>191.0</ele><time>2026-04-11T12:19:12.944Z</time></trkpt><trkpt lat="44.8899783" lon="9.5691217"><ele>191.0</ele><time>2026-04-11T12:19:13.938Z</time></trkpt><trkpt lat="44.890015" lon="9.5689517"><ele>191.0</ele><time>2026-04-11T12:19:14.937Z</time></trkpt><trkpt lat="44.8900267" lon="9.56877"><ele>191.0</ele><time>2026-04-11T12:19:15.938Z</time></trkpt><trkpt lat="44.890025" lon="9.5685883"><ele>191.0</ele><time>2026-04-11T12:19:16.938Z</time></trkpt><trkpt lat="44.8900333" lon="9.56842"><ele>191.0</ele><time>2026-04-11T12:19:17.938Z</time></trkpt><trkpt lat="44.8900517" lon="9.5682633"><ele>191.0</ele><time>2026-04-11T12:19:18.938Z</time></trkpt><trkpt lat="44.8900717" lon="9.5680983"><ele>191.0</ele><time>2026-04-11T12:19:19.941Z</time></trkpt><trkpt lat="44.8900717" lon="9.5679283"><ele>191.0</ele><time>2026-04-11T12:19:20.938Z</time></trkpt><trkpt lat="44.8900567" lon="9.567765"><ele>191.0</ele><time>2026-04-11T12:19:21.937Z</time></trkpt><trkpt lat="44.8900367" lon="9.5676067"><ele>192.75</ele><time>2026-04-11T12:19:22.937Z</time></trkpt><trkpt lat="44.890015" lon="9.5674517"><ele>194.5</ele><time>2026-04-11T12:19:23.944Z</time></trkpt><trkpt lat="44.8900017" lon="9.5673"><ele>196.25</ele><time>2026-04-11T12:19:24.937Z</time></trkpt><trkpt lat="44.8899983" lon="9.5671383"><ele>198.0</ele><time>2026-04-11T12:19:25.938Z</time></trkpt><trkpt lat="44.89" lon="9.5669717"><ele>198.75</ele><time>2026-04-11T12:19:26.938Z</time></trkpt><trkpt lat="44.8900033" lon="9.5668067"><ele>199.5</ele><time>2026-04-11T12:19:27.937Z</time></trkpt><trkpt lat="44.8900067" lon="9.5666433"><ele>200.25</ele><time>2026-04-11T12:19:28.937Z</time></trkpt><trkpt lat="44.8899983" lon="9.5664833"><ele>201.0</ele><time>2026-04-11T12:19:29.938Z</time></trkpt><trkpt lat="44.8899667" lon="9.56634"><ele>201.0</ele><time>2026-04-11T12:19:30.937Z</time></trkpt><trkpt lat="44.8899083" lon="9.566215"><ele>201.0</ele><time>2026-04-11T12:19:31.938Z</time></trkpt><trkpt lat="44.8898167" lon="9.5661083"><ele>201.0</ele><time>2026-04-11T12:19:32.94Z</time></trkpt><trkpt lat="44.889705" lon="9.5660267"><ele>201.0</ele><time>2026-04-11T12:19:33.938Z</time></trkpt><trkpt lat="44.8895867" lon="9.5659667"><ele>201.20000000000002</ele><time>2026-04-11T12:19:34.937Z</time></trkpt><trkpt lat="44.8894767" lon="9.5659233"><ele>201.4</ele><time>2026-04-11T12:19:35.938Z</time></trkpt><trkpt lat="44.8893717" lon="9.5658833"><ele>201.6</ele><time>2026-04-11T12:19:36.938Z</time></trkpt><trkpt lat="44.8892683" lon="9.565845"><ele>201.8</ele><time>2026-04-11T12:19:37.937Z</time></trkpt><trkpt lat="44.8891717" lon="9.5658083"><ele>202.0</ele><time>2026-04-11T12:19:38.939Z</time></trkpt><trkpt lat="44.8890817" lon="9.5657733"><ele>200.83333333333331</ele><time>2026-04-11T12:19:39.938Z</time></trkpt><trkpt lat="44.8889967" lon="9.5657383"><ele>199.66666666666666</ele><time>2026-04-11T12:19:40.937Z</time></trkpt><trkpt lat="44.8889267" lon="9.5657083"><ele>198.5</ele><time>2026-04-11T12:19:41.937Z</time></trkpt><trkpt lat="44.888865" lon="9.5656817"><ele>197.33333333333331</ele><time>2026-04-11T12:19:42.938Z</time></trkpt><trkpt lat="44.8887633" lon="9.5656367"><ele>196.16666666666666</ele><time>2026-04-11T12:19:44.937Z</time></trkpt><trkpt lat="44.8886617" lon="9.5655883"><ele>195.0</ele><time>2026-04-11T12:19:46.937Z</time></trkpt><trkpt lat="44.8885733" lon="9.5655267"><ele>195.0</ele><time>2026-04-11T12:19:48.944Z</time></trkpt><trkpt lat="44.88856" lon="9.5654067"><ele>195.0</ele><time>2026-04-11T12:19:51.937Z</time></trkpt><trkpt lat="44.88862" lon="9.5653017"><ele>195.0</ele><time>2026-04-11T12:19:53.937Z</time></trkpt><trkpt lat="44.88866" lon="9.5652317"><ele>195.0</ele><time>2026-04-11T12:19:54.938Z</time></trkpt><trkpt lat="44.8887033" lon="9.5651433"><ele>195.0</ele><time>2026-04-11T12:19:55.943Z</time></trkpt><trkpt lat="44.8887417" lon="9.56505"><ele>195.0</ele><time>2026-04-11T12:19:56.938Z</time></trkpt><trkpt lat="44.8887817" lon="9.5649517"><ele>195.83333333333334</ele><time>2026-04-11T12:19:57.938Z</time></trkpt><trkpt lat="44.888825" lon="9.564855"><ele>196.66666666666669</ele><time>2026-04-11T12:19:58.937Z</time></trkpt><trkpt lat="44.8888683" lon="9.564765"><ele>197.5</ele><time>2026-04-11T12:19:59.938Z</time></trkpt><trkpt lat="44.8889133" lon="9.56468"><ele>198.33333333333334</ele><time>2026-04-11T12:20:00.938Z</time></trkpt><trkpt lat="44.8889617" lon="9.5646017"><ele>199.16666666666669</ele><time>2026-04-11T12:20:01.938Z</time></trkpt><trkpt lat="44.8890133" lon="9.5645333"><ele>200.0</ele><time>2026-04-11T12:20:02.938Z</time></trkpt><trkpt lat="44.889075" lon="9.5644683"><ele>200.66666666666669</ele><time>2026-04-11T12:20:03.937Z</time></trkpt><trkpt lat="44.88914" lon="9.5644083"><ele>201.33333333333334</ele><time>2026-04-11T12:20:04.938Z</time></trkpt><trkpt lat="44.88921" lon="9.5643533"><ele>202.0</ele><time>2026-04-11T12:20:05.937Z</time></trkpt><trkpt lat="44.8892833" lon="9.564295"><ele>202.66666666666669</ele><time>2026-04-11T12:20:06.937Z</time></trkpt><trkpt lat="44.8893517" lon="9.56424"><ele>203.33333333333334</ele><time>2026-04-11T12:20:07.937Z</time></trkpt><trkpt lat="44.8894217" lon="9.5641867"><ele>204.0</ele><time>2026-04-11T12:20:08.938Z</time></trkpt><trkpt lat="44.8894883" lon="9.564135"><ele>205.33333333333334</ele><time>2026-04-11T12:20:09.938Z</time></trkpt><trkpt lat="44.8895483" lon="9.564085"><ele>206.66666666666669</ele><time>2026-04-11T12:20:10.938Z</time></trkpt><trkpt lat="44.8896033" lon="9.5640333"><ele>208.0</ele><time>2026-04-11T12:20:11.941Z</time></trkpt><trkpt lat="44.889715" lon="9.5639267"><ele>209.33333333333334</ele><time>2026-04-11T12:20:13.939Z</time></trkpt><trkpt lat="44.88978" lon="9.563855"><ele>210.66666666666669</ele><time>2026-04-11T12:20:14.938Z</time></trkpt><trkpt lat="44.889845" lon="9.56378"><ele>212.0</ele><time>2026-04-11T12:20:15.938Z</time></trkpt><trkpt lat="44.88991" lon="9.5637117"><ele>213.33333333333334</ele><time>2026-04-11T12:20:16.937Z</time></trkpt><trkpt lat="44.8899717" lon="9.563645"><ele>214.66666666666669</ele><time>2026-04-11T12:20:17.937Z</time></trkpt><trkpt lat="44.8900283" lon="9.563575"><ele>216.0</ele><time>2026-04-11T12:20:18.937Z</time></trkpt><trkpt lat="44.8900733" lon="9.5635"><ele>217.33333333333331</ele><time>2026-04-11T12:20:19.938Z</time></trkpt><trkpt lat="44.890095" lon="9.5634133"><ele>218.66666666666666</ele><time>2026-04-11T12:20:20.938Z</time></trkpt><trkpt lat="44.8900883" lon="9.5633217"><ele>220.0</ele><time>2026-04-11T12:20:21.946Z</time></trkpt><trkpt lat="44.8900017" lon="9.5632033"><ele>219.99999999999997</ele><time>2026-04-11T12:20:23.937Z</time></trkpt><trkpt lat="44.8899217" lon="9.5631783"><ele>220.0</ele><time>2026-04-11T12:20:24.937Z</time></trkpt><trkpt lat="44.8898533" lon="9.5631533"><ele>220.0</ele><time>2026-04-11T12:20:25.938Z</time></trkpt><trkpt lat="44.8897883" lon="9.5631283"><ele>220.0</ele><time>2026-04-11T12:20:26.939Z</time></trkpt><trkpt lat="44.8897183" lon="9.563095"><ele>220.0</ele><time>2026-04-11T12:20:27.941Z</time></trkpt><trkpt lat="44.8896467" lon="9.5630617"><ele>219.99999999999997</ele><time>2026-04-11T12:20:28.939Z</time></trkpt><trkpt lat="44.8895733" lon="9.56304"><ele>220.0</ele><time>2026-04-11T12:20:29.938Z</time></trkpt><trkpt lat="44.8894983" lon="9.5630183"><ele>219.99999999999997</ele><time>2026-04-11T12:20:30.938Z</time></trkpt><trkpt lat="44.8894217" lon="9.5629983"><ele>220.0</ele><time>2026-04-11T12:20:31.937Z</time></trkpt><trkpt lat="44.8893517" lon="9.5629717"><ele>220.0</ele><time>2026-04-11T12:20:32.938Z</time></trkpt><trkpt lat="44.8892867" lon="9.5629367"><ele>220.0</ele><time>2026-04-11T12:20:33.939Z</time></trkpt><trkpt lat="44.8892267" lon="9.5628817"><ele>220.0</ele><time>2026-04-11T12:20:34.939Z</time></trkpt><trkpt lat="44.8891717" lon="9.562815"><ele>219.99999999999997</ele><time>2026-04-11T12:20:35.941Z</time></trkpt><trkpt lat="44.8891167" lon="9.5627467"><ele>220.0</ele><time>2026-04-11T12:20:36.937Z</time></trkpt><trkpt lat="44.8890633" lon="9.56268"><ele>221.83333333333331</ele><time>2026-04-11T12:20:37.937Z</time></trkpt><trkpt lat="44.8890167" lon="9.5626033"><ele>223.66666666666666</ele><time>2026-04-11T12:20:38.937Z</time></trkpt><trkpt lat="44.8889767" lon="9.56252"><ele>225.5</ele><time>2026-04-11T12:20:39.937Z</time></trkpt><trkpt lat="44.8889483" lon="9.562435"><ele>227.33333333333331</ele><time>2026-04-11T12:20:40.937Z</time></trkpt><trkpt lat="44.8889433" lon="9.562275"><ele>229.16666666666666</ele><time>2026-04-11T12:20:42.937Z</time></trkpt><trkpt lat="44.8889683" lon="9.562135"><ele>231.0</ele><time>2026-04-11T12:20:44.937Z</time></trkpt><trkpt lat="44.8890117" lon="9.5620433"><ele>231.0</ele><time>2026-04-11T12:20:46.937Z</time></trkpt><trkpt lat="44.8890733" lon="9.5620767"><ele>231.00000000000003</ele><time>2026-04-11T12:20:50.941Z</time></trkpt><trkpt lat="44.889075" lon="9.5622"><ele>231.00000000000003</ele><time>2026-04-11T12:20:52.937Z</time></trkpt><trkpt lat="44.889115" lon="9.562335"><ele>231.0</ele><time>2026-04-11T12:20:54.937Z</time></trkpt><trkpt lat="44.88922" lon="9.5624267"><ele>231.0</ele><time>2026-04-11T12:20:56.942Z</time></trkpt><trkpt lat="44.889285" lon="9.5624667"><ele>231.66666666666666</ele><time>2026-04-11T12:20:57.937Z</time></trkpt><trkpt lat="44.8893533" lon="9.5625083"><ele>232.33333333333331</ele><time>2026-04-11T12:20:58.936Z</time></trkpt><trkpt lat="44.889425" lon="9.5625417"><ele>233.0</ele><time>2026-04-11T12:20:59.937Z</time></trkpt><trkpt lat="44.8895017" lon="9.5625633"><ele>233.66666666666666</ele><time>2026-04-11T12:21:00.937Z</time></trkpt><trkpt lat="44.8895783" lon="9.5625633"><ele>234.33333333333331</ele><time>2026-04-11T12:21:01.936Z</time></trkpt><trkpt lat="44.889645" lon="9.562545"><ele>235.0</ele><time>2026-04-11T12:21:02.937Z</time></trkpt><trkpt lat="44.889745" lon="9.5624517"><ele>235.0</ele><time>2026-04-11T12:21:04.937Z</time></trkpt><trkpt lat="44.8898167" lon="9.56232"><ele>235.0</ele><time>2026-04-11T12:21:06.939Z</time></trkpt><trkpt lat="44.8898433" lon="9.56213"><ele>235.0</ele><time>2026-04-11T12:21:08.938Z</time></trkpt><trkpt lat="44.8898367" lon="9.5620183"><ele>235.0</ele><time>2026-04-11T12:21:09.936Z</time></trkpt><trkpt lat="44.8898083" lon="9.5619117"><ele>235.0</ele><time>2026-04-11T12:21:10.937Z</time></trkpt><trkpt lat="44.88976" lon="9.5618167"><ele>237.42857142857142</ele><time>2026-04-11T12:21:11.947Z</time></trkpt><trkpt lat="44.8897117" lon="9.5617317"><ele>239.85714285714283</ele><time>2026-04-11T12:21:12.937Z</time></trkpt><trkpt lat="44.8896667" lon="9.561645"><ele>242.28571428571428</ele><time>2026-04-11T12:21:13.938Z</time></trkpt><trkpt lat="44.8896317" lon="9.5615617"><ele>244.71428571428572</ele><time>2026-04-11T12:21:14.937Z</time></trkpt><trkpt lat="44.889605" lon="9.5614633"><ele>247.14285714285714</ele><time>2026-04-11T12:21:15.937Z</time></trkpt><trkpt lat="44.889575" lon="9.5613667"><ele>249.57142857142856</ele><time>2026-04-11T12:21:16.937Z</time></trkpt><trkpt lat="44.8895317" lon="9.5612867"><ele>252.0</ele><time>2026-04-11T12:21:17.937Z</time></trkpt><trkpt lat="44.8894833" lon="9.561225"><ele>252.0</ele><time>2026-04-11T12:21:18.937Z</time></trkpt><trkpt lat="44.889385" lon="9.561235"><ele>252.0</ele><time>2026-04-11T12:21:20.939Z</time></trkpt><trkpt lat="44.889285" lon="9.56127"><ele>252.0</ele><time>2026-04-11T12:21:22.936Z</time></trkpt><trkpt lat="44.88922" lon="9.5612583"><ele>252.0</ele><time>2026-04-11T12:21:23.938Z</time></trkpt><trkpt lat="44.8891133" lon="9.5612083"><ele>252.0</ele><time>2026-04-11T12:21:25.936Z</time></trkpt><trkpt lat="44.8890683" lon="9.5611167"><ele>255.5</ele><time>2026-04-11T12:21:27.937Z</time></trkpt><trkpt lat="44.8891017" lon="9.56102"><ele>259.0</ele><time>2026-04-11T12:21:29.936Z</time></trkpt><trkpt lat="44.889175" lon="9.5610483"><ele>262.5</ele><time>2026-04-11T12:21:31.939Z</time></trkpt><trkpt lat="44.889275" lon="9.56112"><ele>266.0</ele><time>2026-04-11T12:21:33.937Z</time></trkpt><trkpt lat="44.8893767" lon="9.561095"><ele>269.5</ele><time>2026-04-11T12:21:35.939Z</time></trkpt><trkpt lat="44.8894383" lon="9.5610417"><ele>273.0</ele><time>2026-04-11T12:21:36.937Z</time></trkpt><trkpt lat="44.889505" lon="9.561005"><ele>273.5</ele><time>2026-04-11T12:21:37.938Z</time></trkpt><trkpt lat="44.889575" lon="9.5609767"><ele>274.0</ele><time>2026-04-11T12:21:38.946Z</time></trkpt><trkpt lat="44.88964" lon="9.5609533"><ele>274.5</ele><time>2026-04-11T12:21:39.937Z</time></trkpt><trkpt lat="44.8897083" lon="9.5609433"><ele>275.0</ele><time>2026-04-11T12:21:40.937Z</time></trkpt><trkpt lat="44.88983" lon="9.56096"><ele>275.5</ele><time>2026-04-11T12:21:42.938Z</time></trkpt><trkpt lat="44.8898983" lon="9.560975"><ele>276.0</ele><time>2026-04-11T12:21:43.939Z</time></trkpt><trkpt lat="44.8899733" lon="9.5609867"><ele>276.0</ele><time>2026-04-11T12:21:44.937Z</time></trkpt><trkpt lat="44.8900583" lon="9.561015"><ele>276.0</ele><time>2026-04-11T12:21:45.938Z</time></trkpt><trkpt lat="44.8901383" lon="9.561035"><ele>276.0</ele><time>2026-04-11T12:21:46.938Z</time></trkpt><trkpt lat="44.8902083" lon="9.5610533"><ele>276.0</ele><time>2026-04-11T12:21:47.937Z</time></trkpt><trkpt lat="44.890275" lon="9.56107"><ele>276.0</ele><time>2026-04-11T12:21:48.937Z</time></trkpt><trkpt lat="44.89034" lon="9.561085"><ele>276.0</ele><time>2026-04-11T12:21:49.938Z</time></trkpt><trkpt lat="44.8904083" lon="9.5611"><ele>276.0</ele><time>2026-04-11T12:21:50.94Z</time></trkpt><trkpt lat="44.890475" lon="9.5611033"><ele>276.6666666666667</ele><time>2026-04-11T12:21:51.936Z</time></trkpt><trkpt lat="44.8905433" lon="9.5610817"><ele>277.3333333333333</ele><time>2026-04-11T12:21:52.937Z</time></trkpt><trkpt lat="44.89061" lon="9.5610483"><ele>278.0</ele><time>2026-04-11T12:21:53.938Z</time></trkpt><trkpt lat="44.8906733" lon="9.56099"><ele>278.66666666666663</ele><time>2026-04-11T12:21:54.937Z</time></trkpt><trkpt lat="44.8907383" lon="9.5609167"><ele>279.3333333333333</ele><time>2026-04-11T12:21:55.938Z</time></trkpt><trkpt lat="44.8907933" lon="9.5608367"><ele>280.0</ele><time>2026-04-11T12:21:56.937Z</time></trkpt><trkpt lat="44.8908567" lon="9.5607617"><ele>281.5</ele><time>2026-04-11T12:21:57.938Z</time></trkpt><trkpt lat="44.89093" lon="9.560705"><ele>283.0</ele><time>2026-04-11T12:21:58.936Z</time></trkpt><trkpt lat="44.8910167" lon="9.5606633"><ele>284.5</ele><time>2026-04-11T12:21:59.936Z</time></trkpt><trkpt lat="44.8910983" lon="9.5606267"><ele>286.0</ele><time>2026-04-11T12:22:00.937Z</time></trkpt><trkpt lat="44.8911817" lon="9.5605917"><ele>287.5</ele><time>2026-04-11T12:22:01.937Z</time></trkpt><trkpt lat="44.8912617" lon="9.56057"><ele>289.0</ele><time>2026-04-11T12:22:02.938Z</time></trkpt><trkpt lat="44.89134" lon="9.5605683"><ele>289.0</ele><time>2026-04-11T12:22:03.938Z</time></trkpt><trkpt lat="44.8914117" lon="9.5605917"><ele>289.0</ele><time>2026-04-11T12:22:04.936Z</time></trkpt><trkpt lat="44.8914783" lon="9.5606333"><ele>289.0</ele><time>2026-04-11T12:22:05.938Z</time></trkpt><trkpt lat="44.8915433" lon="9.560695"><ele>289.0</ele><time>2026-04-11T12:22:06.937Z</time></trkpt><trkpt lat="44.8916017" lon="9.5607667"><ele>289.0</ele><time>2026-04-11T12:22:07.943Z</time></trkpt><trkpt lat="44.8916483" lon="9.5608467"><ele>289.0</ele><time>2026-04-11T12:22:08.938Z</time></trkpt><trkpt lat="44.8916883" lon="9.560925"><ele>289.0</ele><time>2026-04-11T12:22:09.937Z</time></trkpt><trkpt lat="44.8917583" lon="9.5610117"><ele>289.0</ele><time>2026-04-11T12:22:11.939Z</time></trkpt><trkpt lat="44.89183" lon="9.5609583"><ele>289.0</ele><time>2026-04-11T12:22:13.942Z</time></trkpt><trkpt lat="44.8918333" lon="9.56081"><ele>289.0</ele><time>2026-04-11T12:22:15.937Z</time></trkpt><trkpt lat="44.8918433" lon="9.5606283"><ele>289.0</ele><time>2026-04-11T12:22:17.938Z</time></trkpt><trkpt lat="44.89183" lon="9.56054"><ele>289.0</ele><time>2026-04-11T12:22:18.937Z</time></trkpt><trkpt lat="44.891795" lon="9.5604583"><ele>289.0</ele><time>2026-04-11T12:22:19.937Z</time></trkpt><trkpt lat="44.89175" lon="9.5603883"><ele>293.2</ele><time>2026-04-11T12:22:20.939Z</time></trkpt><trkpt lat="44.8917033" lon="9.5603283"><ele>297.4</ele><time>2026-04-11T12:22:21.938Z</time></trkpt><trkpt lat="44.8916333" lon="9.5602083"><ele>301.6</ele><time>2026-04-11T12:22:23.937Z</time></trkpt><trkpt lat="44.8915517" lon="9.5600517"><ele>305.8</ele><time>2026-04-11T12:22:25.937Z</time></trkpt><trkpt lat="44.8914883" lon="9.5599633"><ele>310.0</ele><time>2026-04-11T12:22:26.937Z</time></trkpt><trkpt lat="44.8914067" lon="9.5598767"><ele>310.0</ele><time>2026-04-11T12:22:27.937Z</time></trkpt><trkpt lat="44.8913267" lon="9.5598133"><ele>310.0</ele><time>2026-04-11T12:22:28.936Z</time></trkpt><trkpt lat="44.891255" lon="9.5597683"><ele>310.0</ele><time>2026-04-11T12:22:29.945Z</time></trkpt><trkpt lat="44.89118" lon="9.5597617"><ele>310.0</ele><time>2026-04-11T12:22:30.936Z</time></trkpt><trkpt lat="44.8911067" lon="9.5597783"><ele>310.0</ele><time>2026-04-11T12:22:31.938Z</time></trkpt><trkpt lat="44.8910367" lon="9.5598283"><ele>310.0</ele><time>2026-04-11T12:22:32.937Z</time></trkpt><trkpt lat="44.890975" lon="9.5598967"><ele>309.14285714285717</ele><time>2026-04-11T12:22:33.937Z</time></trkpt><trkpt lat="44.890915" lon="9.55995"><ele>308.2857142857143</ele><time>2026-04-11T12:22:34.937Z</time></trkpt><trkpt lat="44.8908517" lon="9.55998"><ele>307.42857142857144</ele><time>2026-04-11T12:22:35.936Z</time></trkpt><trkpt lat="44.89078" lon="9.5599967"><ele>306.57142857142856</ele><time>2026-04-11T12:22:36.936Z</time></trkpt><trkpt lat="44.890705" lon="9.56001"><ele>305.7142857142857</ele><time>2026-04-11T12:22:37.937Z</time></trkpt><trkpt lat="44.8906333" lon="9.56001"><ele>304.85714285714283</ele><time>2026-04-11T12:22:38.937Z</time></trkpt><trkpt lat="44.8905533" lon="9.5599917"><ele>304.0</ele><time>2026-04-11T12:22:39.94Z</time></trkpt><trkpt lat="44.8904767" lon="9.5599517"><ele>304.0</ele><time>2026-04-11T12:22:40.939Z</time></trkpt><trkpt lat="44.89041" lon="9.559885"><ele>304.0</ele><time>2026-04-11T12:22:41.937Z</time></trkpt><trkpt lat="44.890345" lon="9.559795"><ele>304.0</ele><time>2026-04-11T12:22:42.937Z</time></trkpt><trkpt lat="44.89028" lon="9.5597033"><ele>304.0</ele><time>2026-04-11T12:22:43.937Z</time></trkpt><trkpt lat="44.8902033" lon="9.5596317"><ele>304.0</ele><time>2026-04-11T12:22:44.949Z</time></trkpt><trkpt lat="44.890115" lon="9.5595883"><ele>303.59999999999997</ele><time>2026-04-11T12:22:45.937Z</time></trkpt><trkpt lat="44.8900267" lon="9.55957"><ele>303.2</ele><time>2026-04-11T12:22:46.938Z</time></trkpt><trkpt lat="44.8899383" lon="9.5595533"><ele>302.79999999999995</ele><time>2026-04-11T12:22:47.939Z</time></trkpt><trkpt lat="44.8898617" lon="9.559535"><ele>302.4</ele><time>2026-04-11T12:22:48.939Z</time></trkpt><trkpt lat="44.8897983" lon="9.5595067"><ele>302.0</ele><time>2026-04-11T12:22:49.94Z</time></trkpt><trkpt lat="44.8896833" lon="9.5594283"><ele>306.5</ele><time>2026-04-11T12:22:51.939Z</time></trkpt><trkpt lat="44.8896233" lon="9.5593917"><ele>311.0</ele><time>2026-04-11T12:22:52.938Z</time></trkpt><trkpt lat="44.88956" lon="9.5593583"><ele>315.5</ele><time>2026-04-11T12:22:53.939Z</time></trkpt><trkpt lat="44.889475" lon="9.5593583"><ele>320.0</ele><time>2026-04-11T12:22:54.937Z</time></trkpt><trkpt lat="44.88939" lon="9.559365"><ele>324.5</ele><time>2026-04-11T12:22:55.938Z</time></trkpt><trkpt lat="44.8893033" lon="9.5593733"><ele>329.0</ele><time>2026-04-11T12:22:56.938Z</time></trkpt><trkpt lat="44.88923" lon="9.5593667"><ele>329.4</ele><time>2026-04-11T12:22:57.937Z</time></trkpt><trkpt lat="44.889115" lon="9.559265"><ele>329.79999999999995</ele><time>2026-04-11T12:22:59.937Z</time></trkpt><trkpt lat="44.8890417" lon="9.5592167"><ele>330.20000000000005</ele><time>2026-04-11T12:23:00.94Z</time></trkpt><trkpt lat="44.8889567" lon="9.5591883"><ele>330.6</ele><time>2026-04-11T12:23:01.937Z</time></trkpt><trkpt lat="44.88887" lon="9.559195"><ele>331.0</ele><time>2026-04-11T12:23:02.938Z</time></trkpt><trkpt lat="44.8887867" lon="9.55921"><ele>331.0</ele><time>2026-04-11T12:23:03.936Z</time></trkpt><trkpt lat="44.8887017" lon="9.5592067"><ele>331.0</ele><time>2026-04-11T12:23:04.937Z</time></trkpt><trkpt lat="44.8886183" lon="9.5591867"><ele>331.0</ele><time>2026-04-11T12:23:05.937Z</time></trkpt><trkpt lat="44.8885383" lon="9.559155"><ele>331.0</ele><time>2026-04-11T12:23:06.937Z</time></trkpt><trkpt lat="44.8884633" lon="9.5591"><ele>331.0</ele><time>2026-04-11T12:23:07.938Z</time></trkpt><trkpt lat="44.8884" lon="9.55904"><ele>331.0</ele><time>2026-04-11T12:23:08.937Z</time></trkpt><trkpt lat="44.888335" lon="9.5589883"><ele>331.16666666666663</ele><time>2026-04-11T12:23:09.937Z</time></trkpt><trkpt lat="44.8882667" lon="9.5589633"><ele>331.3333333333333</ele><time>2026-04-11T12:23:10.937Z</time></trkpt><trkpt lat="44.8881933" lon="9.55898"><ele>331.5</ele><time>2026-04-11T12:23:11.938Z</time></trkpt><trkpt lat="44.8881217" lon="9.5590033"><ele>331.6666666666667</ele><time>2026-04-11T12:23:12.937Z</time></trkpt><trkpt lat="44.8880433" lon="9.5590233"><ele>331.83333333333337</ele><time>2026-04-11T12:23:13.937Z</time></trkpt><trkpt lat="44.8879683" lon="9.5590233"><ele>332.0</ele><time>2026-04-11T12:23:14.938Z</time></trkpt><trkpt lat="44.8878783" lon="9.55901"><ele>332.0</ele><time>2026-04-11T12:23:15.943Z</time></trkpt><trkpt lat="44.887795" lon="9.5589883"><ele>332.0</ele><time>2026-04-11T12:23:16.937Z</time></trkpt><trkpt lat="44.887695" lon="9.5589583"><ele>332.0</ele><time>2026-04-11T12:23:17.937Z</time></trkpt><trkpt lat="44.8875767" lon="9.5589317"><ele>332.0</ele><time>2026-04-11T12:23:18.937Z</time></trkpt><trkpt lat="44.88747" lon="9.558915"><ele>332.0</ele><time>2026-04-11T12:23:19.938Z</time></trkpt><trkpt lat="44.8873467" lon="9.5589"><ele>332.0</ele><time>2026-04-11T12:23:20.937Z</time></trkpt><trkpt lat="44.88725" lon="9.558895"><ele>332.0</ele><time>2026-04-11T12:23:21.944Z</time></trkpt><trkpt lat="44.88713" lon="9.5588933"><ele>332.0</ele><time>2026-04-11T12:23:22.939Z</time></trkpt><trkpt lat="44.88704" lon="9.5589067"><ele>332.0</ele><time>2026-04-11T12:23:23.938Z</time></trkpt><trkpt lat="44.886975" lon="9.5589283"><ele>332.0</ele><time>2026-04-11T12:23:24.943Z</time></trkpt><trkpt lat="44.8869117" lon="9.5589417"><ele>332.0</ele><time>2026-04-11T12:23:25.938Z</time></trkpt><trkpt lat="44.8868467" lon="9.5589433"><ele>333.20000000000005</ele><time>2026-04-11T12:23:26.943Z</time></trkpt><trkpt lat="44.8867283" lon="9.5588883"><ele>334.4</ele><time>2026-04-11T12:23:28.94Z</time></trkpt><trkpt lat="44.8866533" lon="9.558825"><ele>335.6</ele><time>2026-04-11T12:23:29.939Z</time></trkpt><trkpt lat="44.8865683" lon="9.558755"><ele>336.79999999999995</ele><time>2026-04-11T12:23:30.937Z</time></trkpt><trkpt lat="44.8864733" lon="9.558695"><ele>338.0</ele><time>2026-04-11T12:23:31.939Z</time></trkpt><trkpt lat="44.8863883" lon="9.55866"><ele>338.0</ele><time>2026-04-11T12:23:32.94Z</time></trkpt><trkpt lat="44.8863167" lon="9.558665"><ele>338.0</ele><time>2026-04-11T12:23:33.942Z</time></trkpt><trkpt lat="44.88625" lon="9.5586867"><ele>338.0</ele><time>2026-04-11T12:23:34.937Z</time></trkpt><trkpt lat="44.8861417" lon="9.5587317"><ele>338.0</ele><time>2026-04-11T12:23:36.938Z</time></trkpt><trkpt lat="44.88603" lon="9.5587033"><ele>338.0</ele><time>2026-04-11T12:23:38.939Z</time></trkpt><trkpt lat="44.88597" lon="9.5586567"><ele>338.0</ele><time>2026-04-11T12:23:39.941Z</time></trkpt><trkpt lat="44.885915" lon="9.55861"><ele>342.2</ele><time>2026-04-11T12:23:40.937Z</time></trkpt><trkpt lat="44.8858367" lon="9.5585117"><ele>346.4</ele><time>2026-04-11T12:23:42.937Z</time></trkpt><trkpt lat="44.8858283" lon="9.55841"><ele>350.59999999999997</ele><time>2026-04-11T12:23:45.943Z</time></trkpt><trkpt lat="44.8859083" lon="9.5584383"><ele>354.79999999999995</ele><time>2026-04-11T12:23:48.938Z</time></trkpt><trkpt lat="44.8859883" lon="9.55852"><ele>359.0</ele><time>2026-04-11T12:23:50.937Z</time></trkpt><trkpt lat="44.8860867" lon="9.55852"><ele>360.33333333333337</ele><time>2026-04-11T12:23:52.937Z</time></trkpt><trkpt lat="44.886145" lon="9.558485"><ele>361.6666666666667</ele><time>2026-04-11T12:23:53.938Z</time></trkpt><trkpt lat="44.8862167" lon="9.5584233"><ele>363.0</ele><time>2026-04-11T12:23:54.941Z</time></trkpt><trkpt lat="44.8862883" lon="9.5583483"><ele>364.3333333333333</ele><time>2026-04-11T12:23:55.937Z</time></trkpt><trkpt lat="44.8863683" lon="9.5582717"><ele>365.66666666666663</ele><time>2026-04-11T12:23:56.937Z</time></trkpt><trkpt lat="44.886445" lon="9.5582033"><ele>367.0</ele><time>2026-04-11T12:23:57.937Z</time></trkpt><trkpt lat="44.88652" lon="9.5581467"><ele>367.0</ele><time>2026-04-11T12:23:58.937Z</time></trkpt><trkpt lat="44.8865917" lon="9.5580933"><ele>367.0</ele><time>2026-04-11T12:23:59.938Z</time></trkpt><trkpt lat="44.88666" lon="9.558045"><ele>367.0</ele><time>2026-04-11T12:24:00.937Z</time></trkpt><trkpt lat="44.8867267" lon="9.558"><ele>367.0</ele><time>2026-04-11T12:24:01.945Z</time></trkpt><trkpt lat="44.8867933" lon="9.55796"><ele>367.0</ele><time>2026-04-11T12:24:02.939Z</time></trkpt><trkpt lat="44.886865" lon="9.5579317"><ele>367.0</ele><time>2026-04-11T12:24:03.938Z</time></trkpt><trkpt lat="44.8869317" lon="9.5579217"><ele>367.0</ele><time>2026-04-11T12:24:04.938Z</time></trkpt><trkpt lat="44.886995" lon="9.55792"><ele>368.16666666666663</ele><time>2026-04-11T12:24:05.937Z</time></trkpt><trkpt lat="44.8870933" lon="9.5578817"><ele>369.3333333333333</ele><time>2026-04-11T12:24:07.938Z</time></trkpt><trkpt lat="44.8870917" lon="9.557785"><ele>370.5</ele><time>2026-04-11T12:24:09.938Z</time></trkpt><trkpt lat="44.8870067" lon="9.5577417"><ele>371.6666666666667</ele><time>2026-04-11T12:24:11.937Z</time></trkpt><trkpt lat="44.88694" lon="9.5577417"><ele>372.83333333333337</ele><time>2026-04-11T12:24:12.937Z</time></trkpt><trkpt lat="44.886875" lon="9.5577433"><ele>374.0</ele><time>2026-04-11T12:24:13.937Z</time></trkpt><trkpt lat="44.8868133" lon="9.5577633"><ele>373.0</ele><time>2026-04-11T12:24:14.941Z</time></trkpt><trkpt lat="44.886755" lon="9.557805"><ele>372.0</ele><time>2026-04-11T12:24:15.937Z</time></trkpt><trkpt lat="44.8866967" lon="9.5578517"><ele>371.0</ele><time>2026-04-11T12:24:16.937Z</time></trkpt><trkpt lat="44.8866367" lon="9.5579033"><ele>370.0</ele><time>2026-04-11T12:24:17.937Z</time></trkpt><trkpt lat="44.8865733" lon="9.5579483"><ele>369.0</ele><time>2026-04-11T12:24:18.937Z</time></trkpt><trkpt lat="44.8865083" lon="9.5579917"><ele>368.0</ele><time>2026-04-11T12:24:19.938Z</time></trkpt><trkpt lat="44.88643" lon="9.558025"><ele>367.0</ele><time>2026-04-11T12:24:20.938Z</time></trkpt><trkpt lat="44.88634" lon="9.5580517"><ele>367.0</ele><time>2026-04-11T12:24:21.942Z</time></trkpt><trkpt lat="44.8862517" lon="9.5580667"><ele>367.0</ele><time>2026-04-11T12:24:22.937Z</time></trkpt><trkpt lat="44.886165" lon="9.5580667"><ele>367.0</ele><time>2026-04-11T12:24:23.938Z</time></trkpt><trkpt lat="44.886095" lon="9.558055"><ele>367.0</ele><time>2026-04-11T12:24:24.937Z</time></trkpt><trkpt lat="44.886" lon="9.5579967"><ele>367.0</ele><time>2026-04-11T12:24:26.938Z</time></trkpt><trkpt lat="44.8858983" lon="9.55784"><ele>371.6</ele><time>2026-04-11T12:24:28.937Z</time></trkpt><trkpt lat="44.88584" lon="9.557735"><ele>376.20000000000005</ele><time>2026-04-11T12:24:29.937Z</time></trkpt><trkpt lat="44.88578" lon="9.5576233"><ele>380.8</ele><time>2026-04-11T12:24:30.938Z</time></trkpt><trkpt lat="44.8857217" lon="9.5575083"><ele>385.4</ele><time>2026-04-11T12:24:31.939Z</time></trkpt><trkpt lat="44.8856667" lon="9.5574083"><ele>390.0</ele><time>2026-04-11T12:24:32.938Z</time></trkpt><trkpt lat="44.885605" lon="9.5573233"><ele>390.0</ele><time>2026-04-11T12:24:33.938Z</time></trkpt><trkpt lat="44.8855433" lon="9.5572533"><ele>390.0</ele><time>2026-04-11T12:24:34.937Z</time></trkpt><trkpt lat="44.885485" lon="9.5572"><ele>390.0</ele><time>2026-04-11T12:24:35.937Z</time></trkpt><trkpt lat="44.88543" lon="9.5571417"><ele>390.0</ele><time>2026-04-11T12:24:36.939Z</time></trkpt><trkpt lat="44.8853833" lon="9.55701"><ele>390.0</ele><time>2026-04-11T12:24:38.941Z</time></trkpt><trkpt lat="44.88539" lon="9.5569067"><ele>390.0</ele><time>2026-04-11T12:24:39.937Z</time></trkpt><trkpt lat="44.88541" lon="9.5567867"><ele>394.0</ele><time>2026-04-11T12:24:40.937Z</time></trkpt><trkpt lat="44.88544" lon="9.556655"><ele>398.0</ele><time>2026-04-11T12:24:41.94Z</time></trkpt><trkpt lat="44.88547" lon="9.55652"><ele>402.0</ele><time>2026-04-11T12:24:42.937Z</time></trkpt><trkpt lat="44.8854867" lon="9.5564017"><ele>406.0</ele><time>2026-04-11T12:24:43.937Z</time></trkpt><trkpt lat="44.885485" lon="9.5562933"><ele>410.0</ele><time>2026-04-11T12:24:44.937Z</time></trkpt><trkpt lat="44.8854667" lon="9.5561983"><ele>414.0</ele><time>2026-04-11T12:24:45.938Z</time></trkpt><trkpt lat="44.885425" lon="9.5561317"><ele>411.8333333333333</ele><time>2026-04-11T12:24:46.938Z</time></trkpt><trkpt lat="44.8853483" lon="9.556075"><ele>409.66666666666663</ele><time>2026-04-11T12:24:47.937Z</time></trkpt><trkpt lat="44.8852683" lon="9.55601"><ele>407.5</ele><time>2026-04-11T12:24:48.938Z</time></trkpt><trkpt lat="44.8851917" lon="9.5559317"><ele>405.3333333333333</ele><time>2026-04-11T12:24:49.94Z</time></trkpt><trkpt lat="44.8851217" lon="9.5558517"><ele>403.16666666666663</ele><time>2026-04-11T12:24:50.938Z</time></trkpt><trkpt lat="44.8850583" lon="9.555775"><ele>401.0</ele><time>2026-04-11T12:24:51.937Z</time></trkpt><trkpt lat="44.8850017" lon="9.5556967"><ele>400.99999999999994</ele><time>2026-04-11T12:24:52.938Z</time></trkpt><trkpt lat="44.8849567" lon="9.5556133"><ele>401.0</ele><time>2026-04-11T12:24:53.937Z</time></trkpt><trkpt lat="44.8849217" lon="9.5555383"><ele>401.0</ele><time>2026-04-11T12:24:54.942Z</time></trkpt><trkpt lat="44.884885" lon="9.555375"><ele>401.0</ele><time>2026-04-11T12:24:56.939Z</time></trkpt><trkpt lat="44.8848617" lon="9.555275"><ele>400.99999999999994</ele><time>2026-04-11T12:24:57.938Z</time></trkpt><trkpt lat="44.8848233" lon="9.55518"><ele>401.0</ele><time>2026-04-11T12:24:58.937Z</time></trkpt><trkpt lat="44.8847733" lon="9.5550783"><ele>405.20000000000005</ele><time>2026-04-11T12:24:59.938Z</time></trkpt><trkpt lat="44.884705" lon="9.5549767"><ele>409.40000000000003</ele><time>2026-04-11T12:25:00.938Z</time></trkpt><trkpt lat="44.884625" lon="9.554875"><ele>413.6</ele><time>2026-04-11T12:25:01.943Z</time></trkpt><trkpt lat="44.88456" lon="9.55479"><ele>417.8</ele><time>2026-04-11T12:25:02.939Z</time></trkpt><trkpt lat="44.8845267" lon="9.5547117"><ele>422.0</ele><time>2026-04-11T12:25:03.938Z</time></trkpt><trkpt lat="44.8844917" lon="9.5545367"><ele>422.16666666666663</ele><time>2026-04-11T12:25:05.937Z</time></trkpt><trkpt lat="44.8845" lon="9.5544483"><ele>422.3333333333333</ele><time>2026-04-11T12:25:06.939Z</time></trkpt><trkpt lat="44.8845383" lon="9.5543567"><ele>422.5</ele><time>2026-04-11T12:25:07.938Z</time></trkpt><trkpt lat="44.884585" lon="9.5542783"><ele>422.66666666666663</ele><time>2026-04-11T12:25:08.938Z</time></trkpt><trkpt lat="44.8846517" lon="9.5542067"><ele>422.8333333333333</ele><time>2026-04-11T12:25:09.937Z</time></trkpt><trkpt lat="44.8847283" lon="9.5541467"><ele>423.0</ele><time>2026-04-11T12:25:10.937Z</time></trkpt><trkpt lat="44.8848117" lon="9.554095"><ele>423.0</ele><time>2026-04-11T12:25:11.937Z</time></trkpt><trkpt lat="44.8848867" lon="9.554025"><ele>423.0</ele><time>2026-04-11T12:25:12.937Z</time></trkpt><trkpt lat="44.8849483" lon="9.5539383"><ele>423.0</ele><time>2026-04-11T12:25:13.937Z</time></trkpt><trkpt lat="44.8849983" lon="9.5538333"><ele>423.0</ele><time>2026-04-11T12:25:14.937Z</time></trkpt><trkpt lat="44.8850333" lon="9.55372"><ele>423.0</ele><time>2026-04-11T12:25:15.937Z</time></trkpt><trkpt lat="44.8850483" lon="9.5535867"><ele>421.6666666666667</ele><time>2026-04-11T12:25:16.937Z</time></trkpt><trkpt lat="44.885065" lon="9.55347"><ele>420.33333333333337</ele><time>2026-04-11T12:25:17.937Z</time></trkpt><trkpt lat="44.8850933" lon="9.5533783"><ele>419.0</ele><time>2026-04-11T12:25:18.938Z</time></trkpt><trkpt lat="44.8851333" lon="9.5532967"><ele>417.6666666666667</ele><time>2026-04-11T12:25:19.937Z</time></trkpt><trkpt lat="44.8851917" lon="9.553215"><ele>416.33333333333337</ele><time>2026-04-11T12:25:20.938Z</time></trkpt><trkpt lat="44.8852533" lon="9.553125"><ele>415.0</ele><time>2026-04-11T12:25:21.939Z</time></trkpt><trkpt lat="44.885305" lon="9.5530267"><ele>420.2</ele><time>2026-04-11T12:25:22.938Z</time></trkpt><trkpt lat="44.8853383" lon="9.55293"><ele>425.4</ele><time>2026-04-11T12:25:23.937Z</time></trkpt><trkpt lat="44.8853567" lon="9.55284"><ele>430.6</ele><time>2026-04-11T12:25:24.937Z</time></trkpt><trkpt lat="44.8853433" lon="9.5527"><ele>435.8</ele><time>2026-04-11T12:25:26.937Z</time></trkpt><trkpt lat="44.885195" lon="9.552695"><ele>441.0</ele><time>2026-04-11T12:25:28.937Z</time></trkpt><trkpt lat="44.885125" lon="9.552685"><ele>435.8</ele><time>2026-04-11T12:25:29.937Z</time></trkpt><trkpt lat="44.8850533" lon="9.5526617"><ele>430.6</ele><time>2026-04-11T12:25:30.939Z</time></trkpt><trkpt lat="44.884975" lon="9.5525467"><ele>425.4</ele><time>2026-04-11T12:25:32.939Z</time></trkpt><trkpt lat="44.884935" lon="9.5524133"><ele>420.2</ele><time>2026-04-11T12:25:34.941Z</time></trkpt><trkpt lat="44.88492" lon="9.552265"><ele>415.0</ele><time>2026-04-11T12:25:36.938Z</time></trkpt><trkpt lat="44.8849133" lon="9.5521533"><ele>415.00000000000006</ele><time>2026-04-11T12:25:38.939Z</time></trkpt><trkpt lat="44.8848917" lon="9.5520483"><ele>415.0</ele><time>2026-04-11T12:25:41.937Z</time></trkpt><trkpt lat="44.8848483" lon="9.5519317"><ele>415.0</ele><time>2026-04-11T12:27:59.938Z</time></trkpt><trkpt lat="44.8848067" lon="9.551825"><ele>415.0</ele><time>2026-04-11T12:28:01.939Z</time></trkpt><trkpt lat="44.8847717" lon="9.5517267"><ele>415.00000000000006</ele><time>2026-04-11T12:28:03.939Z</time></trkpt><trkpt lat="44.8847733" lon="9.551625"><ele>415.0</ele><time>2026-04-11T12:28:06.937Z</time></trkpt><trkpt lat="44.8848317" lon="9.5515883"><ele>416.00000000000006</ele><time>2026-04-11T12:28:08.939Z</time></trkpt><trkpt lat="44.8848917" lon="9.5515533"><ele>417.0</ele><time>2026-04-11T12:28:10.937Z</time></trkpt><trkpt lat="44.884965" lon="9.5514583"><ele>418.0</ele><time>2026-04-11T12:28:12.937Z</time></trkpt><trkpt lat="44.8850067" lon="9.5513833"><ele>419.0</ele><time>2026-04-11T12:28:13.936Z</time></trkpt><trkpt lat="44.8850417" lon="9.5513083"><ele>420.00000000000006</ele><time>2026-04-11T12:28:14.937Z</time></trkpt><trkpt lat="44.8850833" lon="9.5511833"><ele>421.0</ele><time>2026-04-11T12:28:16.937Z</time></trkpt><trkpt lat="44.8851183" lon="9.5510683"><ele>422.50000000000006</ele><time>2026-04-11T12:28:18.939Z</time></trkpt><trkpt lat="44.885145" lon="9.5509533"><ele>424.0</ele><time>2026-04-11T12:28:20.94Z</time></trkpt><trkpt lat="44.885115" lon="9.5508533"><ele>425.5</ele><time>2026-04-11T12:28:23.939Z</time></trkpt><trkpt lat="44.88506" lon="9.5508"><ele>427.0</ele><time>2026-04-11T12:28:25.946Z</time></trkpt><trkpt lat="44.8849933" lon="9.5507367"><ele>428.50000000000006</ele><time>2026-04-11T12:28:27.938Z</time></trkpt><trkpt lat="44.8849283" lon="9.5506567"><ele>430.0</ele><time>2026-04-11T12:28:29.937Z</time></trkpt><trkpt lat="44.884855" lon="9.5505617"><ele>430.0</ele><time>2026-04-11T12:28:31.937Z</time></trkpt><trkpt lat="44.884775" lon="9.5504733"><ele>430.0</ele><time>2026-04-11T12:28:33.937Z</time></trkpt><trkpt lat="44.884715" lon="9.5503783"><ele>430.0</ele><time>2026-04-11T12:28:35.94Z</time></trkpt><trkpt lat="44.8846683" lon="9.5502633"><ele>430.0</ele><time>2026-04-11T12:28:37.938Z</time></trkpt><trkpt lat="44.8846183" lon="9.5501083"><ele>430.0</ele><time>2026-04-11T12:28:39.944Z</time></trkpt><trkpt lat="44.8845633" lon="9.54996"><ele>432.4</ele><time>2026-04-11T12:28:41.937Z</time></trkpt><trkpt lat="44.8845117" lon="9.5498033"><ele>434.8</ele><time>2026-04-11T12:28:43.937Z</time></trkpt><trkpt lat="44.8844417" lon="9.54966"><ele>437.20000000000005</ele><time>2026-04-11T12:28:45.939Z</time></trkpt><trkpt lat="44.8844017" lon="9.54959"><ele>439.6</ele><time>2026-04-11T12:28:46.94Z</time></trkpt><trkpt lat="44.8843683" lon="9.5495033"><ele>442.0</ele><time>2026-04-11T12:28:47.939Z</time></trkpt><trkpt lat="44.88433" lon="9.54941"><ele>442.8</ele><time>2026-04-11T12:28:48.945Z</time></trkpt><trkpt lat="44.884295" lon="9.54933"><ele>443.6</ele><time>2026-04-11T12:28:49.939Z</time></trkpt><trkpt lat="44.8842617" lon="9.54925"><ele>444.40000000000003</ele><time>2026-04-11T12:28:50.941Z</time></trkpt><trkpt lat="44.88422" lon="9.5491"><ele>445.20000000000005</ele><time>2026-04-11T12:28:52.938Z</time></trkpt><trkpt lat="44.88418" lon="9.5489367"><ele>446.0</ele><time>2026-04-11T12:28:54.939Z</time></trkpt><trkpt lat="44.8841533" lon="9.5487683"><ele>446.20000000000005</ele><time>2026-04-11T12:28:56.939Z</time></trkpt><trkpt lat="44.8841417" lon="9.5485933"><ele>446.40000000000003</ele><time>2026-04-11T12:28:58.938Z</time></trkpt><trkpt lat="44.8841367" lon="9.54844"><ele>446.6</ele><time>2026-04-11T12:29:00.937Z</time></trkpt><trkpt lat="44.8841617" lon="9.5482983"><ele>446.8</ele><time>2026-04-11T12:29:02.938Z</time></trkpt><trkpt lat="44.884255" lon="9.5482117"><ele>447.0</ele><time>2026-04-11T12:29:04.937Z</time></trkpt><trkpt lat="44.8843167" lon="9.54818"><ele>447.0</ele><time>2026-04-11T12:29:05.937Z</time></trkpt><trkpt lat="44.8844267" lon="9.5481383"><ele>447.00000000000006</ele><time>2026-04-11T12:29:07.937Z</time></trkpt><trkpt lat="44.8845517" lon="9.5480633"><ele>447.00000000000006</ele><time>2026-04-11T12:29:48.938Z</time></trkpt><trkpt lat="44.884605" lon="9.5480133"><ele>447.0</ele><time>2026-04-11T12:29:50.939Z</time></trkpt><trkpt lat="44.8846933" lon="9.5478917"><ele>447.0</ele><time>2026-04-11T12:29:52.938Z</time></trkpt><trkpt lat="44.8847517" lon="9.5477967"><ele>447.0</ele><time>2026-04-11T12:29:53.938Z</time></trkpt><trkpt lat="44.884805" lon="9.547705"><ele>447.0</ele><time>2026-04-11T12:29:54.938Z</time></trkpt><trkpt lat="44.8848467" lon="9.5476217"><ele>447.0</ele><time>2026-04-11T12:29:55.937Z</time></trkpt><trkpt lat="44.8848883" lon="9.54754"><ele>447.0</ele><time>2026-04-11T12:29:56.938Z</time></trkpt><trkpt lat="44.88493" lon="9.5474633"><ele>447.0</ele><time>2026-04-11T12:29:57.938Z</time></trkpt><trkpt lat="44.8850083" lon="9.54732"><ele>447.0</ele><time>2026-04-11T12:29:59.938Z</time></trkpt><trkpt lat="44.8850567" lon="9.5472433"><ele>449.1428571428571</ele><time>2026-04-11T12:30:00.938Z</time></trkpt><trkpt lat="44.8851017" lon="9.5471683"><ele>451.2857142857143</ele><time>2026-04-11T12:30:01.939Z</time></trkpt><trkpt lat="44.8851483" lon="9.5470867"><ele>453.42857142857144</ele><time>2026-04-11T12:30:02.944Z</time></trkpt><trkpt lat="44.8851917" lon="9.5470067"><ele>455.57142857142856</ele><time>2026-04-11T12:30:03.938Z</time></trkpt><trkpt lat="44.885235" lon="9.54692"><ele>457.7142857142857</ele><time>2026-04-11T12:30:04.939Z</time></trkpt><trkpt lat="44.8852817" lon="9.54683"><ele>459.85714285714283</ele><time>2026-04-11T12:30:05.939Z</time></trkpt><trkpt lat="44.885325" lon="9.546745"><ele>462.0</ele><time>2026-04-11T12:30:06.939Z</time></trkpt><trkpt lat="44.8853733" lon="9.54666"><ele>462.0</ele><time>2026-04-11T12:30:07.94Z</time></trkpt><trkpt lat="44.8854233" lon="9.546575"><ele>462.0</ele><time>2026-04-11T12:30:08.938Z</time></trkpt><trkpt lat="44.8854767" lon="9.5464867"><ele>462.0</ele><time>2026-04-11T12:30:09.943Z</time></trkpt><trkpt lat="44.8855317" lon="9.5463967"><ele>462.0</ele><time>2026-04-11T12:30:10.939Z</time></trkpt><trkpt lat="44.8855867" lon="9.5463167"><ele>462.0</ele><time>2026-04-11T12:30:11.938Z</time></trkpt><trkpt lat="44.8856367" lon="9.5462383"><ele>462.0</ele><time>2026-04-11T12:30:12.938Z</time></trkpt><trkpt lat="44.88569" lon="9.5461617"><ele>459.0</ele><time>2026-04-11T12:30:13.937Z</time></trkpt><trkpt lat="44.885735" lon="9.5460983"><ele>456.00000000000006</ele><time>2026-04-11T12:30:14.942Z</time></trkpt><trkpt lat="44.8858217" lon="9.5459667"><ele>453.00000000000006</ele><time>2026-04-11T12:30:16.939Z</time></trkpt><trkpt lat="44.885885" lon="9.5458083"><ele>450.0</ele><time>2026-04-11T12:30:18.939Z</time></trkpt><trkpt lat="44.8859117" lon="9.5457117"><ele>447.0</ele><time>2026-04-11T12:30:19.945Z</time></trkpt><trkpt lat="44.88594" lon="9.5456217"><ele>449.2857142857142</ele><time>2026-04-11T12:30:20.939Z</time></trkpt><trkpt lat="44.8859633" lon="9.5455267"><ele>451.57142857142856</ele><time>2026-04-11T12:30:21.937Z</time></trkpt><trkpt lat="44.8859833" lon="9.5454367"><ele>453.85714285714283</ele><time>2026-04-11T12:30:22.937Z</time></trkpt><trkpt lat="44.8860067" lon="9.5453383"><ele>456.1428571428571</ele><time>2026-04-11T12:30:23.937Z</time></trkpt><trkpt lat="44.8860317" lon="9.545245"><ele>458.4285714285714</ele><time>2026-04-11T12:30:24.937Z</time></trkpt><trkpt lat="44.8860567" lon="9.5451533"><ele>460.71428571428567</ele><time>2026-04-11T12:30:25.938Z</time></trkpt><trkpt lat="44.8860933" lon="9.54505"><ele>463.0</ele><time>2026-04-11T12:30:26.938Z</time></trkpt><trkpt lat="44.8861333" lon="9.5449383"><ele>463.00000000000006</ele><time>2026-04-11T12:30:27.937Z</time></trkpt><trkpt lat="44.8861833" lon="9.5448233"><ele>463.0</ele><time>2026-04-11T12:30:28.94Z</time></trkpt><trkpt lat="44.8862367" lon="9.54473"><ele>463.0</ele><time>2026-04-11T12:30:29.938Z</time></trkpt><trkpt lat="44.8862883" lon="9.5446617"><ele>463.0</ele><time>2026-04-11T12:30:30.937Z</time></trkpt><trkpt lat="44.8863633" lon="9.5445717"><ele>463.00000000000006</ele><time>2026-04-11T12:30:32.938Z</time></trkpt><trkpt lat="44.88642" lon="9.5444783"><ele>463.0</ele><time>2026-04-11T12:30:34.938Z</time></trkpt><trkpt lat="44.8864733" lon="9.54437"><ele>458.0</ele><time>2026-04-11T12:30:36.938Z</time></trkpt><trkpt lat="44.8865383" lon="9.544245"><ele>452.99999999999994</ele><time>2026-04-11T12:30:38.938Z</time></trkpt><trkpt lat="44.88658" lon="9.5441767"><ele>447.99999999999994</ele><time>2026-04-11T12:30:39.941Z</time></trkpt><trkpt lat="44.8866567" lon="9.5440633"><ele>443.0</ele><time>2026-04-11T12:30:41.939Z</time></trkpt><trkpt lat="44.8867517" lon="9.5439767"><ele>438.0</ele><time>2026-04-11T12:30:43.937Z</time></trkpt><trkpt lat="44.8868683" lon="9.5439683"><ele>436.6666666666667</ele><time>2026-04-11T12:30:45.941Z</time></trkpt><trkpt lat="44.886995" lon="9.5440317"><ele>435.33333333333337</ele><time>2026-04-11T12:30:47.937Z</time></trkpt><trkpt lat="44.887055" lon="9.54408"><ele>434.0</ele><time>2026-04-11T12:30:48.941Z</time></trkpt><trkpt lat="44.8871167" lon="9.544135"><ele>432.6666666666667</ele><time>2026-04-11T12:30:49.937Z</time></trkpt><trkpt lat="44.8871783" lon="9.5441933"><ele>431.33333333333337</ele><time>2026-04-11T12:30:50.944Z</time></trkpt><trkpt lat="44.8872367" lon="9.5442617"><ele>430.0</ele><time>2026-04-11T12:30:51.938Z</time></trkpt><trkpt lat="44.8872883" lon="9.544345"><ele>430.0</ele><time>2026-04-11T12:30:52.939Z</time></trkpt><trkpt lat="44.8873383" lon="9.5444283"><ele>430.0</ele><time>2026-04-11T12:30:53.939Z</time></trkpt><trkpt lat="44.88738" lon="9.544495"><ele>430.0</ele><time>2026-04-11T12:30:54.938Z</time></trkpt><trkpt lat="44.88744" lon="9.5445333"><ele>430.0</ele><time>2026-04-11T12:30:55.938Z</time></trkpt><trkpt lat="44.887555" lon="9.5445633"><ele>430.0</ele><time>2026-04-11T12:30:57.937Z</time></trkpt><trkpt lat="44.8876833" lon="9.5445483"><ele>435.4</ele><time>2026-04-11T12:30:59.938Z</time></trkpt><trkpt lat="44.8877483" lon="9.5445567"><ele>440.8</ele><time>2026-04-11T12:31:00.939Z</time></trkpt><trkpt lat="44.8878567" lon="9.544635"><ele>446.20000000000005</ele><time>2026-04-11T12:31:02.944Z</time></trkpt><trkpt lat="44.887915" lon="9.544675"><ele>451.6</ele><time>2026-04-11T12:31:03.938Z</time></trkpt><trkpt lat="44.8880217" lon="9.544695"><ele>457.0</ele><time>2026-04-11T12:31:05.938Z</time></trkpt><trkpt lat="44.88811" lon="9.5445867"><ele>452.40000000000003</ele><time>2026-04-11T12:31:07.938Z</time></trkpt><trkpt lat="44.888145" lon="9.544445"><ele>447.80000000000007</ele><time>2026-04-11T12:31:08.94Z</time></trkpt><trkpt lat="44.8881633" lon="9.5442917"><ele>443.2</ele><time>2026-04-11T12:31:09.943Z</time></trkpt><trkpt lat="44.8881967" lon="9.5441917"><ele>438.6</ele><time>2026-04-11T12:31:10.938Z</time></trkpt><trkpt lat="44.8882333" lon="9.5441167"><ele>434.0</ele><time>2026-04-11T12:31:11.937Z</time></trkpt><trkpt lat="44.888325" lon="9.5440217"><ele>435.3333333333333</ele><time>2026-04-11T12:31:13.938Z</time></trkpt><trkpt lat="44.88843" lon="9.5439233"><ele>436.66666666666663</ele><time>2026-04-11T12:31:15.937Z</time></trkpt><trkpt lat="44.8884733" lon="9.54384"><ele>438.0</ele><time>2026-04-11T12:31:16.939Z</time></trkpt><trkpt lat="44.8885" lon="9.54374"><ele>439.33333333333337</ele><time>2026-04-11T12:31:17.939Z</time></trkpt><trkpt lat="44.8885183" lon="9.5436333"><ele>440.6666666666667</ele><time>2026-04-11T12:31:18.939Z</time></trkpt><trkpt lat="44.8885333" lon="9.54352"><ele>442.0</ele><time>2026-04-11T12:31:19.937Z</time></trkpt><trkpt lat="44.88854" lon="9.5433983"><ele>438.50000000000006</ele><time>2026-04-11T12:31:20.938Z</time></trkpt><trkpt lat="44.8885467" lon="9.5432883"><ele>435.0</ele><time>2026-04-11T12:31:21.937Z</time></trkpt><trkpt lat="44.8885533" lon="9.5431817"><ele>431.5</ele><time>2026-04-11T12:31:22.938Z</time></trkpt><trkpt lat="44.88857" lon="9.54308"><ele>428.0</ele><time>2026-04-11T12:31:23.938Z</time></trkpt><trkpt lat="44.888585" lon="9.5429917"><ele>424.50000000000006</ele><time>2026-04-11T12:31:24.937Z</time></trkpt><trkpt lat="44.8886083" lon="9.542865"><ele>421.0</ele><time>2026-04-11T12:31:26.939Z</time></trkpt><trkpt lat="44.88868" lon="9.5427383"><ele>417.6666666666667</ele><time>2026-04-11T12:31:28.938Z</time></trkpt><trkpt lat="44.8887283" lon="9.5426783"><ele>414.33333333333337</ele><time>2026-04-11T12:31:29.938Z</time></trkpt><trkpt lat="44.888845" lon="9.5426117"><ele>411.0</ele><time>2026-04-11T12:31:31.938Z</time></trkpt><trkpt lat="44.8889083" lon="9.5425983"><ele>407.66666666666663</ele><time>2026-04-11T12:31:32.938Z</time></trkpt><trkpt lat="44.88902" lon="9.54265"><ele>404.3333333333333</ele><time>2026-04-11T12:31:34.939Z</time></trkpt><trkpt lat="44.889065" lon="9.54273"><ele>401.0</ele><time>2026-04-11T12:31:35.942Z</time></trkpt><trkpt lat="44.8891133" lon="9.5428117"><ele>401.16666666666663</ele><time>2026-04-11T12:31:36.938Z</time></trkpt><trkpt lat="44.889165" lon="9.5428867"><ele>401.3333333333333</ele><time>2026-04-11T12:31:37.938Z</time></trkpt><trkpt lat="44.8892217" lon="9.5429617"><ele>401.5</ele><time>2026-04-11T12:31:38.938Z</time></trkpt><trkpt lat="44.8892783" lon="9.5430217"><ele>401.66666666666663</ele><time>2026-04-11T12:31:39.938Z</time></trkpt><trkpt lat="44.8893467" lon="9.543075"><ele>401.8333333333333</ele><time>2026-04-11T12:31:40.938Z</time></trkpt><trkpt lat="44.88942" lon="9.54312"><ele>402.0</ele><time>2026-04-11T12:31:41.937Z</time></trkpt><trkpt lat="44.8894967" lon="9.5431617"><ele>402.0</ele><time>2026-04-11T12:31:42.937Z</time></trkpt><trkpt lat="44.8895683" lon="9.5431983"><ele>402.0</ele><time>2026-04-11T12:31:43.938Z</time></trkpt><trkpt lat="44.8896267" lon="9.5432317"><ele>402.0</ele><time>2026-04-11T12:31:44.938Z</time></trkpt><trkpt lat="44.8897333" lon="9.5432983"><ele>402.0</ele><time>2026-04-11T12:31:46.937Z</time></trkpt><trkpt lat="44.889795" lon="9.5433383"><ele>402.0</ele><time>2026-04-11T12:31:47.938Z</time></trkpt><trkpt lat="44.88986" lon="9.5433717"><ele>402.0</ele><time>2026-04-11T12:31:48.938Z</time></trkpt><trkpt lat="44.889935" lon="9.543395"><ele>402.0</ele><time>2026-04-11T12:31:49.937Z</time></trkpt><trkpt lat="44.89001" lon="9.5434083"><ele>402.0</ele><time>2026-04-11T12:31:50.938Z</time></trkpt><trkpt lat="44.8900783" lon="9.5434067"><ele>402.0</ele><time>2026-04-11T12:31:51.938Z</time></trkpt><trkpt lat="44.8901483" lon="9.5434"><ele>402.0</ele><time>2026-04-11T12:31:52.937Z</time></trkpt><trkpt lat="44.8902117" lon="9.5433767"><ele>402.0</ele><time>2026-04-11T12:31:53.937Z</time></trkpt><trkpt lat="44.890275" lon="9.5433717"><ele>402.0</ele><time>2026-04-11T12:31:54.937Z</time></trkpt><trkpt lat="44.890395" lon="9.5433433"><ele>403.20000000000005</ele><time>2026-04-11T12:31:56.94Z</time></trkpt><trkpt lat="44.8905033" lon="9.5433133"><ele>404.4</ele><time>2026-04-11T12:31:58.939Z</time></trkpt><trkpt lat="44.8906083" lon="9.5432617"><ele>405.6</ele><time>2026-04-11T12:32:00.939Z</time></trkpt><trkpt lat="44.8906833" lon="9.5431583"><ele>406.79999999999995</ele><time>2026-04-11T12:32:02.94Z</time></trkpt><trkpt lat="44.8907317" lon="9.5430067"><ele>408.0</ele><time>2026-04-11T12:32:04.94Z</time></trkpt><trkpt lat="44.8907933" lon="9.5428783"><ele>407.8333333333333</ele><time>2026-04-11T12:32:06.939Z</time></trkpt><trkpt lat="44.890855" lon="9.54282"><ele>407.66666666666663</ele><time>2026-04-11T12:32:08.941Z</time></trkpt><trkpt lat="44.89092" lon="9.542815"><ele>407.5</ele><time>2026-04-11T12:32:10.94Z</time></trkpt><trkpt lat="44.890995" lon="9.5428617"><ele>407.3333333333333</ele><time>2026-04-11T12:32:13.94Z</time></trkpt><trkpt lat="44.891075" lon="9.5428833"><ele>407.16666666666663</ele><time>2026-04-11T12:32:15.937Z</time></trkpt><trkpt lat="44.8911767" lon="9.542915"><ele>407.0</ele><time>2026-04-11T12:32:17.938Z</time></trkpt><trkpt lat="44.8912333" lon="9.542955"><ele>406.99999999999994</ele><time>2026-04-11T12:32:18.94Z</time></trkpt><trkpt lat="44.8912967" lon="9.5430067"><ele>407.0</ele><time>2026-04-11T12:32:19.938Z</time></trkpt><trkpt lat="44.8913683" lon="9.54306"><ele>407.0</ele><time>2026-04-11T12:32:20.937Z</time></trkpt><trkpt lat="44.8914483" lon="9.543105"><ele>407.0</ele><time>2026-04-11T12:32:21.937Z</time></trkpt><trkpt lat="44.8915417" lon="9.5431383"><ele>406.99999999999994</ele><time>2026-04-11T12:32:22.937Z</time></trkpt><trkpt lat="44.89163" lon="9.5431683"><ele>407.0</ele><time>2026-04-11T12:32:23.937Z</time></trkpt><trkpt lat="44.89171" lon="9.5432067"><ele>406.99999999999994</ele><time>2026-04-11T12:32:24.937Z</time></trkpt><trkpt lat="44.8917817" lon="9.543255"><ele>407.0</ele><time>2026-04-11T12:32:25.936Z</time></trkpt><trkpt lat="44.8918433" lon="9.543315"><ele>407.0</ele><time>2026-04-11T12:32:26.943Z</time></trkpt><trkpt lat="44.8918917" lon="9.543385"><ele>407.0</ele><time>2026-04-11T12:32:27.938Z</time></trkpt><trkpt lat="44.8919283" lon="9.5434783"><ele>406.99999999999994</ele><time>2026-04-11T12:32:28.937Z</time></trkpt><trkpt lat="44.891965" lon="9.543595"><ele>407.0</ele><time>2026-04-11T12:32:29.937Z</time></trkpt><trkpt lat="44.8920133" lon="9.5437267"><ele>407.0</ele><time>2026-04-11T12:32:30.937Z</time></trkpt><trkpt lat="44.8920733" lon="9.5438617"><ele>407.0</ele><time>2026-04-11T12:32:31.947Z</time></trkpt><trkpt lat="44.8921333" lon="9.5439867"><ele>407.0</ele><time>2026-04-11T12:32:32.937Z</time></trkpt><trkpt lat="44.8921833" lon="9.5441033"><ele>407.0</ele><time>2026-04-11T12:32:33.937Z</time></trkpt><trkpt lat="44.8922283" lon="9.544215"><ele>407.0</ele><time>2026-04-11T12:32:34.938Z</time></trkpt><trkpt lat="44.8922667" lon="9.5443217"><ele>406.99999999999994</ele><time>2026-04-11T12:32:35.937Z</time></trkpt><trkpt lat="44.8923" lon="9.5444267"><ele>407.0</ele><time>2026-04-11T12:32:36.937Z</time></trkpt><trkpt lat="44.8923383" lon="9.54453"><ele>407.0</ele><time>2026-04-11T12:32:37.937Z</time></trkpt><trkpt lat="44.89237" lon="9.5446267"><ele>407.0</ele><time>2026-04-11T12:32:38.937Z</time></trkpt><trkpt lat="44.89239" lon="9.5447133"><ele>406.99999999999994</ele><time>2026-04-11T12:32:39.937Z</time></trkpt><trkpt lat="44.8924133" lon="9.544815"><ele>407.0</ele><time>2026-04-11T12:32:40.936Z</time></trkpt><trkpt lat="44.8924317" lon="9.544915"><ele>407.66666666666663</ele><time>2026-04-11T12:32:41.937Z</time></trkpt><trkpt lat="44.8924517" lon="9.545015"><ele>408.3333333333333</ele><time>2026-04-11T12:32:42.937Z</time></trkpt><trkpt lat="44.8924783" lon="9.54512"><ele>409.0</ele><time>2026-04-11T12:32:43.937Z</time></trkpt><trkpt lat="44.892515" lon="9.5452183"><ele>409.66666666666663</ele><time>2026-04-11T12:32:44.936Z</time></trkpt><trkpt lat="44.8925567" lon="9.5453117"><ele>410.3333333333333</ele><time>2026-04-11T12:32:45.937Z</time></trkpt><trkpt lat="44.8926017" lon="9.5454017"><ele>411.0</ele><time>2026-04-11T12:32:46.936Z</time></trkpt><trkpt lat="44.8926567" lon="9.54548"><ele>411.0</ele><time>2026-04-11T12:32:47.937Z</time></trkpt><trkpt lat="44.892705" lon="9.5455533"><ele>411.0</ele><time>2026-04-11T12:32:48.936Z</time></trkpt><trkpt lat="44.8927533" lon="9.5456167"><ele>411.0</ele><time>2026-04-11T12:32:49.936Z</time></trkpt><trkpt lat="44.89284" lon="9.5457583"><ele>411.0</ele><time>2026-04-11T12:32:51.937Z</time></trkpt><trkpt lat="44.8928867" lon="9.5458483"><ele>411.0</ele><time>2026-04-11T12:32:52.936Z</time></trkpt><trkpt lat="44.8929433" lon="9.545935"><ele>411.0</ele><time>2026-04-11T12:32:53.936Z</time></trkpt><trkpt lat="44.8930083" lon="9.546015"><ele>411.0</ele><time>2026-04-11T12:32:54.936Z</time></trkpt><trkpt lat="44.8930817" lon="9.5460917"><ele>411.0</ele><time>2026-04-11T12:32:55.941Z</time></trkpt><trkpt lat="44.8931467" lon="9.5461717"><ele>411.0</ele><time>2026-04-11T12:32:56.938Z</time></trkpt><trkpt lat="44.8932017" lon="9.5462533"><ele>411.0</ele><time>2026-04-11T12:32:57.937Z</time></trkpt><trkpt lat="44.8932517" lon="9.5463433"><ele>411.0</ele><time>2026-04-11T12:32:58.937Z</time></trkpt><trkpt lat="44.893295" lon="9.5464367"><ele>411.0</ele><time>2026-04-11T12:32:59.937Z</time></trkpt><trkpt lat="44.8933383" lon="9.5465283"><ele>411.8333333333333</ele><time>2026-04-11T12:33:00.937Z</time></trkpt><trkpt lat="44.893395" lon="9.5465983"><ele>412.66666666666663</ele><time>2026-04-11T12:33:01.938Z</time></trkpt><trkpt lat="44.8934633" lon="9.546645"><ele>413.5</ele><time>2026-04-11T12:33:02.937Z</time></trkpt><trkpt lat="44.8935283" lon="9.5466967"><ele>414.3333333333333</ele><time>2026-04-11T12:33:03.937Z</time></trkpt><trkpt lat="44.893605" lon="9.5467767"><ele>415.16666666666663</ele><time>2026-04-11T12:33:04.939Z</time></trkpt><trkpt lat="44.893675" lon="9.546865"><ele>416.0</ele><time>2026-04-11T12:33:05.937Z</time></trkpt><trkpt lat="44.8937533" lon="9.5469533"><ele>415.99999999999994</ele><time>2026-04-11T12:33:06.939Z</time></trkpt><trkpt lat="44.8938267" lon="9.5470283"><ele>416.0</ele><time>2026-04-11T12:33:07.937Z</time></trkpt><trkpt lat="44.8939017" lon="9.5470883"><ele>416.0</ele><time>2026-04-11T12:33:08.94Z</time></trkpt><trkpt lat="44.89398" lon="9.5471283"><ele>416.0</ele><time>2026-04-11T12:33:09.937Z</time></trkpt><trkpt lat="44.8940533" lon="9.5471383"><ele>415.99999999999994</ele><time>2026-04-11T12:33:10.937Z</time></trkpt><trkpt lat="44.89413" lon="9.5471383"><ele>416.0</ele><time>2026-04-11T12:33:11.936Z</time></trkpt><trkpt lat="44.894205" lon="9.54713"><ele>418.99999999999994</ele><time>2026-04-11T12:33:12.936Z</time></trkpt><trkpt lat="44.8942783" lon="9.5471217"><ele>422.0</ele><time>2026-04-11T12:33:13.943Z</time></trkpt><trkpt lat="44.8943533" lon="9.547125"><ele>425.0</ele><time>2026-04-11T12:33:14.938Z</time></trkpt><trkpt lat="44.8944267" lon="9.547145"><ele>428.0</ele><time>2026-04-11T12:33:15.937Z</time></trkpt><trkpt lat="44.8945033" lon="9.547185"><ele>430.99999999999994</ele><time>2026-04-11T12:33:16.937Z</time></trkpt><trkpt lat="44.8945733" lon="9.5472333"><ele>434.0</ele><time>2026-04-11T12:33:17.938Z</time></trkpt><trkpt lat="44.8946467" lon="9.5473033"><ele>433.99999999999994</ele><time>2026-04-11T12:33:18.937Z</time></trkpt><trkpt lat="44.8947267" lon="9.5473833"><ele>434.0</ele><time>2026-04-11T12:33:19.936Z</time></trkpt><trkpt lat="44.8947967" lon="9.547445"><ele>434.0</ele><time>2026-04-11T12:33:20.939Z</time></trkpt><trkpt lat="44.89486" lon="9.5475017"><ele>434.0</ele><time>2026-04-11T12:33:21.94Z</time></trkpt><trkpt lat="44.8949217" lon="9.5475583"><ele>433.99999999999994</ele><time>2026-04-11T12:33:22.937Z</time></trkpt><trkpt lat="44.894985" lon="9.5476217"><ele>434.0</ele><time>2026-04-11T12:33:23.937Z</time></trkpt><trkpt lat="44.895045" lon="9.547705"><ele>434.6</ele><time>2026-04-11T12:33:24.937Z</time></trkpt><trkpt lat="44.8951067" lon="9.5478033"><ele>435.2</ele><time>2026-04-11T12:33:25.94Z</time></trkpt><trkpt lat="44.8951767" lon="9.5479083"><ele>435.80000000000007</ele><time>2026-04-11T12:33:26.938Z</time></trkpt><trkpt lat="44.8952533" lon="9.5480067"><ele>436.40000000000003</ele><time>2026-04-11T12:33:27.937Z</time></trkpt><trkpt lat="44.8953233" lon="9.5480917"><ele>437.0</ele><time>2026-04-11T12:33:28.938Z</time></trkpt><trkpt lat="44.895385" lon="9.5481767"><ele>436.99999999999994</ele><time>2026-04-11T12:33:29.937Z</time></trkpt><trkpt lat="44.895425" lon="9.5482583"><ele>437.0</ele><time>2026-04-11T12:33:30.938Z</time></trkpt><trkpt lat="44.8954583" lon="9.5483383"><ele>437.0</ele><time>2026-04-11T12:33:31.938Z</time></trkpt><trkpt lat="44.895495" lon="9.5484633"><ele>437.0</ele><time>2026-04-11T12:33:33.938Z</time></trkpt><trkpt lat="44.8955017" lon="9.54859"><ele>436.99999999999994</ele><time>2026-04-11T12:33:35.937Z</time></trkpt><trkpt lat="44.8954783" lon="9.548755"><ele>437.0</ele><time>2026-04-11T12:33:37.937Z</time></trkpt><trkpt lat="44.8954633" lon="9.5488633"><ele>439.40000000000003</ele><time>2026-04-11T12:33:38.938Z</time></trkpt><trkpt lat="44.8954483" lon="9.548995"><ele>441.80000000000007</ele><time>2026-04-11T12:33:39.937Z</time></trkpt><trkpt lat="44.8954283" lon="9.5491417"><ele>444.2</ele><time>2026-04-11T12:33:40.937Z</time></trkpt><trkpt lat="44.8954017" lon="9.5492917"><ele>446.6</ele><time>2026-04-11T12:33:41.937Z</time></trkpt><trkpt lat="44.8953917" lon="9.5494367"><ele>449.0</ele><time>2026-04-11T12:33:42.937Z</time></trkpt><trkpt lat="44.8953917" lon="9.5495667"><ele>450.99999999999994</ele><time>2026-04-11T12:33:43.94Z</time></trkpt><trkpt lat="44.8953983" lon="9.5496833"><ele>453.0</ele><time>2026-04-11T12:33:44.939Z</time></trkpt><trkpt lat="44.8954067" lon="9.549795"><ele>455.0</ele><time>2026-04-11T12:33:45.937Z</time></trkpt><trkpt lat="44.8954317" lon="9.5498983"><ele>457.0</ele><time>2026-04-11T12:33:46.938Z</time></trkpt><trkpt lat="44.8954717" lon="9.5499867"><ele>458.99999999999994</ele><time>2026-04-11T12:33:47.938Z</time></trkpt><trkpt lat="44.8955483" lon="9.550085"><ele>461.0</ele><time>2026-04-11T12:33:48.941Z</time></trkpt><trkpt lat="44.8956133" lon="9.550175"><ele>460.99999999999994</ele><time>2026-04-11T12:33:49.937Z</time></trkpt><trkpt lat="44.8956733" lon="9.5502617"><ele>461.0</ele><time>2026-04-11T12:33:50.937Z</time></trkpt><trkpt lat="44.8957433" lon="9.5502917"><ele>461.0</ele><time>2026-04-11T12:33:51.937Z</time></trkpt><trkpt lat="44.8958317" lon="9.5504117"><ele>461.0</ele><time>2026-04-11T12:33:53.938Z</time></trkpt><trkpt lat="44.8958833" lon="9.550475"><ele>460.99999999999994</ele><time>2026-04-11T12:33:55.938Z</time></trkpt><trkpt lat="44.89597" lon="9.5504817"><ele>461.0</ele><time>2026-04-11T12:33:57.937Z</time></trkpt><trkpt lat="44.896065" lon="9.55046"><ele>460.20000000000005</ele><time>2026-04-11T12:33:59.937Z</time></trkpt><trkpt lat="44.8961267" lon="9.5504267"><ele>459.40000000000003</ele><time>2026-04-11T12:34:01.941Z</time></trkpt><trkpt lat="44.896205" lon="9.5503917"><ele>458.6</ele><time>2026-04-11T12:34:05.937Z</time></trkpt><trkpt lat="44.89628" lon="9.5503633"><ele>457.8</ele><time>2026-04-11T12:34:09.937Z</time></trkpt><trkpt lat="44.8964183" lon="9.5502983"><ele>457.0</ele><time>2026-04-11T12:36:24.937Z</time></trkpt><trkpt lat="44.8965167" lon="9.5502583"><ele>457.00000000000006</ele><time>2026-04-11T12:36:26.938Z</time></trkpt><trkpt lat="44.8965783" lon="9.550235"><ele>457.0</ele><time>2026-04-11T12:36:27.937Z</time></trkpt><trkpt lat="44.89664" lon="9.5502033"><ele>457.00000000000006</ele><time>2026-04-11T12:36:28.938Z</time></trkpt><trkpt lat="44.8967033" lon="9.550175"><ele>457.00000000000006</ele><time>2026-04-11T12:36:29.938Z</time></trkpt><trkpt lat="44.896775" lon="9.550145"><ele>457.0</ele><time>2026-04-11T12:36:30.937Z</time></trkpt><trkpt lat="44.8968517" lon="9.5501167"><ele>457.00000000000006</ele><time>2026-04-11T12:36:31.944Z</time></trkpt><trkpt lat="44.8969317" lon="9.550085"><ele>457.00000000000006</ele><time>2026-04-11T12:36:32.94Z</time></trkpt><trkpt lat="44.89702" lon="9.5500533"><ele>457.1666666666667</ele><time>2026-04-11T12:36:33.938Z</time></trkpt><trkpt lat="44.8971117" lon="9.550025"><ele>457.33333333333337</ele><time>2026-04-11T12:36:34.937Z</time></trkpt><trkpt lat="44.8972033" lon="9.55001"><ele>457.5</ele><time>2026-04-11T12:36:35.94Z</time></trkpt><trkpt lat="44.8972833" lon="9.550005"><ele>457.66666666666663</ele><time>2026-04-11T12:36:36.945Z</time></trkpt><trkpt lat="44.8973633" lon="9.5499917"><ele>457.8333333333333</ele><time>2026-04-11T12:36:37.938Z</time></trkpt><trkpt lat="44.8974483" lon="9.5499517"><ele>458.0</ele><time>2026-04-11T12:36:38.944Z</time></trkpt><trkpt lat="44.8975367" lon="9.5498917"><ele>460.0</ele><time>2026-04-11T12:36:39.939Z</time></trkpt><trkpt lat="44.8976333" lon="9.5498167"><ele>461.99999999999994</ele><time>2026-04-11T12:36:40.939Z</time></trkpt><trkpt lat="44.8977333" lon="9.5497333"><ele>463.99999999999994</ele><time>2026-04-11T12:36:41.937Z</time></trkpt><trkpt lat="44.8978317" lon="9.5496483"><ele>466.0</ele><time>2026-04-11T12:36:42.937Z</time></trkpt><trkpt lat="44.8979267" lon="9.5495767"><ele>468.0</ele><time>2026-04-11T12:36:43.938Z</time></trkpt><trkpt lat="44.8980133" lon="9.5495117"><ele>468.0</ele><time>2026-04-11T12:36:44.939Z</time></trkpt><trkpt lat="44.898095" lon="9.5494517"><ele>468.0</ele><time>2026-04-11T12:36:45.937Z</time></trkpt><trkpt lat="44.8981733" lon="9.54939"><ele>468.0</ele><time>2026-04-11T12:36:46.937Z</time></trkpt><trkpt lat="44.8982433" lon="9.5493217"><ele>468.0</ele><time>2026-04-11T12:36:47.938Z</time></trkpt><trkpt lat="44.89831" lon="9.5492533"><ele>468.0</ele><time>2026-04-11T12:36:48.939Z</time></trkpt><trkpt lat="44.89837" lon="9.5491767"><ele>468.0</ele><time>2026-04-11T12:36:49.939Z</time></trkpt><trkpt lat="44.8984233" lon="9.5491033"><ele>468.3333333333333</ele><time>2026-04-11T12:36:50.941Z</time></trkpt><trkpt lat="44.8984717" lon="9.54903"><ele>468.66666666666663</ele><time>2026-04-11T12:36:51.939Z</time></trkpt><trkpt lat="44.898525" lon="9.5489567"><ele>469.0</ele><time>2026-04-11T12:36:52.942Z</time></trkpt><trkpt lat="44.8985783" lon="9.5488767"><ele>469.3333333333333</ele><time>2026-04-11T12:36:53.938Z</time></trkpt><trkpt lat="44.8986333" lon="9.5487983"><ele>469.66666666666663</ele><time>2026-04-11T12:36:54.939Z</time></trkpt><trkpt lat="44.898695" lon="9.5487317"><ele>470.0</ele><time>2026-04-11T12:36:55.938Z</time></trkpt><trkpt lat="44.8987567" lon="9.5486783"><ele>469.99999999999994</ele><time>2026-04-11T12:36:56.938Z</time></trkpt><trkpt lat="44.8988217" lon="9.5486383"><ele>470.0</ele><time>2026-04-11T12:36:57.938Z</time></trkpt><trkpt lat="44.8989233" lon="9.5486417"><ele>470.0</ele><time>2026-04-11T12:36:59.938Z</time></trkpt><trkpt lat="44.8989783" lon="9.5486867"><ele>470.0</ele><time>2026-04-11T12:37:00.943Z</time></trkpt><trkpt lat="44.899035" lon="9.548765"><ele>469.99999999999994</ele><time>2026-04-11T12:37:01.937Z</time></trkpt><trkpt lat="44.8991" lon="9.548855"><ele>470.0</ele><time>2026-04-11T12:37:02.938Z</time></trkpt><trkpt lat="44.8991683" lon="9.5489417"><ele>472.66666666666663</ele><time>2026-04-11T12:37:03.937Z</time></trkpt><trkpt lat="44.899235" lon="9.5490167"><ele>475.3333333333333</ele><time>2026-04-11T12:37:04.937Z</time></trkpt><trkpt lat="44.8993017" lon="9.5490867"><ele>478.0</ele><time>2026-04-11T12:37:05.938Z</time></trkpt><trkpt lat="44.8993733" lon="9.5491517"><ele>480.66666666666663</ele><time>2026-04-11T12:37:06.937Z</time></trkpt><trkpt lat="44.89944" lon="9.549215"><ele>483.3333333333333</ele><time>2026-04-11T12:37:07.938Z</time></trkpt><trkpt lat="44.8995" lon="9.549275"><ele>486.0</ele><time>2026-04-11T12:37:08.937Z</time></trkpt><trkpt lat="44.8995583" lon="9.54933"><ele>486.1666666666667</ele><time>2026-04-11T12:37:09.938Z</time></trkpt><trkpt lat="44.8996133" lon="9.5493933"><ele>486.33333333333337</ele><time>2026-04-11T12:37:10.943Z</time></trkpt><trkpt lat="44.899665" lon="9.5494583"><ele>486.5</ele><time>2026-04-11T12:37:11.938Z</time></trkpt><trkpt lat="44.8997083" lon="9.5495317"><ele>486.6666666666667</ele><time>2026-04-11T12:37:12.937Z</time></trkpt><trkpt lat="44.8997633" lon="9.5496083"><ele>486.83333333333337</ele><time>2026-04-11T12:37:13.938Z</time></trkpt><trkpt lat="44.8998167" lon="9.5496567"><ele>487.0</ele><time>2026-04-11T12:37:14.938Z</time></trkpt><trkpt lat="44.899935" lon="9.5497"><ele>487.33333333333337</ele><time>2026-04-11T12:37:16.937Z</time></trkpt><trkpt lat="44.8999983" lon="9.5497117"><ele>487.6666666666667</ele><time>2026-04-11T12:37:17.939Z</time></trkpt><trkpt lat="44.9000717" lon="9.5497117"><ele>488.0</ele><time>2026-04-11T12:37:18.939Z</time></trkpt><trkpt lat="44.9001533" lon="9.5497033"><ele>488.33333333333337</ele><time>2026-04-11T12:37:19.942Z</time></trkpt><trkpt lat="44.90024" lon="9.5496867"><ele>488.6666666666667</ele><time>2026-04-11T12:37:20.942Z</time></trkpt><trkpt lat="44.90033" lon="9.54967"><ele>489.0</ele><time>2026-04-11T12:37:21.939Z</time></trkpt><trkpt lat="44.9004167" lon="9.549645"><ele>489.0</ele><time>2026-04-11T12:37:22.94Z</time></trkpt><trkpt lat="44.9004983" lon="9.549615"><ele>489.0</ele><time>2026-04-11T12:37:23.939Z</time></trkpt><trkpt lat="44.9005767" lon="9.5495867"><ele>489.0</ele><time>2026-04-11T12:37:24.938Z</time></trkpt><trkpt lat="44.9006483" lon="9.5495567"><ele>489.0</ele><time>2026-04-11T12:37:25.942Z</time></trkpt><trkpt lat="44.90075" lon="9.549505"><ele>489.0</ele><time>2026-04-11T12:37:27.937Z</time></trkpt><trkpt lat="44.9008333" lon="9.549475"><ele>489.0</ele><time>2026-04-11T12:37:29.937Z</time></trkpt><trkpt lat="44.900915" lon="9.5494633"><ele>490.3333333333333</ele><time>2026-04-11T12:37:31.938Z</time></trkpt><trkpt lat="44.9009767" lon="9.549435"><ele>491.66666666666663</ele><time>2026-04-11T12:37:33.939Z</time></trkpt><trkpt lat="44.9010183" lon="9.5493533"><ele>493.0</ele><time>2026-04-11T12:37:35.937Z</time></trkpt><trkpt lat="44.901035" lon="9.5492283"><ele>494.3333333333333</ele><time>2026-04-11T12:37:37.941Z</time></trkpt><trkpt lat="44.9010433" lon="9.549065"><ele>495.66666666666663</ele><time>2026-04-11T12:37:39.937Z</time></trkpt><trkpt lat="44.90105" lon="9.548965"><ele>497.0</ele><time>2026-04-11T12:37:40.937Z</time></trkpt><trkpt lat="44.901055" lon="9.5488567"><ele>497.0</ele><time>2026-04-11T12:37:41.937Z</time></trkpt><trkpt lat="44.90106" lon="9.54873"><ele>497.00000000000006</ele><time>2026-04-11T12:37:42.938Z</time></trkpt><trkpt lat="44.9010733" lon="9.5485967"><ele>497.00000000000006</ele><time>2026-04-11T12:37:43.938Z</time></trkpt><trkpt lat="44.9010867" lon="9.5484617"><ele>497.0</ele><time>2026-04-11T12:37:44.945Z</time></trkpt><trkpt lat="44.9011017" lon="9.5483267"><ele>497.0</ele><time>2026-04-11T12:37:45.937Z</time></trkpt><trkpt lat="44.9011183" lon="9.548195"><ele>496.99999999999994</ele><time>2026-04-11T12:37:46.937Z</time></trkpt><trkpt lat="44.9011317" lon="9.5480683"><ele>497.0</ele><time>2026-04-11T12:37:47.937Z</time></trkpt><trkpt lat="44.9011417" lon="9.5479483"><ele>497.0</ele><time>2026-04-11T12:37:48.938Z</time></trkpt><trkpt lat="44.9011633" lon="9.5478367"><ele>497.0</ele><time>2026-04-11T12:37:49.938Z</time></trkpt><trkpt lat="44.9011917" lon="9.54774"><ele>496.99999999999994</ele><time>2026-04-11T12:37:50.938Z</time></trkpt><trkpt lat="44.9012267" lon="9.5476433"><ele>497.0</ele><time>2026-04-11T12:37:51.944Z</time></trkpt><trkpt lat="44.90126" lon="9.547545"><ele>495.66666666666663</ele><time>2026-04-11T12:37:52.938Z</time></trkpt><trkpt lat="44.9012867" lon="9.547435"><ele>494.3333333333333</ele><time>2026-04-11T12:37:53.938Z</time></trkpt><trkpt lat="44.9013" lon="9.5473233"><ele>493.0</ele><time>2026-04-11T12:37:54.938Z</time></trkpt><trkpt lat="44.901305" lon="9.547205"><ele>491.66666666666663</ele><time>2026-04-11T12:37:55.937Z</time></trkpt><trkpt lat="44.901305" lon="9.547075"><ele>490.3333333333333</ele><time>2026-04-11T12:37:56.939Z</time></trkpt><trkpt lat="44.90131" lon="9.5469417"><ele>489.0</ele><time>2026-04-11T12:37:57.939Z</time></trkpt><trkpt lat="44.901325" lon="9.546805"><ele>487.4</ele><time>2026-04-11T12:37:58.938Z</time></trkpt><trkpt lat="44.90135" lon="9.546665"><ele>485.79999999999995</ele><time>2026-04-11T12:37:59.946Z</time></trkpt><trkpt lat="44.90138" lon="9.5465367"><ele>484.20000000000005</ele><time>2026-04-11T12:38:00.938Z</time></trkpt><trkpt lat="44.901415" lon="9.5464167"><ele>482.6</ele><time>2026-04-11T12:38:01.938Z</time></trkpt><trkpt lat="44.9014517" lon="9.5463033"><ele>481.0</ele><time>2026-04-11T12:38:02.939Z</time></trkpt><trkpt lat="44.90149" lon="9.5461883"><ele>480.83333333333337</ele><time>2026-04-11T12:38:03.938Z</time></trkpt><trkpt lat="44.9015267" lon="9.5460783"><ele>480.6666666666667</ele><time>2026-04-11T12:38:04.938Z</time></trkpt><trkpt lat="44.901555" lon="9.5459667"><ele>480.5</ele><time>2026-04-11T12:38:05.937Z</time></trkpt><trkpt lat="44.901575" lon="9.5458517"><ele>480.33333333333337</ele><time>2026-04-11T12:38:06.938Z</time></trkpt><trkpt lat="44.9015917" lon="9.5457317"><ele>480.1666666666667</ele><time>2026-04-11T12:38:07.938Z</time></trkpt><trkpt lat="44.9016" lon="9.545615"><ele>480.0</ele><time>2026-04-11T12:38:08.938Z</time></trkpt><trkpt lat="44.9015967" lon="9.5455"><ele>480.0</ele><time>2026-04-11T12:38:09.944Z</time></trkpt><trkpt lat="44.9015833" lon="9.54539"><ele>480.0</ele><time>2026-04-11T12:38:10.937Z</time></trkpt><trkpt lat="44.9015667" lon="9.5452867"><ele>480.0</ele><time>2026-04-11T12:38:11.938Z</time></trkpt><trkpt lat="44.9015417" lon="9.5452"><ele>480.0</ele><time>2026-04-11T12:38:12.937Z</time></trkpt><trkpt lat="44.901495" lon="9.5451317"><ele>480.0</ele><time>2026-04-11T12:38:13.939Z</time></trkpt><trkpt lat="44.9014333" lon="9.5450733"><ele>480.0</ele><time>2026-04-11T12:38:14.938Z</time></trkpt><trkpt lat="44.9013583" lon="9.5450483"><ele>480.0</ele><time>2026-04-11T12:38:15.937Z</time></trkpt><trkpt lat="44.90126" lon="9.5450533"><ele>480.3333333333333</ele><time>2026-04-11T12:38:16.938Z</time></trkpt><trkpt lat="44.9011583" lon="9.5450467"><ele>480.66666666666663</ele><time>2026-04-11T12:38:17.939Z</time></trkpt><trkpt lat="44.90107" lon="9.5450567"><ele>481.0</ele><time>2026-04-11T12:38:18.938Z</time></trkpt><trkpt lat="44.9009833" lon="9.54507"><ele>481.3333333333333</ele><time>2026-04-11T12:38:19.937Z</time></trkpt><trkpt lat="44.9008967" lon="9.5450633"><ele>481.66666666666663</ele><time>2026-04-11T12:38:20.938Z</time></trkpt><trkpt lat="44.9008117" lon="9.54506"><ele>482.0</ele><time>2026-04-11T12:38:21.937Z</time></trkpt><trkpt lat="44.9007267" lon="9.54506"><ele>482.66666666666663</ele><time>2026-04-11T12:38:22.937Z</time></trkpt><trkpt lat="44.9006483" lon="9.5450783"><ele>483.3333333333333</ele><time>2026-04-11T12:38:23.938Z</time></trkpt><trkpt lat="44.9005717" lon="9.545065"><ele>484.0</ele><time>2026-04-11T12:38:24.937Z</time></trkpt><trkpt lat="44.9005" lon="9.54507"><ele>484.66666666666663</ele><time>2026-04-11T12:38:25.936Z</time></trkpt><trkpt lat="44.9004283" lon="9.5450717"><ele>485.3333333333333</ele><time>2026-04-11T12:38:26.938Z</time></trkpt><trkpt lat="44.90035" lon="9.5450717"><ele>486.0</ele><time>2026-04-11T12:38:27.937Z</time></trkpt><trkpt lat="44.900265" lon="9.5450633"><ele>486.0</ele><time>2026-04-11T12:38:28.937Z</time></trkpt><trkpt lat="44.9001683" lon="9.545055"><ele>486.0</ele><time>2026-04-11T12:38:29.937Z</time></trkpt><trkpt lat="44.9000733" lon="9.54503"><ele>486.0</ele><time>2026-04-11T12:38:30.936Z</time></trkpt><trkpt lat="44.899985" lon="9.5450033"><ele>486.0</ele><time>2026-04-11T12:38:31.937Z</time></trkpt><trkpt lat="44.8999117" lon="9.5449667"><ele>486.0</ele><time>2026-04-11T12:38:32.937Z</time></trkpt><trkpt lat="44.8998383" lon="9.54493"><ele>486.0</ele><time>2026-04-11T12:38:33.936Z</time></trkpt><trkpt lat="44.89976" lon="9.5448817"><ele>485.3333333333333</ele><time>2026-04-11T12:38:34.937Z</time></trkpt><trkpt lat="44.8996833" lon="9.5448383"><ele>484.66666666666663</ele><time>2026-04-11T12:38:35.938Z</time></trkpt><trkpt lat="44.8996033" lon="9.5447917"><ele>484.0</ele><time>2026-04-11T12:38:36.938Z</time></trkpt><trkpt lat="44.89952" lon="9.544745"><ele>483.3333333333333</ele><time>2026-04-11T12:38:37.938Z</time></trkpt><trkpt lat="44.8994533" lon="9.544705"><ele>482.66666666666663</ele><time>2026-04-11T12:38:38.939Z</time></trkpt><trkpt lat="44.89939" lon="9.5446633"><ele>482.0</ele><time>2026-04-11T12:38:39.938Z</time></trkpt><trkpt lat="44.8993317" lon="9.5446"><ele>481.20000000000005</ele><time>2026-04-11T12:38:40.944Z</time></trkpt><trkpt lat="44.8992533" lon="9.544545"><ele>480.40000000000003</ele><time>2026-04-11T12:38:42.939Z</time></trkpt><trkpt lat="44.899165" lon="9.5444667"><ele>479.59999999999997</ele><time>2026-04-11T12:38:44.938Z</time></trkpt><trkpt lat="44.8990983" lon="9.5443317"><ele>478.79999999999995</ele><time>2026-04-11T12:38:46.937Z</time></trkpt><trkpt lat="44.8990733" lon="9.5441767"><ele>478.0</ele><time>2026-04-11T12:38:48.939Z</time></trkpt><trkpt lat="44.8990567" lon="9.5440683"><ele>478.00000000000006</ele><time>2026-04-11T12:38:50.937Z</time></trkpt><trkpt lat="44.8990183" lon="9.5439817"><ele>478.0</ele><time>2026-04-11T12:38:53.937Z</time></trkpt><trkpt lat="44.899005" lon="9.5438883"><ele>478.0</ele><time>2026-04-11T12:38:56.937Z</time></trkpt><trkpt lat="44.89901" lon="9.5437683"><ele>478.0</ele><time>2026-04-11T12:39:00.936Z</time></trkpt><trkpt lat="44.8990117" lon="9.5436567"><ele>478.00000000000006</ele><time>2026-04-11T12:39:03.938Z</time></trkpt><trkpt lat="44.8990267" lon="9.5435367"><ele>478.0</ele><time>2026-04-11T12:39:06.939Z</time></trkpt><trkpt lat="44.8990217" lon="9.5434383"><ele>477.0</ele><time>2026-04-11T12:39:08.939Z</time></trkpt><trkpt lat="44.8990017" lon="9.543335"><ele>475.99999999999994</ele><time>2026-04-11T12:39:10.936Z</time></trkpt><trkpt lat="44.8989633" lon="9.5432083"><ele>474.99999999999994</ele><time>2026-04-11T12:39:12.94Z</time></trkpt><trkpt lat="44.8989333" lon="9.5430517"><ele>474.0</ele><time>2026-04-11T12:39:14.938Z</time></trkpt><trkpt lat="44.8989083" lon="9.54295"><ele>473.0</ele><time>2026-04-11T12:39:15.937Z</time></trkpt><trkpt lat="44.8988867" lon="9.54283"><ele>472.66666666666663</ele><time>2026-04-11T12:39:16.941Z</time></trkpt><trkpt lat="44.8988567" lon="9.5427267"><ele>472.3333333333333</ele><time>2026-04-11T12:39:17.937Z</time></trkpt><trkpt lat="44.8988133" lon="9.54262"><ele>472.0</ele><time>2026-04-11T12:39:18.938Z</time></trkpt><trkpt lat="44.89877" lon="9.5425317"><ele>471.66666666666663</ele><time>2026-04-11T12:39:19.94Z</time></trkpt><trkpt lat="44.8987467" lon="9.542445"><ele>471.3333333333333</ele><time>2026-04-11T12:39:20.939Z</time></trkpt><trkpt lat="44.8986717" lon="9.5423567"><ele>471.0</ele><time>2026-04-11T12:39:22.938Z</time></trkpt><trkpt lat="44.8985767" lon="9.5423667"><ele>471.0</ele><time>2026-04-11T12:39:24.941Z</time></trkpt><trkpt lat="44.8985067" lon="9.5424883"><ele>471.0</ele><time>2026-04-11T12:39:26.939Z</time></trkpt><trkpt lat="44.8984833" lon="9.54258"><ele>471.0</ele><time>2026-04-11T12:39:27.943Z</time></trkpt><trkpt lat="44.898445" lon="9.54266"><ele>471.0</ele><time>2026-04-11T12:39:28.937Z</time></trkpt><trkpt lat="44.8983867" lon="9.5427167"><ele>471.0</ele><time>2026-04-11T12:39:29.94Z</time></trkpt><trkpt lat="44.89832" lon="9.5427617"><ele>471.0</ele><time>2026-04-11T12:39:30.938Z</time></trkpt><trkpt lat="44.89825" lon="9.5427983"><ele>469.0</ele><time>2026-04-11T12:39:31.938Z</time></trkpt><trkpt lat="44.8981783" lon="9.5428317"><ele>467.0</ele><time>2026-04-11T12:39:32.939Z</time></trkpt><trkpt lat="44.8981067" lon="9.5428667"><ele>465.0</ele><time>2026-04-11T12:39:33.945Z</time></trkpt><trkpt lat="44.8980283" lon="9.5428983"><ele>463.0</ele><time>2026-04-11T12:39:34.937Z</time></trkpt><trkpt lat="44.8979467" lon="9.5429233"><ele>461.0</ele><time>2026-04-11T12:39:35.94Z</time></trkpt><trkpt lat="44.8978617" lon="9.5429383"><ele>459.0</ele><time>2026-04-11T12:39:36.939Z</time></trkpt><trkpt lat="44.8977817" lon="9.5429467"><ele>459.0</ele><time>2026-04-11T12:39:37.939Z</time></trkpt><trkpt lat="44.8977" lon="9.5429483"><ele>459.0</ele><time>2026-04-11T12:39:38.939Z</time></trkpt><trkpt lat="44.8976183" lon="9.5429433"><ele>459.0</ele><time>2026-04-11T12:39:39.938Z</time></trkpt><trkpt lat="44.897535" lon="9.5429167"><ele>459.0</ele><time>2026-04-11T12:39:40.939Z</time></trkpt><trkpt lat="44.8974517" lon="9.54289"><ele>459.0</ele><time>2026-04-11T12:39:41.944Z</time></trkpt><trkpt lat="44.8973733" lon="9.5428633"><ele>459.0</ele><time>2026-04-11T12:39:42.938Z</time></trkpt><trkpt lat="44.89729" lon="9.542835"><ele>456.42857142857144</ele><time>2026-04-11T12:39:43.939Z</time></trkpt><trkpt lat="44.8972133" lon="9.5428167"><ele>453.85714285714283</ele><time>2026-04-11T12:39:44.939Z</time></trkpt><trkpt lat="44.89714" lon="9.5428033"><ele>451.2857142857143</ele><time>2026-04-11T12:39:45.938Z</time></trkpt><trkpt lat="44.8970667" lon="9.5427883"><ele>448.7142857142857</ele><time>2026-04-11T12:39:46.937Z</time></trkpt><trkpt lat="44.8969983" lon="9.5427717"><ele>446.1428571428571</ele><time>2026-04-11T12:39:47.938Z</time></trkpt><trkpt lat="44.89693" lon="9.5427483"><ele>443.57142857142856</ele><time>2026-04-11T12:39:48.939Z</time></trkpt><trkpt lat="44.89686" lon="9.54272"><ele>441.0</ele><time>2026-04-11T12:39:49.94Z</time></trkpt><trkpt lat="44.89679" lon="9.5426917"><ele>439.7142857142857</ele><time>2026-04-11T12:39:50.942Z</time></trkpt><trkpt lat="44.8967233" lon="9.5426633"><ele>438.42857142857144</ele><time>2026-04-11T12:39:51.939Z</time></trkpt><trkpt lat="44.8966567" lon="9.5426483"><ele>437.1428571428571</ele><time>2026-04-11T12:39:52.937Z</time></trkpt><trkpt lat="44.896585" lon="9.542655"><ele>435.8571428571429</ele><time>2026-04-11T12:39:53.94Z</time></trkpt><trkpt lat="44.896515" lon="9.5426817"><ele>434.57142857142856</ele><time>2026-04-11T12:39:54.94Z</time></trkpt><trkpt lat="44.896445" lon="9.5427183"><ele>433.2857142857143</ele><time>2026-04-11T12:39:55.938Z</time></trkpt><trkpt lat="44.89637" lon="9.5427483"><ele>432.0</ele><time>2026-04-11T12:39:56.938Z</time></trkpt><trkpt lat="44.8962917" lon="9.5427617"><ele>432.0</ele><time>2026-04-11T12:39:57.94Z</time></trkpt><trkpt lat="44.8962133" lon="9.5427617"><ele>432.0</ele><time>2026-04-11T12:39:58.939Z</time></trkpt><trkpt lat="44.8961333" lon="9.5427583"><ele>432.0</ele><time>2026-04-11T12:39:59.937Z</time></trkpt><trkpt lat="44.8960567" lon="9.54275"><ele>432.0</ele><time>2026-04-11T12:40:00.936Z</time></trkpt><trkpt lat="44.8959883" lon="9.542735"><ele>432.0</ele><time>2026-04-11T12:40:01.937Z</time></trkpt><trkpt lat="44.8959217" lon="9.5427017"><ele>432.0</ele><time>2026-04-11T12:40:02.937Z</time></trkpt><trkpt lat="44.8958533" lon="9.5426517"><ele>430.1666666666667</ele><time>2026-04-11T12:40:03.938Z</time></trkpt><trkpt lat="44.8957883" lon="9.5425967"><ele>428.33333333333337</ele><time>2026-04-11T12:40:04.938Z</time></trkpt><trkpt lat="44.8957267" lon="9.542535"><ele>426.5</ele><time>2026-04-11T12:40:05.937Z</time></trkpt><trkpt lat="44.8956617" lon="9.5424683"><ele>424.6666666666667</ele><time>2026-04-11T12:40:06.937Z</time></trkpt><trkpt lat="44.8955967" lon="9.5424033"><ele>422.83333333333337</ele><time>2026-04-11T12:40:07.938Z</time></trkpt><trkpt lat="44.8955367" lon="9.5423467"><ele>421.0</ele><time>2026-04-11T12:40:08.938Z</time></trkpt><trkpt lat="44.89544" lon="9.5422767"><ele>421.0</ele><time>2026-04-11T12:40:10.938Z</time></trkpt><trkpt lat="44.8953733" lon="9.542185"><ele>421.0</ele><time>2026-04-11T12:40:12.938Z</time></trkpt><trkpt lat="44.8953617" lon="9.5420717"><ele>421.0</ele><time>2026-04-11T12:40:14.941Z</time></trkpt><trkpt lat="44.8954217" lon="9.54189"><ele>421.0</ele><time>2026-04-11T12:40:16.937Z</time></trkpt><trkpt lat="44.8954717" lon="9.5417783"><ele>421.0</ele><time>2026-04-11T12:40:17.937Z</time></trkpt><trkpt lat="44.8955183" lon="9.5416567"><ele>419.50000000000006</ele><time>2026-04-11T12:40:18.939Z</time></trkpt><trkpt lat="44.89556" lon="9.5415367"><ele>418.0</ele><time>2026-04-11T12:40:19.938Z</time></trkpt><trkpt lat="44.8955817" lon="9.5414167"><ele>416.5</ele><time>2026-04-11T12:40:20.939Z</time></trkpt><trkpt lat="44.89559" lon="9.5413"><ele>415.0</ele><time>2026-04-11T12:40:21.939Z</time></trkpt><trkpt lat="44.8955967" lon="9.5411917"><ele>413.50000000000006</ele><time>2026-04-11T12:40:22.939Z</time></trkpt><trkpt lat="44.8956017" lon="9.54108"><ele>412.0</ele><time>2026-04-11T12:40:23.94Z</time></trkpt><trkpt lat="44.8956167" lon="9.5409733"><ele>411.6666666666667</ele><time>2026-04-11T12:40:24.938Z</time></trkpt><trkpt lat="44.895635" lon="9.540865"><ele>411.33333333333337</ele><time>2026-04-11T12:40:25.942Z</time></trkpt><trkpt lat="44.8956567" lon="9.5407617"><ele>411.0</ele><time>2026-04-11T12:40:26.94Z</time></trkpt><trkpt lat="44.8956767" lon="9.54065"><ele>410.66666666666663</ele><time>2026-04-11T12:40:27.938Z</time></trkpt><trkpt lat="44.8957017" lon="9.540535"><ele>410.3333333333333</ele><time>2026-04-11T12:40:28.937Z</time></trkpt><trkpt lat="44.895725" lon="9.5404217"><ele>410.0</ele><time>2026-04-11T12:40:29.936Z</time></trkpt><trkpt lat="44.8957517" lon="9.5403167"><ele>410.0</ele><time>2026-04-11T12:40:30.938Z</time></trkpt><trkpt lat="44.8957733" lon="9.5402217"><ele>410.0</ele><time>2026-04-11T12:40:31.939Z</time></trkpt><trkpt lat="44.8957883" lon="9.5401283"><ele>410.0</ele><time>2026-04-11T12:40:32.942Z</time></trkpt><trkpt lat="44.8957917" lon="9.5400283"><ele>410.0</ele><time>2026-04-11T12:40:33.936Z</time></trkpt><trkpt lat="44.89578" lon="9.5399383"><ele>410.0</ele><time>2026-04-11T12:40:34.937Z</time></trkpt><trkpt lat="44.8957533" lon="9.5398567"><ele>410.0</ele><time>2026-04-11T12:40:35.937Z</time></trkpt><trkpt lat="44.8957083" lon="9.5397733"><ele>410.0</ele><time>2026-04-11T12:40:36.938Z</time></trkpt><trkpt lat="44.8956467" lon="9.53969"><ele>410.0</ele><time>2026-04-11T12:40:37.936Z</time></trkpt><trkpt lat="44.89559" lon="9.539595"><ele>410.0</ele><time>2026-04-11T12:40:38.938Z</time></trkpt><trkpt lat="44.895545" lon="9.5395067"><ele>410.0</ele><time>2026-04-11T12:40:39.939Z</time></trkpt><trkpt lat="44.895495" lon="9.5394133"><ele>410.0</ele><time>2026-04-11T12:40:40.937Z</time></trkpt><trkpt lat="44.895445" lon="9.5393183"><ele>410.0</ele><time>2026-04-11T12:40:41.942Z</time></trkpt><trkpt lat="44.8953883" lon="9.5391567"><ele>410.3333333333333</ele><time>2026-04-11T12:40:43.939Z</time></trkpt><trkpt lat="44.895375" lon="9.539055"><ele>410.66666666666663</ele><time>2026-04-11T12:40:44.937Z</time></trkpt><trkpt lat="44.8953717" lon="9.538965"><ele>411.0</ele><time>2026-04-11T12:40:45.936Z</time></trkpt><trkpt lat="44.8953883" lon="9.5388617"><ele>411.33333333333337</ele><time>2026-04-11T12:40:46.941Z</time></trkpt><trkpt lat="44.8954233" lon="9.5387567"><ele>411.6666666666667</ele><time>2026-04-11T12:40:47.937Z</time></trkpt><trkpt lat="44.895485" lon="9.538665"><ele>412.0</ele><time>2026-04-11T12:40:48.939Z</time></trkpt><trkpt lat="44.8955767" lon="9.53859"><ele>410.0</ele><time>2026-04-11T12:40:49.937Z</time></trkpt><trkpt lat="44.8956583" lon="9.5385117"><ele>408.0</ele><time>2026-04-11T12:40:50.938Z</time></trkpt><trkpt lat="44.8957283" lon="9.5384283"><ele>406.0</ele><time>2026-04-11T12:40:51.938Z</time></trkpt><trkpt lat="44.8957883" lon="9.5383367"><ele>404.0</ele><time>2026-04-11T12:40:52.937Z</time></trkpt><trkpt lat="44.895845" lon="9.5382433"><ele>402.0</ele><time>2026-04-11T12:40:53.938Z</time></trkpt><trkpt lat="44.8958983" lon="9.5381467"><ele>403.5</ele><time>2026-04-11T12:40:54.938Z</time></trkpt><trkpt lat="44.8959483" lon="9.538045"><ele>405.0</ele><time>2026-04-11T12:40:55.938Z</time></trkpt><trkpt lat="44.8959767" lon="9.537945"><ele>406.5</ele><time>2026-04-11T12:40:56.938Z</time></trkpt><trkpt lat="44.8959933" lon="9.5378283"><ele>408.0</ele><time>2026-04-11T12:40:57.938Z</time></trkpt><trkpt lat="44.8960067" lon="9.5377133"><ele>409.5</ele><time>2026-04-11T12:40:58.938Z</time></trkpt><trkpt lat="44.8960017" lon="9.5375867"><ele>411.0</ele><time>2026-04-11T12:40:59.945Z</time></trkpt><trkpt lat="44.8959867" lon="9.5374767"><ele>411.0</ele><time>2026-04-11T12:41:00.937Z</time></trkpt><trkpt lat="44.8959467" lon="9.5373983"><ele>411.0</ele><time>2026-04-11T12:41:01.937Z</time></trkpt><trkpt lat="44.8958883" lon="9.537335"><ele>411.0</ele><time>2026-04-11T12:41:02.937Z</time></trkpt><trkpt lat="44.8958067" lon="9.537305"><ele>411.0</ele><time>2026-04-11T12:41:03.937Z</time></trkpt><trkpt lat="44.8957183" lon="9.5372717"><ele>411.0</ele><time>2026-04-11T12:41:04.937Z</time></trkpt><trkpt lat="44.8956267" lon="9.5372333"><ele>411.0</ele><time>2026-04-11T12:41:05.939Z</time></trkpt><trkpt lat="44.8955333" lon="9.53719"><ele>409.8</ele><time>2026-04-11T12:41:06.938Z</time></trkpt><trkpt lat="44.895455" lon="9.5371267"><ele>408.6</ele><time>2026-04-11T12:41:07.94Z</time></trkpt><trkpt lat="44.8953717" lon="9.5370217"><ele>407.4</ele><time>2026-04-11T12:41:09.939Z</time></trkpt><trkpt lat="44.895335" lon="9.536875"><ele>406.2</ele><time>2026-04-11T12:41:11.938Z</time></trkpt><trkpt lat="44.8953017" lon="9.5366883"><ele>405.0</ele><time>2026-04-11T12:41:13.937Z</time></trkpt><trkpt lat="44.8952833" lon="9.5365717"><ele>405.0</ele><time>2026-04-11T12:41:14.938Z</time></trkpt><trkpt lat="44.8952633" lon="9.53645"><ele>405.0</ele><time>2026-04-11T12:41:15.938Z</time></trkpt><trkpt lat="44.8952467" lon="9.53633"><ele>405.0</ele><time>2026-04-11T12:41:16.936Z</time></trkpt><trkpt lat="44.895225" lon="9.5362117"><ele>405.0</ele><time>2026-04-11T12:41:17.943Z</time></trkpt><trkpt lat="44.895205" lon="9.536095"><ele>405.0</ele><time>2026-04-11T12:41:18.937Z</time></trkpt><trkpt lat="44.895185" lon="9.5359883"><ele>405.0</ele><time>2026-04-11T12:41:19.938Z</time></trkpt><trkpt lat="44.89517" lon="9.5358783"><ele>406.0</ele><time>2026-04-11T12:41:20.938Z</time></trkpt><trkpt lat="44.8951567" lon="9.5357667"><ele>407.0</ele><time>2026-04-11T12:41:21.937Z</time></trkpt><trkpt lat="44.8951417" lon="9.5356517"><ele>408.0</ele><time>2026-04-11T12:41:22.937Z</time></trkpt><trkpt lat="44.8951233" lon="9.5355467"><ele>409.0</ele><time>2026-04-11T12:41:23.937Z</time></trkpt><trkpt lat="44.8951067" lon="9.5354383"><ele>410.0</ele><time>2026-04-11T12:41:24.938Z</time></trkpt><trkpt lat="44.8950917" lon="9.5353317"><ele>411.0</ele><time>2026-04-11T12:41:25.945Z</time></trkpt><trkpt lat="44.8950833" lon="9.5352317"><ele>407.1666666666667</ele><time>2026-04-11T12:41:26.939Z</time></trkpt><trkpt lat="44.8950767" lon="9.5351333"><ele>403.33333333333337</ele><time>2026-04-11T12:41:27.937Z</time></trkpt><trkpt lat="44.8950733" lon="9.53503"><ele>399.5</ele><time>2026-04-11T12:41:28.937Z</time></trkpt><trkpt lat="44.89507" lon="9.53493"><ele>395.6666666666667</ele><time>2026-04-11T12:41:29.938Z</time></trkpt><trkpt lat="44.89506" lon="9.5348367"><ele>391.83333333333337</ele><time>2026-04-11T12:41:30.938Z</time></trkpt><trkpt lat="44.8950417" lon="9.53475"><ele>388.0</ele><time>2026-04-11T12:41:31.937Z</time></trkpt><trkpt lat="44.8949883" lon="9.5346"><ele>389.1666666666667</ele><time>2026-04-11T12:41:33.938Z</time></trkpt><trkpt lat="44.894915" lon="9.5344667"><ele>390.33333333333337</ele><time>2026-04-11T12:41:35.939Z</time></trkpt><trkpt lat="44.8948633" lon="9.534405"><ele>391.5</ele><time>2026-04-11T12:41:36.938Z</time></trkpt><trkpt lat="44.8948067" lon="9.5343533"><ele>392.66666666666663</ele><time>2026-04-11T12:41:37.937Z</time></trkpt><trkpt lat="44.894745" lon="9.5343033"><ele>393.8333333333333</ele><time>2026-04-11T12:41:38.937Z</time></trkpt><trkpt lat="44.894625" lon="9.5343133"><ele>395.0</ele><time>2026-04-11T12:41:40.941Z</time></trkpt><trkpt lat="44.894555" lon="9.534345"><ele>394.99999999999994</ele><time>2026-04-11T12:41:41.937Z</time></trkpt><trkpt lat="44.8944833" lon="9.5343933"><ele>395.0</ele><time>2026-04-11T12:41:42.937Z</time></trkpt><trkpt lat="44.8944167" lon="9.5344467"><ele>395.0</ele><time>2026-04-11T12:41:43.937Z</time></trkpt><trkpt lat="44.8943533" lon="9.5345017"><ele>395.0</ele><time>2026-04-11T12:41:44.938Z</time></trkpt><trkpt lat="44.8942933" lon="9.5345617"><ele>394.99999999999994</ele><time>2026-04-11T12:41:45.938Z</time></trkpt><trkpt lat="44.8942317" lon="9.5346267"><ele>395.0</ele><time>2026-04-11T12:41:46.937Z</time></trkpt><trkpt lat="44.89417" lon="9.534685"><ele>390.4</ele><time>2026-04-11T12:41:47.939Z</time></trkpt><trkpt lat="44.8941067" lon="9.5347317"><ele>385.8</ele><time>2026-04-11T12:41:48.938Z</time></trkpt><trkpt lat="44.8940417" lon="9.534765"><ele>381.20000000000005</ele><time>2026-04-11T12:41:49.938Z</time></trkpt><trkpt lat="44.8939217" lon="9.5347817"><ele>376.6</ele><time>2026-04-11T12:41:51.938Z</time></trkpt><trkpt lat="44.893815" lon="9.5347467"><ele>372.0</ele><time>2026-04-11T12:41:53.941Z</time></trkpt><trkpt lat="44.8937717" lon="9.534615"><ele>372.8333333333333</ele><time>2026-04-11T12:41:55.937Z</time></trkpt><trkpt lat="44.893775" lon="9.53451"><ele>373.6666666666667</ele><time>2026-04-11T12:41:56.938Z</time></trkpt><trkpt lat="44.893775" lon="9.53439"><ele>374.5</ele><time>2026-04-11T12:41:57.943Z</time></trkpt><trkpt lat="44.8937783" lon="9.53426"><ele>375.33333333333337</ele><time>2026-04-11T12:41:58.937Z</time></trkpt><trkpt lat="44.893775" lon="9.5341217"><ele>376.1666666666667</ele><time>2026-04-11T12:41:59.937Z</time></trkpt><trkpt lat="44.89376" lon="9.5339833"><ele>377.0</ele><time>2026-04-11T12:42:00.937Z</time></trkpt><trkpt lat="44.8937367" lon="9.5338533"><ele>377.0</ele><time>2026-04-11T12:42:01.937Z</time></trkpt><trkpt lat="44.8937" lon="9.53374"><ele>377.0</ele><time>2026-04-11T12:42:02.937Z</time></trkpt><trkpt lat="44.893665" lon="9.5336483"><ele>377.0</ele><time>2026-04-11T12:42:03.938Z</time></trkpt><trkpt lat="44.8936017" lon="9.5335083"><ele>377.0</ele><time>2026-04-11T12:42:05.937Z</time></trkpt><trkpt lat="44.89353" lon="9.53336"><ele>377.0</ele><time>2026-04-11T12:42:07.937Z</time></trkpt><trkpt lat="44.8935" lon="9.53327"><ele>376.20000000000005</ele><time>2026-04-11T12:42:08.937Z</time></trkpt><trkpt lat="44.89345" lon="9.533125"><ele>375.4</ele><time>2026-04-11T12:42:10.937Z</time></trkpt><trkpt lat="44.8933833" lon="9.5330367"><ele>374.6</ele><time>2026-04-11T12:42:12.937Z</time></trkpt><trkpt lat="44.8933033" lon="9.5330767"><ele>373.79999999999995</ele><time>2026-04-11T12:42:14.941Z</time></trkpt><trkpt lat="44.8932433" lon="9.533235"><ele>373.0</ele><time>2026-04-11T12:42:16.938Z</time></trkpt><trkpt lat="44.8932183" lon="9.533345"><ele>369.66666666666663</ele><time>2026-04-11T12:42:17.938Z</time></trkpt><trkpt lat="44.893195" lon="9.53346"><ele>366.3333333333333</ele><time>2026-04-11T12:42:18.937Z</time></trkpt><trkpt lat="44.8931667" lon="9.5335767"><ele>363.0</ele><time>2026-04-11T12:42:19.937Z</time></trkpt><trkpt lat="44.893135" lon="9.5336933"><ele>359.6666666666667</ele><time>2026-04-11T12:42:20.939Z</time></trkpt><trkpt lat="44.8930983" lon="9.53381"><ele>356.33333333333337</ele><time>2026-04-11T12:42:21.937Z</time></trkpt><trkpt lat="44.89306" lon="9.533925"><ele>353.0</ele><time>2026-04-11T12:42:22.937Z</time></trkpt><trkpt lat="44.8930217" lon="9.53403"><ele>353.0</ele><time>2026-04-11T12:42:23.939Z</time></trkpt><trkpt lat="44.892985" lon="9.534125"><ele>353.0</ele><time>2026-04-11T12:42:24.937Z</time></trkpt><trkpt lat="44.892945" lon="9.5342167"><ele>353.0</ele><time>2026-04-11T12:42:25.938Z</time></trkpt><trkpt lat="44.8929033" lon="9.534305"><ele>353.0</ele><time>2026-04-11T12:42:26.939Z</time></trkpt><trkpt lat="44.8928583" lon="9.53439"><ele>353.0</ele><time>2026-04-11T12:42:27.938Z</time></trkpt><trkpt lat="44.8928133" lon="9.53447"><ele>353.0</ele><time>2026-04-11T12:42:28.937Z</time></trkpt><trkpt lat="44.892765" lon="9.534545"><ele>353.0</ele><time>2026-04-11T12:42:29.938Z</time></trkpt><trkpt lat="44.892715" lon="9.5346267"><ele>353.1666666666667</ele><time>2026-04-11T12:42:30.939Z</time></trkpt><trkpt lat="44.89267" lon="9.5347167"><ele>353.33333333333337</ele><time>2026-04-11T12:42:31.938Z</time></trkpt><trkpt lat="44.8926367" lon="9.53481"><ele>353.5</ele><time>2026-04-11T12:42:32.939Z</time></trkpt><trkpt lat="44.8926117" lon="9.534905"><ele>353.6666666666667</ele><time>2026-04-11T12:42:33.939Z</time></trkpt><trkpt lat="44.8925883" lon="9.535015"><ele>353.8333333333333</ele><time>2026-04-11T12:42:34.937Z</time></trkpt><trkpt lat="44.8925717" lon="9.5351333"><ele>354.0</ele><time>2026-04-11T12:42:35.937Z</time></trkpt><trkpt lat="44.8925583" lon="9.5352533"><ele>350.42857142857144</ele><time>2026-04-11T12:42:36.937Z</time></trkpt><trkpt lat="44.8925483" lon="9.53536"><ele>346.85714285714283</ele><time>2026-04-11T12:42:37.937Z</time></trkpt><trkpt lat="44.8925383" lon="9.5354633"><ele>343.2857142857143</ele><time>2026-04-11T12:42:38.938Z</time></trkpt><trkpt lat="44.89253" lon="9.5355583"><ele>339.7142857142857</ele><time>2026-04-11T12:42:39.937Z</time></trkpt><trkpt lat="44.892525" lon="9.5356583"><ele>336.1428571428571</ele><time>2026-04-11T12:42:40.937Z</time></trkpt><trkpt lat="44.8925217" lon="9.535765"><ele>332.57142857142856</ele><time>2026-04-11T12:42:41.937Z</time></trkpt><trkpt lat="44.8925217" lon="9.535875"><ele>329.0</ele><time>2026-04-11T12:42:42.938Z</time></trkpt><trkpt lat="44.89254" lon="9.53599"><ele>330.0</ele><time>2026-04-11T12:42:43.937Z</time></trkpt><trkpt lat="44.8925817" lon="9.5361067"><ele>331.0</ele><time>2026-04-11T12:42:44.938Z</time></trkpt><trkpt lat="44.89263" lon="9.5362183"><ele>332.0</ele><time>2026-04-11T12:42:45.938Z</time></trkpt><trkpt lat="44.892675" lon="9.5363167"><ele>333.0</ele><time>2026-04-11T12:42:46.937Z</time></trkpt><trkpt lat="44.8927133" lon="9.5364167"><ele>334.0</ele><time>2026-04-11T12:42:47.943Z</time></trkpt><trkpt lat="44.8927433" lon="9.5365233"><ele>335.0</ele><time>2026-04-11T12:42:48.937Z</time></trkpt><trkpt lat="44.892765" lon="9.5366367"><ele>335.0</ele><time>2026-04-11T12:42:49.937Z</time></trkpt><trkpt lat="44.8927733" lon="9.5367467"><ele>335.0</ele><time>2026-04-11T12:42:50.937Z</time></trkpt><trkpt lat="44.8927617" lon="9.5368383"><ele>335.0</ele><time>2026-04-11T12:42:51.938Z</time></trkpt><trkpt lat="44.89273" lon="9.5369333"><ele>335.0</ele><time>2026-04-11T12:42:52.938Z</time></trkpt><trkpt lat="44.892675" lon="9.5370067"><ele>335.0</ele><time>2026-04-11T12:42:53.937Z</time></trkpt><trkpt lat="44.8925983" lon="9.5370483"><ele>335.0</ele><time>2026-04-11T12:42:54.937Z</time></trkpt><trkpt lat="44.8925167" lon="9.5370767"><ele>334.4285714285714</ele><time>2026-04-11T12:42:55.938Z</time></trkpt><trkpt lat="44.892445" lon="9.5370967"><ele>333.85714285714283</ele><time>2026-04-11T12:42:56.938Z</time></trkpt><trkpt lat="44.8923717" lon="9.5371083"><ele>333.2857142857143</ele><time>2026-04-11T12:42:57.938Z</time></trkpt><trkpt lat="44.8922967" lon="9.5371033"><ele>332.71428571428567</ele><time>2026-04-11T12:42:58.941Z</time></trkpt><trkpt lat="44.89223" lon="9.537065"><ele>332.1428571428571</ele><time>2026-04-11T12:42:59.939Z</time></trkpt><trkpt lat="44.8921667" lon="9.5370067"><ele>331.57142857142856</ele><time>2026-04-11T12:43:00.938Z</time></trkpt><trkpt lat="44.8921133" lon="9.5369233"><ele>331.0</ele><time>2026-04-11T12:43:01.938Z</time></trkpt><trkpt lat="44.89206" lon="9.536835"><ele>328.6</ele><time>2026-04-11T12:43:02.939Z</time></trkpt><trkpt lat="44.89201" lon="9.5367383"><ele>326.20000000000005</ele><time>2026-04-11T12:43:03.938Z</time></trkpt><trkpt lat="44.8919617" lon="9.5366567"><ele>323.79999999999995</ele><time>2026-04-11T12:43:04.939Z</time></trkpt><trkpt lat="44.8919083" lon="9.5365983"><ele>321.4</ele><time>2026-04-11T12:43:05.937Z</time></trkpt><trkpt lat="44.8917933" lon="9.5365717"><ele>319.0</ele><time>2026-04-11T12:43:07.938Z</time></trkpt><trkpt lat="44.8917017" lon="9.536685"><ele>319.3333333333333</ele><time>2026-04-11T12:43:09.937Z</time></trkpt><trkpt lat="44.8916683" lon="9.536785"><ele>319.66666666666663</ele><time>2026-04-11T12:43:10.943Z</time></trkpt><trkpt lat="44.8916383" lon="9.5368783"><ele>320.0</ele><time>2026-04-11T12:43:11.937Z</time></trkpt><trkpt lat="44.8916067" lon="9.5369567"><ele>320.3333333333333</ele><time>2026-04-11T12:43:12.937Z</time></trkpt><trkpt lat="44.8915533" lon="9.5370233"><ele>320.6666666666667</ele><time>2026-04-11T12:43:13.937Z</time></trkpt><trkpt lat="44.89148" lon="9.5370783"><ele>321.0</ele><time>2026-04-11T12:43:14.938Z</time></trkpt><trkpt lat="44.8913983" lon="9.5371"><ele>321.0</ele><time>2026-04-11T12:43:15.937Z</time></trkpt><trkpt lat="44.8913067" lon="9.5370717"><ele>321.0</ele><time>2026-04-11T12:43:16.944Z</time></trkpt><trkpt lat="44.89122" lon="9.53702"><ele>321.0</ele><time>2026-04-11T12:43:17.938Z</time></trkpt><trkpt lat="44.8911567" lon="9.536975"><ele>321.0</ele><time>2026-04-11T12:43:18.937Z</time></trkpt><trkpt lat="44.891055" lon="9.5369133"><ele>321.0</ele><time>2026-04-11T12:43:20.938Z</time></trkpt><trkpt lat="44.8909367" lon="9.53694"><ele>318.6666666666667</ele><time>2026-04-11T12:43:22.938Z</time></trkpt><trkpt lat="44.89088" lon="9.5370033"><ele>316.3333333333333</ele><time>2026-04-11T12:43:23.937Z</time></trkpt><trkpt lat="44.890815" lon="9.53709"><ele>314.0</ele><time>2026-04-11T12:43:24.937Z</time></trkpt><trkpt lat="44.8907483" lon="9.5371883"><ele>311.66666666666663</ele><time>2026-04-11T12:43:25.938Z</time></trkpt><trkpt lat="44.8906883" lon="9.53728"><ele>309.3333333333333</ele><time>2026-04-11T12:43:26.939Z</time></trkpt><trkpt lat="44.8906267" lon="9.5373567"><ele>307.0</ele><time>2026-04-11T12:43:27.937Z</time></trkpt><trkpt lat="44.8905567" lon="9.5374083"><ele>307.0</ele><time>2026-04-11T12:43:28.938Z</time></trkpt><trkpt lat="44.89049" lon="9.537415"><ele>307.0</ele><time>2026-04-11T12:43:29.937Z</time></trkpt><trkpt lat="44.8904283" lon="9.5373883"><ele>307.0</ele><time>2026-04-11T12:43:30.943Z</time></trkpt><trkpt lat="44.8903767" lon="9.5373183"><ele>307.0</ele><time>2026-04-11T12:43:31.937Z</time></trkpt><trkpt lat="44.8903533" lon="9.5372033"><ele>307.0</ele><time>2026-04-11T12:43:32.939Z</time></trkpt><trkpt lat="44.89033" lon="9.5370883"><ele>307.0</ele><time>2026-04-11T12:43:33.938Z</time></trkpt><trkpt lat="44.8903083" lon="9.5369767"><ele>305.3333333333333</ele><time>2026-04-11T12:43:34.937Z</time></trkpt><trkpt lat="44.8902833" lon="9.5368733"><ele>303.66666666666663</ele><time>2026-04-11T12:43:35.937Z</time></trkpt><trkpt lat="44.8902433" lon="9.5367967"><ele>302.0</ele><time>2026-04-11T12:43:36.938Z</time></trkpt><trkpt lat="44.8901733" lon="9.536755"><ele>300.3333333333333</ele><time>2026-04-11T12:43:37.942Z</time></trkpt><trkpt lat="44.8900917" lon="9.536745"><ele>298.6666666666667</ele><time>2026-04-11T12:43:38.937Z</time></trkpt><trkpt lat="44.890015" lon="9.5367667"><ele>297.0</ele><time>2026-04-11T12:43:39.937Z</time></trkpt><trkpt lat="44.88995" lon="9.5368233"><ele>296.1666666666667</ele><time>2026-04-11T12:43:40.937Z</time></trkpt><trkpt lat="44.8898933" lon="9.5368867"><ele>295.3333333333333</ele><time>2026-04-11T12:43:41.937Z</time></trkpt><trkpt lat="44.8898367" lon="9.536945"><ele>294.5</ele><time>2026-04-11T12:43:42.938Z</time></trkpt><trkpt lat="44.8897783" lon="9.5369967"><ele>293.66666666666663</ele><time>2026-04-11T12:43:43.937Z</time></trkpt><trkpt lat="44.8897017" lon="9.5370367"><ele>292.8333333333333</ele><time>2026-04-11T12:43:44.945Z</time></trkpt><trkpt lat="44.8896117" lon="9.5370583"><ele>292.0</ele><time>2026-04-11T12:43:45.937Z</time></trkpt><trkpt lat="44.8895217" lon="9.5370717"><ele>292.0</ele><time>2026-04-11T12:43:46.938Z</time></trkpt><trkpt lat="44.889425" lon="9.5370767"><ele>292.0</ele><time>2026-04-11T12:43:47.937Z</time></trkpt><trkpt lat="44.889335" lon="9.53708"><ele>292.0</ele><time>2026-04-11T12:43:48.938Z</time></trkpt><trkpt lat="44.88925" lon="9.5370867"><ele>292.0</ele><time>2026-04-11T12:43:49.938Z</time></trkpt><trkpt lat="44.889165" lon="9.537095"><ele>292.0</ele><time>2026-04-11T12:43:50.943Z</time></trkpt><trkpt lat="44.889085" lon="9.537115"><ele>292.0</ele><time>2026-04-11T12:43:51.939Z</time></trkpt><trkpt lat="44.889005" lon="9.5371583"><ele>290.16666666666663</ele><time>2026-04-11T12:43:52.937Z</time></trkpt><trkpt lat="44.8889483" lon="9.5372283"><ele>288.3333333333333</ele><time>2026-04-11T12:43:53.938Z</time></trkpt><trkpt lat="44.8889017" lon="9.5373183"><ele>286.5</ele><time>2026-04-11T12:43:54.937Z</time></trkpt><trkpt lat="44.8888667" lon="9.5374283"><ele>284.6666666666667</ele><time>2026-04-11T12:43:55.938Z</time></trkpt><trkpt lat="44.8888333" lon="9.5375583"><ele>282.83333333333337</ele><time>2026-04-11T12:43:56.938Z</time></trkpt><trkpt lat="44.88881" lon="9.5376817"><ele>281.0</ele><time>2026-04-11T12:43:57.937Z</time></trkpt><trkpt lat="44.88878" lon="9.5378"><ele>281.83333333333337</ele><time>2026-04-11T12:43:58.944Z</time></trkpt><trkpt lat="44.8887517" lon="9.5379083"><ele>282.6666666666667</ele><time>2026-04-11T12:43:59.938Z</time></trkpt><trkpt lat="44.8887183" lon="9.5380167"><ele>283.5</ele><time>2026-04-11T12:44:00.937Z</time></trkpt><trkpt lat="44.8886817" lon="9.5381167"><ele>284.3333333333333</ele><time>2026-04-11T12:44:01.937Z</time></trkpt><trkpt lat="44.8886283" lon="9.5382117"><ele>285.16666666666663</ele><time>2026-04-11T12:44:02.939Z</time></trkpt><trkpt lat="44.8885567" lon="9.5383017"><ele>286.0</ele><time>2026-04-11T12:44:03.945Z</time></trkpt><trkpt lat="44.88848" lon="9.5383767"><ele>282.8333333333333</ele><time>2026-04-11T12:44:04.937Z</time></trkpt><trkpt lat="44.8884017" lon="9.538445"><ele>279.66666666666663</ele><time>2026-04-11T12:44:05.938Z</time></trkpt><trkpt lat="44.8883267" lon="9.5385017"><ele>276.5</ele><time>2026-04-11T12:44:06.937Z</time></trkpt><trkpt lat="44.8882483" lon="9.5385417"><ele>273.3333333333333</ele><time>2026-04-11T12:44:07.937Z</time></trkpt><trkpt lat="44.88817" lon="9.538565"><ele>270.1666666666667</ele><time>2026-04-11T12:44:08.938Z</time></trkpt><trkpt lat="44.8881017" lon="9.5385483"><ele>267.0</ele><time>2026-04-11T12:44:09.943Z</time></trkpt><trkpt lat="44.8880333" lon="9.5385167"><ele>267.0</ele><time>2026-04-11T12:44:10.938Z</time></trkpt><trkpt lat="44.8879717" lon="9.5384617"><ele>267.0</ele><time>2026-04-11T12:44:11.938Z</time></trkpt><trkpt lat="44.8879133" lon="9.5383783"><ele>267.0</ele><time>2026-04-11T12:44:12.938Z</time></trkpt><trkpt lat="44.88786" lon="9.538285"><ele>267.0</ele><time>2026-04-11T12:44:13.939Z</time></trkpt><trkpt lat="44.887805" lon="9.53817"><ele>267.0</ele><time>2026-04-11T12:44:14.943Z</time></trkpt><trkpt lat="44.887745" lon="9.538055"><ele>267.0</ele><time>2026-04-11T12:44:15.937Z</time></trkpt><trkpt lat="44.887675" lon="9.53795"><ele>266.4</ele><time>2026-04-11T12:44:16.937Z</time></trkpt><trkpt lat="44.88761" lon="9.5378233"><ele>265.79999999999995</ele><time>2026-04-11T12:44:17.938Z</time></trkpt><trkpt lat="44.88755" lon="9.537705"><ele>265.2</ele><time>2026-04-11T12:44:18.937Z</time></trkpt><trkpt lat="44.8874917" lon="9.537595"><ele>264.59999999999997</ele><time>2026-04-11T12:44:19.939Z</time></trkpt><trkpt lat="44.887435" lon="9.537495"><ele>264.0</ele><time>2026-04-11T12:44:20.937Z</time></trkpt><trkpt lat="44.887375" lon="9.5373983"><ele>261.3333333333333</ele><time>2026-04-11T12:44:21.937Z</time></trkpt><trkpt lat="44.8873183" lon="9.5373083"><ele>258.6666666666667</ele><time>2026-04-11T12:44:22.937Z</time></trkpt><trkpt lat="44.8872633" lon="9.53723"><ele>256.0</ele><time>2026-04-11T12:44:23.946Z</time></trkpt><trkpt lat="44.8872017" lon="9.5371767"><ele>253.33333333333334</ele><time>2026-04-11T12:44:24.936Z</time></trkpt><trkpt lat="44.8871333" lon="9.5371417"><ele>250.66666666666669</ele><time>2026-04-11T12:44:25.936Z</time></trkpt><trkpt lat="44.8870567" lon="9.5371333"><ele>248.0</ele><time>2026-04-11T12:44:26.937Z</time></trkpt><trkpt lat="44.8869833" lon="9.53715"><ele>248.00000000000003</ele><time>2026-04-11T12:44:27.938Z</time></trkpt><trkpt lat="44.88691" lon="9.53718"><ele>248.0</ele><time>2026-04-11T12:44:28.938Z</time></trkpt><trkpt lat="44.8868367" lon="9.5372183"><ele>248.0</ele><time>2026-04-11T12:44:29.938Z</time></trkpt><trkpt lat="44.8867617" lon="9.5372633"><ele>248.0</ele><time>2026-04-11T12:44:30.936Z</time></trkpt><trkpt lat="44.8866883" lon="9.5373133"><ele>248.00000000000003</ele><time>2026-04-11T12:44:31.937Z</time></trkpt><trkpt lat="44.8866167" lon="9.53738"><ele>248.0</ele><time>2026-04-11T12:44:32.937Z</time></trkpt><trkpt lat="44.886545" lon="9.5374567"><ele>247.50000000000003</ele><time>2026-04-11T12:44:33.94Z</time></trkpt><trkpt lat="44.8864783" lon="9.5375483"><ele>247.0</ele><time>2026-04-11T12:44:34.937Z</time></trkpt><trkpt lat="44.88642" lon="9.5376483"><ele>246.5</ele><time>2026-04-11T12:44:35.936Z</time></trkpt><trkpt lat="44.886365" lon="9.5377467"><ele>246.0</ele><time>2026-04-11T12:44:36.941Z</time></trkpt><trkpt lat="44.886305" lon="9.5378333"><ele>245.50000000000003</ele><time>2026-04-11T12:44:37.936Z</time></trkpt><trkpt lat="44.8862367" lon="9.5379017"><ele>245.0</ele><time>2026-04-11T12:44:38.937Z</time></trkpt><trkpt lat="44.8861517" lon="9.5379383"><ele>246.33333333333334</ele><time>2026-04-11T12:44:39.937Z</time></trkpt><trkpt lat="44.8860683" lon="9.5379483"><ele>247.66666666666669</ele><time>2026-04-11T12:44:40.936Z</time></trkpt><trkpt lat="44.8859933" lon="9.5379417"><ele>249.0</ele><time>2026-04-11T12:44:41.936Z</time></trkpt><trkpt lat="44.8859233" lon="9.5379367"><ele>250.33333333333331</ele><time>2026-04-11T12:44:42.936Z</time></trkpt><trkpt lat="44.8858467" lon="9.53794"><ele>251.66666666666666</ele><time>2026-04-11T12:44:43.936Z</time></trkpt><trkpt lat="44.8857667" lon="9.5379583"><ele>253.0</ele><time>2026-04-11T12:44:44.937Z</time></trkpt><trkpt lat="44.88569" lon="9.537975"><ele>252.99999999999997</ele><time>2026-04-11T12:44:45.936Z</time></trkpt><trkpt lat="44.8856167" lon="9.5379833"><ele>253.0</ele><time>2026-04-11T12:44:46.936Z</time></trkpt><trkpt lat="44.8855417" lon="9.5379817"><ele>253.0</ele><time>2026-04-11T12:44:47.939Z</time></trkpt><trkpt lat="44.8854617" lon="9.5379683"><ele>253.0</ele><time>2026-04-11T12:44:48.936Z</time></trkpt><trkpt lat="44.8853767" lon="9.5379567"><ele>252.99999999999997</ele><time>2026-04-11T12:44:49.938Z</time></trkpt><trkpt lat="44.8852983" lon="9.5379517"><ele>253.0</ele><time>2026-04-11T12:44:50.938Z</time></trkpt><trkpt lat="44.8852217" lon="9.5379683"><ele>253.0</ele><time>2026-04-11T12:44:51.937Z</time></trkpt><trkpt lat="44.8851367" lon="9.5380067"><ele>253.0</ele><time>2026-04-11T12:44:52.937Z</time></trkpt><trkpt lat="44.8850467" lon="9.538055"><ele>253.0</ele><time>2026-04-11T12:44:53.936Z</time></trkpt><trkpt lat="44.8849517" lon="9.53811"><ele>253.0</ele><time>2026-04-11T12:44:54.941Z</time></trkpt><trkpt lat="44.884855" lon="9.5381633"><ele>253.0</ele><time>2026-04-11T12:44:55.937Z</time></trkpt><trkpt lat="44.8847533" lon="9.5382133"><ele>250.8</ele><time>2026-04-11T12:44:56.937Z</time></trkpt><trkpt lat="44.8846533" lon="9.5382683"><ele>248.60000000000002</ele><time>2026-04-11T12:44:57.937Z</time></trkpt><trkpt lat="44.8845583" lon="9.538325"><ele>246.39999999999998</ele><time>2026-04-11T12:44:58.937Z</time></trkpt><trkpt lat="44.8844667" lon="9.5383817"><ele>244.2</ele><time>2026-04-11T12:44:59.937Z</time></trkpt><trkpt lat="44.8843733" lon="9.5384333"><ele>242.0</ele><time>2026-04-11T12:45:00.937Z</time></trkpt><trkpt lat="44.8842817" lon="9.5384883"><ele>240.8</ele><time>2026-04-11T12:45:01.936Z</time></trkpt><trkpt lat="44.88419" lon="9.538545"><ele>239.6</ele><time>2026-04-11T12:45:02.938Z</time></trkpt><trkpt lat="44.8841" lon="9.5386033"><ele>238.40000000000003</ele><time>2026-04-11T12:45:03.937Z</time></trkpt><trkpt lat="44.8840083" lon="9.5386633"><ele>237.20000000000002</ele><time>2026-04-11T12:45:04.936Z</time></trkpt><trkpt lat="44.8839183" lon="9.5387267"><ele>236.0</ele><time>2026-04-11T12:45:05.936Z</time></trkpt><trkpt lat="44.883825" lon="9.5387883"><ele>235.4</ele><time>2026-04-11T12:45:06.938Z</time></trkpt><trkpt lat="44.88373" lon="9.538845"><ele>234.8</ele><time>2026-04-11T12:45:07.938Z</time></trkpt><trkpt lat="44.88363" lon="9.5388967"><ele>234.20000000000002</ele><time>2026-04-11T12:45:08.938Z</time></trkpt><trkpt lat="44.8835233" lon="9.5389233"><ele>233.60000000000002</ele><time>2026-04-11T12:45:09.937Z</time></trkpt><trkpt lat="44.88342" lon="9.5389283"><ele>233.0</ele><time>2026-04-11T12:45:10.937Z</time></trkpt><trkpt lat="44.8833167" lon="9.53894"><ele>233.0</ele><time>2026-04-11T12:45:11.941Z</time></trkpt><trkpt lat="44.883215" lon="9.5389717"><ele>233.0</ele><time>2026-04-11T12:45:12.938Z</time></trkpt><trkpt lat="44.8831083" lon="9.53902"><ele>233.0</ele><time>2026-04-11T12:45:13.938Z</time></trkpt><trkpt lat="44.883005" lon="9.5390783"><ele>233.0</ele><time>2026-04-11T12:45:14.938Z</time></trkpt><trkpt lat="44.8829033" lon="9.5391433"><ele>233.0</ele><time>2026-04-11T12:45:15.938Z</time></trkpt><trkpt lat="44.882805" lon="9.5392117"><ele>233.0</ele><time>2026-04-11T12:45:16.937Z</time></trkpt><trkpt lat="44.8827067" lon="9.5392733"><ele>233.0</ele><time>2026-04-11T12:45:17.94Z</time></trkpt><trkpt lat="44.8826067" lon="9.5393283"><ele>233.0</ele><time>2026-04-11T12:45:18.937Z</time></trkpt><trkpt lat="44.882505" lon="9.5393617"><ele>233.0</ele><time>2026-04-11T12:45:19.937Z</time></trkpt><trkpt lat="44.8824067" lon="9.5393783"><ele>233.0</ele><time>2026-04-11T12:45:20.938Z</time></trkpt><trkpt lat="44.8823217" lon="9.539395"><ele>232.60000000000002</ele><time>2026-04-11T12:45:21.94Z</time></trkpt><trkpt lat="44.8822333" lon="9.5394183"><ele>232.20000000000002</ele><time>2026-04-11T12:45:22.937Z</time></trkpt><trkpt lat="44.8821467" lon="9.5394617"><ele>231.8</ele><time>2026-04-11T12:45:23.939Z</time></trkpt><trkpt lat="44.88206" lon="9.539525"><ele>231.4</ele><time>2026-04-11T12:45:24.937Z</time></trkpt><trkpt lat="44.8819883" lon="9.5396133"><ele>231.0</ele><time>2026-04-11T12:45:25.938Z</time></trkpt><trkpt lat="44.88192" lon="9.539705"><ele>229.0</ele><time>2026-04-11T12:45:26.941Z</time></trkpt><trkpt lat="44.8818517" lon="9.5398033"><ele>227.00000000000003</ele><time>2026-04-11T12:45:27.938Z</time></trkpt><trkpt lat="44.8817833" lon="9.5399033"><ele>225.00000000000003</ele><time>2026-04-11T12:45:28.939Z</time></trkpt><trkpt lat="44.881725" lon="9.54002"><ele>223.0</ele><time>2026-04-11T12:45:29.938Z</time></trkpt><trkpt lat="44.8816567" lon="9.5401433"><ele>221.0</ele><time>2026-04-11T12:45:30.937Z</time></trkpt><trkpt lat="44.8815967" lon="9.5402817"><ele>223.4</ele><time>2026-04-11T12:45:31.937Z</time></trkpt><trkpt lat="44.8815333" lon="9.5404133"><ele>225.8</ele><time>2026-04-11T12:45:32.938Z</time></trkpt><trkpt lat="44.8814667" lon="9.5405367"><ele>228.20000000000002</ele><time>2026-04-11T12:45:33.939Z</time></trkpt><trkpt lat="44.8814" lon="9.5406617"><ele>230.60000000000002</ele><time>2026-04-11T12:45:34.937Z</time></trkpt><trkpt lat="44.8813217" lon="9.5407767"><ele>233.0</ele><time>2026-04-11T12:45:35.937Z</time></trkpt><trkpt lat="44.8812467" lon="9.540895"><ele>233.0</ele><time>2026-04-11T12:45:36.936Z</time></trkpt><trkpt lat="44.8811683" lon="9.5410067"><ele>233.0</ele><time>2026-04-11T12:45:37.943Z</time></trkpt><trkpt lat="44.88109" lon="9.5411083"><ele>233.0</ele><time>2026-04-11T12:45:38.938Z</time></trkpt><trkpt lat="44.8810067" lon="9.5411983"><ele>233.0</ele><time>2026-04-11T12:45:39.936Z</time></trkpt><trkpt lat="44.8809217" lon="9.5412817"><ele>233.0</ele><time>2026-04-11T12:45:40.936Z</time></trkpt><trkpt lat="44.8808367" lon="9.5413533"><ele>230.8</ele><time>2026-04-11T12:45:41.939Z</time></trkpt><trkpt lat="44.8807533" lon="9.541415"><ele>228.60000000000002</ele><time>2026-04-11T12:45:42.938Z</time></trkpt><trkpt lat="44.8806667" lon="9.54147"><ele>226.39999999999998</ele><time>2026-04-11T12:45:43.939Z</time></trkpt><trkpt lat="44.880585" lon="9.54152"><ele>224.2</ele><time>2026-04-11T12:45:44.939Z</time></trkpt><trkpt lat="44.8805017" lon="9.541565"><ele>222.0</ele><time>2026-04-11T12:45:45.944Z</time></trkpt><trkpt lat="44.8804183" lon="9.5416067"><ele>222.0</ele><time>2026-04-11T12:45:46.938Z</time></trkpt><trkpt lat="44.880345" lon="9.5416633"><ele>222.0</ele><time>2026-04-11T12:45:47.939Z</time></trkpt><trkpt lat="44.8802717" lon="9.5417417"><ele>222.0</ele><time>2026-04-11T12:45:48.939Z</time></trkpt><trkpt lat="44.880195" lon="9.54183"><ele>222.0</ele><time>2026-04-11T12:45:49.937Z</time></trkpt><trkpt lat="44.8801183" lon="9.5419267"><ele>222.0</ele><time>2026-04-11T12:45:50.939Z</time></trkpt><trkpt lat="44.88006" lon="9.5420233"><ele>221.33333333333334</ele><time>2026-04-11T12:45:51.937Z</time></trkpt><trkpt lat="44.87999" lon="9.5421117"><ele>220.66666666666669</ele><time>2026-04-11T12:45:52.937Z</time></trkpt><trkpt lat="44.8799183" lon="9.542175"><ele>220.0</ele><time>2026-04-11T12:45:53.938Z</time></trkpt><trkpt lat="44.8798433" lon="9.5422167"><ele>219.33333333333334</ele><time>2026-04-11T12:45:54.938Z</time></trkpt><trkpt lat="44.87978" lon="9.5422467"><ele>218.66666666666669</ele><time>2026-04-11T12:45:55.938Z</time></trkpt><trkpt lat="44.87966" lon="9.5422717"><ele>218.0</ele><time>2026-04-11T12:45:57.936Z</time></trkpt><trkpt lat="44.879595" lon="9.5422133"><ele>218.0</ele><time>2026-04-11T12:45:58.939Z</time></trkpt><trkpt lat="44.8795317" lon="9.5421617"><ele>218.0</ele><time>2026-04-11T12:45:59.936Z</time></trkpt><trkpt lat="44.8794683" lon="9.5421333"><ele>218.0</ele><time>2026-04-11T12:46:00.936Z</time></trkpt><trkpt lat="44.8793483" lon="9.5421933"><ele>218.0</ele><time>2026-04-11T12:46:02.938Z</time></trkpt><trkpt lat="44.8792617" lon="9.5422783"><ele>218.0</ele><time>2026-04-11T12:46:03.944Z</time></trkpt><trkpt lat="44.87916" lon="9.5423633"><ele>216.4</ele><time>2026-04-11T12:46:04.937Z</time></trkpt><trkpt lat="44.8790617" lon="9.5424417"><ele>214.8</ele><time>2026-04-11T12:46:05.937Z</time></trkpt><trkpt lat="44.8789733" lon="9.5425167"><ele>213.2</ele><time>2026-04-11T12:46:06.937Z</time></trkpt><trkpt lat="44.8788883" lon="9.542595"><ele>211.6</ele><time>2026-04-11T12:46:07.936Z</time></trkpt><trkpt lat="44.878805" lon="9.5426817"><ele>210.0</ele><time>2026-04-11T12:46:08.937Z</time></trkpt><trkpt lat="44.8787233" lon="9.54277"><ele>210.0</ele><time>2026-04-11T12:46:09.936Z</time></trkpt><trkpt lat="44.8786483" lon="9.54285"><ele>210.0</ele><time>2026-04-11T12:46:10.936Z</time></trkpt><trkpt lat="44.8785833" lon="9.5429217"><ele>210.0</ele><time>2026-04-11T12:46:11.937Z</time></trkpt><trkpt lat="44.878525" lon="9.5430067"><ele>210.0</ele><time>2026-04-11T12:46:12.937Z</time></trkpt><trkpt lat="44.87847" lon="9.5431117"><ele>210.0</ele><time>2026-04-11T12:46:13.937Z</time></trkpt><trkpt lat="44.8784167" lon="9.5432383"><ele>208.8</ele><time>2026-04-11T12:46:14.942Z</time></trkpt><trkpt lat="44.8783567" lon="9.54337"><ele>207.6</ele><time>2026-04-11T12:46:15.937Z</time></trkpt><trkpt lat="44.878285" lon="9.5434933"><ele>206.39999999999998</ele><time>2026-04-11T12:46:16.936Z</time></trkpt><trkpt lat="44.878205" lon="9.5436067"><ele>205.2</ele><time>2026-04-11T12:46:17.938Z</time></trkpt><trkpt lat="44.8781283" lon="9.5437083"><ele>204.0</ele><time>2026-04-11T12:46:18.937Z</time></trkpt><trkpt lat="44.878065" lon="9.5438183"><ele>206.39999999999998</ele><time>2026-04-11T12:46:19.938Z</time></trkpt><trkpt lat="44.8780067" lon="9.5439283"><ele>208.8</ele><time>2026-04-11T12:46:20.937Z</time></trkpt><trkpt lat="44.877945" lon="9.544035"><ele>211.20000000000002</ele><time>2026-04-11T12:46:21.941Z</time></trkpt><trkpt lat="44.87788" lon="9.54413"><ele>213.60000000000002</ele><time>2026-04-11T12:46:22.937Z</time></trkpt><trkpt lat="44.8778217" lon="9.544215"><ele>216.0</ele><time>2026-04-11T12:46:23.937Z</time></trkpt><trkpt lat="44.8777667" lon="9.5443"><ele>216.0</ele><time>2026-04-11T12:46:24.937Z</time></trkpt><trkpt lat="44.8777167" lon="9.5443833"><ele>216.0</ele><time>2026-04-11T12:46:25.937Z</time></trkpt><trkpt lat="44.8776633" lon="9.5444783"><ele>216.0</ele><time>2026-04-11T12:46:26.938Z</time></trkpt><trkpt lat="44.877615" lon="9.5445733"><ele>216.0</ele><time>2026-04-11T12:46:27.936Z</time></trkpt><trkpt lat="44.8775783" lon="9.5446567"><ele>216.0</ele><time>2026-04-11T12:46:28.937Z</time></trkpt><trkpt lat="44.8775367" lon="9.544725"><ele>216.0</ele><time>2026-04-11T12:46:29.943Z</time></trkpt><trkpt lat="44.8774767" lon="9.54477"><ele>216.0</ele><time>2026-04-11T12:46:30.937Z</time></trkpt><trkpt lat="44.8774033" lon="9.544785"><ele>214.71428571428572</ele><time>2026-04-11T12:46:31.936Z</time></trkpt><trkpt lat="44.8773317" lon="9.5447833"><ele>213.42857142857142</ele><time>2026-04-11T12:46:32.937Z</time></trkpt><trkpt lat="44.8772667" lon="9.5447883"><ele>212.14285714285717</ele><time>2026-04-11T12:46:33.937Z</time></trkpt><trkpt lat="44.8772017" lon="9.5448167"><ele>210.85714285714286</ele><time>2026-04-11T12:46:34.937Z</time></trkpt><trkpt lat="44.8771433" lon="9.5448667"><ele>209.57142857142858</ele><time>2026-04-11T12:46:35.937Z</time></trkpt><trkpt lat="44.877085" lon="9.5449267"><ele>208.2857142857143</ele><time>2026-04-11T12:46:36.937Z</time></trkpt><trkpt lat="44.87702" lon="9.545"><ele>207.0</ele><time>2026-04-11T12:46:37.938Z</time></trkpt><trkpt lat="44.87696" lon="9.5450733"><ele>207.0</ele><time>2026-04-11T12:46:38.937Z</time></trkpt><trkpt lat="44.8768967" lon="9.5451517"><ele>207.0</ele><time>2026-04-11T12:46:39.937Z</time></trkpt><trkpt lat="44.8768517" lon="9.5452467"><ele>207.0</ele><time>2026-04-11T12:46:40.937Z</time></trkpt><trkpt lat="44.8768217" lon="9.5453433"><ele>207.0</ele><time>2026-04-11T12:46:41.936Z</time></trkpt><trkpt lat="44.8768033" lon="9.5454367"><ele>207.0</ele><time>2026-04-11T12:46:42.937Z</time></trkpt><trkpt lat="44.8768" lon="9.54553"><ele>207.0</ele><time>2026-04-11T12:46:43.936Z</time></trkpt><trkpt lat="44.8768083" lon="9.545635"><ele>207.8</ele><time>2026-04-11T12:46:44.938Z</time></trkpt><trkpt lat="44.8768233" lon="9.5457683"><ele>208.6</ele><time>2026-04-11T12:46:45.938Z</time></trkpt><trkpt lat="44.876825" lon="9.5459117"><ele>209.4</ele><time>2026-04-11T12:46:46.937Z</time></trkpt><trkpt lat="44.876825" lon="9.5460567"><ele>210.20000000000002</ele><time>2026-04-11T12:46:47.943Z</time></trkpt><trkpt lat="44.8768233" lon="9.5461967"><ele>211.0</ele><time>2026-04-11T12:46:48.937Z</time></trkpt><trkpt lat="44.8768133" lon="9.54633"><ele>213.4</ele><time>2026-04-11T12:46:49.937Z</time></trkpt><trkpt lat="44.8768" lon="9.5464633"><ele>215.8</ele><time>2026-04-11T12:46:50.937Z</time></trkpt><trkpt lat="44.8767817" lon="9.5465983"><ele>218.20000000000002</ele><time>2026-04-11T12:46:51.941Z</time></trkpt><trkpt lat="44.8767683" lon="9.5467217"><ele>220.60000000000002</ele><time>2026-04-11T12:46:52.937Z</time></trkpt><trkpt lat="44.8767533" lon="9.54684"><ele>223.0</ele><time>2026-04-11T12:46:53.937Z</time></trkpt><trkpt lat="44.87673" lon="9.546955"><ele>218.16666666666666</ele><time>2026-04-11T12:46:54.937Z</time></trkpt><trkpt lat="44.8767" lon="9.547065"><ele>213.33333333333331</ele><time>2026-04-11T12:46:55.937Z</time></trkpt><trkpt lat="44.8766567" lon="9.5471667"><ele>208.5</ele><time>2026-04-11T12:46:56.937Z</time></trkpt><trkpt lat="44.8766017" lon="9.547255"><ele>203.66666666666669</ele><time>2026-04-11T12:46:57.937Z</time></trkpt><trkpt lat="44.8765433" lon="9.5473283"><ele>198.83333333333334</ele><time>2026-04-11T12:46:58.937Z</time></trkpt><trkpt lat="44.8764783" lon="9.5474133"><ele>194.0</ele><time>2026-04-11T12:46:59.937Z</time></trkpt><trkpt lat="44.87642" lon="9.5475167"><ele>194.0</ele><time>2026-04-11T12:47:00.937Z</time></trkpt><trkpt lat="44.8763717" lon="9.5476233"><ele>194.0</ele><time>2026-04-11T12:47:01.939Z</time></trkpt><trkpt lat="44.8763283" lon="9.547735"><ele>194.0</ele><time>2026-04-11T12:47:02.937Z</time></trkpt><trkpt lat="44.87629" lon="9.5478567"><ele>194.0</ele><time>2026-04-11T12:47:03.937Z</time></trkpt><trkpt lat="44.87626" lon="9.5479767"><ele>194.0</ele><time>2026-04-11T12:47:04.937Z</time></trkpt><trkpt lat="44.876235" lon="9.5481"><ele>193.79999999999998</ele><time>2026-04-11T12:47:05.937Z</time></trkpt><trkpt lat="44.8762133" lon="9.5482283"><ele>193.6</ele><time>2026-04-11T12:47:06.938Z</time></trkpt><trkpt lat="44.8761983" lon="9.54836"><ele>193.4</ele><time>2026-04-11T12:47:07.936Z</time></trkpt><trkpt lat="44.8761983" lon="9.5484917"><ele>193.2</ele><time>2026-04-11T12:47:08.938Z</time></trkpt><trkpt lat="44.8762017" lon="9.5486183"><ele>193.0</ele><time>2026-04-11T12:47:09.937Z</time></trkpt><trkpt lat="44.8762017" lon="9.548735"><ele>192.99999999999997</ele><time>2026-04-11T12:47:10.937Z</time></trkpt><trkpt lat="44.8761867" lon="9.548845"><ele>193.0</ele><time>2026-04-11T12:47:11.938Z</time></trkpt><trkpt lat="44.8761517" lon="9.54895"><ele>193.0</ele><time>2026-04-11T12:47:12.938Z</time></trkpt><trkpt lat="44.8761233" lon="9.5490567"><ele>193.0</ele><time>2026-04-11T12:47:13.943Z</time></trkpt><trkpt lat="44.8760967" lon="9.5491383"><ele>192.99999999999997</ele><time>2026-04-11T12:47:14.937Z</time></trkpt><trkpt lat="44.87604" lon="9.54927"><ele>193.0</ele><time>2026-04-11T12:47:16.937Z</time></trkpt><trkpt lat="44.876005" lon="9.5493567"><ele>193.0</ele><time>2026-04-11T12:47:18.937Z</time></trkpt><trkpt lat="44.8759717" lon="9.5494433"><ele>193.0</ele><time>2026-04-11T12:49:30.937Z</time></trkpt><trkpt lat="44.8758917" lon="9.549445"><ele>193.0</ele><time>2026-04-11T12:49:32.939Z</time></trkpt><trkpt lat="44.8757633" lon="9.5493767"><ele>193.0</ele><time>2026-04-11T12:49:34.94Z</time></trkpt><trkpt lat="44.8756717" lon="9.5493283"><ele>193.0</ele><time>2026-04-11T12:49:35.943Z</time></trkpt><trkpt lat="44.8755833" lon="9.5492933"><ele>189.49999999999997</ele><time>2026-04-11T12:49:36.937Z</time></trkpt><trkpt lat="44.875505" lon="9.5492633"><ele>186.0</ele><time>2026-04-11T12:49:37.937Z</time></trkpt><trkpt lat="44.8754317" lon="9.54926"><ele>182.5</ele><time>2026-04-11T12:49:38.94Z</time></trkpt><trkpt lat="44.8753567" lon="9.5492917"><ele>179.0</ele><time>2026-04-11T12:49:39.937Z</time></trkpt><trkpt lat="44.8753" lon="9.5493667"><ele>175.5</ele><time>2026-04-11T12:49:40.94Z</time></trkpt><trkpt lat="44.87526" lon="9.5494767"><ele>172.0</ele><time>2026-04-11T12:49:41.942Z</time></trkpt><trkpt lat="44.87524" lon="9.5496083"><ele>171.8</ele><time>2026-04-11T12:49:42.938Z</time></trkpt><trkpt lat="44.8752067" lon="9.549735"><ele>171.6</ele><time>2026-04-11T12:49:43.938Z</time></trkpt><trkpt lat="44.8751567" lon="9.5498383"><ele>171.4</ele><time>2026-04-11T12:49:44.938Z</time></trkpt><trkpt lat="44.8750917" lon="9.5499217"><ele>171.20000000000002</ele><time>2026-04-11T12:49:45.938Z</time></trkpt><trkpt lat="44.8749983" lon="9.5499383"><ele>171.0</ele><time>2026-04-11T12:49:46.941Z</time></trkpt><trkpt lat="44.8748883" lon="9.5499117"><ele>170.25</ele><time>2026-04-11T12:49:47.937Z</time></trkpt><trkpt lat="44.8747583" lon="9.5498683"><ele>169.5</ele><time>2026-04-11T12:49:48.937Z</time></trkpt><trkpt lat="44.874625" lon="9.54982"><ele>168.75</ele><time>2026-04-11T12:49:49.937Z</time></trkpt><trkpt lat="44.8744967" lon="9.549775"><ele>168.0</ele><time>2026-04-11T12:49:50.938Z</time></trkpt><trkpt lat="44.8743767" lon="9.5497267"><ele>166.5</ele><time>2026-04-11T12:49:51.938Z</time></trkpt><trkpt lat="44.8742667" lon="9.5496783"><ele>165.0</ele><time>2026-04-11T12:49:52.938Z</time></trkpt><trkpt lat="44.874165" lon="9.5496183"><ele>163.5</ele><time>2026-04-11T12:49:53.943Z</time></trkpt><trkpt lat="44.874065" lon="9.549545"><ele>162.0</ele><time>2026-04-11T12:49:54.938Z</time></trkpt><trkpt lat="44.8739667" lon="9.549455"><ele>165.5</ele><time>2026-04-11T12:49:55.938Z</time></trkpt><trkpt lat="44.8738767" lon="9.5493517"><ele>169.0</ele><time>2026-04-11T12:49:56.938Z</time></trkpt><trkpt lat="44.8737967" lon="9.549225"><ele>172.5</ele><time>2026-04-11T12:49:57.939Z</time></trkpt><trkpt lat="44.8737333" lon="9.5490717"><ele>176.0</ele><time>2026-04-11T12:49:58.943Z</time></trkpt><trkpt lat="44.87369" lon="9.5488983"><ele>176.0</ele><time>2026-04-11T12:49:59.938Z</time></trkpt><trkpt lat="44.873665" lon="9.5487133"><ele>176.0</ele><time>2026-04-11T12:50:00.937Z</time></trkpt><trkpt lat="44.87366" lon="9.5485333"><ele>176.0</ele><time>2026-04-11T12:50:01.938Z</time></trkpt><trkpt lat="44.8736667" lon="9.5483567"><ele>176.0</ele><time>2026-04-11T12:50:02.938Z</time></trkpt><trkpt lat="44.8736567" lon="9.5482"><ele>176.5</ele><time>2026-04-11T12:50:03.937Z</time></trkpt><trkpt lat="44.8736383" lon="9.54807"><ele>177.0</ele><time>2026-04-11T12:50:04.937Z</time></trkpt><trkpt lat="44.8735917" lon="9.5479683"><ele>177.5</ele><time>2026-04-11T12:50:05.938Z</time></trkpt><trkpt lat="44.873525" lon="9.5479067"><ele>178.0</ele><time>2026-04-11T12:50:06.937Z</time></trkpt><trkpt lat="44.873435" lon="9.547885"><ele>178.5</ele><time>2026-04-11T12:50:07.943Z</time></trkpt><trkpt lat="44.8733417" lon="9.5478767"><ele>179.0</ele><time>2026-04-11T12:50:08.937Z</time></trkpt><trkpt lat="44.87325" lon="9.5478867"><ele>177.0</ele><time>2026-04-11T12:50:09.937Z</time></trkpt><trkpt lat="44.8731617" lon="9.547935"><ele>175.0</ele><time>2026-04-11T12:50:10.937Z</time></trkpt><trkpt lat="44.87309" lon="9.548015"><ele>173.0</ele><time>2026-04-11T12:50:11.938Z</time></trkpt><trkpt lat="44.873025" lon="9.5481067"><ele>171.0</ele><time>2026-04-11T12:50:12.938Z</time></trkpt><trkpt lat="44.872965" lon="9.5481967"><ele>169.0</ele><time>2026-04-11T12:50:13.938Z</time></trkpt><trkpt lat="44.8729067" lon="9.5482933"><ele>169.0</ele><time>2026-04-11T12:50:14.938Z</time></trkpt><trkpt lat="44.872825" lon="9.5483967"><ele>169.0</ele><time>2026-04-11T12:50:15.938Z</time></trkpt><trkpt lat="44.8727233" lon="9.548485"><ele>169.0</ele><time>2026-04-11T12:50:16.938Z</time></trkpt><trkpt lat="44.8726017" lon="9.54856"><ele>169.0</ele><time>2026-04-11T12:50:17.938Z</time></trkpt><trkpt lat="44.8724717" lon="9.548615"><ele>171.0</ele><time>2026-04-11T12:50:18.938Z</time></trkpt><trkpt lat="44.8723383" lon="9.5486483"><ele>173.0</ele><time>2026-04-11T12:50:19.939Z</time></trkpt><trkpt lat="44.8722033" lon="9.5486667"><ele>175.0</ele><time>2026-04-11T12:50:20.939Z</time></trkpt><trkpt lat="44.8720767" lon="9.5486817"><ele>177.0</ele><time>2026-04-11T12:50:21.938Z</time></trkpt><trkpt lat="44.87196" lon="9.5487017"><ele>175.25</ele><time>2026-04-11T12:50:22.945Z</time></trkpt><trkpt lat="44.87185" lon="9.5487183"><ele>173.5</ele><time>2026-04-11T12:50:23.938Z</time></trkpt><trkpt lat="44.8717317" lon="9.5487333"><ele>171.75</ele><time>2026-04-11T12:50:24.938Z</time></trkpt><trkpt lat="44.871605" lon="9.548745"><ele>170.0</ele><time>2026-04-11T12:50:25.938Z</time></trkpt><trkpt lat="44.8714717" lon="9.548745"><ele>170.0</ele><time>2026-04-11T12:50:26.938Z</time></trkpt><trkpt lat="44.8713333" lon="9.5487283"><ele>170.0</ele><time>2026-04-11T12:50:27.938Z</time></trkpt><trkpt lat="44.8711933" lon="9.5486967"><ele>170.0</ele><time>2026-04-11T12:50:28.938Z</time></trkpt><trkpt lat="44.8710483" lon="9.5486583"><ele>170.0</ele><time>2026-04-11T12:50:29.938Z</time></trkpt><trkpt lat="44.870905" lon="9.5486233"><ele>170.0</ele><time>2026-04-11T12:50:30.937Z</time></trkpt><trkpt lat="44.8707717" lon="9.5485883"><ele>170.0</ele><time>2026-04-11T12:50:31.937Z</time></trkpt><trkpt lat="44.8706383" lon="9.5485533"><ele>170.0</ele><time>2026-04-11T12:50:32.946Z</time></trkpt><trkpt lat="44.870505" lon="9.5485133"><ele>170.0</ele><time>2026-04-11T12:50:33.938Z</time></trkpt><trkpt lat="44.8703733" lon="9.5484717"><ele>170.0</ele><time>2026-04-11T12:50:34.938Z</time></trkpt><trkpt lat="44.8702517" lon="9.5484317"><ele>170.0</ele><time>2026-04-11T12:50:35.937Z</time></trkpt><trkpt lat="44.870135" lon="9.5483883"><ele>170.0</ele><time>2026-04-11T12:50:36.937Z</time></trkpt><trkpt lat="44.8700167" lon="9.5483433"><ele>170.0</ele><time>2026-04-11T12:50:37.94Z</time></trkpt><trkpt lat="44.8698933" lon="9.5482933"><ele>170.25</ele><time>2026-04-11T12:50:38.937Z</time></trkpt><trkpt lat="44.869775" lon="9.5482433"><ele>170.5</ele><time>2026-04-11T12:50:39.938Z</time></trkpt><trkpt lat="44.86966" lon="9.5481917"><ele>170.75</ele><time>2026-04-11T12:50:40.937Z</time></trkpt><trkpt lat="44.8695483" lon="9.5481367"><ele>171.0</ele><time>2026-04-11T12:50:41.936Z</time></trkpt><trkpt lat="44.8694367" lon="9.54808"><ele>171.0</ele><time>2026-04-11T12:50:42.936Z</time></trkpt><trkpt lat="44.86932" lon="9.5480217"><ele>171.0</ele><time>2026-04-11T12:50:43.936Z</time></trkpt><trkpt lat="44.8692017" lon="9.5479633"><ele>171.0</ele><time>2026-04-11T12:50:44.947Z</time></trkpt><trkpt lat="44.8690817" lon="9.5479033"><ele>171.0</ele><time>2026-04-11T12:50:45.94Z</time></trkpt><trkpt lat="44.8689617" lon="9.54785"><ele>171.5</ele><time>2026-04-11T12:50:46.937Z</time></trkpt><trkpt lat="44.8688433" lon="9.5478"><ele>172.0</ele><time>2026-04-11T12:50:47.936Z</time></trkpt><trkpt lat="44.8687267" lon="9.5477583"><ele>172.5</ele><time>2026-04-11T12:50:48.937Z</time></trkpt><trkpt lat="44.8686117" lon="9.5477167"><ele>173.0</ele><time>2026-04-11T12:50:49.936Z</time></trkpt><trkpt lat="44.8684967" lon="9.5476733"><ele>172.4</ele><time>2026-04-11T12:50:50.938Z</time></trkpt><trkpt lat="44.8683883" lon="9.5476317"><ele>171.8</ele><time>2026-04-11T12:50:51.936Z</time></trkpt><trkpt lat="44.868285" lon="9.547595"><ele>171.2</ele><time>2026-04-11T12:50:52.937Z</time></trkpt><trkpt lat="44.8681817" lon="9.5475533"><ele>170.6</ele><time>2026-04-11T12:50:53.936Z</time></trkpt><trkpt lat="44.8680783" lon="9.547505"><ele>170.0</ele><time>2026-04-11T12:50:54.937Z</time></trkpt><trkpt lat="44.8679717" lon="9.54745"><ele>170.0</ele><time>2026-04-11T12:50:55.936Z</time></trkpt><trkpt lat="44.8678533" lon="9.547385"><ele>170.0</ele><time>2026-04-11T12:50:56.938Z</time></trkpt><trkpt lat="44.86774" lon="9.5473167"><ele>170.0</ele><time>2026-04-11T12:50:57.937Z</time></trkpt><trkpt lat="44.86763" lon="9.547245"><ele>170.0</ele><time>2026-04-11T12:50:58.937Z</time></trkpt><trkpt lat="44.86753" lon="9.54717"><ele>170.0</ele><time>2026-04-11T12:50:59.937Z</time></trkpt><trkpt lat="44.8674367" lon="9.5470983"><ele>170.0</ele><time>2026-04-11T12:51:00.937Z</time></trkpt><trkpt lat="44.867345" lon="9.5470283"><ele>170.0</ele><time>2026-04-11T12:51:01.937Z</time></trkpt><trkpt lat="44.867245" lon="9.5469617"><ele>170.0</ele><time>2026-04-11T12:51:02.938Z</time></trkpt><trkpt lat="44.867145" lon="9.5469033"><ele>170.0</ele><time>2026-04-11T12:51:03.937Z</time></trkpt><trkpt lat="44.8670417" lon="9.546855"><ele>170.75</ele><time>2026-04-11T12:51:04.936Z</time></trkpt><trkpt lat="44.8669333" lon="9.5468117"><ele>171.5</ele><time>2026-04-11T12:51:05.937Z</time></trkpt><trkpt lat="44.8668183" lon="9.546765"><ele>172.25</ele><time>2026-04-11T12:51:06.937Z</time></trkpt><trkpt lat="44.8667017" lon="9.546715"><ele>173.0</ele><time>2026-04-11T12:51:07.937Z</time></trkpt><trkpt lat="44.8665833" lon="9.5466667"><ele>173.0</ele><time>2026-04-11T12:51:08.937Z</time></trkpt><trkpt lat="44.8664667" lon="9.54662"><ele>173.0</ele><time>2026-04-11T12:51:09.936Z</time></trkpt><trkpt lat="44.8663533" lon="9.5465733"><ele>173.0</ele><time>2026-04-11T12:51:10.943Z</time></trkpt><trkpt lat="44.8662417" lon="9.5465283"><ele>173.0</ele><time>2026-04-11T12:51:11.938Z</time></trkpt><trkpt lat="44.86613" lon="9.546485"><ele>173.0</ele><time>2026-04-11T12:51:12.936Z</time></trkpt><trkpt lat="44.8660167" lon="9.54644"><ele>173.0</ele><time>2026-04-11T12:51:13.937Z</time></trkpt><trkpt lat="44.8659017" lon="9.5464033"><ele>173.0</ele><time>2026-04-11T12:51:14.938Z</time></trkpt><trkpt lat="44.8657867" lon="9.5463767"><ele>173.0</ele><time>2026-04-11T12:51:15.938Z</time></trkpt><trkpt lat="44.8656683" lon="9.546355"><ele>173.0</ele><time>2026-04-11T12:51:16.936Z</time></trkpt><trkpt lat="44.8655533" lon="9.54633"><ele>173.0</ele><time>2026-04-11T12:51:17.937Z</time></trkpt><trkpt lat="44.8654417" lon="9.546305"><ele>173.0</ele><time>2026-04-11T12:51:19.019Z</time></trkpt><trkpt lat="44.86533" lon="9.5462783"><ele>173.0</ele><time>2026-04-11T12:51:19.937Z</time></trkpt><trkpt lat="44.8652083" lon="9.54625"><ele>172.75</ele><time>2026-04-11T12:51:20.945Z</time></trkpt><trkpt lat="44.8650783" lon="9.54622"><ele>172.5</ele><time>2026-04-11T12:51:21.937Z</time></trkpt><trkpt lat="44.8649567" lon="9.5461883"><ele>172.25</ele><time>2026-04-11T12:51:22.938Z</time></trkpt><trkpt lat="44.8648483" lon="9.5461633"><ele>172.0</ele><time>2026-04-11T12:51:23.937Z</time></trkpt><trkpt lat="44.864745" lon="9.5461417"><ele>172.5</ele><time>2026-04-11T12:51:24.938Z</time></trkpt><trkpt lat="44.8646533" lon="9.546125"><ele>173.0</ele><time>2026-04-11T12:51:25.937Z</time></trkpt><trkpt lat="44.86458" lon="9.5461067"><ele>173.5</ele><time>2026-04-11T12:51:26.938Z</time></trkpt><trkpt lat="44.86452" lon="9.546075"><ele>174.0</ele><time>2026-04-11T12:51:27.938Z</time></trkpt><trkpt lat="44.8644767" lon="9.5459533"><ele>174.5</ele><time>2026-04-11T12:51:29.938Z</time></trkpt><trkpt lat="44.8644867" lon="9.54586"><ele>175.0</ele><time>2026-04-11T12:51:30.938Z</time></trkpt><trkpt lat="44.8645167" lon="9.5457467"><ele>175.0</ele><time>2026-04-11T12:51:31.936Z</time></trkpt><trkpt lat="44.864555" lon="9.5456183"><ele>175.0</ele><time>2026-04-11T12:51:32.937Z</time></trkpt><trkpt lat="44.86459" lon="9.5454817"><ele>175.0</ele><time>2026-04-11T12:51:33.936Z</time></trkpt><trkpt lat="44.864625" lon="9.5453483"><ele>175.0</ele><time>2026-04-11T12:51:34.938Z</time></trkpt><trkpt lat="44.8646583" lon="9.5452283"><ele>175.0</ele><time>2026-04-11T12:51:35.938Z</time></trkpt><trkpt lat="44.8646867" lon="9.5451217"><ele>175.5</ele><time>2026-04-11T12:51:36.937Z</time></trkpt><trkpt lat="44.8647117" lon="9.5450183"><ele>176.0</ele><time>2026-04-11T12:51:37.937Z</time></trkpt><trkpt lat="44.8647183" lon="9.5449167"><ele>176.5</ele><time>2026-04-11T12:51:38.937Z</time></trkpt><trkpt lat="44.8646967" lon="9.54483"><ele>177.0</ele><time>2026-04-11T12:51:39.937Z</time></trkpt><trkpt lat="44.8646483" lon="9.5447583"><ele>177.5</ele><time>2026-04-11T12:51:40.937Z</time></trkpt><trkpt lat="44.8645733" lon="9.5447033"><ele>178.0</ele><time>2026-04-11T12:51:41.937Z</time></trkpt><trkpt lat="44.8644833" lon="9.5446417"><ele>178.0</ele><time>2026-04-11T12:51:42.937Z</time></trkpt><trkpt lat="44.8643933" lon="9.5445767"><ele>178.0</ele><time>2026-04-11T12:51:43.942Z</time></trkpt><trkpt lat="44.8643117" lon="9.5445167"><ele>178.0</ele><time>2026-04-11T12:51:44.94Z</time></trkpt><trkpt lat="44.8642317" lon="9.5444583"><ele>178.0</ele><time>2026-04-11T12:51:45.94Z</time></trkpt><trkpt lat="44.864155" lon="9.544405"><ele>178.0</ele><time>2026-04-11T12:51:46.939Z</time></trkpt><trkpt lat="44.8640783" lon="9.5443533"><ele>178.2</ele><time>2026-04-11T12:51:47.937Z</time></trkpt><trkpt lat="44.864" lon="9.5442983"><ele>178.4</ele><time>2026-04-11T12:51:48.937Z</time></trkpt><trkpt lat="44.86392" lon="9.5442367"><ele>178.6</ele><time>2026-04-11T12:51:49.937Z</time></trkpt><trkpt lat="44.863835" lon="9.54417"><ele>178.79999999999998</ele><time>2026-04-11T12:51:50.938Z</time></trkpt><trkpt lat="44.8637467" lon="9.5441017"><ele>179.0</ele><time>2026-04-11T12:51:51.942Z</time></trkpt><trkpt lat="44.8636617" lon="9.5440317"><ele>179.0</ele><time>2026-04-11T12:51:52.937Z</time></trkpt><trkpt lat="44.86358" lon="9.5439633"><ele>179.0</ele><time>2026-04-11T12:51:53.939Z</time></trkpt><trkpt lat="44.8635017" lon="9.5438967"><ele>179.0</ele><time>2026-04-11T12:51:54.939Z</time></trkpt><trkpt lat="44.8634217" lon="9.5438317"><ele>179.0</ele><time>2026-04-11T12:51:55.939Z</time></trkpt><trkpt lat="44.8633367" lon="9.5437667"><ele>179.0</ele><time>2026-04-11T12:51:56.941Z</time></trkpt><trkpt lat="44.863245" lon="9.5437"><ele>179.2</ele><time>2026-04-11T12:51:57.941Z</time></trkpt><trkpt lat="44.863155" lon="9.543635"><ele>179.39999999999998</ele><time>2026-04-11T12:51:58.937Z</time></trkpt><trkpt lat="44.8630667" lon="9.5435733"><ele>179.6</ele><time>2026-04-11T12:51:59.941Z</time></trkpt><trkpt lat="44.8629833" lon="9.5435133"><ele>179.8</ele><time>2026-04-11T12:52:00.938Z</time></trkpt><trkpt lat="44.8629033" lon="9.5434517"><ele>180.0</ele><time>2026-04-11T12:52:01.945Z</time></trkpt><trkpt lat="44.8628233" lon="9.54339"><ele>180.0</ele><time>2026-04-11T12:52:02.937Z</time></trkpt><trkpt lat="44.8627433" lon="9.54332"><ele>180.0</ele><time>2026-04-11T12:52:03.937Z</time></trkpt><trkpt lat="44.8626667" lon="9.54325"><ele>180.0</ele><time>2026-04-11T12:52:04.938Z</time></trkpt><trkpt lat="44.8625817" lon="9.54319"><ele>180.0</ele><time>2026-04-11T12:52:05.938Z</time></trkpt><trkpt lat="44.8624883" lon="9.543135"><ele>180.0</ele><time>2026-04-11T12:52:06.938Z</time></trkpt><trkpt lat="44.8623933" lon="9.543075"><ele>179.4</ele><time>2026-04-11T12:52:07.937Z</time></trkpt><trkpt lat="44.8623067" lon="9.543015"><ele>178.8</ele><time>2026-04-11T12:52:08.939Z</time></trkpt><trkpt lat="44.8622267" lon="9.5429567"><ele>178.2</ele><time>2026-04-11T12:52:09.937Z</time></trkpt><trkpt lat="44.86215" lon="9.5429067"><ele>177.6</ele><time>2026-04-11T12:52:10.937Z</time></trkpt><trkpt lat="44.8620817" lon="9.5428633"><ele>177.0</ele><time>2026-04-11T12:52:11.938Z</time></trkpt><trkpt lat="44.8619833" lon="9.5428033"><ele>178.0</ele><time>2026-04-11T12:52:13.938Z</time></trkpt><trkpt lat="44.8619233" lon="9.5427517"><ele>179.0</ele><time>2026-04-11T12:52:15.937Z</time></trkpt><trkpt lat="44.8618633" lon="9.5426633"><ele>180.0</ele><time>2026-04-11T12:52:17.937Z</time></trkpt><trkpt lat="44.861825" lon="9.5425783"><ele>181.0</ele><time>2026-04-11T12:52:18.937Z</time></trkpt><trkpt lat="44.86179" lon="9.5424783"><ele>182.0</ele><time>2026-04-11T12:52:19.944Z</time></trkpt><trkpt lat="44.8617567" lon="9.54237"><ele>183.0</ele><time>2026-04-11T12:52:20.939Z</time></trkpt><trkpt lat="44.86173" lon="9.54225"><ele>183.2</ele><time>2026-04-11T12:52:21.938Z</time></trkpt><trkpt lat="44.861695" lon="9.5421383"><ele>183.4</ele><time>2026-04-11T12:52:22.937Z</time></trkpt><trkpt lat="44.861645" lon="9.5420333"><ele>183.6</ele><time>2026-04-11T12:52:23.937Z</time></trkpt><trkpt lat="44.8615833" lon="9.5419283"><ele>183.79999999999998</ele><time>2026-04-11T12:52:24.942Z</time></trkpt><trkpt lat="44.8615167" lon="9.54182"><ele>184.0</ele><time>2026-04-11T12:52:25.937Z</time></trkpt><trkpt lat="44.8614417" lon="9.5417117"><ele>184.75</ele><time>2026-04-11T12:52:26.939Z</time></trkpt><trkpt lat="44.8613617" lon="9.5415983"><ele>185.5</ele><time>2026-04-11T12:52:27.938Z</time></trkpt><trkpt lat="44.8612817" lon="9.54147"><ele>186.25</ele><time>2026-04-11T12:52:28.938Z</time></trkpt><trkpt lat="44.8611967" lon="9.54133"><ele>187.0</ele><time>2026-04-11T12:52:29.939Z</time></trkpt><trkpt lat="44.86111" lon="9.54119"><ele>188.25</ele><time>2026-04-11T12:52:30.937Z</time></trkpt><trkpt lat="44.86103" lon="9.5410483"><ele>189.5</ele><time>2026-04-11T12:52:31.938Z</time></trkpt><trkpt lat="44.8609517" lon="9.5409117"><ele>190.75</ele><time>2026-04-11T12:52:32.937Z</time></trkpt><trkpt lat="44.860875" lon="9.5407783"><ele>192.0</ele><time>2026-04-11T12:52:33.938Z</time></trkpt><trkpt lat="44.8607983" lon="9.5406467"><ele>192.0</ele><time>2026-04-11T12:52:34.937Z</time></trkpt><trkpt lat="44.8607233" lon="9.5405067"><ele>192.0</ele><time>2026-04-11T12:52:35.938Z</time></trkpt><trkpt lat="44.8606617" lon="9.5403533"><ele>192.0</ele><time>2026-04-11T12:52:36.938Z</time></trkpt><trkpt lat="44.8606217" lon="9.5401917"><ele>192.0</ele><time>2026-04-11T12:52:37.937Z</time></trkpt><trkpt lat="44.8606067" lon="9.540025"><ele>193.2</ele><time>2026-04-11T12:52:38.938Z</time></trkpt><trkpt lat="44.86062" lon="9.5398633"><ele>194.39999999999998</ele><time>2026-04-11T12:52:39.937Z</time></trkpt><trkpt lat="44.8606567" lon="9.539715"><ele>195.60000000000002</ele><time>2026-04-11T12:52:40.94Z</time></trkpt><trkpt lat="44.8606933" lon="9.53957"><ele>196.8</ele><time>2026-04-11T12:52:41.937Z</time></trkpt><trkpt lat="44.8607117" lon="9.5394167"><ele>198.0</ele><time>2026-04-11T12:52:42.938Z</time></trkpt><trkpt lat="44.8606933" lon="9.53926"><ele>198.4</ele><time>2026-04-11T12:52:43.937Z</time></trkpt><trkpt lat="44.8606433" lon="9.5391117"><ele>198.8</ele><time>2026-04-11T12:52:44.938Z</time></trkpt><trkpt lat="44.860585" lon="9.5389783"><ele>199.2</ele><time>2026-04-11T12:52:45.939Z</time></trkpt><trkpt lat="44.8605367" lon="9.5388417"><ele>199.6</ele><time>2026-04-11T12:52:46.937Z</time></trkpt><trkpt lat="44.8604967" lon="9.5386917"><ele>200.0</ele><time>2026-04-11T12:52:47.939Z</time></trkpt><trkpt lat="44.8604617" lon="9.53853"><ele>200.75</ele><time>2026-04-11T12:52:48.94Z</time></trkpt><trkpt lat="44.86043" lon="9.5383683"><ele>201.5</ele><time>2026-04-11T12:52:49.938Z</time></trkpt><trkpt lat="44.8603983" lon="9.5382133"><ele>202.25</ele><time>2026-04-11T12:52:50.946Z</time></trkpt><trkpt lat="44.860365" lon="9.5380617"><ele>203.0</ele><time>2026-04-11T12:52:51.944Z</time></trkpt><trkpt lat="44.8603333" lon="9.5379083"><ele>203.25</ele><time>2026-04-11T12:52:52.939Z</time></trkpt><trkpt lat="44.8602983" lon="9.5377483"><ele>203.5</ele><time>2026-04-11T12:52:53.939Z</time></trkpt><trkpt lat="44.8602667" lon="9.5375833"><ele>203.75</ele><time>2026-04-11T12:52:54.938Z</time></trkpt><trkpt lat="44.860235" lon="9.537415"><ele>204.0</ele><time>2026-04-11T12:52:55.939Z</time></trkpt><trkpt lat="44.8602117" lon="9.5372467"><ele>204.0</ele><time>2026-04-11T12:52:56.939Z</time></trkpt><trkpt lat="44.860205" lon="9.53708"><ele>204.0</ele><time>2026-04-11T12:52:57.942Z</time></trkpt><trkpt lat="44.8602" lon="9.5369267"><ele>204.0</ele><time>2026-04-11T12:52:58.939Z</time></trkpt><trkpt lat="44.86018" lon="9.5368067"><ele>204.0</ele><time>2026-04-11T12:52:59.937Z</time></trkpt><trkpt lat="44.8601483" lon="9.5367017"><ele>204.0</ele><time>2026-04-11T12:53:00.936Z</time></trkpt><trkpt lat="44.8601183" lon="9.5365967"><ele>201.6</ele><time>2026-04-11T12:53:01.936Z</time></trkpt><trkpt lat="44.860085" lon="9.536495"><ele>199.2</ele><time>2026-04-11T12:53:02.938Z</time></trkpt><trkpt lat="44.8600317" lon="9.5364067"><ele>196.79999999999998</ele><time>2026-04-11T12:53:03.937Z</time></trkpt><trkpt lat="44.8599467" lon="9.53633"><ele>194.39999999999998</ele><time>2026-04-11T12:53:04.937Z</time></trkpt><trkpt lat="44.8598533" lon="9.5362717"><ele>192.0</ele><time>2026-04-11T12:53:05.937Z</time></trkpt><trkpt lat="44.8597483" lon="9.5362317"><ele>192.0</ele><time>2026-04-11T12:53:06.937Z</time></trkpt><trkpt lat="44.8596317" lon="9.53621"><ele>192.0</ele><time>2026-04-11T12:53:07.937Z</time></trkpt><trkpt lat="44.859525" lon="9.5361917"><ele>192.0</ele><time>2026-04-11T12:53:08.937Z</time></trkpt><trkpt lat="44.8594217" lon="9.5361817"><ele>192.0</ele><time>2026-04-11T12:53:09.937Z</time></trkpt><trkpt lat="44.8593217" lon="9.5361833"><ele>192.0</ele><time>2026-04-11T12:53:10.937Z</time></trkpt><trkpt lat="44.8592267" lon="9.5361967"><ele>192.0</ele><time>2026-04-11T12:53:11.937Z</time></trkpt><trkpt lat="44.8591317" lon="9.5361983"><ele>192.0</ele><time>2026-04-11T12:53:12.937Z</time></trkpt><trkpt lat="44.8590433" lon="9.5361833"><ele>192.0</ele><time>2026-04-11T12:53:13.938Z</time></trkpt><trkpt lat="44.85895" lon="9.53616"><ele>192.0</ele><time>2026-04-11T12:53:14.938Z</time></trkpt><trkpt lat="44.85886" lon="9.5361383"><ele>192.0</ele><time>2026-04-11T12:53:15.937Z</time></trkpt><trkpt lat="44.8587567" lon="9.53608"><ele>192.0</ele><time>2026-04-11T12:53:16.937Z</time></trkpt><trkpt lat="44.858655" lon="9.5360217"><ele>192.0</ele><time>2026-04-11T12:53:17.939Z</time></trkpt><trkpt lat="44.8585633" lon="9.53597"><ele>192.0</ele><time>2026-04-11T12:53:18.939Z</time></trkpt><trkpt lat="44.8584783" lon="9.5358983"><ele>192.0</ele><time>2026-04-11T12:53:19.938Z</time></trkpt><trkpt lat="44.8584033" lon="9.5357967"><ele>192.0</ele><time>2026-04-11T12:53:20.946Z</time></trkpt><trkpt lat="44.85833" lon="9.5356817"><ele>191.75</ele><time>2026-04-11T12:53:21.937Z</time></trkpt><trkpt lat="44.858235" lon="9.5355667"><ele>191.5</ele><time>2026-04-11T12:53:22.938Z</time></trkpt><trkpt lat="44.8581267" lon="9.5354767"><ele>191.25</ele><time>2026-04-11T12:53:23.937Z</time></trkpt><trkpt lat="44.8580083" lon="9.5354"><ele>191.0</ele><time>2026-04-11T12:53:24.938Z</time></trkpt><trkpt lat="44.857895" lon="9.5353133"><ele>191.0</ele><time>2026-04-11T12:53:25.938Z</time></trkpt><trkpt lat="44.8577917" lon="9.5352133"><ele>191.0</ele><time>2026-04-11T12:53:26.942Z</time></trkpt><trkpt lat="44.8577" lon="9.53511"><ele>191.0</ele><time>2026-04-11T12:53:27.937Z</time></trkpt><trkpt lat="44.8576133" lon="9.5350067"><ele>191.0</ele><time>2026-04-11T12:53:28.937Z</time></trkpt><trkpt lat="44.8575317" lon="9.5348983"><ele>191.8</ele><time>2026-04-11T12:53:29.939Z</time></trkpt><trkpt lat="44.8574633" lon="9.5347833"><ele>192.60000000000002</ele><time>2026-04-11T12:53:30.939Z</time></trkpt><trkpt lat="44.8573983" lon="9.5346617"><ele>193.4</ele><time>2026-04-11T12:53:31.944Z</time></trkpt><trkpt lat="44.8573217" lon="9.5345483"><ele>194.2</ele><time>2026-04-11T12:53:32.937Z</time></trkpt><trkpt lat="44.8572383" lon="9.53444"><ele>195.0</ele><time>2026-04-11T12:53:33.937Z</time></trkpt><trkpt lat="44.85715" lon="9.53434"><ele>195.0</ele><time>2026-04-11T12:53:34.937Z</time></trkpt><trkpt lat="44.85706" lon="9.534245"><ele>195.0</ele><time>2026-04-11T12:53:35.938Z</time></trkpt><trkpt lat="44.8569633" lon="9.5341633"><ele>195.0</ele><time>2026-04-11T12:53:36.941Z</time></trkpt><trkpt lat="44.856865" lon="9.534085"><ele>195.0</ele><time>2026-04-11T12:53:37.939Z</time></trkpt><trkpt lat="44.8567633" lon="9.534015"><ele>196.0</ele><time>2026-04-11T12:53:38.937Z</time></trkpt><trkpt lat="44.85666" lon="9.5339533"><ele>197.0</ele><time>2026-04-11T12:53:39.937Z</time></trkpt><trkpt lat="44.8565617" lon="9.5338967"><ele>198.0</ele><time>2026-04-11T12:53:40.937Z</time></trkpt><trkpt lat="44.856465" lon="9.5338417"><ele>199.0</ele><time>2026-04-11T12:53:41.941Z</time></trkpt><trkpt lat="44.85637" lon="9.5337783"><ele>200.0</ele><time>2026-04-11T12:53:42.939Z</time></trkpt><trkpt lat="44.8562783" lon="9.5337183"><ele>200.0</ele><time>2026-04-11T12:53:43.94Z</time></trkpt><trkpt lat="44.8561833" lon="9.5336683"><ele>200.0</ele><time>2026-04-11T12:53:44.939Z</time></trkpt><trkpt lat="44.856095" lon="9.533625"><ele>200.0</ele><time>2026-04-11T12:53:45.939Z</time></trkpt><trkpt lat="44.856005" lon="9.53358"><ele>200.0</ele><time>2026-04-11T12:53:46.943Z</time></trkpt><trkpt lat="44.8559133" lon="9.5335267"><ele>200.0</ele><time>2026-04-11T12:53:47.939Z</time></trkpt><trkpt lat="44.8558233" lon="9.5334667"><ele>196.8</ele><time>2026-04-11T12:53:48.94Z</time></trkpt><trkpt lat="44.8557267" lon="9.5334283"><ele>193.6</ele><time>2026-04-11T12:53:49.938Z</time></trkpt><trkpt lat="44.855625" lon="9.5334233"><ele>190.39999999999998</ele><time>2026-04-11T12:53:50.938Z</time></trkpt><trkpt lat="44.85552" lon="9.5334267"><ele>187.2</ele><time>2026-04-11T12:53:51.938Z</time></trkpt><trkpt lat="44.8554133" lon="9.5334367"><ele>184.0</ele><time>2026-04-11T12:53:52.938Z</time></trkpt><trkpt lat="44.8553067" lon="9.5334617"><ele>184.0</ele><time>2026-04-11T12:53:53.938Z</time></trkpt><trkpt lat="44.8551967" lon="9.5334933"><ele>184.0</ele><time>2026-04-11T12:53:54.937Z</time></trkpt><trkpt lat="44.8550867" lon="9.533545"><ele>184.0</ele><time>2026-04-11T12:53:55.938Z</time></trkpt><trkpt lat="44.8549833" lon="9.5336033"><ele>184.0</ele><time>2026-04-11T12:53:56.938Z</time></trkpt><trkpt lat="44.8548783" lon="9.5336783"><ele>180.0</ele><time>2026-04-11T12:53:57.945Z</time></trkpt><trkpt lat="44.8547667" lon="9.53374"><ele>176.0</ele><time>2026-04-11T12:53:58.937Z</time></trkpt><trkpt lat="44.8546533" lon="9.533775"><ele>172.0</ele><time>2026-04-11T12:53:59.937Z</time></trkpt><trkpt lat="44.8545267" lon="9.5337817"><ele>168.0</ele><time>2026-04-11T12:54:00.938Z</time></trkpt><trkpt lat="44.8544033" lon="9.5337633"><ele>168.25</ele><time>2026-04-11T12:54:01.937Z</time></trkpt><trkpt lat="44.8542783" lon="9.5337383"><ele>168.5</ele><time>2026-04-11T12:54:02.937Z</time></trkpt><trkpt lat="44.8541433" lon="9.5336983"><ele>168.75</ele><time>2026-04-11T12:54:03.943Z</time></trkpt><trkpt lat="44.8540033" lon="9.5336483"><ele>169.0</ele><time>2026-04-11T12:54:04.937Z</time></trkpt><trkpt lat="44.8538617" lon="9.5336033"><ele>169.75</ele><time>2026-04-11T12:54:05.938Z</time></trkpt><trkpt lat="44.85372" lon="9.5335667"><ele>170.5</ele><time>2026-04-11T12:54:06.937Z</time></trkpt><trkpt lat="44.8535783" lon="9.5335367"><ele>171.25</ele><time>2026-04-11T12:54:07.937Z</time></trkpt><trkpt lat="44.85344" lon="9.5335"><ele>172.0</ele><time>2026-04-11T12:54:08.943Z</time></trkpt><trkpt lat="44.8533083" lon="9.5334583"><ele>172.25</ele><time>2026-04-11T12:54:09.937Z</time></trkpt><trkpt lat="44.8531833" lon="9.533425"><ele>172.5</ele><time>2026-04-11T12:54:10.937Z</time></trkpt><trkpt lat="44.8530617" lon="9.5333917"><ele>172.75</ele><time>2026-04-11T12:54:11.937Z</time></trkpt><trkpt lat="44.8529417" lon="9.5333383"><ele>173.0</ele><time>2026-04-11T12:54:12.937Z</time></trkpt><trkpt lat="44.8528183" lon="9.5332617"><ele>173.0</ele><time>2026-04-11T12:54:13.937Z</time></trkpt><trkpt lat="44.852695" lon="9.5331817"><ele>173.0</ele><time>2026-04-11T12:54:14.937Z</time></trkpt><trkpt lat="44.8525633" lon="9.53312"><ele>173.0</ele><time>2026-04-11T12:54:15.939Z</time></trkpt><trkpt lat="44.8524233" lon="9.5330783"><ele>173.0</ele><time>2026-04-11T12:54:16.938Z</time></trkpt><trkpt lat="44.852285" lon="9.53304"><ele>172.5</ele><time>2026-04-11T12:54:17.937Z</time></trkpt><trkpt lat="44.8521417" lon="9.533"><ele>172.0</ele><time>2026-04-11T12:54:18.937Z</time></trkpt><trkpt lat="44.8520067" lon="9.5329617"><ele>171.5</ele><time>2026-04-11T12:54:19.937Z</time></trkpt><trkpt lat="44.85188" lon="9.5329317"><ele>171.0</ele><time>2026-04-11T12:54:20.938Z</time></trkpt><trkpt lat="44.8517617" lon="9.5329117"><ele>170.8</ele><time>2026-04-11T12:54:21.94Z</time></trkpt><trkpt lat="44.8516533" lon="9.5329"><ele>170.60000000000002</ele><time>2026-04-11T12:54:22.938Z</time></trkpt><trkpt lat="44.8515517" lon="9.532885"><ele>170.4</ele><time>2026-04-11T12:54:23.938Z</time></trkpt><trkpt lat="44.8514633" lon="9.5328417"><ele>170.2</ele><time>2026-04-11T12:54:24.938Z</time></trkpt><trkpt lat="44.85139" lon="9.5327583"><ele>170.0</ele><time>2026-04-11T12:54:25.939Z</time></trkpt><trkpt lat="44.8513283" lon="9.5326383"><ele>170.6</ele><time>2026-04-11T12:54:26.938Z</time></trkpt><trkpt lat="44.8513" lon="9.5324967"><ele>171.2</ele><time>2026-04-11T12:54:27.937Z</time></trkpt><trkpt lat="44.851295" lon="9.5323433"><ele>171.8</ele><time>2026-04-11T12:54:28.937Z</time></trkpt><trkpt lat="44.8512983" lon="9.5321817"><ele>172.4</ele><time>2026-04-11T12:54:29.938Z</time></trkpt><trkpt lat="44.8513017" lon="9.5320117"><ele>173.0</ele><time>2026-04-11T12:54:30.942Z</time></trkpt><trkpt lat="44.8513017" lon="9.5318367"><ele>173.25</ele><time>2026-04-11T12:54:31.937Z</time></trkpt><trkpt lat="44.8513033" lon="9.5316583"><ele>173.5</ele><time>2026-04-11T12:54:32.938Z</time></trkpt><trkpt lat="44.8513083" lon="9.53149"><ele>173.75</ele><time>2026-04-11T12:54:33.937Z</time></trkpt><trkpt lat="44.8513117" lon="9.53133"><ele>174.0</ele><time>2026-04-11T12:54:34.938Z</time></trkpt><trkpt lat="44.851315" lon="9.5311817"><ele>174.39999999999998</ele><time>2026-04-11T12:54:35.937Z</time></trkpt><trkpt lat="44.8513133" lon="9.5310417"><ele>174.8</ele><time>2026-04-11T12:54:36.937Z</time></trkpt><trkpt lat="44.8513" lon="9.5309117"><ele>175.2</ele><time>2026-04-11T12:54:37.937Z</time></trkpt><trkpt lat="44.851265" lon="9.5307933"><ele>175.60000000000002</ele><time>2026-04-11T12:54:38.938Z</time></trkpt><trkpt lat="44.8512017" lon="9.5306933"><ele>176.0</ele><time>2026-04-11T12:54:39.937Z</time></trkpt><trkpt lat="44.85112" lon="9.5306267"><ele>176.0</ele><time>2026-04-11T12:54:40.937Z</time></trkpt><trkpt lat="44.8510233" lon="9.5305933"><ele>176.0</ele><time>2026-04-11T12:54:41.937Z</time></trkpt><trkpt lat="44.8509167" lon="9.5305717"><ele>176.0</ele><time>2026-04-11T12:54:42.937Z</time></trkpt><trkpt lat="44.850805" lon="9.530555"><ele>176.0</ele><time>2026-04-11T12:54:43.941Z</time></trkpt><trkpt lat="44.8506867" lon="9.5305433"><ele>176.0</ele><time>2026-04-11T12:54:44.938Z</time></trkpt><trkpt lat="44.8505683" lon="9.5305317"><ele>175.8</ele><time>2026-04-11T12:54:45.937Z</time></trkpt><trkpt lat="44.85046" lon="9.5305083"><ele>175.60000000000002</ele><time>2026-04-11T12:54:46.938Z</time></trkpt><trkpt lat="44.8503683" lon="9.53046"><ele>175.4</ele><time>2026-04-11T12:54:47.937Z</time></trkpt><trkpt lat="44.8502983" lon="9.53038"><ele>175.2</ele><time>2026-04-11T12:54:48.937Z</time></trkpt><trkpt lat="44.8502433" lon="9.530265"><ele>175.0</ele><time>2026-04-11T12:54:49.943Z</time></trkpt><trkpt lat="44.8501983" lon="9.530135"><ele>175.5</ele><time>2026-04-11T12:54:50.94Z</time></trkpt><trkpt lat="44.85015" lon="9.529995"><ele>176.0</ele><time>2026-04-11T12:54:51.937Z</time></trkpt><trkpt lat="44.8501" lon="9.5298517"><ele>176.5</ele><time>2026-04-11T12:54:52.938Z</time></trkpt><trkpt lat="44.8500517" lon="9.5297017"><ele>177.0</ele><time>2026-04-11T12:54:53.937Z</time></trkpt><trkpt lat="44.8500067" lon="9.5295583"><ele>177.6</ele><time>2026-04-11T12:54:54.944Z</time></trkpt><trkpt lat="44.8499617" lon="9.5294133"><ele>178.2</ele><time>2026-04-11T12:54:55.937Z</time></trkpt><trkpt lat="44.8499167" lon="9.5292717"><ele>178.8</ele><time>2026-04-11T12:54:56.938Z</time></trkpt><trkpt lat="44.8498733" lon="9.5291267"><ele>179.4</ele><time>2026-04-11T12:54:57.939Z</time></trkpt><trkpt lat="44.8498383" lon="9.5289833"><ele>180.0</ele><time>2026-04-11T12:54:58.939Z</time></trkpt><trkpt lat="44.84981" lon="9.5288517"><ele>180.6</ele><time>2026-04-11T12:54:59.938Z</time></trkpt><trkpt lat="44.84979" lon="9.5287067"><ele>181.2</ele><time>2026-04-11T12:55:00.937Z</time></trkpt><trkpt lat="44.8497767" lon="9.5285533"><ele>181.8</ele><time>2026-04-11T12:55:01.937Z</time></trkpt><trkpt lat="44.849765" lon="9.5283917"><ele>182.4</ele><time>2026-04-11T12:55:02.939Z</time></trkpt><trkpt lat="44.849755" lon="9.528225"><ele>183.0</ele><time>2026-04-11T12:55:03.937Z</time></trkpt><trkpt lat="44.849745" lon="9.5280633"><ele>183.0</ele><time>2026-04-11T12:55:04.939Z</time></trkpt><trkpt lat="44.8497383" lon="9.5279017"><ele>183.0</ele><time>2026-04-11T12:55:05.943Z</time></trkpt><trkpt lat="44.84972" lon="9.5277583"><ele>183.0</ele><time>2026-04-11T12:55:06.938Z</time></trkpt><trkpt lat="44.8496767" lon="9.5276317"><ele>183.0</ele><time>2026-04-11T12:55:07.939Z</time></trkpt><trkpt lat="44.8496017" lon="9.52753"><ele>183.0</ele><time>2026-04-11T12:55:08.938Z</time></trkpt><trkpt lat="44.8494983" lon="9.5274383"><ele>183.25</ele><time>2026-04-11T12:55:09.937Z</time></trkpt><trkpt lat="44.8493867" lon="9.5273517"><ele>183.5</ele><time>2026-04-11T12:55:10.938Z</time></trkpt><trkpt lat="44.84927" lon="9.52726"><ele>183.75</ele><time>2026-04-11T12:55:11.939Z</time></trkpt><trkpt lat="44.8491533" lon="9.527165"><ele>184.0</ele><time>2026-04-11T12:55:12.943Z</time></trkpt><trkpt lat="44.8490383" lon="9.527075"><ele>183.5</ele><time>2026-04-11T12:55:13.938Z</time></trkpt><trkpt lat="44.8489267" lon="9.52699"><ele>183.0</ele><time>2026-04-11T12:55:14.939Z</time></trkpt><trkpt lat="44.8488233" lon="9.5269083"><ele>182.5</ele><time>2026-04-11T12:55:15.937Z</time></trkpt><trkpt lat="44.84872" lon="9.5268267"><ele>182.0</ele><time>2026-04-11T12:55:16.937Z</time></trkpt><trkpt lat="44.8486117" lon="9.5267433"><ele>182.0</ele><time>2026-04-11T12:55:17.938Z</time></trkpt><trkpt lat="44.848495" lon="9.5266567"><ele>182.0</ele><time>2026-04-11T12:55:18.937Z</time></trkpt><trkpt lat="44.848375" lon="9.5265667"><ele>182.0</ele><time>2026-04-11T12:55:19.938Z</time></trkpt><trkpt lat="44.848255" lon="9.526475"><ele>182.0</ele><time>2026-04-11T12:55:20.938Z</time></trkpt><trkpt lat="44.8481383" lon="9.526385"><ele>181.75</ele><time>2026-04-11T12:55:21.938Z</time></trkpt><trkpt lat="44.8480233" lon="9.526295"><ele>181.5</ele><time>2026-04-11T12:55:22.938Z</time></trkpt><trkpt lat="44.8479067" lon="9.526205"><ele>181.25</ele><time>2026-04-11T12:55:23.94Z</time></trkpt><trkpt lat="44.84779" lon="9.526115"><ele>181.0</ele><time>2026-04-11T12:55:24.937Z</time></trkpt><trkpt lat="44.8476733" lon="9.526025"><ele>180.75</ele><time>2026-04-11T12:55:25.937Z</time></trkpt><trkpt lat="44.8475583" lon="9.525935"><ele>180.5</ele><time>2026-04-11T12:55:26.937Z</time></trkpt><trkpt lat="44.84744" lon="9.525845"><ele>180.25</ele><time>2026-04-11T12:55:27.937Z</time></trkpt><trkpt lat="44.84732" lon="9.5257533"><ele>180.0</ele><time>2026-04-11T12:55:28.937Z</time></trkpt><trkpt lat="44.8472" lon="9.5256633"><ele>180.0</ele><time>2026-04-11T12:55:29.937Z</time></trkpt><trkpt lat="44.8470783" lon="9.5255683"><ele>180.0</ele><time>2026-04-11T12:55:30.937Z</time></trkpt><trkpt lat="44.846955" lon="9.5254717"><ele>180.0</ele><time>2026-04-11T12:55:31.937Z</time></trkpt><trkpt lat="44.8468317" lon="9.5253767"><ele>180.0</ele><time>2026-04-11T12:55:32.939Z</time></trkpt><trkpt lat="44.8467083" lon="9.525285"><ele>180.5</ele><time>2026-04-11T12:55:33.944Z</time></trkpt><trkpt lat="44.846585" lon="9.52519"><ele>181.0</ele><time>2026-04-11T12:55:34.938Z</time></trkpt><trkpt lat="44.8464733" lon="9.5251033"><ele>181.5</ele><time>2026-04-11T12:55:35.938Z</time></trkpt><trkpt lat="44.8463617" lon="9.5250183"><ele>182.0</ele><time>2026-04-11T12:55:36.938Z</time></trkpt><trkpt lat="44.8462517" lon="9.5249383"><ele>182.0</ele><time>2026-04-11T12:55:37.938Z</time></trkpt><trkpt lat="44.8461483" lon="9.5248617"><ele>182.0</ele><time>2026-04-11T12:55:38.944Z</time></trkpt><trkpt lat="44.846045" lon="9.5247817"><ele>182.0</ele><time>2026-04-11T12:55:39.937Z</time></trkpt><trkpt lat="44.8459333" lon="9.5247"><ele>182.0</ele><time>2026-04-11T12:55:40.938Z</time></trkpt><trkpt lat="44.8458333" lon="9.52461"><ele>182.25</ele><time>2026-04-11T12:55:41.937Z</time></trkpt><trkpt lat="44.84575" lon="9.5244983"><ele>182.5</ele><time>2026-04-11T12:55:42.938Z</time></trkpt><trkpt lat="44.8456933" lon="9.52436"><ele>182.75</ele><time>2026-04-11T12:55:43.94Z</time></trkpt><trkpt lat="44.8456517" lon="9.5241983"><ele>183.0</ele><time>2026-04-11T12:55:44.939Z</time></trkpt><trkpt lat="44.845605" lon="9.5240317"><ele>183.0</ele><time>2026-04-11T12:55:45.937Z</time></trkpt><trkpt lat="44.8455467" lon="9.523875"><ele>183.0</ele><time>2026-04-11T12:55:46.938Z</time></trkpt><trkpt lat="44.8454833" lon="9.52373"><ele>183.0</ele><time>2026-04-11T12:55:47.938Z</time></trkpt><trkpt lat="44.8454183" lon="9.5235917"><ele>183.0</ele><time>2026-04-11T12:55:48.938Z</time></trkpt><trkpt lat="44.8453567" lon="9.52345"><ele>184.75</ele><time>2026-04-11T12:55:49.937Z</time></trkpt><trkpt lat="44.8453017" lon="9.5233017"><ele>186.5</ele><time>2026-04-11T12:55:50.94Z</time></trkpt><trkpt lat="44.8452583" lon="9.52315"><ele>188.25</ele><time>2026-04-11T12:55:51.937Z</time></trkpt><trkpt lat="44.845225" lon="9.5229967"><ele>190.0</ele><time>2026-04-11T12:55:52.944Z</time></trkpt><trkpt lat="44.8451867" lon="9.5228433"><ele>189.4</ele><time>2026-04-11T12:55:53.937Z</time></trkpt><trkpt lat="44.8451433" lon="9.5227"><ele>188.8</ele><time>2026-04-11T12:55:54.938Z</time></trkpt><trkpt lat="44.8451083" lon="9.5225683"><ele>188.2</ele><time>2026-04-11T12:55:55.937Z</time></trkpt><trkpt lat="44.845095" lon="9.52246"><ele>187.6</ele><time>2026-04-11T12:55:56.938Z</time></trkpt><trkpt lat="44.845105" lon="9.522345"><ele>187.0</ele><time>2026-04-11T12:55:57.937Z</time></trkpt><trkpt lat="44.845135" lon="9.5222217"><ele>189.8</ele><time>2026-04-11T12:55:58.937Z</time></trkpt><trkpt lat="44.8451583" lon="9.5220917"><ele>192.6</ele><time>2026-04-11T12:55:59.945Z</time></trkpt><trkpt lat="44.84517" lon="9.5219417"><ele>195.4</ele><time>2026-04-11T12:56:00.939Z</time></trkpt><trkpt lat="44.8451817" lon="9.52178"><ele>198.20000000000002</ele><time>2026-04-11T12:56:01.937Z</time></trkpt><trkpt lat="44.8451983" lon="9.5216233"><ele>201.0</ele><time>2026-04-11T12:56:02.938Z</time></trkpt><trkpt lat="44.8452133" lon="9.5214783"><ele>202.0</ele><time>2026-04-11T12:56:03.938Z</time></trkpt><trkpt lat="44.8452117" lon="9.5213483"><ele>203.0</ele><time>2026-04-11T12:56:04.937Z</time></trkpt><trkpt lat="44.84518" lon="9.5212517"><ele>204.0</ele><time>2026-04-11T12:56:05.938Z</time></trkpt><trkpt lat="44.845115" lon="9.5211833"><ele>205.0</ele><time>2026-04-11T12:56:06.943Z</time></trkpt><trkpt lat="44.84504" lon="9.5211133"><ele>206.0</ele><time>2026-04-11T12:56:07.939Z</time></trkpt><trkpt lat="44.844955" lon="9.5210467"><ele>207.0</ele><time>2026-04-11T12:56:08.938Z</time></trkpt><trkpt lat="44.8448583" lon="9.521"><ele>207.0</ele><time>2026-04-11T12:56:09.937Z</time></trkpt><trkpt lat="44.8447617" lon="9.5209717"><ele>207.0</ele><time>2026-04-11T12:56:10.938Z</time></trkpt><trkpt lat="44.8446733" lon="9.520955"><ele>207.0</ele><time>2026-04-11T12:56:11.938Z</time></trkpt><trkpt lat="44.844595" lon="9.5209333"><ele>207.0</ele><time>2026-04-11T12:56:12.938Z</time></trkpt><trkpt lat="44.8445117" lon="9.5208333"><ele>207.0</ele><time>2026-04-11T12:56:14.938Z</time></trkpt><trkpt lat="44.844515" lon="9.52073"><ele>207.0</ele><time>2026-04-11T12:56:15.938Z</time></trkpt><trkpt lat="44.8445133" lon="9.5206033"><ele>207.0</ele><time>2026-04-11T12:56:16.937Z</time></trkpt><trkpt lat="44.84449" lon="9.520485"><ele>207.0</ele><time>2026-04-11T12:56:17.937Z</time></trkpt><trkpt lat="44.8444333" lon="9.520385"><ele>207.0</ele><time>2026-04-11T12:56:18.939Z</time></trkpt><trkpt lat="44.844355" lon="9.5203117"><ele>207.0</ele><time>2026-04-11T12:56:19.937Z</time></trkpt><trkpt lat="44.8442717" lon="9.520245"><ele>208.0</ele><time>2026-04-11T12:56:20.939Z</time></trkpt><trkpt lat="44.8441833" lon="9.5202"><ele>209.0</ele><time>2026-04-11T12:56:21.938Z</time></trkpt><trkpt lat="44.8440967" lon="9.52017"><ele>210.0</ele><time>2026-04-11T12:56:22.939Z</time></trkpt><trkpt lat="44.8440133" lon="9.520135"><ele>211.0</ele><time>2026-04-11T12:56:23.937Z</time></trkpt><trkpt lat="44.8439333" lon="9.52009"><ele>212.0</ele><time>2026-04-11T12:56:24.938Z</time></trkpt><trkpt lat="44.8438617" lon="9.5200183"><ele>213.0</ele><time>2026-04-11T12:56:25.938Z</time></trkpt><trkpt lat="44.8437917" lon="9.5199233"><ele>213.0</ele><time>2026-04-11T12:56:26.938Z</time></trkpt><trkpt lat="44.8437117" lon="9.51982"><ele>213.0</ele><time>2026-04-11T12:56:27.938Z</time></trkpt><trkpt lat="44.8436217" lon="9.5197267"><ele>213.0</ele><time>2026-04-11T12:56:28.938Z</time></trkpt><trkpt lat="44.843515" lon="9.5196333"><ele>213.0</ele><time>2026-04-11T12:56:29.938Z</time></trkpt><trkpt lat="44.8434033" lon="9.5195317"><ele>214.0</ele><time>2026-04-11T12:56:30.943Z</time></trkpt><trkpt lat="44.8432933" lon="9.51941"><ele>215.0</ele><time>2026-04-11T12:56:31.94Z</time></trkpt><trkpt lat="44.8431967" lon="9.5192883"><ele>216.0</ele><time>2026-04-11T12:56:32.938Z</time></trkpt><trkpt lat="44.8431117" lon="9.5191833"><ele>217.0</ele><time>2026-04-11T12:56:33.938Z</time></trkpt><trkpt lat="44.84303" lon="9.5191067"><ele>217.0</ele><time>2026-04-11T12:56:34.938Z</time></trkpt><trkpt lat="44.842945" lon="9.5190617"><ele>217.0</ele><time>2026-04-11T12:56:35.942Z</time></trkpt><trkpt lat="44.84285" lon="9.51905"><ele>217.0</ele><time>2026-04-11T12:56:36.938Z</time></trkpt><trkpt lat="44.8427517" lon="9.5190633"><ele>217.0</ele><time>2026-04-11T12:56:37.939Z</time></trkpt><trkpt lat="44.84265" lon="9.51908"><ele>217.0</ele><time>2026-04-11T12:56:38.938Z</time></trkpt><trkpt lat="44.8425467" lon="9.519085"><ele>213.75</ele><time>2026-04-11T12:56:39.939Z</time></trkpt><trkpt lat="44.8424417" lon="9.5190833"><ele>210.5</ele><time>2026-04-11T12:56:40.944Z</time></trkpt><trkpt lat="44.8423267" lon="9.5190583"><ele>207.25</ele><time>2026-04-11T12:56:41.937Z</time></trkpt><trkpt lat="44.84221" lon="9.5190267"><ele>204.0</ele><time>2026-04-11T12:56:42.937Z</time></trkpt><trkpt lat="44.8420983" lon="9.5189817"><ele>204.0</ele><time>2026-04-11T12:56:43.938Z</time></trkpt><trkpt lat="44.841995" lon="9.5189167"><ele>204.0</ele><time>2026-04-11T12:56:44.937Z</time></trkpt><trkpt lat="44.84189" lon="9.518835"><ele>204.0</ele><time>2026-04-11T12:56:45.94Z</time></trkpt><trkpt lat="44.8417917" lon="9.5187517"><ele>204.0</ele><time>2026-04-11T12:56:46.936Z</time></trkpt><trkpt lat="44.8416917" lon="9.518675"><ele>207.0</ele><time>2026-04-11T12:56:47.938Z</time></trkpt><trkpt lat="44.84159" lon="9.518595"><ele>210.0</ele><time>2026-04-11T12:56:48.938Z</time></trkpt><trkpt lat="44.84149" lon="9.5185117"><ele>212.99999999999997</ele><time>2026-04-11T12:56:49.938Z</time></trkpt><trkpt lat="44.8413933" lon="9.518435"><ele>216.0</ele><time>2026-04-11T12:56:50.942Z</time></trkpt><trkpt lat="44.841305" lon="9.518355"><ele>219.0</ele><time>2026-04-11T12:56:51.939Z</time></trkpt><trkpt lat="44.841225" lon="9.5182567"><ele>219.0</ele><time>2026-04-11T12:56:52.937Z</time></trkpt><trkpt lat="44.841165" lon="9.5181483"><ele>218.99999999999997</ele><time>2026-04-11T12:56:53.939Z</time></trkpt><trkpt lat="44.841115" lon="9.51803"><ele>218.99999999999997</ele><time>2026-04-11T12:56:54.938Z</time></trkpt><trkpt lat="44.84108" lon="9.517905"><ele>219.0</ele><time>2026-04-11T12:56:55.938Z</time></trkpt><trkpt lat="44.8410433" lon="9.51778"><ele>219.0</ele><time>2026-04-11T12:56:56.944Z</time></trkpt><trkpt lat="44.84099" lon="9.51766"><ele>218.75</ele><time>2026-04-11T12:56:57.938Z</time></trkpt><trkpt lat="44.8409117" lon="9.5175467"><ele>218.5</ele><time>2026-04-11T12:56:58.938Z</time></trkpt><trkpt lat="44.8408233" lon="9.5174383"><ele>218.25</ele><time>2026-04-11T12:56:59.938Z</time></trkpt><trkpt lat="44.840735" lon="9.5173383"><ele>218.0</ele><time>2026-04-11T12:57:00.938Z</time></trkpt><trkpt lat="44.84065" lon="9.5172417"><ele>218.0</ele><time>2026-04-11T12:57:01.939Z</time></trkpt><trkpt lat="44.840565" lon="9.5171533"><ele>218.0</ele><time>2026-04-11T12:57:02.94Z</time></trkpt><trkpt lat="44.8404833" lon="9.5170817"><ele>218.0</ele><time>2026-04-11T12:57:03.938Z</time></trkpt><trkpt lat="44.8403917" lon="9.517025"><ele>218.0</ele><time>2026-04-11T12:57:04.936Z</time></trkpt><trkpt lat="44.8403" lon="9.5169833"><ele>218.0</ele><time>2026-04-11T12:57:05.938Z</time></trkpt><trkpt lat="44.8402167" lon="9.51693"><ele>216.60000000000002</ele><time>2026-04-11T12:57:06.938Z</time></trkpt><trkpt lat="44.8401533" lon="9.516855"><ele>215.20000000000002</ele><time>2026-04-11T12:57:07.943Z</time></trkpt><trkpt lat="44.8400933" lon="9.5167667"><ele>213.8</ele><time>2026-04-11T12:57:08.939Z</time></trkpt><trkpt lat="44.84005" lon="9.51665"><ele>212.4</ele><time>2026-04-11T12:57:09.938Z</time></trkpt><trkpt lat="44.8400033" lon="9.516495"><ele>211.0</ele><time>2026-04-11T12:57:10.937Z</time></trkpt><trkpt lat="44.839955" lon="9.516335"><ele>215.5</ele><time>2026-04-11T12:57:11.936Z</time></trkpt><trkpt lat="44.8398983" lon="9.51618"><ele>220.0</ele><time>2026-04-11T12:57:12.94Z</time></trkpt><trkpt lat="44.8398283" lon="9.51604"><ele>224.5</ele><time>2026-04-11T12:57:13.938Z</time></trkpt><trkpt lat="44.8397383" lon="9.5159217"><ele>229.0</ele><time>2026-04-11T12:57:14.939Z</time></trkpt><trkpt lat="44.8396517" lon="9.5158133"><ele>229.0</ele><time>2026-04-11T12:57:15.937Z</time></trkpt><trkpt lat="44.8395733" lon="9.5157"><ele>228.99999999999997</ele><time>2026-04-11T12:57:16.939Z</time></trkpt><trkpt lat="44.8395067" lon="9.5155917"><ele>228.99999999999997</ele><time>2026-04-11T12:57:17.937Z</time></trkpt><trkpt lat="44.8394583" lon="9.51548"><ele>229.0</ele><time>2026-04-11T12:57:18.937Z</time></trkpt><trkpt lat="44.839425" lon="9.5153533"><ele>229.0</ele><time>2026-04-11T12:57:19.939Z</time></trkpt><trkpt lat="44.8393783" lon="9.51522"><ele>230.39999999999998</ele><time>2026-04-11T12:57:20.937Z</time></trkpt><trkpt lat="44.839325" lon="9.5150933"><ele>231.79999999999998</ele><time>2026-04-11T12:57:21.939Z</time></trkpt><trkpt lat="44.839275" lon="9.5149517"><ele>233.20000000000002</ele><time>2026-04-11T12:57:22.936Z</time></trkpt><trkpt lat="44.839235" lon="9.5148017"><ele>234.60000000000002</ele><time>2026-04-11T12:57:23.937Z</time></trkpt><trkpt lat="44.8392067" lon="9.514655"><ele>236.0</ele><time>2026-04-11T12:57:24.937Z</time></trkpt><trkpt lat="44.8392017" lon="9.5145117"><ele>230.60000000000002</ele><time>2026-04-11T12:57:25.938Z</time></trkpt><trkpt lat="44.8392183" lon="9.51437"><ele>225.20000000000002</ele><time>2026-04-11T12:57:26.938Z</time></trkpt><trkpt lat="44.839245" lon="9.514225"><ele>219.8</ele><time>2026-04-11T12:57:27.943Z</time></trkpt><trkpt lat="44.839265" lon="9.514085"><ele>214.39999999999998</ele><time>2026-04-11T12:57:28.939Z</time></trkpt><trkpt lat="44.8392717" lon="9.5139467"><ele>209.0</ele><time>2026-04-11T12:57:29.938Z</time></trkpt><trkpt lat="44.83925" lon="9.5138317"><ele>209.00000000000003</ele><time>2026-04-11T12:57:30.937Z</time></trkpt><trkpt lat="44.8392133" lon="9.5137417"><ele>209.0</ele><time>2026-04-11T12:57:31.936Z</time></trkpt><trkpt lat="44.83915" lon="9.5137317"><ele>209.0</ele><time>2026-04-11T12:57:32.942Z</time></trkpt><trkpt lat="44.839085" lon="9.51376"><ele>209.0</ele><time>2026-04-11T12:57:33.936Z</time></trkpt><trkpt lat="44.8390217" lon="9.51382"><ele>209.00000000000003</ele><time>2026-04-11T12:57:34.937Z</time></trkpt><trkpt lat="44.8389583" lon="9.51391"><ele>209.0</ele><time>2026-04-11T12:57:35.936Z</time></trkpt><trkpt lat="44.83889" lon="9.5139983"><ele>209.0</ele><time>2026-04-11T12:57:36.936Z</time></trkpt><trkpt lat="44.8388167" lon="9.5140617"><ele>209.0</ele><time>2026-04-11T12:57:37.937Z</time></trkpt><trkpt lat="44.8387283" lon="9.5140917"><ele>209.0</ele><time>2026-04-11T12:57:38.937Z</time></trkpt><trkpt lat="44.8386283" lon="9.5140867"><ele>209.0</ele><time>2026-04-11T12:57:39.943Z</time></trkpt><trkpt lat="44.8385167" lon="9.5140567"><ele>209.0</ele><time>2026-04-11T12:57:40.938Z</time></trkpt><trkpt lat="44.8383983" lon="9.514015"><ele>207.5</ele><time>2026-04-11T12:57:41.936Z</time></trkpt><trkpt lat="44.8382767" lon="9.5139667"><ele>206.0</ele><time>2026-04-11T12:57:42.937Z</time></trkpt><trkpt lat="44.8381567" lon="9.5139233"><ele>204.5</ele><time>2026-04-11T12:57:43.937Z</time></trkpt><trkpt lat="44.8380483" lon="9.513885"><ele>203.0</ele><time>2026-04-11T12:57:44.937Z</time></trkpt><trkpt lat="44.8379433" lon="9.51383"><ele>203.0</ele><time>2026-04-11T12:57:45.937Z</time></trkpt><trkpt lat="44.8378417" lon="9.513755"><ele>203.0</ele><time>2026-04-11T12:57:46.937Z</time></trkpt><trkpt lat="44.8377467" lon="9.513655"><ele>203.0</ele><time>2026-04-11T12:57:47.937Z</time></trkpt><trkpt lat="44.8376533" lon="9.513545"><ele>203.0</ele><time>2026-04-11T12:57:48.943Z</time></trkpt><trkpt lat="44.83755" lon="9.5134467"><ele>206.0</ele><time>2026-04-11T12:57:49.937Z</time></trkpt><trkpt lat="44.8374333" lon="9.5133833"><ele>209.0</ele><time>2026-04-11T12:57:50.937Z</time></trkpt><trkpt lat="44.8373117" lon="9.5133633"><ele>212.0</ele><time>2026-04-11T12:57:51.938Z</time></trkpt><trkpt lat="44.8371917" lon="9.5133617"><ele>215.0</ele><time>2026-04-11T12:57:52.937Z</time></trkpt><trkpt lat="44.83707" lon="9.5133583"><ele>215.0</ele><time>2026-04-11T12:57:53.941Z</time></trkpt><trkpt lat="44.8369483" lon="9.5133417"><ele>215.0</ele><time>2026-04-11T12:57:54.937Z</time></trkpt><trkpt lat="44.8368317" lon="9.513315"><ele>215.0</ele><time>2026-04-11T12:57:55.937Z</time></trkpt><trkpt lat="44.836725" lon="9.513295"><ele>215.0</ele><time>2026-04-11T12:57:56.938Z</time></trkpt><trkpt lat="44.836625" lon="9.5132767"><ele>215.0</ele><time>2026-04-11T12:57:57.937Z</time></trkpt><trkpt lat="44.836525" lon="9.5132567"><ele>214.4</ele><time>2026-04-11T12:57:58.939Z</time></trkpt><trkpt lat="44.83642" lon="9.5132317"><ele>213.8</ele><time>2026-04-11T12:57:59.938Z</time></trkpt><trkpt lat="44.8363117" lon="9.5132017"><ele>213.2</ele><time>2026-04-11T12:58:00.94Z</time></trkpt><trkpt lat="44.8362" lon="9.513175"><ele>212.6</ele><time>2026-04-11T12:58:01.937Z</time></trkpt><trkpt lat="44.8360883" lon="9.5131467"><ele>212.0</ele><time>2026-04-11T12:58:02.938Z</time></trkpt><trkpt lat="44.8359783" lon="9.5131167"><ele>210.75</ele><time>2026-04-11T12:58:03.936Z</time></trkpt><trkpt lat="44.8358683" lon="9.5130883"><ele>209.5</ele><time>2026-04-11T12:58:04.936Z</time></trkpt><trkpt lat="44.835755" lon="9.5130617"><ele>208.25</ele><time>2026-04-11T12:58:05.937Z</time></trkpt><trkpt lat="44.8356367" lon="9.5130367"><ele>207.0</ele><time>2026-04-11T12:58:06.936Z</time></trkpt><trkpt lat="44.8355167" lon="9.5130067"><ele>207.0</ele><time>2026-04-11T12:58:07.936Z</time></trkpt><trkpt lat="44.8353967" lon="9.5129583"><ele>207.0</ele><time>2026-04-11T12:58:08.945Z</time></trkpt><trkpt lat="44.8352717" lon="9.512875"><ele>207.0</ele><time>2026-04-11T12:58:09.936Z</time></trkpt><trkpt lat="44.8351417" lon="9.5127683"><ele>207.0</ele><time>2026-04-11T12:58:10.938Z</time></trkpt><trkpt lat="44.835015" lon="9.51265"><ele>208.5</ele><time>2026-04-11T12:58:11.938Z</time></trkpt><trkpt lat="44.8349067" lon="9.5125183"><ele>210.0</ele><time>2026-04-11T12:58:12.938Z</time></trkpt><trkpt lat="44.83481" lon="9.51238"><ele>211.5</ele><time>2026-04-11T12:58:13.938Z</time></trkpt><trkpt lat="44.8347083" lon="9.51225"><ele>213.0</ele><time>2026-04-11T12:58:14.938Z</time></trkpt><trkpt lat="44.834605" lon="9.5121317"><ele>212.0</ele><time>2026-04-11T12:58:15.943Z</time></trkpt><trkpt lat="44.8345083" lon="9.512015"><ele>211.0</ele><time>2026-04-11T12:58:16.936Z</time></trkpt><trkpt lat="44.83442" lon="9.511885"><ele>210.0</ele><time>2026-04-11T12:58:17.937Z</time></trkpt><trkpt lat="44.83435" lon="9.5117417"><ele>209.0</ele><time>2026-04-11T12:58:18.938Z</time></trkpt><trkpt lat="44.8342983" lon="9.5115867"><ele>209.0</ele><time>2026-04-11T12:58:19.937Z</time></trkpt><trkpt lat="44.8342683" lon="9.5114267"><ele>209.0</ele><time>2026-04-11T12:58:20.937Z</time></trkpt><trkpt lat="44.834255" lon="9.5112617"><ele>209.0</ele><time>2026-04-11T12:58:21.936Z</time></trkpt><trkpt lat="44.8342467" lon="9.5111"><ele>209.0</ele><time>2026-04-11T12:58:22.936Z</time></trkpt><trkpt lat="44.8342133" lon="9.5109483"><ele>210.25</ele><time>2026-04-11T12:58:23.938Z</time></trkpt><trkpt lat="44.8341467" lon="9.5108067"><ele>211.5</ele><time>2026-04-11T12:58:24.94Z</time></trkpt><trkpt lat="44.83405" lon="9.5106983"><ele>212.75</ele><time>2026-04-11T12:58:25.937Z</time></trkpt><trkpt lat="44.8339283" lon="9.51064"><ele>214.0</ele><time>2026-04-11T12:58:26.937Z</time></trkpt><trkpt lat="44.8338083" lon="9.51062"><ele>214.0</ele><time>2026-04-11T12:58:27.937Z</time></trkpt><trkpt lat="44.8337033" lon="9.5105883"><ele>214.0</ele><time>2026-04-11T12:58:28.937Z</time></trkpt><trkpt lat="44.8336133" lon="9.5105167"><ele>214.0</ele><time>2026-04-11T12:58:29.937Z</time></trkpt><trkpt lat="44.8335267" lon="9.5104"><ele>214.0</ele><time>2026-04-11T12:58:30.941Z</time></trkpt><trkpt lat="44.833445" lon="9.5102533"><ele>213.75</ele><time>2026-04-11T12:58:31.937Z</time></trkpt><trkpt lat="44.8333683" lon="9.5101017"><ele>213.5</ele><time>2026-04-11T12:58:32.938Z</time></trkpt><trkpt lat="44.8332967" lon="9.509955"><ele>213.25</ele><time>2026-04-11T12:58:33.937Z</time></trkpt><trkpt lat="44.8332367" lon="9.509815"><ele>213.0</ele><time>2026-04-11T12:58:34.938Z</time></trkpt><trkpt lat="44.8332117" lon="9.50968"><ele>214.60000000000002</ele><time>2026-04-11T12:58:35.937Z</time></trkpt><trkpt lat="44.83322" lon="9.5095367"><ele>216.20000000000002</ele><time>2026-04-11T12:58:36.936Z</time></trkpt><trkpt lat="44.83326" lon="9.5093883"><ele>217.8</ele><time>2026-04-11T12:58:37.944Z</time></trkpt><trkpt lat="44.8333017" lon="9.5092433"><ele>219.4</ele><time>2026-04-11T12:58:38.938Z</time></trkpt><trkpt lat="44.833325" lon="9.5091033"><ele>221.0</ele><time>2026-04-11T12:58:39.938Z</time></trkpt><trkpt lat="44.8333067" lon="9.5089517"><ele>221.0</ele><time>2026-04-11T12:58:40.937Z</time></trkpt><trkpt lat="44.8332533" lon="9.5088033"><ele>221.0</ele><time>2026-04-11T12:58:41.937Z</time></trkpt><trkpt lat="44.8331817" lon="9.5086717"><ele>221.0</ele><time>2026-04-11T12:58:42.942Z</time></trkpt><trkpt lat="44.8331" lon="9.5085517"><ele>221.0</ele><time>2026-04-11T12:58:43.937Z</time></trkpt><trkpt lat="44.8329983" lon="9.5084383"><ele>220.5</ele><time>2026-04-11T12:58:44.939Z</time></trkpt><trkpt lat="44.832885" lon="9.5083333"><ele>220.0</ele><time>2026-04-11T12:58:45.938Z</time></trkpt><trkpt lat="44.83277" lon="9.5082433"><ele>219.5</ele><time>2026-04-11T12:58:46.937Z</time></trkpt><trkpt lat="44.8326567" lon="9.5081667"><ele>219.0</ele><time>2026-04-11T12:58:47.939Z</time></trkpt><trkpt lat="44.8325517" lon="9.5081017"><ele>219.0</ele><time>2026-04-11T12:58:48.939Z</time></trkpt><trkpt lat="44.83245" lon="9.5080367"><ele>219.0</ele><time>2026-04-11T12:58:49.943Z</time></trkpt><trkpt lat="44.8323517" lon="9.5079683"><ele>219.0</ele><time>2026-04-11T12:58:50.939Z</time></trkpt><trkpt lat="44.8322517" lon="9.507895"><ele>219.0</ele><time>2026-04-11T12:58:51.938Z</time></trkpt><trkpt lat="44.8321517" lon="9.5078133"><ele>220.0</ele><time>2026-04-11T12:58:52.939Z</time></trkpt><trkpt lat="44.8320517" lon="9.5077283"><ele>220.99999999999997</ele><time>2026-04-11T12:58:53.938Z</time></trkpt><trkpt lat="44.8319567" lon="9.5076417"><ele>221.99999999999997</ele><time>2026-04-11T12:58:54.937Z</time></trkpt><trkpt lat="44.8318667" lon="9.5075483"><ele>223.0</ele><time>2026-04-11T12:58:55.939Z</time></trkpt><trkpt lat="44.8317867" lon="9.5074533"><ele>224.0</ele><time>2026-04-11T12:58:56.938Z</time></trkpt><trkpt lat="44.8317133" lon="9.5073583"><ele>224.0</ele><time>2026-04-11T12:58:57.937Z</time></trkpt><trkpt lat="44.83165" lon="9.5072617"><ele>223.99999999999997</ele><time>2026-04-11T12:58:58.938Z</time></trkpt><trkpt lat="44.8316033" lon="9.50715"><ele>223.99999999999997</ele><time>2026-04-11T12:58:59.937Z</time></trkpt><trkpt lat="44.8315733" lon="9.507015"><ele>224.0</ele><time>2026-04-11T12:59:00.937Z</time></trkpt><trkpt lat="44.8315567" lon="9.506865"><ele>224.0</ele><time>2026-04-11T12:59:01.937Z</time></trkpt><trkpt lat="44.8315383" lon="9.5067133"><ele>227.25</ele><time>2026-04-11T12:59:02.937Z</time></trkpt><trkpt lat="44.8314883" lon="9.5065733"><ele>230.5</ele><time>2026-04-11T12:59:03.943Z</time></trkpt><trkpt lat="44.8314" lon="9.5064533"><ele>233.75</ele><time>2026-04-11T12:59:04.936Z</time></trkpt><trkpt lat="44.8312967" lon="9.5063533"><ele>237.0</ele><time>2026-04-11T12:59:05.94Z</time></trkpt><trkpt lat="44.8312017" lon="9.506245"><ele>239.75</ele><time>2026-04-11T12:59:06.937Z</time></trkpt><trkpt lat="44.83113" lon="9.506115"><ele>242.5</ele><time>2026-04-11T12:59:07.936Z</time></trkpt><trkpt lat="44.8310767" lon="9.505965"><ele>245.25</ele><time>2026-04-11T12:59:08.937Z</time></trkpt><trkpt lat="44.8310333" lon="9.5058033"><ele>248.0</ele><time>2026-04-11T12:59:09.936Z</time></trkpt><trkpt lat="44.8309817" lon="9.505655"><ele>245.75</ele><time>2026-04-11T12:59:10.944Z</time></trkpt><trkpt lat="44.8309167" lon="9.5055183"><ele>243.5</ele><time>2026-04-11T12:59:11.937Z</time></trkpt><trkpt lat="44.8308567" lon="9.505385"><ele>241.25</ele><time>2026-04-11T12:59:12.937Z</time></trkpt><trkpt lat="44.8308083" lon="9.5052433"><ele>239.0</ele><time>2026-04-11T12:59:13.936Z</time></trkpt><trkpt lat="44.83077" lon="9.5050917"><ele>239.0</ele><time>2026-04-11T12:59:14.937Z</time></trkpt><trkpt lat="44.83074" lon="9.504935"><ele>239.0</ele><time>2026-04-11T12:59:15.936Z</time></trkpt><trkpt lat="44.8307133" lon="9.504775"><ele>239.0</ele><time>2026-04-11T12:59:16.937Z</time></trkpt><trkpt lat="44.8306883" lon="9.5046083"><ele>239.0</ele><time>2026-04-11T12:59:17.939Z</time></trkpt><trkpt lat="44.8306617" lon="9.5044367"><ele>240.75</ele><time>2026-04-11T12:59:18.938Z</time></trkpt><trkpt lat="44.830635" lon="9.504265"><ele>242.5</ele><time>2026-04-11T12:59:19.946Z</time></trkpt><trkpt lat="44.8306067" lon="9.5040867"><ele>244.25</ele><time>2026-04-11T12:59:20.94Z</time></trkpt><trkpt lat="44.8305683" lon="9.503915"><ele>246.0</ele><time>2026-04-11T12:59:21.94Z</time></trkpt><trkpt lat="44.8305217" lon="9.50375"><ele>248.75</ele><time>2026-04-11T12:59:22.939Z</time></trkpt><trkpt lat="44.8304733" lon="9.5035833"><ele>251.5</ele><time>2026-04-11T12:59:23.939Z</time></trkpt><trkpt lat="44.8304233" lon="9.50342"><ele>254.25</ele><time>2026-04-11T12:59:24.941Z</time></trkpt><trkpt lat="44.830375" lon="9.5032483"><ele>257.0</ele><time>2026-04-11T12:59:25.937Z</time></trkpt><trkpt lat="44.8303317" lon="9.5030767"><ele>259.5</ele><time>2026-04-11T12:59:26.943Z</time></trkpt><trkpt lat="44.83029" lon="9.5029033"><ele>262.0</ele><time>2026-04-11T12:59:27.938Z</time></trkpt><trkpt lat="44.8302467" lon="9.5027383"><ele>264.5</ele><time>2026-04-11T12:59:28.938Z</time></trkpt><trkpt lat="44.830205" lon="9.5025883"><ele>267.0</ele><time>2026-04-11T12:59:29.937Z</time></trkpt><trkpt lat="44.83017" lon="9.5024467"><ele>267.0</ele><time>2026-04-11T12:59:30.939Z</time></trkpt><trkpt lat="44.83016" lon="9.5023167"><ele>267.0</ele><time>2026-04-11T12:59:31.937Z</time></trkpt><trkpt lat="44.8301833" lon="9.502185"><ele>267.0</ele><time>2026-04-11T12:59:32.939Z</time></trkpt><trkpt lat="44.8302217" lon="9.5020567"><ele>267.0</ele><time>2026-04-11T12:59:33.938Z</time></trkpt><trkpt lat="44.8302433" lon="9.5019183"><ele>267.0</ele><time>2026-04-11T12:59:34.938Z</time></trkpt><trkpt lat="44.83024" lon="9.5017733"><ele>268.2</ele><time>2026-04-11T12:59:35.938Z</time></trkpt><trkpt lat="44.8302367" lon="9.5016117"><ele>269.4</ele><time>2026-04-11T12:59:36.937Z</time></trkpt><trkpt lat="44.8302467" lon="9.50145"><ele>270.6</ele><time>2026-04-11T12:59:37.938Z</time></trkpt><trkpt lat="44.83028" lon="9.501305"><ele>271.8</ele><time>2026-04-11T12:59:38.937Z</time></trkpt><trkpt lat="44.8303217" lon="9.501175"><ele>273.0</ele><time>2026-04-11T12:59:39.943Z</time></trkpt><trkpt lat="44.8303633" lon="9.5010567"><ele>273.4</ele><time>2026-04-11T12:59:40.938Z</time></trkpt><trkpt lat="44.8303967" lon="9.5009533"><ele>273.8</ele><time>2026-04-11T12:59:41.94Z</time></trkpt><trkpt lat="44.8303867" lon="9.5008"><ele>274.2</ele><time>2026-04-11T12:59:43.937Z</time></trkpt><trkpt lat="44.830325" lon="9.5007783"><ele>274.6</ele><time>2026-04-11T12:59:44.938Z</time></trkpt><trkpt lat="44.8302033" lon="9.5008567"><ele>275.0</ele><time>2026-04-11T12:59:46.939Z</time></trkpt><trkpt lat="44.8301067" lon="9.5009467"><ele>272.6</ele><time>2026-04-11T12:59:47.939Z</time></trkpt><trkpt lat="44.8300133" lon="9.50104"><ele>270.2</ele><time>2026-04-11T12:59:48.944Z</time></trkpt><trkpt lat="44.8299217" lon="9.5011333"><ele>267.8</ele><time>2026-04-11T12:59:49.938Z</time></trkpt><trkpt lat="44.8298367" lon="9.5012333"><ele>265.4</ele><time>2026-04-11T12:59:50.938Z</time></trkpt><trkpt lat="44.8297583" lon="9.5013383"><ele>263.0</ele><time>2026-04-11T12:59:51.938Z</time></trkpt><trkpt lat="44.8296817" lon="9.5014533"><ele>262.4</ele><time>2026-04-11T12:59:52.938Z</time></trkpt><trkpt lat="44.829605" lon="9.5015717"><ele>261.8</ele><time>2026-04-11T12:59:53.938Z</time></trkpt><trkpt lat="44.8295283" lon="9.5016717"><ele>261.2</ele><time>2026-04-11T12:59:54.938Z</time></trkpt><trkpt lat="44.829445" lon="9.5017417"><ele>260.6</ele><time>2026-04-11T12:59:55.938Z</time></trkpt><trkpt lat="44.829355" lon="9.50177"><ele>260.0</ele><time>2026-04-11T12:59:56.938Z</time></trkpt><trkpt lat="44.8292533" lon="9.501755"><ele>260.0</ele><time>2026-04-11T12:59:57.938Z</time></trkpt><trkpt lat="44.82915" lon="9.5017167"><ele>260.0</ele><time>2026-04-11T12:59:58.937Z</time></trkpt><trkpt lat="44.8290567" lon="9.50167"><ele>260.0</ele><time>2026-04-11T12:59:59.939Z</time></trkpt><trkpt lat="44.828975" lon="9.5016267"><ele>260.0</ele><time>2026-04-11T13:00:00.938Z</time></trkpt><trkpt lat="44.8289" lon="9.5015783"><ele>260.0</ele><time>2026-04-11T13:00:01.945Z</time></trkpt><trkpt lat="44.8288233" lon="9.50152"><ele>260.0</ele><time>2026-04-11T13:00:02.938Z</time></trkpt><trkpt lat="44.8287433" lon="9.501455"><ele>260.0</ele><time>2026-04-11T13:00:03.937Z</time></trkpt><trkpt lat="44.8286633" lon="9.5013867"><ele>260.0</ele><time>2026-04-11T13:00:04.937Z</time></trkpt><trkpt lat="44.8285833" lon="9.50132"><ele>260.0</ele><time>2026-04-11T13:00:05.94Z</time></trkpt><trkpt lat="44.8285067" lon="9.5012567"><ele>260.0</ele><time>2026-04-11T13:00:06.939Z</time></trkpt><trkpt lat="44.8284367" lon="9.5011883"><ele>260.1666666666667</ele><time>2026-04-11T13:00:07.938Z</time></trkpt><trkpt lat="44.8283717" lon="9.50111"><ele>260.33333333333337</ele><time>2026-04-11T13:00:08.939Z</time></trkpt><trkpt lat="44.8283267" lon="9.501015"><ele>260.5</ele><time>2026-04-11T13:00:09.938Z</time></trkpt><trkpt lat="44.8283067" lon="9.50091"><ele>260.6666666666667</ele><time>2026-04-11T13:00:10.94Z</time></trkpt><trkpt lat="44.828325" lon="9.5007917"><ele>260.8333333333333</ele><time>2026-04-11T13:00:11.937Z</time></trkpt><trkpt lat="44.8283667" lon="9.5006767"><ele>261.0</ele><time>2026-04-11T13:00:12.938Z</time></trkpt><trkpt lat="44.8284167" lon="9.500565"><ele>261.0</ele><time>2026-04-11T13:00:13.938Z</time></trkpt><trkpt lat="44.82847" lon="9.5004583"><ele>261.0</ele><time>2026-04-11T13:00:14.938Z</time></trkpt><trkpt lat="44.8285283" lon="9.500355"><ele>261.0</ele><time>2026-04-11T13:00:15.938Z</time></trkpt><trkpt lat="44.8285867" lon="9.5002483"><ele>261.0</ele><time>2026-04-11T13:00:16.938Z</time></trkpt><trkpt lat="44.82865" lon="9.5001433"><ele>261.0</ele><time>2026-04-11T13:00:17.939Z</time></trkpt><trkpt lat="44.8287133" lon="9.5000367"><ele>262.6</ele><time>2026-04-11T13:00:18.939Z</time></trkpt><trkpt lat="44.828775" lon="9.4999233"><ele>264.20000000000005</ele><time>2026-04-11T13:00:19.939Z</time></trkpt><trkpt lat="44.8288333" lon="9.4998033"><ele>265.79999999999995</ele><time>2026-04-11T13:00:20.939Z</time></trkpt><trkpt lat="44.8288933" lon="9.4996833"><ele>267.4</ele><time>2026-04-11T13:00:21.944Z</time></trkpt><trkpt lat="44.8289533" lon="9.499565"><ele>269.0</ele><time>2026-04-11T13:00:22.939Z</time></trkpt><trkpt lat="44.8290167" lon="9.49945"><ele>269.0</ele><time>2026-04-11T13:00:23.939Z</time></trkpt><trkpt lat="44.829095" lon="9.49934"><ele>269.0</ele><time>2026-04-11T13:00:24.937Z</time></trkpt><trkpt lat="44.82918" lon="9.4992133"><ele>269.0</ele><time>2026-04-11T13:00:25.937Z</time></trkpt><trkpt lat="44.829265" lon="9.499065"><ele>269.0</ele><time>2026-04-11T13:00:26.937Z</time></trkpt><trkpt lat="44.8293483" lon="9.498925"><ele>270.4</ele><time>2026-04-11T13:00:27.939Z</time></trkpt><trkpt lat="44.8294333" lon="9.4988167"><ele>271.79999999999995</ele><time>2026-04-11T13:00:28.939Z</time></trkpt><trkpt lat="44.829525" lon="9.4987283"><ele>273.20000000000005</ele><time>2026-04-11T13:00:29.937Z</time></trkpt><trkpt lat="44.829625" lon="9.4986533"><ele>274.6</ele><time>2026-04-11T13:00:30.938Z</time></trkpt><trkpt lat="44.82971" lon="9.498585"><ele>276.0</ele><time>2026-04-11T13:00:31.94Z</time></trkpt><trkpt lat="44.829775" lon="9.4985083"><ele>276.0</ele><time>2026-04-11T13:00:32.939Z</time></trkpt><trkpt lat="44.8298117" lon="9.498435"><ele>276.0</ele><time>2026-04-11T13:00:33.939Z</time></trkpt><trkpt lat="44.8297917" lon="9.4983167"><ele>276.0</ele><time>2026-04-11T13:00:35.939Z</time></trkpt><trkpt lat="44.8297017" lon="9.4982767"><ele>276.0</ele><time>2026-04-11T13:00:37.938Z</time></trkpt><trkpt lat="44.8296383" lon="9.498265"><ele>276.0</ele><time>2026-04-11T13:00:38.94Z</time></trkpt><trkpt lat="44.8295717" lon="9.4982533"><ele>276.0</ele><time>2026-04-11T13:00:39.939Z</time></trkpt><trkpt lat="44.8295067" lon="9.4982317"><ele>276.0</ele><time>2026-04-11T13:00:40.938Z</time></trkpt><trkpt lat="44.829395" lon="9.4981917"><ele>275.0</ele><time>2026-04-11T13:00:42.938Z</time></trkpt><trkpt lat="44.8293067" lon="9.49815"><ele>274.0</ele><time>2026-04-11T13:00:44.937Z</time></trkpt><trkpt lat="44.8292667" lon="9.4980783"><ele>273.0</ele><time>2026-04-11T13:00:46.937Z</time></trkpt><trkpt lat="44.8293033" lon="9.4980017"><ele>272.0</ele><time>2026-04-11T13:00:48.939Z</time></trkpt><trkpt lat="44.8294333" lon="9.497895"><ele>271.0</ele><time>2026-04-11T13:00:50.939Z</time></trkpt><trkpt lat="44.82952" lon="9.4978283"><ele>273.2</ele><time>2026-04-11T13:00:51.949Z</time></trkpt><trkpt lat="44.8296083" lon="9.4977633"><ele>275.40000000000003</ele><time>2026-04-11T13:00:52.938Z</time></trkpt><trkpt lat="44.8296983" lon="9.4977017"><ele>277.6</ele><time>2026-04-11T13:00:53.94Z</time></trkpt><trkpt lat="44.8297883" lon="9.4976517"><ele>279.8</ele><time>2026-04-11T13:00:54.939Z</time></trkpt><trkpt lat="44.8298783" lon="9.4975967"><ele>282.0</ele><time>2026-04-11T13:00:55.939Z</time></trkpt><trkpt lat="44.8299733" lon="9.4975333"><ele>282.0</ele><time>2026-04-11T13:00:56.939Z</time></trkpt><trkpt lat="44.830065" lon="9.497465"><ele>282.0</ele><time>2026-04-11T13:00:57.939Z</time></trkpt><trkpt lat="44.8301567" lon="9.4973917"><ele>282.0</ele><time>2026-04-11T13:00:58.94Z</time></trkpt><trkpt lat="44.83024" lon="9.4973167"><ele>282.0</ele><time>2026-04-11T13:00:59.939Z</time></trkpt><trkpt lat="44.83032" lon="9.4972383"><ele>282.0</ele><time>2026-04-11T13:01:00.94Z</time></trkpt><trkpt lat="44.8303883" lon="9.4971533"><ele>284.8</ele><time>2026-04-11T13:01:01.939Z</time></trkpt><trkpt lat="44.8304383" lon="9.497055"><ele>287.6</ele><time>2026-04-11T13:01:02.94Z</time></trkpt><trkpt lat="44.8304683" lon="9.4969283"><ele>290.40000000000003</ele><time>2026-04-11T13:01:03.947Z</time></trkpt><trkpt lat="44.8304833" lon="9.4967867"><ele>293.2</ele><time>2026-04-11T13:01:04.939Z</time></trkpt><trkpt lat="44.8305033" lon="9.4966567"><ele>296.0</ele><time>2026-04-11T13:01:05.939Z</time></trkpt><trkpt lat="44.8305367" lon="9.49655"><ele>296.0</ele><time>2026-04-11T13:01:06.939Z</time></trkpt><trkpt lat="44.8305917" lon="9.4964783"><ele>296.0</ele><time>2026-04-11T13:01:07.939Z</time></trkpt><trkpt lat="44.830665" lon="9.4964333"><ele>296.0</ele><time>2026-04-11T13:01:08.939Z</time></trkpt><trkpt lat="44.8307533" lon="9.4964167"><ele>296.0</ele><time>2026-04-11T13:01:09.939Z</time></trkpt><trkpt lat="44.8308417" lon="9.4963917"><ele>296.0</ele><time>2026-04-11T13:01:10.941Z</time></trkpt><trkpt lat="44.8309333" lon="9.4963533"><ele>296.0</ele><time>2026-04-11T13:01:11.939Z</time></trkpt><trkpt lat="44.8310317" lon="9.4963"><ele>298.0</ele><time>2026-04-11T13:01:12.938Z</time></trkpt><trkpt lat="44.8311267" lon="9.4962417"><ele>300.0</ele><time>2026-04-11T13:01:13.938Z</time></trkpt><trkpt lat="44.8312232" lon="9.4961845"><ele>302.0</ele><time>2026-04-11T13:01:14.938Z</time></trkpt><trkpt lat="44.8313222" lon="9.4961303"><ele>304.0</ele><time>2026-04-11T13:01:15.942Z</time></trkpt><trkpt lat="44.8314222" lon="9.4960797"><ele>306.0</ele><time>2026-04-11T13:01:16.938Z</time></trkpt><trkpt lat="44.8315234" lon="9.496026"><ele>306.0</ele><time>2026-04-11T13:01:17.938Z</time></trkpt><trkpt lat="44.8316269" lon="9.4959728"><ele>306.0</ele><time>2026-04-11T13:01:18.938Z</time></trkpt><trkpt lat="44.8317311" lon="9.4959199"><ele>306.0</ele><time>2026-04-11T13:01:19.938Z</time></trkpt><trkpt lat="44.8318375" lon="9.4958652"><ele>306.0</ele><time>2026-04-11T13:01:20.942Z</time></trkpt><trkpt lat="44.8319414" lon="9.4958022"><ele>306.0</ele><time>2026-04-11T13:01:21.938Z</time></trkpt><trkpt lat="44.8320389" lon="9.4957301"><ele>308.2</ele><time>2026-04-11T13:01:22.938Z</time></trkpt><trkpt lat="44.8321323" lon="9.4956465"><ele>310.40000000000003</ele><time>2026-04-11T13:01:23.937Z</time></trkpt><trkpt lat="44.832222" lon="9.4955517"><ele>312.6</ele><time>2026-04-11T13:01:24.938Z</time></trkpt><trkpt lat="44.8323083" lon="9.4954513"><ele>314.8</ele><time>2026-04-11T13:01:25.937Z</time></trkpt><trkpt lat="44.8323927" lon="9.4953518"><ele>317.0</ele><time>2026-04-11T13:01:26.939Z</time></trkpt><trkpt lat="44.8324708" lon="9.4952761"><ele>317.33333333333337</ele><time>2026-04-11T13:01:27.937Z</time></trkpt><trkpt lat="44.832546" lon="9.4952364"><ele>317.6666666666667</ele><time>2026-04-11T13:01:28.937Z</time></trkpt><trkpt lat="44.8326224" lon="9.4952326"><ele>318.0</ele><time>2026-04-11T13:01:29.948Z</time></trkpt><trkpt lat="44.8326961" lon="9.4952547"><ele>318.3333333333333</ele><time>2026-04-11T13:01:30.938Z</time></trkpt><trkpt lat="44.8327824" lon="9.4952932"><ele>318.66666666666663</ele><time>2026-04-11T13:01:31.939Z</time></trkpt><trkpt lat="44.8328757" lon="9.4953271"><ele>319.0</ele><time>2026-04-11T13:01:32.94Z</time></trkpt><trkpt lat="44.8329706" lon="9.4953306"><ele>321.2</ele><time>2026-04-11T13:01:33.939Z</time></trkpt><trkpt lat="44.8330662" lon="9.4953"><ele>323.4</ele><time>2026-04-11T13:01:34.939Z</time></trkpt><trkpt lat="44.8331598" lon="9.4952468"><ele>325.6</ele><time>2026-04-11T13:01:35.938Z</time></trkpt><trkpt lat="44.8332511" lon="9.4951836"><ele>327.8</ele><time>2026-04-11T13:01:36.938Z</time></trkpt><trkpt lat="44.8333451" lon="9.4951232"><ele>330.0</ele><time>2026-04-11T13:01:37.943Z</time></trkpt><trkpt lat="44.8334362" lon="9.4950541"><ele>332.2</ele><time>2026-04-11T13:01:38.938Z</time></trkpt><trkpt lat="44.8335111" lon="9.4949543"><ele>334.4</ele><time>2026-04-11T13:01:39.937Z</time></trkpt><trkpt lat="44.8335679" lon="9.4948365"><ele>336.6</ele><time>2026-04-11T13:01:40.937Z</time></trkpt><trkpt lat="44.833615" lon="9.4947158"><ele>338.8</ele><time>2026-04-11T13:01:41.939Z</time></trkpt><trkpt lat="44.8336629" lon="9.4945903"><ele>341.0</ele><time>2026-04-11T13:01:42.942Z</time></trkpt><trkpt lat="44.8337159" lon="9.494471"><ele>341.1666666666667</ele><time>2026-04-11T13:01:43.937Z</time></trkpt><trkpt lat="44.8337744" lon="9.4943722"><ele>341.33333333333337</ele><time>2026-04-11T13:01:44.938Z</time></trkpt><trkpt lat="44.833844" lon="9.4942929"><ele>341.5</ele><time>2026-04-11T13:01:45.937Z</time></trkpt><trkpt lat="44.8339179" lon="9.4942315"><ele>341.6666666666667</ele><time>2026-04-11T13:01:46.938Z</time></trkpt><trkpt lat="44.833995" lon="9.4941868"><ele>341.8333333333333</ele><time>2026-04-11T13:01:47.937Z</time></trkpt><trkpt lat="44.8340672" lon="9.4941574"><ele>342.0</ele><time>2026-04-11T13:01:48.939Z</time></trkpt><trkpt lat="44.8341743" lon="9.49412"><ele>342.0</ele><time>2026-04-11T13:01:50.938Z</time></trkpt><trkpt lat="44.834242" lon="9.4940955"><ele>342.0</ele><time>2026-04-11T13:01:52.937Z</time></trkpt><trkpt lat="44.8343298" lon="9.4940694"><ele>342.0</ele><time>2026-04-11T13:01:54.939Z</time></trkpt><trkpt lat="44.8344316" lon="9.4940311"><ele>342.0</ele><time>2026-04-11T13:01:56.94Z</time></trkpt><trkpt lat="44.8345231" lon="9.4939881"><ele>342.0</ele><time>2026-04-11T13:01:58.942Z</time></trkpt><trkpt lat="44.8346052" lon="9.4939533"><ele>342.0</ele><time>2026-04-11T13:02:00.939Z</time></trkpt><trkpt lat="44.8347026" lon="9.4939012"><ele>344.0</ele><time>2026-04-11T13:02:02.94Z</time></trkpt><trkpt lat="44.8347672" lon="9.4938626"><ele>346.0</ele><time>2026-04-11T13:02:03.939Z</time></trkpt><trkpt lat="44.8348355" lon="9.4938363"><ele>348.0</ele><time>2026-04-11T13:02:04.939Z</time></trkpt><trkpt lat="44.8349016" lon="9.4938395"><ele>350.0</ele><time>2026-04-11T13:02:05.939Z</time></trkpt><trkpt lat="44.8349985" lon="9.4939336"><ele>352.0</ele><time>2026-04-11T13:02:07.939Z</time></trkpt><trkpt lat="44.8350287" lon="9.494014"><ele>354.0</ele><time>2026-04-11T13:02:08.94Z</time></trkpt><trkpt lat="44.8350451" lon="9.4941205"><ele>354.0</ele><time>2026-04-11T13:02:09.939Z</time></trkpt><trkpt lat="44.8350645" lon="9.4942274"><ele>354.0</ele><time>2026-04-11T13:02:10.941Z</time></trkpt><trkpt lat="44.8350931" lon="9.494328"><ele>354.0</ele><time>2026-04-11T13:02:11.94Z</time></trkpt><trkpt lat="44.8351327" lon="9.4944162"><ele>354.0</ele><time>2026-04-11T13:02:12.94Z</time></trkpt><trkpt lat="44.8351833" lon="9.4944898"><ele>354.0</ele><time>2026-04-11T13:02:13.94Z</time></trkpt><trkpt lat="44.8352428" lon="9.4945458"><ele>354.0</ele><time>2026-04-11T13:02:14.939Z</time></trkpt><trkpt lat="44.8353078" lon="9.4945739"><ele>354.0</ele><time>2026-04-11T13:02:15.937Z</time></trkpt><trkpt lat="44.8353775" lon="9.4945717"><ele>356.3333333333333</ele><time>2026-04-11T13:02:16.938Z</time></trkpt><trkpt lat="44.8354555" lon="9.4945435"><ele>358.6666666666667</ele><time>2026-04-11T13:02:17.937Z</time></trkpt><trkpt lat="44.8355349" lon="9.4945067"><ele>361.0</ele><time>2026-04-11T13:02:18.94Z</time></trkpt><trkpt lat="44.8356164" lon="9.4944688"><ele>363.33333333333337</ele><time>2026-04-11T13:02:19.941Z</time></trkpt><trkpt lat="44.8356974" lon="9.4944266"><ele>365.6666666666667</ele><time>2026-04-11T13:02:20.941Z</time></trkpt><trkpt lat="44.8357709" lon="9.494381"><ele>368.0</ele><time>2026-04-11T13:02:21.937Z</time></trkpt><trkpt lat="44.8358318" lon="9.4943376"><ele>368.0</ele><time>2026-04-11T13:02:22.939Z</time></trkpt><trkpt lat="44.8359372" lon="9.4942497"><ele>368.0</ele><time>2026-04-11T13:02:24.937Z</time></trkpt><trkpt lat="44.8359913" lon="9.4942032"><ele>368.0</ele><time>2026-04-11T13:02:25.941Z</time></trkpt><trkpt lat="44.8360988" lon="9.4941177"><ele>368.0</ele><time>2026-04-11T13:02:27.939Z</time></trkpt><trkpt lat="44.8362038" lon="9.4940341"><ele>368.0</ele><time>2026-04-11T13:02:29.939Z</time></trkpt><trkpt lat="44.8363113" lon="9.4939596"><ele>369.7142857142857</ele><time>2026-04-11T13:02:31.939Z</time></trkpt><trkpt lat="44.8363663" lon="9.4939154"><ele>371.4285714285714</ele><time>2026-04-11T13:02:32.95Z</time></trkpt><trkpt lat="44.8364183" lon="9.4938643"><ele>373.1428571428571</ele><time>2026-04-11T13:02:33.94Z</time></trkpt><trkpt lat="44.83647" lon="9.4938105"><ele>374.8571428571429</ele><time>2026-04-11T13:02:34.939Z</time></trkpt><trkpt lat="44.8365188" lon="9.4937526"><ele>376.57142857142856</ele><time>2026-04-11T13:02:35.939Z</time></trkpt><trkpt lat="44.8365638" lon="9.4936818"><ele>378.2857142857143</ele><time>2026-04-11T13:02:36.94Z</time></trkpt><trkpt lat="44.8366096" lon="9.4936076"><ele>380.0</ele><time>2026-04-11T13:02:37.94Z</time></trkpt><trkpt lat="44.8366573" lon="9.4935352"><ele>381.2</ele><time>2026-04-11T13:02:38.939Z</time></trkpt><trkpt lat="44.836706" lon="9.4934648"><ele>382.4</ele><time>2026-04-11T13:02:39.94Z</time></trkpt><trkpt lat="44.8367529" lon="9.4933981"><ele>383.6</ele><time>2026-04-11T13:02:40.939Z</time></trkpt><trkpt lat="44.836798" lon="9.4933323"><ele>384.8</ele><time>2026-04-11T13:02:41.94Z</time></trkpt><trkpt lat="44.83688" lon="9.493209"><ele>386.0</ele><time>2026-04-11T13:02:43.939Z</time></trkpt><trkpt lat="44.8369433" lon="9.4930447"><ele>389.4</ele><time>2026-04-11T13:02:45.938Z</time></trkpt><trkpt lat="44.8369521" lon="9.4929188"><ele>392.8</ele><time>2026-04-11T13:02:46.942Z</time></trkpt><trkpt lat="44.8369411" lon="9.4927653"><ele>396.2</ele><time>2026-04-11T13:02:47.937Z</time></trkpt><trkpt lat="44.8369225" lon="9.4926039"><ele>399.59999999999997</ele><time>2026-04-11T13:02:48.937Z</time></trkpt><trkpt lat="44.8369115" lon="9.4924558"><ele>403.0</ele><time>2026-04-11T13:02:49.938Z</time></trkpt><trkpt lat="44.8369201" lon="9.4923214"><ele>403.0</ele><time>2026-04-11T13:02:50.937Z</time></trkpt><trkpt lat="44.8369503" lon="9.4921927"><ele>403.0</ele><time>2026-04-11T13:02:51.936Z</time></trkpt><trkpt lat="44.8370024" lon="9.4920691"><ele>403.0</ele><time>2026-04-11T13:02:52.936Z</time></trkpt><trkpt lat="44.8370715" lon="9.4919585"><ele>403.0</ele><time>2026-04-11T13:02:53.937Z</time></trkpt><trkpt lat="44.8371508" lon="9.4918551"><ele>403.0</ele><time>2026-04-11T13:02:54.939Z</time></trkpt><trkpt lat="44.8372353" lon="9.4917445"><ele>403.4</ele><time>2026-04-11T13:02:55.936Z</time></trkpt><trkpt lat="44.8373149" lon="9.4916231"><ele>403.79999999999995</ele><time>2026-04-11T13:02:56.937Z</time></trkpt><trkpt lat="44.8373842" lon="9.4914961"><ele>404.2</ele><time>2026-04-11T13:02:57.94Z</time></trkpt><trkpt lat="44.8374473" lon="9.4913759"><ele>404.6</ele><time>2026-04-11T13:02:58.936Z</time></trkpt><trkpt lat="44.8375171" lon="9.4912742"><ele>405.0</ele><time>2026-04-11T13:02:59.938Z</time></trkpt><trkpt lat="44.8375973" lon="9.4911947"><ele>407.2</ele><time>2026-04-11T13:03:00.938Z</time></trkpt><trkpt lat="44.8376882" lon="9.4911373"><ele>409.4</ele><time>2026-04-11T13:03:01.936Z</time></trkpt><trkpt lat="44.837781" lon="9.4910801"><ele>411.6</ele><time>2026-04-11T13:03:02.938Z</time></trkpt><trkpt lat="44.8378709" lon="9.4910082"><ele>413.8</ele><time>2026-04-11T13:03:03.942Z</time></trkpt><trkpt lat="44.8379576" lon="9.4909237"><ele>416.0</ele><time>2026-04-11T13:03:04.937Z</time></trkpt><trkpt lat="44.8380333" lon="9.4908419"><ele>415.99999999999994</ele><time>2026-04-11T13:03:05.937Z</time></trkpt><trkpt lat="44.838098" lon="9.4907628"><ele>416.0</ele><time>2026-04-11T13:03:06.937Z</time></trkpt><trkpt lat="44.8381605" lon="9.4906885"><ele>416.0</ele><time>2026-04-11T13:03:07.937Z</time></trkpt><trkpt lat="44.8382311" lon="9.4906249"><ele>416.0</ele><time>2026-04-11T13:03:08.938Z</time></trkpt><trkpt lat="44.838307" lon="9.4905729"><ele>415.99999999999994</ele><time>2026-04-11T13:03:09.938Z</time></trkpt><trkpt lat="44.838384" lon="9.490525"><ele>416.0</ele><time>2026-04-11T13:03:10.938Z</time></trkpt><trkpt lat="44.8384578" lon="9.4904758"><ele>418.0</ele><time>2026-04-11T13:03:11.937Z</time></trkpt><trkpt lat="44.8385255" lon="9.4904244"><ele>420.0</ele><time>2026-04-11T13:03:12.94Z</time></trkpt><trkpt lat="44.8385876" lon="9.490368"><ele>422.0</ele><time>2026-04-11T13:03:13.937Z</time></trkpt><trkpt lat="44.8386447" lon="9.4903112"><ele>424.0</ele><time>2026-04-11T13:03:14.939Z</time></trkpt><trkpt lat="44.8386982" lon="9.4902493"><ele>426.0</ele><time>2026-04-11T13:03:15.937Z</time></trkpt><trkpt lat="44.8387497" lon="9.490184"><ele>428.0</ele><time>2026-04-11T13:03:16.936Z</time></trkpt><trkpt lat="44.8388011" lon="9.4901187"><ele>430.0</ele><time>2026-04-11T13:03:17.939Z</time></trkpt><trkpt lat="44.8388565" lon="9.4900692"><ele>430.0</ele><time>2026-04-11T13:03:18.938Z</time></trkpt><trkpt lat="44.8389756" lon="9.4900449"><ele>430.0</ele><time>2026-04-11T13:03:20.939Z</time></trkpt><trkpt lat="44.8390874" lon="9.4901644"><ele>430.0</ele><time>2026-04-11T13:03:22.94Z</time></trkpt><trkpt lat="44.839149" lon="9.4902744"><ele>430.0</ele><time>2026-04-11T13:03:23.939Z</time></trkpt><trkpt lat="44.8392235" lon="9.490375"><ele>433.2</ele><time>2026-04-11T13:03:24.939Z</time></trkpt><trkpt lat="44.8393164" lon="9.4904563"><ele>436.4</ele><time>2026-04-11T13:03:25.939Z</time></trkpt><trkpt lat="44.8394185" lon="9.4905133"><ele>439.6</ele><time>2026-04-11T13:03:26.939Z</time></trkpt><trkpt lat="44.8395195" lon="9.4905614"><ele>442.8</ele><time>2026-04-11T13:03:27.943Z</time></trkpt><trkpt lat="44.8396172" lon="9.4906122"><ele>446.0</ele><time>2026-04-11T13:03:28.938Z</time></trkpt><trkpt lat="44.8397105" lon="9.4906639"><ele>446.0</ele><time>2026-04-11T13:03:29.938Z</time></trkpt><trkpt lat="44.8398033" lon="9.4907108"><ele>446.0</ele><time>2026-04-11T13:03:30.938Z</time></trkpt><trkpt lat="44.8398967" lon="9.4907541"><ele>446.0</ele><time>2026-04-11T13:03:31.939Z</time></trkpt><trkpt lat="44.8399931" lon="9.4908032"><ele>446.0</ele><time>2026-04-11T13:03:32.945Z</time></trkpt><trkpt lat="44.840087" lon="9.4908597"><ele>446.0</ele><time>2026-04-11T13:03:33.94Z</time></trkpt><trkpt lat="44.8401759" lon="9.4909165"><ele>450.0</ele><time>2026-04-11T13:03:34.939Z</time></trkpt><trkpt lat="44.8402568" lon="9.4909746"><ele>454.0</ele><time>2026-04-11T13:03:35.939Z</time></trkpt><trkpt lat="44.8403293" lon="9.4910459"><ele>458.0</ele><time>2026-04-11T13:03:36.94Z</time></trkpt><trkpt lat="44.8403884" lon="9.4911405"><ele>462.0</ele><time>2026-04-11T13:03:37.939Z</time></trkpt><trkpt lat="44.8404509" lon="9.4912391"><ele>466.0</ele><time>2026-04-11T13:03:38.939Z</time></trkpt><trkpt lat="44.8405312" lon="9.4913165"><ele>466.6666666666667</ele><time>2026-04-11T13:03:39.946Z</time></trkpt><trkpt lat="44.8406248" lon="9.4913727"><ele>467.33333333333337</ele><time>2026-04-11T13:03:40.939Z</time></trkpt><trkpt lat="44.8407156" lon="9.491418"><ele>468.0</ele><time>2026-04-11T13:03:41.939Z</time></trkpt><trkpt lat="44.8408003" lon="9.4914614"><ele>468.66666666666663</ele><time>2026-04-11T13:03:42.938Z</time></trkpt><trkpt lat="44.8408769" lon="9.4914905"><ele>469.3333333333333</ele><time>2026-04-11T13:03:43.938Z</time></trkpt><trkpt lat="44.8409463" lon="9.491494"><ele>470.0</ele><time>2026-04-11T13:03:44.939Z</time></trkpt><trkpt lat="44.8410425" lon="9.4913802"><ele>473.3333333333333</ele><time>2026-04-11T13:03:46.938Z</time></trkpt><trkpt lat="44.8410747" lon="9.4912884"><ele>476.66666666666663</ele><time>2026-04-11T13:03:47.938Z</time></trkpt><trkpt lat="44.8411102" lon="9.4912132"><ele>480.0</ele><time>2026-04-11T13:03:48.94Z</time></trkpt><trkpt lat="44.8411906" lon="9.491162"><ele>483.33333333333337</ele><time>2026-04-11T13:03:50.943Z</time></trkpt><trkpt lat="44.8412398" lon="9.491268"><ele>486.6666666666667</ele><time>2026-04-11T13:03:52.939Z</time></trkpt><trkpt lat="44.8412393" lon="9.4913676"><ele>490.0</ele><time>2026-04-11T13:03:53.938Z</time></trkpt><trkpt lat="44.8412331" lon="9.4915026"><ele>490.0</ele><time>2026-04-11T13:03:54.939Z</time></trkpt><trkpt lat="44.8412333" lon="9.4916595"><ele>490.0</ele><time>2026-04-11T13:03:55.939Z</time></trkpt><trkpt lat="44.8412329" lon="9.4918213"><ele>490.0</ele><time>2026-04-11T13:03:56.94Z</time></trkpt><trkpt lat="44.8412165" lon="9.4919733"><ele>490.0</ele><time>2026-04-11T13:03:57.94Z</time></trkpt><trkpt lat="44.8411854" lon="9.4921121"><ele>490.0</ele><time>2026-04-11T13:03:58.939Z</time></trkpt><trkpt lat="44.8411435" lon="9.4922495"><ele>491.33333333333337</ele><time>2026-04-11T13:03:59.938Z</time></trkpt><trkpt lat="44.8410913" lon="9.492375"><ele>492.6666666666667</ele><time>2026-04-11T13:04:00.941Z</time></trkpt><trkpt lat="44.8410266" lon="9.4924788"><ele>494.0</ele><time>2026-04-11T13:04:01.944Z</time></trkpt><trkpt lat="44.8409587" lon="9.4925611"><ele>495.33333333333337</ele><time>2026-04-11T13:04:02.939Z</time></trkpt><trkpt lat="44.8408994" lon="9.4926433"><ele>496.6666666666667</ele><time>2026-04-11T13:04:03.941Z</time></trkpt><trkpt lat="44.8408691" lon="9.4927366"><ele>498.0</ele><time>2026-04-11T13:04:04.939Z</time></trkpt><trkpt lat="44.8408675" lon="9.4928383"><ele>498.8333333333333</ele><time>2026-04-11T13:04:05.939Z</time></trkpt><trkpt lat="44.8408896" lon="9.492939"><ele>499.66666666666663</ele><time>2026-04-11T13:04:06.939Z</time></trkpt><trkpt lat="44.8409383" lon="9.4930273"><ele>500.5</ele><time>2026-04-11T13:04:07.937Z</time></trkpt><trkpt lat="44.8410113" lon="9.4930915"><ele>501.3333333333333</ele><time>2026-04-11T13:04:08.937Z</time></trkpt><trkpt lat="44.8411035" lon="9.4931371"><ele>502.16666666666663</ele><time>2026-04-11T13:04:09.937Z</time></trkpt><trkpt lat="44.8412009" lon="9.4931789"><ele>503.0</ele><time>2026-04-11T13:04:10.944Z</time></trkpt><trkpt lat="44.841294" lon="9.4932247"><ele>502.99999999999994</ele><time>2026-04-11T13:04:11.938Z</time></trkpt><trkpt lat="44.8413823" lon="9.4932717"><ele>503.0</ele><time>2026-04-11T13:04:12.938Z</time></trkpt><trkpt lat="44.8414612" lon="9.4933236"><ele>503.0</ele><time>2026-04-11T13:04:13.937Z</time></trkpt><trkpt lat="44.8415321" lon="9.4933916"><ele>503.0</ele><time>2026-04-11T13:04:14.938Z</time></trkpt><trkpt lat="44.8415938" lon="9.4934783"><ele>502.99999999999994</ele><time>2026-04-11T13:04:15.938Z</time></trkpt><trkpt lat="44.8416456" lon="9.4935716"><ele>503.0</ele><time>2026-04-11T13:04:16.939Z</time></trkpt><trkpt lat="44.8416918" lon="9.4936511"><ele>502.99999999999994</ele><time>2026-04-11T13:04:17.937Z</time></trkpt><trkpt lat="44.8417764" lon="9.4937162"><ele>503.0</ele><time>2026-04-11T13:04:19.938Z</time></trkpt><trkpt lat="44.8418321" lon="9.493608"><ele>503.0</ele><time>2026-04-11T13:04:21.94Z</time></trkpt><trkpt lat="44.8418615" lon="9.4935103"><ele>503.0</ele><time>2026-04-11T13:04:22.939Z</time></trkpt><trkpt lat="44.8418926" lon="9.4934136"><ele>502.99999999999994</ele><time>2026-04-11T13:04:23.939Z</time></trkpt><trkpt lat="44.84193" lon="9.4933104"><ele>503.0</ele><time>2026-04-11T13:04:24.938Z</time></trkpt><trkpt lat="44.8419744" lon="9.4932002"><ele>503.2</ele><time>2026-04-11T13:04:25.94Z</time></trkpt><trkpt lat="44.8420277" lon="9.4930824"><ele>503.4</ele><time>2026-04-11T13:04:26.94Z</time></trkpt><trkpt lat="44.8420909" lon="9.4929573"><ele>503.59999999999997</ele><time>2026-04-11T13:04:27.94Z</time></trkpt><trkpt lat="44.8421627" lon="9.4928322"><ele>503.79999999999995</ele><time>2026-04-11T13:04:28.94Z</time></trkpt><trkpt lat="44.8422426" lon="9.4927084"><ele>504.0</ele><time>2026-04-11T13:04:29.94Z</time></trkpt><trkpt lat="44.8423282" lon="9.4925921"><ele>503.25</ele><time>2026-04-11T13:04:30.945Z</time></trkpt><trkpt lat="44.8424185" lon="9.4924752"><ele>502.5</ele><time>2026-04-11T13:04:31.94Z</time></trkpt><trkpt lat="44.8425106" lon="9.4923553"><ele>501.75</ele><time>2026-04-11T13:04:32.941Z</time></trkpt><trkpt lat="44.842597" lon="9.4922324"><ele>501.0</ele><time>2026-04-11T13:04:33.943Z</time></trkpt><trkpt lat="44.842666" lon="9.4921036"><ele>503.8</ele><time>2026-04-11T13:04:34.939Z</time></trkpt><trkpt lat="44.8427083" lon="9.491958"><ele>506.6</ele><time>2026-04-11T13:04:35.941Z</time></trkpt><trkpt lat="44.8427179" lon="9.4918054"><ele>509.4</ele><time>2026-04-11T13:04:36.94Z</time></trkpt><trkpt lat="44.8427069" lon="9.4916542"><ele>512.2</ele><time>2026-04-11T13:04:37.939Z</time></trkpt><trkpt lat="44.8426998" lon="9.4915136"><ele>515.0</ele><time>2026-04-11T13:04:38.939Z</time></trkpt><trkpt lat="44.8427085" lon="9.4913903"><ele>515.0</ele><time>2026-04-11T13:04:39.94Z</time></trkpt><trkpt lat="44.8427311" lon="9.4912799"><ele>515.0</ele><time>2026-04-11T13:04:40.941Z</time></trkpt><trkpt lat="44.8427617" lon="9.491177"><ele>515.0</ele><time>2026-04-11T13:04:41.939Z</time></trkpt><trkpt lat="44.8427943" lon="9.4910784"><ele>515.0</ele><time>2026-04-11T13:04:42.94Z</time></trkpt><trkpt lat="44.842882" lon="9.4909787"><ele>515.0</ele><time>2026-04-11T13:04:44.939Z</time></trkpt><trkpt lat="44.8429509" lon="9.4909788"><ele>515.0</ele><time>2026-04-11T13:04:45.939Z</time></trkpt><trkpt lat="44.843039" lon="9.49099"><ele>518.5</ele><time>2026-04-11T13:04:46.938Z</time></trkpt><trkpt lat="44.8431414" lon="9.4910026"><ele>522.0</ele><time>2026-04-11T13:04:47.939Z</time></trkpt><trkpt lat="44.8432554" lon="9.4910084"><ele>525.5</ele><time>2026-04-11T13:04:48.938Z</time></trkpt><trkpt lat="44.8433809" lon="9.4910026"><ele>529.0</ele><time>2026-04-11T13:04:49.941Z</time></trkpt><trkpt lat="44.843512" lon="9.4909851"><ele>529.5</ele><time>2026-04-11T13:04:50.939Z</time></trkpt><trkpt lat="44.8436473" lon="9.4909727"><ele>530.0</ele><time>2026-04-11T13:04:51.939Z</time></trkpt><trkpt lat="44.8437785" lon="9.4909699"><ele>530.5</ele><time>2026-04-11T13:04:52.939Z</time></trkpt><trkpt lat="44.8439015" lon="9.4909676"><ele>531.0</ele><time>2026-04-11T13:04:53.938Z</time></trkpt><trkpt lat="44.84402" lon="9.4909553"><ele>531.0</ele><time>2026-04-11T13:04:54.939Z</time></trkpt><trkpt lat="44.8441369" lon="9.4909351"><ele>531.0</ele><time>2026-04-11T13:04:55.94Z</time></trkpt><trkpt lat="44.8442533" lon="9.4909137"><ele>531.0</ele><time>2026-04-11T13:04:56.939Z</time></trkpt><trkpt lat="44.8443686" lon="9.4909064"><ele>531.0</ele><time>2026-04-11T13:04:57.939Z</time></trkpt><trkpt lat="44.8444791" lon="9.4909179"><ele>532.2</ele><time>2026-04-11T13:04:58.939Z</time></trkpt><trkpt lat="44.844576" lon="9.490957"><ele>533.4000000000001</ele><time>2026-04-11T13:04:59.939Z</time></trkpt><trkpt lat="44.8446605" lon="9.4910272"><ele>534.6</ele><time>2026-04-11T13:05:00.94Z</time></trkpt><trkpt lat="44.8447302" lon="9.4911189"><ele>535.8000000000001</ele><time>2026-04-11T13:05:01.946Z</time></trkpt><trkpt lat="44.8447999" lon="9.4912119"><ele>537.0</ele><time>2026-04-11T13:05:02.94Z</time></trkpt><trkpt lat="44.8448817" lon="9.4912956"><ele>536.0</ele><time>2026-04-11T13:05:03.939Z</time></trkpt><trkpt lat="44.8449746" lon="9.4913709"><ele>535.0</ele><time>2026-04-11T13:05:04.939Z</time></trkpt><trkpt lat="44.8450703" lon="9.4914392"><ele>534.0</ele><time>2026-04-11T13:05:05.939Z</time></trkpt><trkpt lat="44.845166" lon="9.4915077"><ele>533.0</ele><time>2026-04-11T13:05:06.94Z</time></trkpt><trkpt lat="44.8452598" lon="9.4915867"><ele>532.0</ele><time>2026-04-11T13:05:07.94Z</time></trkpt><trkpt lat="44.8453444" lon="9.4916784"><ele>532.0</ele><time>2026-04-11T13:05:08.946Z</time></trkpt><trkpt lat="44.8454229" lon="9.4917831"><ele>532.0</ele><time>2026-04-11T13:05:09.94Z</time></trkpt><trkpt lat="44.8454986" lon="9.4918968"><ele>532.0</ele><time>2026-04-11T13:05:10.94Z</time></trkpt><trkpt lat="44.8455554" lon="9.4920275"><ele>532.0</ele><time>2026-04-11T13:05:11.937Z</time></trkpt><trkpt lat="44.8455932" lon="9.4921776"><ele>532.0</ele><time>2026-04-11T13:05:12.939Z</time></trkpt><trkpt lat="44.845622" lon="9.4923322"><ele>530.4</ele><time>2026-04-11T13:05:13.938Z</time></trkpt><trkpt lat="44.8456534" lon="9.4924807"><ele>528.8000000000001</ele><time>2026-04-11T13:05:14.94Z</time></trkpt><trkpt lat="44.8456991" lon="9.4926226"><ele>527.2</ele><time>2026-04-11T13:05:15.937Z</time></trkpt><trkpt lat="44.8457559" lon="9.492757"><ele>525.6</ele><time>2026-04-11T13:05:16.939Z</time></trkpt><trkpt lat="44.8458247" lon="9.4928767"><ele>524.0</ele><time>2026-04-11T13:05:17.939Z</time></trkpt><trkpt lat="44.8458983" lon="9.4929706"><ele>521.2</ele><time>2026-04-11T13:05:18.939Z</time></trkpt><trkpt lat="44.8459796" lon="9.4930354"><ele>518.4</ele><time>2026-04-11T13:05:19.943Z</time></trkpt><trkpt lat="44.8460733" lon="9.4930691"><ele>515.6</ele><time>2026-04-11T13:05:20.939Z</time></trkpt><trkpt lat="44.8461726" lon="9.4930771"><ele>512.8</ele><time>2026-04-11T13:05:21.94Z</time></trkpt><trkpt lat="44.8462707" lon="9.4930687"><ele>510.0</ele><time>2026-04-11T13:05:22.939Z</time></trkpt><trkpt lat="44.8463607" lon="9.4930436"><ele>510.0</ele><time>2026-04-11T13:05:23.938Z</time></trkpt><trkpt lat="44.8464385" lon="9.4930074"><ele>510.0</ele><time>2026-04-11T13:05:24.941Z</time></trkpt><trkpt lat="44.8465089" lon="9.4929544"><ele>510.0</ele><time>2026-04-11T13:05:25.939Z</time></trkpt><trkpt lat="44.8465853" lon="9.4928763"><ele>510.0</ele><time>2026-04-11T13:05:26.938Z</time></trkpt><trkpt lat="44.8466676" lon="9.4927804"><ele>510.0</ele><time>2026-04-11T13:05:27.937Z</time></trkpt><trkpt lat="44.8467484" lon="9.4926782"><ele>508.6</ele><time>2026-04-11T13:05:28.938Z</time></trkpt><trkpt lat="44.8468253" lon="9.492569"><ele>507.2</ele><time>2026-04-11T13:05:29.938Z</time></trkpt><trkpt lat="44.8468971" lon="9.4924502"><ele>505.79999999999995</ele><time>2026-04-11T13:05:30.941Z</time></trkpt><trkpt lat="44.8469564" lon="9.4923262"><ele>504.4</ele><time>2026-04-11T13:05:31.938Z</time></trkpt><trkpt lat="44.8470018" lon="9.4922007"><ele>503.0</ele><time>2026-04-11T13:05:32.939Z</time></trkpt><trkpt lat="44.8470366" lon="9.4920796"><ele>503.0</ele><time>2026-04-11T13:05:33.938Z</time></trkpt><trkpt lat="44.8470621" lon="9.4919593"><ele>502.99999999999994</ele><time>2026-04-11T13:05:34.938Z</time></trkpt><trkpt lat="44.8470882" lon="9.491838"><ele>502.99999999999994</ele><time>2026-04-11T13:05:35.943Z</time></trkpt><trkpt lat="44.8471147" lon="9.4917153"><ele>503.0</ele><time>2026-04-11T13:05:36.937Z</time></trkpt><trkpt lat="44.8471415" lon="9.4915891"><ele>503.0</ele><time>2026-04-11T13:05:37.939Z</time></trkpt><trkpt lat="44.8471667" lon="9.4914632"><ele>502.99999999999994</ele><time>2026-04-11T13:05:38.941Z</time></trkpt><trkpt lat="44.8471899" lon="9.4913379"><ele>503.0</ele><time>2026-04-11T13:05:39.937Z</time></trkpt><trkpt lat="44.847217" lon="9.4912186"><ele>503.0</ele><time>2026-04-11T13:05:40.937Z</time></trkpt><trkpt lat="44.8472529" lon="9.4911135"><ele>503.0</ele><time>2026-04-11T13:05:41.938Z</time></trkpt><trkpt lat="44.847307" lon="9.4910257"><ele>502.99999999999994</ele><time>2026-04-11T13:05:42.938Z</time></trkpt><trkpt lat="44.8473712" lon="9.4909539"><ele>503.0</ele><time>2026-04-11T13:05:43.937Z</time></trkpt><trkpt lat="44.8474379" lon="9.4908898"><ele>504.14285714285717</ele><time>2026-04-11T13:05:44.941Z</time></trkpt><trkpt lat="44.8475013" lon="9.4908359"><ele>505.28571428571433</ele><time>2026-04-11T13:05:45.937Z</time></trkpt><trkpt lat="44.8475565" lon="9.4907929"><ele>506.42857142857144</ele><time>2026-04-11T13:05:46.938Z</time></trkpt><trkpt lat="44.8476373" lon="9.4907172"><ele>507.57142857142856</ele><time>2026-04-11T13:05:48.938Z</time></trkpt><trkpt lat="44.8476756" lon="9.49064"><ele>508.7142857142857</ele><time>2026-04-11T13:05:50.939Z</time></trkpt><trkpt lat="44.8476716" lon="9.4905477"><ele>509.8571428571429</ele><time>2026-04-11T13:05:52.938Z</time></trkpt><trkpt lat="44.8476108" lon="9.4904724"><ele>511.0</ele><time>2026-04-11T13:05:54.937Z</time></trkpt><trkpt lat="44.8475489" lon="9.4903527"><ele>511.33333333333337</ele><time>2026-04-11T13:05:56.938Z</time></trkpt><trkpt lat="44.8475378" lon="9.4901828"><ele>511.6666666666667</ele><time>2026-04-11T13:05:58.938Z</time></trkpt><trkpt lat="44.8475453" lon="9.4900918"><ele>512.0</ele><time>2026-04-11T13:05:59.937Z</time></trkpt><trkpt lat="44.8475677" lon="9.4899905"><ele>512.3333333333334</ele><time>2026-04-11T13:06:00.938Z</time></trkpt><trkpt lat="44.8475969" lon="9.4898785"><ele>512.6666666666666</ele><time>2026-04-11T13:06:01.937Z</time></trkpt><trkpt lat="44.8476209" lon="9.4897583"><ele>513.0</ele><time>2026-04-11T13:06:02.938Z</time></trkpt><trkpt lat="44.8476413" lon="9.4896311"><ele>509.0</ele><time>2026-04-11T13:06:03.938Z</time></trkpt><trkpt lat="44.8476598" lon="9.4895027"><ele>505.0</ele><time>2026-04-11T13:06:04.945Z</time></trkpt><trkpt lat="44.8476767" lon="9.4893785"><ele>501.0</ele><time>2026-04-11T13:06:05.937Z</time></trkpt><trkpt lat="44.8476917" lon="9.489262"><ele>497.0</ele><time>2026-04-11T13:06:06.938Z</time></trkpt><trkpt lat="44.8477111" lon="9.489156"><ele>493.0</ele><time>2026-04-11T13:06:07.938Z</time></trkpt><trkpt lat="44.8477327" lon="9.4890558"><ele>489.0</ele><time>2026-04-11T13:06:08.938Z</time></trkpt><trkpt lat="44.8477521" lon="9.4889566"><ele>489.0</ele><time>2026-04-11T13:06:09.938Z</time></trkpt><trkpt lat="44.8477587" lon="9.4888576"><ele>489.00000000000006</ele><time>2026-04-11T13:06:10.938Z</time></trkpt><trkpt lat="44.8477538" lon="9.4887608"><ele>489.0</ele><time>2026-04-11T13:06:11.94Z</time></trkpt><trkpt lat="44.8477393" lon="9.4886684"><ele>489.0</ele><time>2026-04-11T13:06:12.938Z</time></trkpt><trkpt lat="44.8477217" lon="9.4885801"><ele>489.00000000000006</ele><time>2026-04-11T13:06:13.942Z</time></trkpt><trkpt lat="44.8477062" lon="9.4884895"><ele>489.0</ele><time>2026-04-11T13:06:14.937Z</time></trkpt><trkpt lat="44.8476948" lon="9.4883983"><ele>489.0</ele><time>2026-04-11T13:06:15.938Z</time></trkpt><trkpt lat="44.8476511" lon="9.4882323"><ele>491.42857142857144</ele><time>2026-04-11T13:06:17.937Z</time></trkpt><trkpt lat="44.8476185" lon="9.4881499"><ele>493.8571428571429</ele><time>2026-04-11T13:06:18.937Z</time></trkpt><trkpt lat="44.8475815" lon="9.4880659"><ele>496.28571428571433</ele><time>2026-04-11T13:06:19.937Z</time></trkpt><trkpt lat="44.8475438" lon="9.4879849"><ele>498.7142857142858</ele><time>2026-04-11T13:06:20.939Z</time></trkpt><trkpt lat="44.8475355" lon="9.4878802"><ele>501.14285714285717</ele><time>2026-04-11T13:06:22.937Z</time></trkpt><trkpt lat="44.8475866" lon="9.4877981"><ele>503.57142857142867</ele><time>2026-04-11T13:06:24.938Z</time></trkpt><trkpt lat="44.8476446" lon="9.4877235"><ele>506.00000000000006</ele><time>2026-04-11T13:06:26.939Z</time></trkpt><trkpt lat="44.8477096" lon="9.4876495"><ele>506.3333333333333</ele><time>2026-04-11T13:06:28.938Z</time></trkpt><trkpt lat="44.8477644" lon="9.4875674"><ele>506.66666666666663</ele><time>2026-04-11T13:06:30.939Z</time></trkpt><trkpt lat="44.8478148" lon="9.487501"><ele>507.0</ele><time>2026-04-11T13:06:32.938Z</time></trkpt><trkpt lat="44.8478785" lon="9.4874251"><ele>507.33333333333337</ele><time>2026-04-11T13:06:34.938Z</time></trkpt><trkpt lat="44.8479642" lon="9.4873323"><ele>507.6666666666667</ele><time>2026-04-11T13:06:36.938Z</time></trkpt><trkpt lat="44.8480442" lon="9.4872421"><ele>508.0</ele><time>2026-04-11T13:06:38.938Z</time></trkpt><trkpt lat="44.8480925" lon="9.4871816"><ele>508.0</ele><time>2026-04-11T13:06:39.941Z</time></trkpt><trkpt lat="44.8481567" lon="9.487095"><ele>507.99999999999994</ele><time>2026-04-11T13:06:40.937Z</time></trkpt><trkpt lat="44.8482283" lon="9.4869967"><ele>507.99999999999994</ele><time>2026-04-11T13:06:41.939Z</time></trkpt><trkpt lat="44.848315" lon="9.4868783"><ele>508.0</ele><time>2026-04-11T13:06:42.937Z</time></trkpt><trkpt lat="44.8484117" lon="9.4867533"><ele>508.0</ele><time>2026-04-11T13:06:43.937Z</time></trkpt><trkpt lat="44.8485133" lon="9.4866233"><ele>512.1999999999999</ele><time>2026-04-11T13:06:44.939Z</time></trkpt><trkpt lat="44.848615" lon="9.4865083"><ele>516.4</ele><time>2026-04-11T13:06:45.938Z</time></trkpt><trkpt lat="44.8486983" lon="9.4864233"><ele>520.5999999999999</ele><time>2026-04-11T13:06:46.94Z</time></trkpt><trkpt lat="44.8487583" lon="9.48638"><ele>524.8</ele><time>2026-04-11T13:06:47.939Z</time></trkpt><trkpt lat="44.848885" lon="9.486385"><ele>529.0</ele><time>2026-04-11T13:06:49.937Z</time></trkpt><trkpt lat="44.848975" lon="9.4864233"><ele>529.0</ele><time>2026-04-11T13:06:50.939Z</time></trkpt><trkpt lat="44.8490717" lon="9.48646"><ele>529.0</ele><time>2026-04-11T13:06:51.945Z</time></trkpt><trkpt lat="44.84917" lon="9.4865033"><ele>529.0</ele><time>2026-04-11T13:06:52.938Z</time></trkpt><trkpt lat="44.84925" lon="9.4865367"><ele>529.0</ele><time>2026-04-11T13:06:53.937Z</time></trkpt><trkpt lat="44.8493167" lon="9.486555"><ele>529.0</ele><time>2026-04-11T13:06:54.937Z</time></trkpt><trkpt lat="44.8494117" lon="9.4865383"><ele>529.0</ele><time>2026-04-11T13:06:56.938Z</time></trkpt><trkpt lat="44.8494717" lon="9.4864417"><ele>529.0</ele><time>2026-04-11T13:06:58.938Z</time></trkpt><trkpt lat="44.8494383" lon="9.4863233"><ele>529.0</ele><time>2026-04-11T13:07:00.938Z</time></trkpt><trkpt lat="44.8493517" lon="9.4861917"><ele>529.0</ele><time>2026-04-11T13:07:02.938Z</time></trkpt><trkpt lat="44.84931" lon="9.4861017"><ele>529.0</ele><time>2026-04-11T13:07:03.938Z</time></trkpt><trkpt lat="44.8492633" lon="9.4859967"><ele>530.3333333333334</ele><time>2026-04-11T13:07:04.938Z</time></trkpt><trkpt lat="44.849225" lon="9.4858817"><ele>531.6666666666667</ele><time>2026-04-11T13:07:05.946Z</time></trkpt><trkpt lat="44.849195" lon="9.4857533"><ele>533.0</ele><time>2026-04-11T13:07:06.938Z</time></trkpt><trkpt lat="44.84915" lon="9.48566"><ele>534.3333333333334</ele><time>2026-04-11T13:07:07.937Z</time></trkpt><trkpt lat="44.8490983" lon="9.4855633"><ele>535.6666666666666</ele><time>2026-04-11T13:07:08.939Z</time></trkpt><trkpt lat="44.8490433" lon="9.4854617"><ele>537.0</ele><time>2026-04-11T13:07:09.948Z</time></trkpt><trkpt lat="44.848995" lon="9.48535"><ele>537.0</ele><time>2026-04-11T13:07:10.938Z</time></trkpt><trkpt lat="44.8489633" lon="9.48524"><ele>537.0</ele><time>2026-04-11T13:07:11.94Z</time></trkpt><trkpt lat="44.8489367" lon="9.48513"><ele>537.0</ele><time>2026-04-11T13:07:12.938Z</time></trkpt><trkpt lat="44.8489133" lon="9.4850167"><ele>537.0</ele><time>2026-04-11T13:07:13.939Z</time></trkpt><trkpt lat="44.8488917" lon="9.48491"><ele>537.0</ele><time>2026-04-11T13:07:14.939Z</time></trkpt><trkpt lat="44.8488717" lon="9.4847883"><ele>537.0</ele><time>2026-04-11T13:07:15.937Z</time></trkpt><trkpt lat="44.848845" lon="9.4846767"><ele>537.4</ele><time>2026-04-11T13:07:16.939Z</time></trkpt><trkpt lat="44.848805" lon="9.4845783"><ele>537.8000000000001</ele><time>2026-04-11T13:07:17.939Z</time></trkpt><trkpt lat="44.8487617" lon="9.4844867"><ele>538.2</ele><time>2026-04-11T13:07:18.939Z</time></trkpt><trkpt lat="44.8487233" lon="9.4843983"><ele>538.6</ele><time>2026-04-11T13:07:19.945Z</time></trkpt><trkpt lat="44.8486917" lon="9.4842283"><ele>539.0</ele><time>2026-04-11T13:07:21.938Z</time></trkpt><trkpt lat="44.8486817" lon="9.4840533"><ele>539.0</ele><time>2026-04-11T13:07:23.938Z</time></trkpt><trkpt lat="44.8486517" lon="9.4838867"><ele>539.0</ele><time>2026-04-11T13:07:25.937Z</time></trkpt><trkpt lat="44.8486217" lon="9.4837867"><ele>539.0</ele><time>2026-04-11T13:07:26.938Z</time></trkpt><trkpt lat="44.848595" lon="9.4836883"><ele>539.0</ele><time>2026-04-11T13:07:27.937Z</time></trkpt><trkpt lat="44.8485933" lon="9.4835667"><ele>539.0</ele><time>2026-04-11T13:07:28.939Z</time></trkpt><trkpt lat="44.8486033" lon="9.4834433"><ele>539.0</ele><time>2026-04-11T13:07:29.938Z</time></trkpt><trkpt lat="44.8486267" lon="9.4832783"><ele>538.75</ele><time>2026-04-11T13:07:30.938Z</time></trkpt><trkpt lat="44.8486583" lon="9.483085"><ele>538.5</ele><time>2026-04-11T13:07:31.94Z</time></trkpt><trkpt lat="44.848685" lon="9.48291"><ele>538.25</ele><time>2026-04-11T13:07:32.939Z</time></trkpt><trkpt lat="44.8487067" lon="9.4827483"><ele>538.0</ele><time>2026-04-11T13:07:33.939Z</time></trkpt><trkpt lat="44.8487267" lon="9.4826017"><ele>538.6</ele><time>2026-04-11T13:07:34.937Z</time></trkpt><trkpt lat="44.8487533" lon="9.4824683"><ele>539.1999999999999</ele><time>2026-04-11T13:07:35.942Z</time></trkpt><trkpt lat="44.8487667" lon="9.4823367"><ele>539.8</ele><time>2026-04-11T13:07:36.939Z</time></trkpt><trkpt lat="44.84878" lon="9.4822083"><ele>540.4</ele><time>2026-04-11T13:07:37.937Z</time></trkpt><trkpt lat="44.848785" lon="9.4820783"><ele>541.0</ele><time>2026-04-11T13:07:38.94Z</time></trkpt><trkpt lat="44.8487967" lon="9.481955"><ele>542.6666666666667</ele><time>2026-04-11T13:07:39.938Z</time></trkpt><trkpt lat="44.8488217" lon="9.4818317"><ele>544.3333333333334</ele><time>2026-04-11T13:07:40.937Z</time></trkpt><trkpt lat="44.8488517" lon="9.4817067"><ele>546.0</ele><time>2026-04-11T13:07:41.938Z</time></trkpt><trkpt lat="44.84888" lon="9.4815817"><ele>547.6666666666666</ele><time>2026-04-11T13:07:42.939Z</time></trkpt><trkpt lat="44.84891" lon="9.4814667"><ele>549.3333333333333</ele><time>2026-04-11T13:07:43.937Z</time></trkpt><trkpt lat="44.84895" lon="9.4813733"><ele>551.0</ele><time>2026-04-11T13:07:44.943Z</time></trkpt><trkpt lat="44.849" lon="9.4812917"><ele>553.0</ele><time>2026-04-11T13:07:45.938Z</time></trkpt><trkpt lat="44.849055" lon="9.4812133"><ele>555.0</ele><time>2026-04-11T13:07:46.938Z</time></trkpt><trkpt lat="44.8491017" lon="9.4811433"><ele>557.0</ele><time>2026-04-11T13:07:47.938Z</time></trkpt><trkpt lat="44.849135" lon="9.481065"><ele>559.0</ele><time>2026-04-11T13:07:48.937Z</time></trkpt><trkpt lat="44.8491617" lon="9.48098"><ele>561.0</ele><time>2026-04-11T13:07:49.939Z</time></trkpt><trkpt lat="44.8491917" lon="9.4809"><ele>563.0</ele><time>2026-04-11T13:07:50.939Z</time></trkpt><trkpt lat="44.8492917" lon="9.4808017"><ele>560.1666666666666</ele><time>2026-04-11T13:07:52.938Z</time></trkpt><trkpt lat="44.8493567" lon="9.4807783"><ele>557.3333333333333</ele><time>2026-04-11T13:07:53.938Z</time></trkpt><trkpt lat="44.8494333" lon="9.4807717"><ele>554.5</ele><time>2026-04-11T13:07:54.937Z</time></trkpt><trkpt lat="44.849505" lon="9.4807683"><ele>551.6666666666666</ele><time>2026-04-11T13:07:55.937Z</time></trkpt><trkpt lat="44.8496017" lon="9.4807167"><ele>548.8333333333334</ele><time>2026-04-11T13:07:57.938Z</time></trkpt><trkpt lat="44.8496567" lon="9.4806183"><ele>546.0</ele><time>2026-04-11T13:07:59.94Z</time></trkpt><trkpt lat="44.849715" lon="9.4804667"><ele>548.6</ele><time>2026-04-11T13:08:01.942Z</time></trkpt><trkpt lat="44.8497467" lon="9.4803867"><ele>551.2</ele><time>2026-04-11T13:08:02.938Z</time></trkpt><trkpt lat="44.8498167" lon="9.4802567"><ele>553.8</ele><time>2026-04-11T13:08:04.938Z</time></trkpt><trkpt lat="44.849875" lon="9.4801683"><ele>556.4</ele><time>2026-04-11T13:08:06.938Z</time></trkpt><trkpt lat="44.84987" lon="9.4800383"><ele>559.0</ele><time>2026-04-11T13:08:57.938Z</time></trkpt><trkpt lat="44.8498167" lon="9.4798767"><ele>559.0</ele><time>2026-04-11T13:08:59.936Z</time></trkpt><trkpt lat="44.84981" lon="9.4797767"><ele>559.0</ele><time>2026-04-11T13:09:00.937Z</time></trkpt><trkpt lat="44.84982" lon="9.479665"><ele>559.0</ele><time>2026-04-11T13:09:01.937Z</time></trkpt><trkpt lat="44.8498517" lon="9.4795633"><ele>559.0</ele><time>2026-04-11T13:09:02.937Z</time></trkpt><trkpt lat="44.84989" lon="9.47947"><ele>559.0</ele><time>2026-04-11T13:09:03.946Z</time></trkpt><trkpt lat="44.8499333" lon="9.4793733"><ele>559.0</ele><time>2026-04-11T13:09:04.937Z</time></trkpt><trkpt lat="44.8499767" lon="9.4792683"><ele>561.6</ele><time>2026-04-11T13:09:05.938Z</time></trkpt><trkpt lat="44.85001" lon="9.4791467"><ele>564.2</ele><time>2026-04-11T13:09:06.938Z</time></trkpt><trkpt lat="44.8500217" lon="9.4790233"><ele>566.8000000000001</ele><time>2026-04-11T13:09:07.937Z</time></trkpt><trkpt lat="44.8500133" lon="9.478885"><ele>569.4</ele><time>2026-04-11T13:09:08.947Z</time></trkpt><trkpt lat="44.8499883" lon="9.4787383"><ele>572.0</ele><time>2026-04-11T13:09:09.936Z</time></trkpt><trkpt lat="44.84996" lon="9.4785833"><ele>572.4</ele><time>2026-04-11T13:09:10.936Z</time></trkpt><trkpt lat="44.84993" lon="9.47844"><ele>572.8000000000001</ele><time>2026-04-11T13:09:11.938Z</time></trkpt><trkpt lat="44.8499033" lon="9.4783"><ele>573.2</ele><time>2026-04-11T13:09:12.939Z</time></trkpt><trkpt lat="44.849875" lon="9.4781783"><ele>573.6</ele><time>2026-04-11T13:09:13.937Z</time></trkpt><trkpt lat="44.8498317" lon="9.4780783"><ele>574.0</ele><time>2026-04-11T13:09:14.938Z</time></trkpt><trkpt lat="44.8497667" lon="9.4779883"><ele>574.0</ele><time>2026-04-11T13:09:15.938Z</time></trkpt><trkpt lat="44.8496867" lon="9.47796"><ele>574.0</ele><time>2026-04-11T13:09:16.937Z</time></trkpt><trkpt lat="44.8496117" lon="9.4779733"><ele>574.0</ele><time>2026-04-11T13:09:17.938Z</time></trkpt><trkpt lat="44.8495467" lon="9.47806"><ele>574.0</ele><time>2026-04-11T13:09:18.938Z</time></trkpt><trkpt lat="44.8495033" lon="9.4781917"><ele>574.0</ele><time>2026-04-11T13:09:19.943Z</time></trkpt><trkpt lat="44.8494633" lon="9.47835"><ele>574.0</ele><time>2026-04-11T13:09:20.938Z</time></trkpt><trkpt lat="44.849425" lon="9.4785083"><ele>574.0</ele><time>2026-04-11T13:09:21.937Z</time></trkpt><trkpt lat="44.8493833" lon="9.4786633"><ele>574.0</ele><time>2026-04-11T13:09:22.937Z</time></trkpt><trkpt lat="44.84932" lon="9.478815"><ele>574.0</ele><time>2026-04-11T13:09:23.937Z</time></trkpt><trkpt lat="44.8492383" lon="9.4789683"><ele>577.5</ele><time>2026-04-11T13:09:24.937Z</time></trkpt><trkpt lat="44.84915" lon="9.4791117"><ele>581.0</ele><time>2026-04-11T13:09:25.938Z</time></trkpt><trkpt lat="44.849065" lon="9.4792467"><ele>584.5</ele><time>2026-04-11T13:09:26.944Z</time></trkpt><trkpt lat="44.8489817" lon="9.4793767"><ele>588.0</ele><time>2026-04-11T13:09:27.939Z</time></trkpt><trkpt lat="44.8488967" lon="9.479505"><ele>585.25</ele><time>2026-04-11T13:09:28.937Z</time></trkpt><trkpt lat="44.8488167" lon="9.47963"><ele>582.5</ele><time>2026-04-11T13:09:29.938Z</time></trkpt><trkpt lat="44.8487317" lon="9.47975"><ele>579.75</ele><time>2026-04-11T13:09:30.938Z</time></trkpt><trkpt lat="44.8486417" lon="9.47986"><ele>577.0</ele><time>2026-04-11T13:09:31.938Z</time></trkpt><trkpt lat="44.848555" lon="9.47996"><ele>577.0</ele><time>2026-04-11T13:09:32.939Z</time></trkpt><trkpt lat="44.848475" lon="9.480045"><ele>577.0</ele><time>2026-04-11T13:09:33.938Z</time></trkpt><trkpt lat="44.8484017" lon="9.4801217"><ele>577.0</ele><time>2026-04-11T13:09:34.938Z</time></trkpt><trkpt lat="44.8483283" lon="9.480195"><ele>577.0</ele><time>2026-04-11T13:09:35.945Z</time></trkpt><trkpt lat="44.84825" lon="9.4802617"><ele>577.0</ele><time>2026-04-11T13:09:36.937Z</time></trkpt><trkpt lat="44.8481633" lon="9.48031"><ele>580.1666666666667</ele><time>2026-04-11T13:09:37.938Z</time></trkpt><trkpt lat="44.8480717" lon="9.4803283"><ele>583.3333333333334</ele><time>2026-04-11T13:09:38.938Z</time></trkpt><trkpt lat="44.8479933" lon="9.480315"><ele>586.5</ele><time>2026-04-11T13:09:39.938Z</time></trkpt><trkpt lat="44.8479317" lon="9.4802717"><ele>589.6666666666666</ele><time>2026-04-11T13:09:40.937Z</time></trkpt><trkpt lat="44.8479067" lon="9.480185"><ele>592.8333333333333</ele><time>2026-04-11T13:09:41.937Z</time></trkpt><trkpt lat="44.847915" lon="9.4800883"><ele>596.0</ele><time>2026-04-11T13:09:42.944Z</time></trkpt><trkpt lat="44.847955" lon="9.4799883"><ele>596.0</ele><time>2026-04-11T13:09:43.938Z</time></trkpt><trkpt lat="44.8480167" lon="9.4798867"><ele>596.0</ele><time>2026-04-11T13:09:44.94Z</time></trkpt><trkpt lat="44.8480817" lon="9.479785"><ele>596.0</ele><time>2026-04-11T13:09:45.938Z</time></trkpt><trkpt lat="44.8481383" lon="9.47968"><ele>596.0</ele><time>2026-04-11T13:09:46.938Z</time></trkpt><trkpt lat="44.8481767" lon="9.47955"><ele>596.0</ele><time>2026-04-11T13:09:47.938Z</time></trkpt><trkpt lat="44.8481917" lon="9.4794083"><ele>598.25</ele><time>2026-04-11T13:09:48.936Z</time></trkpt><trkpt lat="44.848185" lon="9.4792533"><ele>600.5</ele><time>2026-04-11T13:09:49.941Z</time></trkpt><trkpt lat="44.8481583" lon="9.4790783"><ele>602.75</ele><time>2026-04-11T13:09:50.937Z</time></trkpt><trkpt lat="44.8481183" lon="9.4788867"><ele>605.0</ele><time>2026-04-11T13:09:51.938Z</time></trkpt><trkpt lat="44.8480817" lon="9.4786833"><ele>605.75</ele><time>2026-04-11T13:09:52.937Z</time></trkpt><trkpt lat="44.8480483" lon="9.4784783"><ele>606.5</ele><time>2026-04-11T13:09:53.937Z</time></trkpt><trkpt lat="44.8480167" lon="9.4782783"><ele>607.25</ele><time>2026-04-11T13:09:54.938Z</time></trkpt><trkpt lat="44.847985" lon="9.47809"><ele>608.0</ele><time>2026-04-11T13:09:55.937Z</time></trkpt><trkpt lat="44.8479533" lon="9.4779183"><ele>608.75</ele><time>2026-04-11T13:09:56.939Z</time></trkpt><trkpt lat="44.847925" lon="9.47776"><ele>609.5</ele><time>2026-04-11T13:09:57.937Z</time></trkpt><trkpt lat="44.8479017" lon="9.4776017"><ele>610.25</ele><time>2026-04-11T13:09:58.939Z</time></trkpt><trkpt lat="44.8478917" lon="9.4774283"><ele>611.0</ele><time>2026-04-11T13:09:59.938Z</time></trkpt><trkpt lat="44.8479067" lon="9.4772417"><ele>612.75</ele><time>2026-04-11T13:10:00.939Z</time></trkpt><trkpt lat="44.84794" lon="9.477045"><ele>614.5</ele><time>2026-04-11T13:10:01.937Z</time></trkpt><trkpt lat="44.84798" lon="9.476855"><ele>616.25</ele><time>2026-04-11T13:10:02.938Z</time></trkpt><trkpt lat="44.8480167" lon="9.47666"><ele>618.0</ele><time>2026-04-11T13:10:03.942Z</time></trkpt><trkpt lat="44.8480483" lon="9.4764767"><ele>618.0</ele><time>2026-04-11T13:10:04.936Z</time></trkpt><trkpt lat="44.84808" lon="9.4762983"><ele>618.0</ele><time>2026-04-11T13:10:05.937Z</time></trkpt><trkpt lat="44.8481267" lon="9.4761433"><ele>618.0</ele><time>2026-04-11T13:10:06.938Z</time></trkpt><trkpt lat="44.8481933" lon="9.4759917"><ele>618.0</ele><time>2026-04-11T13:10:07.939Z</time></trkpt><trkpt lat="44.8482633" lon="9.4758383"><ele>620.5</ele><time>2026-04-11T13:10:08.947Z</time></trkpt><trkpt lat="44.8483333" lon="9.4756867"><ele>623.0</ele><time>2026-04-11T13:10:09.938Z</time></trkpt><trkpt lat="44.8484233" lon="9.475545"><ele>625.5</ele><time>2026-04-11T13:10:10.937Z</time></trkpt><trkpt lat="44.848535" lon="9.4754233"><ele>628.0</ele><time>2026-04-11T13:10:11.938Z</time></trkpt><trkpt lat="44.8486617" lon="9.4753117"><ele>630.5</ele><time>2026-04-11T13:10:12.937Z</time></trkpt><trkpt lat="44.84879" lon="9.4751883"><ele>633.0</ele><time>2026-04-11T13:10:13.937Z</time></trkpt><trkpt lat="44.8489167" lon="9.475075"><ele>635.5</ele><time>2026-04-11T13:10:14.938Z</time></trkpt><trkpt lat="44.84904" lon="9.474985"><ele>638.0</ele><time>2026-04-11T13:10:15.938Z</time></trkpt><trkpt lat="44.8491667" lon="9.4749467"><ele>635.5</ele><time>2026-04-11T13:10:16.937Z</time></trkpt><trkpt lat="44.8492967" lon="9.4749417"><ele>633.0</ele><time>2026-04-11T13:10:17.938Z</time></trkpt><trkpt lat="44.8494183" lon="9.4749217"><ele>630.5</ele><time>2026-04-11T13:10:18.942Z</time></trkpt><trkpt lat="44.8495317" lon="9.4748633"><ele>628.0</ele><time>2026-04-11T13:10:19.936Z</time></trkpt><trkpt lat="44.84964" lon="9.47478"><ele>628.0</ele><time>2026-04-11T13:10:20.938Z</time></trkpt><trkpt lat="44.8497517" lon="9.4746917"><ele>628.0</ele><time>2026-04-11T13:10:21.936Z</time></trkpt><trkpt lat="44.8498617" lon="9.4746017"><ele>628.0</ele><time>2026-04-11T13:10:22.936Z</time></trkpt><trkpt lat="44.84997" lon="9.4745167"><ele>628.0</ele><time>2026-04-11T13:10:23.942Z</time></trkpt><trkpt lat="44.8500783" lon="9.4744417"><ele>627.8333333333334</ele><time>2026-04-11T13:10:24.937Z</time></trkpt><trkpt lat="44.85017" lon="9.4743633"><ele>627.6666666666667</ele><time>2026-04-11T13:10:25.938Z</time></trkpt><trkpt lat="44.8502317" lon="9.4742783"><ele>627.5</ele><time>2026-04-11T13:10:26.937Z</time></trkpt><trkpt lat="44.8502633" lon="9.4741817"><ele>627.3333333333334</ele><time>2026-04-11T13:10:27.937Z</time></trkpt><trkpt lat="44.8502617" lon="9.47408"><ele>627.1666666666666</ele><time>2026-04-11T13:10:28.944Z</time></trkpt><trkpt lat="44.8502083" lon="9.4739983"><ele>627.0</ele><time>2026-04-11T13:10:29.938Z</time></trkpt><trkpt lat="44.8501367" lon="9.4739433"><ele>630.1666666666666</ele><time>2026-04-11T13:10:30.937Z</time></trkpt><trkpt lat="44.8500583" lon="9.4739667"><ele>633.3333333333334</ele><time>2026-04-11T13:10:31.939Z</time></trkpt><trkpt lat="44.84999" lon="9.4740317"><ele>636.5</ele><time>2026-04-11T13:10:32.939Z</time></trkpt><trkpt lat="44.849935" lon="9.4741267"><ele>639.6666666666667</ele><time>2026-04-11T13:10:33.945Z</time></trkpt><trkpt lat="44.8498733" lon="9.4742117"><ele>642.8333333333334</ele><time>2026-04-11T13:10:34.937Z</time></trkpt><trkpt lat="44.8498017" lon="9.47424"><ele>646.0</ele><time>2026-04-11T13:10:35.938Z</time></trkpt><trkpt lat="44.8497067" lon="9.47415"><ele>646.0</ele><time>2026-04-11T13:10:37.936Z</time></trkpt><trkpt lat="44.849695" lon="9.4740617"><ele>646.0</ele><time>2026-04-11T13:10:38.94Z</time></trkpt><trkpt lat="44.8497033" lon="9.47395"><ele>646.0</ele><time>2026-04-11T13:10:39.937Z</time></trkpt><trkpt lat="44.8497083" lon="9.4738267"><ele>646.0</ele><time>2026-04-11T13:10:40.937Z</time></trkpt><trkpt lat="44.849685" lon="9.4736933"><ele>646.0</ele><time>2026-04-11T13:10:41.937Z</time></trkpt><trkpt lat="44.84963" lon="9.47357"><ele>646.0</ele><time>2026-04-11T13:10:42.937Z</time></trkpt><trkpt lat="44.8495533" lon="9.4734733"><ele>645.25</ele><time>2026-04-11T13:10:43.939Z</time></trkpt><trkpt lat="44.8494567" lon="9.47341"><ele>644.5</ele><time>2026-04-11T13:10:44.938Z</time></trkpt><trkpt lat="44.8493467" lon="9.4733717"><ele>643.75</ele><time>2026-04-11T13:10:45.937Z</time></trkpt><trkpt lat="44.849225" lon="9.4733417"><ele>643.0</ele><time>2026-04-11T13:10:46.938Z</time></trkpt><trkpt lat="44.8491" lon="9.4733067"><ele>646.2</ele><time>2026-04-11T13:10:47.94Z</time></trkpt><trkpt lat="44.8489817" lon="9.473255"><ele>649.4</ele><time>2026-04-11T13:10:48.938Z</time></trkpt><trkpt lat="44.84888" lon="9.4731833"><ele>652.6</ele><time>2026-04-11T13:10:49.938Z</time></trkpt><trkpt lat="44.8488067" lon="9.4730933"><ele>655.8000000000001</ele><time>2026-04-11T13:10:50.937Z</time></trkpt><trkpt lat="44.8487567" lon="9.4729783"><ele>659.0</ele><time>2026-04-11T13:10:51.938Z</time></trkpt><trkpt lat="44.8487167" lon="9.4728333"><ele>659.75</ele><time>2026-04-11T13:10:52.937Z</time></trkpt><trkpt lat="44.8486833" lon="9.47267"><ele>660.5</ele><time>2026-04-11T13:10:53.94Z</time></trkpt><trkpt lat="44.8486533" lon="9.472495"><ele>661.25</ele><time>2026-04-11T13:10:54.937Z</time></trkpt><trkpt lat="44.8486267" lon="9.47232"><ele>662.0</ele><time>2026-04-11T13:10:55.938Z</time></trkpt><trkpt lat="44.8486133" lon="9.47214"><ele>662.75</ele><time>2026-04-11T13:10:56.939Z</time></trkpt><trkpt lat="44.848615" lon="9.4719533"><ele>663.5</ele><time>2026-04-11T13:10:57.938Z</time></trkpt><trkpt lat="44.8486283" lon="9.4717617"><ele>664.25</ele><time>2026-04-11T13:10:58.937Z</time></trkpt><trkpt lat="44.8486417" lon="9.4715683"><ele>665.0</ele><time>2026-04-11T13:10:59.938Z</time></trkpt><trkpt lat="44.8486483" lon="9.4713833"><ele>664.75</ele><time>2026-04-11T13:11:00.938Z</time></trkpt><trkpt lat="44.848645" lon="9.4712117"><ele>664.5</ele><time>2026-04-11T13:11:01.944Z</time></trkpt><trkpt lat="44.8486317" lon="9.471045"><ele>664.25</ele><time>2026-04-11T13:11:02.939Z</time></trkpt><trkpt lat="44.848595" lon="9.4708917"><ele>664.0</ele><time>2026-04-11T13:11:03.938Z</time></trkpt><trkpt lat="44.848525" lon="9.4707517"><ele>665.75</ele><time>2026-04-11T13:11:04.938Z</time></trkpt><trkpt lat="44.8484417" lon="9.47061"><ele>667.5</ele><time>2026-04-11T13:11:05.938Z</time></trkpt><trkpt lat="44.84835" lon="9.4704733"><ele>669.25</ele><time>2026-04-11T13:11:06.939Z</time></trkpt><trkpt lat="44.8482533" lon="9.470345"><ele>671.0</ele><time>2026-04-11T13:11:07.939Z</time></trkpt><trkpt lat="44.848155" lon="9.47023"><ele>671.0</ele><time>2026-04-11T13:11:08.942Z</time></trkpt><trkpt lat="44.8480583" lon="9.4701083"><ele>671.0</ele><time>2026-04-11T13:11:09.939Z</time></trkpt><trkpt lat="44.8479683" lon="9.469965"><ele>671.0</ele><time>2026-04-11T13:11:10.938Z</time></trkpt><trkpt lat="44.8478833" lon="9.4697933"><ele>671.0</ele><time>2026-04-11T13:11:11.938Z</time></trkpt><trkpt lat="44.8478067" lon="9.4696017"><ele>669.0</ele><time>2026-04-11T13:11:12.937Z</time></trkpt><trkpt lat="44.8477383" lon="9.4693967"><ele>667.0</ele><time>2026-04-11T13:11:13.938Z</time></trkpt><trkpt lat="44.8476733" lon="9.4691883"><ele>665.0</ele><time>2026-04-11T13:11:14.938Z</time></trkpt><trkpt lat="44.84761" lon="9.4689783"><ele>668.0</ele><time>2026-04-11T13:11:15.939Z</time></trkpt><trkpt lat="44.84755" lon="9.4687633"><ele>671.0</ele><time>2026-04-11T13:11:16.937Z</time></trkpt><trkpt lat="44.8474917" lon="9.4685367"><ele>674.0</ele><time>2026-04-11T13:11:17.946Z</time></trkpt><trkpt lat="44.8474317" lon="9.4682983"><ele>674.0</ele><time>2026-04-11T13:11:18.938Z</time></trkpt><trkpt lat="44.84738" lon="9.46806"><ele>674.0</ele><time>2026-04-11T13:11:19.94Z</time></trkpt><trkpt lat="44.8473367" lon="9.4678333"><ele>674.0</ele><time>2026-04-11T13:11:20.938Z</time></trkpt><trkpt lat="44.8473017" lon="9.46763"><ele>673.75</ele><time>2026-04-11T13:11:21.94Z</time></trkpt><trkpt lat="44.847275" lon="9.46745"><ele>673.5</ele><time>2026-04-11T13:11:22.938Z</time></trkpt><trkpt lat="44.84726" lon="9.4672917"><ele>673.25</ele><time>2026-04-11T13:11:23.938Z</time></trkpt><trkpt lat="44.847265" lon="9.4671467"><ele>673.0</ele><time>2026-04-11T13:11:24.939Z</time></trkpt><trkpt lat="44.847295" lon="9.4670033"><ele>673.0</ele><time>2026-04-11T13:11:25.938Z</time></trkpt><trkpt lat="44.8473367" lon="9.4668667"><ele>673.0</ele><time>2026-04-11T13:11:26.939Z</time></trkpt><trkpt lat="44.8473817" lon="9.466725"><ele>673.0</ele><time>2026-04-11T13:11:27.944Z</time></trkpt><trkpt lat="44.8474167" lon="9.466575"><ele>673.0</ele><time>2026-04-11T13:11:28.937Z</time></trkpt><trkpt lat="44.8474283" lon="9.4664183"><ele>673.0</ele><time>2026-04-11T13:11:29.937Z</time></trkpt><trkpt lat="44.8474333" lon="9.46625"><ele>672.0</ele><time>2026-04-11T13:11:30.938Z</time></trkpt><trkpt lat="44.847435" lon="9.4660733"><ele>671.0</ele><time>2026-04-11T13:11:31.938Z</time></trkpt><trkpt lat="44.8474383" lon="9.4658933"><ele>670.0</ele><time>2026-04-11T13:11:32.938Z</time></trkpt><trkpt lat="44.8474467" lon="9.4657133"><ele>669.0</ele><time>2026-04-11T13:11:33.938Z</time></trkpt><trkpt lat="44.847465" lon="9.4655367"><ele>667.75</ele><time>2026-04-11T13:11:34.937Z</time></trkpt><trkpt lat="44.84749" lon="9.4653683"><ele>666.5</ele><time>2026-04-11T13:11:35.937Z</time></trkpt><trkpt lat="44.8475233" lon="9.4652083"><ele>665.25</ele><time>2026-04-11T13:11:36.941Z</time></trkpt><trkpt lat="44.8475617" lon="9.4650467"><ele>664.0</ele><time>2026-04-11T13:11:37.938Z</time></trkpt><trkpt lat="44.8476033" lon="9.4648817"><ele>662.25</ele><time>2026-04-11T13:11:38.938Z</time></trkpt><trkpt lat="44.8476533" lon="9.4646967"><ele>660.5</ele><time>2026-04-11T13:11:39.938Z</time></trkpt><trkpt lat="44.8477133" lon="9.4645017"><ele>658.75</ele><time>2026-04-11T13:11:40.938Z</time></trkpt><trkpt lat="44.847785" lon="9.4643033"><ele>657.0</ele><time>2026-04-11T13:11:41.94Z</time></trkpt><trkpt lat="44.8478633" lon="9.4641067"><ele>657.0</ele><time>2026-04-11T13:11:42.939Z</time></trkpt><trkpt lat="44.8479483" lon="9.46391"><ele>657.0</ele><time>2026-04-11T13:11:43.942Z</time></trkpt><trkpt lat="44.8480367" lon="9.4637167"><ele>657.0</ele><time>2026-04-11T13:11:44.939Z</time></trkpt><trkpt lat="44.8481283" lon="9.4635283"><ele>658.6666666666666</ele><time>2026-04-11T13:11:45.945Z</time></trkpt><trkpt lat="44.84822" lon="9.46334"><ele>660.3333333333333</ele><time>2026-04-11T13:11:46.939Z</time></trkpt><trkpt lat="44.8483" lon="9.4631433"><ele>662.0</ele><time>2026-04-11T13:11:47.939Z</time></trkpt><trkpt lat="44.8483567" lon="9.4629333"><ele>662.0</ele><time>2026-04-11T13:11:48.94Z</time></trkpt><trkpt lat="44.8483967" lon="9.4627067"><ele>662.0</ele><time>2026-04-11T13:11:49.941Z</time></trkpt><trkpt lat="44.8484267" lon="9.4624733"><ele>662.0</ele><time>2026-04-11T13:11:50.94Z</time></trkpt><trkpt lat="44.8484567" lon="9.4622383"><ele>660.0</ele><time>2026-04-11T13:11:51.944Z</time></trkpt><trkpt lat="44.84849" lon="9.4620083"><ele>658.0</ele><time>2026-04-11T13:11:52.939Z</time></trkpt><trkpt lat="44.8485217" lon="9.46179"><ele>656.0</ele><time>2026-04-11T13:11:53.939Z</time></trkpt><trkpt lat="44.8485583" lon="9.461585"><ele>656.0</ele><time>2026-04-11T13:11:54.942Z</time></trkpt><trkpt lat="44.8485983" lon="9.4613833"><ele>656.0</ele><time>2026-04-11T13:11:55.94Z</time></trkpt><trkpt lat="44.8486333" lon="9.4611867"><ele>656.0</ele><time>2026-04-11T13:11:56.945Z</time></trkpt><trkpt lat="44.8486683" lon="9.4609933"><ele>656.0</ele><time>2026-04-11T13:11:57.939Z</time></trkpt><trkpt lat="44.8487033" lon="9.4607983"><ele>656.5</ele><time>2026-04-11T13:11:58.94Z</time></trkpt><trkpt lat="44.8487383" lon="9.4606033"><ele>657.0</ele><time>2026-04-11T13:11:59.939Z</time></trkpt><trkpt lat="44.8487667" lon="9.46041"><ele>657.5</ele><time>2026-04-11T13:12:00.939Z</time></trkpt><trkpt lat="44.848785" lon="9.4602133"><ele>658.0</ele><time>2026-04-11T13:12:01.939Z</time></trkpt><trkpt lat="44.8487933" lon="9.4600083"><ele>659.25</ele><time>2026-04-11T13:12:02.941Z</time></trkpt><trkpt lat="44.848805" lon="9.4598"><ele>660.5</ele><time>2026-04-11T13:12:03.946Z</time></trkpt><trkpt lat="44.8488317" lon="9.4596017"><ele>661.75</ele><time>2026-04-11T13:12:04.939Z</time></trkpt><trkpt lat="44.8488767" lon="9.4594167"><ele>663.0</ele><time>2026-04-11T13:12:05.939Z</time></trkpt><trkpt lat="44.8489433" lon="9.4592383"><ele>664.0</ele><time>2026-04-11T13:12:06.939Z</time></trkpt><trkpt lat="44.8490267" lon="9.459075"><ele>665.0</ele><time>2026-04-11T13:12:07.94Z</time></trkpt><trkpt lat="44.849115" lon="9.4589233"><ele>666.0</ele><time>2026-04-11T13:12:08.942Z</time></trkpt><trkpt lat="44.849205" lon="9.45878"><ele>667.0</ele><time>2026-04-11T13:12:09.939Z</time></trkpt><trkpt lat="44.8492967" lon="9.4586367"><ele>667.25</ele><time>2026-04-11T13:12:10.942Z</time></trkpt><trkpt lat="44.8493867" lon="9.4584883"><ele>667.5</ele><time>2026-04-11T13:12:11.938Z</time></trkpt><trkpt lat="44.8494717" lon="9.4583417"><ele>667.75</ele><time>2026-04-11T13:12:12.939Z</time></trkpt><trkpt lat="44.84955" lon="9.458195"><ele>668.0</ele><time>2026-04-11T13:12:13.938Z</time></trkpt><trkpt lat="44.8496167" lon="9.4580433"><ele>669.25</ele><time>2026-04-11T13:12:14.938Z</time></trkpt><trkpt lat="44.849665" lon="9.4578733"><ele>670.5</ele><time>2026-04-11T13:12:15.941Z</time></trkpt><trkpt lat="44.8496983" lon="9.4576933"><ele>671.75</ele><time>2026-04-11T13:12:16.937Z</time></trkpt><trkpt lat="44.84974" lon="9.4575067"><ele>673.0</ele><time>2026-04-11T13:12:17.938Z</time></trkpt><trkpt lat="44.8497983" lon="9.4573267"><ele>673.0</ele><time>2026-04-11T13:12:18.939Z</time></trkpt><trkpt lat="44.84987" lon="9.4571517"><ele>673.0</ele><time>2026-04-11T13:12:19.939Z</time></trkpt><trkpt lat="44.849955" lon="9.4569817"><ele>673.0</ele><time>2026-04-11T13:12:20.945Z</time></trkpt><trkpt lat="44.8500483" lon="9.45682"><ele>673.0</ele><time>2026-04-11T13:12:21.939Z</time></trkpt><trkpt lat="44.85015" lon="9.456665"><ele>673.0</ele><time>2026-04-11T13:12:22.939Z</time></trkpt><trkpt lat="44.85026" lon="9.4565117"><ele>673.0</ele><time>2026-04-11T13:12:23.94Z</time></trkpt><trkpt lat="44.8503717" lon="9.4563617"><ele>673.0</ele><time>2026-04-11T13:12:24.938Z</time></trkpt><trkpt lat="44.8504767" lon="9.456215"><ele>674.5</ele><time>2026-04-11T13:12:25.938Z</time></trkpt><trkpt lat="44.8505783" lon="9.456075"><ele>676.0</ele><time>2026-04-11T13:12:26.938Z</time></trkpt><trkpt lat="44.8506867" lon="9.45594"><ele>677.5</ele><time>2026-04-11T13:12:27.94Z</time></trkpt><trkpt lat="44.85081" lon="9.4558267"><ele>679.0</ele><time>2026-04-11T13:12:28.937Z</time></trkpt><trkpt lat="44.8509517" lon="9.455745"><ele>682.0</ele><time>2026-04-11T13:12:29.938Z</time></trkpt><trkpt lat="44.8511017" lon="9.45568"><ele>685.0</ele><time>2026-04-11T13:12:30.939Z</time></trkpt><trkpt lat="44.8512517" lon="9.4556233"><ele>688.0</ele><time>2026-04-11T13:12:31.939Z</time></trkpt><trkpt lat="44.8514033" lon="9.45557"><ele>688.0</ele><time>2026-04-11T13:12:32.938Z</time></trkpt><trkpt lat="44.8515517" lon="9.45552"><ele>688.0</ele><time>2026-04-11T13:12:33.937Z</time></trkpt><trkpt lat="44.8516933" lon="9.455465"><ele>688.0</ele><time>2026-04-11T13:12:34.938Z</time></trkpt><trkpt lat="44.8518317" lon="9.455405"><ele>688.0</ele><time>2026-04-11T13:12:35.938Z</time></trkpt><trkpt lat="44.8519683" lon="9.4553583"><ele>689.5</ele><time>2026-04-11T13:12:36.938Z</time></trkpt><trkpt lat="44.852105" lon="9.45533"><ele>691.0</ele><time>2026-04-11T13:12:37.938Z</time></trkpt><trkpt lat="44.852245" lon="9.4553117"><ele>692.5</ele><time>2026-04-11T13:12:38.946Z</time></trkpt><trkpt lat="44.852385" lon="9.4552867"><ele>694.0</ele><time>2026-04-11T13:12:39.938Z</time></trkpt><trkpt lat="44.8525267" lon="9.4552583"><ele>698.0</ele><time>2026-04-11T13:12:40.938Z</time></trkpt><trkpt lat="44.8526717" lon="9.4552233"><ele>702.0</ele><time>2026-04-11T13:12:41.938Z</time></trkpt><trkpt lat="44.8528133" lon="9.455175"><ele>706.0</ele><time>2026-04-11T13:12:42.937Z</time></trkpt><trkpt lat="44.8529433" lon="9.4550933"><ele>710.0</ele><time>2026-04-11T13:12:43.94Z</time></trkpt><trkpt lat="44.85306" lon="9.454965"><ele>710.0</ele><time>2026-04-11T13:12:44.938Z</time></trkpt><trkpt lat="44.85316" lon="9.454815"><ele>710.0</ele><time>2026-04-11T13:12:45.942Z</time></trkpt><trkpt lat="44.8532517" lon="9.4546617"><ele>710.0</ele><time>2026-04-11T13:12:46.937Z</time></trkpt><trkpt lat="44.8533367" lon="9.4545083"><ele>710.0</ele><time>2026-04-11T13:12:47.938Z</time></trkpt><trkpt lat="44.8534033" lon="9.454345"><ele>710.5</ele><time>2026-04-11T13:12:48.937Z</time></trkpt><trkpt lat="44.8534383" lon="9.454165"><ele>711.0</ele><time>2026-04-11T13:12:49.938Z</time></trkpt><trkpt lat="44.8534467" lon="9.4539817"><ele>711.5</ele><time>2026-04-11T13:12:50.94Z</time></trkpt><trkpt lat="44.85345" lon="9.45381"><ele>712.0</ele><time>2026-04-11T13:12:51.94Z</time></trkpt><trkpt lat="44.853465" lon="9.4536617"><ele>712.0</ele><time>2026-04-11T13:12:52.939Z</time></trkpt><trkpt lat="44.8534967" lon="9.4535217"><ele>712.0</ele><time>2026-04-11T13:12:53.939Z</time></trkpt><trkpt lat="44.8535583" lon="9.4533933"><ele>712.0</ele><time>2026-04-11T13:12:54.939Z</time></trkpt><trkpt lat="44.8536533" lon="9.453275"><ele>712.0</ele><time>2026-04-11T13:12:55.939Z</time></trkpt><trkpt lat="44.8537633" lon="9.4531817"><ele>712.0</ele><time>2026-04-11T13:12:56.939Z</time></trkpt><trkpt lat="44.8538783" lon="9.4531217"><ele>712.0</ele><time>2026-04-11T13:12:57.946Z</time></trkpt><trkpt lat="44.8539917" lon="9.45309"><ele>712.0</ele><time>2026-04-11T13:12:58.939Z</time></trkpt><trkpt lat="44.854105" lon="9.4530883"><ele>712.0</ele><time>2026-04-11T13:12:59.938Z</time></trkpt><trkpt lat="44.85422" lon="9.45311"><ele>716.6</ele><time>2026-04-11T13:13:00.938Z</time></trkpt><trkpt lat="44.8543267" lon="9.453125"><ele>721.2</ele><time>2026-04-11T13:13:01.939Z</time></trkpt><trkpt lat="44.85442" lon="9.4531083"><ele>725.8</ele><time>2026-04-11T13:13:02.939Z</time></trkpt><trkpt lat="44.8544983" lon="9.45304"><ele>730.4</ele><time>2026-04-11T13:13:03.94Z</time></trkpt><trkpt lat="44.8545517" lon="9.4529283"><ele>735.0</ele><time>2026-04-11T13:13:04.937Z</time></trkpt><trkpt lat="44.8545767" lon="9.4527733"><ele>736.0</ele><time>2026-04-11T13:13:05.937Z</time></trkpt><trkpt lat="44.8545733" lon="9.4525967"><ele>737.0</ele><time>2026-04-11T13:13:06.94Z</time></trkpt><trkpt lat="44.8545617" lon="9.45242"><ele>738.0</ele><time>2026-04-11T13:13:07.937Z</time></trkpt><trkpt lat="44.8545633" lon="9.45225"><ele>739.0</ele><time>2026-04-11T13:13:08.937Z</time></trkpt><trkpt lat="44.854585" lon="9.4520767"><ele>741.5</ele><time>2026-04-11T13:13:09.941Z</time></trkpt><trkpt lat="44.8546083" lon="9.4518867"><ele>744.0</ele><time>2026-04-11T13:13:10.937Z</time></trkpt><trkpt lat="44.8546117" lon="9.4516867"><ele>746.5</ele><time>2026-04-11T13:13:11.94Z</time></trkpt><trkpt lat="44.85459" lon="9.4514833"><ele>749.0</ele><time>2026-04-11T13:13:12.938Z</time></trkpt><trkpt lat="44.8545583" lon="9.4512817"><ele>749.75</ele><time>2026-04-11T13:13:13.938Z</time></trkpt><trkpt lat="44.8545267" lon="9.4510783"><ele>750.5</ele><time>2026-04-11T13:13:14.94Z</time></trkpt><trkpt lat="44.8544983" lon="9.4508833"><ele>751.25</ele><time>2026-04-11T13:13:15.938Z</time></trkpt><trkpt lat="44.85448" lon="9.4506917"><ele>752.0</ele><time>2026-04-11T13:13:16.944Z</time></trkpt><trkpt lat="44.8544583" lon="9.4505117"><ele>752.75</ele><time>2026-04-11T13:13:17.938Z</time></trkpt><trkpt lat="44.85443" lon="9.4503433"><ele>753.5</ele><time>2026-04-11T13:13:18.938Z</time></trkpt><trkpt lat="44.8543933" lon="9.4501917"><ele>754.25</ele><time>2026-04-11T13:13:19.938Z</time></trkpt><trkpt lat="44.8543717" lon="9.4500433"><ele>755.0</ele><time>2026-04-11T13:13:20.939Z</time></trkpt><trkpt lat="44.8543667" lon="9.4498867"><ele>755.0</ele><time>2026-04-11T13:13:21.939Z</time></trkpt><trkpt lat="44.854365" lon="9.4497117"><ele>755.0</ele><time>2026-04-11T13:13:22.938Z</time></trkpt><trkpt lat="44.8543683" lon="9.44953"><ele>755.0</ele><time>2026-04-11T13:13:23.938Z</time></trkpt><trkpt lat="44.854385" lon="9.4493567"><ele>755.0</ele><time>2026-04-11T13:13:24.945Z</time></trkpt><trkpt lat="44.85441" lon="9.449195"><ele>753.0</ele><time>2026-04-11T13:13:25.937Z</time></trkpt><trkpt lat="44.85445" lon="9.4490583"><ele>751.0</ele><time>2026-04-11T13:13:26.938Z</time></trkpt><trkpt lat="44.8545033" lon="9.4489567"><ele>749.0</ele><time>2026-04-11T13:13:27.939Z</time></trkpt><trkpt lat="44.8545817" lon="9.4488833"><ele>747.0</ele><time>2026-04-11T13:13:28.938Z</time></trkpt><trkpt lat="44.8546933" lon="9.4488383"><ele>745.0</ele><time>2026-04-11T13:13:29.945Z</time></trkpt><trkpt lat="44.8548117" lon="9.4487683"><ele>742.5</ele><time>2026-04-11T13:13:30.938Z</time></trkpt><trkpt lat="44.854955" lon="9.4486733"><ele>740.0</ele><time>2026-04-11T13:13:31.938Z</time></trkpt><trkpt lat="44.8550717" lon="9.4485533"><ele>737.5</ele><time>2026-04-11T13:13:32.938Z</time></trkpt><trkpt lat="44.8551767" lon="9.4484483"><ele>735.0</ele><time>2026-04-11T13:13:33.938Z</time></trkpt><trkpt lat="44.85526" lon="9.4483567"><ele>735.6</ele><time>2026-04-11T13:13:34.942Z</time></trkpt><trkpt lat="44.8553183" lon="9.448245"><ele>736.2</ele><time>2026-04-11T13:13:35.938Z</time></trkpt><trkpt lat="44.855335" lon="9.44811"><ele>736.8</ele><time>2026-04-11T13:13:36.938Z</time></trkpt><trkpt lat="44.855315" lon="9.4479567"><ele>737.4</ele><time>2026-04-11T13:13:37.939Z</time></trkpt><trkpt lat="44.8552683" lon="9.4478"><ele>738.0</ele><time>2026-04-11T13:13:38.938Z</time></trkpt><trkpt lat="44.8552267" lon="9.4476383"><ele>738.0</ele><time>2026-04-11T13:13:39.937Z</time></trkpt><trkpt lat="44.85519" lon="9.44747"><ele>738.0</ele><time>2026-04-11T13:13:40.939Z</time></trkpt><trkpt lat="44.8551833" lon="9.4473217"><ele>738.0</ele><time>2026-04-11T13:13:41.944Z</time></trkpt><trkpt lat="44.8551983" lon="9.4471817"><ele>738.0</ele><time>2026-04-11T13:13:42.937Z</time></trkpt><trkpt lat="44.8552433" lon="9.4470517"><ele>738.0</ele><time>2026-04-11T13:13:43.937Z</time></trkpt><trkpt lat="44.8553" lon="9.4469133"><ele>737.25</ele><time>2026-04-11T13:13:44.94Z</time></trkpt><trkpt lat="44.855345" lon="9.4467717"><ele>736.5</ele><time>2026-04-11T13:13:45.937Z</time></trkpt><trkpt lat="44.85537" lon="9.4466183"><ele>735.75</ele><time>2026-04-11T13:13:46.938Z</time></trkpt><trkpt lat="44.855375" lon="9.446455"><ele>735.0</ele><time>2026-04-11T13:13:47.937Z</time></trkpt><trkpt lat="44.8553483" lon="9.4462833"><ele>735.0</ele><time>2026-04-11T13:13:48.943Z</time></trkpt><trkpt lat="44.8552967" lon="9.44611"><ele>735.0</ele><time>2026-04-11T13:13:49.938Z</time></trkpt><trkpt lat="44.855235" lon="9.4459417"><ele>735.0</ele><time>2026-04-11T13:13:50.939Z</time></trkpt><trkpt lat="44.8551833" lon="9.4457833"><ele>735.0</ele><time>2026-04-11T13:13:51.939Z</time></trkpt><trkpt lat="44.8551383" lon="9.4456267"><ele>735.5</ele><time>2026-04-11T13:13:52.939Z</time></trkpt><trkpt lat="44.8551183" lon="9.44546"><ele>736.0</ele><time>2026-04-11T13:13:53.938Z</time></trkpt><trkpt lat="44.85512" lon="9.4452833"><ele>736.5</ele><time>2026-04-11T13:13:54.937Z</time></trkpt><trkpt lat="44.8551367" lon="9.4451233"><ele>737.0</ele><time>2026-04-11T13:13:55.94Z</time></trkpt><trkpt lat="44.8551567" lon="9.44499"><ele>737.0</ele><time>2026-04-11T13:13:56.938Z</time></trkpt><trkpt lat="44.8551783" lon="9.444875"><ele>737.0</ele><time>2026-04-11T13:13:57.937Z</time></trkpt><trkpt lat="44.8551933" lon="9.44477"><ele>737.0</ele><time>2026-04-11T13:13:58.938Z</time></trkpt><trkpt lat="44.8552083" lon="9.4446683"><ele>737.0</ele><time>2026-04-11T13:13:59.937Z</time></trkpt><trkpt lat="44.85522" lon="9.444575"><ele>737.0</ele><time>2026-04-11T13:14:00.94Z</time></trkpt><trkpt lat="44.8552367" lon="9.4444417"><ele>737.0</ele><time>2026-04-11T13:14:02.94Z</time></trkpt><trkpt lat="44.855245" lon="9.4442983"><ele>737.1666666666666</ele><time>2026-04-11T13:14:54.936Z</time></trkpt><trkpt lat="44.8552467" lon="9.444185"><ele>737.3333333333333</ele><time>2026-04-11T13:14:56.937Z</time></trkpt><trkpt lat="44.8552383" lon="9.44408"><ele>737.5</ele><time>2026-04-11T13:14:58.937Z</time></trkpt><trkpt lat="44.8552267" lon="9.4439683"><ele>737.6666666666666</ele><time>2026-04-11T13:15:01.936Z</time></trkpt><trkpt lat="44.8552233" lon="9.4438767"><ele>737.8333333333334</ele><time>2026-04-11T13:15:12.937Z</time></trkpt><trkpt lat="44.8552433" lon="9.4437483"><ele>738.0</ele><time>2026-04-11T13:15:15.936Z</time></trkpt><trkpt lat="44.85526" lon="9.4436233"><ele>739.8</ele><time>2026-04-11T13:15:17.937Z</time></trkpt><trkpt lat="44.85528" lon="9.44346"><ele>741.5999999999999</ele><time>2026-04-11T13:15:19.938Z</time></trkpt><trkpt lat="44.8552967" lon="9.44329"><ele>743.4000000000001</ele><time>2026-04-11T13:15:21.942Z</time></trkpt><trkpt lat="44.85531" lon="9.4431367"><ele>745.2</ele><time>2026-04-11T13:15:23.938Z</time></trkpt><trkpt lat="44.8553167" lon="9.443005"><ele>747.0</ele><time>2026-04-11T13:15:25.938Z</time></trkpt><trkpt lat="44.855325" lon="9.442905"><ele>748.0</ele><time>2026-04-11T13:15:27.941Z</time></trkpt><trkpt lat="44.8553167" lon="9.442785"><ele>749.0</ele><time>2026-04-11T13:15:29.936Z</time></trkpt><trkpt lat="44.8553017" lon="9.4426983"><ele>750.0</ele><time>2026-04-11T13:15:30.937Z</time></trkpt><trkpt lat="44.8552967" lon="9.4425933"><ele>751.0</ele><time>2026-04-11T13:15:31.938Z</time></trkpt><trkpt lat="44.8552933" lon="9.4424817"><ele>752.0</ele><time>2026-04-11T13:15:32.937Z</time></trkpt><trkpt lat="44.8552817" lon="9.4423733"><ele>753.0</ele><time>2026-04-11T13:15:33.937Z</time></trkpt><trkpt lat="44.8552633" lon="9.44227"><ele>753.0</ele><time>2026-04-11T13:15:34.942Z</time></trkpt><trkpt lat="44.8552383" lon="9.4421733"><ele>753.0</ele><time>2026-04-11T13:15:35.938Z</time></trkpt><trkpt lat="44.855205" lon="9.4420867"><ele>753.0</ele><time>2026-04-11T13:15:36.937Z</time></trkpt><trkpt lat="44.8551438" lon="9.4419535"><ele>753.0</ele><time>2026-04-11T13:15:38.937Z</time></trkpt><trkpt lat="44.8550915" lon="9.4418342"><ele>753.0</ele><time>2026-04-11T13:15:40.94Z</time></trkpt><trkpt lat="44.855044" lon="9.4416845"><ele>755.0</ele><time>2026-04-11T13:15:42.937Z</time></trkpt><trkpt lat="44.8550186" lon="9.4415162"><ele>757.0</ele><time>2026-04-11T13:15:44.937Z</time></trkpt><trkpt lat="44.8550169" lon="9.4414274"><ele>759.0</ele><time>2026-04-11T13:15:45.937Z</time></trkpt><trkpt lat="44.8550146" lon="9.4413386"><ele>761.0</ele><time>2026-04-11T13:15:46.938Z</time></trkpt><trkpt lat="44.8550107" lon="9.4412385"><ele>763.0</ele><time>2026-04-11T13:15:47.937Z</time></trkpt><trkpt lat="44.8550064" lon="9.4411338"><ele>765.0</ele><time>2026-04-11T13:15:48.937Z</time></trkpt><trkpt lat="44.8550046" lon="9.4410388"><ele>765.2</ele><time>2026-04-11T13:15:49.939Z</time></trkpt><trkpt lat="44.8549979" lon="9.4408764"><ele>765.4</ele><time>2026-04-11T13:15:51.938Z</time></trkpt><trkpt lat="44.8549861" lon="9.4407764"><ele>765.5999999999999</ele><time>2026-04-11T13:15:53.937Z</time></trkpt><trkpt lat="44.8549693" lon="9.4406775"><ele>765.8</ele><time>2026-04-11T13:16:00.937Z</time></trkpt><trkpt lat="44.8549725" lon="9.4405052"><ele>766.0</ele><time>2026-04-11T13:16:02.938Z</time></trkpt><trkpt lat="44.854977" lon="9.4403884"><ele>767.5</ele><time>2026-04-11T13:16:03.936Z</time></trkpt><trkpt lat="44.8549905" lon="9.4402584"><ele>769.0</ele><time>2026-04-11T13:16:04.937Z</time></trkpt><trkpt lat="44.8550048" lon="9.4401306"><ele>770.5</ele><time>2026-04-11T13:16:05.937Z</time></trkpt><trkpt lat="44.855016" lon="9.4400147"><ele>772.0</ele><time>2026-04-11T13:16:06.941Z</time></trkpt><trkpt lat="44.8550202" lon="9.4399078"><ele>773.4999999999999</ele><time>2026-04-11T13:16:07.937Z</time></trkpt><trkpt lat="44.8550142" lon="9.4397997"><ele>775.0</ele><time>2026-04-11T13:16:08.939Z</time></trkpt><trkpt lat="44.8550009" lon="9.4396862"><ele>776.4999999999999</ele><time>2026-04-11T13:16:09.938Z</time></trkpt><trkpt lat="44.8549915" lon="9.4395767"><ele>778.0</ele><time>2026-04-11T13:16:10.937Z</time></trkpt><trkpt lat="44.85498" lon="9.4394648"><ele>779.5</ele><time>2026-04-11T13:16:11.937Z</time></trkpt><trkpt lat="44.8549691" lon="9.4393628"><ele>781.0</ele><time>2026-04-11T13:16:12.939Z</time></trkpt><trkpt lat="44.8549685" lon="9.4392624"><ele>782.4999999999999</ele><time>2026-04-11T13:16:13.936Z</time></trkpt><trkpt lat="44.8549681" lon="9.4391648"><ele>784.0</ele><time>2026-04-11T13:16:14.938Z</time></trkpt><trkpt lat="44.8549771" lon="9.4390233"><ele>783.9999999999999</ele><time>2026-04-11T13:16:16.937Z</time></trkpt><trkpt lat="44.8550191" lon="9.4389185"><ele>784.0</ele><time>2026-04-11T13:16:19.938Z</time></trkpt><trkpt lat="44.8550328" lon="9.4388277"><ele>784.0</ele><time>2026-04-11T13:16:21.938Z</time></trkpt><trkpt lat="44.8550579" lon="9.4387289"><ele>784.0</ele><time>2026-04-11T13:16:23.939Z</time></trkpt><trkpt lat="44.8550897" lon="9.4386137"><ele>783.9999999999999</ele><time>2026-04-11T13:16:25.94Z</time></trkpt><trkpt lat="44.8551109" lon="9.4384678"><ele>784.0</ele><time>2026-04-11T13:16:27.939Z</time></trkpt><trkpt lat="44.8551214" lon="9.4383139"><ele>785.4000000000001</ele><time>2026-04-11T13:16:29.938Z</time></trkpt><trkpt lat="44.8551057" lon="9.4381522"><ele>786.8</ele><time>2026-04-11T13:16:31.937Z</time></trkpt><trkpt lat="44.85508" lon="9.4380058"><ele>788.2</ele><time>2026-04-11T13:16:33.939Z</time></trkpt><trkpt lat="44.8550633" lon="9.4378872"><ele>789.5999999999999</ele><time>2026-04-11T13:16:35.942Z</time></trkpt><trkpt lat="44.855065" lon="9.4377339"><ele>791.0</ele><time>2026-04-11T13:16:38.939Z</time></trkpt><trkpt lat="44.8550784" lon="9.4376059"><ele>790.3333333333334</ele><time>2026-04-11T13:16:40.937Z</time></trkpt><trkpt lat="44.855132" lon="9.4374795"><ele>789.6666666666667</ele><time>2026-04-11T13:16:42.937Z</time></trkpt><trkpt lat="44.8551849" lon="9.4373604"><ele>789.0</ele><time>2026-04-11T13:16:44.946Z</time></trkpt><trkpt lat="44.8552216" lon="9.4372789"><ele>788.3333333333333</ele><time>2026-04-11T13:16:46.937Z</time></trkpt><trkpt lat="44.8551918" lon="9.4371539"><ele>787.6666666666666</ele><time>2026-04-11T13:16:49.939Z</time></trkpt><trkpt lat="44.8551241" lon="9.437106"><ele>787.0</ele><time>2026-04-11T13:16:51.939Z</time></trkpt><trkpt lat="44.8550428" lon="9.437084"><ele>790.0</ele><time>2026-04-11T13:16:54.018Z</time></trkpt><trkpt lat="44.8549655" lon="9.4371051"><ele>793.0</ele><time>2026-04-11T13:16:55.941Z</time></trkpt><trkpt lat="44.8548681" lon="9.4371362"><ele>796.0</ele><time>2026-04-11T13:16:57.944Z</time></trkpt><trkpt lat="44.8547459" lon="9.4371604"><ele>799.0</ele><time>2026-04-11T13:16:59.944Z</time></trkpt><trkpt lat="44.8546264" lon="9.4371606"><ele>802.0</ele><time>2026-04-11T13:17:01.938Z</time></trkpt><trkpt lat="44.8545026" lon="9.4371386"><ele>804.3333333333333</ele><time>2026-04-11T13:17:03.939Z</time></trkpt><trkpt lat="44.8544347" lon="9.4371309"><ele>806.6666666666666</ele><time>2026-04-11T13:17:04.94Z</time></trkpt><trkpt lat="44.8543631" lon="9.4371195"><ele>809.0</ele><time>2026-04-11T13:17:05.938Z</time></trkpt><trkpt lat="44.8542833" lon="9.4371"><ele>811.3333333333333</ele><time>2026-04-11T13:17:06.94Z</time></trkpt><trkpt lat="44.8542117" lon="9.4370717"><ele>813.6666666666666</ele><time>2026-04-11T13:17:07.938Z</time></trkpt><trkpt lat="44.8540933" lon="9.4370183"><ele>816.0</ele><time>2026-04-11T13:17:09.939Z</time></trkpt><trkpt lat="44.8539967" lon="9.43694"><ele>816.0</ele><time>2026-04-11T13:17:11.939Z</time></trkpt><trkpt lat="44.85392" lon="9.43682"><ele>816.0</ele><time>2026-04-11T13:17:13.937Z</time></trkpt><trkpt lat="44.8538517" lon="9.4366867"><ele>816.0</ele><time>2026-04-11T13:17:15.937Z</time></trkpt><trkpt lat="44.853795" lon="9.4365933"><ele>816.0</ele><time>2026-04-11T13:17:17.938Z</time></trkpt><trkpt lat="44.8537367" lon="9.4365133"><ele>816.0</ele><time>2026-04-11T13:17:19.944Z</time></trkpt><trkpt lat="44.8536633" lon="9.4364533"><ele>816.0</ele><time>2026-04-11T13:17:21.938Z</time></trkpt><trkpt lat="44.8535633" lon="9.4363883"><ele>816.0</ele><time>2026-04-11T13:17:23.937Z</time></trkpt><trkpt lat="44.8535017" lon="9.43636"><ele>816.0</ele><time>2026-04-11T13:17:24.944Z</time></trkpt><trkpt lat="44.8533717" lon="9.4363733"><ele>816.0</ele><time>2026-04-11T13:17:26.937Z</time></trkpt><trkpt lat="44.8532617" lon="9.4363683"><ele>816.0</ele><time>2026-04-11T13:17:28.937Z</time></trkpt><trkpt lat="44.853195" lon="9.4362933"><ele>817.4</ele><time>2026-04-11T13:17:30.938Z</time></trkpt><trkpt lat="44.85312" lon="9.436195"><ele>818.8</ele><time>2026-04-11T13:17:32.939Z</time></trkpt><trkpt lat="44.8530383" lon="9.4361083"><ele>820.1999999999999</ele><time>2026-04-11T13:17:34.936Z</time></trkpt><trkpt lat="44.8529667" lon="9.4360517"><ele>821.5999999999999</ele><time>2026-04-11T13:17:36.938Z</time></trkpt><trkpt lat="44.852865" lon="9.435995"><ele>823.0</ele><time>2026-04-11T13:17:38.94Z</time></trkpt><trkpt lat="44.8528017" lon="9.4359667"><ele>822.9999999999999</ele><time>2026-04-11T13:17:39.938Z</time></trkpt><trkpt lat="44.8527333" lon="9.4359467"><ele>823.0</ele><time>2026-04-11T13:17:40.938Z</time></trkpt><trkpt lat="44.8526617" lon="9.4359367"><ele>823.0</ele><time>2026-04-11T13:17:41.937Z</time></trkpt><trkpt lat="44.8525883" lon="9.4359383"><ele>823.0</ele><time>2026-04-11T13:17:42.937Z</time></trkpt><trkpt lat="44.8525233" lon="9.435945"><ele>822.9999999999999</ele><time>2026-04-11T13:17:43.941Z</time></trkpt><trkpt lat="44.8524067" lon="9.4359467"><ele>823.0</ele><time>2026-04-11T13:17:45.937Z</time></trkpt><trkpt lat="44.8522867" lon="9.4359167"><ele>821.8571428571429</ele><time>2026-04-11T13:17:47.939Z</time></trkpt><trkpt lat="44.85222" lon="9.4358933"><ele>820.7142857142858</ele><time>2026-04-11T13:17:48.938Z</time></trkpt><trkpt lat="44.852155" lon="9.435875"><ele>819.5714285714286</ele><time>2026-04-11T13:17:49.939Z</time></trkpt><trkpt lat="44.8520867" lon="9.4358617"><ele>818.4285714285714</ele><time>2026-04-11T13:17:50.945Z</time></trkpt><trkpt lat="44.85202" lon="9.43585"><ele>817.2857142857142</ele><time>2026-04-11T13:17:51.938Z</time></trkpt><trkpt lat="44.851955" lon="9.4358333"><ele>816.1428571428571</ele><time>2026-04-11T13:17:52.937Z</time></trkpt><trkpt lat="44.8518917" lon="9.43581"><ele>815.0</ele><time>2026-04-11T13:17:53.938Z</time></trkpt><trkpt lat="44.8518283" lon="9.43578"><ele>814.8333333333334</ele><time>2026-04-11T13:17:54.938Z</time></trkpt><trkpt lat="44.85176" lon="9.4357467"><ele>814.6666666666667</ele><time>2026-04-11T13:17:55.937Z</time></trkpt><trkpt lat="44.8516833" lon="9.43571"><ele>814.5</ele><time>2026-04-11T13:17:56.938Z</time></trkpt><trkpt lat="44.8516117" lon="9.4356667"><ele>814.3333333333333</ele><time>2026-04-11T13:17:57.937Z</time></trkpt><trkpt lat="44.851555" lon="9.435625"><ele>814.1666666666666</ele><time>2026-04-11T13:17:58.937Z</time></trkpt><trkpt lat="44.8514883" lon="9.43554"><ele>814.0</ele><time>2026-04-11T13:18:00.937Z</time></trkpt><trkpt lat="44.851465" lon="9.4354467"><ele>814.0</ele><time>2026-04-11T13:18:02.942Z</time></trkpt><trkpt lat="44.8514667" lon="9.4353167"><ele>814.0</ele><time>2026-04-11T13:18:04.939Z</time></trkpt><trkpt lat="44.8514233" lon="9.4352267"><ele>814.0</ele><time>2026-04-11T13:18:06.938Z</time></trkpt><trkpt lat="44.8513533" lon="9.4351283"><ele>814.0</ele><time>2026-04-11T13:18:08.939Z</time></trkpt><trkpt lat="44.8512867" lon="9.4350067"><ele>814.0</ele><time>2026-04-11T13:18:10.937Z</time></trkpt><trkpt lat="44.8512267" lon="9.4348983"><ele>814.0</ele><time>2026-04-11T13:18:12.937Z</time></trkpt><trkpt lat="44.85116" lon="9.4347817"><ele>814.0</ele><time>2026-04-11T13:18:14.937Z</time></trkpt><trkpt lat="44.8511133" lon="9.4346317"><ele>814.0</ele><time>2026-04-11T13:18:16.938Z</time></trkpt><trkpt lat="44.8511083" lon="9.43446"><ele>814.0</ele><time>2026-04-11T13:18:18.942Z</time></trkpt><trkpt lat="44.8510617" lon="9.4343083"><ele>813.6</ele><time>2026-04-11T13:18:20.941Z</time></trkpt><trkpt lat="44.8509783" lon="9.4341983"><ele>813.2</ele><time>2026-04-11T13:18:22.937Z</time></trkpt><trkpt lat="44.8509033" lon="9.4341083"><ele>812.8000000000001</ele><time>2026-04-11T13:18:24.937Z</time></trkpt><trkpt lat="44.8508583" lon="9.433975"><ele>812.4000000000001</ele><time>2026-04-11T13:18:26.937Z</time></trkpt><trkpt lat="44.8508617" lon="9.433825"><ele>812.0</ele><time>2026-04-11T13:18:28.937Z</time></trkpt><trkpt lat="44.8508767" lon="9.4337033"><ele>814.1666666666667</ele><time>2026-04-11T13:18:30.937Z</time></trkpt><trkpt lat="44.85086" lon="9.43361"><ele>816.3333333333334</ele><time>2026-04-11T13:18:32.937Z</time></trkpt><trkpt lat="44.850785" lon="9.4335683"><ele>818.5</ele><time>2026-04-11T13:18:34.937Z</time></trkpt><trkpt lat="44.8506783" lon="9.4335083"><ele>820.6666666666667</ele><time>2026-04-11T13:18:36.938Z</time></trkpt><trkpt lat="44.8505667" lon="9.4334567"><ele>822.8333333333334</ele><time>2026-04-11T13:18:38.939Z</time></trkpt><trkpt lat="44.8505017" lon="9.4334367"><ele>825.0</ele><time>2026-04-11T13:18:39.937Z</time></trkpt><trkpt lat="44.8504383" lon="9.43343"><ele>825.0</ele><time>2026-04-11T13:18:40.938Z</time></trkpt><trkpt lat="44.85032" lon="9.4334717"><ele>825.0</ele><time>2026-04-11T13:18:42.937Z</time></trkpt><trkpt lat="44.8502317" lon="9.4335283"><ele>825.0</ele><time>2026-04-11T13:18:44.938Z</time></trkpt><trkpt lat="44.8501767" lon="9.4335867"><ele>825.0</ele><time>2026-04-11T13:18:46.94Z</time></trkpt><trkpt lat="44.8501233" lon="9.4336533"><ele>825.0</ele><time>2026-04-11T13:18:48.937Z</time></trkpt><trkpt lat="44.85005" lon="9.4337117"><ele>825.0</ele><time>2026-04-11T13:18:50.937Z</time></trkpt><trkpt lat="44.8499617" lon="9.4337717"><ele>820.25</ele><time>2026-04-11T13:18:52.945Z</time></trkpt><trkpt lat="44.8498667" lon="9.4338367"><ele>815.5</ele><time>2026-04-11T13:18:54.937Z</time></trkpt><trkpt lat="44.84975" lon="9.4338717"><ele>810.75</ele><time>2026-04-11T13:18:56.941Z</time></trkpt><trkpt lat="44.8496533" lon="9.4339133"><ele>806.0</ele><time>2026-04-11T13:18:58.937Z</time></trkpt><trkpt lat="44.8495233" lon="9.4339467"><ele>806.0000000000001</ele><time>2026-04-11T13:19:00.939Z</time></trkpt><trkpt lat="44.84945" lon="9.433965"><ele>806.0</ele><time>2026-04-11T13:19:01.937Z</time></trkpt><trkpt lat="44.849375" lon="9.4339667"><ele>806.0</ele><time>2026-04-11T13:19:02.941Z</time></trkpt><trkpt lat="44.849295" lon="9.433935"><ele>806.0</ele><time>2026-04-11T13:19:03.939Z</time></trkpt><trkpt lat="44.84922" lon="9.4339"><ele>806.0000000000001</ele><time>2026-04-11T13:19:04.938Z</time></trkpt><trkpt lat="44.8491417" lon="9.433885"><ele>806.0</ele><time>2026-04-11T13:19:05.937Z</time></trkpt><trkpt lat="44.8490667" lon="9.4338767"><ele>805.6666666666667</ele><time>2026-04-11T13:19:06.937Z</time></trkpt><trkpt lat="44.848995" lon="9.4338633"><ele>805.3333333333334</ele><time>2026-04-11T13:19:07.939Z</time></trkpt><trkpt lat="44.8489283" lon="9.433845"><ele>805.0</ele><time>2026-04-11T13:19:08.94Z</time></trkpt><trkpt lat="44.848865" lon="9.4338317"><ele>804.6666666666667</ele><time>2026-04-11T13:19:09.938Z</time></trkpt><trkpt lat="44.8488" lon="9.43382"><ele>804.3333333333334</ele><time>2026-04-11T13:19:10.937Z</time></trkpt><trkpt lat="44.8486917" lon="9.4337683"><ele>804.0</ele><time>2026-04-11T13:19:12.939Z</time></trkpt><trkpt lat="44.8486017" lon="9.4336733"><ele>807.1666666666666</ele><time>2026-04-11T13:19:14.939Z</time></trkpt><trkpt lat="44.84851" lon="9.43359"><ele>810.3333333333333</ele><time>2026-04-11T13:19:16.941Z</time></trkpt><trkpt lat="44.8483967" lon="9.4335167"><ele>813.5</ele><time>2026-04-11T13:19:18.937Z</time></trkpt><trkpt lat="44.8483317" lon="9.4334833"><ele>816.6666666666666</ele><time>2026-04-11T13:19:19.937Z</time></trkpt><trkpt lat="44.8482683" lon="9.4334483"><ele>819.8333333333333</ele><time>2026-04-11T13:19:20.939Z</time></trkpt><trkpt lat="44.8482017" lon="9.4334133"><ele>823.0</ele><time>2026-04-11T13:19:21.937Z</time></trkpt><trkpt lat="44.8481233" lon="9.4333983"><ele>822.9999999999999</ele><time>2026-04-11T13:19:22.937Z</time></trkpt><trkpt lat="44.8480417" lon="9.4333967"><ele>823.0</ele><time>2026-04-11T13:19:23.94Z</time></trkpt><trkpt lat="44.8479517" lon="9.4333767"><ele>823.0</ele><time>2026-04-11T13:19:24.937Z</time></trkpt><trkpt lat="44.8478617" lon="9.433355"><ele>823.0</ele><time>2026-04-11T13:19:25.937Z</time></trkpt><trkpt lat="44.8477833" lon="9.4333383"><ele>822.9999999999999</ele><time>2026-04-11T13:19:26.938Z</time></trkpt><trkpt lat="44.8477" lon="9.4333267"><ele>823.0</ele><time>2026-04-11T13:19:27.937Z</time></trkpt><trkpt lat="44.8476383" lon="9.4333017"><ele>822.8333333333333</ele><time>2026-04-11T13:19:28.94Z</time></trkpt><trkpt lat="44.8475733" lon="9.4332733"><ele>822.6666666666666</ele><time>2026-04-11T13:19:29.937Z</time></trkpt><trkpt lat="44.8474667" lon="9.43322"><ele>822.5</ele><time>2026-04-11T13:19:31.937Z</time></trkpt><trkpt lat="44.8473883" lon="9.43316"><ele>822.3333333333333</ele><time>2026-04-11T13:19:33.937Z</time></trkpt><trkpt lat="44.8473417" lon="9.4330733"><ele>822.1666666666666</ele><time>2026-04-11T13:19:35.94Z</time></trkpt><trkpt lat="44.8473183" lon="9.4329767"><ele>822.0</ele><time>2026-04-11T13:19:37.938Z</time></trkpt><trkpt lat="44.8473667" lon="9.4328733"><ele>822.0</ele><time>2026-04-11T13:21:32.937Z</time></trkpt><trkpt lat="44.84741" lon="9.4327767"><ele>822.0</ele><time>2026-04-11T13:21:34.937Z</time></trkpt><trkpt lat="44.8474583" lon="9.432645"><ele>822.0</ele><time>2026-04-11T13:21:36.939Z</time></trkpt><trkpt lat="44.8475083" lon="9.4325083"><ele>822.0</ele><time>2026-04-11T13:21:38.937Z</time></trkpt><trkpt lat="44.8475517" lon="9.4323467"><ele>822.0</ele><time>2026-04-11T13:21:40.936Z</time></trkpt><trkpt lat="44.847595" lon="9.4322067"><ele>827.6</ele><time>2026-04-11T13:21:42.937Z</time></trkpt><trkpt lat="44.84764" lon="9.4320567"><ele>833.2</ele><time>2026-04-11T13:21:44.937Z</time></trkpt><trkpt lat="44.847685" lon="9.4319133"><ele>838.8</ele><time>2026-04-11T13:21:46.936Z</time></trkpt><trkpt lat="44.84773" lon="9.4318183"><ele>844.4</ele><time>2026-04-11T13:21:48.936Z</time></trkpt><trkpt lat="44.847785" lon="9.43171"><ele>850.0</ele><time>2026-04-11T13:21:50.937Z</time></trkpt><trkpt lat="44.847845" lon="9.43159"><ele>850.0</ele><time>2026-04-11T13:21:52.937Z</time></trkpt><trkpt lat="44.8479133" lon="9.431475"><ele>850.0</ele><time>2026-04-11T13:21:54.938Z</time></trkpt><trkpt lat="44.8479717" lon="9.4313567"><ele>850.0</ele><time>2026-04-11T13:21:56.943Z</time></trkpt><trkpt lat="44.8480183" lon="9.4312333"><ele>850.0</ele><time>2026-04-11T13:21:58.937Z</time></trkpt><trkpt lat="44.848065" lon="9.431125"><ele>850.0</ele><time>2026-04-11T13:22:00.937Z</time></trkpt><trkpt lat="44.8481067" lon="9.4310517"><ele>847.8333333333333</ele><time>2026-04-11T13:22:02.937Z</time></trkpt><trkpt lat="44.8481567" lon="9.43097"><ele>845.6666666666666</ele><time>2026-04-11T13:22:04.936Z</time></trkpt><trkpt lat="44.84821" lon="9.43085"><ele>843.5</ele><time>2026-04-11T13:22:06.939Z</time></trkpt><trkpt lat="44.8482333" lon="9.430765"><ele>841.3333333333333</ele><time>2026-04-11T13:22:07.938Z</time></trkpt><trkpt lat="44.84827" lon="9.4306817"><ele>839.1666666666666</ele><time>2026-04-11T13:22:08.941Z</time></trkpt><trkpt lat="44.84834" lon="9.43053"><ele>837.0</ele><time>2026-04-11T13:22:10.936Z</time></trkpt><trkpt lat="44.8483767" lon="9.4304517"><ele>834.2</ele><time>2026-04-11T13:22:11.936Z</time></trkpt><trkpt lat="44.84843" lon="9.4303417"><ele>831.4000000000001</ele><time>2026-04-11T13:22:13.937Z</time></trkpt><trkpt lat="44.8484767" lon="9.4302183"><ele>828.5999999999999</ele><time>2026-04-11T13:22:15.938Z</time></trkpt><trkpt lat="44.8485217" lon="9.430085"><ele>825.8</ele><time>2026-04-11T13:22:17.937Z</time></trkpt><trkpt lat="44.848565" lon="9.4299517"><ele>823.0</ele><time>2026-04-11T13:22:19.938Z</time></trkpt><trkpt lat="44.848595" lon="9.4298167"><ele>826.9999999999999</ele><time>2026-04-11T13:22:21.938Z</time></trkpt><trkpt lat="44.8486283" lon="9.429715"><ele>831.0</ele><time>2026-04-11T13:22:23.937Z</time></trkpt><trkpt lat="44.8486667" lon="9.429585"><ele>835.0</ele><time>2026-04-11T13:22:35.937Z</time></trkpt><trkpt lat="44.8486833" lon="9.429495"><ele>839.0</ele><time>2026-04-11T13:22:40.937Z</time></trkpt><trkpt lat="44.8486967" lon="9.429405"><ele>842.9999999999999</ele><time>2026-04-11T13:22:46.937Z</time></trkpt><trkpt lat="44.8486883" lon="9.4293017"><ele>847.0</ele><time>2026-04-11T13:22:48.941Z</time></trkpt><trkpt lat="44.848705" lon="9.4291667"><ele>847.0</ele><time>2026-04-11T13:22:50.937Z</time></trkpt><trkpt lat="44.84873" lon="9.42904"><ele>847.0</ele><time>2026-04-11T13:22:52.937Z</time></trkpt><trkpt lat="44.8487533" lon="9.4289233"><ele>847.0</ele><time>2026-04-11T13:22:54.937Z</time></trkpt><trkpt lat="44.8487817" lon="9.4288067"><ele>847.0</ele><time>2026-04-11T13:22:56.937Z</time></trkpt><trkpt lat="44.84884" lon="9.4286633"><ele>847.0</ele><time>2026-04-11T13:22:58.937Z</time></trkpt><trkpt lat="44.8488733" lon="9.4285733"><ele>845.6666666666666</ele><time>2026-04-11T13:22:59.937Z</time></trkpt><trkpt lat="44.8489017" lon="9.4284733"><ele>844.3333333333333</ele><time>2026-04-11T13:23:00.938Z</time></trkpt><trkpt lat="44.8489183" lon="9.428355"><ele>843.0</ele><time>2026-04-11T13:23:01.942Z</time></trkpt><trkpt lat="44.84892" lon="9.4282317"><ele>841.6666666666667</ele><time>2026-04-11T13:23:02.938Z</time></trkpt><trkpt lat="44.8489133" lon="9.4281217"><ele>840.3333333333334</ele><time>2026-04-11T13:23:03.938Z</time></trkpt><trkpt lat="44.84889" lon="9.428005"><ele>839.0</ele><time>2026-04-11T13:23:05.937Z</time></trkpt><trkpt lat="44.8488767" lon="9.4278967"><ele>838.2</ele><time>2026-04-11T13:23:26.937Z</time></trkpt><trkpt lat="44.84885" lon="9.4277633"><ele>837.4000000000001</ele><time>2026-04-11T13:23:28.937Z</time></trkpt><trkpt lat="44.848845" lon="9.4276033"><ele>836.6</ele><time>2026-04-11T13:23:30.942Z</time></trkpt><trkpt lat="44.8488467" lon="9.427425"><ele>835.8</ele><time>2026-04-11T13:23:32.939Z</time></trkpt><trkpt lat="44.8488467" lon="9.427335"><ele>835.0</ele><time>2026-04-11T13:23:33.937Z</time></trkpt><trkpt lat="44.8488667" lon="9.4271767"><ele>836.0</ele><time>2026-04-11T13:23:35.938Z</time></trkpt><trkpt lat="44.84889" lon="9.4270333"><ele>837.0</ele><time>2026-04-11T13:23:37.937Z</time></trkpt><trkpt lat="44.8488867" lon="9.426875"><ele>838.0</ele><time>2026-04-11T13:23:39.937Z</time></trkpt><trkpt lat="44.8488517" lon="9.4267117"><ele>839.0</ele><time>2026-04-11T13:23:41.937Z</time></trkpt><trkpt lat="44.8488283" lon="9.426545"><ele>839.0</ele><time>2026-04-11T13:23:43.937Z</time></trkpt><trkpt lat="44.848825" lon="9.4263683"><ele>839.0</ele><time>2026-04-11T13:23:45.937Z</time></trkpt><trkpt lat="44.8488233" lon="9.426265"><ele>839.0</ele><time>2026-04-11T13:23:46.937Z</time></trkpt><trkpt lat="44.84881" lon="9.4261767"><ele>839.0</ele><time>2026-04-11T13:23:47.939Z</time></trkpt><trkpt lat="44.8487567" lon="9.426045"><ele>839.0</ele><time>2026-04-11T13:23:49.942Z</time></trkpt><trkpt lat="44.8487417" lon="9.4259183"><ele>840.6</ele><time>2026-04-11T13:23:51.938Z</time></trkpt><trkpt lat="44.8487667" lon="9.4257733"><ele>842.2</ele><time>2026-04-11T13:23:53.938Z</time></trkpt><trkpt lat="44.8487617" lon="9.4256167"><ele>843.8000000000001</ele><time>2026-04-11T13:23:55.937Z</time></trkpt><trkpt lat="44.848745" lon="9.4254667"><ele>845.4000000000001</ele><time>2026-04-11T13:23:57.938Z</time></trkpt><trkpt lat="44.8487333" lon="9.4253067"><ele>847.0</ele><time>2026-04-11T13:23:59.937Z</time></trkpt><trkpt lat="44.8487183" lon="9.4251633"><ele>849.0</ele><time>2026-04-11T13:24:01.938Z</time></trkpt><trkpt lat="44.8487167" lon="9.4250217"><ele>851.0</ele><time>2026-04-11T13:24:03.94Z</time></trkpt><trkpt lat="44.8487567" lon="9.4248933"><ele>853.0</ele><time>2026-04-11T13:24:05.937Z</time></trkpt><trkpt lat="44.8487867" lon="9.4247483"><ele>855.0</ele><time>2026-04-11T13:24:07.937Z</time></trkpt><trkpt lat="44.8487883" lon="9.4245917"><ele>857.0</ele><time>2026-04-11T13:24:09.937Z</time></trkpt><trkpt lat="44.8487688" lon="9.4244471"><ele>858.0</ele><time>2026-04-11T13:24:11.937Z</time></trkpt><trkpt lat="44.8487321" lon="9.4242944"><ele>859.0</ele><time>2026-04-11T13:24:13.937Z</time></trkpt><trkpt lat="44.8486995" lon="9.4241439"><ele>860.0</ele><time>2026-04-11T13:24:15.937Z</time></trkpt><trkpt lat="44.8486814" lon="9.4240543"><ele>861.0</ele><time>2026-04-11T13:24:16.937Z</time></trkpt><trkpt lat="44.8486685" lon="9.4239643"><ele>862.0</ele><time>2026-04-11T13:24:17.937Z</time></trkpt><trkpt lat="44.848654" lon="9.4238061"><ele>863.2</ele><time>2026-04-11T13:24:19.938Z</time></trkpt><trkpt lat="44.8486527" lon="9.4236534"><ele>864.4000000000001</ele><time>2026-04-11T13:24:21.939Z</time></trkpt><trkpt lat="44.8486452" lon="9.4235189"><ele>865.5999999999999</ele><time>2026-04-11T13:24:23.945Z</time></trkpt><trkpt lat="44.8486095" lon="9.4233759"><ele>866.8</ele><time>2026-04-11T13:24:25.937Z</time></trkpt><trkpt lat="44.8485683" lon="9.4232293"><ele>868.0</ele><time>2026-04-11T13:24:27.937Z</time></trkpt><trkpt lat="44.8485006" lon="9.4231037"><ele>865.5999999999999</ele><time>2026-04-11T13:24:29.939Z</time></trkpt><trkpt lat="44.8484379" lon="9.422957"><ele>863.1999999999999</ele><time>2026-04-11T13:24:31.937Z</time></trkpt><trkpt lat="44.8484099" lon="9.4228729"><ele>860.8</ele><time>2026-04-11T13:24:32.938Z</time></trkpt><trkpt lat="44.8483987" lon="9.4227222"><ele>858.4</ele><time>2026-04-11T13:24:34.937Z</time></trkpt><trkpt lat="44.8484131" lon="9.4225671"><ele>856.0</ele><time>2026-04-11T13:24:36.937Z</time></trkpt><trkpt lat="44.8483871" lon="9.4224253"><ele>855.9999999999999</ele><time>2026-04-11T13:24:38.938Z</time></trkpt><trkpt lat="44.8483498" lon="9.4223517"><ele>856.0</ele><time>2026-04-11T13:24:39.937Z</time></trkpt><trkpt lat="44.8482695" lon="9.4222496"><ele>856.0</ele><time>2026-04-11T13:24:41.938Z</time></trkpt><trkpt lat="44.8481981" lon="9.4222067"><ele>856.0</ele><time>2026-04-11T13:24:43.937Z</time></trkpt><trkpt lat="44.8481284" lon="9.4221541"><ele>855.9999999999999</ele><time>2026-04-11T13:24:45.937Z</time></trkpt><trkpt lat="44.8480451" lon="9.4221114"><ele>856.0</ele><time>2026-04-11T13:24:48.938Z</time></trkpt><trkpt lat="44.8479787" lon="9.4220697"><ele>860.4</ele><time>2026-04-11T13:24:50.938Z</time></trkpt><trkpt lat="44.8478896" lon="9.4219968"><ele>864.8</ele><time>2026-04-11T13:24:52.938Z</time></trkpt><trkpt lat="44.847806" lon="9.4218702"><ele>869.1999999999999</ele><time>2026-04-11T13:24:54.938Z</time></trkpt><trkpt lat="44.8477737" lon="9.4217739"><ele>873.5999999999999</ele><time>2026-04-11T13:24:55.938Z</time></trkpt><trkpt lat="44.847758" lon="9.4216555"><ele>878.0</ele><time>2026-04-11T13:24:56.939Z</time></trkpt><trkpt lat="44.8477532" lon="9.4215336"><ele>878.0000000000001</ele><time>2026-04-11T13:24:57.937Z</time></trkpt><trkpt lat="44.84775" lon="9.421422"><ele>878.0</ele><time>2026-04-11T13:24:58.938Z</time></trkpt><trkpt lat="44.8477468" lon="9.4212603"><ele>878.0</ele><time>2026-04-11T13:25:00.943Z</time></trkpt><trkpt lat="44.8477443" lon="9.4211426"><ele>878.0</ele><time>2026-04-11T13:25:02.937Z</time></trkpt><trkpt lat="44.8477474" lon="9.4210496"><ele>878.0000000000001</ele><time>2026-04-11T13:25:04.937Z</time></trkpt><trkpt lat="44.8477573" lon="9.4209451"><ele>878.0</ele><time>2026-04-11T13:25:06.939Z</time></trkpt><trkpt lat="44.8477639" lon="9.4208434"><ele>879.0</ele><time>2026-04-11T13:25:08.937Z</time></trkpt><trkpt lat="44.8477374" lon="9.4205942"><ele>880.0</ele><time>2026-04-11T13:28:14.938Z</time></trkpt><trkpt lat="44.8477242" lon="9.4204927"><ele>881.0</ele><time>2026-04-11T13:28:16.937Z</time></trkpt><trkpt lat="44.8477541" lon="9.4203735"><ele>882.0</ele><time>2026-04-11T13:28:19.94Z</time></trkpt><trkpt lat="44.8477886" lon="9.4202917"><ele>883.0</ele><time>2026-04-11T13:28:21.938Z</time></trkpt><trkpt lat="44.8478369" lon="9.4202146"><ele>882.9999999999999</ele><time>2026-04-11T13:28:28.937Z</time></trkpt><trkpt lat="44.8478686" lon="9.4200917"><ele>883.0</ele><time>2026-04-11T13:28:31.938Z</time></trkpt><trkpt lat="44.8479667" lon="9.4200933"><ele>883.0</ele><time>2026-04-11T13:28:34.938Z</time></trkpt><trkpt lat="44.8480267" lon="9.42002"><ele>883.0</ele><time>2026-04-11T13:28:59.937Z</time></trkpt><trkpt lat="44.8480767" lon="9.4198967"><ele>882.9999999999999</ele><time>2026-04-11T13:29:02.943Z</time></trkpt><trkpt lat="44.84812" lon="9.4198083"><ele>883.0</ele><time>2026-04-11T13:29:04.937Z</time></trkpt><trkpt lat="44.8482067" lon="9.4197233"><ele>882.8333333333333</ele><time>2026-04-11T13:29:06.936Z</time></trkpt><trkpt lat="44.8482667" lon="9.4195967"><ele>882.6666666666666</ele><time>2026-04-11T13:29:08.939Z</time></trkpt><trkpt lat="44.8482733" lon="9.419435"><ele>882.5</ele><time>2026-04-11T13:29:10.937Z</time></trkpt><trkpt lat="44.8482817" lon="9.4193417"><ele>882.3333333333333</ele><time>2026-04-11T13:29:11.937Z</time></trkpt><trkpt lat="44.848305" lon="9.4192517"><ele>882.1666666666666</ele><time>2026-04-11T13:29:12.937Z</time></trkpt><trkpt lat="44.8483583" lon="9.419155"><ele>882.0</ele><time>2026-04-11T13:29:13.937Z</time></trkpt><trkpt lat="44.8484217" lon="9.41907"><ele>886.3333333333334</ele><time>2026-04-11T13:29:14.937Z</time></trkpt><trkpt lat="44.8484967" lon="9.4189983"><ele>890.6666666666667</ele><time>2026-04-11T13:29:15.938Z</time></trkpt><trkpt lat="44.8485683" lon="9.4189333"><ele>895.0</ele><time>2026-04-11T13:29:16.937Z</time></trkpt><trkpt lat="44.8486183" lon="9.4188533"><ele>899.3333333333334</ele><time>2026-04-11T13:29:17.939Z</time></trkpt><trkpt lat="44.8486017" lon="9.4187417"><ele>903.6666666666667</ele><time>2026-04-11T13:29:18.938Z</time></trkpt><trkpt lat="44.8485783" lon="9.41865"><ele>908.0</ele><time>2026-04-11T13:29:19.939Z</time></trkpt><trkpt lat="44.8485417" lon="9.4185717"><ele>908.4</ele><time>2026-04-11T13:29:20.939Z</time></trkpt><trkpt lat="44.8485117" lon="9.4184933"><ele>908.8</ele><time>2026-04-11T13:29:21.939Z</time></trkpt><trkpt lat="44.848475" lon="9.418365"><ele>909.2</ele><time>2026-04-11T13:29:23.938Z</time></trkpt><trkpt lat="44.848415" lon="9.4182567"><ele>909.6</ele><time>2026-04-11T13:32:24.937Z</time></trkpt><trkpt lat="44.8483517" lon="9.41811"><ele>910.0</ele><time>2026-04-11T13:32:27.939Z</time></trkpt><trkpt lat="44.8483117" lon="9.4180217"><ele>908.4999999999999</ele><time>2026-04-11T13:32:28.936Z</time></trkpt><trkpt lat="44.848275" lon="9.4179333"><ele>907.0</ele><time>2026-04-11T13:32:29.936Z</time></trkpt><trkpt lat="44.8482333" lon="9.4178617"><ele>905.5</ele><time>2026-04-11T13:32:30.936Z</time></trkpt><trkpt lat="44.8481833" lon="9.4177983"><ele>904.0</ele><time>2026-04-11T13:32:31.936Z</time></trkpt><trkpt lat="44.8481283" lon="9.4177483"><ele>902.4999999999999</ele><time>2026-04-11T13:32:32.938Z</time></trkpt><trkpt lat="44.8480127" lon="9.4176803"><ele>901.0</ele><time>2026-04-11T13:32:34.937Z</time></trkpt><trkpt lat="44.8479017" lon="9.4176186"><ele>901.0</ele><time>2026-04-11T13:32:36.937Z</time></trkpt><trkpt lat="44.847815" lon="9.4175224"><ele>900.9999999999999</ele><time>2026-04-11T13:32:38.938Z</time></trkpt><trkpt lat="44.8477206" lon="9.4174845"><ele>900.9999999999999</ele><time>2026-04-11T13:32:40.937Z</time></trkpt><trkpt lat="44.8476353" lon="9.4174167"><ele>901.0</ele><time>2026-04-11T13:32:42.937Z</time></trkpt><trkpt lat="44.8475372" lon="9.417306"><ele>901.0</ele><time>2026-04-11T13:32:44.942Z</time></trkpt><trkpt lat="44.8474575" lon="9.4171873"><ele>903.1999999999999</ele><time>2026-04-11T13:32:46.939Z</time></trkpt><trkpt lat="44.8473798" lon="9.4171038"><ele>905.3999999999999</ele><time>2026-04-11T13:32:48.938Z</time></trkpt><trkpt lat="44.847292" lon="9.4170413"><ele>907.6</ele><time>2026-04-11T13:32:50.938Z</time></trkpt><trkpt lat="44.8471933" lon="9.4169549"><ele>909.8</ele><time>2026-04-11T13:32:52.937Z</time></trkpt><trkpt lat="44.8470941" lon="9.4168468"><ele>912.0</ele><time>2026-04-11T13:32:54.945Z</time></trkpt><trkpt lat="44.847039" lon="9.4167829"><ele>912.0</ele><time>2026-04-11T13:32:55.939Z</time></trkpt><trkpt lat="44.8469875" lon="9.416717"><ele>912.0</ele><time>2026-04-11T13:32:56.938Z</time></trkpt><trkpt lat="44.8469394" lon="9.4166569"><ele>912.0</ele><time>2026-04-11T13:32:57.937Z</time></trkpt><trkpt lat="44.8468454" lon="9.4165519"><ele>912.0</ele><time>2026-04-11T13:32:59.94Z</time></trkpt><trkpt lat="44.8467497" lon="9.4164756"><ele>912.0</ele><time>2026-04-11T13:33:01.937Z</time></trkpt><trkpt lat="44.8466385" lon="9.4163907"><ele>912.8333333333334</ele><time>2026-04-11T13:33:03.939Z</time></trkpt><trkpt lat="44.8465766" lon="9.416334"><ele>913.6666666666667</ele><time>2026-04-11T13:33:04.938Z</time></trkpt><trkpt lat="44.8465143" lon="9.4162721"><ele>914.5</ele><time>2026-04-11T13:33:05.945Z</time></trkpt><trkpt lat="44.8464546" lon="9.4162087"><ele>915.3333333333334</ele><time>2026-04-11T13:33:06.938Z</time></trkpt><trkpt lat="44.8464005" lon="9.4161487"><ele>916.1666666666667</ele><time>2026-04-11T13:33:07.938Z</time></trkpt><trkpt lat="44.8463178" lon="9.4160407"><ele>917.0</ele><time>2026-04-11T13:33:09.937Z</time></trkpt><trkpt lat="44.8462729" lon="9.4159183"><ele>917.0000000000001</ele><time>2026-04-11T13:33:12.937Z</time></trkpt><trkpt lat="44.8462098" lon="9.4158342"><ele>917.0</ele><time>2026-04-11T13:33:14.938Z</time></trkpt><trkpt lat="44.8461398" lon="9.415746"><ele>917.0</ele><time>2026-04-11T13:33:16.949Z</time></trkpt><trkpt lat="44.8460838" lon="9.4156435"><ele>917.0</ele><time>2026-04-11T13:33:18.938Z</time></trkpt><trkpt lat="44.8460417" lon="9.4155591"><ele>917.0000000000001</ele><time>2026-04-11T13:33:20.937Z</time></trkpt><trkpt lat="44.8459861" lon="9.4154954"><ele>917.0</ele><time>2026-04-11T13:33:23.937Z</time></trkpt><trkpt lat="44.8458883" lon="9.4154633"><ele>915.8333333333334</ele><time>2026-04-11T13:33:29.936Z</time></trkpt><trkpt lat="44.8458267" lon="9.4154167"><ele>914.6666666666667</ele><time>2026-04-11T13:33:31.94Z</time></trkpt><trkpt lat="44.8457917" lon="9.41533"><ele>913.5</ele><time>2026-04-11T13:33:34.937Z</time></trkpt><trkpt lat="44.8457733" lon="9.4152267"><ele>912.3333333333333</ele><time>2026-04-11T13:33:36.942Z</time></trkpt><trkpt lat="44.845765" lon="9.4151067"><ele>911.1666666666666</ele><time>2026-04-11T13:33:38.938Z</time></trkpt><trkpt lat="44.8457283" lon="9.4149083"><ele>910.0</ele><time>2026-04-11T13:35:20.94Z</time></trkpt><trkpt lat="44.8457317" lon="9.414815"><ele>910.0</ele><time>2026-04-11T13:35:21.943Z</time></trkpt><trkpt lat="44.845735" lon="9.4147217"><ele>910.0</ele><time>2026-04-11T13:35:22.938Z</time></trkpt><trkpt lat="44.84573" lon="9.4146217"><ele>910.0</ele><time>2026-04-11T13:35:23.938Z</time></trkpt><trkpt lat="44.8457167" lon="9.41453"><ele>910.0</ele><time>2026-04-11T13:35:24.939Z</time></trkpt><trkpt lat="44.8457183" lon="9.4144317"><ele>910.0</ele><time>2026-04-11T13:35:25.937Z</time></trkpt><trkpt lat="44.8457167" lon="9.4143267"><ele>910.0</ele><time>2026-04-11T13:35:26.938Z</time></trkpt><trkpt lat="44.8457133" lon="9.4142217"><ele>910.0</ele><time>2026-04-11T13:35:27.939Z</time></trkpt><trkpt lat="44.8457067" lon="9.4141117"><ele>909.2</ele><time>2026-04-11T13:35:28.937Z</time></trkpt><trkpt lat="44.8456967" lon="9.4140033"><ele>908.4</ele><time>2026-04-11T13:35:29.946Z</time></trkpt><trkpt lat="44.8456883" lon="9.413895"><ele>907.5999999999999</ele><time>2026-04-11T13:35:30.937Z</time></trkpt><trkpt lat="44.8456867" lon="9.4137217"><ele>906.8</ele><time>2026-04-11T13:35:32.939Z</time></trkpt><trkpt lat="44.845675" lon="9.41355"><ele>906.0</ele><time>2026-04-11T13:35:34.941Z</time></trkpt><trkpt lat="44.8456433" lon="9.413425"><ele>905.1999999999999</ele><time>2026-04-11T13:35:36.939Z</time></trkpt><trkpt lat="44.845595" lon="9.4133317"><ele>904.3999999999999</ele><time>2026-04-11T13:35:51.938Z</time></trkpt><trkpt lat="44.8455417" lon="9.41319"><ele>903.6</ele><time>2026-04-11T13:36:05.938Z</time></trkpt><trkpt lat="44.8454983" lon="9.4130733"><ele>902.8</ele><time>2026-04-11T13:36:07.938Z</time></trkpt><trkpt lat="44.845435" lon="9.4129567"><ele>902.0</ele><time>2026-04-11T13:36:09.937Z</time></trkpt><trkpt lat="44.8453617" lon="9.4128417"><ele>900.2</ele><time>2026-04-11T13:36:11.937Z</time></trkpt><trkpt lat="44.8453033" lon="9.4127183"><ele>898.4000000000001</ele><time>2026-04-11T13:36:13.938Z</time></trkpt><trkpt lat="44.8452483" lon="9.4125967"><ele>896.5999999999999</ele><time>2026-04-11T13:36:15.938Z</time></trkpt><trkpt lat="44.8451733" lon="9.412465"><ele>894.8</ele><time>2026-04-11T13:36:17.943Z</time></trkpt><trkpt lat="44.8451333" lon="9.41238"><ele>893.0</ele><time>2026-04-11T13:36:18.938Z</time></trkpt><trkpt lat="44.84509" lon="9.4122933"><ele>892.3333333333334</ele><time>2026-04-11T13:36:19.938Z</time></trkpt><trkpt lat="44.8450617" lon="9.4122067"><ele>891.6666666666667</ele><time>2026-04-11T13:36:20.938Z</time></trkpt><trkpt lat="44.8450317" lon="9.4121117"><ele>891.0</ele><time>2026-04-11T13:36:21.938Z</time></trkpt><trkpt lat="44.8449983" lon="9.4120167"><ele>890.3333333333333</ele><time>2026-04-11T13:36:22.94Z</time></trkpt><trkpt lat="44.84496" lon="9.4119317"><ele>889.6666666666666</ele><time>2026-04-11T13:36:23.937Z</time></trkpt><trkpt lat="44.844925" lon="9.4118467"><ele>889.0</ele><time>2026-04-11T13:36:24.944Z</time></trkpt><trkpt lat="44.8448783" lon="9.4116933"><ele>888.9999999999999</ele><time>2026-04-11T13:36:26.94Z</time></trkpt><trkpt lat="44.8448383" lon="9.411555"><ele>889.0</ele><time>2026-04-11T13:36:28.937Z</time></trkpt><trkpt lat="44.8448133" lon="9.41143"><ele>889.0</ele><time>2026-04-11T13:36:31.937Z</time></trkpt><trkpt lat="44.8448067" lon="9.4113367"><ele>889.0</ele><time>2026-04-11T13:36:33.938Z</time></trkpt><trkpt lat="44.8448133" lon="9.4112183"><ele>888.9999999999999</ele><time>2026-04-11T13:36:36.938Z</time></trkpt><trkpt lat="44.8448433" lon="9.4111117"><ele>889.0</ele><time>2026-04-11T13:36:39.937Z</time></trkpt><trkpt lat="44.8448983" lon="9.4109933"><ele>885.4000000000001</ele><time>2026-04-11T13:36:41.938Z</time></trkpt><trkpt lat="44.8449733" lon="9.4108633"><ele>881.8000000000001</ele><time>2026-04-11T13:36:43.945Z</time></trkpt><trkpt lat="44.845055" lon="9.4107533"><ele>878.1999999999999</ele><time>2026-04-11T13:36:45.939Z</time></trkpt><trkpt lat="44.8451617" lon="9.41067"><ele>874.5999999999999</ele><time>2026-04-11T13:36:47.938Z</time></trkpt><trkpt lat="44.8452367" lon="9.410635"><ele>871.0</ele><time>2026-04-11T13:36:49.94Z</time></trkpt><trkpt lat="44.8453" lon="9.4105433"><ele>870.1666666666666</ele><time>2026-04-11T13:36:51.938Z</time></trkpt><trkpt lat="44.84534" lon="9.4104583"><ele>869.3333333333333</ele><time>2026-04-11T13:36:52.94Z</time></trkpt><trkpt lat="44.8453867" lon="9.4103483"><ele>868.5</ele><time>2026-04-11T13:36:53.941Z</time></trkpt><trkpt lat="44.8454367" lon="9.410245"><ele>867.6666666666667</ele><time>2026-04-11T13:36:54.943Z</time></trkpt><trkpt lat="44.8454883" lon="9.4101533"><ele>866.8333333333334</ele><time>2026-04-11T13:36:55.938Z</time></trkpt><trkpt lat="44.8455333" lon="9.4100817"><ele>866.0</ele><time>2026-04-11T13:36:56.938Z</time></trkpt><trkpt lat="44.8456" lon="9.40997"><ele>866.0000000000001</ele><time>2026-04-11T13:36:58.938Z</time></trkpt><trkpt lat="44.84565" lon="9.4098"><ele>866.0</ele><time>2026-04-11T13:37:00.946Z</time></trkpt><trkpt lat="44.8456717" lon="9.4097033"><ele>866.0</ele><time>2026-04-11T13:37:01.941Z</time></trkpt><trkpt lat="44.84569" lon="9.409595"><ele>866.0</ele><time>2026-04-11T13:37:02.938Z</time></trkpt><trkpt lat="44.8457033" lon="9.4094917"><ele>866.0000000000001</ele><time>2026-04-11T13:37:03.937Z</time></trkpt><trkpt lat="44.845715" lon="9.40939"><ele>866.0</ele><time>2026-04-11T13:37:04.937Z</time></trkpt><trkpt lat="44.8457267" lon="9.40929"><ele>864.3333333333334</ele><time>2026-04-11T13:37:05.938Z</time></trkpt><trkpt lat="44.8457383" lon="9.4091833"><ele>862.6666666666667</ele><time>2026-04-11T13:37:06.938Z</time></trkpt><trkpt lat="44.8457417" lon="9.40909"><ele>861.0</ele><time>2026-04-11T13:37:07.938Z</time></trkpt><trkpt lat="44.8457367" lon="9.4089983"><ele>859.3333333333333</ele><time>2026-04-11T13:37:08.938Z</time></trkpt><trkpt lat="44.8457233" lon="9.4089067"><ele>857.6666666666666</ele><time>2026-04-11T13:37:09.94Z</time></trkpt><trkpt lat="44.8457067" lon="9.40881"><ele>856.0</ele><time>2026-04-11T13:37:10.94Z</time></trkpt><trkpt lat="44.8457083" lon="9.4086317"><ele>855.4</ele><time>2026-04-11T13:37:12.938Z</time></trkpt><trkpt lat="44.8457217" lon="9.4085417"><ele>854.8</ele><time>2026-04-11T13:37:13.938Z</time></trkpt><trkpt lat="44.84573" lon="9.4083733"><ele>854.1999999999999</ele><time>2026-04-11T13:37:15.939Z</time></trkpt><trkpt lat="44.845705" lon="9.4082117"><ele>853.5999999999999</ele><time>2026-04-11T13:37:17.944Z</time></trkpt><trkpt lat="44.845685" lon="9.4081233"><ele>853.0</ele><time>2026-04-11T13:37:18.94Z</time></trkpt><trkpt lat="44.84564" lon="9.4079683"><ele>852.5999999999999</ele><time>2026-04-11T13:37:20.939Z</time></trkpt><trkpt lat="44.8455917" lon="9.4078583"><ele>852.1999999999999</ele><time>2026-04-11T13:37:22.941Z</time></trkpt><trkpt lat="44.8455417" lon="9.4077517"><ele>851.8</ele><time>2026-04-11T13:37:24.939Z</time></trkpt><trkpt lat="44.8455183" lon="9.4076333"><ele>851.4</ele><time>2026-04-11T13:37:26.938Z</time></trkpt><trkpt lat="44.845485" lon="9.407515"><ele>851.0</ele><time>2026-04-11T13:37:28.94Z</time></trkpt><trkpt lat="44.8454367" lon="9.4073933"><ele>851.0</ele><time>2026-04-11T13:37:30.94Z</time></trkpt><trkpt lat="44.8454017" lon="9.4072667"><ele>851.0</ele><time>2026-04-11T13:37:32.938Z</time></trkpt><trkpt lat="44.8454117" lon="9.4071333"><ele>851.0</ele><time>2026-04-11T13:38:20.938Z</time></trkpt><trkpt lat="44.8454483" lon="9.4070383"><ele>851.0</ele><time>2026-04-11T13:38:22.937Z</time></trkpt><trkpt lat="44.8454883" lon="9.4068883"><ele>851.0</ele><time>2026-04-11T13:38:24.937Z</time></trkpt><trkpt lat="44.84549" lon="9.406735"><ele>850.5999999999999</ele><time>2026-04-11T13:38:26.939Z</time></trkpt><trkpt lat="44.8454617" lon="9.4065667"><ele>850.2</ele><time>2026-04-11T13:38:28.937Z</time></trkpt><trkpt lat="44.84541" lon="9.4064333"><ele>849.8</ele><time>2026-04-11T13:38:30.937Z</time></trkpt><trkpt lat="44.8453633" lon="9.406335"><ele>849.4000000000001</ele><time>2026-04-11T13:38:32.943Z</time></trkpt><trkpt lat="44.84539" lon="9.4061747"><ele>849.0</ele><time>2026-04-11T13:38:48.948Z</time></trkpt><trkpt lat="44.8454263" lon="9.4059784"><ele>847.4000000000001</ele><time>2026-04-11T13:38:50.939Z</time></trkpt><trkpt lat="44.8454434" lon="9.4058369"><ele>845.8</ele><time>2026-04-11T13:38:51.936Z</time></trkpt><trkpt lat="44.8454564" lon="9.4056959"><ele>844.2</ele><time>2026-04-11T13:38:52.937Z</time></trkpt><trkpt lat="44.8454729" lon="9.4055348"><ele>842.5999999999999</ele><time>2026-04-11T13:38:53.937Z</time></trkpt><trkpt lat="44.8454822" lon="9.4053699"><ele>841.0</ele><time>2026-04-11T13:38:54.94Z</time></trkpt><trkpt lat="44.8454799" lon="9.4052217"><ele>841.1666666666666</ele><time>2026-04-11T13:38:55.936Z</time></trkpt><trkpt lat="44.8454742" lon="9.4050985"><ele>841.3333333333333</ele><time>2026-04-11T13:38:56.938Z</time></trkpt><trkpt lat="44.8454789" lon="9.4049846"><ele>841.5</ele><time>2026-04-11T13:38:57.937Z</time></trkpt><trkpt lat="44.8454921" lon="9.4048778"><ele>841.6666666666667</ele><time>2026-04-11T13:38:58.938Z</time></trkpt><trkpt lat="44.8454999" lon="9.4047831"><ele>841.8333333333334</ele><time>2026-04-11T13:38:59.941Z</time></trkpt><trkpt lat="44.8455202" lon="9.404619"><ele>842.0</ele><time>2026-04-11T13:39:01.937Z</time></trkpt><trkpt lat="44.8455437" lon="9.4044678"><ele>842.0000000000001</ele><time>2026-04-11T13:39:03.937Z</time></trkpt><trkpt lat="44.8455458" lon="9.4043395"><ele>842.0</ele><time>2026-04-11T13:39:05.936Z</time></trkpt><trkpt lat="44.8455449" lon="9.4041882"><ele>842.0</ele><time>2026-04-11T13:39:07.937Z</time></trkpt><trkpt lat="44.8455541" lon="9.4040901"><ele>842.0</ele><time>2026-04-11T13:39:08.937Z</time></trkpt><trkpt lat="44.8455605" lon="9.4039836"><ele>842.0000000000001</ele><time>2026-04-11T13:39:09.937Z</time></trkpt><trkpt lat="44.8455619" lon="9.4038716"><ele>842.0</ele><time>2026-04-11T13:39:10.936Z</time></trkpt><trkpt lat="44.8455632" lon="9.4037561"><ele>841.3333333333334</ele><time>2026-04-11T13:39:11.937Z</time></trkpt><trkpt lat="44.8455661" lon="9.4036366"><ele>840.6666666666667</ele><time>2026-04-11T13:39:12.937Z</time></trkpt><trkpt lat="44.8455696" lon="9.4035212"><ele>840.0</ele><time>2026-04-11T13:39:13.941Z</time></trkpt><trkpt lat="44.8455747" lon="9.4034133"><ele>839.3333333333333</ele><time>2026-04-11T13:39:14.938Z</time></trkpt><trkpt lat="44.8455827" lon="9.4033183"><ele>838.6666666666666</ele><time>2026-04-11T13:39:15.937Z</time></trkpt><trkpt lat="44.8456041" lon="9.4031682"><ele>838.0</ele><time>2026-04-11T13:39:17.937Z</time></trkpt><trkpt lat="44.8456268" lon="9.4030136"><ele>839.2</ele><time>2026-04-11T13:39:19.938Z</time></trkpt><trkpt lat="44.8456422" lon="9.4029254"><ele>840.4</ele><time>2026-04-11T13:39:20.939Z</time></trkpt><trkpt lat="44.8456683" lon="9.4027607"><ele>841.6</ele><time>2026-04-11T13:39:22.938Z</time></trkpt><trkpt lat="44.8456866" lon="9.402606"><ele>842.8000000000001</ele><time>2026-04-11T13:39:24.937Z</time></trkpt><trkpt lat="44.8457141" lon="9.4024569"><ele>844.0</ele><time>2026-04-11T13:39:26.939Z</time></trkpt><trkpt lat="44.8457223" lon="9.4023636"><ele>843.9999999999999</ele><time>2026-04-11T13:39:27.938Z</time></trkpt><trkpt lat="44.8457328" lon="9.4022556"><ele>844.0</ele><time>2026-04-11T13:39:28.937Z</time></trkpt><trkpt lat="44.8457418" lon="9.4021331"><ele>844.0</ele><time>2026-04-11T13:39:29.945Z</time></trkpt><trkpt lat="44.8457382" lon="9.4019988"><ele>844.0</ele><time>2026-04-11T13:39:30.937Z</time></trkpt><trkpt lat="44.8457263" lon="9.40187"><ele>843.9999999999999</ele><time>2026-04-11T13:39:31.936Z</time></trkpt><trkpt lat="44.8457238" lon="9.4017599"><ele>844.0</ele><time>2026-04-11T13:39:32.938Z</time></trkpt><trkpt lat="44.8457356" lon="9.4016627"><ele>845.9999999999999</ele><time>2026-04-11T13:39:33.937Z</time></trkpt><trkpt lat="44.8457482" lon="9.4015608"><ele>848.0</ele><time>2026-04-11T13:39:34.945Z</time></trkpt><trkpt lat="44.8457574" lon="9.4014535"><ele>850.0</ele><time>2026-04-11T13:39:35.937Z</time></trkpt><trkpt lat="44.8457702" lon="9.4013382"><ele>852.0</ele><time>2026-04-11T13:39:36.937Z</time></trkpt><trkpt lat="44.8457848" lon="9.4012275"><ele>853.9999999999999</ele><time>2026-04-11T13:39:37.937Z</time></trkpt><trkpt lat="44.8457959" lon="9.4011205"><ele>856.0</ele><time>2026-04-11T13:39:38.938Z</time></trkpt><trkpt lat="44.8458035" lon="9.4010157"><ele>857.0000000000001</ele><time>2026-04-11T13:39:39.943Z</time></trkpt><trkpt lat="44.8458116" lon="9.4009201"><ele>858.0</ele><time>2026-04-11T13:39:40.938Z</time></trkpt><trkpt lat="44.8458225" lon="9.4008246"><ele>859.0</ele><time>2026-04-11T13:39:41.938Z</time></trkpt><trkpt lat="44.8458326" lon="9.4007302"><ele>860.0</ele><time>2026-04-11T13:39:42.938Z</time></trkpt><trkpt lat="44.8458308" lon="9.4006317"><ele>861.0</ele><time>2026-04-11T13:39:43.937Z</time></trkpt><trkpt lat="44.8458259" lon="9.4005265"><ele>862.0000000000001</ele><time>2026-04-11T13:39:44.937Z</time></trkpt><trkpt lat="44.8458153" lon="9.4004226"><ele>863.0</ele><time>2026-04-11T13:39:45.937Z</time></trkpt><trkpt lat="44.8458001" lon="9.4003201"><ele>863.5714285714287</ele><time>2026-04-11T13:39:46.941Z</time></trkpt><trkpt lat="44.8457867" lon="9.4002184"><ele>864.1428571428571</ele><time>2026-04-11T13:39:47.937Z</time></trkpt><trkpt lat="44.8457753" lon="9.4001114"><ele>864.7142857142858</ele><time>2026-04-11T13:39:48.938Z</time></trkpt><trkpt lat="44.845762" lon="9.4000111"><ele>865.2857142857143</ele><time>2026-04-11T13:39:49.937Z</time></trkpt><trkpt lat="44.8457512" lon="9.3999158"><ele>865.8571428571429</ele><time>2026-04-11T13:39:50.937Z</time></trkpt><trkpt lat="44.8457439" lon="9.3998162"><ele>866.4285714285714</ele><time>2026-04-11T13:39:51.937Z</time></trkpt><trkpt lat="44.8457414" lon="9.3997164"><ele>867.0</ele><time>2026-04-11T13:39:52.938Z</time></trkpt><trkpt lat="44.8457496" lon="9.3996179"><ele>868.1666666666666</ele><time>2026-04-11T13:39:53.937Z</time></trkpt><trkpt lat="44.8457588" lon="9.3995296"><ele>869.3333333333333</ele><time>2026-04-11T13:39:54.937Z</time></trkpt><trkpt lat="44.8458085" lon="9.3993731"><ele>870.5</ele><time>2026-04-11T13:39:56.938Z</time></trkpt><trkpt lat="44.8458282" lon="9.3992804"><ele>871.6666666666666</ele><time>2026-04-11T13:39:57.939Z</time></trkpt><trkpt lat="44.8458368" lon="9.3991856"><ele>872.8333333333333</ele><time>2026-04-11T13:39:58.937Z</time></trkpt><trkpt lat="44.8458408" lon="9.3990829"><ele>874.0</ele><time>2026-04-11T13:39:59.938Z</time></trkpt><trkpt lat="44.8458439" lon="9.3989836"><ele>873.9999999999999</ele><time>2026-04-11T13:40:00.937Z</time></trkpt><trkpt lat="44.8458442" lon="9.3988917"><ele>874.0</ele><time>2026-04-11T13:40:01.937Z</time></trkpt><trkpt lat="44.8458449" lon="9.3988023"><ele>874.0</ele><time>2026-04-11T13:40:02.938Z</time></trkpt><trkpt lat="44.8458176" lon="9.398652"><ele>874.0</ele><time>2026-04-11T13:40:04.937Z</time></trkpt><trkpt lat="44.8457667" lon="9.3985314"><ele>873.9999999999999</ele><time>2026-04-11T13:40:06.937Z</time></trkpt><trkpt lat="44.8457223" lon="9.3984194"><ele>874.0</ele><time>2026-04-11T13:40:08.94Z</time></trkpt><trkpt lat="44.8456739" lon="9.3982837"><ele>874.8000000000001</ele><time>2026-04-11T13:40:10.939Z</time></trkpt><trkpt lat="44.8456162" lon="9.3981568"><ele>875.6000000000001</ele><time>2026-04-11T13:40:12.937Z</time></trkpt><trkpt lat="44.845557" lon="9.3980843"><ele>876.4</ele><time>2026-04-11T13:40:14.938Z</time></trkpt><trkpt lat="44.8454791" lon="9.3980602"><ele>877.2</ele><time>2026-04-11T13:40:16.938Z</time></trkpt><trkpt lat="44.8453741" lon="9.3980054"><ele>878.0</ele><time>2026-04-11T13:40:18.938Z</time></trkpt><trkpt lat="44.8452791" lon="9.3978921"><ele>878.0</ele><time>2026-04-11T13:40:20.94Z</time></trkpt><trkpt lat="44.8452172" lon="9.3977573"><ele>878.0</ele><time>2026-04-11T13:40:22.937Z</time></trkpt><trkpt lat="44.8451634" lon="9.3976333"><ele>878.0</ele><time>2026-04-11T13:40:24.938Z</time></trkpt><trkpt lat="44.8451092" lon="9.3974874"><ele>878.0</ele><time>2026-04-11T13:40:26.941Z</time></trkpt><trkpt lat="44.8450832" lon="9.3974003"><ele>878.0</ele><time>2026-04-11T13:40:27.938Z</time></trkpt><trkpt lat="44.8450618" lon="9.3973092"><ele>876.2</ele><time>2026-04-11T13:40:28.944Z</time></trkpt><trkpt lat="44.8450288" lon="9.3971356"><ele>874.4</ele><time>2026-04-11T13:40:30.937Z</time></trkpt><trkpt lat="44.8450136" lon="9.3970471"><ele>872.6000000000001</ele><time>2026-04-11T13:40:31.938Z</time></trkpt><trkpt lat="44.8449824" lon="9.3969088"><ele>870.8000000000001</ele><time>2026-04-11T13:40:33.937Z</time></trkpt><trkpt lat="44.8449423" lon="9.3968146"><ele>869.0</ele><time>2026-04-11T13:40:35.938Z</time></trkpt><trkpt lat="44.8448851" lon="9.3967242"><ele>869.0000000000001</ele><time>2026-04-11T13:40:37.937Z</time></trkpt><trkpt lat="44.8448054" lon="9.3966532"><ele>869.0</ele><time>2026-04-11T13:40:39.937Z</time></trkpt><trkpt lat="44.8447404" lon="9.3965714"><ele>869.0</ele><time>2026-04-11T13:40:41.938Z</time></trkpt><trkpt lat="44.8446768" lon="9.3964594"><ele>869.0</ele><time>2026-04-11T13:40:43.939Z</time></trkpt><trkpt lat="44.8446326" lon="9.3963883"><ele>869.0000000000001</ele><time>2026-04-11T13:40:44.94Z</time></trkpt><trkpt lat="44.8445859" lon="9.3963127"><ele>869.0</ele><time>2026-04-11T13:40:45.938Z</time></trkpt><trkpt lat="44.8445483" lon="9.3962364"><ele>867.6</ele><time>2026-04-11T13:40:46.937Z</time></trkpt><trkpt lat="44.8445007" lon="9.3960924"><ele>866.2</ele><time>2026-04-11T13:40:48.937Z</time></trkpt><trkpt lat="44.8444255" lon="9.3960088"><ele>864.8000000000001</ele><time>2026-04-11T13:40:50.94Z</time></trkpt><trkpt lat="44.844345" lon="9.395923"><ele>863.4000000000001</ele><time>2026-04-11T13:40:52.938Z</time></trkpt><trkpt lat="44.844281" lon="9.3958364"><ele>862.0</ele><time>2026-04-11T13:40:54.94Z</time></trkpt><trkpt lat="44.8442358" lon="9.3957587"><ele>862.4999999999999</ele><time>2026-04-11T13:40:56.939Z</time></trkpt><trkpt lat="44.8441889" lon="9.3956914"><ele>863.0</ele><time>2026-04-11T13:40:58.942Z</time></trkpt><trkpt lat="44.8441527" lon="9.3956179"><ele>863.5</ele><time>2026-04-11T13:41:02.937Z</time></trkpt><trkpt lat="44.844124" lon="9.3955049"><ele>864.0</ele><time>2026-04-11T13:41:32.937Z</time></trkpt><trkpt lat="44.8440577" lon="9.3954021"><ele>864.4999999999999</ele><time>2026-04-11T13:41:34.941Z</time></trkpt><trkpt lat="44.8440109" lon="9.3952708"><ele>865.0</ele><time>2026-04-11T13:41:36.937Z</time></trkpt><trkpt lat="44.8439858" lon="9.3951813"><ele>864.9999999999999</ele><time>2026-04-11T13:42:25.937Z</time></trkpt><trkpt lat="44.843985" lon="9.395285"><ele>865.0</ele><time>2026-04-11T13:42:47.937Z</time></trkpt><trkpt lat="44.8440433" lon="9.3953767"><ele>865.0</ele><time>2026-04-11T13:42:49.938Z</time></trkpt><trkpt lat="44.8441017" lon="9.3954717"><ele>865.0</ele><time>2026-04-11T13:42:51.937Z</time></trkpt><trkpt lat="44.8441283" lon="9.39556"><ele>864.9999999999999</ele><time>2026-04-11T13:42:53.938Z</time></trkpt><trkpt lat="44.8440183" lon="9.3955383"><ele>865.0</ele><time>2026-04-11T13:43:43.938Z</time></trkpt><trkpt lat="44.8439367" lon="9.3954583"><ele>865.0</ele><time>2026-04-11T13:43:45.938Z</time></trkpt><trkpt lat="44.843865" lon="9.3953717"><ele>865.0</ele><time>2026-04-11T13:43:47.938Z</time></trkpt><trkpt lat="44.8437633" lon="9.3952667"><ele>865.0</ele><time>2026-04-11T13:43:49.939Z</time></trkpt><trkpt lat="44.8436667" lon="9.3951917"><ele>865.0</ele><time>2026-04-11T13:43:51.945Z</time></trkpt><trkpt lat="44.8435933" lon="9.3951183"><ele>865.0</ele><time>2026-04-11T13:43:53.938Z</time></trkpt><trkpt lat="44.84353" lon="9.3950667"><ele>864.9999999999999</ele><time>2026-04-11T13:43:55.939Z</time></trkpt><trkpt lat="44.8434667" lon="9.3950417"><ele>865.0</ele><time>2026-04-11T13:43:57.939Z</time></trkpt><trkpt lat="44.8433967" lon="9.394995"><ele>865.0</ele><time>2026-04-11T13:43:59.938Z</time></trkpt><trkpt lat="44.8433367" lon="9.3949583"><ele>865.0</ele><time>2026-04-11T13:44:01.938Z</time></trkpt><trkpt lat="44.8432517" lon="9.39489"><ele>864.9999999999999</ele><time>2026-04-11T13:44:22.937Z</time></trkpt><trkpt lat="44.84316" lon="9.3948633"><ele>865.0</ele><time>2026-04-11T13:44:24.938Z</time></trkpt><trkpt lat="44.843065" lon="9.3948267"><ele>866.0</ele><time>2026-04-11T13:44:26.939Z</time></trkpt><trkpt lat="44.8429967" lon="9.3947767"><ele>867.0</ele><time>2026-04-11T13:44:28.937Z</time></trkpt><trkpt lat="44.8429" lon="9.394695"><ele>868.0</ele><time>2026-04-11T13:44:35.937Z</time></trkpt><trkpt lat="44.8428133" lon="9.3946217"><ele>869.0</ele><time>2026-04-11T13:44:37.937Z</time></trkpt><trkpt lat="44.84274" lon="9.3945367"><ele>870.0</ele><time>2026-04-11T13:44:39.936Z</time></trkpt><trkpt lat="44.84269" lon="9.3944267"><ele>870.0</ele><time>2026-04-11T13:44:41.937Z</time></trkpt><trkpt lat="44.8426517" lon="9.3943533"><ele>870.0</ele><time>2026-04-11T13:44:43.936Z</time></trkpt><trkpt lat="44.8426" lon="9.39425"><ele>870.0</ele><time>2026-04-11T13:44:45.936Z</time></trkpt><trkpt lat="44.8425233" lon="9.39416"><ele>870.0</ele><time>2026-04-11T13:44:47.937Z</time></trkpt><trkpt lat="44.842445" lon="9.3941117"><ele>870.0</ele><time>2026-04-11T13:44:49.937Z</time></trkpt><trkpt lat="44.8423767" lon="9.3940617"><ele>870.0</ele><time>2026-04-11T13:44:51.937Z</time></trkpt><trkpt lat="44.842325" lon="9.394"><ele>869.2</ele><time>2026-04-11T13:44:53.937Z</time></trkpt><trkpt lat="44.8422633" lon="9.3938917"><ele>868.4</ele><time>2026-04-11T13:47:56.937Z</time></trkpt><trkpt lat="44.8422017" lon="9.3937967"><ele>867.5999999999999</ele><time>2026-04-11T13:47:58.937Z</time></trkpt><trkpt lat="44.8421183" lon="9.39371"><ele>866.8</ele><time>2026-04-11T13:48:00.937Z</time></trkpt><trkpt lat="44.84204" lon="9.39366"><ele>866.0</ele><time>2026-04-11T13:48:02.937Z</time></trkpt><trkpt lat="44.84197" lon="9.3936367"><ele>866.0</ele><time>2026-04-11T13:48:04.943Z</time></trkpt><trkpt lat="44.841905" lon="9.3936"><ele>865.9999999999999</ele><time>2026-04-11T13:48:06.937Z</time></trkpt><trkpt lat="44.8417733" lon="9.39352"><ele>865.9999999999999</ele><time>2026-04-11T13:49:12.937Z</time></trkpt><trkpt lat="44.841705" lon="9.393465"><ele>866.0</ele><time>2026-04-11T13:49:14.939Z</time></trkpt><trkpt lat="44.8416167" lon="9.3934"><ele>866.0</ele><time>2026-04-11T13:49:16.943Z</time></trkpt><trkpt lat="44.84151" lon="9.3933517"><ele>861.1666666666667</ele><time>2026-04-11T13:49:18.938Z</time></trkpt><trkpt lat="44.8414017" lon="9.393305"><ele>856.3333333333334</ele><time>2026-04-11T13:49:20.938Z</time></trkpt><trkpt lat="44.8413367" lon="9.3932833"><ele>851.5</ele><time>2026-04-11T13:49:21.941Z</time></trkpt><trkpt lat="44.84127" lon="9.3932583"><ele>846.6666666666667</ele><time>2026-04-11T13:49:22.938Z</time></trkpt><trkpt lat="44.8412033" lon="9.393225"><ele>841.8333333333334</ele><time>2026-04-11T13:49:24.017Z</time></trkpt><trkpt lat="44.8410967" lon="9.3931633"><ele>837.0</ele><time>2026-04-11T13:49:25.944Z</time></trkpt><trkpt lat="44.8409983" lon="9.39311"><ele>837.8333333333334</ele><time>2026-04-11T13:49:27.938Z</time></trkpt><trkpt lat="44.8409167" lon="9.3930233"><ele>838.6666666666667</ele><time>2026-04-11T13:49:29.939Z</time></trkpt><trkpt lat="44.840845" lon="9.39296"><ele>839.5</ele><time>2026-04-11T13:49:31.939Z</time></trkpt><trkpt lat="44.8407783" lon="9.392895"><ele>840.3333333333334</ele><time>2026-04-11T13:49:33.939Z</time></trkpt><trkpt lat="44.8407167" lon="9.3928267"><ele>841.1666666666667</ele><time>2026-04-11T13:49:35.94Z</time></trkpt><trkpt lat="44.840645" lon="9.3927833"><ele>842.0</ele><time>2026-04-11T13:49:37.939Z</time></trkpt><trkpt lat="44.8405933" lon="9.3927083"><ele>842.0000000000001</ele><time>2026-04-11T13:49:39.938Z</time></trkpt><trkpt lat="44.840525" lon="9.3926283"><ele>842.0</ele><time>2026-04-11T13:49:41.938Z</time></trkpt><trkpt lat="44.8404567" lon="9.3925617"><ele>842.0</ele><time>2026-04-11T13:49:43.938Z</time></trkpt><trkpt lat="44.840385" lon="9.392505"><ele>842.0</ele><time>2026-04-11T13:49:45.939Z</time></trkpt><trkpt lat="44.840325" lon="9.392425"><ele>842.0000000000001</ele><time>2026-04-11T13:49:47.939Z</time></trkpt><trkpt lat="44.8402617" lon="9.3923533"><ele>842.0</ele><time>2026-04-11T13:49:49.939Z</time></trkpt><trkpt lat="44.84017" lon="9.392275"><ele>840.0</ele><time>2026-04-11T13:49:51.937Z</time></trkpt><trkpt lat="44.8400767" lon="9.3921983"><ele>838.0</ele><time>2026-04-11T13:49:53.937Z</time></trkpt><trkpt lat="44.84001" lon="9.3921483"><ele>836.0</ele><time>2026-04-11T13:49:55.942Z</time></trkpt><trkpt lat="44.8399367" lon="9.3920933"><ele>834.0</ele><time>2026-04-11T13:49:57.938Z</time></trkpt><trkpt lat="44.8398633" lon="9.3920533"><ele>832.0</ele><time>2026-04-11T13:49:59.938Z</time></trkpt><trkpt lat="44.839745" lon="9.3919683"><ele>831.9999999999999</ele><time>2026-04-11T13:51:30.937Z</time></trkpt><trkpt lat="44.8396733" lon="9.3919417"><ele>832.0</ele><time>2026-04-11T13:51:32.938Z</time></trkpt><trkpt lat="44.8395633" lon="9.391925"><ele>832.0</ele><time>2026-04-11T13:51:34.943Z</time></trkpt><trkpt lat="44.8394717" lon="9.39188"><ele>832.0</ele><time>2026-04-11T13:51:36.937Z</time></trkpt><trkpt lat="44.8394" lon="9.3918367"><ele>831.9999999999999</ele><time>2026-04-11T13:51:38.938Z</time></trkpt><trkpt lat="44.8393183" lon="9.39182"><ele>832.0</ele><time>2026-04-11T13:51:41.942Z</time></trkpt><trkpt lat="44.83925" lon="9.3918417"><ele>830.0</ele><time>2026-04-11T13:51:43.938Z</time></trkpt><trkpt lat="44.8391767" lon="9.39189"><ele>828.0</ele><time>2026-04-11T13:51:45.937Z</time></trkpt><trkpt lat="44.839115" lon="9.391975"><ele>826.0</ele><time>2026-04-11T13:51:47.937Z</time></trkpt><trkpt lat="44.8390867" lon="9.3920867"><ele>824.0</ele><time>2026-04-11T13:51:50.937Z</time></trkpt><trkpt lat="44.8389983" lon="9.3921117"><ele>822.0</ele><time>2026-04-11T13:52:14.939Z</time></trkpt><trkpt lat="44.83899" lon="9.392275"><ele>817.2857142857142</ele><time>2026-04-11T13:52:16.937Z</time></trkpt><trkpt lat="44.83898" lon="9.392365"><ele>812.5714285714286</ele><time>2026-04-11T13:52:17.939Z</time></trkpt><trkpt lat="44.83897" lon="9.39246"><ele>807.8571428571429</ele><time>2026-04-11T13:52:18.937Z</time></trkpt><trkpt lat="44.8389533" lon="9.3925483"><ele>803.1428571428571</ele><time>2026-04-11T13:52:19.937Z</time></trkpt><trkpt lat="44.8389233" lon="9.3926317"><ele>798.4285714285714</ele><time>2026-04-11T13:52:20.942Z</time></trkpt><trkpt lat="44.8388917" lon="9.3927117"><ele>793.7142857142857</ele><time>2026-04-11T13:52:21.938Z</time></trkpt><trkpt lat="44.83885" lon="9.3927883"><ele>789.0</ele><time>2026-04-11T13:52:22.937Z</time></trkpt><trkpt lat="44.8388117" lon="9.392875"><ele>788.9999999999999</ele><time>2026-04-11T13:52:23.938Z</time></trkpt><trkpt lat="44.8387733" lon="9.3929583"><ele>789.0</ele><time>2026-04-11T13:52:24.938Z</time></trkpt><trkpt lat="44.8387367" lon="9.3930517"><ele>789.0</ele><time>2026-04-11T13:52:25.938Z</time></trkpt><trkpt lat="44.8387033" lon="9.39314"><ele>789.0</ele><time>2026-04-11T13:52:26.937Z</time></trkpt><trkpt lat="44.8386667" lon="9.3932267"><ele>789.0</ele><time>2026-04-11T13:52:28.016Z</time></trkpt><trkpt lat="44.838635" lon="9.3933133"><ele>788.9999999999999</ele><time>2026-04-11T13:52:28.937Z</time></trkpt><trkpt lat="44.8385933" lon="9.3933967"><ele>789.0</ele><time>2026-04-11T13:52:29.938Z</time></trkpt><trkpt lat="44.8385533" lon="9.3934783"><ele>790.5</ele><time>2026-04-11T13:52:30.938Z</time></trkpt><trkpt lat="44.8385183" lon="9.39356"><ele>792.0</ele><time>2026-04-11T13:52:31.938Z</time></trkpt><trkpt lat="44.8384817" lon="9.39365"><ele>793.5</ele><time>2026-04-11T13:52:32.937Z</time></trkpt><trkpt lat="44.8384467" lon="9.3937567"><ele>795.0</ele><time>2026-04-11T13:52:33.937Z</time></trkpt><trkpt lat="44.8383983" lon="9.393815"><ele>796.5</ele><time>2026-04-11T13:52:34.94Z</time></trkpt><trkpt lat="44.8383133" lon="9.393925"><ele>798.0</ele><time>2026-04-11T13:52:36.938Z</time></trkpt><trkpt lat="44.8382433" lon="9.39405"><ele>792.5</ele><time>2026-04-11T13:52:38.938Z</time></trkpt><trkpt lat="44.8381983" lon="9.3941183"><ele>787.0</ele><time>2026-04-11T13:52:39.939Z</time></trkpt><trkpt lat="44.83815" lon="9.39419"><ele>781.5</ele><time>2026-04-11T13:52:40.938Z</time></trkpt><trkpt lat="44.8380983" lon="9.3942583"><ele>776.0</ele><time>2026-04-11T13:52:41.944Z</time></trkpt><trkpt lat="44.8380433" lon="9.3943233"><ele>770.5</ele><time>2026-04-11T13:52:42.936Z</time></trkpt><trkpt lat="44.8379933" lon="9.39438"><ele>765.0</ele><time>2026-04-11T13:52:43.937Z</time></trkpt><trkpt lat="44.8379233" lon="9.3944967"><ele>765.0</ele><time>2026-04-11T13:52:45.937Z</time></trkpt><trkpt lat="44.8378883" lon="9.3946267"><ele>765.0</ele><time>2026-04-11T13:52:47.938Z</time></trkpt><trkpt lat="44.837845" lon="9.3947633"><ele>765.0</ele><time>2026-04-11T13:52:49.938Z</time></trkpt><trkpt lat="44.8378117" lon="9.394885"><ele>765.0</ele><time>2026-04-11T13:52:51.939Z</time></trkpt><trkpt lat="44.837785" lon="9.3949833"><ele>765.0</ele><time>2026-04-11T13:52:53.944Z</time></trkpt><trkpt lat="44.8376867" lon="9.3951117"><ele>764.0</ele><time>2026-04-11T13:53:17.938Z</time></trkpt><trkpt lat="44.837695" lon="9.3952183"><ele>763.0</ele><time>2026-04-11T13:53:19.941Z</time></trkpt><trkpt lat="44.8376717" lon="9.3953617"><ele>762.0</ele><time>2026-04-11T13:53:21.94Z</time></trkpt><trkpt lat="44.83763" lon="9.395475"><ele>761.0</ele><time>2026-04-11T13:53:23.938Z</time></trkpt><trkpt lat="44.83759" lon="9.3955467"><ele>760.0</ele><time>2026-04-11T13:53:24.937Z</time></trkpt><trkpt lat="44.83755" lon="9.395625"><ele>759.0</ele><time>2026-04-11T13:53:25.937Z</time></trkpt><trkpt lat="44.8375067" lon="9.3957133"><ele>759.0</ele><time>2026-04-11T13:53:26.94Z</time></trkpt><trkpt lat="44.8374633" lon="9.3957967"><ele>759.0</ele><time>2026-04-11T13:53:27.937Z</time></trkpt><trkpt lat="44.83743" lon="9.395885"><ele>759.0</ele><time>2026-04-11T13:53:28.938Z</time></trkpt><trkpt lat="44.8373967" lon="9.39597"><ele>759.0</ele><time>2026-04-11T13:53:29.937Z</time></trkpt><trkpt lat="44.8373533" lon="9.39605"><ele>759.0</ele><time>2026-04-11T13:53:30.937Z</time></trkpt><trkpt lat="44.8373183" lon="9.396135"><ele>759.0</ele><time>2026-04-11T13:53:31.937Z</time></trkpt><trkpt lat="44.8372767" lon="9.39622"><ele>759.0</ele><time>2026-04-11T13:53:32.937Z</time></trkpt><trkpt lat="44.83724" lon="9.3963017"><ele>751.8000000000001</ele><time>2026-04-11T13:53:33.941Z</time></trkpt><trkpt lat="44.8371967" lon="9.396425"><ele>744.6</ele><time>2026-04-11T13:53:35.939Z</time></trkpt><trkpt lat="44.8371733" lon="9.39653"><ele>737.4</ele><time>2026-04-11T13:53:38.94Z</time></trkpt><trkpt lat="44.837055" lon="9.3965233"><ele>730.2</ele><time>2026-04-11T13:54:26.937Z</time></trkpt><trkpt lat="44.8370267" lon="9.3966217"><ele>723.0</ele><time>2026-04-11T13:54:28.939Z</time></trkpt><trkpt lat="44.8369683" lon="9.3967683"><ele>723.0</ele><time>2026-04-11T13:54:30.939Z</time></trkpt><trkpt lat="44.8368933" lon="9.3968983"><ele>723.0</ele><time>2026-04-11T13:54:32.941Z</time></trkpt><trkpt lat="44.8368433" lon="9.3969667"><ele>723.0</ele><time>2026-04-11T13:54:33.938Z</time></trkpt><trkpt lat="44.8367883" lon="9.397045"><ele>723.0</ele><time>2026-04-11T13:54:34.939Z</time></trkpt><trkpt lat="44.8367333" lon="9.397125"><ele>723.0</ele><time>2026-04-11T13:54:35.939Z</time></trkpt><trkpt lat="44.8366833" lon="9.3972067"><ele>723.0</ele><time>2026-04-11T13:54:36.939Z</time></trkpt><trkpt lat="44.83663" lon="9.3972817"><ele>725.5999999999999</ele><time>2026-04-11T13:54:37.938Z</time></trkpt><trkpt lat="44.8365783" lon="9.397345"><ele>728.1999999999999</ele><time>2026-04-11T13:54:38.942Z</time></trkpt><trkpt lat="44.836525" lon="9.3974"><ele>730.8</ele><time>2026-04-11T13:54:39.939Z</time></trkpt><trkpt lat="44.836435" lon="9.3975033"><ele>733.4</ele><time>2026-04-11T13:54:41.941Z</time></trkpt><trkpt lat="44.8363483" lon="9.397615"><ele>736.0</ele><time>2026-04-11T13:54:43.938Z</time></trkpt><trkpt lat="44.8362633" lon="9.3977383"><ele>736.0</ele><time>2026-04-11T13:54:45.938Z</time></trkpt><trkpt lat="44.8362167" lon="9.397805"><ele>736.0</ele><time>2026-04-11T13:54:46.937Z</time></trkpt><trkpt lat="44.83616" lon="9.39787"><ele>736.0</ele><time>2026-04-11T13:54:47.939Z</time></trkpt><trkpt lat="44.8361067" lon="9.3979333"><ele>736.0</ele><time>2026-04-11T13:54:48.938Z</time></trkpt><trkpt lat="44.83606" lon="9.3979983"><ele>736.0</ele><time>2026-04-11T13:54:49.937Z</time></trkpt><trkpt lat="44.8359917" lon="9.39808"><ele>736.0</ele><time>2026-04-11T13:54:51.937Z</time></trkpt><trkpt lat="44.8359067" lon="9.3981133"><ele>735.3333333333334</ele><time>2026-04-11T13:54:53.937Z</time></trkpt><trkpt lat="44.8358367" lon="9.3981283"><ele>734.6666666666667</ele><time>2026-04-11T13:54:55.943Z</time></trkpt><trkpt lat="44.8357517" lon="9.3981367"><ele>734.0</ele><time>2026-04-11T13:54:58.938Z</time></trkpt><trkpt lat="44.83569" lon="9.39808"><ele>733.3333333333334</ele><time>2026-04-11T13:55:01.938Z</time></trkpt><trkpt lat="44.8356067" lon="9.3979383"><ele>732.6666666666666</ele><time>2026-04-11T13:55:19.937Z</time></trkpt><trkpt lat="44.8355583" lon="9.397835"><ele>732.0</ele><time>2026-04-11T13:55:21.937Z</time></trkpt><trkpt lat="44.835505" lon="9.3977233"><ele>735.6</ele><time>2026-04-11T13:55:23.94Z</time></trkpt><trkpt lat="44.8354817" lon="9.3976317"><ele>739.2</ele><time>2026-04-11T13:55:25.937Z</time></trkpt><trkpt lat="44.8354383" lon="9.397475"><ele>742.8</ele><time>2026-04-11T13:55:36.94Z</time></trkpt><trkpt lat="44.8353817" lon="9.39735"><ele>746.4</ele><time>2026-04-11T13:55:38.938Z</time></trkpt><trkpt lat="44.8353167" lon="9.3972317"><ele>750.0</ele><time>2026-04-11T13:55:40.937Z</time></trkpt><trkpt lat="44.8352683" lon="9.3971017"><ele>748.0</ele><time>2026-04-11T13:55:42.937Z</time></trkpt><trkpt lat="44.8352433" lon="9.3969717"><ele>746.0</ele><time>2026-04-11T13:55:44.937Z</time></trkpt><trkpt lat="44.835195" lon="9.3968467"><ele>744.0</ele><time>2026-04-11T13:55:46.937Z</time></trkpt><trkpt lat="44.8351217" lon="9.396745"><ele>742.0</ele><time>2026-04-11T13:55:48.937Z</time></trkpt><trkpt lat="44.835075" lon="9.396635"><ele>740.0</ele><time>2026-04-11T13:55:50.937Z</time></trkpt><trkpt lat="44.8350183" lon="9.3965267"><ele>740.0</ele><time>2026-04-11T13:55:52.939Z</time></trkpt><trkpt lat="44.8349633" lon="9.39641"><ele>740.0</ele><time>2026-04-11T13:55:54.94Z</time></trkpt><trkpt lat="44.83492" lon="9.3963233"><ele>740.0</ele><time>2026-04-11T13:55:56.939Z</time></trkpt><trkpt lat="44.83487" lon="9.3962467"><ele>740.0</ele><time>2026-04-11T13:55:58.939Z</time></trkpt><trkpt lat="44.8347867" lon="9.3961983"><ele>740.0</ele><time>2026-04-11T13:56:01.936Z</time></trkpt><trkpt lat="44.834705" lon="9.396235"><ele>740.0</ele><time>2026-04-11T13:56:03.937Z</time></trkpt><trkpt lat="44.8346233" lon="9.3962833"><ele>740.0</ele><time>2026-04-11T13:56:05.941Z</time></trkpt><trkpt lat="44.8345517" lon="9.3963517"><ele>740.0</ele><time>2026-04-11T13:56:07.937Z</time></trkpt><trkpt lat="44.834505" lon="9.396435"><ele>740.0</ele><time>2026-04-11T13:56:09.936Z</time></trkpt><trkpt lat="44.8344267" lon="9.396455"><ele>740.0</ele><time>2026-04-11T13:56:22.937Z</time></trkpt><trkpt lat="44.8343083" lon="9.3964933"><ele>740.0</ele><time>2026-04-11T13:56:24.937Z</time></trkpt><trkpt lat="44.8341867" lon="9.3965217"><ele>739.0</ele><time>2026-04-11T13:56:26.936Z</time></trkpt><trkpt lat="44.8340617" lon="9.39655"><ele>738.0</ele><time>2026-04-11T13:56:28.938Z</time></trkpt><trkpt lat="44.8339483" lon="9.3965633"><ele>737.0</ele><time>2026-04-11T13:56:30.936Z</time></trkpt><trkpt lat="44.8338467" lon="9.396615"><ele>736.0</ele><time>2026-04-11T13:56:32.944Z</time></trkpt><trkpt lat="44.833775" lon="9.3966833"><ele>735.0</ele><time>2026-04-11T13:56:34.936Z</time></trkpt><trkpt lat="44.8336883" lon="9.3967917"><ele>735.0</ele><time>2026-04-11T13:56:36.936Z</time></trkpt><trkpt lat="44.8336317" lon="9.396845"><ele>735.0</ele><time>2026-04-11T13:56:37.938Z</time></trkpt><trkpt lat="44.8335783" lon="9.396895"><ele>735.0</ele><time>2026-04-11T13:56:38.937Z</time></trkpt><trkpt lat="44.8334867" lon="9.39698"><ele>735.0</ele><time>2026-04-11T13:56:40.937Z</time></trkpt><trkpt lat="44.8333883" lon="9.3970433"><ele>735.0</ele><time>2026-04-11T13:56:42.937Z</time></trkpt><trkpt lat="44.8333083" lon="9.3971483"><ele>729.0</ele><time>2026-04-11T13:56:44.937Z</time></trkpt><trkpt lat="44.83322" lon="9.3972417"><ele>723.0</ele><time>2026-04-11T13:56:46.938Z</time></trkpt><trkpt lat="44.833125" lon="9.3973033"><ele>717.0</ele><time>2026-04-11T13:56:48.939Z</time></trkpt><trkpt lat="44.8330117" lon="9.397375"><ele>711.0</ele><time>2026-04-11T13:56:50.942Z</time></trkpt><trkpt lat="44.8328967" lon="9.397405"><ele>711.0</ele><time>2026-04-11T13:56:52.937Z</time></trkpt><trkpt lat="44.8328" lon="9.3974017"><ele>711.0</ele><time>2026-04-11T13:56:54.936Z</time></trkpt><trkpt lat="44.832735" lon="9.3973767"><ele>711.0</ele><time>2026-04-11T13:56:56.937Z</time></trkpt><trkpt lat="44.8326717" lon="9.3972933"><ele>711.0</ele><time>2026-04-11T13:57:24.937Z</time></trkpt><trkpt lat="44.832615" lon="9.39721"><ele>711.0</ele><time>2026-04-11T13:57:26.938Z</time></trkpt><trkpt lat="44.8325717" lon="9.3971367"><ele>711.0</ele><time>2026-04-11T13:57:28.936Z</time></trkpt><trkpt lat="44.83251" lon="9.3970733"><ele>713.0</ele><time>2026-04-11T13:57:30.937Z</time></trkpt><trkpt lat="44.8324483" lon="9.3969983"><ele>715.0</ele><time>2026-04-11T13:57:32.937Z</time></trkpt><trkpt lat="44.8323753" lon="9.3969195"><ele>717.0</ele><time>2026-04-11T13:57:35.014Z</time></trkpt><trkpt lat="44.8322502" lon="9.3969172"><ele>719.0</ele><time>2026-04-11T13:57:36.952Z</time></trkpt><trkpt lat="44.8321873" lon="9.3969026"><ele>721.0</ele><time>2026-04-11T13:57:37.939Z</time></trkpt><trkpt lat="44.8321255" lon="9.3968597"><ele>723.0</ele><time>2026-04-11T13:57:38.966Z</time></trkpt><trkpt lat="44.8320782" lon="9.3967905"><ele>723.0</ele><time>2026-04-11T13:57:39.912Z</time></trkpt><trkpt lat="44.8320464" lon="9.3966734"><ele>723.0</ele><time>2026-04-11T13:57:40.936Z</time></trkpt><trkpt lat="44.8320356" lon="9.3965169"><ele>723.0</ele><time>2026-04-11T13:57:42.94Z</time></trkpt><trkpt lat="44.8320321" lon="9.3963687"><ele>723.0</ele><time>2026-04-11T13:57:44.937Z</time></trkpt><trkpt lat="44.8320258" lon="9.3962698"><ele>723.0</ele><time>2026-04-11T13:57:46.937Z</time></trkpt><trkpt lat="44.8319964" lon="9.3961776"><ele>723.0</ele><time>2026-04-11T13:58:10.936Z</time></trkpt><trkpt lat="44.8319632" lon="9.3960705"><ele>722.8333333333334</ele><time>2026-04-11T13:58:12.937Z</time></trkpt><trkpt lat="44.831925" lon="9.3959147"><ele>722.6666666666666</ele><time>2026-04-11T13:58:14.937Z</time></trkpt><trkpt lat="44.8319057" lon="9.3957818"><ele>722.5</ele><time>2026-04-11T13:58:16.937Z</time></trkpt><trkpt lat="44.8319033" lon="9.3956817"><ele>722.3333333333333</ele><time>2026-04-11T13:58:18.937Z</time></trkpt><trkpt lat="44.8319" lon="9.3955717"><ele>722.1666666666666</ele><time>2026-04-11T13:58:21.942Z</time></trkpt><trkpt lat="44.8318617" lon="9.3954667"><ele>722.0</ele><time>2026-04-11T13:58:24.936Z</time></trkpt><trkpt lat="44.8318417" lon="9.395365"><ele>722.0</ele><time>2026-04-11T13:58:27.937Z</time></trkpt><trkpt lat="44.8318933" lon="9.3952767"><ele>722.0</ele><time>2026-04-11T14:00:50.937Z</time></trkpt><trkpt lat="44.8319433" lon="9.395195"><ele>722.0</ele><time>2026-04-11T14:00:52.938Z</time></trkpt><trkpt lat="44.8320367" lon="9.39507"><ele>722.0</ele><time>2026-04-11T14:00:54.938Z</time></trkpt><trkpt lat="44.8320817" lon="9.3949833"><ele>722.0</ele><time>2026-04-11T14:00:55.938Z</time></trkpt><trkpt lat="44.83212" lon="9.394905"><ele>722.0</ele><time>2026-04-11T14:00:56.946Z</time></trkpt><trkpt lat="44.832175" lon="9.3947617"><ele>722.0</ele><time>2026-04-11T14:00:58.937Z</time></trkpt><trkpt lat="44.8321967" lon="9.3946783"><ele>722.0</ele><time>2026-04-11T14:00:59.938Z</time></trkpt><trkpt lat="44.832215" lon="9.3945833"><ele>722.0</ele><time>2026-04-11T14:01:00.938Z</time></trkpt><trkpt lat="44.8322183" lon="9.3944733"><ele>722.0</ele><time>2026-04-11T14:01:01.937Z</time></trkpt><trkpt lat="44.832215" lon="9.3943633"><ele>722.0</ele><time>2026-04-11T14:01:02.939Z</time></trkpt><trkpt lat="44.83221" lon="9.3942717"><ele>722.0</ele><time>2026-04-11T14:01:03.937Z</time></trkpt><trkpt lat="44.8321983" lon="9.39414"><ele>722.0</ele><time>2026-04-11T14:01:05.937Z</time></trkpt><trkpt lat="44.83217" lon="9.39399"><ele>722.0</ele><time>2026-04-11T14:01:18.939Z</time></trkpt><trkpt lat="44.8321433" lon="9.3938767"><ele>722.0</ele><time>2026-04-11T14:01:19.938Z</time></trkpt><trkpt lat="44.8321183" lon="9.3937617"><ele>722.0</ele><time>2026-04-11T14:01:20.939Z</time></trkpt><trkpt lat="44.8320783" lon="9.3936417"><ele>722.0</ele><time>2026-04-11T14:01:21.937Z</time></trkpt><trkpt lat="44.832025" lon="9.393535"><ele>722.0</ele><time>2026-04-11T14:01:22.937Z</time></trkpt><trkpt lat="44.8319717" lon="9.3934267"><ele>723.1666666666666</ele><time>2026-04-11T14:01:23.94Z</time></trkpt><trkpt lat="44.8319167" lon="9.39332"><ele>724.3333333333333</ele><time>2026-04-11T14:01:24.939Z</time></trkpt><trkpt lat="44.83186" lon="9.3932183"><ele>725.5</ele><time>2026-04-11T14:01:25.937Z</time></trkpt><trkpt lat="44.8318033" lon="9.39312"><ele>726.6666666666666</ele><time>2026-04-11T14:01:26.938Z</time></trkpt><trkpt lat="44.8317467" lon="9.39303"><ele>727.8333333333334</ele><time>2026-04-11T14:01:27.938Z</time></trkpt><trkpt lat="44.8316983" lon="9.3929333"><ele>729.0</ele><time>2026-04-11T14:01:28.938Z</time></trkpt><trkpt lat="44.8316667" lon="9.3928233"><ele>723.8000000000001</ele><time>2026-04-11T14:01:29.94Z</time></trkpt><trkpt lat="44.831645" lon="9.3927017"><ele>718.6</ele><time>2026-04-11T14:01:30.939Z</time></trkpt><trkpt lat="44.8316233" lon="9.392575"><ele>713.4</ele><time>2026-04-11T14:01:31.939Z</time></trkpt><trkpt lat="44.8315933" lon="9.3924517"><ele>708.2</ele><time>2026-04-11T14:01:32.942Z</time></trkpt><trkpt lat="44.8315517" lon="9.3923233"><ele>703.0</ele><time>2026-04-11T14:01:33.937Z</time></trkpt><trkpt lat="44.8315017" lon="9.3922067"><ele>703.0</ele><time>2026-04-11T14:01:34.938Z</time></trkpt><trkpt lat="44.8314533" lon="9.3921083"><ele>703.0</ele><time>2026-04-11T14:01:35.937Z</time></trkpt><trkpt lat="44.8314033" lon="9.3920317"><ele>703.0</ele><time>2026-04-11T14:01:36.937Z</time></trkpt><trkpt lat="44.8313517" lon="9.3919783"><ele>703.0</ele><time>2026-04-11T14:01:37.937Z</time></trkpt><trkpt lat="44.8312617" lon="9.3920017"><ele>703.0</ele><time>2026-04-11T14:01:39.937Z</time></trkpt><trkpt lat="44.83124" lon="9.39216"><ele>703.0</ele><time>2026-04-11T14:01:41.944Z</time></trkpt><trkpt lat="44.831255" lon="9.392285"><ele>703.0</ele><time>2026-04-11T14:01:42.937Z</time></trkpt><trkpt lat="44.831275" lon="9.3924383"><ele>703.0</ele><time>2026-04-11T14:01:43.938Z</time></trkpt><trkpt lat="44.8312883" lon="9.3925917"><ele>703.0</ele><time>2026-04-11T14:01:44.938Z</time></trkpt><trkpt lat="44.8313017" lon="9.392745"><ele>703.0</ele><time>2026-04-11T14:01:45.938Z</time></trkpt><trkpt lat="44.8313133" lon="9.392905"><ele>703.0</ele><time>2026-04-11T14:01:46.937Z</time></trkpt><trkpt lat="44.83132" lon="9.3930667"><ele>700.75</ele><time>2026-04-11T14:01:47.938Z</time></trkpt><trkpt lat="44.83133" lon="9.39323"><ele>698.5</ele><time>2026-04-11T14:01:48.938Z</time></trkpt><trkpt lat="44.83134" lon="9.3933967"><ele>696.25</ele><time>2026-04-11T14:01:49.937Z</time></trkpt><trkpt lat="44.8313567" lon="9.3935617"><ele>694.0</ele><time>2026-04-11T14:01:50.938Z</time></trkpt><trkpt lat="44.8313733" lon="9.393725"><ele>692.6</ele><time>2026-04-11T14:01:51.937Z</time></trkpt><trkpt lat="44.8313767" lon="9.3938833"><ele>691.2</ele><time>2026-04-11T14:01:52.943Z</time></trkpt><trkpt lat="44.831365" lon="9.3940333"><ele>689.8000000000001</ele><time>2026-04-11T14:01:53.938Z</time></trkpt><trkpt lat="44.831345" lon="9.3941733"><ele>688.4000000000001</ele><time>2026-04-11T14:01:54.938Z</time></trkpt><trkpt lat="44.8313233" lon="9.3943133"><ele>687.0</ele><time>2026-04-11T14:01:55.937Z</time></trkpt><trkpt lat="44.8313033" lon="9.3944533"><ele>687.0</ele><time>2026-04-11T14:01:56.938Z</time></trkpt><trkpt lat="44.8312917" lon="9.3945967"><ele>687.0</ele><time>2026-04-11T14:01:57.937Z</time></trkpt><trkpt lat="44.8312867" lon="9.3947383"><ele>687.0</ele><time>2026-04-11T14:01:58.938Z</time></trkpt><trkpt lat="44.8312817" lon="9.3948867"><ele>687.0</ele><time>2026-04-11T14:01:59.944Z</time></trkpt><trkpt lat="44.8312767" lon="9.3950367"><ele>687.0</ele><time>2026-04-11T14:02:00.938Z</time></trkpt><trkpt lat="44.8312667" lon="9.3951883"><ele>687.0</ele><time>2026-04-11T14:02:01.937Z</time></trkpt><trkpt lat="44.8312433" lon="9.3953417"><ele>687.0</ele><time>2026-04-11T14:02:02.941Z</time></trkpt><trkpt lat="44.8312083" lon="9.3954967"><ele>687.0</ele><time>2026-04-11T14:02:03.938Z</time></trkpt><trkpt lat="44.8311617" lon="9.3956433"><ele>687.0</ele><time>2026-04-11T14:02:04.939Z</time></trkpt><trkpt lat="44.8311033" lon="9.3957833"><ele>687.5</ele><time>2026-04-11T14:02:05.938Z</time></trkpt><trkpt lat="44.83104" lon="9.3959117"><ele>688.0</ele><time>2026-04-11T14:02:06.943Z</time></trkpt><trkpt lat="44.8309817" lon="9.39606"><ele>688.5</ele><time>2026-04-11T14:02:07.94Z</time></trkpt><trkpt lat="44.8309367" lon="9.39624"><ele>689.0</ele><time>2026-04-11T14:02:08.938Z</time></trkpt><trkpt lat="44.830905" lon="9.3964267"><ele>680.5</ele><time>2026-04-11T14:02:09.938Z</time></trkpt><trkpt lat="44.8308783" lon="9.3966167"><ele>672.0</ele><time>2026-04-11T14:02:10.938Z</time></trkpt><trkpt lat="44.830855" lon="9.3968017"><ele>663.5</ele><time>2026-04-11T14:02:11.94Z</time></trkpt><trkpt lat="44.8308317" lon="9.3969817"><ele>655.0</ele><time>2026-04-11T14:02:12.937Z</time></trkpt><trkpt lat="44.83082" lon="9.3971583"><ele>653.5</ele><time>2026-04-11T14:02:13.938Z</time></trkpt><trkpt lat="44.8308167" lon="9.3973383"><ele>652.0</ele><time>2026-04-11T14:02:14.938Z</time></trkpt><trkpt lat="44.83082" lon="9.3975083"><ele>650.5</ele><time>2026-04-11T14:02:15.937Z</time></trkpt><trkpt lat="44.8308383" lon="9.3976683"><ele>649.0</ele><time>2026-04-11T14:02:16.939Z</time></trkpt><trkpt lat="44.8308817" lon="9.3978117"><ele>649.0</ele><time>2026-04-11T14:02:17.936Z</time></trkpt><trkpt lat="44.8309383" lon="9.397945"><ele>649.0</ele><time>2026-04-11T14:02:18.938Z</time></trkpt><trkpt lat="44.8309967" lon="9.39808"><ele>649.0</ele><time>2026-04-11T14:02:19.936Z</time></trkpt><trkpt lat="44.8310433" lon="9.39823"><ele>649.0</ele><time>2026-04-11T14:02:20.938Z</time></trkpt><trkpt lat="44.8310833" lon="9.39839"><ele>650.5</ele><time>2026-04-11T14:02:21.936Z</time></trkpt><trkpt lat="44.831135" lon="9.3985567"><ele>652.0</ele><time>2026-04-11T14:02:22.936Z</time></trkpt><trkpt lat="44.8311933" lon="9.3987233"><ele>653.5</ele><time>2026-04-11T14:02:23.936Z</time></trkpt><trkpt lat="44.8312567" lon="9.3988817"><ele>655.0</ele><time>2026-04-11T14:02:24.938Z</time></trkpt><trkpt lat="44.8313083" lon="9.3990417"><ele>655.0</ele><time>2026-04-11T14:02:25.936Z</time></trkpt><trkpt lat="44.83134" lon="9.3992083"><ele>655.0</ele><time>2026-04-11T14:02:26.936Z</time></trkpt><trkpt lat="44.8313383" lon="9.3993767"><ele>655.0</ele><time>2026-04-11T14:02:27.94Z</time></trkpt><trkpt lat="44.83132" lon="9.3995567"><ele>655.0</ele><time>2026-04-11T14:02:28.936Z</time></trkpt><trkpt lat="44.8312967" lon="9.3997367"><ele>652.5</ele><time>2026-04-11T14:02:29.937Z</time></trkpt><trkpt lat="44.8312867" lon="9.39992"><ele>650.0</ele><time>2026-04-11T14:02:30.937Z</time></trkpt><trkpt lat="44.831295" lon="9.4001083"><ele>647.5</ele><time>2026-04-11T14:02:31.938Z</time></trkpt><trkpt lat="44.8313117" lon="9.4002983"><ele>645.0</ele><time>2026-04-11T14:02:32.938Z</time></trkpt><trkpt lat="44.8313333" lon="9.4004817"><ele>642.5</ele><time>2026-04-11T14:02:33.943Z</time></trkpt><trkpt lat="44.8313517" lon="9.4006533"><ele>640.0</ele><time>2026-04-11T14:02:34.936Z</time></trkpt><trkpt lat="44.8313717" lon="9.4008117"><ele>637.5</ele><time>2026-04-11T14:02:35.936Z</time></trkpt><trkpt lat="44.83139" lon="9.4009617"><ele>635.0</ele><time>2026-04-11T14:02:36.937Z</time></trkpt><trkpt lat="44.8314067" lon="9.4011083"><ele>635.0</ele><time>2026-04-11T14:02:37.938Z</time></trkpt><trkpt lat="44.8314183" lon="9.4012567"><ele>635.0</ele><time>2026-04-11T14:02:38.938Z</time></trkpt><trkpt lat="44.8314267" lon="9.4014"><ele>635.0</ele><time>2026-04-11T14:02:39.938Z</time></trkpt><trkpt lat="44.831435" lon="9.401535"><ele>635.0</ele><time>2026-04-11T14:02:40.937Z</time></trkpt><trkpt lat="44.8314483" lon="9.4016583"><ele>635.0</ele><time>2026-04-11T14:02:41.937Z</time></trkpt><trkpt lat="44.831485" lon="9.4017667"><ele>633.1666666666666</ele><time>2026-04-11T14:02:42.937Z</time></trkpt><trkpt lat="44.831535" lon="9.401855"><ele>631.3333333333333</ele><time>2026-04-11T14:02:43.937Z</time></trkpt><trkpt lat="44.8315983" lon="9.4019167"><ele>629.5</ele><time>2026-04-11T14:02:44.937Z</time></trkpt><trkpt lat="44.8316733" lon="9.4019467"><ele>627.6666666666666</ele><time>2026-04-11T14:02:45.941Z</time></trkpt><trkpt lat="44.831775" lon="9.4019617"><ele>625.8333333333334</ele><time>2026-04-11T14:02:46.936Z</time></trkpt><trkpt lat="44.8318817" lon="9.4019717"><ele>624.0</ele><time>2026-04-11T14:02:47.936Z</time></trkpt><trkpt lat="44.831985" lon="9.4019717"><ele>621.8333333333334</ele><time>2026-04-11T14:02:48.937Z</time></trkpt><trkpt lat="44.832075" lon="9.4019833"><ele>619.6666666666666</ele><time>2026-04-11T14:02:49.936Z</time></trkpt><trkpt lat="44.8321433" lon="9.4020133"><ele>617.5</ele><time>2026-04-11T14:02:50.938Z</time></trkpt><trkpt lat="44.8322133" lon="9.4021433"><ele>615.3333333333333</ele><time>2026-04-11T14:02:52.937Z</time></trkpt><trkpt lat="44.832215" lon="9.4022417"><ele>613.1666666666666</ele><time>2026-04-11T14:02:53.937Z</time></trkpt><trkpt lat="44.83219" lon="9.40238"><ele>611.0</ele><time>2026-04-11T14:02:54.937Z</time></trkpt><trkpt lat="44.8321667" lon="9.4025283"><ele>609.2</ele><time>2026-04-11T14:02:55.937Z</time></trkpt><trkpt lat="44.8321483" lon="9.40267"><ele>607.4000000000001</ele><time>2026-04-11T14:02:56.938Z</time></trkpt><trkpt lat="44.8321333" lon="9.4028083"><ele>605.6</ele><time>2026-04-11T14:02:57.936Z</time></trkpt><trkpt lat="44.8321133" lon="9.4029433"><ele>603.8000000000001</ele><time>2026-04-11T14:02:58.939Z</time></trkpt><trkpt lat="44.832085" lon="9.4030733"><ele>602.0</ele><time>2026-04-11T14:02:59.936Z</time></trkpt><trkpt lat="44.8320467" lon="9.4031933"><ele>601.8000000000001</ele><time>2026-04-11T14:03:00.936Z</time></trkpt><trkpt lat="44.8319967" lon="9.403305"><ele>601.6</ele><time>2026-04-11T14:03:01.937Z</time></trkpt><trkpt lat="44.831935" lon="9.403405"><ele>601.4000000000001</ele><time>2026-04-11T14:03:02.937Z</time></trkpt><trkpt lat="44.83187" lon="9.4034933"><ele>601.2</ele><time>2026-04-11T14:03:03.937Z</time></trkpt><trkpt lat="44.8317967" lon="9.4035617"><ele>601.0</ele><time>2026-04-11T14:03:04.936Z</time></trkpt><trkpt lat="44.8317117" lon="9.4035933"><ele>601.0</ele><time>2026-04-11T14:03:05.938Z</time></trkpt><trkpt lat="44.831625" lon="9.4035967"><ele>601.0</ele><time>2026-04-11T14:03:06.939Z</time></trkpt><trkpt lat="44.831545" lon="9.40358"><ele>601.0</ele><time>2026-04-11T14:03:07.936Z</time></trkpt><trkpt lat="44.831475" lon="9.403535"><ele>601.0</ele><time>2026-04-11T14:03:08.937Z</time></trkpt><trkpt lat="44.8314217" lon="9.40346"><ele>601.0</ele><time>2026-04-11T14:03:09.937Z</time></trkpt><trkpt lat="44.83138" lon="9.4033683"><ele>601.0</ele><time>2026-04-11T14:03:10.937Z</time></trkpt><trkpt lat="44.8313383" lon="9.4032533"><ele>601.0</ele><time>2026-04-11T14:03:11.937Z</time></trkpt><trkpt lat="44.8312867" lon="9.403125"><ele>601.0</ele><time>2026-04-11T14:03:12.937Z</time></trkpt><trkpt lat="44.8312267" lon="9.4029933"><ele>601.0</ele><time>2026-04-11T14:03:13.938Z</time></trkpt><trkpt lat="44.8311667" lon="9.4028583"><ele>601.0</ele><time>2026-04-11T14:03:14.938Z</time></trkpt><trkpt lat="44.8311083" lon="9.4027283"><ele>601.0</ele><time>2026-04-11T14:03:15.938Z</time></trkpt><trkpt lat="44.8310517" lon="9.4026017"><ele>600.6</ele><time>2026-04-11T14:03:16.938Z</time></trkpt><trkpt lat="44.830995" lon="9.4024683"><ele>600.2</ele><time>2026-04-11T14:03:17.939Z</time></trkpt><trkpt lat="44.8309433" lon="9.4023367"><ele>599.8</ele><time>2026-04-11T14:03:18.939Z</time></trkpt><trkpt lat="44.8308983" lon="9.4022117"><ele>599.4</ele><time>2026-04-11T14:03:19.939Z</time></trkpt><trkpt lat="44.8308533" lon="9.40208"><ele>599.0</ele><time>2026-04-11T14:03:20.939Z</time></trkpt><trkpt lat="44.8308117" lon="9.4019483"><ele>599.0</ele><time>2026-04-11T14:03:21.939Z</time></trkpt><trkpt lat="44.8307717" lon="9.4018233"><ele>599.0</ele><time>2026-04-11T14:03:22.938Z</time></trkpt><trkpt lat="44.830725" lon="9.4017033"><ele>599.0</ele><time>2026-04-11T14:03:23.939Z</time></trkpt><trkpt lat="44.8306733" lon="9.4015833"><ele>599.0</ele><time>2026-04-11T14:03:24.939Z</time></trkpt><trkpt lat="44.8306183" lon="9.4014567"><ele>599.0</ele><time>2026-04-11T14:03:25.938Z</time></trkpt><trkpt lat="44.8305583" lon="9.401335"><ele>601.2</ele><time>2026-04-11T14:03:26.939Z</time></trkpt><trkpt lat="44.83049" lon="9.401225"><ele>603.4</ele><time>2026-04-11T14:03:27.938Z</time></trkpt><trkpt lat="44.830415" lon="9.4011283"><ele>605.6</ele><time>2026-04-11T14:03:28.94Z</time></trkpt><trkpt lat="44.8303417" lon="9.40103"><ele>607.8</ele><time>2026-04-11T14:03:29.938Z</time></trkpt><trkpt lat="44.8302833" lon="9.4009167"><ele>610.0</ele><time>2026-04-11T14:03:30.938Z</time></trkpt><trkpt lat="44.83024" lon="9.4007883"><ele>610.0</ele><time>2026-04-11T14:03:31.938Z</time></trkpt><trkpt lat="44.8302083" lon="9.4006383"><ele>610.0</ele><time>2026-04-11T14:03:32.938Z</time></trkpt><trkpt lat="44.8301817" lon="9.4004767"><ele>610.0</ele><time>2026-04-11T14:03:33.938Z</time></trkpt><trkpt lat="44.8301567" lon="9.4003133"><ele>610.0</ele><time>2026-04-11T14:03:34.938Z</time></trkpt><trkpt lat="44.830125" lon="9.400165"><ele>606.2</ele><time>2026-04-11T14:03:35.936Z</time></trkpt><trkpt lat="44.83009" lon="9.40002"><ele>602.4</ele><time>2026-04-11T14:03:36.937Z</time></trkpt><trkpt lat="44.830065" lon="9.3998783"><ele>598.6</ele><time>2026-04-11T14:03:37.937Z</time></trkpt><trkpt lat="44.8300467" lon="9.3997383"><ele>594.8</ele><time>2026-04-11T14:03:38.937Z</time></trkpt><trkpt lat="44.8300317" lon="9.3996"><ele>591.0</ele><time>2026-04-11T14:03:39.937Z</time></trkpt><trkpt lat="44.8300067" lon="9.3994617"><ele>591.0</ele><time>2026-04-11T14:03:40.937Z</time></trkpt><trkpt lat="44.8299633" lon="9.3993317"><ele>591.0</ele><time>2026-04-11T14:03:41.937Z</time></trkpt><trkpt lat="44.8299" lon="9.399225"><ele>591.0</ele><time>2026-04-11T14:03:42.936Z</time></trkpt><trkpt lat="44.829815" lon="9.3991533"><ele>591.0</ele><time>2026-04-11T14:03:43.936Z</time></trkpt><trkpt lat="44.8297233" lon="9.3990767"><ele>591.0</ele><time>2026-04-11T14:03:44.938Z</time></trkpt><trkpt lat="44.8296333" lon="9.399"><ele>591.0</ele><time>2026-04-11T14:03:45.939Z</time></trkpt><trkpt lat="44.829545" lon="9.398925"><ele>591.0</ele><time>2026-04-11T14:03:46.938Z</time></trkpt><trkpt lat="44.8294583" lon="9.39886"><ele>591.0</ele><time>2026-04-11T14:03:47.939Z</time></trkpt><trkpt lat="44.8293767" lon="9.3988217"><ele>591.0</ele><time>2026-04-11T14:03:48.946Z</time></trkpt><trkpt lat="44.8293" lon="9.3988117"><ele>591.0</ele><time>2026-04-11T14:03:49.938Z</time></trkpt><trkpt lat="44.82924" lon="9.39887"><ele>591.0</ele><time>2026-04-11T14:03:50.938Z</time></trkpt><trkpt lat="44.829205" lon="9.398955"><ele>587.4</ele><time>2026-04-11T14:03:51.939Z</time></trkpt><trkpt lat="44.82919" lon="9.3990617"><ele>583.8</ele><time>2026-04-11T14:03:52.939Z</time></trkpt><trkpt lat="44.829195" lon="9.3992067"><ele>580.1999999999999</ele><time>2026-04-11T14:03:53.944Z</time></trkpt><trkpt lat="44.8292083" lon="9.3993767"><ele>576.6</ele><time>2026-04-11T14:03:54.939Z</time></trkpt><trkpt lat="44.82922" lon="9.39954"><ele>573.0</ele><time>2026-04-11T14:03:55.938Z</time></trkpt><trkpt lat="44.8292333" lon="9.399695"><ele>571.1999999999999</ele><time>2026-04-11T14:03:56.939Z</time></trkpt><trkpt lat="44.8292533" lon="9.399845"><ele>569.4</ele><time>2026-04-11T14:03:57.939Z</time></trkpt><trkpt lat="44.82927" lon="9.4"><ele>567.5999999999999</ele><time>2026-04-11T14:03:58.938Z</time></trkpt><trkpt lat="44.8292817" lon="9.4001533"><ele>565.8</ele><time>2026-04-11T14:03:59.938Z</time></trkpt><trkpt lat="44.8292933" lon="9.4003067"><ele>564.0</ele><time>2026-04-11T14:04:00.938Z</time></trkpt><trkpt lat="44.8293083" lon="9.4004633"><ele>562.6</ele><time>2026-04-11T14:04:01.938Z</time></trkpt><trkpt lat="44.8293233" lon="9.40062"><ele>561.2</ele><time>2026-04-11T14:04:02.938Z</time></trkpt><trkpt lat="44.8293283" lon="9.40078"><ele>559.8000000000001</ele><time>2026-04-11T14:04:03.937Z</time></trkpt><trkpt lat="44.8293183" lon="9.4009333"><ele>558.4</ele><time>2026-04-11T14:04:04.937Z</time></trkpt><trkpt lat="44.8292933" lon="9.4010683"><ele>557.0</ele><time>2026-04-11T14:04:05.937Z</time></trkpt><trkpt lat="44.8292533" lon="9.4011967"><ele>557.0</ele><time>2026-04-11T14:04:06.938Z</time></trkpt><trkpt lat="44.8292067" lon="9.4013183"><ele>557.0</ele><time>2026-04-11T14:04:07.938Z</time></trkpt><trkpt lat="44.829155" lon="9.4014367"><ele>557.0</ele><time>2026-04-11T14:04:08.938Z</time></trkpt><trkpt lat="44.8291017" lon="9.4015467"><ele>557.0</ele><time>2026-04-11T14:04:09.937Z</time></trkpt><trkpt lat="44.8290483" lon="9.4016533"><ele>557.0</ele><time>2026-04-11T14:04:10.937Z</time></trkpt><trkpt lat="44.8289933" lon="9.4017583"><ele>555.1666666666666</ele><time>2026-04-11T14:04:11.938Z</time></trkpt><trkpt lat="44.8289467" lon="9.4018583"><ele>553.3333333333333</ele><time>2026-04-11T14:04:12.937Z</time></trkpt><trkpt lat="44.828905" lon="9.4019583"><ele>551.5</ele><time>2026-04-11T14:04:13.943Z</time></trkpt><trkpt lat="44.8288667" lon="9.4020617"><ele>549.6666666666666</ele><time>2026-04-11T14:04:14.937Z</time></trkpt><trkpt lat="44.8288167" lon="9.4021583"><ele>547.8333333333334</ele><time>2026-04-11T14:04:15.938Z</time></trkpt><trkpt lat="44.8287533" lon="9.4022467"><ele>546.0</ele><time>2026-04-11T14:04:16.937Z</time></trkpt><trkpt lat="44.82868" lon="9.4023283"><ele>544.8333333333334</ele><time>2026-04-11T14:04:17.936Z</time></trkpt><trkpt lat="44.828605" lon="9.4023967"><ele>543.6666666666666</ele><time>2026-04-11T14:04:18.937Z</time></trkpt><trkpt lat="44.82853" lon="9.40245"><ele>542.5</ele><time>2026-04-11T14:04:19.937Z</time></trkpt><trkpt lat="44.8284583" lon="9.40249"><ele>541.3333333333333</ele><time>2026-04-11T14:04:20.944Z</time></trkpt><trkpt lat="44.8283917" lon="9.402525"><ele>540.1666666666666</ele><time>2026-04-11T14:04:21.938Z</time></trkpt><trkpt lat="44.828325" lon="9.4025583"><ele>539.0</ele><time>2026-04-11T14:04:22.937Z</time></trkpt><trkpt lat="44.82826" lon="9.402595"><ele>539.0</ele><time>2026-04-11T14:04:23.938Z</time></trkpt><trkpt lat="44.8281983" lon="9.402635"><ele>539.0</ele><time>2026-04-11T14:04:24.939Z</time></trkpt><trkpt lat="44.828095" lon="9.4027"><ele>539.0</ele><time>2026-04-11T14:04:26.943Z</time></trkpt><trkpt lat="44.8280267" lon="9.4027433"><ele>539.0</ele><time>2026-04-11T14:04:28.937Z</time></trkpt><trkpt lat="44.8279583" lon="9.4028117"><ele>539.0</ele><time>2026-04-11T14:04:58.938Z</time></trkpt><trkpt lat="44.8279317" lon="9.402925"><ele>539.0</ele><time>2026-04-11T14:05:00.939Z</time></trkpt><trkpt lat="44.82792" lon="9.4031067"><ele>536.8</ele><time>2026-04-11T14:05:02.937Z</time></trkpt><trkpt lat="44.8279183" lon="9.403225"><ele>534.5999999999999</ele><time>2026-04-11T14:05:03.936Z</time></trkpt><trkpt lat="44.827925" lon="9.4033583"><ele>532.4</ele><time>2026-04-11T14:05:04.937Z</time></trkpt><trkpt lat="44.827945" lon="9.4034867"><ele>530.1999999999999</ele><time>2026-04-11T14:05:05.936Z</time></trkpt><trkpt lat="44.82797" lon="9.40361"><ele>528.0</ele><time>2026-04-11T14:05:06.943Z</time></trkpt><trkpt lat="44.827995" lon="9.4037333"><ele>526.5714285714286</ele><time>2026-04-11T14:05:07.939Z</time></trkpt><trkpt lat="44.8280267" lon="9.4038517"><ele>525.1428571428571</ele><time>2026-04-11T14:05:08.939Z</time></trkpt><trkpt lat="44.8280633" lon="9.4039533"><ele>523.7142857142858</ele><time>2026-04-11T14:05:09.939Z</time></trkpt><trkpt lat="44.8281083" lon="9.4040267"><ele>522.2857142857142</ele><time>2026-04-11T14:05:10.936Z</time></trkpt><trkpt lat="44.8281667" lon="9.4040717"><ele>520.8571428571429</ele><time>2026-04-11T14:05:11.943Z</time></trkpt><trkpt lat="44.8282233" lon="9.404115"><ele>519.4285714285714</ele><time>2026-04-11T14:05:12.937Z</time></trkpt><trkpt lat="44.82828" lon="9.4041583"><ele>518.0</ele><time>2026-04-11T14:05:13.938Z</time></trkpt><trkpt lat="44.8283383" lon="9.4042133"><ele>518.0</ele><time>2026-04-11T14:05:14.937Z</time></trkpt><trkpt lat="44.8284017" lon="9.4042933"><ele>518.0</ele><time>2026-04-11T14:05:15.938Z</time></trkpt><trkpt lat="44.8284683" lon="9.4044067"><ele>518.0</ele><time>2026-04-11T14:05:16.936Z</time></trkpt><trkpt lat="44.828525" lon="9.404545"><ele>518.0</ele><time>2026-04-11T14:05:17.941Z</time></trkpt><trkpt lat="44.82856" lon="9.4047067"><ele>518.0</ele><time>2026-04-11T14:05:18.937Z</time></trkpt><trkpt lat="44.8285683" lon="9.4048767"><ele>517.4</ele><time>2026-04-11T14:05:19.937Z</time></trkpt><trkpt lat="44.82854" lon="9.405025"><ele>516.8</ele><time>2026-04-11T14:05:20.948Z</time></trkpt><trkpt lat="44.8284783" lon="9.4051417"><ele>516.2</ele><time>2026-04-11T14:05:21.938Z</time></trkpt><trkpt lat="44.8284117" lon="9.4052567"><ele>515.6</ele><time>2026-04-11T14:05:22.938Z</time></trkpt><trkpt lat="44.8283617" lon="9.4053883"><ele>515.0</ele><time>2026-04-11T14:05:23.937Z</time></trkpt><trkpt lat="44.828335" lon="9.4055333"><ele>513.5</ele><time>2026-04-11T14:05:24.937Z</time></trkpt><trkpt lat="44.82832" lon="9.405685"><ele>512.0</ele><time>2026-04-11T14:05:25.937Z</time></trkpt><trkpt lat="44.8283033" lon="9.405845"><ele>510.5</ele><time>2026-04-11T14:05:26.944Z</time></trkpt><trkpt lat="44.8282867" lon="9.406015"><ele>509.0</ele><time>2026-04-11T14:05:27.937Z</time></trkpt><trkpt lat="44.8282733" lon="9.4061817"><ele>507.79999999999995</ele><time>2026-04-11T14:05:28.937Z</time></trkpt><trkpt lat="44.8282617" lon="9.4063417"><ele>506.59999999999997</ele><time>2026-04-11T14:05:29.937Z</time></trkpt><trkpt lat="44.8282583" lon="9.406505"><ele>505.4</ele><time>2026-04-11T14:05:30.938Z</time></trkpt><trkpt lat="44.828255" lon="9.4066633"><ele>504.2</ele><time>2026-04-11T14:05:31.937Z</time></trkpt><trkpt lat="44.8282517" lon="9.4068117"><ele>503.0</ele><time>2026-04-11T14:05:32.937Z</time></trkpt><trkpt lat="44.8282533" lon="9.4069633"><ele>503.0</ele><time>2026-04-11T14:05:33.941Z</time></trkpt><trkpt lat="44.82825" lon="9.4071167"><ele>502.99999999999994</ele><time>2026-04-11T14:05:34.939Z</time></trkpt><trkpt lat="44.828245" lon="9.4072733"><ele>502.99999999999994</ele><time>2026-04-11T14:05:35.937Z</time></trkpt><trkpt lat="44.8282233" lon="9.4074217"><ele>503.0</ele><time>2026-04-11T14:05:36.938Z</time></trkpt><trkpt lat="44.8282017" lon="9.4075733"><ele>503.0</ele><time>2026-04-11T14:05:37.937Z</time></trkpt><trkpt lat="44.8281783" lon="9.4077283"><ele>501.79999999999995</ele><time>2026-04-11T14:05:38.937Z</time></trkpt><trkpt lat="44.8281483" lon="9.4078783"><ele>500.59999999999997</ele><time>2026-04-11T14:05:39.938Z</time></trkpt><trkpt lat="44.8281033" lon="9.408005"><ele>499.40000000000003</ele><time>2026-04-11T14:05:40.938Z</time></trkpt><trkpt lat="44.8280433" lon="9.4081083"><ele>498.20000000000005</ele><time>2026-04-11T14:05:41.937Z</time></trkpt><trkpt lat="44.8279717" lon="9.4081633"><ele>497.0</ele><time>2026-04-11T14:05:42.937Z</time></trkpt><trkpt lat="44.8279017" lon="9.4081833"><ele>497.0</ele><time>2026-04-11T14:05:43.938Z</time></trkpt><trkpt lat="44.8278433" lon="9.40811"><ele>497.00000000000006</ele><time>2026-04-11T14:05:44.941Z</time></trkpt><trkpt lat="44.8277967" lon="9.40801"><ele>497.00000000000006</ele><time>2026-04-11T14:05:45.938Z</time></trkpt><trkpt lat="44.8277417" lon="9.40788"><ele>497.0</ele><time>2026-04-11T14:05:46.937Z</time></trkpt><trkpt lat="44.8276783" lon="9.4077483"><ele>497.0</ele><time>2026-04-11T14:05:47.938Z</time></trkpt><trkpt lat="44.827605" lon="9.407625"><ele>497.8</ele><time>2026-04-11T14:05:48.938Z</time></trkpt><trkpt lat="44.827525" lon="9.4075067"><ele>498.6</ele><time>2026-04-11T14:05:49.937Z</time></trkpt><trkpt lat="44.8274467" lon="9.4073933"><ele>499.40000000000003</ele><time>2026-04-11T14:05:50.945Z</time></trkpt><trkpt lat="44.8273733" lon="9.4072867"><ele>500.20000000000005</ele><time>2026-04-11T14:05:51.939Z</time></trkpt><trkpt lat="44.8273067" lon="9.407185"><ele>501.0</ele><time>2026-04-11T14:05:52.937Z</time></trkpt><trkpt lat="44.8272333" lon="9.407095"><ele>501.0</ele><time>2026-04-11T14:05:53.937Z</time></trkpt><trkpt lat="44.8271517" lon="9.4070267"><ele>501.0</ele><time>2026-04-11T14:05:54.937Z</time></trkpt><trkpt lat="44.827065" lon="9.40699"><ele>501.0</ele><time>2026-04-11T14:05:55.937Z</time></trkpt><trkpt lat="44.8269567" lon="9.40699"><ele>501.0</ele><time>2026-04-11T14:05:56.937Z</time></trkpt><trkpt lat="44.826845" lon="9.4070183"><ele>501.0</ele><time>2026-04-11T14:05:57.937Z</time></trkpt><trkpt lat="44.826755" lon="9.407075"><ele>496.6</ele><time>2026-04-11T14:05:58.937Z</time></trkpt><trkpt lat="44.8266867" lon="9.4071717"><ele>492.20000000000005</ele><time>2026-04-11T14:05:59.938Z</time></trkpt><trkpt lat="44.8266567" lon="9.4072967"><ele>487.79999999999995</ele><time>2026-04-11T14:06:00.937Z</time></trkpt><trkpt lat="44.8266683" lon="9.407435"><ele>483.4</ele><time>2026-04-11T14:06:01.938Z</time></trkpt><trkpt lat="44.8267133" lon="9.40758"><ele>479.0</ele><time>2026-04-11T14:06:02.939Z</time></trkpt><trkpt lat="44.8267633" lon="9.4077283"><ele>479.0</ele><time>2026-04-11T14:06:03.937Z</time></trkpt><trkpt lat="44.8268033" lon="9.4078933"><ele>479.0</ele><time>2026-04-11T14:06:04.938Z</time></trkpt><trkpt lat="44.826815" lon="9.4080617"><ele>479.0</ele><time>2026-04-11T14:06:05.936Z</time></trkpt><trkpt lat="44.8268033" lon="9.4082333"><ele>479.0</ele><time>2026-04-11T14:06:06.937Z</time></trkpt><trkpt lat="44.8267783" lon="9.4084"><ele>477.2</ele><time>2026-04-11T14:06:07.938Z</time></trkpt><trkpt lat="44.8267367" lon="9.4085583"><ele>475.4</ele><time>2026-04-11T14:06:08.938Z</time></trkpt><trkpt lat="44.8266917" lon="9.408705"><ele>473.6</ele><time>2026-04-11T14:06:09.944Z</time></trkpt><trkpt lat="44.8266617" lon="9.4088517"><ele>471.8</ele><time>2026-04-11T14:06:10.939Z</time></trkpt><trkpt lat="44.8266667" lon="9.408995"><ele>470.0</ele><time>2026-04-11T14:06:11.937Z</time></trkpt><trkpt lat="44.8267083" lon="9.4091367"><ele>468.75</ele><time>2026-04-11T14:06:12.937Z</time></trkpt><trkpt lat="44.8267817" lon="9.4092733"><ele>467.5</ele><time>2026-04-11T14:06:13.937Z</time></trkpt><trkpt lat="44.826875" lon="9.409405"><ele>466.25</ele><time>2026-04-11T14:06:14.938Z</time></trkpt><trkpt lat="44.82697" lon="9.40952"><ele>465.0</ele><time>2026-04-11T14:06:15.937Z</time></trkpt><trkpt lat="44.8270617" lon="9.409635"><ele>465.0</ele><time>2026-04-11T14:06:16.937Z</time></trkpt><trkpt lat="44.8271483" lon="9.409755"><ele>465.0</ele><time>2026-04-11T14:06:17.937Z</time></trkpt><trkpt lat="44.8272267" lon="9.409885"><ele>465.0</ele><time>2026-04-11T14:06:18.938Z</time></trkpt><trkpt lat="44.82729" lon="9.4100217"><ele>465.0</ele><time>2026-04-11T14:06:19.944Z</time></trkpt><trkpt lat="44.8273417" lon="9.4101633"><ele>465.0</ele><time>2026-04-11T14:06:20.937Z</time></trkpt><trkpt lat="44.8273767" lon="9.4103283"><ele>465.0</ele><time>2026-04-11T14:06:21.938Z</time></trkpt><trkpt lat="44.8273917" lon="9.4105033"><ele>465.0</ele><time>2026-04-11T14:06:22.936Z</time></trkpt><trkpt lat="44.8274017" lon="9.4106883"><ele>465.0</ele><time>2026-04-11T14:06:23.937Z</time></trkpt><trkpt lat="44.8274067" lon="9.4108833"><ele>463.0</ele><time>2026-04-11T14:06:24.943Z</time></trkpt><trkpt lat="44.8274033" lon="9.411075"><ele>461.0</ele><time>2026-04-11T14:06:25.937Z</time></trkpt><trkpt lat="44.8273967" lon="9.411255"><ele>459.0</ele><time>2026-04-11T14:06:26.938Z</time></trkpt><trkpt lat="44.82738" lon="9.4114267"><ele>457.0</ele><time>2026-04-11T14:06:27.937Z</time></trkpt><trkpt lat="44.8273467" lon="9.411585"><ele>454.8</ele><time>2026-04-11T14:06:28.937Z</time></trkpt><trkpt lat="44.82729" lon="9.411725"><ele>452.6</ele><time>2026-04-11T14:06:29.937Z</time></trkpt><trkpt lat="44.8272233" lon="9.4118533"><ele>450.40000000000003</ele><time>2026-04-11T14:06:30.938Z</time></trkpt><trkpt lat="44.8271617" lon="9.41197"><ele>448.20000000000005</ele><time>2026-04-11T14:06:31.936Z</time></trkpt><trkpt lat="44.8271083" lon="9.41208"><ele>446.0</ele><time>2026-04-11T14:06:32.943Z</time></trkpt><trkpt lat="44.8270633" lon="9.412185"><ele>443.8333333333333</ele><time>2026-04-11T14:06:33.938Z</time></trkpt><trkpt lat="44.8270333" lon="9.4122883"><ele>441.66666666666663</ele><time>2026-04-11T14:06:34.937Z</time></trkpt><trkpt lat="44.8270333" lon="9.4123833"><ele>439.5</ele><time>2026-04-11T14:06:35.938Z</time></trkpt><trkpt lat="44.8270767" lon="9.41245"><ele>437.33333333333337</ele><time>2026-04-11T14:06:36.938Z</time></trkpt><trkpt lat="44.8271983" lon="9.412485"><ele>435.1666666666667</ele><time>2026-04-11T14:06:38.937Z</time></trkpt><trkpt lat="44.8272917" lon="9.41246"><ele>433.0</ele><time>2026-04-11T14:06:39.937Z</time></trkpt><trkpt lat="44.8274017" lon="9.4123967"><ele>433.0</ele><time>2026-04-11T14:06:40.937Z</time></trkpt><trkpt lat="44.8275183" lon="9.4123183"><ele>433.0</ele><time>2026-04-11T14:06:41.937Z</time></trkpt><trkpt lat="44.8276283" lon="9.412245"><ele>433.0</ele><time>2026-04-11T14:06:42.937Z</time></trkpt><trkpt lat="44.8277383" lon="9.4121933"><ele>433.0</ele><time>2026-04-11T14:06:43.938Z</time></trkpt><trkpt lat="44.82784" lon="9.4121867"><ele>432.4</ele><time>2026-04-11T14:06:44.938Z</time></trkpt><trkpt lat="44.827935" lon="9.412225"><ele>431.79999999999995</ele><time>2026-04-11T14:06:45.939Z</time></trkpt><trkpt lat="44.8280183" lon="9.4123067"><ele>431.2</ele><time>2026-04-11T14:06:46.937Z</time></trkpt><trkpt lat="44.8280967" lon="9.41241"><ele>430.6</ele><time>2026-04-11T14:06:47.939Z</time></trkpt><trkpt lat="44.8281833" lon="9.412515"><ele>430.0</ele><time>2026-04-11T14:06:48.944Z</time></trkpt><trkpt lat="44.828275" lon="9.4125867"><ele>430.00000000000006</ele><time>2026-04-11T14:06:49.939Z</time></trkpt><trkpt lat="44.8283767" lon="9.4126183"><ele>430.0</ele><time>2026-04-11T14:06:50.937Z</time></trkpt><trkpt lat="44.8284733" lon="9.4126217"><ele>430.0</ele><time>2026-04-11T14:06:51.937Z</time></trkpt><trkpt lat="44.8285567" lon="9.4126383"><ele>430.0</ele><time>2026-04-11T14:06:52.938Z</time></trkpt><trkpt lat="44.828625" lon="9.412685"><ele>430.00000000000006</ele><time>2026-04-11T14:06:53.94Z</time></trkpt><trkpt lat="44.82867" lon="9.412755"><ele>430.0</ele><time>2026-04-11T14:06:54.938Z</time></trkpt><trkpt lat="44.8286617" lon="9.412875"><ele>428.6</ele><time>2026-04-11T14:06:55.94Z</time></trkpt><trkpt lat="44.8286317" lon="9.41298"><ele>427.2</ele><time>2026-04-11T14:06:56.94Z</time></trkpt><trkpt lat="44.8285633" lon="9.4130533"><ele>425.79999999999995</ele><time>2026-04-11T14:06:57.94Z</time></trkpt><trkpt lat="44.82846" lon="9.413085"><ele>424.4</ele><time>2026-04-11T14:06:58.944Z</time></trkpt><trkpt lat="44.8283533" lon="9.413085"><ele>423.0</ele><time>2026-04-11T14:06:59.937Z</time></trkpt><trkpt lat="44.8282417" lon="9.4130733"><ele>420.0</ele><time>2026-04-11T14:07:00.937Z</time></trkpt><trkpt lat="44.828125" lon="9.41308"><ele>417.0</ele><time>2026-04-11T14:07:01.938Z</time></trkpt><trkpt lat="44.8280083" lon="9.4131083"><ele>414.0</ele><time>2026-04-11T14:07:02.937Z</time></trkpt><trkpt lat="44.8278967" lon="9.4131517"><ele>411.0</ele><time>2026-04-11T14:07:03.943Z</time></trkpt><trkpt lat="44.8277917" lon="9.413205"><ele>411.0</ele><time>2026-04-11T14:07:04.939Z</time></trkpt><trkpt lat="44.8276933" lon="9.41327"><ele>411.0</ele><time>2026-04-11T14:07:05.94Z</time></trkpt><trkpt lat="44.8276033" lon="9.41335"><ele>411.0</ele><time>2026-04-11T14:07:06.94Z</time></trkpt><trkpt lat="44.82753" lon="9.413465"><ele>411.0</ele><time>2026-04-11T14:07:07.938Z</time></trkpt><trkpt lat="44.8274817" lon="9.4136133"><ele>411.0</ele><time>2026-04-11T14:07:08.939Z</time></trkpt><trkpt lat="44.8274633" lon="9.4137833"><ele>409.5</ele><time>2026-04-11T14:07:09.937Z</time></trkpt><trkpt lat="44.82747" lon="9.41396"><ele>408.0</ele><time>2026-04-11T14:07:10.944Z</time></trkpt><trkpt lat="44.8274867" lon="9.4141367"><ele>406.5</ele><time>2026-04-11T14:07:11.938Z</time></trkpt><trkpt lat="44.827505" lon="9.41431"><ele>405.0</ele><time>2026-04-11T14:07:12.937Z</time></trkpt><trkpt lat="44.8275233" lon="9.4144783"><ele>405.0</ele><time>2026-04-11T14:07:13.937Z</time></trkpt><trkpt lat="44.8275367" lon="9.4146417"><ele>405.0</ele><time>2026-04-11T14:07:14.937Z</time></trkpt><trkpt lat="44.82755" lon="9.4147983"><ele>405.0</ele><time>2026-04-11T14:07:15.942Z</time></trkpt><trkpt lat="44.8275567" lon="9.4149567"><ele>405.0</ele><time>2026-04-11T14:07:16.937Z</time></trkpt><trkpt lat="44.827545" lon="9.4151083"><ele>405.0</ele><time>2026-04-11T14:07:17.937Z</time></trkpt><trkpt lat="44.8275067" lon="9.4152483"><ele>402.75</ele><time>2026-04-11T14:07:18.937Z</time></trkpt><trkpt lat="44.8274417" lon="9.4153817"><ele>400.5</ele><time>2026-04-11T14:07:19.937Z</time></trkpt><trkpt lat="44.82736" lon="9.415505"><ele>398.25</ele><time>2026-04-11T14:07:20.942Z</time></trkpt><trkpt lat="44.8272767" lon="9.4156267"><ele>396.0</ele><time>2026-04-11T14:07:21.939Z</time></trkpt><trkpt lat="44.8272017" lon="9.4157583"><ele>393.0</ele><time>2026-04-11T14:07:22.937Z</time></trkpt><trkpt lat="44.8271383" lon="9.4159033"><ele>390.0</ele><time>2026-04-11T14:07:23.937Z</time></trkpt><trkpt lat="44.827075" lon="9.416075"><ele>387.0</ele><time>2026-04-11T14:07:24.937Z</time></trkpt><trkpt lat="44.8270167" lon="9.416275"><ele>384.0</ele><time>2026-04-11T14:07:25.937Z</time></trkpt><trkpt lat="44.8269717" lon="9.4164883"><ele>381.0</ele><time>2026-04-11T14:07:26.945Z</time></trkpt><trkpt lat="44.8269383" lon="9.4166983"><ele>378.0</ele><time>2026-04-11T14:07:27.938Z</time></trkpt><trkpt lat="44.82691" lon="9.416905"><ele>375.0</ele><time>2026-04-11T14:07:28.937Z</time></trkpt><trkpt lat="44.8268833" lon="9.4171017"><ele>372.0</ele><time>2026-04-11T14:07:29.937Z</time></trkpt><trkpt lat="44.8268567" lon="9.417285"><ele>371.0</ele><time>2026-04-11T14:07:30.938Z</time></trkpt><trkpt lat="44.826825" lon="9.4174633"><ele>370.0</ele><time>2026-04-11T14:07:31.94Z</time></trkpt><trkpt lat="44.8267983" lon="9.417635"><ele>369.0</ele><time>2026-04-11T14:07:32.941Z</time></trkpt><trkpt lat="44.82677" lon="9.4178167"><ele>368.0</ele><time>2026-04-11T14:07:33.937Z</time></trkpt><trkpt lat="44.826725" lon="9.4179967"><ele>368.0</ele><time>2026-04-11T14:07:34.944Z</time></trkpt><trkpt lat="44.8266783" lon="9.4181767"><ele>368.0</ele><time>2026-04-11T14:07:35.938Z</time></trkpt><trkpt lat="44.8266417" lon="9.41836"><ele>368.0</ele><time>2026-04-11T14:07:36.937Z</time></trkpt><trkpt lat="44.82662" lon="9.418545"><ele>368.0</ele><time>2026-04-11T14:07:37.938Z</time></trkpt><trkpt lat="44.8266067" lon="9.4187267"><ele>365.0</ele><time>2026-04-11T14:07:38.937Z</time></trkpt><trkpt lat="44.8266083" lon="9.418905"><ele>362.0</ele><time>2026-04-11T14:07:39.945Z</time></trkpt><trkpt lat="44.826615" lon="9.41908"><ele>359.0</ele><time>2026-04-11T14:07:40.937Z</time></trkpt><trkpt lat="44.826615" lon="9.41924"><ele>356.0</ele><time>2026-04-11T14:07:41.938Z</time></trkpt><trkpt lat="44.826595" lon="9.419365"><ele>356.0</ele><time>2026-04-11T14:07:42.938Z</time></trkpt><trkpt lat="44.8265617" lon="9.4194633"><ele>356.0</ele><time>2026-04-11T14:07:43.937Z</time></trkpt><trkpt lat="44.8265117" lon="9.4195267"><ele>356.0</ele><time>2026-04-11T14:07:44.942Z</time></trkpt><trkpt lat="44.82644" lon="9.4195267"><ele>356.0</ele><time>2026-04-11T14:07:45.938Z</time></trkpt><trkpt lat="44.8263717" lon="9.4194833"><ele>356.0</ele><time>2026-04-11T14:07:46.938Z</time></trkpt><trkpt lat="44.8263033" lon="9.419395"><ele>356.0</ele><time>2026-04-11T14:07:47.937Z</time></trkpt><trkpt lat="44.8262483" lon="9.4192733"><ele>356.0</ele><time>2026-04-11T14:07:48.938Z</time></trkpt><trkpt lat="44.8262183" lon="9.4191283"><ele>356.0</ele><time>2026-04-11T14:07:49.938Z</time></trkpt><trkpt lat="44.8261783" lon="9.4189817"><ele>356.0</ele><time>2026-04-11T14:07:50.937Z</time></trkpt><trkpt lat="44.8261233" lon="9.41883"><ele>356.0</ele><time>2026-04-11T14:07:51.937Z</time></trkpt><trkpt lat="44.826055" lon="9.418675"><ele>357.0</ele><time>2026-04-11T14:07:52.939Z</time></trkpt><trkpt lat="44.825985" lon="9.4185233"><ele>358.0</ele><time>2026-04-11T14:07:53.937Z</time></trkpt><trkpt lat="44.8259133" lon="9.4183867"><ele>359.0</ele><time>2026-04-11T14:07:54.939Z</time></trkpt><trkpt lat="44.8258367" lon="9.4182667"><ele>360.0</ele><time>2026-04-11T14:07:55.939Z</time></trkpt><trkpt lat="44.8257533" lon="9.4181767"><ele>360.0</ele><time>2026-04-11T14:07:56.937Z</time></trkpt><trkpt lat="44.825655" lon="9.4181317"><ele>360.0</ele><time>2026-04-11T14:07:57.938Z</time></trkpt><trkpt lat="44.8255533" lon="9.41813"><ele>360.0</ele><time>2026-04-11T14:07:58.937Z</time></trkpt><trkpt lat="44.825465" lon="9.41818"><ele>360.0</ele><time>2026-04-11T14:07:59.939Z</time></trkpt><trkpt lat="44.8254" lon="9.4182767"><ele>360.0</ele><time>2026-04-11T14:08:00.938Z</time></trkpt><trkpt lat="44.82537" lon="9.4184083"><ele>360.0</ele><time>2026-04-11T14:08:01.937Z</time></trkpt><trkpt lat="44.8253833" lon="9.4185483"><ele>360.0</ele><time>2026-04-11T14:08:02.943Z</time></trkpt><trkpt lat="44.8254117" lon="9.4186933"><ele>360.0</ele><time>2026-04-11T14:08:03.938Z</time></trkpt><trkpt lat="44.8254417" lon="9.4188367"><ele>360.0</ele><time>2026-04-11T14:08:04.938Z</time></trkpt><trkpt lat="44.8254683" lon="9.4189817"><ele>360.0</ele><time>2026-04-11T14:08:05.939Z</time></trkpt><trkpt lat="44.8254867" lon="9.4191267"><ele>358.8</ele><time>2026-04-11T14:08:06.938Z</time></trkpt><trkpt lat="44.8254933" lon="9.4192733"><ele>357.6</ele><time>2026-04-11T14:08:07.938Z</time></trkpt><trkpt lat="44.8254933" lon="9.4194133"><ele>356.4</ele><time>2026-04-11T14:08:08.94Z</time></trkpt><trkpt lat="44.8254917" lon="9.4195467"><ele>355.2</ele><time>2026-04-11T14:08:09.939Z</time></trkpt><trkpt lat="44.82549" lon="9.419675"><ele>354.0</ele><time>2026-04-11T14:08:10.946Z</time></trkpt><trkpt lat="44.8254867" lon="9.4198067"><ele>353.0</ele><time>2026-04-11T14:08:11.939Z</time></trkpt><trkpt lat="44.825465" lon="9.4199283"><ele>352.0</ele><time>2026-04-11T14:08:12.938Z</time></trkpt><trkpt lat="44.825425" lon="9.42005"><ele>351.0</ele><time>2026-04-11T14:08:13.937Z</time></trkpt><trkpt lat="44.8253633" lon="9.4201583"><ele>350.0</ele><time>2026-04-11T14:08:14.942Z</time></trkpt><trkpt lat="44.8252917" lon="9.4202567"><ele>349.0</ele><time>2026-04-11T14:08:15.938Z</time></trkpt><trkpt lat="44.825215" lon="9.420355"><ele>349.6</ele><time>2026-04-11T14:08:16.937Z</time></trkpt><trkpt lat="44.8251367" lon="9.42046"><ele>350.2</ele><time>2026-04-11T14:08:17.944Z</time></trkpt><trkpt lat="44.8250633" lon="9.4205617"><ele>350.8</ele><time>2026-04-11T14:08:18.938Z</time></trkpt><trkpt lat="44.8249967" lon="9.4206717"><ele>351.40000000000003</ele><time>2026-04-11T14:08:19.937Z</time></trkpt><trkpt lat="44.8249317" lon="9.4207983"><ele>352.0</ele><time>2026-04-11T14:08:20.937Z</time></trkpt><trkpt lat="44.8248767" lon="9.420935"><ele>352.0</ele><time>2026-04-11T14:08:21.938Z</time></trkpt><trkpt lat="44.8248217" lon="9.4210717"><ele>352.0</ele><time>2026-04-11T14:08:22.937Z</time></trkpt><trkpt lat="44.824765" lon="9.42121"><ele>352.0</ele><time>2026-04-11T14:08:23.937Z</time></trkpt><trkpt lat="44.8247067" lon="9.4213533"><ele>352.0</ele><time>2026-04-11T14:08:24.937Z</time></trkpt><trkpt lat="44.82465" lon="9.4214967"><ele>351.40000000000003</ele><time>2026-04-11T14:08:25.937Z</time></trkpt><trkpt lat="44.824595" lon="9.4216367"><ele>350.8</ele><time>2026-04-11T14:08:26.94Z</time></trkpt><trkpt lat="44.824545" lon="9.4217767"><ele>350.2</ele><time>2026-04-11T14:08:27.937Z</time></trkpt><trkpt lat="44.824495" lon="9.4219133"><ele>349.6</ele><time>2026-04-11T14:08:28.938Z</time></trkpt><trkpt lat="44.824445" lon="9.4220467"><ele>349.0</ele><time>2026-04-11T14:08:29.943Z</time></trkpt><trkpt lat="44.82439" lon="9.42218"><ele>347.8333333333333</ele><time>2026-04-11T14:08:30.94Z</time></trkpt><trkpt lat="44.8243417" lon="9.4222983"><ele>346.66666666666663</ele><time>2026-04-11T14:08:31.938Z</time></trkpt><trkpt lat="44.8242983" lon="9.4223967"><ele>345.5</ele><time>2026-04-11T14:08:32.938Z</time></trkpt><trkpt lat="44.82425" lon="9.4224833"><ele>344.3333333333333</ele><time>2026-04-11T14:08:33.937Z</time></trkpt><trkpt lat="44.8242017" lon="9.422555"><ele>343.1666666666667</ele><time>2026-04-11T14:08:34.938Z</time></trkpt><trkpt lat="44.82413" lon="9.422665"><ele>342.0</ele><time>2026-04-11T14:08:36.938Z</time></trkpt><trkpt lat="44.8240833" lon="9.4227533"><ele>342.0</ele><time>2026-04-11T14:08:38.941Z</time></trkpt><trkpt lat="44.8240267" lon="9.4228683"><ele>342.0</ele><time>2026-04-11T14:08:41.937Z</time></trkpt><trkpt lat="44.8239767" lon="9.4229617"><ele>342.0</ele><time>2026-04-11T14:08:43.938Z</time></trkpt><trkpt lat="44.8238967" lon="9.4230283"><ele>342.0</ele><time>2026-04-11T14:08:45.938Z</time></trkpt><trkpt lat="44.823795" lon="9.4230667"><ele>342.0</ele><time>2026-04-11T14:08:47.938Z</time></trkpt><trkpt lat="44.8236933" lon="9.4231067"><ele>341.1666666666667</ele><time>2026-04-11T14:08:49.938Z</time></trkpt><trkpt lat="44.8236" lon="9.4231583"><ele>340.3333333333333</ele><time>2026-04-11T14:08:51.937Z</time></trkpt><trkpt lat="44.8235267" lon="9.4232283"><ele>339.5</ele><time>2026-04-11T14:08:53.937Z</time></trkpt><trkpt lat="44.82346" lon="9.4232917"><ele>338.66666666666663</ele><time>2026-04-11T14:08:55.938Z</time></trkpt><trkpt lat="44.8233867" lon="9.423345"><ele>337.8333333333333</ele><time>2026-04-11T14:08:57.941Z</time></trkpt><trkpt lat="44.823305" lon="9.4234067"><ele>337.0</ele><time>2026-04-11T14:08:59.938Z</time></trkpt><trkpt lat="44.8232133" lon="9.4234683"><ele>336.0</ele><time>2026-04-11T14:09:01.939Z</time></trkpt><trkpt lat="44.8230983" lon="9.4235167"><ele>335.0</ele><time>2026-04-11T14:09:03.941Z</time></trkpt><trkpt lat="44.82299" lon="9.42357"><ele>334.0</ele><time>2026-04-11T14:09:05.939Z</time></trkpt><trkpt lat="44.8228883" lon="9.4236217"><ele>333.0</ele><time>2026-04-11T14:09:07.94Z</time></trkpt><trkpt lat="44.8228283" lon="9.4236517"><ele>332.0</ele><time>2026-04-11T14:09:08.938Z</time></trkpt><trkpt lat="44.8227583" lon="9.4236817"><ele>332.0</ele><time>2026-04-11T14:09:09.941Z</time></trkpt><trkpt lat="44.82268" lon="9.4237067"><ele>332.0</ele><time>2026-04-11T14:09:10.941Z</time></trkpt><trkpt lat="44.8225983" lon="9.4237233"><ele>332.0</ele><time>2026-04-11T14:09:11.941Z</time></trkpt><trkpt lat="44.82251" lon="9.4237417"><ele>332.0</ele><time>2026-04-11T14:09:12.946Z</time></trkpt><trkpt lat="44.822415" lon="9.423765"><ele>332.0</ele><time>2026-04-11T14:09:13.94Z</time></trkpt><trkpt lat="44.8223167" lon="9.4238033"><ele>330.0</ele><time>2026-04-11T14:09:14.938Z</time></trkpt><trkpt lat="44.8222283" lon="9.4238583"><ele>328.0</ele><time>2026-04-11T14:09:15.939Z</time></trkpt><trkpt lat="44.822145" lon="9.4239267"><ele>326.0</ele><time>2026-04-11T14:09:16.938Z</time></trkpt><trkpt lat="44.8220633" lon="9.424"><ele>324.0</ele><time>2026-04-11T14:09:17.938Z</time></trkpt><trkpt lat="44.8219833" lon="9.4240783"><ele>322.0</ele><time>2026-04-11T14:09:18.939Z</time></trkpt><trkpt lat="44.8219267" lon="9.4241767"><ele>322.0</ele><time>2026-04-11T14:09:19.943Z</time></trkpt><trkpt lat="44.8219017" lon="9.424295"><ele>322.0</ele><time>2026-04-11T14:09:20.939Z</time></trkpt><trkpt lat="44.821905" lon="9.42441"><ele>322.0</ele><time>2026-04-11T14:09:21.937Z</time></trkpt><trkpt lat="44.8219617" lon="9.4244917"><ele>322.0</ele><time>2026-04-11T14:09:22.937Z</time></trkpt><trkpt lat="44.8220283" lon="9.4245417"><ele>322.0</ele><time>2026-04-11T14:09:23.938Z</time></trkpt><trkpt lat="44.8221167" lon="9.424565"><ele>322.0</ele><time>2026-04-11T14:09:24.938Z</time></trkpt><trkpt lat="44.8222233" lon="9.4245717"><ele>322.0</ele><time>2026-04-11T14:09:25.945Z</time></trkpt><trkpt lat="44.82234" lon="9.4245883"><ele>322.0</ele><time>2026-04-11T14:09:26.938Z</time></trkpt><trkpt lat="44.8224567" lon="9.42461"><ele>322.0</ele><time>2026-04-11T14:09:27.937Z</time></trkpt><trkpt lat="44.8225567" lon="9.4246383"><ele>322.0</ele><time>2026-04-11T14:09:28.936Z</time></trkpt><trkpt lat="44.822645" lon="9.4246683"><ele>322.0</ele><time>2026-04-11T14:09:29.936Z</time></trkpt><trkpt lat="44.82272" lon="9.4247083"><ele>320.8333333333333</ele><time>2026-04-11T14:09:30.937Z</time></trkpt><trkpt lat="44.82278" lon="9.42477"><ele>319.66666666666663</ele><time>2026-04-11T14:09:31.938Z</time></trkpt><trkpt lat="44.82284" lon="9.4248683"><ele>318.5</ele><time>2026-04-11T14:09:32.937Z</time></trkpt><trkpt lat="44.8228933" lon="9.4249717"><ele>317.3333333333333</ele><time>2026-04-11T14:09:33.938Z</time></trkpt><trkpt lat="44.822945" lon="9.425075"><ele>316.1666666666667</ele><time>2026-04-11T14:09:34.937Z</time></trkpt><trkpt lat="44.8230033" lon="9.4251633"><ele>315.0</ele><time>2026-04-11T14:09:35.937Z</time></trkpt><trkpt lat="44.8230817" lon="9.4252433"><ele>315.0</ele><time>2026-04-11T14:09:36.938Z</time></trkpt><trkpt lat="44.8231733" lon="9.4252983"><ele>315.0</ele><time>2026-04-11T14:09:37.94Z</time></trkpt><trkpt lat="44.8232833" lon="9.4253517"><ele>315.0</ele><time>2026-04-11T14:09:38.938Z</time></trkpt><trkpt lat="44.8233917" lon="9.4254267"><ele>315.0</ele><time>2026-04-11T14:09:39.936Z</time></trkpt><trkpt lat="44.8234933" lon="9.42552"><ele>314.4</ele><time>2026-04-11T14:09:40.936Z</time></trkpt><trkpt lat="44.8235867" lon="9.4256133"><ele>313.8</ele><time>2026-04-11T14:09:41.936Z</time></trkpt><trkpt lat="44.8236417" lon="9.4257333"><ele>313.2</ele><time>2026-04-11T14:09:42.936Z</time></trkpt><trkpt lat="44.823665" lon="9.4258617"><ele>312.6</ele><time>2026-04-11T14:09:43.939Z</time></trkpt><trkpt lat="44.8236617" lon="9.4259833"><ele>312.0</ele><time>2026-04-11T14:09:44.938Z</time></trkpt><trkpt lat="44.82363" lon="9.42609"><ele>312.0</ele><time>2026-04-11T14:09:45.938Z</time></trkpt><trkpt lat="44.823555" lon="9.4261433"><ele>312.0</ele><time>2026-04-11T14:09:46.939Z</time></trkpt><trkpt lat="44.8234617" lon="9.4261617"><ele>312.0</ele><time>2026-04-11T14:09:47.936Z</time></trkpt><trkpt lat="44.8233667" lon="9.426185"><ele>312.0</ele><time>2026-04-11T14:09:48.937Z</time></trkpt><trkpt lat="44.8232767" lon="9.4262433"><ele>312.0</ele><time>2026-04-11T14:09:49.937Z</time></trkpt><trkpt lat="44.823195" lon="9.4263533"><ele>311.0</ele><time>2026-04-11T14:09:50.938Z</time></trkpt><trkpt lat="44.8231267" lon="9.4264883"><ele>310.0</ele><time>2026-04-11T14:09:51.937Z</time></trkpt><trkpt lat="44.8230617" lon="9.426615"><ele>309.0</ele><time>2026-04-11T14:09:52.936Z</time></trkpt><trkpt lat="44.8229783" lon="9.4267067"><ele>308.0</ele><time>2026-04-11T14:09:53.937Z</time></trkpt><trkpt lat="44.8228783" lon="9.4267583"><ele>307.0</ele><time>2026-04-11T14:09:54.937Z</time></trkpt><trkpt lat="44.8227717" lon="9.4267633"><ele>307.0</ele><time>2026-04-11T14:09:55.938Z</time></trkpt><trkpt lat="44.822665" lon="9.4267383"><ele>307.0</ele><time>2026-04-11T14:09:56.945Z</time></trkpt><trkpt lat="44.8225533" lon="9.4267067"><ele>307.0</ele><time>2026-04-11T14:09:57.937Z</time></trkpt><trkpt lat="44.8224417" lon="9.4266733"><ele>307.0</ele><time>2026-04-11T14:09:58.938Z</time></trkpt><trkpt lat="44.8223317" lon="9.42664"><ele>307.0</ele><time>2026-04-11T14:09:59.936Z</time></trkpt><trkpt lat="44.8222233" lon="9.42661"><ele>305.2</ele><time>2026-04-11T14:10:00.938Z</time></trkpt><trkpt lat="44.822115" lon="9.4265833"><ele>303.4</ele><time>2026-04-11T14:10:01.936Z</time></trkpt><trkpt lat="44.8220083" lon="9.4265533"><ele>301.6</ele><time>2026-04-11T14:10:02.937Z</time></trkpt><trkpt lat="44.8219017" lon="9.4265117"><ele>299.8</ele><time>2026-04-11T14:10:03.943Z</time></trkpt><trkpt lat="44.8217983" lon="9.42645"><ele>298.0</ele><time>2026-04-11T14:10:04.937Z</time></trkpt><trkpt lat="44.8217017" lon="9.4263783"><ele>296.0</ele><time>2026-04-11T14:10:05.943Z</time></trkpt><trkpt lat="44.8216083" lon="9.4263083"><ele>294.0</ele><time>2026-04-11T14:10:06.938Z</time></trkpt><trkpt lat="44.8215033" lon="9.4262533"><ele>292.0</ele><time>2026-04-11T14:10:07.937Z</time></trkpt><trkpt lat="44.8213967" lon="9.4262233"><ele>290.0</ele><time>2026-04-11T14:10:08.937Z</time></trkpt><trkpt lat="44.8212917" lon="9.4262217"><ele>288.0</ele><time>2026-04-11T14:10:09.936Z</time></trkpt><trkpt lat="44.82119" lon="9.42625"><ele>289.0</ele><time>2026-04-11T14:10:10.937Z</time></trkpt><trkpt lat="44.8210917" lon="9.4263233"><ele>290.0</ele><time>2026-04-11T14:10:11.936Z</time></trkpt><trkpt lat="44.8209983" lon="9.4264183"><ele>291.0</ele><time>2026-04-11T14:10:12.936Z</time></trkpt><trkpt lat="44.8209117" lon="9.4265233"><ele>292.0</ele><time>2026-04-11T14:10:13.941Z</time></trkpt><trkpt lat="44.82083" lon="9.4266333"><ele>289.75</ele><time>2026-04-11T14:10:14.939Z</time></trkpt><trkpt lat="44.8207467" lon="9.4267433"><ele>287.5</ele><time>2026-04-11T14:10:15.939Z</time></trkpt><trkpt lat="44.82066" lon="9.4268533"><ele>285.25</ele><time>2026-04-11T14:10:16.94Z</time></trkpt><trkpt lat="44.8205683" lon="9.426975"><ele>283.0</ele><time>2026-04-11T14:10:17.936Z</time></trkpt><trkpt lat="44.8204733" lon="9.4271017"><ele>284.75</ele><time>2026-04-11T14:10:18.939Z</time></trkpt><trkpt lat="44.820375" lon="9.4272233"><ele>286.5</ele><time>2026-04-11T14:10:19.937Z</time></trkpt><trkpt lat="44.8202717" lon="9.42733"><ele>288.25</ele><time>2026-04-11T14:10:20.937Z</time></trkpt><trkpt lat="44.8201617" lon="9.4274283"><ele>290.0</ele><time>2026-04-11T14:10:21.937Z</time></trkpt><trkpt lat="44.820045" lon="9.4275217"><ele>286.0</ele><time>2026-04-11T14:10:22.936Z</time></trkpt><trkpt lat="44.819915" lon="9.4276117"><ele>282.0</ele><time>2026-04-11T14:10:23.937Z</time></trkpt><trkpt lat="44.819785" lon="9.4276917"><ele>278.0</ele><time>2026-04-11T14:10:24.936Z</time></trkpt><trkpt lat="44.81966" lon="9.4277567"><ele>274.0</ele><time>2026-04-11T14:10:25.937Z</time></trkpt><trkpt lat="44.8195433" lon="9.42782"><ele>274.0</ele><time>2026-04-11T14:10:26.938Z</time></trkpt><trkpt lat="44.819435" lon="9.4278817"><ele>274.0</ele><time>2026-04-11T14:10:27.937Z</time></trkpt><trkpt lat="44.8193283" lon="9.427945"><ele>274.0</ele><time>2026-04-11T14:10:28.938Z</time></trkpt><trkpt lat="44.8192267" lon="9.428015"><ele>274.0</ele><time>2026-04-11T14:10:29.94Z</time></trkpt><trkpt lat="44.8191267" lon="9.4280883"><ele>273.0</ele><time>2026-04-11T14:10:30.939Z</time></trkpt><trkpt lat="44.8190267" lon="9.4281617"><ele>272.0</ele><time>2026-04-11T14:10:31.937Z</time></trkpt><trkpt lat="44.8189233" lon="9.4282333"><ele>271.0</ele><time>2026-04-11T14:10:32.937Z</time></trkpt><trkpt lat="44.8188183" lon="9.42831"><ele>270.0</ele><time>2026-04-11T14:10:33.937Z</time></trkpt><trkpt lat="44.8187117" lon="9.428395"><ele>270.0</ele><time>2026-04-11T14:10:34.937Z</time></trkpt><trkpt lat="44.8186083" lon="9.4284933"><ele>270.0</ele><time>2026-04-11T14:10:35.936Z</time></trkpt><trkpt lat="44.81852" lon="9.4286133"><ele>270.0</ele><time>2026-04-11T14:10:36.937Z</time></trkpt><trkpt lat="44.8184433" lon="9.428755"><ele>270.0</ele><time>2026-04-11T14:10:37.937Z</time></trkpt><trkpt lat="44.81837" lon="9.4289017"><ele>268.8</ele><time>2026-04-11T14:10:38.937Z</time></trkpt><trkpt lat="44.8182983" lon="9.4290333"><ele>267.6</ele><time>2026-04-11T14:10:39.937Z</time></trkpt><trkpt lat="44.81822" lon="9.429135"><ele>266.4</ele><time>2026-04-11T14:10:40.937Z</time></trkpt><trkpt lat="44.8181233" lon="9.4292017"><ele>265.2</ele><time>2026-04-11T14:10:41.942Z</time></trkpt><trkpt lat="44.818015" lon="9.4292467"><ele>264.0</ele><time>2026-04-11T14:10:42.938Z</time></trkpt><trkpt lat="44.817905" lon="9.4292917"><ele>264.0</ele><time>2026-04-11T14:10:43.937Z</time></trkpt><trkpt lat="44.8177983" lon="9.4293433"><ele>264.0</ele><time>2026-04-11T14:10:44.938Z</time></trkpt><trkpt lat="44.8176933" lon="9.4294083"><ele>264.0</ele><time>2026-04-11T14:10:45.937Z</time></trkpt><trkpt lat="44.8175867" lon="9.4294833"><ele>264.0</ele><time>2026-04-11T14:10:46.937Z</time></trkpt><trkpt lat="44.81748" lon="9.42956"><ele>263.0</ele><time>2026-04-11T14:10:47.939Z</time></trkpt><trkpt lat="44.8173767" lon="9.429635"><ele>262.0</ele><time>2026-04-11T14:10:48.943Z</time></trkpt><trkpt lat="44.817285" lon="9.4297083"><ele>261.0</ele><time>2026-04-11T14:10:49.937Z</time></trkpt><trkpt lat="44.8172067" lon="9.4297817"><ele>260.0</ele><time>2026-04-11T14:10:50.939Z</time></trkpt><trkpt lat="44.8171433" lon="9.4298533"><ele>259.0</ele><time>2026-04-11T14:10:51.938Z</time></trkpt><trkpt lat="44.8170917" lon="9.42991"><ele>259.0</ele><time>2026-04-11T14:10:52.937Z</time></trkpt><trkpt lat="44.8170233" lon="9.4299783"><ele>259.0</ele><time>2026-04-11T14:10:54.937Z</time></trkpt><trkpt lat="44.816965" lon="9.4300417"><ele>259.0</ele><time>2026-04-11T14:12:01.937Z</time></trkpt><trkpt lat="44.816875" lon="9.4301067"><ele>259.0</ele><time>2026-04-11T14:12:03.937Z</time></trkpt><trkpt lat="44.8168117" lon="9.430135"><ele>259.0</ele><time>2026-04-11T14:12:04.946Z</time></trkpt><trkpt lat="44.8167267" lon="9.4301417"><ele>259.0</ele><time>2026-04-11T14:12:05.937Z</time></trkpt><trkpt lat="44.8166183" lon="9.4301017"><ele>257.0</ele><time>2026-04-11T14:12:06.937Z</time></trkpt><trkpt lat="44.8165" lon="9.4300533"><ele>255.0</ele><time>2026-04-11T14:12:07.937Z</time></trkpt><trkpt lat="44.81637" lon="9.43"><ele>253.0</ele><time>2026-04-11T14:12:08.938Z</time></trkpt><trkpt lat="44.8162383" lon="9.4299467"><ele>251.0</ele><time>2026-04-11T14:12:09.94Z</time></trkpt><trkpt lat="44.8161133" lon="9.429895"><ele>251.0</ele><time>2026-04-11T14:12:10.937Z</time></trkpt><trkpt lat="44.8159867" lon="9.429845"><ele>251.0</ele><time>2026-04-11T14:12:11.944Z</time></trkpt><trkpt lat="44.81586" lon="9.4298"><ele>251.0</ele><time>2026-04-11T14:12:12.938Z</time></trkpt><trkpt lat="44.8157333" lon="9.4297967"><ele>251.0</ele><time>2026-04-11T14:12:13.938Z</time></trkpt><trkpt lat="44.8156133" lon="9.4298517"><ele>250.5</ele><time>2026-04-11T14:12:14.937Z</time></trkpt><trkpt lat="44.8155" lon="9.4299583"><ele>250.0</ele><time>2026-04-11T14:12:15.937Z</time></trkpt><trkpt lat="44.8153967" lon="9.430085"><ele>249.5</ele><time>2026-04-11T14:12:16.939Z</time></trkpt><trkpt lat="44.8153067" lon="9.4302067"><ele>249.0</ele><time>2026-04-11T14:12:17.937Z</time></trkpt><trkpt lat="44.8152217" lon="9.4303167"><ele>249.75</ele><time>2026-04-11T14:12:18.939Z</time></trkpt><trkpt lat="44.8151283" lon="9.4304283"><ele>250.5</ele><time>2026-04-11T14:12:19.939Z</time></trkpt><trkpt lat="44.8150367" lon="9.4305383"><ele>251.25</ele><time>2026-04-11T14:12:20.937Z</time></trkpt><trkpt lat="44.8149467" lon="9.43065"><ele>252.0</ele><time>2026-04-11T14:12:21.937Z</time></trkpt><trkpt lat="44.8148567" lon="9.4307633"><ele>252.0</ele><time>2026-04-11T14:12:22.937Z</time></trkpt><trkpt lat="44.8147683" lon="9.4308783"><ele>252.0</ele><time>2026-04-11T14:12:23.937Z</time></trkpt><trkpt lat="44.8146817" lon="9.43099"><ele>252.0</ele><time>2026-04-11T14:12:24.937Z</time></trkpt><trkpt lat="44.814595" lon="9.4310983"><ele>252.0</ele><time>2026-04-11T14:12:25.937Z</time></trkpt><trkpt lat="44.8145083" lon="9.4312067"><ele>251.5</ele><time>2026-04-11T14:12:26.937Z</time></trkpt><trkpt lat="44.8144217" lon="9.4313167"><ele>251.0</ele><time>2026-04-11T14:12:27.938Z</time></trkpt><trkpt lat="44.81433" lon="9.4314217"><ele>250.5</ele><time>2026-04-11T14:12:28.937Z</time></trkpt><trkpt lat="44.81423" lon="9.4315167"><ele>250.0</ele><time>2026-04-11T14:12:29.941Z</time></trkpt><trkpt lat="44.8141217" lon="9.4316033"><ele>250.0</ele><time>2026-04-11T14:12:30.937Z</time></trkpt><trkpt lat="44.81401" lon="9.4316717"><ele>250.0</ele><time>2026-04-11T14:12:31.938Z</time></trkpt><trkpt lat="44.8139" lon="9.4317217"><ele>250.0</ele><time>2026-04-11T14:12:32.938Z</time></trkpt><trkpt lat="44.8137867" lon="9.43176"><ele>250.0</ele><time>2026-04-11T14:12:33.937Z</time></trkpt><trkpt lat="44.8136733" lon="9.4317833"><ele>250.0</ele><time>2026-04-11T14:12:34.938Z</time></trkpt><trkpt lat="44.8135617" lon="9.4317983"><ele>250.0</ele><time>2026-04-11T14:12:35.938Z</time></trkpt><trkpt lat="44.8134467" lon="9.4318"><ele>250.0</ele><time>2026-04-11T14:12:36.937Z</time></trkpt><trkpt lat="44.8133283" lon="9.431785"><ele>250.0</ele><time>2026-04-11T14:12:37.937Z</time></trkpt><trkpt lat="44.813205" lon="9.4317467"><ele>250.75</ele><time>2026-04-11T14:12:38.937Z</time></trkpt><trkpt lat="44.8130833" lon="9.4316917"><ele>251.5</ele><time>2026-04-11T14:12:39.939Z</time></trkpt><trkpt lat="44.8129633" lon="9.4316317"><ele>252.25</ele><time>2026-04-11T14:12:40.94Z</time></trkpt><trkpt lat="44.81285" lon="9.4315717"><ele>253.0</ele><time>2026-04-11T14:12:41.938Z</time></trkpt><trkpt lat="44.812735" lon="9.43151"><ele>252.75</ele><time>2026-04-11T14:12:42.938Z</time></trkpt><trkpt lat="44.8126217" lon="9.4314467"><ele>252.5</ele><time>2026-04-11T14:12:43.938Z</time></trkpt><trkpt lat="44.81251" lon="9.4313817"><ele>252.25</ele><time>2026-04-11T14:12:44.937Z</time></trkpt><trkpt lat="44.8124017" lon="9.4313233"><ele>252.0</ele><time>2026-04-11T14:12:45.939Z</time></trkpt><trkpt lat="44.8122883" lon="9.4312817"><ele>252.0</ele><time>2026-04-11T14:12:46.938Z</time></trkpt><trkpt lat="44.8121667" lon="9.4312733"><ele>252.0</ele><time>2026-04-11T14:12:47.938Z</time></trkpt><trkpt lat="44.8120417" lon="9.4313017"><ele>252.0</ele><time>2026-04-11T14:12:48.942Z</time></trkpt><trkpt lat="44.8119167" lon="9.43136"><ele>252.0</ele><time>2026-04-11T14:12:49.938Z</time></trkpt><trkpt lat="44.8117917" lon="9.4314317"><ele>251.25</ele><time>2026-04-11T14:12:50.938Z</time></trkpt><trkpt lat="44.811675" lon="9.4315067"><ele>250.5</ele><time>2026-04-11T14:12:51.938Z</time></trkpt><trkpt lat="44.81156" lon="9.43158"><ele>249.75</ele><time>2026-04-11T14:12:52.938Z</time></trkpt><trkpt lat="44.8114433" lon="9.4316533"><ele>249.0</ele><time>2026-04-11T14:12:53.938Z</time></trkpt><trkpt lat="44.8113267" lon="9.4317217"><ele>249.0</ele><time>2026-04-11T14:12:54.939Z</time></trkpt><trkpt lat="44.8112067" lon="9.431785"><ele>249.0</ele><time>2026-04-11T14:12:55.937Z</time></trkpt><trkpt lat="44.8110783" lon="9.4318433"><ele>249.0</ele><time>2026-04-11T14:12:56.944Z</time></trkpt><trkpt lat="44.8109433" lon="9.4318817"><ele>249.0</ele><time>2026-04-11T14:12:57.938Z</time></trkpt><trkpt lat="44.8108083" lon="9.4319"><ele>248.25</ele><time>2026-04-11T14:12:58.938Z</time></trkpt><trkpt lat="44.8106683" lon="9.4318967"><ele>247.5</ele><time>2026-04-11T14:12:59.938Z</time></trkpt><trkpt lat="44.8105367" lon="9.4318717"><ele>246.75</ele><time>2026-04-11T14:13:00.939Z</time></trkpt><trkpt lat="44.8104033" lon="9.4318233"><ele>246.0</ele><time>2026-04-11T14:13:01.937Z</time></trkpt><trkpt lat="44.8102733" lon="9.43176"><ele>245.25</ele><time>2026-04-11T14:13:02.944Z</time></trkpt><trkpt lat="44.810145" lon="9.4316917"><ele>244.5</ele><time>2026-04-11T14:13:03.938Z</time></trkpt><trkpt lat="44.8100167" lon="9.4316267"><ele>243.75</ele><time>2026-04-11T14:13:04.937Z</time></trkpt><trkpt lat="44.8098917" lon="9.4315633"><ele>243.0</ele><time>2026-04-11T14:13:05.937Z</time></trkpt><trkpt lat="44.80977" lon="9.4315017"><ele>243.0</ele><time>2026-04-11T14:13:06.937Z</time></trkpt><trkpt lat="44.80965" lon="9.4314367"><ele>243.0</ele><time>2026-04-11T14:13:07.941Z</time></trkpt><trkpt lat="44.80953" lon="9.4313733"><ele>243.0</ele><time>2026-04-11T14:13:08.937Z</time></trkpt><trkpt lat="44.809415" lon="9.4313117"><ele>243.0</ele><time>2026-04-11T14:13:09.937Z</time></trkpt><trkpt lat="44.809295" lon="9.43125"><ele>245.0</ele><time>2026-04-11T14:13:10.937Z</time></trkpt><trkpt lat="44.8091733" lon="9.4311833"><ele>247.0</ele><time>2026-04-11T14:13:11.937Z</time></trkpt><trkpt lat="44.809055" lon="9.4311183"><ele>249.0</ele><time>2026-04-11T14:13:12.937Z</time></trkpt><trkpt lat="44.80894" lon="9.4310567"><ele>251.0</ele><time>2026-04-11T14:13:13.938Z</time></trkpt><trkpt lat="44.8088233" lon="9.4309983"><ele>251.0</ele><time>2026-04-11T14:13:14.937Z</time></trkpt><trkpt lat="44.8087083" lon="9.4309433"><ele>251.0</ele><time>2026-04-11T14:13:15.937Z</time></trkpt><trkpt lat="44.8085917" lon="9.4308833"><ele>251.0</ele><time>2026-04-11T14:13:16.938Z</time></trkpt><trkpt lat="44.8084717" lon="9.4308217"><ele>251.0</ele><time>2026-04-11T14:13:17.938Z</time></trkpt><trkpt lat="44.80835" lon="9.4307567"><ele>250.0</ele><time>2026-04-11T14:13:18.937Z</time></trkpt><trkpt lat="44.8082317" lon="9.43069"><ele>249.0</ele><time>2026-04-11T14:13:19.945Z</time></trkpt><trkpt lat="44.8081117" lon="9.4306317"><ele>248.0</ele><time>2026-04-11T14:13:20.938Z</time></trkpt><trkpt lat="44.80799" lon="9.4305983"><ele>247.0</ele><time>2026-04-11T14:13:21.938Z</time></trkpt><trkpt lat="44.8078683" lon="9.4306067"><ele>247.0</ele><time>2026-04-11T14:13:22.938Z</time></trkpt><trkpt lat="44.8077567" lon="9.4306583"><ele>247.0</ele><time>2026-04-11T14:13:23.939Z</time></trkpt><trkpt lat="44.8076617" lon="9.4307517"><ele>247.0</ele><time>2026-04-11T14:13:24.938Z</time></trkpt><trkpt lat="44.807585" lon="9.430885"><ele>247.0</ele><time>2026-04-11T14:13:25.941Z</time></trkpt><trkpt lat="44.80754" lon="9.43105"><ele>245.5</ele><time>2026-04-11T14:13:26.938Z</time></trkpt><trkpt lat="44.8075333" lon="9.4312283"><ele>244.0</ele><time>2026-04-11T14:13:27.937Z</time></trkpt><trkpt lat="44.8075717" lon="9.4313983"><ele>242.5</ele><time>2026-04-11T14:13:28.937Z</time></trkpt><trkpt lat="44.8076417" lon="9.4315367"><ele>241.0</ele><time>2026-04-11T14:13:29.937Z</time></trkpt><trkpt lat="44.8077367" lon="9.4316483"><ele>240.5</ele><time>2026-04-11T14:13:30.943Z</time></trkpt><trkpt lat="44.8078433" lon="9.4317367"><ele>240.0</ele><time>2026-04-11T14:13:31.937Z</time></trkpt><trkpt lat="44.8079533" lon="9.4318183"><ele>239.5</ele><time>2026-04-11T14:13:32.939Z</time></trkpt><trkpt lat="44.8080567" lon="9.4319017"><ele>239.0</ele><time>2026-04-11T14:13:33.938Z</time></trkpt><trkpt lat="44.8081533" lon="9.43198"><ele>239.00000000000003</ele><time>2026-04-11T14:13:34.937Z</time></trkpt><trkpt lat="44.808245" lon="9.4320567"><ele>239.0</ele><time>2026-04-11T14:13:35.939Z</time></trkpt><trkpt lat="44.8083317" lon="9.4321317"><ele>239.0</ele><time>2026-04-11T14:13:36.94Z</time></trkpt><trkpt lat="44.8084067" lon="9.4322067"><ele>239.0</ele><time>2026-04-11T14:13:37.939Z</time></trkpt><trkpt lat="44.8084633" lon="9.4322867"><ele>239.00000000000003</ele><time>2026-04-11T14:13:38.939Z</time></trkpt><trkpt lat="44.8084933" lon="9.43237"><ele>239.0</ele><time>2026-04-11T14:13:39.939Z</time></trkpt><trkpt lat="44.8084367" lon="9.4325083"><ele>236.6</ele><time>2026-04-11T14:13:41.94Z</time></trkpt><trkpt lat="44.8083567" lon="9.43252"><ele>234.2</ele><time>2026-04-11T14:13:42.938Z</time></trkpt><trkpt lat="44.8082667" lon="9.4324917"><ele>231.79999999999998</ele><time>2026-04-11T14:13:43.941Z</time></trkpt><trkpt lat="44.8081667" lon="9.4324233"><ele>229.39999999999998</ele><time>2026-04-11T14:13:44.938Z</time></trkpt><trkpt lat="44.80806" lon="9.4323417"><ele>227.0</ele><time>2026-04-11T14:13:45.937Z</time></trkpt><trkpt lat="44.807955" lon="9.4322717"><ele>227.0</ele><time>2026-04-11T14:13:46.937Z</time></trkpt><trkpt lat="44.8078533" lon="9.43221"><ele>227.0</ele><time>2026-04-11T14:13:47.938Z</time></trkpt><trkpt lat="44.8077517" lon="9.4321467"><ele>227.0</ele><time>2026-04-11T14:13:48.938Z</time></trkpt><trkpt lat="44.8076533" lon="9.432085"><ele>227.0</ele><time>2026-04-11T14:13:49.938Z</time></trkpt><trkpt lat="44.8075633" lon="9.432025"><ele>227.0</ele><time>2026-04-11T14:13:50.944Z</time></trkpt><trkpt lat="44.8074883" lon="9.4319717"><ele>226.66666666666669</ele><time>2026-04-11T14:13:51.938Z</time></trkpt><trkpt lat="44.8074233" lon="9.431925"><ele>226.33333333333334</ele><time>2026-04-11T14:13:52.938Z</time></trkpt><trkpt lat="44.8073267" lon="9.4318567"><ele>226.0</ele><time>2026-04-11T14:13:54.938Z</time></trkpt><trkpt lat="44.8072583" lon="9.4318467"><ele>225.66666666666669</ele><time>2026-04-11T14:13:56.938Z</time></trkpt><trkpt lat="44.8072317" lon="9.4319717"><ele>225.33333333333334</ele><time>2026-04-11T14:13:58.937Z</time></trkpt><trkpt lat="44.8072483" lon="9.4320883"><ele>225.0</ele><time>2026-04-11T14:13:59.938Z</time></trkpt><trkpt lat="44.8072867" lon="9.4322183"><ele>225.0</ele><time>2026-04-11T14:14:00.939Z</time></trkpt><trkpt lat="44.807335" lon="9.432355"><ele>225.0</ele><time>2026-04-11T14:14:01.938Z</time></trkpt><trkpt lat="44.8073883" lon="9.432505"><ele>225.0</ele><time>2026-04-11T14:14:02.94Z</time></trkpt><trkpt lat="44.8074467" lon="9.432675"><ele>225.0</ele><time>2026-04-11T14:14:03.94Z</time></trkpt><trkpt lat="44.807505" lon="9.4328483"><ele>224.0</ele><time>2026-04-11T14:14:04.944Z</time></trkpt><trkpt lat="44.8075667" lon="9.43303"><ele>223.0</ele><time>2026-04-11T14:14:05.938Z</time></trkpt><trkpt lat="44.8076283" lon="9.43321"><ele>222.0</ele><time>2026-04-11T14:14:06.937Z</time></trkpt><trkpt lat="44.8076883" lon="9.43339"><ele>221.0</ele><time>2026-04-11T14:14:07.937Z</time></trkpt><trkpt lat="44.8077583" lon="9.4335767"><ele>221.0</ele><time>2026-04-11T14:14:08.939Z</time></trkpt><trkpt lat="44.807825" lon="9.43377"><ele>221.0</ele><time>2026-04-11T14:14:09.938Z</time></trkpt><trkpt lat="44.8078917" lon="9.4339633"><ele>221.0</ele><time>2026-04-11T14:14:10.942Z</time></trkpt><trkpt lat="44.8079583" lon="9.434155"><ele>221.0</ele><time>2026-04-11T14:14:11.938Z</time></trkpt><trkpt lat="44.80802" lon="9.43434"><ele>221.0</ele><time>2026-04-11T14:14:12.937Z</time></trkpt><trkpt lat="44.80808" lon="9.43452"><ele>221.0</ele><time>2026-04-11T14:14:13.939Z</time></trkpt><trkpt lat="44.8081383" lon="9.4347033"><ele>221.0</ele><time>2026-04-11T14:14:14.94Z</time></trkpt><trkpt lat="44.8082017" lon="9.4348883"><ele>221.0</ele><time>2026-04-11T14:14:15.938Z</time></trkpt><trkpt lat="44.8082667" lon="9.4350667"><ele>221.0</ele><time>2026-04-11T14:14:16.939Z</time></trkpt><trkpt lat="44.8083317" lon="9.43525"><ele>221.0</ele><time>2026-04-11T14:14:17.941Z</time></trkpt><trkpt lat="44.8084" lon="9.4354383"><ele>221.0</ele><time>2026-04-11T14:14:18.941Z</time></trkpt><trkpt lat="44.8084633" lon="9.4356217"><ele>221.25</ele><time>2026-04-11T14:14:19.94Z</time></trkpt><trkpt lat="44.8085283" lon="9.4358"><ele>221.5</ele><time>2026-04-11T14:14:20.938Z</time></trkpt><trkpt lat="44.8085933" lon="9.4359833"><ele>221.75</ele><time>2026-04-11T14:14:21.948Z</time></trkpt><trkpt lat="44.8086583" lon="9.4361683"><ele>222.0</ele><time>2026-04-11T14:14:22.938Z</time></trkpt><trkpt lat="44.8087233" lon="9.4363567"><ele>222.0</ele><time>2026-04-11T14:14:23.94Z</time></trkpt><trkpt lat="44.80879" lon="9.4365433"><ele>222.0</ele><time>2026-04-11T14:14:24.94Z</time></trkpt><trkpt lat="44.808855" lon="9.4367233"><ele>222.0</ele><time>2026-04-11T14:14:25.94Z</time></trkpt><trkpt lat="44.8089217" lon="9.436895"><ele>222.0</ele><time>2026-04-11T14:14:26.938Z</time></trkpt><trkpt lat="44.8089933" lon="9.437065"><ele>222.0</ele><time>2026-04-11T14:14:27.938Z</time></trkpt><trkpt lat="44.80907" lon="9.4372233"><ele>222.0</ele><time>2026-04-11T14:14:28.938Z</time></trkpt><trkpt lat="44.8091533" lon="9.437375"><ele>222.0</ele><time>2026-04-11T14:14:29.937Z</time></trkpt><trkpt lat="44.8092467" lon="9.4375217"><ele>222.0</ele><time>2026-04-11T14:14:30.939Z</time></trkpt><trkpt lat="44.809345" lon="9.43767"><ele>222.0</ele><time>2026-04-11T14:14:31.938Z</time></trkpt><trkpt lat="44.8094417" lon="9.43782"><ele>222.0</ele><time>2026-04-11T14:14:32.937Z</time></trkpt><trkpt lat="44.8095383" lon="9.43797"><ele>222.0</ele><time>2026-04-11T14:14:33.94Z</time></trkpt><trkpt lat="44.809635" lon="9.4381217"><ele>222.0</ele><time>2026-04-11T14:14:34.94Z</time></trkpt><trkpt lat="44.8097383" lon="9.4382733"><ele>223.75</ele><time>2026-04-11T14:14:35.938Z</time></trkpt><trkpt lat="44.8098433" lon="9.4384283"><ele>225.5</ele><time>2026-04-11T14:14:36.94Z</time></trkpt><trkpt lat="44.809945" lon="9.4385783"><ele>227.25</ele><time>2026-04-11T14:14:37.939Z</time></trkpt><trkpt lat="44.81004" lon="9.4387183"><ele>229.0</ele><time>2026-04-11T14:14:38.939Z</time></trkpt><trkpt lat="44.8101283" lon="9.4388517"><ele>227.0</ele><time>2026-04-11T14:14:39.941Z</time></trkpt><trkpt lat="44.810215" lon="9.438985"><ele>225.0</ele><time>2026-04-11T14:14:40.938Z</time></trkpt><trkpt lat="44.810305" lon="9.4391233"><ele>223.0</ele><time>2026-04-11T14:14:41.941Z</time></trkpt><trkpt lat="44.8103967" lon="9.4392633"><ele>221.0</ele><time>2026-04-11T14:14:42.938Z</time></trkpt><trkpt lat="44.81049" lon="9.4394017"><ele>221.0</ele><time>2026-04-11T14:14:43.937Z</time></trkpt><trkpt lat="44.810575" lon="9.4395383"><ele>221.0</ele><time>2026-04-11T14:14:44.938Z</time></trkpt><trkpt lat="44.8106467" lon="9.4396817"><ele>221.0</ele><time>2026-04-11T14:14:45.939Z</time></trkpt><trkpt lat="44.8107133" lon="9.4398233"><ele>221.0</ele><time>2026-04-11T14:14:46.937Z</time></trkpt><trkpt lat="44.8107733" lon="9.4399667"><ele>222.0</ele><time>2026-04-11T14:14:47.937Z</time></trkpt><trkpt lat="44.8108333" lon="9.4401117"><ele>223.0</ele><time>2026-04-11T14:14:48.938Z</time></trkpt><trkpt lat="44.8108767" lon="9.44027"><ele>224.0</ele><time>2026-04-11T14:14:49.938Z</time></trkpt><trkpt lat="44.8109167" lon="9.4404333"><ele>225.0</ele><time>2026-04-11T14:14:50.94Z</time></trkpt><trkpt lat="44.8109533" lon="9.440605"><ele>225.5</ele><time>2026-04-11T14:14:51.938Z</time></trkpt><trkpt lat="44.8109883" lon="9.44077"><ele>226.0</ele><time>2026-04-11T14:14:52.938Z</time></trkpt><trkpt lat="44.8110183" lon="9.4409383"><ele>226.5</ele><time>2026-04-11T14:14:53.938Z</time></trkpt><trkpt lat="44.811045" lon="9.441115"><ele>227.0</ele><time>2026-04-11T14:14:54.944Z</time></trkpt><trkpt lat="44.8110683" lon="9.4412983"><ele>225.0</ele><time>2026-04-11T14:14:55.94Z</time></trkpt><trkpt lat="44.81109" lon="9.4414817"><ele>223.0</ele><time>2026-04-11T14:14:56.938Z</time></trkpt><trkpt lat="44.8111133" lon="9.4416667"><ele>221.0</ele><time>2026-04-11T14:14:57.94Z</time></trkpt><trkpt lat="44.811135" lon="9.4418567"><ele>219.0</ele><time>2026-04-11T14:14:58.938Z</time></trkpt><trkpt lat="44.8111533" lon="9.442045"><ele>219.39999999999998</ele><time>2026-04-11T14:14:59.944Z</time></trkpt><trkpt lat="44.8111567" lon="9.4421933"><ele>219.79999999999998</ele><time>2026-04-11T14:15:00.941Z</time></trkpt><trkpt lat="44.8111483" lon="9.4423183"><ele>220.20000000000002</ele><time>2026-04-11T14:15:01.941Z</time></trkpt><trkpt lat="44.8111383" lon="9.442415"><ele>220.60000000000002</ele><time>2026-04-11T14:15:02.938Z</time></trkpt><trkpt lat="44.8110767" lon="9.44252"><ele>221.0</ele><time>2026-04-11T14:15:04.938Z</time></trkpt><trkpt lat="44.810965" lon="9.4424383"><ele>222.20000000000002</ele><time>2026-04-11T14:15:06.939Z</time></trkpt><trkpt lat="44.810905" lon="9.4423133"><ele>223.40000000000003</ele><time>2026-04-11T14:15:07.937Z</time></trkpt><trkpt lat="44.8108583" lon="9.44217"><ele>224.6</ele><time>2026-04-11T14:15:08.938Z</time></trkpt><trkpt lat="44.8108117" lon="9.44202"><ele>225.8</ele><time>2026-04-11T14:15:09.939Z</time></trkpt><trkpt lat="44.810765" lon="9.441875"><ele>227.0</ele><time>2026-04-11T14:15:10.938Z</time></trkpt><trkpt lat="44.8107167" lon="9.441735"><ele>227.0</ele><time>2026-04-11T14:15:11.938Z</time></trkpt><trkpt lat="44.810665" lon="9.4415917"><ele>227.0</ele><time>2026-04-11T14:15:12.938Z</time></trkpt><trkpt lat="44.8106083" lon="9.4414633"><ele>227.0</ele><time>2026-04-11T14:15:13.938Z</time></trkpt><trkpt lat="44.81054" lon="9.4413667"><ele>227.0</ele><time>2026-04-11T14:15:14.938Z</time></trkpt><trkpt lat="44.8104683" lon="9.44131"><ele>227.0</ele><time>2026-04-11T14:15:15.947Z</time></trkpt><trkpt lat="44.810405" lon="9.4412967"><ele>227.0</ele><time>2026-04-11T14:15:16.938Z</time></trkpt><trkpt lat="44.8103083" lon="9.44138"><ele>227.0</ele><time>2026-04-11T14:15:18.939Z</time></trkpt><trkpt lat="44.8102833" lon="9.4414667"><ele>227.0</ele><time>2026-04-11T14:15:19.938Z</time></trkpt><trkpt lat="44.8102667" lon="9.4415917"><ele>227.0</ele><time>2026-04-11T14:15:20.938Z</time></trkpt><trkpt lat="44.81026" lon="9.4417383"><ele>227.0</ele><time>2026-04-11T14:15:21.94Z</time></trkpt><trkpt lat="44.8102617" lon="9.4418917"><ele>227.0</ele><time>2026-04-11T14:15:22.944Z</time></trkpt><trkpt lat="44.8102683" lon="9.4420617"><ele>227.0</ele><time>2026-04-11T14:15:23.938Z</time></trkpt><trkpt lat="44.8102933" lon="9.4422433"><ele>227.0</ele><time>2026-04-11T14:15:24.937Z</time></trkpt><trkpt lat="44.8103333" lon="9.4424233"><ele>227.0</ele><time>2026-04-11T14:15:25.939Z</time></trkpt><trkpt lat="44.8103783" lon="9.4426017"><ele>227.25</ele><time>2026-04-11T14:15:26.938Z</time></trkpt><trkpt lat="44.81042" lon="9.4427817"><ele>227.5</ele><time>2026-04-11T14:15:27.947Z</time></trkpt><trkpt lat="44.810455" lon="9.442965"><ele>227.75</ele><time>2026-04-11T14:15:28.937Z</time></trkpt><trkpt lat="44.81049" lon="9.4431517"><ele>228.0</ele><time>2026-04-11T14:15:29.939Z</time></trkpt><trkpt lat="44.8105217" lon="9.4433367"><ele>228.5</ele><time>2026-04-11T14:15:30.938Z</time></trkpt><trkpt lat="44.8105483" lon="9.443515"><ele>229.0</ele><time>2026-04-11T14:15:31.938Z</time></trkpt><trkpt lat="44.8105667" lon="9.4436883"><ele>229.5</ele><time>2026-04-11T14:15:32.938Z</time></trkpt><trkpt lat="44.8105833" lon="9.4438583"><ele>230.0</ele><time>2026-04-11T14:15:33.939Z</time></trkpt><trkpt lat="44.8105983" lon="9.4440267"><ele>230.0</ele><time>2026-04-11T14:15:34.939Z</time></trkpt><trkpt lat="44.8106117" lon="9.4442"><ele>230.0</ele><time>2026-04-11T14:15:35.939Z</time></trkpt><trkpt lat="44.81061" lon="9.4443717"><ele>230.0</ele><time>2026-04-11T14:15:36.937Z</time></trkpt><trkpt lat="44.8105883" lon="9.444545"><ele>230.0</ele><time>2026-04-11T14:15:37.945Z</time></trkpt><trkpt lat="44.8105467" lon="9.44472"><ele>230.0</ele><time>2026-04-11T14:15:38.939Z</time></trkpt><trkpt lat="44.8104983" lon="9.4448933"><ele>230.0</ele><time>2026-04-11T14:15:39.937Z</time></trkpt><trkpt lat="44.8104583" lon="9.4450683"><ele>230.0</ele><time>2026-04-11T14:15:40.938Z</time></trkpt><trkpt lat="44.810425" lon="9.4452383"><ele>230.0</ele><time>2026-04-11T14:15:41.937Z</time></trkpt><trkpt lat="44.8104067" lon="9.4454067"><ele>230.0</ele><time>2026-04-11T14:15:42.94Z</time></trkpt><trkpt lat="44.8104017" lon="9.44558"><ele>230.0</ele><time>2026-04-11T14:15:43.938Z</time></trkpt><trkpt lat="44.8104133" lon="9.4457667"><ele>230.0</ele><time>2026-04-11T14:15:44.944Z</time></trkpt><trkpt lat="44.81044" lon="9.4459667"><ele>230.0</ele><time>2026-04-11T14:15:45.939Z</time></trkpt><trkpt lat="44.8104683" lon="9.446165"><ele>230.5</ele><time>2026-04-11T14:15:46.938Z</time></trkpt><trkpt lat="44.8104917" lon="9.44636"><ele>231.0</ele><time>2026-04-11T14:15:47.938Z</time></trkpt><trkpt lat="44.81051" lon="9.4465567"><ele>231.5</ele><time>2026-04-11T14:15:48.939Z</time></trkpt><trkpt lat="44.8105317" lon="9.446755"><ele>232.0</ele><time>2026-04-11T14:15:49.94Z</time></trkpt><trkpt lat="44.81056" lon="9.446955"><ele>232.5</ele><time>2026-04-11T14:15:50.945Z</time></trkpt><trkpt lat="44.8105983" lon="9.4471517"><ele>233.0</ele><time>2026-04-11T14:15:51.939Z</time></trkpt><trkpt lat="44.810645" lon="9.447335"><ele>233.5</ele><time>2026-04-11T14:15:52.937Z</time></trkpt><trkpt lat="44.810695" lon="9.4475067"><ele>234.0</ele><time>2026-04-11T14:15:53.937Z</time></trkpt><trkpt lat="44.81074" lon="9.44767"><ele>234.0</ele><time>2026-04-11T14:15:54.938Z</time></trkpt><trkpt lat="44.8107833" lon="9.4478333"><ele>234.0</ele><time>2026-04-11T14:15:55.939Z</time></trkpt><trkpt lat="44.81083" lon="9.447995"><ele>234.0</ele><time>2026-04-11T14:15:56.937Z</time></trkpt><trkpt lat="44.8108783" lon="9.4481517"><ele>234.0</ele><time>2026-04-11T14:15:57.944Z</time></trkpt><trkpt lat="44.81093" lon="9.44831"><ele>235.25</ele><time>2026-04-11T14:15:58.937Z</time></trkpt><trkpt lat="44.8109783" lon="9.4484733"><ele>236.5</ele><time>2026-04-11T14:15:59.937Z</time></trkpt><trkpt lat="44.8110183" lon="9.4486283"><ele>237.75</ele><time>2026-04-11T14:16:00.937Z</time></trkpt><trkpt lat="44.811045" lon="9.44878"><ele>239.0</ele><time>2026-04-11T14:16:01.938Z</time></trkpt><trkpt lat="44.8110633" lon="9.448925"><ele>237.0</ele><time>2026-04-11T14:16:02.937Z</time></trkpt><trkpt lat="44.8110733" lon="9.4490667"><ele>234.99999999999997</ele><time>2026-04-11T14:16:03.938Z</time></trkpt><trkpt lat="44.8110783" lon="9.4492083"><ele>232.99999999999997</ele><time>2026-04-11T14:16:04.937Z</time></trkpt><trkpt lat="44.8110783" lon="9.4493483"><ele>231.0</ele><time>2026-04-11T14:16:05.937Z</time></trkpt><trkpt lat="44.8110733" lon="9.4494883"><ele>229.0</ele><time>2026-04-11T14:16:06.937Z</time></trkpt><trkpt lat="44.8110633" lon="9.4496183"><ele>229.0</ele><time>2026-04-11T14:16:07.938Z</time></trkpt><trkpt lat="44.811055" lon="9.4497467"><ele>228.99999999999997</ele><time>2026-04-11T14:16:08.939Z</time></trkpt><trkpt lat="44.8110583" lon="9.4498783"><ele>228.99999999999997</ele><time>2026-04-11T14:16:09.938Z</time></trkpt><trkpt lat="44.811075" lon="9.4500083"><ele>229.0</ele><time>2026-04-11T14:16:10.938Z</time></trkpt><trkpt lat="44.811095" lon="9.45013"><ele>229.0</ele><time>2026-04-11T14:16:11.944Z</time></trkpt><trkpt lat="44.8111167" lon="9.4502467"><ele>229.0</ele><time>2026-04-11T14:16:12.94Z</time></trkpt><trkpt lat="44.8111333" lon="9.4503717"><ele>228.99999999999997</ele><time>2026-04-11T14:16:13.938Z</time></trkpt><trkpt lat="44.8111517" lon="9.4504933"><ele>228.99999999999997</ele><time>2026-04-11T14:16:14.937Z</time></trkpt><trkpt lat="44.8111667" lon="9.45062"><ele>229.0</ele><time>2026-04-11T14:16:15.938Z</time></trkpt><trkpt lat="44.811185" lon="9.4507583"><ele>229.0</ele><time>2026-04-11T14:16:16.937Z</time></trkpt><trkpt lat="44.8112017" lon="9.4508983"><ele>229.2</ele><time>2026-04-11T14:16:17.937Z</time></trkpt><trkpt lat="44.81122" lon="9.4510367"><ele>229.39999999999998</ele><time>2026-04-11T14:16:18.937Z</time></trkpt><trkpt lat="44.8112383" lon="9.4511767"><ele>229.6</ele><time>2026-04-11T14:16:19.938Z</time></trkpt><trkpt lat="44.8112583" lon="9.4513117"><ele>229.8</ele><time>2026-04-11T14:16:20.938Z</time></trkpt><trkpt lat="44.8112783" lon="9.4514433"><ele>230.0</ele><time>2026-04-11T14:16:21.938Z</time></trkpt><trkpt lat="44.811295" lon="9.4515733"><ele>230.33333333333334</ele><time>2026-04-11T14:16:22.942Z</time></trkpt><trkpt lat="44.8113133" lon="9.451695"><ele>230.66666666666669</ele><time>2026-04-11T14:16:23.938Z</time></trkpt><trkpt lat="44.8113267" lon="9.451795"><ele>231.0</ele><time>2026-04-11T14:16:24.938Z</time></trkpt><trkpt lat="44.8113383" lon="9.4519383"><ele>231.33333333333331</ele><time>2026-04-11T14:16:26.938Z</time></trkpt><trkpt lat="44.811345" lon="9.452035"><ele>231.66666666666666</ele><time>2026-04-11T14:16:28.938Z</time></trkpt><trkpt lat="44.8113667" lon="9.4521367"><ele>232.0</ele><time>2026-04-11T14:16:32.94Z</time></trkpt><trkpt lat="44.8114333" lon="9.45213"><ele>231.99999999999997</ele><time>2026-04-11T14:16:35.939Z</time></trkpt><trkpt lat="44.8115033" lon="9.45204"><ele>232.0</ele><time>2026-04-11T14:16:37.937Z</time></trkpt><trkpt lat="44.811555" lon="9.4519733"><ele>232.0</ele><time>2026-04-11T14:16:38.938Z</time></trkpt><trkpt lat="44.8116233" lon="9.4519283"><ele>232.0</ele><time>2026-04-11T14:16:39.937Z</time></trkpt><trkpt lat="44.8117017" lon="9.4519167"><ele>231.99999999999997</ele><time>2026-04-11T14:16:40.938Z</time></trkpt><trkpt lat="44.811795" lon="9.4519383"><ele>232.0</ele><time>2026-04-11T14:16:41.939Z</time></trkpt><trkpt lat="44.811895" lon="9.451965"><ele>230.33333333333331</ele><time>2026-04-11T14:16:42.937Z</time></trkpt><trkpt lat="44.811995" lon="9.45197"><ele>228.66666666666666</ele><time>2026-04-11T14:16:43.938Z</time></trkpt><trkpt lat="44.8120917" lon="9.4519717"><ele>227.0</ele><time>2026-04-11T14:16:44.941Z</time></trkpt><trkpt lat="44.81218" lon="9.45198"><ele>225.33333333333331</ele><time>2026-04-11T14:16:45.938Z</time></trkpt><trkpt lat="44.8122517" lon="9.4519933"><ele>223.66666666666666</ele><time>2026-04-11T14:16:46.937Z</time></trkpt><trkpt lat="44.812315" lon="9.4520133"><ele>222.0</ele><time>2026-04-11T14:16:47.938Z</time></trkpt><trkpt lat="44.8123833" lon="9.4520517"><ele>222.25</ele><time>2026-04-11T14:16:49.938Z</time></trkpt><trkpt lat="44.8124517" lon="9.45216"><ele>222.5</ele><time>2026-04-11T14:18:50.938Z</time></trkpt><trkpt lat="44.81253" lon="9.452345"><ele>222.75</ele><time>2026-04-11T14:18:52.937Z</time></trkpt><trkpt lat="44.8125767" lon="9.4524633"><ele>223.0</ele><time>2026-04-11T14:18:53.937Z</time></trkpt><trkpt lat="44.8126333" lon="9.4526133"><ele>220.0</ele><time>2026-04-11T14:18:54.937Z</time></trkpt><trkpt lat="44.8127067" lon="9.45278"><ele>217.0</ele><time>2026-04-11T14:18:55.938Z</time></trkpt><trkpt lat="44.8127883" lon="9.4529583"><ele>214.0</ele><time>2026-04-11T14:18:56.946Z</time></trkpt><trkpt lat="44.812875" lon="9.4531517"><ele>214.0</ele><time>2026-04-11T14:18:57.939Z</time></trkpt><trkpt lat="44.81296" lon="9.4533483"><ele>214.0</ele><time>2026-04-11T14:18:58.938Z</time></trkpt><trkpt lat="44.8130517" lon="9.4535533"><ele>214.0</ele><time>2026-04-11T14:18:59.937Z</time></trkpt><trkpt lat="44.8131467" lon="9.4537667"><ele>216.0</ele><time>2026-04-11T14:19:00.94Z</time></trkpt><trkpt lat="44.813245" lon="9.4539833"><ele>218.0</ele><time>2026-04-11T14:19:01.94Z</time></trkpt><trkpt lat="44.8133367" lon="9.454195"><ele>220.0</ele><time>2026-04-11T14:19:02.938Z</time></trkpt><trkpt lat="44.8134267" lon="9.45439"><ele>218.33333333333331</ele><time>2026-04-11T14:19:03.938Z</time></trkpt><trkpt lat="44.8135133" lon="9.4545817"><ele>216.66666666666669</ele><time>2026-04-11T14:19:04.937Z</time></trkpt><trkpt lat="44.8136017" lon="9.45478"><ele>215.0</ele><time>2026-04-11T14:19:05.937Z</time></trkpt><trkpt lat="44.8136933" lon="9.4549817"><ele>215.0</ele><time>2026-04-11T14:19:06.937Z</time></trkpt><trkpt lat="44.8137867" lon="9.4551867"><ele>215.0</ele><time>2026-04-11T14:19:07.939Z</time></trkpt><trkpt lat="44.81388" lon="9.4553917"><ele>215.0</ele><time>2026-04-11T14:19:08.938Z</time></trkpt><trkpt lat="44.8139733" lon="9.4555917"><ele>216.66666666666669</ele><time>2026-04-11T14:19:09.938Z</time></trkpt><trkpt lat="44.8140633" lon="9.4557967"><ele>218.33333333333331</ele><time>2026-04-11T14:19:10.943Z</time></trkpt><trkpt lat="44.8141517" lon="9.456005"><ele>220.0</ele><time>2026-04-11T14:19:11.937Z</time></trkpt><trkpt lat="44.8142433" lon="9.4562117"><ele>217.66666666666666</ele><time>2026-04-11T14:19:12.939Z</time></trkpt><trkpt lat="44.8143333" lon="9.4564117"><ele>215.33333333333331</ele><time>2026-04-11T14:19:13.937Z</time></trkpt><trkpt lat="44.8144267" lon="9.4566167"><ele>213.0</ele><time>2026-04-11T14:19:14.938Z</time></trkpt><trkpt lat="44.8145183" lon="9.456825"><ele>213.0</ele><time>2026-04-11T14:19:15.937Z</time></trkpt><trkpt lat="44.8146067" lon="9.45703"><ele>213.0</ele><time>2026-04-11T14:19:16.937Z</time></trkpt><trkpt lat="44.8147" lon="9.4572333"><ele>213.0</ele><time>2026-04-11T14:19:17.937Z</time></trkpt><trkpt lat="44.814795" lon="9.45744"><ele>217.33333333333331</ele><time>2026-04-11T14:19:18.937Z</time></trkpt><trkpt lat="44.81489" lon="9.4576433"><ele>221.66666666666666</ele><time>2026-04-11T14:19:19.941Z</time></trkpt><trkpt lat="44.8149817" lon="9.4578433"><ele>226.0</ele><time>2026-04-11T14:19:20.938Z</time></trkpt><trkpt lat="44.8150683" lon="9.458045"><ele>224.66666666666666</ele><time>2026-04-11T14:19:21.937Z</time></trkpt><trkpt lat="44.8151483" lon="9.4582483"><ele>223.33333333333331</ele><time>2026-04-11T14:19:22.937Z</time></trkpt><trkpt lat="44.8152167" lon="9.4584617"><ele>222.0</ele><time>2026-04-11T14:19:23.937Z</time></trkpt><trkpt lat="44.8152733" lon="9.45868"><ele>222.33333333333331</ele><time>2026-04-11T14:19:24.938Z</time></trkpt><trkpt lat="44.8153167" lon="9.458905"><ele>222.66666666666666</ele><time>2026-04-11T14:19:25.937Z</time></trkpt><trkpt lat="44.815355" lon="9.459135"><ele>223.0</ele><time>2026-04-11T14:19:26.938Z</time></trkpt><trkpt lat="44.81539" lon="9.4593683"><ele>223.0</ele><time>2026-04-11T14:19:27.937Z</time></trkpt><trkpt lat="44.8154167" lon="9.4596033"><ele>223.0</ele><time>2026-04-11T14:19:28.939Z</time></trkpt><trkpt lat="44.8154383" lon="9.4598383"><ele>223.0</ele><time>2026-04-11T14:19:29.938Z</time></trkpt><trkpt lat="44.8154583" lon="9.460075"><ele>222.66666666666666</ele><time>2026-04-11T14:19:30.939Z</time></trkpt><trkpt lat="44.815475" lon="9.4603133"><ele>222.33333333333331</ele><time>2026-04-11T14:19:31.944Z</time></trkpt><trkpt lat="44.8155" lon="9.4605533"><ele>222.0</ele><time>2026-04-11T14:19:32.938Z</time></trkpt><trkpt lat="44.8155233" lon="9.460795"><ele>222.66666666666669</ele><time>2026-04-11T14:19:33.937Z</time></trkpt><trkpt lat="44.8155467" lon="9.4610367"><ele>223.33333333333334</ele><time>2026-04-11T14:19:34.937Z</time></trkpt><trkpt lat="44.8155733" lon="9.4612783"><ele>224.0</ele><time>2026-04-11T14:19:35.938Z</time></trkpt><trkpt lat="44.8156033" lon="9.4615217"><ele>224.66666666666669</ele><time>2026-04-11T14:19:36.938Z</time></trkpt><trkpt lat="44.8156383" lon="9.4617583"><ele>225.33333333333331</ele><time>2026-04-11T14:19:37.943Z</time></trkpt><trkpt lat="44.815675" lon="9.4619933"><ele>226.0</ele><time>2026-04-11T14:19:38.938Z</time></trkpt><trkpt lat="44.8157133" lon="9.4622267"><ele>227.0</ele><time>2026-04-11T14:19:39.938Z</time></trkpt><trkpt lat="44.8157533" lon="9.46246"><ele>228.0</ele><time>2026-04-11T14:19:40.937Z</time></trkpt><trkpt lat="44.8157933" lon="9.4626883"><ele>229.0</ele><time>2026-04-11T14:19:41.938Z</time></trkpt><trkpt lat="44.81583" lon="9.4629167"><ele>230.0</ele><time>2026-04-11T14:19:42.939Z</time></trkpt><trkpt lat="44.8158667" lon="9.4631467"><ele>231.0</ele><time>2026-04-11T14:19:43.941Z</time></trkpt><trkpt lat="44.8159" lon="9.4633783"><ele>232.0</ele><time>2026-04-11T14:19:44.939Z</time></trkpt><trkpt lat="44.815935" lon="9.4636117"><ele>231.33333333333331</ele><time>2026-04-11T14:19:45.937Z</time></trkpt><trkpt lat="44.8159683" lon="9.463845"><ele>230.66666666666669</ele><time>2026-04-11T14:19:46.938Z</time></trkpt><trkpt lat="44.8159967" lon="9.4640817"><ele>230.0</ele><time>2026-04-11T14:19:47.937Z</time></trkpt><trkpt lat="44.816015" lon="9.46432"><ele>224.33333333333334</ele><time>2026-04-11T14:19:48.94Z</time></trkpt><trkpt lat="44.8160283" lon="9.4645567"><ele>218.66666666666669</ele><time>2026-04-11T14:19:49.937Z</time></trkpt><trkpt lat="44.816045" lon="9.4647783"><ele>213.0</ele><time>2026-04-11T14:19:50.94Z</time></trkpt><trkpt lat="44.81607" lon="9.4650017"><ele>213.0</ele><time>2026-04-11T14:19:51.937Z</time></trkpt><trkpt lat="44.816105" lon="9.4652233"><ele>213.0</ele><time>2026-04-11T14:19:52.937Z</time></trkpt><trkpt lat="44.8161467" lon="9.4654433"><ele>213.0</ele><time>2026-04-11T14:19:53.937Z</time></trkpt><trkpt lat="44.8162067" lon="9.4656517"><ele>215.0</ele><time>2026-04-11T14:19:54.937Z</time></trkpt><trkpt lat="44.8162783" lon="9.4658517"><ele>217.0</ele><time>2026-04-11T14:19:55.937Z</time></trkpt><trkpt lat="44.8163583" lon="9.4660417"><ele>219.0</ele><time>2026-04-11T14:19:56.939Z</time></trkpt><trkpt lat="44.81644" lon="9.46623"><ele>222.0</ele><time>2026-04-11T14:19:57.941Z</time></trkpt><trkpt lat="44.816525" lon="9.4664233"><ele>225.0</ele><time>2026-04-11T14:19:58.938Z</time></trkpt><trkpt lat="44.8166083" lon="9.4666267"><ele>228.0</ele><time>2026-04-11T14:19:59.938Z</time></trkpt><trkpt lat="44.8166867" lon="9.4668317"><ele>228.0</ele><time>2026-04-11T14:20:00.939Z</time></trkpt><trkpt lat="44.8167617" lon="9.4670417"><ele>228.0</ele><time>2026-04-11T14:20:01.937Z</time></trkpt><trkpt lat="44.8168333" lon="9.4672467"><ele>228.0</ele><time>2026-04-11T14:20:02.938Z</time></trkpt><trkpt lat="44.8168933" lon="9.46745"><ele>224.66666666666669</ele><time>2026-04-11T14:20:03.937Z</time></trkpt><trkpt lat="44.816945" lon="9.467665"><ele>221.33333333333334</ele><time>2026-04-11T14:20:04.938Z</time></trkpt><trkpt lat="44.8169917" lon="9.46788"><ele>218.0</ele><time>2026-04-11T14:20:05.938Z</time></trkpt><trkpt lat="44.8170367" lon="9.4681"><ele>218.0</ele><time>2026-04-11T14:20:06.937Z</time></trkpt><trkpt lat="44.81708" lon="9.4683233"><ele>218.0</ele><time>2026-04-11T14:20:07.937Z</time></trkpt><trkpt lat="44.8171267" lon="9.468545"><ele>218.0</ele><time>2026-04-11T14:20:08.938Z</time></trkpt><trkpt lat="44.8171733" lon="9.468765"><ele>218.66666666666669</ele><time>2026-04-11T14:20:09.937Z</time></trkpt><trkpt lat="44.8172183" lon="9.4689833"><ele>219.33333333333331</ele><time>2026-04-11T14:20:10.938Z</time></trkpt><trkpt lat="44.81726" lon="9.4691983"><ele>220.0</ele><time>2026-04-11T14:20:11.938Z</time></trkpt><trkpt lat="44.8173017" lon="9.469415"><ele>223.33333333333331</ele><time>2026-04-11T14:20:12.94Z</time></trkpt><trkpt lat="44.817345" lon="9.4696333"><ele>226.66666666666669</ele><time>2026-04-11T14:20:13.938Z</time></trkpt><trkpt lat="44.817395" lon="9.4698533"><ele>230.0</ele><time>2026-04-11T14:20:14.944Z</time></trkpt><trkpt lat="44.81743" lon="9.4700883"><ele>230.0</ele><time>2026-04-11T14:20:15.939Z</time></trkpt><trkpt lat="44.8174733" lon="9.4702817"><ele>230.0</ele><time>2026-04-11T14:20:16.938Z</time></trkpt><trkpt lat="44.8175083" lon="9.470475"><ele>230.0</ele><time>2026-04-11T14:20:17.937Z</time></trkpt><trkpt lat="44.8175433" lon="9.470685"><ele>230.0</ele><time>2026-04-11T14:20:18.939Z</time></trkpt><trkpt lat="44.81755" lon="9.470895"><ele>230.33333333333334</ele><time>2026-04-11T14:20:19.939Z</time></trkpt><trkpt lat="44.8175417" lon="9.47111"><ele>230.66666666666669</ele><time>2026-04-11T14:20:20.938Z</time></trkpt><trkpt lat="44.81751" lon="9.4713267"><ele>231.0</ele><time>2026-04-11T14:20:21.938Z</time></trkpt><trkpt lat="44.817455" lon="9.4715333"><ele>231.0</ele><time>2026-04-11T14:20:22.937Z</time></trkpt><trkpt lat="44.8173833" lon="9.4717233"><ele>231.0</ele><time>2026-04-11T14:20:23.938Z</time></trkpt><trkpt lat="44.8172967" lon="9.4718883"><ele>231.0</ele><time>2026-04-11T14:20:24.937Z</time></trkpt><trkpt lat="44.8171983" lon="9.4720383"><ele>231.0</ele><time>2026-04-11T14:20:25.94Z</time></trkpt><trkpt lat="44.8171" lon="9.472175"><ele>232.0</ele><time>2026-04-11T14:20:26.937Z</time></trkpt><trkpt lat="44.8170033" lon="9.472305"><ele>233.0</ele><time>2026-04-11T14:20:27.937Z</time></trkpt><trkpt lat="44.8169067" lon="9.4724117"><ele>234.0</ele><time>2026-04-11T14:20:28.937Z</time></trkpt><trkpt lat="44.8168017" lon="9.4724867"><ele>235.0</ele><time>2026-04-11T14:20:29.937Z</time></trkpt><trkpt lat="44.816685" lon="9.472525"><ele>235.0</ele><time>2026-04-11T14:20:30.938Z</time></trkpt><trkpt lat="44.8165767" lon="9.472565"><ele>235.0</ele><time>2026-04-11T14:20:31.937Z</time></trkpt><trkpt lat="44.8164883" lon="9.4726367"><ele>235.0</ele><time>2026-04-11T14:20:32.943Z</time></trkpt><trkpt lat="44.816435" lon="9.47274"><ele>235.0</ele><time>2026-04-11T14:20:33.938Z</time></trkpt><trkpt lat="44.81642" lon="9.4728617"><ele>235.0</ele><time>2026-04-11T14:20:34.937Z</time></trkpt><trkpt lat="44.8164333" lon="9.4729883"><ele>233.25</ele><time>2026-04-11T14:20:35.938Z</time></trkpt><trkpt lat="44.8164817" lon="9.4731067"><ele>231.5</ele><time>2026-04-11T14:20:36.941Z</time></trkpt><trkpt lat="44.8165517" lon="9.47323"><ele>229.75</ele><time>2026-04-11T14:20:37.941Z</time></trkpt><trkpt lat="44.8166067" lon="9.4733817"><ele>228.0</ele><time>2026-04-11T14:20:38.939Z</time></trkpt><trkpt lat="44.816625" lon="9.4735683"><ele>228.0</ele><time>2026-04-11T14:20:39.937Z</time></trkpt><trkpt lat="44.8166167" lon="9.4737783"><ele>228.0</ele><time>2026-04-11T14:20:40.939Z</time></trkpt><trkpt lat="44.8166033" lon="9.4740033"><ele>228.0</ele><time>2026-04-11T14:20:41.939Z</time></trkpt><trkpt lat="44.8165917" lon="9.4742383"><ele>228.0</ele><time>2026-04-11T14:20:42.942Z</time></trkpt><trkpt lat="44.816585" lon="9.47448"><ele>228.0</ele><time>2026-04-11T14:20:43.937Z</time></trkpt><trkpt lat="44.8165817" lon="9.4747317"><ele>228.0</ele><time>2026-04-11T14:20:44.938Z</time></trkpt><trkpt lat="44.8165833" lon="9.4749867"><ele>227.0</ele><time>2026-04-11T14:20:45.938Z</time></trkpt><trkpt lat="44.8165867" lon="9.475245"><ele>226.0</ele><time>2026-04-11T14:20:46.939Z</time></trkpt><trkpt lat="44.81659" lon="9.475505"><ele>225.0</ele><time>2026-04-11T14:20:47.937Z</time></trkpt><trkpt lat="44.8165883" lon="9.4757633"><ele>223.66666666666669</ele><time>2026-04-11T14:20:48.937Z</time></trkpt><trkpt lat="44.8165883" lon="9.4760233"><ele>222.33333333333334</ele><time>2026-04-11T14:20:49.938Z</time></trkpt><trkpt lat="44.8165883" lon="9.4762833"><ele>221.0</ele><time>2026-04-11T14:20:50.944Z</time></trkpt><trkpt lat="44.8165917" lon="9.4765433"><ele>219.33333333333334</ele><time>2026-04-11T14:20:51.937Z</time></trkpt><trkpt lat="44.816595" lon="9.476805"><ele>217.66666666666669</ele><time>2026-04-11T14:20:52.938Z</time></trkpt><trkpt lat="44.8165983" lon="9.4770617"><ele>216.0</ele><time>2026-04-11T14:20:53.938Z</time></trkpt><trkpt lat="44.8165967" lon="9.4773083"><ele>214.33333333333331</ele><time>2026-04-11T14:20:54.937Z</time></trkpt><trkpt lat="44.8165933" lon="9.4775467"><ele>212.66666666666666</ele><time>2026-04-11T14:20:55.938Z</time></trkpt><trkpt lat="44.8165917" lon="9.4777783"><ele>211.0</ele><time>2026-04-11T14:20:56.937Z</time></trkpt><trkpt lat="44.81659" lon="9.4780167"><ele>210.66666666666666</ele><time>2026-04-11T14:20:57.938Z</time></trkpt><trkpt lat="44.816585" lon="9.4782533"><ele>210.33333333333331</ele><time>2026-04-11T14:20:58.938Z</time></trkpt><trkpt lat="44.8165833" lon="9.4784917"><ele>210.0</ele><time>2026-04-11T14:20:59.938Z</time></trkpt><trkpt lat="44.816585" lon="9.4787333"><ele>209.66666666666669</ele><time>2026-04-11T14:21:00.944Z</time></trkpt><trkpt lat="44.8165883" lon="9.4789783"><ele>209.33333333333334</ele><time>2026-04-11T14:21:01.938Z</time></trkpt><trkpt lat="44.8165967" lon="9.4792283"><ele>209.0</ele><time>2026-04-11T14:21:02.938Z</time></trkpt><trkpt lat="44.8166117" lon="9.4794733"><ele>208.33333333333334</ele><time>2026-04-11T14:21:03.938Z</time></trkpt><trkpt lat="44.8166333" lon="9.4797067"><ele>207.66666666666669</ele><time>2026-04-11T14:21:04.938Z</time></trkpt><trkpt lat="44.81666" lon="9.4799317"><ele>207.0</ele><time>2026-04-11T14:21:05.938Z</time></trkpt><trkpt lat="44.81669" lon="9.4801483"><ele>207.0</ele><time>2026-04-11T14:21:06.941Z</time></trkpt><trkpt lat="44.8167267" lon="9.48036"><ele>207.0</ele><time>2026-04-11T14:21:07.937Z</time></trkpt><trkpt lat="44.8167633" lon="9.4805683"><ele>207.0</ele><time>2026-04-11T14:21:08.938Z</time></trkpt><trkpt lat="44.8168067" lon="9.48078"><ele>206.0</ele><time>2026-04-11T14:21:09.937Z</time></trkpt><trkpt lat="44.81686" lon="9.4809967"><ele>205.0</ele><time>2026-04-11T14:21:10.937Z</time></trkpt><trkpt lat="44.81692" lon="9.4812167"><ele>204.0</ele><time>2026-04-11T14:21:11.937Z</time></trkpt><trkpt lat="44.8169883" lon="9.4814367"><ele>204.0</ele><time>2026-04-11T14:21:12.937Z</time></trkpt><trkpt lat="44.8170633" lon="9.4816567"><ele>204.0</ele><time>2026-04-11T14:21:13.938Z</time></trkpt><trkpt lat="44.8171417" lon="9.4818733"><ele>204.0</ele><time>2026-04-11T14:21:14.945Z</time></trkpt><trkpt lat="44.8172217" lon="9.4820817"><ele>207.66666666666669</ele><time>2026-04-11T14:21:15.938Z</time></trkpt><trkpt lat="44.817295" lon="9.4822867"><ele>211.33333333333334</ele><time>2026-04-11T14:21:16.938Z</time></trkpt><trkpt lat="44.8173683" lon="9.4824933"><ele>215.0</ele><time>2026-04-11T14:21:17.941Z</time></trkpt><trkpt lat="44.81744" lon="9.4827033"><ele>215.0</ele><time>2026-04-11T14:21:18.94Z</time></trkpt><trkpt lat="44.8175117" lon="9.4829133"><ele>215.0</ele><time>2026-04-11T14:21:19.941Z</time></trkpt><trkpt lat="44.817585" lon="9.483125"><ele>215.0</ele><time>2026-04-11T14:21:20.94Z</time></trkpt><trkpt lat="44.8176567" lon="9.4833333"><ele>199.0</ele><time>2026-04-11T14:21:21.939Z</time></trkpt><trkpt lat="44.818605" lon="9.48595"><ele>199.0</ele><time>2026-04-11T14:21:34.941Z</time></trkpt><trkpt lat="44.8186633" lon="9.4861617"><ele>199.0</ele><time>2026-04-11T14:21:35.943Z</time></trkpt><trkpt lat="44.8187067" lon="9.4863833"><ele>199.0</ele><time>2026-04-11T14:21:36.938Z</time></trkpt><trkpt lat="44.8187383" lon="9.4866083"><ele>198.66666666666666</ele><time>2026-04-11T14:21:37.938Z</time></trkpt><trkpt lat="44.8187583" lon="9.4868367"><ele>198.33333333333331</ele><time>2026-04-11T14:21:38.938Z</time></trkpt><trkpt lat="44.8187667" lon="9.48706"><ele>198.0</ele><time>2026-04-11T14:21:39.937Z</time></trkpt><trkpt lat="44.8187717" lon="9.4872767"><ele>197.33333333333331</ele><time>2026-04-11T14:21:40.936Z</time></trkpt><trkpt lat="44.8187783" lon="9.4874983"><ele>196.66666666666666</ele><time>2026-04-11T14:21:41.936Z</time></trkpt><trkpt lat="44.8187833" lon="9.4877167"><ele>196.0</ele><time>2026-04-11T14:21:42.938Z</time></trkpt><trkpt lat="44.8187883" lon="9.487935"><ele>195.33333333333331</ele><time>2026-04-11T14:21:43.936Z</time></trkpt><trkpt lat="44.818795" lon="9.4881533"><ele>194.66666666666669</ele><time>2026-04-11T14:21:44.937Z</time></trkpt><trkpt lat="44.8188" lon="9.4883717"><ele>194.0</ele><time>2026-04-11T14:21:45.937Z</time></trkpt><trkpt lat="44.8188067" lon="9.4885983"><ele>194.33333333333334</ele><time>2026-04-11T14:21:46.937Z</time></trkpt><trkpt lat="44.81881" lon="9.488825"><ele>194.66666666666669</ele><time>2026-04-11T14:21:47.936Z</time></trkpt><trkpt lat="44.818815" lon="9.489045"><ele>195.0</ele><time>2026-04-11T14:21:48.937Z</time></trkpt><trkpt lat="44.81882" lon="9.4892717"><ele>195.0</ele><time>2026-04-11T14:21:49.936Z</time></trkpt><trkpt lat="44.8188267" lon="9.4895"><ele>195.0</ele><time>2026-04-11T14:21:50.938Z</time></trkpt><trkpt lat="44.81883" lon="9.4897283"><ele>195.0</ele><time>2026-04-11T14:21:51.945Z</time></trkpt><trkpt lat="44.8188333" lon="9.4899567"><ele>195.0</ele><time>2026-04-11T14:21:52.936Z</time></trkpt><trkpt lat="44.8188383" lon="9.490185"><ele>195.0</ele><time>2026-04-11T14:21:53.938Z</time></trkpt><trkpt lat="44.818845" lon="9.4904133"><ele>195.0</ele><time>2026-04-11T14:21:54.936Z</time></trkpt><trkpt lat="44.8188467" lon="9.4906417"><ele>195.0</ele><time>2026-04-11T14:21:55.938Z</time></trkpt><trkpt lat="44.8188533" lon="9.4908683"><ele>195.0</ele><time>2026-04-11T14:21:56.937Z</time></trkpt><trkpt lat="44.81886" lon="9.4910933"><ele>195.0</ele><time>2026-04-11T14:21:57.937Z</time></trkpt><trkpt lat="44.8188683" lon="9.4913233"><ele>194.66666666666669</ele><time>2026-04-11T14:21:58.941Z</time></trkpt><trkpt lat="44.8188767" lon="9.4915567"><ele>194.33333333333334</ele><time>2026-04-11T14:21:59.937Z</time></trkpt><trkpt lat="44.818885" lon="9.4917917"><ele>194.0</ele><time>2026-04-11T14:22:00.937Z</time></trkpt><trkpt lat="44.81889" lon="9.4920317"><ele>194.0</ele><time>2026-04-11T14:22:01.936Z</time></trkpt><trkpt lat="44.8189" lon="9.4922667"><ele>194.0</ele><time>2026-04-11T14:22:02.937Z</time></trkpt><trkpt lat="44.81891" lon="9.4925"><ele>194.0</ele><time>2026-04-11T14:22:03.937Z</time></trkpt><trkpt lat="44.818925" lon="9.4927317"><ele>194.0</ele><time>2026-04-11T14:22:04.936Z</time></trkpt><trkpt lat="44.8189517" lon="9.4929567"><ele>194.0</ele><time>2026-04-11T14:22:05.939Z</time></trkpt><trkpt lat="44.818985" lon="9.4931817"><ele>194.0</ele><time>2026-04-11T14:22:06.937Z</time></trkpt><trkpt lat="44.8190183" lon="9.49341"><ele>194.0</ele><time>2026-04-11T14:22:07.937Z</time></trkpt><trkpt lat="44.8190583" lon="9.493635"><ele>194.0</ele><time>2026-04-11T14:22:08.938Z</time></trkpt><trkpt lat="44.8191033" lon="9.49386"><ele>194.0</ele><time>2026-04-11T14:22:09.937Z</time></trkpt><trkpt lat="44.819155" lon="9.4940867"><ele>195.33333333333334</ele><time>2026-04-11T14:22:10.936Z</time></trkpt><trkpt lat="44.8192117" lon="9.4943033"><ele>196.66666666666669</ele><time>2026-04-11T14:22:11.937Z</time></trkpt><trkpt lat="44.819275" lon="9.4945167"><ele>198.0</ele><time>2026-04-11T14:22:12.937Z</time></trkpt><trkpt lat="44.819345" lon="9.4947317"><ele>195.33333333333334</ele><time>2026-04-11T14:22:13.937Z</time></trkpt><trkpt lat="44.81941" lon="9.4949467"><ele>192.66666666666669</ele><time>2026-04-11T14:22:14.937Z</time></trkpt><trkpt lat="44.819475" lon="9.49516"><ele>190.0</ele><time>2026-04-11T14:22:15.937Z</time></trkpt><trkpt lat="44.8195333" lon="9.49537"><ele>191.0</ele><time>2026-04-11T14:22:16.936Z</time></trkpt><trkpt lat="44.81959" lon="9.4955767"><ele>192.0</ele><time>2026-04-11T14:22:17.942Z</time></trkpt><trkpt lat="44.8196483" lon="9.4957767"><ele>193.0</ele><time>2026-04-11T14:22:18.938Z</time></trkpt><trkpt lat="44.819705" lon="9.4959717"><ele>193.0</ele><time>2026-04-11T14:22:19.937Z</time></trkpt><trkpt lat="44.81976" lon="9.4961617"><ele>193.0</ele><time>2026-04-11T14:22:20.937Z</time></trkpt><trkpt lat="44.8198233" lon="9.496355"><ele>193.0</ele><time>2026-04-11T14:22:21.937Z</time></trkpt><trkpt lat="44.8198867" lon="9.4965417"><ele>193.0</ele><time>2026-04-11T14:22:22.937Z</time></trkpt><trkpt lat="44.8199433" lon="9.4967183"><ele>192.60000000000002</ele><time>2026-04-11T14:22:23.937Z</time></trkpt><trkpt lat="44.8199967" lon="9.49688"><ele>192.20000000000002</ele><time>2026-04-11T14:22:24.944Z</time></trkpt><trkpt lat="44.8200417" lon="9.4970183"><ele>191.8</ele><time>2026-04-11T14:22:25.939Z</time></trkpt><trkpt lat="44.8200833" lon="9.4971383"><ele>191.4</ele><time>2026-04-11T14:22:26.937Z</time></trkpt><trkpt lat="44.8201233" lon="9.497245"><ele>191.0</ele><time>2026-04-11T14:22:27.937Z</time></trkpt><trkpt lat="44.8201633" lon="9.4973283"><ele>191.0</ele><time>2026-04-11T14:22:28.937Z</time></trkpt><trkpt lat="44.8202583" lon="9.49737"><ele>191.0</ele><time>2026-04-11T14:22:30.936Z</time></trkpt><trkpt lat="44.820315" lon="9.4973283"><ele>191.0</ele><time>2026-04-11T14:22:31.937Z</time></trkpt><trkpt lat="44.82039" lon="9.4972583"><ele>191.0</ele><time>2026-04-11T14:22:32.938Z</time></trkpt><trkpt lat="44.8204867" lon="9.4971783"><ele>191.0</ele><time>2026-04-11T14:22:33.937Z</time></trkpt><trkpt lat="44.8206" lon="9.4970933"><ele>191.0</ele><time>2026-04-11T14:22:34.936Z</time></trkpt><trkpt lat="44.8207267" lon="9.4970067"><ele>191.0</ele><time>2026-04-11T14:22:35.942Z</time></trkpt><trkpt lat="44.8208583" lon="9.496915"><ele>191.0</ele><time>2026-04-11T14:22:36.937Z</time></trkpt><trkpt lat="44.82099" lon="9.496825"><ele>191.0</ele><time>2026-04-11T14:22:37.936Z</time></trkpt><trkpt lat="44.82112" lon="9.496735"><ele>191.75</ele><time>2026-04-11T14:22:38.937Z</time></trkpt><trkpt lat="44.82125" lon="9.4966433"><ele>192.5</ele><time>2026-04-11T14:22:39.936Z</time></trkpt><trkpt lat="44.8213783" lon="9.4965533"><ele>193.25</ele><time>2026-04-11T14:22:40.937Z</time></trkpt><trkpt lat="44.8215" lon="9.49647"><ele>194.0</ele><time>2026-04-11T14:22:41.937Z</time></trkpt><trkpt lat="44.8216133" lon="9.4963917"><ele>194.0</ele><time>2026-04-11T14:22:42.936Z</time></trkpt><trkpt lat="44.82172" lon="9.49632"><ele>194.0</ele><time>2026-04-11T14:22:43.942Z</time></trkpt><trkpt lat="44.821825" lon="9.4962667"><ele>194.0</ele><time>2026-04-11T14:22:44.937Z</time></trkpt><trkpt lat="44.8219367" lon="9.4962467"><ele>194.0</ele><time>2026-04-11T14:22:45.936Z</time></trkpt><trkpt lat="44.822055" lon="9.4962683"><ele>194.0</ele><time>2026-04-11T14:22:46.937Z</time></trkpt><trkpt lat="44.82218" lon="9.496325"><ele>194.0</ele><time>2026-04-11T14:22:47.937Z</time></trkpt><trkpt lat="44.82231" lon="9.4963917"><ele>194.0</ele><time>2026-04-11T14:22:48.937Z</time></trkpt><trkpt lat="44.8224467" lon="9.49646"><ele>194.0</ele><time>2026-04-11T14:22:49.938Z</time></trkpt><trkpt lat="44.8225817" lon="9.4965267"><ele>194.0</ele><time>2026-04-11T14:22:50.937Z</time></trkpt><trkpt lat="44.8227217" lon="9.4965833"><ele>194.0</ele><time>2026-04-11T14:22:51.946Z</time></trkpt><trkpt lat="44.82287" lon="9.4966183"><ele>194.0</ele><time>2026-04-11T14:22:52.937Z</time></trkpt><trkpt lat="44.8230233" lon="9.49661"><ele>194.0</ele><time>2026-04-11T14:22:53.937Z</time></trkpt><trkpt lat="44.8231767" lon="9.4965583"><ele>194.0</ele><time>2026-04-11T14:22:54.938Z</time></trkpt><trkpt lat="44.8233133" lon="9.4964817"><ele>194.0</ele><time>2026-04-11T14:22:55.938Z</time></trkpt><trkpt lat="44.82344" lon="9.4963983"><ele>194.0</ele><time>2026-04-11T14:22:56.938Z</time></trkpt><trkpt lat="44.823565" lon="9.4963317"><ele>194.0</ele><time>2026-04-11T14:22:57.938Z</time></trkpt><trkpt lat="44.8236967" lon="9.4963"><ele>195.25</ele><time>2026-04-11T14:22:58.942Z</time></trkpt><trkpt lat="44.8238283" lon="9.4963033"><ele>196.5</ele><time>2026-04-11T14:22:59.937Z</time></trkpt><trkpt lat="44.8239533" lon="9.4963483"><ele>197.75</ele><time>2026-04-11T14:23:00.937Z</time></trkpt><trkpt lat="44.82407" lon="9.4964383"><ele>199.0</ele><time>2026-04-11T14:23:01.937Z</time></trkpt><trkpt lat="44.8241817" lon="9.4965683"><ele>199.0</ele><time>2026-04-11T14:23:02.938Z</time></trkpt><trkpt lat="44.8242883" lon="9.49671"><ele>199.0</ele><time>2026-04-11T14:23:03.937Z</time></trkpt><trkpt lat="44.8243867" lon="9.4968433"><ele>199.0</ele><time>2026-04-11T14:23:04.937Z</time></trkpt><trkpt lat="44.8244717" lon="9.4969567"><ele>199.0</ele><time>2026-04-11T14:23:05.937Z</time></trkpt><trkpt lat="44.8245433" lon="9.4970533"><ele>201.49999999999997</ele><time>2026-04-11T14:23:06.939Z</time></trkpt><trkpt lat="44.8246017" lon="9.497135"><ele>204.0</ele><time>2026-04-11T14:23:07.937Z</time></trkpt><trkpt lat="44.8246583" lon="9.497205"><ele>206.5</ele><time>2026-04-11T14:23:08.938Z</time></trkpt><trkpt lat="44.8247167" lon="9.49726"><ele>209.0</ele><time>2026-04-11T14:23:09.936Z</time></trkpt><trkpt lat="44.8247817" lon="9.4972867"><ele>211.49999999999997</ele><time>2026-04-11T14:23:10.937Z</time></trkpt><trkpt lat="44.82486" lon="9.4972833"><ele>214.0</ele><time>2026-04-11T14:23:11.937Z</time></trkpt><trkpt lat="44.8249433" lon="9.4972667"><ele>213.99999999999997</ele><time>2026-04-11T14:23:12.937Z</time></trkpt><trkpt lat="44.8250217" lon="9.4972617"><ele>214.0</ele><time>2026-04-11T14:23:13.938Z</time></trkpt><trkpt lat="44.8251083" lon="9.4973833"><ele>214.0</ele><time>2026-04-11T14:23:15.941Z</time></trkpt><trkpt lat="44.8251283" lon="9.4974933"><ele>214.0</ele><time>2026-04-11T14:23:16.937Z</time></trkpt><trkpt lat="44.8251667" lon="9.4975933"><ele>213.99999999999997</ele><time>2026-04-11T14:23:17.938Z</time></trkpt><trkpt lat="44.8252317" lon="9.49767"><ele>214.0</ele><time>2026-04-11T14:23:18.938Z</time></trkpt><trkpt lat="44.8253083" lon="9.4977333"><ele>217.2</ele><time>2026-04-11T14:23:19.938Z</time></trkpt><trkpt lat="44.8253883" lon="9.4977883"><ele>220.39999999999998</ele><time>2026-04-11T14:23:20.937Z</time></trkpt><trkpt lat="44.82547" lon="9.49785"><ele>223.6</ele><time>2026-04-11T14:23:21.938Z</time></trkpt><trkpt lat="44.8255517" lon="9.497915"><ele>226.8</ele><time>2026-04-11T14:23:22.937Z</time></trkpt><trkpt lat="44.82564" lon="9.4979817"><ele>230.0</ele><time>2026-04-11T14:23:23.937Z</time></trkpt><trkpt lat="44.8257267" lon="9.4980433"><ele>230.6</ele><time>2026-04-11T14:23:24.943Z</time></trkpt><trkpt lat="44.825815" lon="9.4980983"><ele>231.2</ele><time>2026-04-11T14:23:25.937Z</time></trkpt><trkpt lat="44.82591" lon="9.4981417"><ele>231.8</ele><time>2026-04-11T14:23:26.938Z</time></trkpt><trkpt lat="44.8260017" lon="9.4981683"><ele>232.4</ele><time>2026-04-11T14:23:27.938Z</time></trkpt><trkpt lat="44.8260917" lon="9.4981767"><ele>233.0</ele><time>2026-04-11T14:23:28.937Z</time></trkpt><trkpt lat="44.8261817" lon="9.4981667"><ele>235.2</ele><time>2026-04-11T14:23:29.942Z</time></trkpt><trkpt lat="44.8262633" lon="9.49814"><ele>237.4</ele><time>2026-04-11T14:23:30.937Z</time></trkpt><trkpt lat="44.8263467" lon="9.4980933"><ele>239.59999999999997</ele><time>2026-04-11T14:23:31.937Z</time></trkpt><trkpt lat="44.8264367" lon="9.49803"><ele>241.79999999999998</ele><time>2026-04-11T14:23:32.939Z</time></trkpt><trkpt lat="44.8265283" lon="9.4979517"><ele>244.0</ele><time>2026-04-11T14:23:33.937Z</time></trkpt><trkpt lat="44.8266217" lon="9.49787"><ele>244.0</ele><time>2026-04-11T14:23:34.943Z</time></trkpt><trkpt lat="44.8267133" lon="9.4977917"><ele>243.99999999999997</ele><time>2026-04-11T14:23:35.937Z</time></trkpt><trkpt lat="44.82681" lon="9.4977233"><ele>243.99999999999997</ele><time>2026-04-11T14:23:36.937Z</time></trkpt><trkpt lat="44.82691" lon="9.497675"><ele>244.0</ele><time>2026-04-11T14:23:37.937Z</time></trkpt><trkpt lat="44.8270117" lon="9.4976417"><ele>244.0</ele><time>2026-04-11T14:23:38.937Z</time></trkpt><trkpt lat="44.8271117" lon="9.4976"><ele>246.0</ele><time>2026-04-11T14:23:39.938Z</time></trkpt><trkpt lat="44.8272" lon="9.497525"><ele>247.99999999999997</ele><time>2026-04-11T14:23:40.937Z</time></trkpt><trkpt lat="44.8272767" lon="9.4974133"><ele>249.99999999999997</ele><time>2026-04-11T14:23:41.937Z</time></trkpt><trkpt lat="44.8273483" lon="9.49729"><ele>252.0</ele><time>2026-04-11T14:23:42.937Z</time></trkpt><trkpt lat="44.8274267" lon="9.4971883"><ele>254.0</ele><time>2026-04-11T14:23:43.936Z</time></trkpt><trkpt lat="44.8275133" lon="9.4971133"><ele>253.79999999999998</ele><time>2026-04-11T14:23:44.937Z</time></trkpt><trkpt lat="44.82761" lon="9.4970617"><ele>253.59999999999997</ele><time>2026-04-11T14:23:45.937Z</time></trkpt><trkpt lat="44.8277067" lon="9.49702"><ele>253.4</ele><time>2026-04-11T14:23:46.937Z</time></trkpt><trkpt lat="44.8278067" lon="9.4969867"><ele>253.2</ele><time>2026-04-11T14:23:47.941Z</time></trkpt><trkpt lat="44.8279033" lon="9.4969567"><ele>253.0</ele><time>2026-04-11T14:23:48.937Z</time></trkpt><trkpt lat="44.8279967" lon="9.4969383"><ele>254.99999999999997</ele><time>2026-04-11T14:23:49.938Z</time></trkpt><trkpt lat="44.8280767" lon="9.4969467"><ele>257.0</ele><time>2026-04-11T14:23:50.938Z</time></trkpt><trkpt lat="44.8281417" lon="9.4969867"><ele>259.0</ele><time>2026-04-11T14:23:51.937Z</time></trkpt><trkpt lat="44.8281917" lon="9.4970867"><ele>261.0</ele><time>2026-04-11T14:23:52.937Z</time></trkpt><trkpt lat="44.828235" lon="9.4972017"><ele>263.0</ele><time>2026-04-11T14:23:53.94Z</time></trkpt><trkpt lat="44.8282717" lon="9.49733"><ele>265.0</ele><time>2026-04-11T14:23:54.937Z</time></trkpt><trkpt lat="44.82829" lon="9.4974567"><ele>265.3333333333333</ele><time>2026-04-11T14:23:55.944Z</time></trkpt><trkpt lat="44.8283017" lon="9.497575"><ele>265.66666666666663</ele><time>2026-04-11T14:23:56.94Z</time></trkpt><trkpt lat="44.8283083" lon="9.4976817"><ele>266.0</ele><time>2026-04-11T14:23:57.937Z</time></trkpt><trkpt lat="44.8283217" lon="9.4977817"><ele>266.3333333333333</ele><time>2026-04-11T14:23:58.937Z</time></trkpt><trkpt lat="44.8283467" lon="9.4978683"><ele>266.6666666666667</ele><time>2026-04-11T14:23:59.938Z</time></trkpt><trkpt lat="44.8284017" lon="9.4979433"><ele>267.0</ele><time>2026-04-11T14:24:00.937Z</time></trkpt><trkpt lat="44.8284717" lon="9.4980067"><ele>267.6666666666667</ele><time>2026-04-11T14:24:01.938Z</time></trkpt><trkpt lat="44.8285467" lon="9.498075"><ele>268.3333333333333</ele><time>2026-04-11T14:24:02.938Z</time></trkpt><trkpt lat="44.82862" lon="9.4981383"><ele>269.0</ele><time>2026-04-11T14:24:03.937Z</time></trkpt><trkpt lat="44.8286967" lon="9.4981933"><ele>269.66666666666663</ele><time>2026-04-11T14:24:04.937Z</time></trkpt><trkpt lat="44.828775" lon="9.498225"><ele>270.3333333333333</ele><time>2026-04-11T14:24:05.939Z</time></trkpt><trkpt lat="44.828855" lon="9.498235"><ele>271.0</ele><time>2026-04-11T14:24:06.937Z</time></trkpt><trkpt lat="44.8289383" lon="9.4982133"><ele>271.0</ele><time>2026-04-11T14:24:07.938Z</time></trkpt><trkpt lat="44.8290183" lon="9.49817"><ele>271.0</ele><time>2026-04-11T14:24:08.938Z</time></trkpt><trkpt lat="44.8290983" lon="9.498125"><ele>271.0</ele><time>2026-04-11T14:24:09.937Z</time></trkpt><trkpt lat="44.829175" lon="9.4981033"><ele>271.0</ele><time>2026-04-11T14:24:10.937Z</time></trkpt><trkpt lat="44.8292483" lon="9.498115"><ele>271.0</ele><time>2026-04-11T14:24:11.937Z</time></trkpt><trkpt lat="44.829325" lon="9.49815"><ele>271.0</ele><time>2026-04-11T14:24:12.942Z</time></trkpt><trkpt lat="44.8294083" lon="9.49819"><ele>272.0</ele><time>2026-04-11T14:24:13.936Z</time></trkpt><trkpt lat="44.8294983" lon="9.49823"><ele>273.0</ele><time>2026-04-11T14:24:14.937Z</time></trkpt><trkpt lat="44.8295917" lon="9.498255"><ele>274.0</ele><time>2026-04-11T14:24:15.937Z</time></trkpt><trkpt lat="44.8296783" lon="9.4982717"><ele>275.0</ele><time>2026-04-11T14:24:16.937Z</time></trkpt><trkpt lat="44.82975" lon="9.4982883"><ele>276.0</ele><time>2026-04-11T14:24:17.938Z</time></trkpt><trkpt lat="44.8298333" lon="9.4983817"><ele>276.0</ele><time>2026-04-11T14:24:19.94Z</time></trkpt><trkpt lat="44.8298033" lon="9.4984933"><ele>276.0</ele><time>2026-04-11T14:24:21.937Z</time></trkpt><trkpt lat="44.82969" lon="9.4985733"><ele>276.0</ele><time>2026-04-11T14:24:23.94Z</time></trkpt><trkpt lat="44.8296233" lon="9.4986233"><ele>276.0</ele><time>2026-04-11T14:24:24.938Z</time></trkpt><trkpt lat="44.82955" lon="9.4986783"><ele>276.0</ele><time>2026-04-11T14:24:25.938Z</time></trkpt><trkpt lat="44.82947" lon="9.4987417"><ele>276.75</ele><time>2026-04-11T14:24:26.938Z</time></trkpt><trkpt lat="44.8293867" lon="9.4988367"><ele>277.5</ele><time>2026-04-11T14:24:27.938Z</time></trkpt><trkpt lat="44.829305" lon="9.4989583"><ele>278.25</ele><time>2026-04-11T14:24:28.938Z</time></trkpt><trkpt lat="44.8292317" lon="9.4990933"><ele>279.0</ele><time>2026-04-11T14:24:29.937Z</time></trkpt><trkpt lat="44.82916" lon="9.499225"><ele>277.25</ele><time>2026-04-11T14:24:30.937Z</time></trkpt><trkpt lat="44.82908" lon="9.4993483"><ele>275.5</ele><time>2026-04-11T14:24:31.937Z</time></trkpt><trkpt lat="44.8289983" lon="9.4994783"><ele>273.75</ele><time>2026-04-11T14:24:32.938Z</time></trkpt><trkpt lat="44.8289233" lon="9.4996183"><ele>272.0</ele><time>2026-04-11T14:24:33.94Z</time></trkpt><trkpt lat="44.82885" lon="9.4997567"><ele>272.0</ele><time>2026-04-11T14:24:34.937Z</time></trkpt><trkpt lat="44.828775" lon="9.4999"><ele>272.0</ele><time>2026-04-11T14:24:35.937Z</time></trkpt><trkpt lat="44.8286983" lon="9.5000383"><ele>272.0</ele><time>2026-04-11T14:24:36.937Z</time></trkpt><trkpt lat="44.8286167" lon="9.5001667"><ele>272.0</ele><time>2026-04-11T14:24:37.937Z</time></trkpt><trkpt lat="44.8285417" lon="9.5002933"><ele>272.0</ele><time>2026-04-11T14:24:38.937Z</time></trkpt><trkpt lat="44.8284783" lon="9.500415"><ele>272.0</ele><time>2026-04-11T14:24:39.937Z</time></trkpt><trkpt lat="44.82842" lon="9.50053"><ele>272.0</ele><time>2026-04-11T14:24:40.937Z</time></trkpt><trkpt lat="44.8283667" lon="9.500645"><ele>272.0</ele><time>2026-04-11T14:24:41.942Z</time></trkpt><trkpt lat="44.82832" lon="9.5007633"><ele>272.0</ele><time>2026-04-11T14:24:42.937Z</time></trkpt><trkpt lat="44.828295" lon="9.5008833"><ele>269.8</ele><time>2026-04-11T14:24:43.938Z</time></trkpt><trkpt lat="44.8282917" lon="9.5009933"><ele>267.6</ele><time>2026-04-11T14:24:44.939Z</time></trkpt><trkpt lat="44.8283333" lon="9.5011"><ele>265.40000000000003</ele><time>2026-04-11T14:24:45.937Z</time></trkpt><trkpt lat="44.8284117" lon="9.5011933"><ele>263.2</ele><time>2026-04-11T14:24:46.937Z</time></trkpt><trkpt lat="44.8285033" lon="9.5012783"><ele>261.0</ele><time>2026-04-11T14:24:47.938Z</time></trkpt><trkpt lat="44.828595" lon="9.5013633"><ele>260.8</ele><time>2026-04-11T14:24:48.938Z</time></trkpt><trkpt lat="44.828685" lon="9.50145"><ele>260.6</ele><time>2026-04-11T14:24:49.938Z</time></trkpt><trkpt lat="44.82878" lon="9.5015317"><ele>260.4</ele><time>2026-04-11T14:24:50.938Z</time></trkpt><trkpt lat="44.8288767" lon="9.5016033"><ele>260.2</ele><time>2026-04-11T14:24:51.938Z</time></trkpt><trkpt lat="44.8289817" lon="9.5016583"><ele>260.0</ele><time>2026-04-11T14:24:52.937Z</time></trkpt><trkpt lat="44.829085" lon="9.501705"><ele>260.0</ele><time>2026-04-11T14:24:53.938Z</time></trkpt><trkpt lat="44.8291883" lon="9.5017483"><ele>260.0</ele><time>2026-04-11T14:24:54.938Z</time></trkpt><trkpt lat="44.8292883" lon="9.501785"><ele>260.0</ele><time>2026-04-11T14:24:55.937Z</time></trkpt><trkpt lat="44.82938" lon="9.5017833"><ele>260.0</ele><time>2026-04-11T14:24:56.945Z</time></trkpt><trkpt lat="44.8294667" lon="9.5017383"><ele>260.0</ele><time>2026-04-11T14:24:57.938Z</time></trkpt><trkpt lat="44.82955" lon="9.5016567"><ele>260.75</ele><time>2026-04-11T14:24:58.937Z</time></trkpt><trkpt lat="44.8296267" lon="9.5015417"><ele>261.5</ele><time>2026-04-11T14:24:59.937Z</time></trkpt><trkpt lat="44.8297" lon="9.5014133"><ele>262.25</ele><time>2026-04-11T14:25:00.937Z</time></trkpt><trkpt lat="44.829775" lon="9.5012917"><ele>263.0</ele><time>2026-04-11T14:25:01.945Z</time></trkpt><trkpt lat="44.8298617" lon="9.50118"><ele>263.0</ele><time>2026-04-11T14:25:02.937Z</time></trkpt><trkpt lat="44.8299583" lon="9.5010833"><ele>263.0</ele><time>2026-04-11T14:25:03.937Z</time></trkpt><trkpt lat="44.8300533" lon="9.5010033"><ele>263.0</ele><time>2026-04-11T14:25:04.938Z</time></trkpt><trkpt lat="44.8301383" lon="9.5009183"><ele>263.0</ele><time>2026-04-11T14:25:05.939Z</time></trkpt><trkpt lat="44.8302133" lon="9.5008433"><ele>263.0</ele><time>2026-04-11T14:25:06.937Z</time></trkpt><trkpt lat="44.8302783" lon="9.500795"><ele>265.0</ele><time>2026-04-11T14:25:07.938Z</time></trkpt><trkpt lat="44.830385" lon="9.5008017"><ele>267.0</ele><time>2026-04-11T14:25:09.941Z</time></trkpt><trkpt lat="44.8304133" lon="9.5009367"><ele>269.0</ele><time>2026-04-11T14:25:11.938Z</time></trkpt><trkpt lat="44.8303717" lon="9.5010733"><ele>271.0</ele><time>2026-04-11T14:25:12.937Z</time></trkpt><trkpt lat="44.8303233" lon="9.5012183"><ele>273.0</ele><time>2026-04-11T14:25:13.938Z</time></trkpt><trkpt lat="44.8302867" lon="9.5013617"><ele>273.0</ele><time>2026-04-11T14:25:14.937Z</time></trkpt><trkpt lat="44.83026" lon="9.5015167"><ele>273.0</ele><time>2026-04-11T14:25:15.937Z</time></trkpt><trkpt lat="44.830255" lon="9.5016683"><ele>273.0</ele><time>2026-04-11T14:25:16.938Z</time></trkpt><trkpt lat="44.8302517" lon="9.50182"><ele>273.0</ele><time>2026-04-11T14:25:17.937Z</time></trkpt><trkpt lat="44.8302333" lon="9.5019667"><ele>273.0</ele><time>2026-04-11T14:25:18.938Z</time></trkpt><trkpt lat="44.8302" lon="9.5021033"><ele>271.8</ele><time>2026-04-11T14:25:19.938Z</time></trkpt><trkpt lat="44.8301717" lon="9.5022367"><ele>270.6</ele><time>2026-04-11T14:25:20.944Z</time></trkpt><trkpt lat="44.83017" lon="9.5023783"><ele>269.4</ele><time>2026-04-11T14:25:21.938Z</time></trkpt><trkpt lat="44.830195" lon="9.5025217"><ele>268.2</ele><time>2026-04-11T14:25:22.938Z</time></trkpt><trkpt lat="44.83023" lon="9.5026583"><ele>267.0</ele><time>2026-04-11T14:25:23.937Z</time></trkpt><trkpt lat="44.8302683" lon="9.5028017"><ele>264.5</ele><time>2026-04-11T14:25:24.938Z</time></trkpt><trkpt lat="44.8303067" lon="9.502955"><ele>262.0</ele><time>2026-04-11T14:25:25.938Z</time></trkpt><trkpt lat="44.8303433" lon="9.50311"><ele>259.5</ele><time>2026-04-11T14:25:26.939Z</time></trkpt><trkpt lat="44.8303767" lon="9.5032617"><ele>257.0</ele><time>2026-04-11T14:25:27.937Z</time></trkpt><trkpt lat="44.8304167" lon="9.5034083"><ele>257.0</ele><time>2026-04-11T14:25:28.937Z</time></trkpt><trkpt lat="44.8304617" lon="9.5035467"><ele>257.0</ele><time>2026-04-11T14:25:29.941Z</time></trkpt><trkpt lat="44.8305083" lon="9.503685"><ele>257.0</ele><time>2026-04-11T14:25:30.937Z</time></trkpt><trkpt lat="44.8305467" lon="9.50384"><ele>257.0</ele><time>2026-04-11T14:25:31.937Z</time></trkpt><trkpt lat="44.8305783" lon="9.504005"><ele>254.25</ele><time>2026-04-11T14:25:32.938Z</time></trkpt><trkpt lat="44.8306067" lon="9.5041717"><ele>251.5</ele><time>2026-04-11T14:25:33.937Z</time></trkpt><trkpt lat="44.8306333" lon="9.50434"><ele>248.75</ele><time>2026-04-11T14:25:34.941Z</time></trkpt><trkpt lat="44.8306567" lon="9.5045067"><ele>246.0</ele><time>2026-04-11T14:25:35.938Z</time></trkpt><trkpt lat="44.83068" lon="9.5046733"><ele>244.25</ele><time>2026-04-11T14:25:36.937Z</time></trkpt><trkpt lat="44.8307033" lon="9.5048333"><ele>242.5</ele><time>2026-04-11T14:25:37.938Z</time></trkpt><trkpt lat="44.83073" lon="9.5049933"><ele>240.75</ele><time>2026-04-11T14:25:38.937Z</time></trkpt><trkpt lat="44.8307733" lon="9.50516"><ele>239.0</ele><time>2026-04-11T14:25:39.943Z</time></trkpt><trkpt lat="44.8308267" lon="9.5053267"><ele>237.25</ele><time>2026-04-11T14:25:40.938Z</time></trkpt><trkpt lat="44.8308983" lon="9.5054933"><ele>235.5</ele><time>2026-04-11T14:25:41.937Z</time></trkpt><trkpt lat="44.83097" lon="9.505655"><ele>233.75</ele><time>2026-04-11T14:25:42.937Z</time></trkpt><trkpt lat="44.8310267" lon="9.5058217"><ele>232.0</ele><time>2026-04-11T14:25:43.937Z</time></trkpt><trkpt lat="44.8310733" lon="9.505995"><ele>233.25</ele><time>2026-04-11T14:25:44.946Z</time></trkpt><trkpt lat="44.83113" lon="9.5061517"><ele>234.5</ele><time>2026-04-11T14:25:45.937Z</time></trkpt><trkpt lat="44.8312067" lon="9.5062783"><ele>235.75</ele><time>2026-04-11T14:25:46.937Z</time></trkpt><trkpt lat="44.8313067" lon="9.5063883"><ele>237.0</ele><time>2026-04-11T14:25:47.937Z</time></trkpt><trkpt lat="44.83141" lon="9.5064933"><ele>237.0</ele><time>2026-04-11T14:25:48.937Z</time></trkpt><trkpt lat="44.83149" lon="9.5066167"><ele>237.0</ele><time>2026-04-11T14:25:49.943Z</time></trkpt><trkpt lat="44.8315333" lon="9.50677"><ele>237.0</ele><time>2026-04-11T14:25:50.937Z</time></trkpt><trkpt lat="44.8315483" lon="9.5069383"><ele>237.0</ele><time>2026-04-11T14:25:51.938Z</time></trkpt><trkpt lat="44.831565" lon="9.5070933"><ele>236.8</ele><time>2026-04-11T14:25:52.938Z</time></trkpt><trkpt lat="44.831605" lon="9.5072233"><ele>236.6</ele><time>2026-04-11T14:25:53.939Z</time></trkpt><trkpt lat="44.8316633" lon="9.5073267"><ele>236.40000000000003</ele><time>2026-04-11T14:25:54.937Z</time></trkpt><trkpt lat="44.8317367" lon="9.507405"><ele>236.20000000000002</ele><time>2026-04-11T14:25:55.94Z</time></trkpt><trkpt lat="44.8318217" lon="9.5074867"><ele>236.0</ele><time>2026-04-11T14:25:56.945Z</time></trkpt><trkpt lat="44.8319167" lon="9.5075917"><ele>236.0</ele><time>2026-04-11T14:25:57.938Z</time></trkpt><trkpt lat="44.832015" lon="9.5076983"><ele>236.0</ele><time>2026-04-11T14:25:58.938Z</time></trkpt><trkpt lat="44.8321183" lon="9.507795"><ele>236.0</ele><time>2026-04-11T14:25:59.938Z</time></trkpt><trkpt lat="44.8322217" lon="9.5078917"><ele>236.0</ele><time>2026-04-11T14:26:00.938Z</time></trkpt><trkpt lat="44.8323283" lon="9.5079767"><ele>234.25</ele><time>2026-04-11T14:26:01.938Z</time></trkpt><trkpt lat="44.8324367" lon="9.5080533"><ele>232.5</ele><time>2026-04-11T14:26:02.938Z</time></trkpt><trkpt lat="44.8325467" lon="9.5081167"><ele>230.75</ele><time>2026-04-11T14:26:03.937Z</time></trkpt><trkpt lat="44.832655" lon="9.508175"><ele>229.0</ele><time>2026-04-11T14:26:04.937Z</time></trkpt><trkpt lat="44.8327583" lon="9.5082433"><ele>229.0</ele><time>2026-04-11T14:26:05.937Z</time></trkpt><trkpt lat="44.83286" lon="9.5083217"><ele>228.99999999999997</ele><time>2026-04-11T14:26:06.94Z</time></trkpt><trkpt lat="44.8329567" lon="9.5084067"><ele>228.99999999999997</ele><time>2026-04-11T14:26:07.937Z</time></trkpt><trkpt lat="44.8330483" lon="9.5084983"><ele>229.0</ele><time>2026-04-11T14:26:08.938Z</time></trkpt><trkpt lat="44.8331267" lon="9.5085983"><ele>229.0</ele><time>2026-04-11T14:26:09.937Z</time></trkpt><trkpt lat="44.83319" lon="9.5087067"><ele>227.39999999999998</ele><time>2026-04-11T14:26:10.937Z</time></trkpt><trkpt lat="44.8332467" lon="9.5088217"><ele>225.79999999999998</ele><time>2026-04-11T14:26:11.937Z</time></trkpt><trkpt lat="44.8332867" lon="9.5089433"><ele>224.20000000000002</ele><time>2026-04-11T14:26:12.937Z</time></trkpt><trkpt lat="44.8333033" lon="9.50907"><ele>222.60000000000002</ele><time>2026-04-11T14:26:13.937Z</time></trkpt><trkpt lat="44.8332917" lon="9.5091967"><ele>221.0</ele><time>2026-04-11T14:26:14.938Z</time></trkpt><trkpt lat="44.8332617" lon="9.509325"><ele>221.0</ele><time>2026-04-11T14:26:15.937Z</time></trkpt><trkpt lat="44.8332233" lon="9.509455"><ele>221.00000000000003</ele><time>2026-04-11T14:26:16.937Z</time></trkpt><trkpt lat="44.8331983" lon="9.50959"><ele>221.00000000000003</ele><time>2026-04-11T14:26:17.937Z</time></trkpt><trkpt lat="44.8331983" lon="9.50973"><ele>221.0</ele><time>2026-04-11T14:26:18.939Z</time></trkpt><trkpt lat="44.833235" lon="9.509865"><ele>221.0</ele><time>2026-04-11T14:26:19.938Z</time></trkpt><trkpt lat="44.8332917" lon="9.5099917"><ele>221.4</ele><time>2026-04-11T14:26:20.938Z</time></trkpt><trkpt lat="44.833355" lon="9.510115"><ele>221.8</ele><time>2026-04-11T14:26:21.937Z</time></trkpt><trkpt lat="44.8334167" lon="9.51024"><ele>222.20000000000002</ele><time>2026-04-11T14:26:22.937Z</time></trkpt><trkpt lat="44.8334817" lon="9.5103667"><ele>222.60000000000002</ele><time>2026-04-11T14:26:23.937Z</time></trkpt><trkpt lat="44.83356" lon="9.510485"><ele>223.0</ele><time>2026-04-11T14:26:24.937Z</time></trkpt><trkpt lat="44.8336467" lon="9.510575"><ele>221.2</ele><time>2026-04-11T14:26:25.944Z</time></trkpt><trkpt lat="44.833745" lon="9.5106183"><ele>219.4</ele><time>2026-04-11T14:26:26.939Z</time></trkpt><trkpt lat="44.833855" lon="9.51063"><ele>217.59999999999997</ele><time>2026-04-11T14:26:27.939Z</time></trkpt><trkpt lat="44.83397" lon="9.5106533"><ele>215.79999999999998</ele><time>2026-04-11T14:26:28.937Z</time></trkpt><trkpt lat="44.8340733" lon="9.5107217"><ele>214.0</ele><time>2026-04-11T14:26:29.938Z</time></trkpt><trkpt lat="44.834155" lon="9.5108283"><ele>214.0</ele><time>2026-04-11T14:26:30.938Z</time></trkpt><trkpt lat="44.8342067" lon="9.510965"><ele>213.99999999999997</ele><time>2026-04-11T14:26:31.938Z</time></trkpt><trkpt lat="44.8342333" lon="9.5111167"><ele>213.99999999999997</ele><time>2026-04-11T14:26:32.938Z</time></trkpt><trkpt lat="44.8342483" lon="9.5112667"><ele>214.0</ele><time>2026-04-11T14:26:33.939Z</time></trkpt><trkpt lat="44.8342617" lon="9.5114167"><ele>214.0</ele><time>2026-04-11T14:26:34.938Z</time></trkpt><trkpt lat="44.8342867" lon="9.51156"><ele>213.75</ele><time>2026-04-11T14:26:35.937Z</time></trkpt><trkpt lat="44.8343233" lon="9.5117"><ele>213.5</ele><time>2026-04-11T14:26:36.944Z</time></trkpt><trkpt lat="44.83438" lon="9.5118383"><ele>213.25</ele><time>2026-04-11T14:26:37.938Z</time></trkpt><trkpt lat="44.8344617" lon="9.5119633"><ele>213.0</ele><time>2026-04-11T14:26:38.937Z</time></trkpt><trkpt lat="44.8345567" lon="9.512085"><ele>213.0</ele><time>2026-04-11T14:26:39.938Z</time></trkpt><trkpt lat="44.834655" lon="9.5122"><ele>213.0</ele><time>2026-04-11T14:26:40.937Z</time></trkpt><trkpt lat="44.8347433" lon="9.5123133"><ele>213.0</ele><time>2026-04-11T14:26:41.938Z</time></trkpt><trkpt lat="44.8348283" lon="9.5124317"><ele>213.0</ele><time>2026-04-11T14:26:42.937Z</time></trkpt><trkpt lat="44.8349183" lon="9.512555"><ele>213.0</ele><time>2026-04-11T14:26:43.937Z</time></trkpt><trkpt lat="44.83502" lon="9.51267"><ele>213.0</ele><time>2026-04-11T14:26:44.947Z</time></trkpt><trkpt lat="44.8351267" lon="9.5127733"><ele>213.0</ele><time>2026-04-11T14:26:45.937Z</time></trkpt><trkpt lat="44.83523" lon="9.5128667"><ele>213.0</ele><time>2026-04-11T14:26:46.937Z</time></trkpt><trkpt lat="44.8353317" lon="9.51295"><ele>211.5</ele><time>2026-04-11T14:26:47.937Z</time></trkpt><trkpt lat="44.83544" lon="9.51301"><ele>210.0</ele><time>2026-04-11T14:26:48.938Z</time></trkpt><trkpt lat="44.835555" lon="9.5130467"><ele>208.5</ele><time>2026-04-11T14:26:49.938Z</time></trkpt><trkpt lat="44.835675" lon="9.5130733"><ele>207.0</ele><time>2026-04-11T14:26:50.943Z</time></trkpt><trkpt lat="44.835795" lon="9.5130967"><ele>207.0</ele><time>2026-04-11T14:26:51.937Z</time></trkpt><trkpt lat="44.83592" lon="9.5131217"><ele>207.0</ele><time>2026-04-11T14:26:52.938Z</time></trkpt><trkpt lat="44.8360433" lon="9.5131483"><ele>207.0</ele><time>2026-04-11T14:26:53.937Z</time></trkpt><trkpt lat="44.8361683" lon="9.5131783"><ele>207.0</ele><time>2026-04-11T14:26:54.938Z</time></trkpt><trkpt lat="44.8362983" lon="9.5132067"><ele>208.25</ele><time>2026-04-11T14:26:55.938Z</time></trkpt><trkpt lat="44.8364317" lon="9.5132383"><ele>209.5</ele><time>2026-04-11T14:26:56.939Z</time></trkpt><trkpt lat="44.8365633" lon="9.5132667"><ele>210.75</ele><time>2026-04-11T14:26:57.938Z</time></trkpt><trkpt lat="44.836695" lon="9.513295"><ele>212.0</ele><time>2026-04-11T14:26:58.937Z</time></trkpt><trkpt lat="44.836825" lon="9.513315"><ele>212.75</ele><time>2026-04-11T14:26:59.945Z</time></trkpt><trkpt lat="44.83695" lon="9.5133317"><ele>213.5</ele><time>2026-04-11T14:27:00.937Z</time></trkpt><trkpt lat="44.8370667" lon="9.5133417"><ele>214.25</ele><time>2026-04-11T14:27:01.938Z</time></trkpt><trkpt lat="44.8371817" lon="9.51335"><ele>215.0</ele><time>2026-04-11T14:27:02.938Z</time></trkpt><trkpt lat="44.8372933" lon="9.5133583"><ele>215.0</ele><time>2026-04-11T14:27:03.938Z</time></trkpt><trkpt lat="44.837405" lon="9.5133767"><ele>215.0</ele><time>2026-04-11T14:27:04.943Z</time></trkpt><trkpt lat="44.837515" lon="9.5134267"><ele>215.0</ele><time>2026-04-11T14:27:05.937Z</time></trkpt><trkpt lat="44.83762" lon="9.513525"><ele>215.0</ele><time>2026-04-11T14:27:06.938Z</time></trkpt><trkpt lat="44.8377167" lon="9.51364"><ele>212.0</ele><time>2026-04-11T14:27:07.938Z</time></trkpt><trkpt lat="44.8378117" lon="9.51375"><ele>209.0</ele><time>2026-04-11T14:27:08.938Z</time></trkpt><trkpt lat="44.8379117" lon="9.5138383"><ele>206.0</ele><time>2026-04-11T14:27:09.937Z</time></trkpt><trkpt lat="44.8380283" lon="9.5138967"><ele>203.0</ele><time>2026-04-11T14:27:10.937Z</time></trkpt><trkpt lat="44.838145" lon="9.51394"><ele>203.0</ele><time>2026-04-11T14:27:11.938Z</time></trkpt><trkpt lat="44.83826" lon="9.51398"><ele>203.0</ele><time>2026-04-11T14:27:12.938Z</time></trkpt><trkpt lat="44.838365" lon="9.5140217"><ele>203.0</ele><time>2026-04-11T14:27:13.939Z</time></trkpt><trkpt lat="44.8384683" lon="9.5140683"><ele>203.0</ele><time>2026-04-11T14:27:14.938Z</time></trkpt><trkpt lat="44.8385733" lon="9.5141067"><ele>203.0</ele><time>2026-04-11T14:27:15.938Z</time></trkpt><trkpt lat="44.83868" lon="9.5141217"><ele>204.2</ele><time>2026-04-11T14:27:16.937Z</time></trkpt><trkpt lat="44.8387817" lon="9.5141017"><ele>205.4</ele><time>2026-04-11T14:27:17.938Z</time></trkpt><trkpt lat="44.8388733" lon="9.5140367"><ele>206.6</ele><time>2026-04-11T14:27:18.939Z</time></trkpt><trkpt lat="44.838945" lon="9.5139383"><ele>207.79999999999998</ele><time>2026-04-11T14:27:19.941Z</time></trkpt><trkpt lat="44.8390067" lon="9.5138333"><ele>209.0</ele><time>2026-04-11T14:27:20.939Z</time></trkpt><trkpt lat="44.83907" lon="9.5137617"><ele>209.00000000000003</ele><time>2026-04-11T14:27:21.943Z</time></trkpt><trkpt lat="44.8391333" lon="9.5137283"><ele>209.0</ele><time>2026-04-11T14:27:22.939Z</time></trkpt><trkpt lat="44.8392333" lon="9.5138183"><ele>209.0</ele><time>2026-04-11T14:27:24.939Z</time></trkpt><trkpt lat="44.8392617" lon="9.5139167"><ele>209.0</ele><time>2026-04-11T14:27:25.939Z</time></trkpt><trkpt lat="44.83927" lon="9.5140333"><ele>209.00000000000003</ele><time>2026-04-11T14:27:26.941Z</time></trkpt><trkpt lat="44.8392533" lon="9.5141483"><ele>209.0</ele><time>2026-04-11T14:27:27.941Z</time></trkpt><trkpt lat="44.839225" lon="9.5142667"><ele>209.0</ele><time>2026-04-11T14:27:28.94Z</time></trkpt><trkpt lat="44.8392017" lon="9.5143917"><ele>209.0</ele><time>2026-04-11T14:27:29.937Z</time></trkpt><trkpt lat="44.8391883" lon="9.5145167"><ele>209.0</ele><time>2026-04-11T14:27:30.938Z</time></trkpt><trkpt lat="44.839195" lon="9.514655"><ele>209.0</ele><time>2026-04-11T14:27:31.937Z</time></trkpt><trkpt lat="44.8392167" lon="9.5148033"><ele>209.0</ele><time>2026-04-11T14:27:32.938Z</time></trkpt><trkpt lat="44.8392583" lon="9.5149417"><ele>213.0</ele><time>2026-04-11T14:27:33.938Z</time></trkpt><trkpt lat="44.8393133" lon="9.5150733"><ele>217.0</ele><time>2026-04-11T14:27:34.937Z</time></trkpt><trkpt lat="44.839365" lon="9.5152"><ele>220.99999999999997</ele><time>2026-04-11T14:27:35.938Z</time></trkpt><trkpt lat="44.839395" lon="9.51532"><ele>225.0</ele><time>2026-04-11T14:27:36.937Z</time></trkpt><trkpt lat="44.8394233" lon="9.5154333"><ele>229.0</ele><time>2026-04-11T14:27:37.937Z</time></trkpt><trkpt lat="44.8394533" lon="9.515535"><ele>229.0</ele><time>2026-04-11T14:27:38.938Z</time></trkpt><trkpt lat="44.8394967" lon="9.51563"><ele>228.99999999999997</ele><time>2026-04-11T14:27:39.938Z</time></trkpt><trkpt lat="44.8395567" lon="9.5157217"><ele>228.99999999999997</ele><time>2026-04-11T14:27:40.938Z</time></trkpt><trkpt lat="44.839655" lon="9.5158233"><ele>229.0</ele><time>2026-04-11T14:27:41.939Z</time></trkpt><trkpt lat="44.8397417" lon="9.5159233"><ele>229.0</ele><time>2026-04-11T14:27:42.937Z</time></trkpt><trkpt lat="44.839825" lon="9.51605"><ele>229.0</ele><time>2026-04-11T14:27:43.939Z</time></trkpt><trkpt lat="44.8398933" lon="9.51619"><ele>229.0</ele><time>2026-04-11T14:27:44.94Z</time></trkpt><trkpt lat="44.8399567" lon="9.5163483"><ele>229.0</ele><time>2026-04-11T14:27:45.94Z</time></trkpt><trkpt lat="44.8400167" lon="9.5165067"><ele>229.0</ele><time>2026-04-11T14:27:46.942Z</time></trkpt><trkpt lat="44.8400683" lon="9.5166517"><ele>230.16666666666666</ele><time>2026-04-11T14:27:47.938Z</time></trkpt><trkpt lat="44.84012" lon="9.5167683"><ele>231.33333333333331</ele><time>2026-04-11T14:27:48.938Z</time></trkpt><trkpt lat="44.8401833" lon="9.5168417"><ele>232.5</ele><time>2026-04-11T14:27:49.938Z</time></trkpt><trkpt lat="44.8402583" lon="9.516895"><ele>233.66666666666669</ele><time>2026-04-11T14:27:50.938Z</time></trkpt><trkpt lat="44.8403383" lon="9.51693"><ele>234.83333333333334</ele><time>2026-04-11T14:27:51.938Z</time></trkpt><trkpt lat="44.8404167" lon="9.5169717"><ele>236.0</ele><time>2026-04-11T14:27:52.941Z</time></trkpt><trkpt lat="44.8404933" lon="9.517025"><ele>232.4</ele><time>2026-04-11T14:27:53.938Z</time></trkpt><trkpt lat="44.8405683" lon="9.5170917"><ele>228.8</ele><time>2026-04-11T14:27:54.938Z</time></trkpt><trkpt lat="44.8406383" lon="9.51718"><ele>225.20000000000002</ele><time>2026-04-11T14:27:55.939Z</time></trkpt><trkpt lat="44.8407167" lon="9.5172733"><ele>221.60000000000002</ele><time>2026-04-11T14:27:56.944Z</time></trkpt><trkpt lat="44.8407967" lon="9.517375"><ele>218.0</ele><time>2026-04-11T14:27:57.938Z</time></trkpt><trkpt lat="44.840875" lon="9.5174867"><ele>218.00000000000003</ele><time>2026-04-11T14:27:58.938Z</time></trkpt><trkpt lat="44.8409383" lon="9.5175933"><ele>218.0</ele><time>2026-04-11T14:27:59.945Z</time></trkpt><trkpt lat="44.840995" lon="9.5177133"><ele>218.0</ele><time>2026-04-11T14:28:00.937Z</time></trkpt><trkpt lat="44.8410333" lon="9.5178283"><ele>218.0</ele><time>2026-04-11T14:28:01.94Z</time></trkpt><trkpt lat="44.8410667" lon="9.5179333"><ele>218.00000000000003</ele><time>2026-04-11T14:28:02.94Z</time></trkpt><trkpt lat="44.8411033" lon="9.5180233"><ele>218.0</ele><time>2026-04-11T14:28:03.939Z</time></trkpt><trkpt lat="44.841145" lon="9.51811"><ele>218.16666666666669</ele><time>2026-04-11T14:28:04.938Z</time></trkpt><trkpt lat="44.841185" lon="9.51819"><ele>218.33333333333334</ele><time>2026-04-11T14:28:05.946Z</time></trkpt><trkpt lat="44.841225" lon="9.5182683"><ele>218.5</ele><time>2026-04-11T14:28:06.939Z</time></trkpt><trkpt lat="44.8412817" lon="9.5183417"><ele>218.66666666666669</ele><time>2026-04-11T14:28:07.938Z</time></trkpt><trkpt lat="44.8413533" lon="9.51841"><ele>218.83333333333334</ele><time>2026-04-11T14:28:08.938Z</time></trkpt><trkpt lat="44.841445" lon="9.5184833"><ele>219.0</ele><time>2026-04-11T14:28:09.938Z</time></trkpt><trkpt lat="44.8415367" lon="9.518565"><ele>219.0</ele><time>2026-04-11T14:28:10.942Z</time></trkpt><trkpt lat="44.8416333" lon="9.518645"><ele>219.0</ele><time>2026-04-11T14:28:11.937Z</time></trkpt><trkpt lat="44.8417267" lon="9.518725"><ele>219.0</ele><time>2026-04-11T14:28:12.939Z</time></trkpt><trkpt lat="44.841825" lon="9.5188133"><ele>219.0</ele><time>2026-04-11T14:28:13.939Z</time></trkpt><trkpt lat="44.84192" lon="9.5189"><ele>216.0</ele><time>2026-04-11T14:28:14.94Z</time></trkpt><trkpt lat="44.8420167" lon="9.5189717"><ele>212.99999999999997</ele><time>2026-04-11T14:28:15.942Z</time></trkpt><trkpt lat="44.8421183" lon="9.5190217"><ele>210.0</ele><time>2026-04-11T14:28:16.937Z</time></trkpt><trkpt lat="44.8422217" lon="9.5190517"><ele>207.0</ele><time>2026-04-11T14:28:17.937Z</time></trkpt><trkpt lat="44.8423283" lon="9.5190783"><ele>204.0</ele><time>2026-04-11T14:28:18.939Z</time></trkpt><trkpt lat="44.8424333" lon="9.5190983"><ele>204.0</ele><time>2026-04-11T14:28:19.939Z</time></trkpt><trkpt lat="44.8425417" lon="9.5191"><ele>204.0</ele><time>2026-04-11T14:28:20.939Z</time></trkpt><trkpt lat="44.8426517" lon="9.51909"><ele>204.0</ele><time>2026-04-11T14:28:21.939Z</time></trkpt><trkpt lat="44.8427667" lon="9.5190783"><ele>204.0</ele><time>2026-04-11T14:28:22.94Z</time></trkpt><trkpt lat="44.842875" lon="9.5190683"><ele>204.0</ele><time>2026-04-11T14:28:23.939Z</time></trkpt><trkpt lat="44.8429783" lon="9.5190933"><ele>207.25</ele><time>2026-04-11T14:28:24.947Z</time></trkpt><trkpt lat="44.8430733" lon="9.5191533"><ele>210.5</ele><time>2026-04-11T14:28:25.939Z</time></trkpt><trkpt lat="44.8431717" lon="9.5192533"><ele>213.75</ele><time>2026-04-11T14:28:26.94Z</time></trkpt><trkpt lat="44.8432767" lon="9.5193667"><ele>217.0</ele><time>2026-04-11T14:28:27.94Z</time></trkpt><trkpt lat="44.8433817" lon="9.5194783"><ele>216.2</ele><time>2026-04-11T14:28:28.939Z</time></trkpt><trkpt lat="44.8434867" lon="9.5195717"><ele>215.39999999999998</ele><time>2026-04-11T14:28:29.943Z</time></trkpt><trkpt lat="44.8435833" lon="9.5196567"><ele>214.60000000000002</ele><time>2026-04-11T14:28:30.937Z</time></trkpt><trkpt lat="44.84367" lon="9.5197433"><ele>213.8</ele><time>2026-04-11T14:28:31.938Z</time></trkpt><trkpt lat="44.84374" lon="9.5198367"><ele>213.0</ele><time>2026-04-11T14:28:32.937Z</time></trkpt><trkpt lat="44.8438117" lon="9.5199467"><ele>213.0</ele><time>2026-04-11T14:28:33.939Z</time></trkpt><trkpt lat="44.8438883" lon="9.5200467"><ele>213.0</ele><time>2026-04-11T14:28:34.937Z</time></trkpt><trkpt lat="44.8439867" lon="9.5201133"><ele>213.0</ele><time>2026-04-11T14:28:35.938Z</time></trkpt><trkpt lat="44.8440917" lon="9.520155"><ele>213.0</ele><time>2026-04-11T14:28:36.937Z</time></trkpt><trkpt lat="44.8441917" lon="9.5201933"><ele>213.0</ele><time>2026-04-11T14:28:37.937Z</time></trkpt><trkpt lat="44.8442867" lon="9.5202433"><ele>211.8</ele><time>2026-04-11T14:28:38.937Z</time></trkpt><trkpt lat="44.84438" lon="9.5203167"><ele>210.60000000000002</ele><time>2026-04-11T14:28:39.937Z</time></trkpt><trkpt lat="44.8444617" lon="9.5204167"><ele>209.39999999999998</ele><time>2026-04-11T14:28:40.943Z</time></trkpt><trkpt lat="44.8445217" lon="9.5205283"><ele>208.2</ele><time>2026-04-11T14:28:41.937Z</time></trkpt><trkpt lat="44.84453" lon="9.5206733"><ele>207.0</ele><time>2026-04-11T14:28:42.937Z</time></trkpt><trkpt lat="44.8445317" lon="9.5207967"><ele>207.0</ele><time>2026-04-11T14:28:43.937Z</time></trkpt><trkpt lat="44.84455" lon="9.5209"><ele>207.0</ele><time>2026-04-11T14:28:44.937Z</time></trkpt><trkpt lat="44.8445917" lon="9.52097"><ele>207.0</ele><time>2026-04-11T14:28:45.943Z</time></trkpt><trkpt lat="44.8446883" lon="9.5209683"><ele>207.0</ele><time>2026-04-11T14:28:46.936Z</time></trkpt><trkpt lat="44.8447933" lon="9.520975"><ele>207.0</ele><time>2026-04-11T14:28:47.938Z</time></trkpt><trkpt lat="44.8448983" lon="9.5210167"><ele>207.0</ele><time>2026-04-11T14:28:48.938Z</time></trkpt><trkpt lat="44.8449867" lon="9.5210817"><ele>207.0</ele><time>2026-04-11T14:28:49.938Z</time></trkpt><trkpt lat="44.8450683" lon="9.5211517"><ele>207.0</ele><time>2026-04-11T14:28:50.944Z</time></trkpt><trkpt lat="44.8451433" lon="9.5212283"><ele>207.0</ele><time>2026-04-11T14:28:51.938Z</time></trkpt><trkpt lat="44.8451933" lon="9.52132"><ele>207.0</ele><time>2026-04-11T14:28:52.938Z</time></trkpt><trkpt lat="44.8452" lon="9.5214517"><ele>207.0</ele><time>2026-04-11T14:28:53.939Z</time></trkpt><trkpt lat="44.8451867" lon="9.5216067"><ele>207.0</ele><time>2026-04-11T14:28:54.938Z</time></trkpt><trkpt lat="44.8451767" lon="9.5217633"><ele>207.0</ele><time>2026-04-11T14:28:55.938Z</time></trkpt><trkpt lat="44.845165" lon="9.5219133"><ele>207.0</ele><time>2026-04-11T14:28:56.938Z</time></trkpt><trkpt lat="44.84515" lon="9.522055"><ele>207.0</ele><time>2026-04-11T14:28:57.938Z</time></trkpt><trkpt lat="44.8451267" lon="9.522185"><ele>205.8</ele><time>2026-04-11T14:28:58.942Z</time></trkpt><trkpt lat="44.845095" lon="9.5223033"><ele>204.6</ele><time>2026-04-11T14:28:59.937Z</time></trkpt><trkpt lat="44.84507" lon="9.52242"><ele>203.4</ele><time>2026-04-11T14:29:00.943Z</time></trkpt><trkpt lat="44.8450683" lon="9.5225367"><ele>202.20000000000002</ele><time>2026-04-11T14:29:01.937Z</time></trkpt><trkpt lat="44.8451017" lon="9.5226617"><ele>201.0</ele><time>2026-04-11T14:29:02.939Z</time></trkpt><trkpt lat="44.8451517" lon="9.522795"><ele>198.25</ele><time>2026-04-11T14:29:03.938Z</time></trkpt><trkpt lat="44.8451933" lon="9.522935"><ele>195.5</ele><time>2026-04-11T14:29:04.938Z</time></trkpt><trkpt lat="44.8452267" lon="9.5230867"><ele>192.75</ele><time>2026-04-11T14:29:05.936Z</time></trkpt><trkpt lat="44.8452683" lon="9.52324"><ele>190.0</ele><time>2026-04-11T14:29:06.937Z</time></trkpt><trkpt lat="44.8453267" lon="9.5233967"><ele>190.0</ele><time>2026-04-11T14:29:07.937Z</time></trkpt><trkpt lat="44.8454" lon="9.5235567"><ele>190.0</ele><time>2026-04-11T14:29:08.937Z</time></trkpt><trkpt lat="44.8454783" lon="9.52372"><ele>190.0</ele><time>2026-04-11T14:29:09.94Z</time></trkpt><trkpt lat="44.8455483" lon="9.52388"><ele>190.0</ele><time>2026-04-11T14:29:10.937Z</time></trkpt><trkpt lat="44.8456033" lon="9.52404"><ele>188.25</ele><time>2026-04-11T14:29:11.936Z</time></trkpt><trkpt lat="44.84565" lon="9.5242017"><ele>186.5</ele><time>2026-04-11T14:29:12.937Z</time></trkpt><trkpt lat="44.8456967" lon="9.5243567"><ele>184.75</ele><time>2026-04-11T14:29:13.939Z</time></trkpt><trkpt lat="44.8457583" lon="9.52449"><ele>183.0</ele><time>2026-04-11T14:29:14.936Z</time></trkpt><trkpt lat="44.84584" lon="9.5246"><ele>182.75</ele><time>2026-04-11T14:29:15.936Z</time></trkpt><trkpt lat="44.845935" lon="9.52469"><ele>182.5</ele><time>2026-04-11T14:29:16.937Z</time></trkpt><trkpt lat="44.8460417" lon="9.5247733"><ele>182.25</ele><time>2026-04-11T14:29:17.938Z</time></trkpt><trkpt lat="44.84615" lon="9.5248617"><ele>182.0</ele><time>2026-04-11T14:29:18.937Z</time></trkpt><trkpt lat="44.84626" lon="9.5249533"><ele>182.0</ele><time>2026-04-11T14:29:19.937Z</time></trkpt><trkpt lat="44.8463717" lon="9.5250483"><ele>182.0</ele><time>2026-04-11T14:29:20.942Z</time></trkpt><trkpt lat="44.846485" lon="9.52514"><ele>182.0</ele><time>2026-04-11T14:29:21.937Z</time></trkpt><trkpt lat="44.8466" lon="9.52523"><ele>182.0</ele><time>2026-04-11T14:29:22.936Z</time></trkpt><trkpt lat="44.8467167" lon="9.5253217"><ele>181.5</ele><time>2026-04-11T14:29:23.938Z</time></trkpt><trkpt lat="44.8468333" lon="9.52541"><ele>181.0</ele><time>2026-04-11T14:29:24.937Z</time></trkpt><trkpt lat="44.8469467" lon="9.5254967"><ele>180.5</ele><time>2026-04-11T14:29:25.937Z</time></trkpt><trkpt lat="44.8470583" lon="9.5255817"><ele>180.0</ele><time>2026-04-11T14:29:26.938Z</time></trkpt><trkpt lat="44.84717" lon="9.5256667"><ele>180.0</ele><time>2026-04-11T14:29:27.943Z</time></trkpt><trkpt lat="44.8472767" lon="9.52575"><ele>180.0</ele><time>2026-04-11T14:29:28.938Z</time></trkpt><trkpt lat="44.8473883" lon="9.5258333"><ele>180.0</ele><time>2026-04-11T14:29:29.937Z</time></trkpt><trkpt lat="44.8475017" lon="9.5259183"><ele>180.0</ele><time>2026-04-11T14:29:30.936Z</time></trkpt><trkpt lat="44.8476183" lon="9.5260067"><ele>180.25</ele><time>2026-04-11T14:29:31.937Z</time></trkpt><trkpt lat="44.84774" lon="9.5260983"><ele>180.5</ele><time>2026-04-11T14:29:32.942Z</time></trkpt><trkpt lat="44.847865" lon="9.5261933"><ele>180.75</ele><time>2026-04-11T14:29:33.937Z</time></trkpt><trkpt lat="44.84799" lon="9.52629"><ele>181.0</ele><time>2026-04-11T14:29:34.936Z</time></trkpt><trkpt lat="44.8481133" lon="9.5263833"><ele>181.25</ele><time>2026-04-11T14:29:35.936Z</time></trkpt><trkpt lat="44.8482367" lon="9.5264767"><ele>181.5</ele><time>2026-04-11T14:29:36.937Z</time></trkpt><trkpt lat="44.84836" lon="9.5265683"><ele>181.75</ele><time>2026-04-11T14:29:38.014Z</time></trkpt><trkpt lat="44.84848" lon="9.5266583"><ele>182.0</ele><time>2026-04-11T14:29:38.938Z</time></trkpt><trkpt lat="44.8486" lon="9.5267483"><ele>182.0</ele><time>2026-04-11T14:29:39.942Z</time></trkpt><trkpt lat="44.848715" lon="9.5268333"><ele>182.0</ele><time>2026-04-11T14:29:40.937Z</time></trkpt><trkpt lat="44.84883" lon="9.5269183"><ele>182.0</ele><time>2026-04-11T14:29:41.938Z</time></trkpt><trkpt lat="44.8489483" lon="9.5270083"><ele>182.0</ele><time>2026-04-11T14:29:42.937Z</time></trkpt><trkpt lat="44.849065" lon="9.5270983"><ele>181.75</ele><time>2026-04-11T14:29:43.936Z</time></trkpt><trkpt lat="44.84918" lon="9.527185"><ele>181.5</ele><time>2026-04-11T14:29:44.937Z</time></trkpt><trkpt lat="44.849295" lon="9.5272683"><ele>181.25</ele><time>2026-04-11T14:29:45.936Z</time></trkpt><trkpt lat="44.8494033" lon="9.527345"><ele>181.0</ele><time>2026-04-11T14:29:46.937Z</time></trkpt><trkpt lat="44.8495033" lon="9.52742"><ele>181.4</ele><time>2026-04-11T14:29:47.937Z</time></trkpt><trkpt lat="44.849595" lon="9.527505"><ele>181.8</ele><time>2026-04-11T14:29:48.938Z</time></trkpt><trkpt lat="44.8496683" lon="9.5276117"><ele>182.20000000000002</ele><time>2026-04-11T14:29:49.939Z</time></trkpt><trkpt lat="44.84971" lon="9.5277483"><ele>182.60000000000002</ele><time>2026-04-11T14:29:50.938Z</time></trkpt><trkpt lat="44.8497233" lon="9.5279067"><ele>183.0</ele><time>2026-04-11T14:29:51.938Z</time></trkpt><trkpt lat="44.8497267" lon="9.52808"><ele>183.0</ele><time>2026-04-11T14:29:52.937Z</time></trkpt><trkpt lat="44.849735" lon="9.5282533"><ele>183.0</ele><time>2026-04-11T14:29:53.937Z</time></trkpt><trkpt lat="44.849745" lon="9.5284233"><ele>183.0</ele><time>2026-04-11T14:29:54.939Z</time></trkpt><trkpt lat="44.8497567" lon="9.52859"><ele>183.0</ele><time>2026-04-11T14:29:55.938Z</time></trkpt><trkpt lat="44.8497733" lon="9.5287633"><ele>182.25</ele><time>2026-04-11T14:29:56.937Z</time></trkpt><trkpt lat="44.8498" lon="9.5289367"><ele>181.5</ele><time>2026-04-11T14:29:57.937Z</time></trkpt><trkpt lat="44.8498367" lon="9.5291083"><ele>180.75</ele><time>2026-04-11T14:29:58.938Z</time></trkpt><trkpt lat="44.8498833" lon="9.5292733"><ele>180.0</ele><time>2026-04-11T14:29:59.937Z</time></trkpt><trkpt lat="44.8499383" lon="9.5294417"><ele>179.75</ele><time>2026-04-11T14:30:00.938Z</time></trkpt><trkpt lat="44.849995" lon="9.5296067"><ele>179.5</ele><time>2026-04-11T14:30:01.942Z</time></trkpt><trkpt lat="44.8500533" lon="9.5297683"><ele>179.25</ele><time>2026-04-11T14:30:02.939Z</time></trkpt><trkpt lat="44.8501067" lon="9.529925"><ele>179.0</ele><time>2026-04-11T14:30:03.937Z</time></trkpt><trkpt lat="44.8501567" lon="9.5300767"><ele>178.6</ele><time>2026-04-11T14:30:04.938Z</time></trkpt><trkpt lat="44.850205" lon="9.530225"><ele>178.2</ele><time>2026-04-11T14:30:05.937Z</time></trkpt><trkpt lat="44.8502617" lon="9.5303583"><ele>177.79999999999998</ele><time>2026-04-11T14:30:06.945Z</time></trkpt><trkpt lat="44.8503417" lon="9.53046"><ele>177.39999999999998</ele><time>2026-04-11T14:30:07.938Z</time></trkpt><trkpt lat="44.8504483" lon="9.53052"><ele>177.0</ele><time>2026-04-11T14:30:08.938Z</time></trkpt><trkpt lat="44.85057" lon="9.53054"><ele>176.75</ele><time>2026-04-11T14:30:09.938Z</time></trkpt><trkpt lat="44.8506967" lon="9.53055"><ele>176.5</ele><time>2026-04-11T14:30:10.938Z</time></trkpt><trkpt lat="44.8508167" lon="9.5305617"><ele>176.25</ele><time>2026-04-11T14:30:11.937Z</time></trkpt><trkpt lat="44.8509317" lon="9.5305733"><ele>176.0</ele><time>2026-04-11T14:30:12.937Z</time></trkpt><trkpt lat="44.851035" lon="9.5305883"><ele>176.0</ele><time>2026-04-11T14:30:13.937Z</time></trkpt><trkpt lat="44.8511267" lon="9.5306183"><ele>176.0</ele><time>2026-04-11T14:30:14.937Z</time></trkpt><trkpt lat="44.8512067" lon="9.5306767"><ele>176.0</ele><time>2026-04-11T14:30:15.938Z</time></trkpt><trkpt lat="44.8512667" lon="9.5307617"><ele>176.0</ele><time>2026-04-11T14:30:16.937Z</time></trkpt><trkpt lat="44.8513067" lon="9.5308683"><ele>176.0</ele><time>2026-04-11T14:30:17.937Z</time></trkpt><trkpt lat="44.8513233" lon="9.5309967"><ele>176.0</ele><time>2026-04-11T14:30:18.938Z</time></trkpt><trkpt lat="44.851315" lon="9.5311633"><ele>175.5</ele><time>2026-04-11T14:30:19.945Z</time></trkpt><trkpt lat="44.8513033" lon="9.53134"><ele>175.0</ele><time>2026-04-11T14:30:20.939Z</time></trkpt><trkpt lat="44.851295" lon="9.5315267"><ele>174.5</ele><time>2026-04-11T14:30:21.937Z</time></trkpt><trkpt lat="44.851295" lon="9.531715"><ele>174.0</ele><time>2026-04-11T14:30:22.937Z</time></trkpt><trkpt lat="44.8512917" lon="9.5319033"><ele>173.75</ele><time>2026-04-11T14:30:23.937Z</time></trkpt><trkpt lat="44.8512917" lon="9.5320817"><ele>173.5</ele><time>2026-04-11T14:30:24.937Z</time></trkpt><trkpt lat="44.85129" lon="9.5322567"><ele>173.25</ele><time>2026-04-11T14:30:25.938Z</time></trkpt><trkpt lat="44.8512883" lon="9.5324283"><ele>173.0</ele><time>2026-04-11T14:30:26.944Z</time></trkpt><trkpt lat="44.8513017" lon="9.5325867"><ele>173.0</ele><time>2026-04-11T14:30:27.937Z</time></trkpt><trkpt lat="44.8513433" lon="9.532725"><ele>173.0</ele><time>2026-04-11T14:30:28.937Z</time></trkpt><trkpt lat="44.8514217" lon="9.532835"><ele>173.0</ele><time>2026-04-11T14:30:29.937Z</time></trkpt><trkpt lat="44.8515183" lon="9.5328967"><ele>173.0</ele><time>2026-04-11T14:30:30.937Z</time></trkpt><trkpt lat="44.8516333" lon="9.5329167"><ele>173.0</ele><time>2026-04-11T14:30:31.937Z</time></trkpt><trkpt lat="44.8517583" lon="9.53293"><ele>172.5</ele><time>2026-04-11T14:30:32.937Z</time></trkpt><trkpt lat="44.8518867" lon="9.5329533"><ele>172.0</ele><time>2026-04-11T14:30:33.938Z</time></trkpt><trkpt lat="44.8520167" lon="9.5329833"><ele>171.5</ele><time>2026-04-11T14:30:34.937Z</time></trkpt><trkpt lat="44.8521483" lon="9.533015"><ele>171.0</ele><time>2026-04-11T14:30:35.945Z</time></trkpt><trkpt lat="44.8522817" lon="9.5330517"><ele>171.0</ele><time>2026-04-11T14:30:36.939Z</time></trkpt><trkpt lat="44.8524167" lon="9.5330933"><ele>171.0</ele><time>2026-04-11T14:30:37.938Z</time></trkpt><trkpt lat="44.8525533" lon="9.5331467"><ele>171.0</ele><time>2026-04-11T14:30:38.937Z</time></trkpt><trkpt lat="44.852685" lon="9.5332167"><ele>171.0</ele><time>2026-04-11T14:30:39.937Z</time></trkpt><trkpt lat="44.8528167" lon="9.5332967"><ele>171.5</ele><time>2026-04-11T14:30:40.937Z</time></trkpt><trkpt lat="44.852955" lon="9.5333683"><ele>172.0</ele><time>2026-04-11T14:30:41.937Z</time></trkpt><trkpt lat="44.8530983" lon="9.533415"><ele>172.5</ele><time>2026-04-11T14:30:42.937Z</time></trkpt><trkpt lat="44.8532417" lon="9.533455"><ele>173.0</ele><time>2026-04-11T14:30:43.937Z</time></trkpt><trkpt lat="44.8533833" lon="9.5334933"><ele>172.75</ele><time>2026-04-11T14:30:44.937Z</time></trkpt><trkpt lat="44.8535217" lon="9.5335267"><ele>172.5</ele><time>2026-04-11T14:30:45.937Z</time></trkpt><trkpt lat="44.8536617" lon="9.53356"><ele>172.25</ele><time>2026-04-11T14:30:46.937Z</time></trkpt><trkpt lat="44.853805" lon="9.5336"><ele>172.0</ele><time>2026-04-11T14:30:47.937Z</time></trkpt><trkpt lat="44.8539467" lon="9.53365"><ele>172.0</ele><time>2026-04-11T14:30:48.938Z</time></trkpt><trkpt lat="44.854085" lon="9.5337033"><ele>172.0</ele><time>2026-04-11T14:30:49.941Z</time></trkpt><trkpt lat="44.8542183" lon="9.533745"><ele>172.0</ele><time>2026-04-11T14:30:50.938Z</time></trkpt><trkpt lat="44.8543567" lon="9.5337683"><ele>172.0</ele><time>2026-04-11T14:30:51.937Z</time></trkpt><trkpt lat="44.854495" lon="9.533775"><ele>172.75</ele><time>2026-04-11T14:30:52.937Z</time></trkpt><trkpt lat="44.8546317" lon="9.5337633"><ele>173.5</ele><time>2026-04-11T14:30:53.937Z</time></trkpt><trkpt lat="44.8547667" lon="9.533725"><ele>174.25</ele><time>2026-04-11T14:30:54.944Z</time></trkpt><trkpt lat="44.8548983" lon="9.5336517"><ele>175.0</ele><time>2026-04-11T14:30:55.939Z</time></trkpt><trkpt lat="44.8550217" lon="9.53357"><ele>177.25</ele><time>2026-04-11T14:30:56.937Z</time></trkpt><trkpt lat="44.85514" lon="9.5335033"><ele>179.5</ele><time>2026-04-11T14:30:57.936Z</time></trkpt><trkpt lat="44.8552567" lon="9.5334617"><ele>181.75</ele><time>2026-04-11T14:30:58.939Z</time></trkpt><trkpt lat="44.8553833" lon="9.5334317"><ele>184.0</ele><time>2026-04-11T14:30:59.939Z</time></trkpt><trkpt lat="44.8555083" lon="9.53342"><ele>184.0</ele><time>2026-04-11T14:31:00.941Z</time></trkpt><trkpt lat="44.8556217" lon="9.53342"><ele>184.0</ele><time>2026-04-11T14:31:01.939Z</time></trkpt><trkpt lat="44.85573" lon="9.5334367"><ele>184.0</ele><time>2026-04-11T14:31:02.939Z</time></trkpt><trkpt lat="44.855835" lon="9.5334817"><ele>184.0</ele><time>2026-04-11T14:31:03.939Z</time></trkpt><trkpt lat="44.855935" lon="9.53354"><ele>184.0</ele><time>2026-04-11T14:31:04.938Z</time></trkpt><trkpt lat="44.8560433" lon="9.5335983"><ele>182.25</ele><time>2026-04-11T14:31:05.94Z</time></trkpt><trkpt lat="44.8561617" lon="9.5336467"><ele>180.5</ele><time>2026-04-11T14:31:06.939Z</time></trkpt><trkpt lat="44.8562833" lon="9.5337033"><ele>178.75</ele><time>2026-04-11T14:31:07.939Z</time></trkpt><trkpt lat="44.8564017" lon="9.5337783"><ele>177.0</ele><time>2026-04-11T14:31:08.939Z</time></trkpt><trkpt lat="44.856515" lon="9.5338617"><ele>177.0</ele><time>2026-04-11T14:31:09.939Z</time></trkpt><trkpt lat="44.8566317" lon="9.53394"><ele>177.0</ele><time>2026-04-11T14:31:10.938Z</time></trkpt><trkpt lat="44.8567517" lon="9.53401"><ele>177.0</ele><time>2026-04-11T14:31:11.94Z</time></trkpt><trkpt lat="44.8568717" lon="9.5340867"><ele>177.0</ele><time>2026-04-11T14:31:12.937Z</time></trkpt><trkpt lat="44.856995" lon="9.5341817"><ele>177.75</ele><time>2026-04-11T14:31:13.937Z</time></trkpt><trkpt lat="44.8571017" lon="9.5342933"><ele>178.5</ele><time>2026-04-11T14:31:14.938Z</time></trkpt><trkpt lat="44.8572067" lon="9.53442"><ele>179.25</ele><time>2026-04-11T14:31:15.937Z</time></trkpt><trkpt lat="44.857295" lon="9.5345467"><ele>180.0</ele><time>2026-04-11T14:31:16.937Z</time></trkpt><trkpt lat="44.857385" lon="9.5346767"><ele>180.0</ele><time>2026-04-11T14:31:17.936Z</time></trkpt><trkpt lat="44.8574633" lon="9.5348017"><ele>180.0</ele><time>2026-04-11T14:31:18.937Z</time></trkpt><trkpt lat="44.8575433" lon="9.53493"><ele>180.0</ele><time>2026-04-11T14:31:19.938Z</time></trkpt><trkpt lat="44.857635" lon="9.535055"><ele>180.0</ele><time>2026-04-11T14:31:20.938Z</time></trkpt><trkpt lat="44.85773" lon="9.535165"><ele>179.25</ele><time>2026-04-11T14:31:21.937Z</time></trkpt><trkpt lat="44.8578433" lon="9.5352617"><ele>178.5</ele><time>2026-04-11T14:31:22.939Z</time></trkpt><trkpt lat="44.8579617" lon="9.5353417"><ele>177.75</ele><time>2026-04-11T14:31:23.939Z</time></trkpt><trkpt lat="44.8580733" lon="9.53541"><ele>177.0</ele><time>2026-04-11T14:31:24.937Z</time></trkpt><trkpt lat="44.8581783" lon="9.5354983"><ele>177.0</ele><time>2026-04-11T14:31:25.937Z</time></trkpt><trkpt lat="44.8582717" lon="9.5356067"><ele>177.0</ele><time>2026-04-11T14:31:26.938Z</time></trkpt><trkpt lat="44.8583467" lon="9.5357333"><ele>177.0</ele><time>2026-04-11T14:31:27.937Z</time></trkpt><trkpt lat="44.8584217" lon="9.5358483"><ele>177.0</ele><time>2026-04-11T14:31:28.94Z</time></trkpt><trkpt lat="44.8585167" lon="9.535935"><ele>180.75</ele><time>2026-04-11T14:31:29.938Z</time></trkpt><trkpt lat="44.858625" lon="9.5360033"><ele>184.5</ele><time>2026-04-11T14:31:30.939Z</time></trkpt><trkpt lat="44.8587317" lon="9.5360617"><ele>188.25</ele><time>2026-04-11T14:31:31.939Z</time></trkpt><trkpt lat="44.8588367" lon="9.536115"><ele>192.0</ele><time>2026-04-11T14:31:32.939Z</time></trkpt><trkpt lat="44.8589383" lon="9.5361633"><ele>192.0</ele><time>2026-04-11T14:31:33.943Z</time></trkpt><trkpt lat="44.8590467" lon="9.536195"><ele>192.0</ele><time>2026-04-11T14:31:34.938Z</time></trkpt><trkpt lat="44.859165" lon="9.5361967"><ele>192.0</ele><time>2026-04-11T14:31:35.939Z</time></trkpt><trkpt lat="44.8592833" lon="9.536185"><ele>192.0</ele><time>2026-04-11T14:31:36.939Z</time></trkpt><trkpt lat="44.8594033" lon="9.5361767"><ele>192.0</ele><time>2026-04-11T14:31:37.938Z</time></trkpt><trkpt lat="44.8595217" lon="9.5361783"><ele>192.0</ele><time>2026-04-11T14:31:38.939Z</time></trkpt><trkpt lat="44.85964" lon="9.536195"><ele>192.0</ele><time>2026-04-11T14:31:39.937Z</time></trkpt><trkpt lat="44.85975" lon="9.53623"><ele>192.0</ele><time>2026-04-11T14:31:40.937Z</time></trkpt><trkpt lat="44.859855" lon="9.536275"><ele>192.0</ele><time>2026-04-11T14:31:41.937Z</time></trkpt><trkpt lat="44.85993" lon="9.5363317"><ele>192.0</ele><time>2026-04-11T14:31:42.945Z</time></trkpt><trkpt lat="44.859995" lon="9.5364067"><ele>192.0</ele><time>2026-04-11T14:31:44.938Z</time></trkpt><trkpt lat="44.8600483" lon="9.5364767"><ele>192.0</ele><time>2026-04-11T14:31:47.937Z</time></trkpt><trkpt lat="44.8600967" lon="9.5366033"><ele>192.0</ele><time>2026-04-11T14:31:49.937Z</time></trkpt><trkpt lat="44.8601233" lon="9.5366867"><ele>192.0</ele><time>2026-04-11T14:31:50.937Z</time></trkpt><trkpt lat="44.8601483" lon="9.536785"><ele>194.39999999999998</ele><time>2026-04-11T14:31:51.943Z</time></trkpt><trkpt lat="44.8601683" lon="9.5368933"><ele>196.79999999999998</ele><time>2026-04-11T14:31:52.937Z</time></trkpt><trkpt lat="44.8601817" lon="9.53703"><ele>199.2</ele><time>2026-04-11T14:31:53.937Z</time></trkpt><trkpt lat="44.8601917" lon="9.53718"><ele>201.6</ele><time>2026-04-11T14:31:54.937Z</time></trkpt><trkpt lat="44.86021" lon="9.5373433"><ele>204.0</ele><time>2026-04-11T14:31:55.937Z</time></trkpt><trkpt lat="44.8602383" lon="9.5375083"><ele>204.0</ele><time>2026-04-11T14:31:56.938Z</time></trkpt><trkpt lat="44.8602717" lon="9.5376717"><ele>204.0</ele><time>2026-04-11T14:31:57.938Z</time></trkpt><trkpt lat="44.8603067" lon="9.53784"><ele>204.0</ele><time>2026-04-11T14:31:58.943Z</time></trkpt><trkpt lat="44.86034" lon="9.53801"><ele>204.0</ele><time>2026-04-11T14:31:59.94Z</time></trkpt><trkpt lat="44.8603717" lon="9.5381717"><ele>203.75</ele><time>2026-04-11T14:32:00.937Z</time></trkpt><trkpt lat="44.860395" lon="9.5383283"><ele>203.5</ele><time>2026-04-11T14:32:01.938Z</time></trkpt><trkpt lat="44.86042" lon="9.5384833"><ele>203.25</ele><time>2026-04-11T14:32:02.938Z</time></trkpt><trkpt lat="44.8604533" lon="9.5386433"><ele>203.0</ele><time>2026-04-11T14:32:03.943Z</time></trkpt><trkpt lat="44.8605" lon="9.5387983"><ele>202.25</ele><time>2026-04-11T14:32:04.937Z</time></trkpt><trkpt lat="44.86056" lon="9.53895"><ele>201.5</ele><time>2026-04-11T14:32:05.937Z</time></trkpt><trkpt lat="44.8606183" lon="9.5390983"><ele>200.75</ele><time>2026-04-11T14:32:06.938Z</time></trkpt><trkpt lat="44.860665" lon="9.539245"><ele>200.0</ele><time>2026-04-11T14:32:07.938Z</time></trkpt><trkpt lat="44.86068" lon="9.5393883"><ele>200.0</ele><time>2026-04-11T14:32:08.938Z</time></trkpt><trkpt lat="44.8606617" lon="9.5395333"><ele>200.0</ele><time>2026-04-11T14:32:09.938Z</time></trkpt><trkpt lat="44.8606217" lon="9.5396833"><ele>200.0</ele><time>2026-04-11T14:32:10.938Z</time></trkpt><trkpt lat="44.8605867" lon="9.5398417"><ele>200.0</ele><time>2026-04-11T14:32:11.946Z</time></trkpt><trkpt lat="44.8605733" lon="9.5400017"><ele>199.5</ele><time>2026-04-11T14:32:12.937Z</time></trkpt><trkpt lat="44.860585" lon="9.5401617"><ele>199.0</ele><time>2026-04-11T14:32:13.937Z</time></trkpt><trkpt lat="44.8606283" lon="9.540325"><ele>198.5</ele><time>2026-04-11T14:32:14.937Z</time></trkpt><trkpt lat="44.8606967" lon="9.5404917"><ele>198.0</ele><time>2026-04-11T14:32:15.937Z</time></trkpt><trkpt lat="44.8607783" lon="9.5406533"><ele>196.75</ele><time>2026-04-11T14:32:16.939Z</time></trkpt><trkpt lat="44.860865" lon="9.5408033"><ele>195.5</ele><time>2026-04-11T14:32:17.938Z</time></trkpt><trkpt lat="44.86095" lon="9.540945"><ele>194.25</ele><time>2026-04-11T14:32:18.939Z</time></trkpt><trkpt lat="44.86103" lon="9.5410883"><ele>193.0</ele><time>2026-04-11T14:32:19.937Z</time></trkpt><trkpt lat="44.861105" lon="9.541225"><ele>191.8</ele><time>2026-04-11T14:32:20.938Z</time></trkpt><trkpt lat="44.8611783" lon="9.5413467"><ele>190.60000000000002</ele><time>2026-04-11T14:32:21.939Z</time></trkpt><trkpt lat="44.8612533" lon="9.5414567"><ele>189.39999999999998</ele><time>2026-04-11T14:32:22.937Z</time></trkpt><trkpt lat="44.86133" lon="9.541565"><ele>188.2</ele><time>2026-04-11T14:32:23.937Z</time></trkpt><trkpt lat="44.8614033" lon="9.5416667"><ele>187.0</ele><time>2026-04-11T14:32:24.939Z</time></trkpt><trkpt lat="44.8614783" lon="9.5417667"><ele>187.0</ele><time>2026-04-11T14:32:25.937Z</time></trkpt><trkpt lat="44.8615517" lon="9.541875"><ele>187.0</ele><time>2026-04-11T14:32:26.938Z</time></trkpt><trkpt lat="44.8616217" lon="9.54199"><ele>187.0</ele><time>2026-04-11T14:32:27.938Z</time></trkpt><trkpt lat="44.861675" lon="9.542125"><ele>187.0</ele><time>2026-04-11T14:32:28.937Z</time></trkpt><trkpt lat="44.8617133" lon="9.54227"><ele>187.0</ele><time>2026-04-11T14:32:29.938Z</time></trkpt><trkpt lat="44.8617517" lon="9.5424117"><ele>186.33333333333334</ele><time>2026-04-11T14:32:30.938Z</time></trkpt><trkpt lat="44.8617933" lon="9.5425333"><ele>185.66666666666669</ele><time>2026-04-11T14:32:31.938Z</time></trkpt><trkpt lat="44.86183" lon="9.542645"><ele>185.0</ele><time>2026-04-11T14:32:32.938Z</time></trkpt><trkpt lat="44.86185" lon="9.5427533"><ele>184.33333333333334</ele><time>2026-04-11T14:32:33.938Z</time></trkpt><trkpt lat="44.8618517" lon="9.542865"><ele>183.66666666666666</ele><time>2026-04-11T14:32:34.939Z</time></trkpt><trkpt lat="44.861825" lon="9.5429767"><ele>183.0</ele><time>2026-04-11T14:32:35.939Z</time></trkpt><trkpt lat="44.86178" lon="9.5430817"><ele>182.5</ele><time>2026-04-11T14:32:36.939Z</time></trkpt><trkpt lat="44.861735" lon="9.5431833"><ele>182.0</ele><time>2026-04-11T14:32:37.938Z</time></trkpt><trkpt lat="44.8616883" lon="9.5432833"><ele>181.5</ele><time>2026-04-11T14:32:38.938Z</time></trkpt><trkpt lat="44.86164" lon="9.5433817"><ele>181.0</ele><time>2026-04-11T14:32:39.941Z</time></trkpt><trkpt lat="44.861595" lon="9.5434717"><ele>180.5</ele><time>2026-04-11T14:32:40.937Z</time></trkpt><trkpt lat="44.8615583" lon="9.5435533"><ele>180.0</ele><time>2026-04-11T14:32:41.938Z</time></trkpt><trkpt lat="44.861505" lon="9.5436783"><ele>179.0</ele><time>2026-04-11T14:32:43.938Z</time></trkpt><trkpt lat="44.861455" lon="9.5437883"><ele>178.0</ele><time>2026-04-11T14:32:45.938Z</time></trkpt><trkpt lat="44.8614833" lon="9.5439217"><ele>177.0</ele><time>2026-04-11T14:32:47.937Z</time></trkpt><trkpt lat="44.861575" lon="9.5440433"><ele>176.0</ele><time>2026-04-11T14:32:49.94Z</time></trkpt><trkpt lat="44.8616317" lon="9.5441067"><ele>175.0</ele><time>2026-04-11T14:32:50.94Z</time></trkpt><trkpt lat="44.8616933" lon="9.5441733"><ele>175.0</ele><time>2026-04-11T14:32:51.944Z</time></trkpt><trkpt lat="44.8617633" lon="9.5442467"><ele>175.0</ele><time>2026-04-11T14:32:52.937Z</time></trkpt><trkpt lat="44.861845" lon="9.5443283"><ele>175.0</ele><time>2026-04-11T14:32:53.937Z</time></trkpt><trkpt lat="44.8619317" lon="9.544425"><ele>175.0</ele><time>2026-04-11T14:32:54.937Z</time></trkpt><trkpt lat="44.862015" lon="9.5445217"><ele>175.0</ele><time>2026-04-11T14:32:55.938Z</time></trkpt><trkpt lat="44.8621017" lon="9.5446167"><ele>175.25</ele><time>2026-04-11T14:32:56.938Z</time></trkpt><trkpt lat="44.8621933" lon="9.5447117"><ele>175.5</ele><time>2026-04-11T14:32:57.937Z</time></trkpt><trkpt lat="44.8622867" lon="9.5448117"><ele>175.75</ele><time>2026-04-11T14:32:58.944Z</time></trkpt><trkpt lat="44.8623883" lon="9.54492"><ele>176.0</ele><time>2026-04-11T14:32:59.937Z</time></trkpt><trkpt lat="44.8624933" lon="9.5450317"><ele>176.0</ele><time>2026-04-11T14:33:00.937Z</time></trkpt><trkpt lat="44.8625967" lon="9.5451383"><ele>176.0</ele><time>2026-04-11T14:33:01.937Z</time></trkpt><trkpt lat="44.8627067" lon="9.5452383"><ele>176.0</ele><time>2026-04-11T14:33:02.94Z</time></trkpt><trkpt lat="44.8628217" lon="9.5453317"><ele>176.0</ele><time>2026-04-11T14:33:03.938Z</time></trkpt><trkpt lat="44.86294" lon="9.5454167"><ele>175.5</ele><time>2026-04-11T14:33:04.943Z</time></trkpt><trkpt lat="44.8630667" lon="9.5455033"><ele>175.0</ele><time>2026-04-11T14:33:05.938Z</time></trkpt><trkpt lat="44.863195" lon="9.5455817"><ele>174.5</ele><time>2026-04-11T14:33:06.938Z</time></trkpt><trkpt lat="44.8633183" lon="9.54566"><ele>174.0</ele><time>2026-04-11T14:33:07.938Z</time></trkpt><trkpt lat="44.8634367" lon="9.5457333"><ele>174.25</ele><time>2026-04-11T14:33:08.937Z</time></trkpt><trkpt lat="44.8635567" lon="9.5458017"><ele>174.5</ele><time>2026-04-11T14:33:09.937Z</time></trkpt><trkpt lat="44.863685" lon="9.5458683"><ele>174.75</ele><time>2026-04-11T14:33:10.939Z</time></trkpt><trkpt lat="44.8638183" lon="9.5459283"><ele>175.0</ele><time>2026-04-11T14:33:11.941Z</time></trkpt><trkpt lat="44.86395" lon="9.5459783"><ele>175.0</ele><time>2026-04-11T14:33:12.937Z</time></trkpt><trkpt lat="44.864085" lon="9.54602"><ele>175.0</ele><time>2026-04-11T14:33:13.938Z</time></trkpt><trkpt lat="44.86423" lon="9.5460583"><ele>175.0</ele><time>2026-04-11T14:33:14.938Z</time></trkpt><trkpt lat="44.8643767" lon="9.5460933"><ele>175.0</ele><time>2026-04-11T14:33:15.938Z</time></trkpt><trkpt lat="44.8645167" lon="9.5461267"><ele>175.0</ele><time>2026-04-11T14:33:16.938Z</time></trkpt><trkpt lat="44.864655" lon="9.5461583"><ele>175.0</ele><time>2026-04-11T14:33:17.938Z</time></trkpt><trkpt lat="44.8647833" lon="9.5461917"><ele>175.0</ele><time>2026-04-11T14:33:18.937Z</time></trkpt><trkpt lat="44.8649033" lon="9.546225"><ele>175.0</ele><time>2026-04-11T14:33:19.937Z</time></trkpt><trkpt lat="44.865015" lon="9.5462533"><ele>174.5</ele><time>2026-04-11T14:33:20.937Z</time></trkpt><trkpt lat="44.86513" lon="9.54628"><ele>174.0</ele><time>2026-04-11T14:33:21.937Z</time></trkpt><trkpt lat="44.8652467" lon="9.5463"><ele>173.5</ele><time>2026-04-11T14:33:22.94Z</time></trkpt><trkpt lat="44.8653667" lon="9.5463183"><ele>173.0</ele><time>2026-04-11T14:33:23.937Z</time></trkpt><trkpt lat="44.8654867" lon="9.5463367"><ele>173.0</ele><time>2026-04-11T14:33:24.937Z</time></trkpt><trkpt lat="44.8656083" lon="9.5463583"><ele>173.0</ele><time>2026-04-11T14:33:25.938Z</time></trkpt><trkpt lat="44.8657317" lon="9.5463883"><ele>173.0</ele><time>2026-04-11T14:33:26.937Z</time></trkpt><trkpt lat="44.8658583" lon="9.5464233"><ele>173.0</ele><time>2026-04-11T14:33:27.938Z</time></trkpt><trkpt lat="44.8659783" lon="9.54646"><ele>173.0</ele><time>2026-04-11T14:33:28.938Z</time></trkpt><trkpt lat="44.8661017" lon="9.5465083"><ele>173.0</ele><time>2026-04-11T14:33:29.937Z</time></trkpt><trkpt lat="44.8662267" lon="9.5465617"><ele>173.0</ele><time>2026-04-11T14:33:30.938Z</time></trkpt><trkpt lat="44.8663533" lon="9.5466183"><ele>173.0</ele><time>2026-04-11T14:33:31.938Z</time></trkpt><trkpt lat="44.866485" lon="9.5466717"><ele>173.0</ele><time>2026-04-11T14:33:32.939Z</time></trkpt><trkpt lat="44.8666217" lon="9.5467217"><ele>173.0</ele><time>2026-04-11T14:33:33.939Z</time></trkpt><trkpt lat="44.86676" lon="9.546775"><ele>173.0</ele><time>2026-04-11T14:33:34.94Z</time></trkpt><trkpt lat="44.8668967" lon="9.5468317"><ele>173.0</ele><time>2026-04-11T14:33:35.939Z</time></trkpt><trkpt lat="44.8670367" lon="9.5468917"><ele>173.0</ele><time>2026-04-11T14:33:36.939Z</time></trkpt><trkpt lat="44.8671717" lon="9.546955"><ele>173.0</ele><time>2026-04-11T14:33:37.938Z</time></trkpt><trkpt lat="44.8673033" lon="9.5470333"><ele>173.0</ele><time>2026-04-11T14:33:38.938Z</time></trkpt><trkpt lat="44.8674317" lon="9.5471283"><ele>173.0</ele><time>2026-04-11T14:33:39.938Z</time></trkpt><trkpt lat="44.8675583" lon="9.547225"><ele>172.25</ele><time>2026-04-11T14:33:40.938Z</time></trkpt><trkpt lat="44.8676867" lon="9.547315"><ele>171.5</ele><time>2026-04-11T14:33:41.937Z</time></trkpt><trkpt lat="44.8678183" lon="9.5474"><ele>170.75</ele><time>2026-04-11T14:33:42.937Z</time></trkpt><trkpt lat="44.867955" lon="9.5474733"><ele>170.0</ele><time>2026-04-11T14:33:43.944Z</time></trkpt><trkpt lat="44.8680933" lon="9.5475433"><ele>170.0</ele><time>2026-04-11T14:33:44.938Z</time></trkpt><trkpt lat="44.868235" lon="9.547605"><ele>170.0</ele><time>2026-04-11T14:33:45.937Z</time></trkpt><trkpt lat="44.8683767" lon="9.5476583"><ele>170.0</ele><time>2026-04-11T14:33:46.938Z</time></trkpt><trkpt lat="44.8685183" lon="9.5477117"><ele>170.0</ele><time>2026-04-11T14:33:47.938Z</time></trkpt><trkpt lat="44.8686583" lon="9.547765"><ele>170.25</ele><time>2026-04-11T14:33:48.941Z</time></trkpt><trkpt lat="44.8688" lon="9.54782"><ele>170.5</ele><time>2026-04-11T14:33:49.937Z</time></trkpt><trkpt lat="44.86894" lon="9.5478783"><ele>170.75</ele><time>2026-04-11T14:33:50.938Z</time></trkpt><trkpt lat="44.8690783" lon="9.5479417"><ele>171.0</ele><time>2026-04-11T14:33:51.937Z</time></trkpt><trkpt lat="44.86922" lon="9.5480083"><ele>171.0</ele><time>2026-04-11T14:33:52.938Z</time></trkpt><trkpt lat="44.8693583" lon="9.54808"><ele>171.0</ele><time>2026-04-11T14:33:53.939Z</time></trkpt><trkpt lat="44.8694983" lon="9.5481533"><ele>171.0</ele><time>2026-04-11T14:33:54.938Z</time></trkpt><trkpt lat="44.8696383" lon="9.54822"><ele>171.0</ele><time>2026-04-11T14:33:55.938Z</time></trkpt><trkpt lat="44.8697833" lon="9.5482817"><ele>171.0</ele><time>2026-04-11T14:33:56.937Z</time></trkpt><trkpt lat="44.8699333" lon="9.5483433"><ele>171.0</ele><time>2026-04-11T14:33:57.938Z</time></trkpt><trkpt lat="44.8700833" lon="9.548405"><ele>171.0</ele><time>2026-04-11T14:33:58.938Z</time></trkpt><trkpt lat="44.8702367" lon="9.5484683"><ele>170.66666666666666</ele><time>2026-04-11T14:33:59.938Z</time></trkpt><trkpt lat="44.87039" lon="9.548525"><ele>170.33333333333331</ele><time>2026-04-11T14:34:00.939Z</time></trkpt><trkpt lat="44.870545" lon="9.5485783"><ele>170.0</ele><time>2026-04-11T14:34:01.939Z</time></trkpt><trkpt lat="44.870705" lon="9.5486267"><ele>170.0</ele><time>2026-04-11T14:34:02.939Z</time></trkpt><trkpt lat="44.87086" lon="9.5486683"><ele>170.0</ele><time>2026-04-11T14:34:03.94Z</time></trkpt><trkpt lat="44.8710133" lon="9.5487033"><ele>170.0</ele><time>2026-04-11T14:34:04.937Z</time></trkpt><trkpt lat="44.8711667" lon="9.548735"><ele>170.0</ele><time>2026-04-11T14:34:05.938Z</time></trkpt><trkpt lat="44.87132" lon="9.548765"><ele>170.0</ele><time>2026-04-11T14:34:06.938Z</time></trkpt><trkpt lat="44.871475" lon="9.5487883"><ele>170.0</ele><time>2026-04-11T14:34:07.937Z</time></trkpt><trkpt lat="44.8716317" lon="9.5487967"><ele>170.0</ele><time>2026-04-11T14:34:08.944Z</time></trkpt><trkpt lat="44.87179" lon="9.5487867"><ele>170.0</ele><time>2026-04-11T14:34:09.937Z</time></trkpt><trkpt lat="44.8719417" lon="9.5487683"><ele>170.0</ele><time>2026-04-11T14:34:10.938Z</time></trkpt><trkpt lat="44.87209" lon="9.5487533"><ele>170.0</ele><time>2026-04-11T14:34:11.937Z</time></trkpt><trkpt lat="44.8722367" lon="9.548735"><ele>170.0</ele><time>2026-04-11T14:34:12.937Z</time></trkpt><trkpt lat="44.8723817" lon="9.5487083"><ele>170.0</ele><time>2026-04-11T14:34:13.937Z</time></trkpt><trkpt lat="44.8725183" lon="9.5486633"><ele>170.0</ele><time>2026-04-11T14:34:14.938Z</time></trkpt><trkpt lat="44.872645" lon="9.5485933"><ele>169.75</ele><time>2026-04-11T14:34:15.937Z</time></trkpt><trkpt lat="44.87276" lon="9.5485067"><ele>169.5</ele><time>2026-04-11T14:34:16.937Z</time></trkpt><trkpt lat="44.872865" lon="9.5484"><ele>169.25</ele><time>2026-04-11T14:34:17.94Z</time></trkpt><trkpt lat="44.8729533" lon="9.54827"><ele>169.0</ele><time>2026-04-11T14:34:18.937Z</time></trkpt><trkpt lat="44.8730317" lon="9.548135"><ele>169.0</ele><time>2026-04-11T14:34:19.942Z</time></trkpt><trkpt lat="44.87311" lon="9.548015"><ele>169.0</ele><time>2026-04-11T14:34:20.937Z</time></trkpt><trkpt lat="44.8732" lon="9.5479317"><ele>169.0</ele><time>2026-04-11T14:34:21.938Z</time></trkpt><trkpt lat="44.8733133" lon="9.5479083"><ele>169.0</ele><time>2026-04-11T14:34:22.937Z</time></trkpt><trkpt lat="44.873425" lon="9.5479167"><ele>172.6</ele><time>2026-04-11T14:34:23.937Z</time></trkpt><trkpt lat="44.87352" lon="9.5479683"><ele>176.2</ele><time>2026-04-11T14:34:24.937Z</time></trkpt><trkpt lat="44.8735917" lon="9.548075"><ele>179.79999999999998</ele><time>2026-04-11T14:34:25.937Z</time></trkpt><trkpt lat="44.8736233" lon="9.5482283"><ele>183.39999999999998</ele><time>2026-04-11T14:34:26.938Z</time></trkpt><trkpt lat="44.873625" lon="9.5484083"><ele>187.0</ele><time>2026-04-11T14:34:27.938Z</time></trkpt><trkpt lat="44.8736183" lon="9.5485933"><ele>184.25</ele><time>2026-04-11T14:34:28.946Z</time></trkpt><trkpt lat="44.87363" lon="9.5487867"><ele>181.5</ele><time>2026-04-11T14:34:29.939Z</time></trkpt><trkpt lat="44.8736667" lon="9.5489667"><ele>178.75</ele><time>2026-04-11T14:34:30.939Z</time></trkpt><trkpt lat="44.87372" lon="9.5491383"><ele>176.0</ele><time>2026-04-11T14:34:31.938Z</time></trkpt><trkpt lat="44.8737967" lon="9.5492933"><ele>176.0</ele><time>2026-04-11T14:34:32.939Z</time></trkpt><trkpt lat="44.873895" lon="9.5494217"><ele>176.0</ele><time>2026-04-11T14:34:33.943Z</time></trkpt><trkpt lat="44.8740067" lon="9.54953"><ele>176.0</ele><time>2026-04-11T14:34:34.937Z</time></trkpt><trkpt lat="44.87413" lon="9.549625"><ele>176.0</ele><time>2026-04-11T14:34:35.937Z</time></trkpt><trkpt lat="44.8742633" lon="9.5497033"><ele>174.0</ele><time>2026-04-11T14:34:36.938Z</time></trkpt><trkpt lat="44.8744067" lon="9.5497683"><ele>172.0</ele><time>2026-04-11T14:34:37.938Z</time></trkpt><trkpt lat="44.8745517" lon="9.5498267"><ele>170.0</ele><time>2026-04-11T14:34:38.939Z</time></trkpt><trkpt lat="44.8746933" lon="9.5498833"><ele>168.0</ele><time>2026-04-11T14:34:39.938Z</time></trkpt><trkpt lat="44.874825" lon="9.5499317"><ele>168.0</ele><time>2026-04-11T14:34:40.941Z</time></trkpt><trkpt lat="44.8749483" lon="9.5499667"><ele>168.0</ele><time>2026-04-11T14:34:41.938Z</time></trkpt><trkpt lat="44.8750583" lon="9.5499567"><ele>168.0</ele><time>2026-04-11T14:34:42.938Z</time></trkpt><trkpt lat="44.8751583" lon="9.54989"><ele>168.0</ele><time>2026-04-11T14:34:43.937Z</time></trkpt><trkpt lat="44.875225" lon="9.5497733"><ele>168.60000000000002</ele><time>2026-04-11T14:34:44.938Z</time></trkpt><trkpt lat="44.8752583" lon="9.5496283"><ele>169.20000000000002</ele><time>2026-04-11T14:34:45.944Z</time></trkpt><trkpt lat="44.87528" lon="9.54948"><ele>169.8</ele><time>2026-04-11T14:34:46.937Z</time></trkpt><trkpt lat="44.8753217" lon="9.54936"><ele>170.4</ele><time>2026-04-11T14:34:47.938Z</time></trkpt><trkpt lat="44.8753783" lon="9.5492833"><ele>171.0</ele><time>2026-04-11T14:34:48.938Z</time></trkpt><trkpt lat="44.8754633" lon="9.549285"><ele>171.25</ele><time>2026-04-11T14:34:49.938Z</time></trkpt><trkpt lat="44.8755617" lon="9.5493183"><ele>171.5</ele><time>2026-04-11T14:34:50.939Z</time></trkpt><trkpt lat="44.8756833" lon="9.549375"><ele>171.75</ele><time>2026-04-11T14:34:51.939Z</time></trkpt><trkpt lat="44.8758033" lon="9.5494283"><ele>172.0</ele><time>2026-04-11T14:34:52.946Z</time></trkpt><trkpt lat="44.875915" lon="9.5494833"><ele>177.75</ele><time>2026-04-11T14:34:53.939Z</time></trkpt><trkpt lat="44.8760117" lon="9.5495583"><ele>183.5</ele><time>2026-04-11T14:34:54.938Z</time></trkpt><trkpt lat="44.8760933" lon="9.54967"><ele>189.25</ele><time>2026-04-11T14:34:55.937Z</time></trkpt><trkpt lat="44.8761433" lon="9.5498267"><ele>195.0</ele><time>2026-04-11T14:34:56.939Z</time></trkpt><trkpt lat="44.876175" lon="9.5500083"><ele>195.0</ele><time>2026-04-11T14:34:57.942Z</time></trkpt><trkpt lat="44.87619" lon="9.5502083"><ele>195.0</ele><time>2026-04-11T14:34:58.938Z</time></trkpt><trkpt lat="44.8761867" lon="9.5504117"><ele>195.0</ele><time>2026-04-11T14:34:59.937Z</time></trkpt><trkpt lat="44.8761633" lon="9.5506133"><ele>195.0</ele><time>2026-04-11T14:35:00.937Z</time></trkpt><trkpt lat="44.8761333" lon="9.5508067"><ele>193.75</ele><time>2026-04-11T14:35:01.939Z</time></trkpt><trkpt lat="44.876125" lon="9.550995"><ele>192.5</ele><time>2026-04-11T14:35:02.942Z</time></trkpt><trkpt lat="44.876155" lon="9.5511767"><ele>191.25</ele><time>2026-04-11T14:35:03.939Z</time></trkpt><trkpt lat="44.87622" lon="9.5513433"><ele>190.0</ele><time>2026-04-11T14:35:04.937Z</time></trkpt><trkpt lat="44.87631" lon="9.55148"><ele>187.75</ele><time>2026-04-11T14:35:05.938Z</time></trkpt><trkpt lat="44.8764233" lon="9.5515833"><ele>185.5</ele><time>2026-04-11T14:35:06.937Z</time></trkpt><trkpt lat="44.8765567" lon="9.5516383"><ele>183.25</ele><time>2026-04-11T14:35:07.938Z</time></trkpt><trkpt lat="44.8766983" lon="9.5516467"><ele>181.0</ele><time>2026-04-11T14:35:08.938Z</time></trkpt><trkpt lat="44.876845" lon="9.5516183"><ele>181.0</ele><time>2026-04-11T14:35:09.938Z</time></trkpt><trkpt lat="44.87699" lon="9.5515767"><ele>181.0</ele><time>2026-04-11T14:35:10.944Z</time></trkpt><trkpt lat="44.8771283" lon="9.551535"><ele>181.0</ele><time>2026-04-11T14:35:11.938Z</time></trkpt><trkpt lat="44.8772617" lon="9.55149"><ele>181.0</ele><time>2026-04-11T14:35:12.939Z</time></trkpt><trkpt lat="44.87739" lon="9.5514567"><ele>181.0</ele><time>2026-04-11T14:35:13.938Z</time></trkpt><trkpt lat="44.877515" lon="9.5514283"><ele>181.0</ele><time>2026-04-11T14:35:14.938Z</time></trkpt><trkpt lat="44.877635" lon="9.5514333"><ele>181.0</ele><time>2026-04-11T14:35:15.937Z</time></trkpt><trkpt lat="44.8777417" lon="9.55149"><ele>181.0</ele><time>2026-04-11T14:35:16.937Z</time></trkpt><trkpt lat="44.8778383" lon="9.5515983"><ele>184.0</ele><time>2026-04-11T14:35:17.946Z</time></trkpt><trkpt lat="44.8779267" lon="9.5517583"><ele>187.0</ele><time>2026-04-11T14:35:18.939Z</time></trkpt><trkpt lat="44.8780033" lon="9.5519483"><ele>190.0</ele><time>2026-04-11T14:35:19.942Z</time></trkpt><trkpt lat="44.87806" lon="9.5521517"><ele>190.0</ele><time>2026-04-11T14:35:20.94Z</time></trkpt><trkpt lat="44.8781033" lon="9.5523667"><ele>190.0</ele><time>2026-04-11T14:35:21.941Z</time></trkpt><trkpt lat="44.87815" lon="9.5525883"><ele>190.0</ele><time>2026-04-11T14:35:22.939Z</time></trkpt><trkpt lat="44.8781983" lon="9.552815"><ele>187.66666666666669</ele><time>2026-04-11T14:35:23.94Z</time></trkpt><trkpt lat="44.8782417" lon="9.55303"><ele>185.33333333333334</ele><time>2026-04-11T14:35:24.944Z</time></trkpt><trkpt lat="44.8782967" lon="9.5532433"><ele>183.0</ele><time>2026-04-11T14:35:25.94Z</time></trkpt><trkpt lat="44.8783633" lon="9.5534317"><ele>186.25</ele><time>2026-04-11T14:35:26.94Z</time></trkpt><trkpt lat="44.8784583" lon="9.5535983"><ele>189.5</ele><time>2026-04-11T14:35:27.937Z</time></trkpt><trkpt lat="44.8785567" lon="9.55376"><ele>192.75</ele><time>2026-04-11T14:35:28.938Z</time></trkpt><trkpt lat="44.878635" lon="9.5539283"><ele>196.0</ele><time>2026-04-11T14:35:29.937Z</time></trkpt><trkpt lat="44.8787017" lon="9.5541017"><ele>196.0</ele><time>2026-04-11T14:35:30.938Z</time></trkpt><trkpt lat="44.878775" lon="9.554245"><ele>196.0</ele><time>2026-04-11T14:35:31.939Z</time></trkpt><trkpt lat="44.878875" lon="9.5543417"><ele>196.0</ele><time>2026-04-11T14:35:32.945Z</time></trkpt><trkpt lat="44.878995" lon="9.55438"><ele>196.0</ele><time>2026-04-11T14:35:33.937Z</time></trkpt><trkpt lat="44.879115" lon="9.5543833"><ele>196.0</ele><time>2026-04-11T14:35:34.938Z</time></trkpt><trkpt lat="44.879225" lon="9.5543967"><ele>196.0</ele><time>2026-04-11T14:35:35.937Z</time></trkpt><trkpt lat="44.8793183" lon="9.55444"><ele>196.0</ele><time>2026-04-11T14:35:36.937Z</time></trkpt><trkpt lat="44.8793933" lon="9.5545267"><ele>196.0</ele><time>2026-04-11T14:35:37.939Z</time></trkpt><trkpt lat="44.8794333" lon="9.55466"><ele>196.0</ele><time>2026-04-11T14:35:38.94Z</time></trkpt><trkpt lat="44.8794583" lon="9.5548233"><ele>196.0</ele><time>2026-04-11T14:35:39.938Z</time></trkpt><trkpt lat="44.87949" lon="9.5549967"><ele>196.0</ele><time>2026-04-11T14:35:40.939Z</time></trkpt><trkpt lat="44.8795533" lon="9.55517"><ele>196.0</ele><time>2026-04-11T14:35:41.942Z</time></trkpt><trkpt lat="44.8796467" lon="9.555325"><ele>196.0</ele><time>2026-04-11T14:35:42.936Z</time></trkpt><trkpt lat="44.879755" lon="9.55547"><ele>196.0</ele><time>2026-04-11T14:35:43.937Z</time></trkpt><trkpt lat="44.87986" lon="9.5556233"><ele>196.0</ele><time>2026-04-11T14:35:44.936Z</time></trkpt><trkpt lat="44.87995" lon="9.5557917"><ele>196.0</ele><time>2026-04-11T14:35:45.937Z</time></trkpt><trkpt lat="44.8800317" lon="9.5559767"><ele>202.0</ele><time>2026-04-11T14:35:46.937Z</time></trkpt><trkpt lat="44.8801117" lon="9.556165"><ele>208.0</ele><time>2026-04-11T14:35:47.938Z</time></trkpt><trkpt lat="44.880195" lon="9.5563567"><ele>214.0</ele><time>2026-04-11T14:35:48.944Z</time></trkpt><trkpt lat="44.8802817" lon="9.5565483"><ele>214.0</ele><time>2026-04-11T14:35:49.938Z</time></trkpt><trkpt lat="44.880375" lon="9.5567333"><ele>214.0</ele><time>2026-04-11T14:35:50.937Z</time></trkpt><trkpt lat="44.8804733" lon="9.556915"><ele>214.0</ele><time>2026-04-11T14:35:51.937Z</time></trkpt><trkpt lat="44.8805717" lon="9.55709"><ele>209.0</ele><time>2026-04-11T14:35:52.937Z</time></trkpt><trkpt lat="44.8806733" lon="9.5572617"><ele>204.0</ele><time>2026-04-11T14:35:53.937Z</time></trkpt><trkpt lat="44.8807733" lon="9.55743"><ele>199.0</ele><time>2026-04-11T14:35:54.937Z</time></trkpt><trkpt lat="44.8808733" lon="9.5575967"><ele>204.0</ele><time>2026-04-11T14:35:55.937Z</time></trkpt><trkpt lat="44.88097" lon="9.5577733"><ele>209.0</ele><time>2026-04-11T14:35:56.941Z</time></trkpt><trkpt lat="44.8810567" lon="9.5579567"><ele>214.0</ele><time>2026-04-11T14:35:57.939Z</time></trkpt><trkpt lat="44.88113" lon="9.5581483"><ele>214.0</ele><time>2026-04-11T14:35:58.937Z</time></trkpt><trkpt lat="44.88119" lon="9.5583467"><ele>214.0</ele><time>2026-04-11T14:35:59.936Z</time></trkpt><trkpt lat="44.8812367" lon="9.5585467"><ele>214.0</ele><time>2026-04-11T14:36:00.937Z</time></trkpt><trkpt lat="44.88128" lon="9.55874"><ele>214.0</ele><time>2026-04-11T14:36:01.937Z</time></trkpt><trkpt lat="44.881345" lon="9.5589233"><ele>208.66666666666666</ele><time>2026-04-11T14:36:02.937Z</time></trkpt><trkpt lat="44.8814433" lon="9.55908"><ele>203.33333333333331</ele><time>2026-04-11T14:36:03.936Z</time></trkpt><trkpt lat="44.8815683" lon="9.559205"><ele>198.0</ele><time>2026-04-11T14:36:04.939Z</time></trkpt><trkpt lat="44.8817067" lon="9.5593"><ele>205.33333333333331</ele><time>2026-04-11T14:36:05.936Z</time></trkpt><trkpt lat="44.881855" lon="9.55938"><ele>212.66666666666666</ele><time>2026-04-11T14:36:06.936Z</time></trkpt><trkpt lat="44.8820083" lon="9.5594483"><ele>220.0</ele><time>2026-04-11T14:36:07.939Z</time></trkpt><trkpt lat="44.88216" lon="9.5595"><ele>215.33333333333331</ele><time>2026-04-11T14:36:08.938Z</time></trkpt><trkpt lat="44.8823117" lon="9.559535"><ele>210.66666666666669</ele><time>2026-04-11T14:36:09.938Z</time></trkpt><trkpt lat="44.8824617" lon="9.5595633"><ele>206.0</ele><time>2026-04-11T14:36:10.943Z</time></trkpt><trkpt lat="44.88261" lon="9.5596"><ele>206.0</ele><time>2026-04-11T14:36:11.936Z</time></trkpt><trkpt lat="44.8827483" lon="9.5596667"><ele>206.0</ele><time>2026-04-11T14:36:12.938Z</time></trkpt><trkpt lat="44.8828683" lon="9.5597617"><ele>206.0</ele><time>2026-04-11T14:36:13.936Z</time></trkpt><trkpt lat="44.8829817" lon="9.55986"><ele>206.0</ele><time>2026-04-11T14:36:14.937Z</time></trkpt><trkpt lat="44.8830967" lon="9.5599217"><ele>206.0</ele><time>2026-04-11T14:36:15.938Z</time></trkpt><trkpt lat="44.8832117" lon="9.559915"><ele>206.0</ele><time>2026-04-11T14:36:16.942Z</time></trkpt><trkpt lat="44.883325" lon="9.5598733"><ele>206.0</ele><time>2026-04-11T14:36:17.938Z</time></trkpt><trkpt lat="44.88343" lon="9.5598617"><ele>206.0</ele><time>2026-04-11T14:36:18.938Z</time></trkpt><trkpt lat="44.883525" lon="9.55992"><ele>206.0</ele><time>2026-04-11T14:36:19.937Z</time></trkpt><trkpt lat="44.8836083" lon="9.56004"><ele>206.0</ele><time>2026-04-11T14:36:20.937Z</time></trkpt><trkpt lat="44.8836817" lon="9.56019"><ele>206.0</ele><time>2026-04-11T14:36:21.937Z</time></trkpt><trkpt lat="44.8837683" lon="9.5603367"><ele>206.0</ele><time>2026-04-11T14:36:22.937Z</time></trkpt><trkpt lat="44.8838783" lon="9.56046"><ele>206.0</ele><time>2026-04-11T14:36:23.937Z</time></trkpt><trkpt lat="44.8840017" lon="9.56058"><ele>206.0</ele><time>2026-04-11T14:36:24.943Z</time></trkpt><trkpt lat="44.8841283" lon="9.5606883"><ele>206.0</ele><time>2026-04-11T14:36:25.937Z</time></trkpt><trkpt lat="44.884255" lon="9.5607933"><ele>206.0</ele><time>2026-04-11T14:36:26.94Z</time></trkpt><trkpt lat="44.8843783" lon="9.5608967"><ele>206.0</ele><time>2026-04-11T14:36:27.937Z</time></trkpt><trkpt lat="44.884505" lon="9.5609983"><ele>207.33333333333334</ele><time>2026-04-11T14:36:28.937Z</time></trkpt><trkpt lat="44.8846367" lon="9.5611"><ele>208.66666666666669</ele><time>2026-04-11T14:36:29.937Z</time></trkpt><trkpt lat="44.88477" lon="9.5612033"><ele>210.0</ele><time>2026-04-11T14:36:30.937Z</time></trkpt><trkpt lat="44.8848983" lon="9.5613067"><ele>210.0</ele><time>2026-04-11T14:36:31.937Z</time></trkpt><trkpt lat="44.885015" lon="9.5614"><ele>210.0</ele><time>2026-04-11T14:36:32.939Z</time></trkpt><trkpt lat="44.88512" lon="9.5614867"><ele>210.0</ele><time>2026-04-11T14:36:33.937Z</time></trkpt><trkpt lat="44.8852067" lon="9.56159"><ele>210.0</ele><time>2026-04-11T14:36:34.943Z</time></trkpt><trkpt lat="44.8852767" lon="9.5617133"><ele>213.0</ele><time>2026-04-11T14:36:35.937Z</time></trkpt><trkpt lat="44.8853167" lon="9.561885"><ele>216.0</ele><time>2026-04-11T14:36:36.936Z</time></trkpt><trkpt lat="44.8853767" lon="9.56206"><ele>219.0</ele><time>2026-04-11T14:36:37.936Z</time></trkpt><trkpt lat="44.8854683" lon="9.562225"><ele>222.0</ele><time>2026-04-11T14:36:38.938Z</time></trkpt><trkpt lat="44.885575" lon="9.5623783"><ele>222.0</ele><time>2026-04-11T14:36:39.936Z</time></trkpt><trkpt lat="44.8856833" lon="9.5625317"><ele>222.0</ele><time>2026-04-11T14:36:40.936Z</time></trkpt><trkpt lat="44.88579" lon="9.5626883"><ele>222.0</ele><time>2026-04-11T14:36:41.941Z</time></trkpt><trkpt lat="44.8859" lon="9.562845"><ele>218.33333333333331</ele><time>2026-04-11T14:36:42.936Z</time></trkpt><trkpt lat="44.8860117" lon="9.5630033"><ele>214.66666666666666</ele><time>2026-04-11T14:36:43.936Z</time></trkpt><trkpt lat="44.886115" lon="9.5631717"><ele>211.0</ele><time>2026-04-11T14:36:44.937Z</time></trkpt><trkpt lat="44.8862067" lon="9.563355"><ele>211.0</ele><time>2026-04-11T14:36:45.937Z</time></trkpt><trkpt lat="44.8862917" lon="9.56354"><ele>211.0</ele><time>2026-04-11T14:36:46.939Z</time></trkpt><trkpt lat="44.8863717" lon="9.5637267"><ele>211.0</ele><time>2026-04-11T14:36:47.937Z</time></trkpt><trkpt lat="44.8864383" lon="9.5639217"><ele>208.66666666666666</ele><time>2026-04-11T14:36:48.937Z</time></trkpt><trkpt lat="44.8865083" lon="9.5641133"><ele>206.33333333333331</ele><time>2026-04-11T14:36:49.937Z</time></trkpt><trkpt lat="44.8866017" lon="9.564285"><ele>204.0</ele><time>2026-04-11T14:36:50.938Z</time></trkpt><trkpt lat="44.8867233" lon="9.564415"><ele>203.66666666666669</ele><time>2026-04-11T14:36:51.937Z</time></trkpt><trkpt lat="44.886865" lon="9.5645183"><ele>203.33333333333334</ele><time>2026-04-11T14:36:52.94Z</time></trkpt><trkpt lat="44.887015" lon="9.5646117"><ele>203.0</ele><time>2026-04-11T14:36:53.937Z</time></trkpt><trkpt lat="44.8871667" lon="9.5647"><ele>203.0</ele><time>2026-04-11T14:36:54.937Z</time></trkpt><trkpt lat="44.8873183" lon="9.5647867"><ele>203.0</ele><time>2026-04-11T14:36:55.937Z</time></trkpt><trkpt lat="44.88747" lon="9.5648817"><ele>203.0</ele><time>2026-04-11T14:36:56.937Z</time></trkpt><trkpt lat="44.887625" lon="9.5649867"><ele>201.0</ele><time>2026-04-11T14:36:57.937Z</time></trkpt><trkpt lat="44.887785" lon="9.5650933"><ele>199.0</ele><time>2026-04-11T14:36:58.936Z</time></trkpt><trkpt lat="44.887945" lon="9.5651967"><ele>197.0</ele><time>2026-04-11T14:36:59.943Z</time></trkpt><trkpt lat="44.88811" lon="9.5652983"><ele>196.33333333333334</ele><time>2026-04-11T14:37:00.936Z</time></trkpt><trkpt lat="44.888275" lon="9.5653933"><ele>195.66666666666669</ele><time>2026-04-11T14:37:01.938Z</time></trkpt><trkpt lat="44.88844" lon="9.5654867"><ele>195.0</ele><time>2026-04-11T14:37:02.937Z</time></trkpt><trkpt lat="44.8885983" lon="9.56558"><ele>195.0</ele><time>2026-04-11T14:37:03.937Z</time></trkpt><trkpt lat="44.888755" lon="9.56567"><ele>195.0</ele><time>2026-04-11T14:37:04.941Z</time></trkpt><trkpt lat="44.8889117" lon="9.5657483"><ele>195.0</ele><time>2026-04-11T14:37:05.937Z</time></trkpt><trkpt lat="44.88907" lon="9.5658133"><ele>195.0</ele><time>2026-04-11T14:37:06.937Z</time></trkpt><trkpt lat="44.8892217" lon="9.565865"><ele>195.0</ele><time>2026-04-11T14:37:07.937Z</time></trkpt><trkpt lat="44.8893667" lon="9.565915"><ele>195.0</ele><time>2026-04-11T14:37:08.937Z</time></trkpt><trkpt lat="44.8895" lon="9.5659633"><ele>195.0</ele><time>2026-04-11T14:37:09.939Z</time></trkpt><trkpt lat="44.8896233" lon="9.5660133"><ele>196.5</ele><time>2026-04-11T14:37:10.938Z</time></trkpt><trkpt lat="44.8897367" lon="9.5660733"><ele>198.0</ele><time>2026-04-11T14:37:11.938Z</time></trkpt><trkpt lat="44.889835" lon="9.5661617"><ele>199.5</ele><time>2026-04-11T14:37:12.937Z</time></trkpt><trkpt lat="44.8899133" lon="9.56627"><ele>201.0</ele><time>2026-04-11T14:37:13.936Z</time></trkpt><trkpt lat="44.8899633" lon="9.5664133"><ele>201.0</ele><time>2026-04-11T14:37:14.938Z</time></trkpt><trkpt lat="44.889985" lon="9.566595"><ele>201.0</ele><time>2026-04-11T14:37:15.937Z</time></trkpt><trkpt lat="44.88999" lon="9.5668033"><ele>201.0</ele><time>2026-04-11T14:37:16.942Z</time></trkpt><trkpt lat="44.8899867" lon="9.5670267"><ele>201.0</ele><time>2026-04-11T14:37:17.938Z</time></trkpt><trkpt lat="44.8899833" lon="9.5672433"><ele>200.25</ele><time>2026-04-11T14:37:18.938Z</time></trkpt><trkpt lat="44.8899933" lon="9.5674517"><ele>199.5</ele><time>2026-04-11T14:37:19.938Z</time></trkpt><trkpt lat="44.8900167" lon="9.567655"><ele>198.75</ele><time>2026-04-11T14:37:20.939Z</time></trkpt><trkpt lat="44.8900333" lon="9.56785"><ele>198.0</ele><time>2026-04-11T14:37:21.938Z</time></trkpt><trkpt lat="44.89003" lon="9.5680433"><ele>196.25</ele><time>2026-04-11T14:37:22.938Z</time></trkpt><trkpt lat="44.89001" lon="9.5682417"><ele>194.5</ele><time>2026-04-11T14:37:23.938Z</time></trkpt><trkpt lat="44.8899933" lon="9.5684417"><ele>192.75</ele><time>2026-04-11T14:37:24.937Z</time></trkpt><trkpt lat="44.88999" lon="9.56864"><ele>191.0</ele><time>2026-04-11T14:37:25.937Z</time></trkpt><trkpt lat="44.8899817" lon="9.56883"><ele>191.0</ele><time>2026-04-11T14:37:26.938Z</time></trkpt><trkpt lat="44.8899533" lon="9.56901"><ele>191.0</ele><time>2026-04-11T14:37:27.937Z</time></trkpt><trkpt lat="44.8898967" lon="9.56918"><ele>191.0</ele><time>2026-04-11T14:37:28.936Z</time></trkpt><trkpt lat="44.88981" lon="9.5693317"><ele>191.0</ele><time>2026-04-11T14:37:29.938Z</time></trkpt><trkpt lat="44.889715" lon="9.5694783"><ele>191.0</ele><time>2026-04-11T14:37:30.937Z</time></trkpt><trkpt lat="44.8896333" lon="9.5696333"><ele>191.0</ele><time>2026-04-11T14:37:31.937Z</time></trkpt><trkpt lat="44.8895833" lon="9.5698067"><ele>191.0</ele><time>2026-04-11T14:37:32.937Z</time></trkpt><trkpt lat="44.8895767" lon="9.5699983"><ele>191.0</ele><time>2026-04-11T14:37:33.937Z</time></trkpt><trkpt lat="44.88961" lon="9.5701867"><ele>191.0</ele><time>2026-04-11T14:37:34.938Z</time></trkpt><trkpt lat="44.8896883" lon="9.5703567"><ele>191.0</ele><time>2026-04-11T14:37:35.937Z</time></trkpt><trkpt lat="44.8897983" lon="9.570505"><ele>191.0</ele><time>2026-04-11T14:37:36.936Z</time></trkpt><trkpt lat="44.8899217" lon="9.5706367"><ele>193.33333333333331</ele><time>2026-04-11T14:37:37.938Z</time></trkpt><trkpt lat="44.89005" lon="9.5707567"><ele>195.66666666666666</ele><time>2026-04-11T14:37:38.937Z</time></trkpt><trkpt lat="44.890185" lon="9.570855"><ele>198.0</ele><time>2026-04-11T14:37:39.937Z</time></trkpt><trkpt lat="44.890325" lon="9.570935"><ele>198.0</ele><time>2026-04-11T14:37:40.938Z</time></trkpt><trkpt lat="44.8904633" lon="9.5710283"><ele>198.0</ele><time>2026-04-11T14:37:41.936Z</time></trkpt><trkpt lat="44.89059" lon="9.57115"><ele>198.0</ele><time>2026-04-11T14:37:42.936Z</time></trkpt><trkpt lat="44.8907117" lon="9.5712933"><ele>200.0</ele><time>2026-04-11T14:37:43.939Z</time></trkpt><trkpt lat="44.89083" lon="9.5714483"><ele>202.0</ele><time>2026-04-11T14:37:44.939Z</time></trkpt><trkpt lat="44.8909483" lon="9.5716033"><ele>204.0</ele><time>2026-04-11T14:37:45.937Z</time></trkpt><trkpt lat="44.8910617" lon="9.5717583"><ele>204.0</ele><time>2026-04-11T14:37:46.943Z</time></trkpt><trkpt lat="44.89118" lon="9.5719083"><ele>204.0</ele><time>2026-04-11T14:37:47.936Z</time></trkpt><trkpt lat="44.8913017" lon="9.5720417"><ele>204.0</ele><time>2026-04-11T14:37:48.936Z</time></trkpt><trkpt lat="44.89143" lon="9.57216"><ele>202.66666666666669</ele><time>2026-04-11T14:37:49.937Z</time></trkpt><trkpt lat="44.8915583" lon="9.5722783"><ele>201.33333333333334</ele><time>2026-04-11T14:37:50.937Z</time></trkpt><trkpt lat="44.8916817" lon="9.5724167"><ele>200.0</ele><time>2026-04-11T14:37:51.94Z</time></trkpt><trkpt lat="44.89179" lon="9.572575"><ele>200.0</ele><time>2026-04-11T14:37:52.939Z</time></trkpt><trkpt lat="44.89189" lon="9.57274"><ele>200.0</ele><time>2026-04-11T14:37:53.937Z</time></trkpt><trkpt lat="44.8919917" lon="9.5729017"><ele>200.0</ele><time>2026-04-11T14:37:54.937Z</time></trkpt><trkpt lat="44.8921" lon="9.5730533"><ele>192.66666666666669</ele><time>2026-04-11T14:37:55.937Z</time></trkpt><trkpt lat="44.89222" lon="9.5731933"><ele>185.33333333333334</ele><time>2026-04-11T14:37:56.937Z</time></trkpt><trkpt lat="44.8923433" lon="9.573325"><ele>178.0</ele><time>2026-04-11T14:37:57.945Z</time></trkpt><trkpt lat="44.8924567" lon="9.5734533"><ele>178.0</ele><time>2026-04-11T14:37:58.937Z</time></trkpt><trkpt lat="44.8925617" lon="9.5735817"><ele>178.0</ele><time>2026-04-11T14:37:59.937Z</time></trkpt><trkpt lat="44.892665" lon="9.5737067"><ele>178.0</ele><time>2026-04-11T14:38:00.938Z</time></trkpt><trkpt lat="44.89276" lon="9.57384"><ele>178.0</ele><time>2026-04-11T14:38:01.938Z</time></trkpt><trkpt lat="44.8928567" lon="9.5739783"><ele>176.75</ele><time>2026-04-11T14:38:02.937Z</time></trkpt><trkpt lat="44.8929667" lon="9.5741"><ele>175.5</ele><time>2026-04-11T14:38:03.937Z</time></trkpt><trkpt lat="44.8930833" lon="9.5742033"><ele>174.25</ele><time>2026-04-11T14:38:04.937Z</time></trkpt><trkpt lat="44.8932117" lon="9.5742833"><ele>173.0</ele><time>2026-04-11T14:38:05.937Z</time></trkpt><trkpt lat="44.89334" lon="9.5743567"><ele>172.5</ele><time>2026-04-11T14:38:06.938Z</time></trkpt><trkpt lat="44.8934733" lon="9.574425"><ele>172.0</ele><time>2026-04-11T14:38:07.938Z</time></trkpt><trkpt lat="44.8936067" lon="9.5744967"><ele>171.5</ele><time>2026-04-11T14:38:08.938Z</time></trkpt><trkpt lat="44.8937417" lon="9.5745683"><ele>171.0</ele><time>2026-04-11T14:38:09.937Z</time></trkpt><trkpt lat="44.8938783" lon="9.57464"><ele>171.0</ele><time>2026-04-11T14:38:10.938Z</time></trkpt><trkpt lat="44.8940133" lon="9.5747167"><ele>171.0</ele><time>2026-04-11T14:38:11.943Z</time></trkpt><trkpt lat="44.8941467" lon="9.5748"><ele>171.0</ele><time>2026-04-11T14:38:12.937Z</time></trkpt><trkpt lat="44.894275" lon="9.5748933"><ele>171.0</ele><time>2026-04-11T14:38:13.938Z</time></trkpt><trkpt lat="44.8943967" lon="9.574995"><ele>171.25</ele><time>2026-04-11T14:38:14.938Z</time></trkpt><trkpt lat="44.8945117" lon="9.575095"><ele>171.5</ele><time>2026-04-11T14:38:15.936Z</time></trkpt><trkpt lat="44.8946217" lon="9.5751933"><ele>171.75</ele><time>2026-04-11T14:38:16.937Z</time></trkpt><trkpt lat="44.89473" lon="9.5752933"><ele>172.0</ele><time>2026-04-11T14:38:17.941Z</time></trkpt><trkpt lat="44.8948467" lon="9.5753983"><ele>170.5</ele><time>2026-04-11T14:38:18.936Z</time></trkpt><trkpt lat="44.894965" lon="9.5755083"><ele>169.0</ele><time>2026-04-11T14:38:19.936Z</time></trkpt><trkpt lat="44.89508" lon="9.575615"><ele>167.5</ele><time>2026-04-11T14:38:20.938Z</time></trkpt><trkpt lat="44.8951967" lon="9.5757183"><ele>166.0</ele><time>2026-04-11T14:38:21.938Z</time></trkpt><trkpt lat="44.895315" lon="9.5758267"><ele>166.0</ele><time>2026-04-11T14:38:22.944Z</time></trkpt><trkpt lat="44.8954333" lon="9.5759367"><ele>166.0</ele><time>2026-04-11T14:38:23.937Z</time></trkpt><trkpt lat="44.89555" lon="9.5760433"><ele>166.0</ele><time>2026-04-11T14:38:24.937Z</time></trkpt><trkpt lat="44.89566" lon="9.5761467"><ele>166.0</ele><time>2026-04-11T14:38:25.937Z</time></trkpt><trkpt lat="44.89577" lon="9.5762467"><ele>166.5</ele><time>2026-04-11T14:38:26.937Z</time></trkpt><trkpt lat="44.89588" lon="9.5763467"><ele>167.0</ele><time>2026-04-11T14:38:27.937Z</time></trkpt><trkpt lat="44.89599" lon="9.5764467"><ele>167.5</ele><time>2026-04-11T14:38:28.944Z</time></trkpt><trkpt lat="44.8961017" lon="9.576545"><ele>168.0</ele><time>2026-04-11T14:38:29.937Z</time></trkpt><trkpt lat="44.8962117" lon="9.5766433"><ele>168.0</ele><time>2026-04-11T14:38:30.938Z</time></trkpt><trkpt lat="44.8963217" lon="9.5767433"><ele>168.0</ele><time>2026-04-11T14:38:31.937Z</time></trkpt><trkpt lat="44.89643" lon="9.5768433"><ele>168.0</ele><time>2026-04-11T14:38:32.938Z</time></trkpt><trkpt lat="44.8965317" lon="9.57694"><ele>168.0</ele><time>2026-04-11T14:38:33.942Z</time></trkpt><trkpt lat="44.8966317" lon="9.5770317"><ele>167.60000000000002</ele><time>2026-04-11T14:38:34.937Z</time></trkpt><trkpt lat="44.89673" lon="9.5771083"><ele>167.20000000000002</ele><time>2026-04-11T14:38:35.938Z</time></trkpt><trkpt lat="44.8968333" lon="9.5771633"><ele>166.8</ele><time>2026-04-11T14:38:36.938Z</time></trkpt><trkpt lat="44.8969417" lon="9.5772033"><ele>166.4</ele><time>2026-04-11T14:38:37.937Z</time></trkpt><trkpt lat="44.8970533" lon="9.5772367"><ele>166.0</ele><time>2026-04-11T14:38:38.937Z</time></trkpt><trkpt lat="44.89717" lon="9.5772633"><ele>166.0</ele><time>2026-04-11T14:38:39.938Z</time></trkpt><trkpt lat="44.897295" lon="9.5772933"><ele>166.0</ele><time>2026-04-11T14:38:40.937Z</time></trkpt><trkpt lat="44.8974167" lon="9.5773267"><ele>166.0</ele><time>2026-04-11T14:38:41.943Z</time></trkpt><trkpt lat="44.8975317" lon="9.57737"><ele>166.0</ele><time>2026-04-11T14:38:42.939Z</time></trkpt><trkpt lat="44.8976367" lon="9.5774217"><ele>167.4</ele><time>2026-04-11T14:38:43.937Z</time></trkpt><trkpt lat="44.8977317" lon="9.5774683"><ele>168.8</ele><time>2026-04-11T14:38:44.938Z</time></trkpt><trkpt lat="44.8978217" lon="9.5775133"><ele>170.20000000000002</ele><time>2026-04-11T14:38:45.938Z</time></trkpt><trkpt lat="44.897915" lon="9.577565"><ele>171.60000000000002</ele><time>2026-04-11T14:38:46.937Z</time></trkpt><trkpt lat="44.8980083" lon="9.5776333"><ele>173.0</ele><time>2026-04-11T14:38:47.937Z</time></trkpt><trkpt lat="44.8981017" lon="9.577715"><ele>173.0</ele><time>2026-04-11T14:38:48.942Z</time></trkpt><trkpt lat="44.8981883" lon="9.57781"><ele>173.0</ele><time>2026-04-11T14:38:49.937Z</time></trkpt><trkpt lat="44.89827" lon="9.57791"><ele>173.0</ele><time>2026-04-11T14:38:50.937Z</time></trkpt><trkpt lat="44.8983533" lon="9.578015"><ele>173.0</ele><time>2026-04-11T14:38:51.937Z</time></trkpt><trkpt lat="44.8984433" lon="9.5781167"><ele>173.0</ele><time>2026-04-11T14:38:52.937Z</time></trkpt><trkpt lat="44.8985333" lon="9.578205"><ele>172.2</ele><time>2026-04-11T14:38:53.941Z</time></trkpt><trkpt lat="44.8986267" lon="9.57828"><ele>171.4</ele><time>2026-04-11T14:38:54.937Z</time></trkpt><trkpt lat="44.898725" lon="9.57834"><ele>170.6</ele><time>2026-04-11T14:38:55.937Z</time></trkpt><trkpt lat="44.8988317" lon="9.5783867"><ele>169.79999999999998</ele><time>2026-04-11T14:38:56.938Z</time></trkpt><trkpt lat="44.898935" lon="9.578435"><ele>169.0</ele><time>2026-04-11T14:38:57.938Z</time></trkpt><trkpt lat="44.89903" lon="9.5784917"><ele>169.0</ele><time>2026-04-11T14:38:58.941Z</time></trkpt><trkpt lat="44.89912" lon="9.5785467"><ele>169.0</ele><time>2026-04-11T14:38:59.938Z</time></trkpt><trkpt lat="44.8992083" lon="9.578595"><ele>169.0</ele><time>2026-04-11T14:39:00.938Z</time></trkpt><trkpt lat="44.899295" lon="9.57864"><ele>169.0</ele><time>2026-04-11T14:39:01.938Z</time></trkpt><trkpt lat="44.8993883" lon="9.578685"><ele>169.0</ele><time>2026-04-11T14:39:02.938Z</time></trkpt><trkpt lat="44.8994833" lon="9.5787233"><ele>168.39999999999998</ele><time>2026-04-11T14:39:03.938Z</time></trkpt><trkpt lat="44.8995833" lon="9.5787483"><ele>167.8</ele><time>2026-04-11T14:39:04.937Z</time></trkpt><trkpt lat="44.8996833" lon="9.57876"><ele>167.2</ele><time>2026-04-11T14:39:05.945Z</time></trkpt><trkpt lat="44.8997783" lon="9.57876"><ele>166.60000000000002</ele><time>2026-04-11T14:39:06.938Z</time></trkpt><trkpt lat="44.8998717" lon="9.5787567"><ele>166.0</ele><time>2026-04-11T14:39:07.937Z</time></trkpt><trkpt lat="44.8999667" lon="9.578765"><ele>166.0</ele><time>2026-04-11T14:39:08.941Z</time></trkpt><trkpt lat="44.90007" lon="9.578785"><ele>166.0</ele><time>2026-04-11T14:39:09.938Z</time></trkpt><trkpt lat="44.9001883" lon="9.57883"><ele>166.0</ele><time>2026-04-11T14:39:10.941Z</time></trkpt><trkpt lat="44.9003117" lon="9.5789067"><ele>166.0</ele><time>2026-04-11T14:39:11.938Z</time></trkpt><trkpt lat="44.9004283" lon="9.5789983"><ele>166.25</ele><time>2026-04-11T14:39:12.937Z</time></trkpt><trkpt lat="44.9005433" lon="9.5790683"><ele>166.5</ele><time>2026-04-11T14:39:13.939Z</time></trkpt><trkpt lat="44.9006567" lon="9.5791"><ele>166.75</ele><time>2026-04-11T14:39:14.939Z</time></trkpt><trkpt lat="44.9007617" lon="9.5790867"><ele>167.0</ele><time>2026-04-11T14:39:15.938Z</time></trkpt><trkpt lat="44.900865" lon="9.5790167"><ele>165.75</ele><time>2026-04-11T14:39:16.938Z</time></trkpt><trkpt lat="44.90097" lon="9.5789033"><ele>164.5</ele><time>2026-04-11T14:39:17.94Z</time></trkpt><trkpt lat="44.9010667" lon="9.578785"><ele>163.25</ele><time>2026-04-11T14:39:18.938Z</time></trkpt><trkpt lat="44.90116" lon="9.578675"><ele>162.0</ele><time>2026-04-11T14:39:19.938Z</time></trkpt><trkpt lat="44.9012517" lon="9.5785783"><ele>164.0</ele><time>2026-04-11T14:39:20.939Z</time></trkpt><trkpt lat="44.9013467" lon="9.5784967"><ele>166.0</ele><time>2026-04-11T14:39:21.939Z</time></trkpt><trkpt lat="44.9014433" lon="9.5784283"><ele>168.0</ele><time>2026-04-11T14:39:22.938Z</time></trkpt><trkpt lat="44.9015483" lon="9.57837"><ele>170.0</ele><time>2026-04-11T14:39:23.937Z</time></trkpt><trkpt lat="44.9016583" lon="9.57832"><ele>172.0</ele><time>2026-04-11T14:39:24.938Z</time></trkpt><trkpt lat="44.901775" lon="9.57828"><ele>172.0</ele><time>2026-04-11T14:39:25.939Z</time></trkpt><trkpt lat="44.9018983" lon="9.5782533"><ele>172.0</ele><time>2026-04-11T14:39:26.941Z</time></trkpt><trkpt lat="44.9020367" lon="9.5782467"><ele>172.0</ele><time>2026-04-11T14:39:27.942Z</time></trkpt><trkpt lat="44.9021933" lon="9.57827"><ele>172.0</ele><time>2026-04-11T14:39:28.937Z</time></trkpt><trkpt lat="44.9023567" lon="9.5783167"><ele>172.0</ele><time>2026-04-11T14:39:29.937Z</time></trkpt><trkpt lat="44.9025167" lon="9.5783783"><ele>172.0</ele><time>2026-04-11T14:39:30.938Z</time></trkpt><trkpt lat="44.902675" lon="9.578455"><ele>172.0</ele><time>2026-04-11T14:39:31.939Z</time></trkpt><trkpt lat="44.9028333" lon="9.5785383"><ele>172.33333333333334</ele><time>2026-04-11T14:39:32.94Z</time></trkpt><trkpt lat="44.902985" lon="9.57862"><ele>172.66666666666666</ele><time>2026-04-11T14:39:33.938Z</time></trkpt><trkpt lat="44.903135" lon="9.5787017"><ele>173.0</ele><time>2026-04-11T14:39:34.936Z</time></trkpt><trkpt lat="44.9032867" lon="9.5787817"><ele>173.33333333333331</ele><time>2026-04-11T14:39:35.936Z</time></trkpt><trkpt lat="44.9034367" lon="9.5788617"><ele>173.66666666666666</ele><time>2026-04-11T14:39:36.943Z</time></trkpt><trkpt lat="44.903585" lon="9.5789483"><ele>174.0</ele><time>2026-04-11T14:39:37.937Z</time></trkpt><trkpt lat="44.90373" lon="9.579045"><ele>174.0</ele><time>2026-04-11T14:39:38.938Z</time></trkpt><trkpt lat="44.9038733" lon="9.5791517"><ele>174.0</ele><time>2026-04-11T14:39:39.937Z</time></trkpt><trkpt lat="44.9040117" lon="9.5792667"><ele>174.0</ele><time>2026-04-11T14:39:40.937Z</time></trkpt><trkpt lat="44.9041467" lon="9.5793783"><ele>173.0</ele><time>2026-04-11T14:39:41.937Z</time></trkpt><trkpt lat="44.9042867" lon="9.5794883"><ele>172.0</ele><time>2026-04-11T14:39:42.938Z</time></trkpt><trkpt lat="44.904425" lon="9.57959"><ele>171.0</ele><time>2026-04-11T14:39:43.937Z</time></trkpt><trkpt lat="44.9045733" lon="9.5796833"><ele>171.0</ele><time>2026-04-11T14:39:44.938Z</time></trkpt><trkpt lat="44.9047233" lon="9.5797533"><ele>171.0</ele><time>2026-04-11T14:39:45.938Z</time></trkpt><trkpt lat="44.904905" lon="9.5797967"><ele>171.0</ele><time>2026-04-11T14:39:46.937Z</time></trkpt><trkpt lat="44.905085" lon="9.5798233"><ele>172.33333333333334</ele><time>2026-04-11T14:39:47.936Z</time></trkpt><trkpt lat="44.905265" lon="9.57987"><ele>173.66666666666669</ele><time>2026-04-11T14:39:48.938Z</time></trkpt><trkpt lat="44.9054483" lon="9.579925"><ele>175.0</ele><time>2026-04-11T14:39:49.938Z</time></trkpt><trkpt lat="44.9056233" lon="9.5799867"><ele>175.0</ele><time>2026-04-11T14:39:50.944Z</time></trkpt><trkpt lat="44.9058" lon="9.5800467"><ele>175.0</ele><time>2026-04-11T14:39:51.938Z</time></trkpt><trkpt lat="44.9059683" lon="9.5801033"><ele>175.0</ele><time>2026-04-11T14:39:52.938Z</time></trkpt><trkpt lat="44.906135" lon="9.5801567"><ele>177.0</ele><time>2026-04-11T14:39:53.938Z</time></trkpt><trkpt lat="44.9062983" lon="9.5802083"><ele>179.0</ele><time>2026-04-11T14:39:54.938Z</time></trkpt><trkpt lat="44.9064633" lon="9.5802633"><ele>181.0</ele><time>2026-04-11T14:39:55.938Z</time></trkpt><trkpt lat="44.9066233" lon="9.5803267"><ele>180.66666666666669</ele><time>2026-04-11T14:39:56.938Z</time></trkpt><trkpt lat="44.9067783" lon="9.5804"><ele>180.33333333333334</ele><time>2026-04-11T14:39:57.938Z</time></trkpt><trkpt lat="44.9069267" lon="9.5804833"><ele>180.0</ele><time>2026-04-11T14:39:58.938Z</time></trkpt><trkpt lat="44.9070683" lon="9.5805717"><ele>180.0</ele><time>2026-04-11T14:39:59.938Z</time></trkpt><trkpt lat="44.9072167" lon="9.5806367"><ele>180.0</ele><time>2026-04-11T14:40:00.937Z</time></trkpt><trkpt lat="44.907365" lon="9.58066"><ele>180.0</ele><time>2026-04-11T14:40:01.937Z</time></trkpt><trkpt lat="44.9075033" lon="9.580675"><ele>180.0</ele><time>2026-04-11T14:40:02.943Z</time></trkpt><trkpt lat="44.9076367" lon="9.5807233"><ele>181.5</ele><time>2026-04-11T14:40:03.937Z</time></trkpt><trkpt lat="44.907765" lon="9.5808167"><ele>183.0</ele><time>2026-04-11T14:40:04.937Z</time></trkpt><trkpt lat="44.9078867" lon="9.5809333"><ele>184.5</ele><time>2026-04-11T14:40:05.937Z</time></trkpt><trkpt lat="44.9080017" lon="9.5810533"><ele>186.0</ele><time>2026-04-11T14:40:06.936Z</time></trkpt><trkpt lat="44.9081067" lon="9.5811767"><ele>185.5</ele><time>2026-04-11T14:40:07.937Z</time></trkpt><trkpt lat="44.9081983" lon="9.5812917"><ele>185.0</ele><time>2026-04-11T14:40:08.944Z</time></trkpt><trkpt lat="44.9082783" lon="9.5814083"><ele>184.5</ele><time>2026-04-11T14:40:09.938Z</time></trkpt><trkpt lat="44.908345" lon="9.5815367"><ele>184.0</ele><time>2026-04-11T14:40:10.937Z</time></trkpt><trkpt lat="44.9084033" lon="9.58168"><ele>184.0</ele><time>2026-04-11T14:40:11.939Z</time></trkpt><trkpt lat="44.9084533" lon="9.5818333"><ele>184.0</ele><time>2026-04-11T14:40:12.937Z</time></trkpt><trkpt lat="44.9084983" lon="9.5819783"><ele>184.0</ele><time>2026-04-11T14:40:13.937Z</time></trkpt><trkpt lat="44.9085467" lon="9.582125"><ele>184.0</ele><time>2026-04-11T14:40:14.937Z</time></trkpt><trkpt lat="44.9085983" lon="9.5822683"><ele>184.0</ele><time>2026-04-11T14:40:15.939Z</time></trkpt><trkpt lat="44.9086533" lon="9.582415"><ele>184.0</ele><time>2026-04-11T14:40:16.936Z</time></trkpt><trkpt lat="44.9087133" lon="9.582575"><ele>184.0</ele><time>2026-04-11T14:40:17.938Z</time></trkpt><trkpt lat="44.90877" lon="9.58274"><ele>184.0</ele><time>2026-04-11T14:40:18.939Z</time></trkpt><trkpt lat="44.9088217" lon="9.5829067"><ele>182.5</ele><time>2026-04-11T14:40:19.937Z</time></trkpt><trkpt lat="44.9088833" lon="9.5830633"><ele>181.0</ele><time>2026-04-11T14:40:20.938Z</time></trkpt><trkpt lat="44.9089783" lon="9.5831933"><ele>179.5</ele><time>2026-04-11T14:40:21.938Z</time></trkpt><trkpt lat="44.9091067" lon="9.5832883"><ele>178.0</ele><time>2026-04-11T14:40:22.938Z</time></trkpt><trkpt lat="44.9092517" lon="9.5833567"><ele>176.66666666666669</ele><time>2026-04-11T14:40:23.945Z</time></trkpt><trkpt lat="44.9093983" lon="9.5834117"><ele>175.33333333333334</ele><time>2026-04-11T14:40:24.938Z</time></trkpt><trkpt lat="44.9095483" lon="9.5834583"><ele>174.0</ele><time>2026-04-11T14:40:25.939Z</time></trkpt><trkpt lat="44.9097033" lon="9.58349"><ele>174.0</ele><time>2026-04-11T14:40:26.938Z</time></trkpt><trkpt lat="44.9098667" lon="9.58351"><ele>174.0</ele><time>2026-04-11T14:40:27.94Z</time></trkpt><trkpt lat="44.9100317" lon="9.5835267"><ele>174.0</ele><time>2026-04-11T14:40:28.937Z</time></trkpt><trkpt lat="44.9102017" lon="9.583545"><ele>172.33333333333334</ele><time>2026-04-11T14:40:29.938Z</time></trkpt><trkpt lat="44.9103733" lon="9.583565"><ele>170.66666666666669</ele><time>2026-04-11T14:40:30.939Z</time></trkpt><trkpt lat="44.9105467" lon="9.5835833"><ele>169.0</ele><time>2026-04-11T14:40:31.938Z</time></trkpt><trkpt lat="44.9107183" lon="9.5836"><ele>169.0</ele><time>2026-04-11T14:40:32.942Z</time></trkpt><trkpt lat="44.9108833" lon="9.5836133"><ele>169.0</ele><time>2026-04-11T14:40:33.938Z</time></trkpt><trkpt lat="44.911045" lon="9.5836233"><ele>169.0</ele><time>2026-04-11T14:40:34.937Z</time></trkpt><trkpt lat="44.9111967" lon="9.5836433"><ele>167.75</ele><time>2026-04-11T14:40:35.939Z</time></trkpt><trkpt lat="44.9113417" lon="9.5836833"><ele>166.5</ele><time>2026-04-11T14:40:36.938Z</time></trkpt><trkpt lat="44.911475" lon="9.5837533"><ele>165.25</ele><time>2026-04-11T14:40:37.945Z</time></trkpt><trkpt lat="44.9115917" lon="9.58385"><ele>164.0</ele><time>2026-04-11T14:40:38.939Z</time></trkpt><trkpt lat="44.9116967" lon="9.5839667"><ele>163.5</ele><time>2026-04-11T14:40:39.938Z</time></trkpt><trkpt lat="44.9117933" lon="9.5840733"><ele>163.0</ele><time>2026-04-11T14:40:40.937Z</time></trkpt><trkpt lat="44.9119" lon="9.58415"><ele>162.5</ele><time>2026-04-11T14:40:41.939Z</time></trkpt><trkpt lat="44.91202" lon="9.5841933"><ele>162.0</ele><time>2026-04-11T14:40:42.94Z</time></trkpt><trkpt lat="44.9121567" lon="9.584205"><ele>162.0</ele><time>2026-04-11T14:40:43.939Z</time></trkpt><trkpt lat="44.9123117" lon="9.5841917"><ele>162.0</ele><time>2026-04-11T14:40:44.939Z</time></trkpt><trkpt lat="44.912465" lon="9.5841667"><ele>162.0</ele><time>2026-04-11T14:40:45.937Z</time></trkpt><trkpt lat="44.9126183" lon="9.5841167"><ele>158.66666666666666</ele><time>2026-04-11T14:40:46.938Z</time></trkpt><trkpt lat="44.9127683" lon="9.5840267"><ele>155.33333333333331</ele><time>2026-04-11T14:40:47.938Z</time></trkpt><trkpt lat="44.9129133" lon="9.58391"><ele>152.0</ele><time>2026-04-11T14:40:48.938Z</time></trkpt><trkpt lat="44.9130567" lon="9.583785"><ele>154.0</ele><time>2026-04-11T14:40:49.942Z</time></trkpt><trkpt lat="44.9131983" lon="9.5836667"><ele>156.0</ele><time>2026-04-11T14:40:50.938Z</time></trkpt><trkpt lat="44.9133467" lon="9.5835683"><ele>158.0</ele><time>2026-04-11T14:40:51.938Z</time></trkpt><trkpt lat="44.9134967" lon="9.5834833"><ele>158.0</ele><time>2026-04-11T14:40:52.939Z</time></trkpt><trkpt lat="44.9136483" lon="9.583415"><ele>158.0</ele><time>2026-04-11T14:40:53.938Z</time></trkpt><trkpt lat="44.9137967" lon="9.5833733"><ele>158.0</ele><time>2026-04-11T14:40:54.938Z</time></trkpt><trkpt lat="44.9139417" lon="9.583375"><ele>158.0</ele><time>2026-04-11T14:40:55.942Z</time></trkpt><trkpt lat="44.9140783" lon="9.5834433"><ele>158.0</ele><time>2026-04-11T14:40:56.938Z</time></trkpt><trkpt lat="44.9142033" lon="9.5835517"><ele>158.0</ele><time>2026-04-11T14:40:57.938Z</time></trkpt><trkpt lat="44.914335" lon="9.5836367"><ele>158.0</ele><time>2026-04-11T14:40:58.937Z</time></trkpt><trkpt lat="44.9144867" lon="9.5836733"><ele>156.33333333333331</ele><time>2026-04-11T14:40:59.937Z</time></trkpt><trkpt lat="44.91465" lon="9.58366"><ele>154.66666666666666</ele><time>2026-04-11T14:41:00.938Z</time></trkpt><trkpt lat="44.9148167" lon="9.5836133"><ele>153.0</ele><time>2026-04-11T14:41:01.937Z</time></trkpt><trkpt lat="44.914985" lon="9.5835567"><ele>150.66666666666666</ele><time>2026-04-11T14:41:02.939Z</time></trkpt><trkpt lat="44.915155" lon="9.5834967"><ele>148.33333333333331</ele><time>2026-04-11T14:41:03.937Z</time></trkpt><trkpt lat="44.9153283" lon="9.5834333"><ele>146.0</ele><time>2026-04-11T14:41:04.938Z</time></trkpt><trkpt lat="44.9154983" lon="9.5833683"><ele>146.0</ele><time>2026-04-11T14:41:05.938Z</time></trkpt><trkpt lat="44.91567" lon="9.5833"><ele>146.0</ele><time>2026-04-11T14:41:06.942Z</time></trkpt><trkpt lat="44.9158383" lon="9.5832267"><ele>146.0</ele><time>2026-04-11T14:41:07.937Z</time></trkpt><trkpt lat="44.9160017" lon="9.5831467"><ele>144.66666666666666</ele><time>2026-04-11T14:41:08.94Z</time></trkpt><trkpt lat="44.9161583" lon="9.5830633"><ele>143.33333333333334</ele><time>2026-04-11T14:41:09.938Z</time></trkpt><trkpt lat="44.9163083" lon="9.5829633"><ele>142.0</ele><time>2026-04-11T14:41:10.938Z</time></trkpt><trkpt lat="44.9164467" lon="9.582845"><ele>145.0</ele><time>2026-04-11T14:41:11.938Z</time></trkpt><trkpt lat="44.9165783" lon="9.5827183"><ele>148.0</ele><time>2026-04-11T14:41:12.943Z</time></trkpt><trkpt lat="44.916715" lon="9.582595"><ele>151.0</ele><time>2026-04-11T14:41:13.939Z</time></trkpt><trkpt lat="44.9168583" lon="9.5825033"><ele>151.0</ele><time>2026-04-11T14:41:14.937Z</time></trkpt><trkpt lat="44.9170067" lon="9.5824583"><ele>151.0</ele><time>2026-04-11T14:41:15.939Z</time></trkpt><trkpt lat="44.9171717" lon="9.5824667"><ele>151.0</ele><time>2026-04-11T14:41:16.937Z</time></trkpt><trkpt lat="44.9173283" lon="9.5825333"><ele>151.0</ele><time>2026-04-11T14:41:17.942Z</time></trkpt><trkpt lat="44.9174883" lon="9.582595"><ele>151.0</ele><time>2026-04-11T14:41:18.939Z</time></trkpt><trkpt lat="44.91765" lon="9.58265"><ele>151.0</ele><time>2026-04-11T14:41:19.938Z</time></trkpt><trkpt lat="44.9178117" lon="9.5827067"><ele>151.66666666666669</ele><time>2026-04-11T14:41:20.94Z</time></trkpt><trkpt lat="44.9179767" lon="9.582775"><ele>152.33333333333334</ele><time>2026-04-11T14:41:21.94Z</time></trkpt><trkpt lat="44.9181417" lon="9.582855"><ele>153.0</ele><time>2026-04-11T14:41:22.938Z</time></trkpt><trkpt lat="44.9183083" lon="9.5829333"><ele>153.0</ele><time>2026-04-11T14:41:23.939Z</time></trkpt><trkpt lat="44.918475" lon="9.5830067"><ele>153.0</ele><time>2026-04-11T14:41:24.94Z</time></trkpt><trkpt lat="44.91864" lon="9.5830717"><ele>153.0</ele><time>2026-04-11T14:41:25.937Z</time></trkpt><trkpt lat="44.9188033" lon="9.583125"><ele>153.0</ele><time>2026-04-11T14:41:26.939Z</time></trkpt><trkpt lat="44.9189567" lon="9.583175"><ele>153.0</ele><time>2026-04-11T14:41:27.937Z</time></trkpt><trkpt lat="44.9191083" lon="9.5832283"><ele>153.0</ele><time>2026-04-11T14:41:28.938Z</time></trkpt><trkpt lat="44.9192583" lon="9.58328"><ele>152.33333333333334</ele><time>2026-04-11T14:41:29.939Z</time></trkpt><trkpt lat="44.9194117" lon="9.583315"><ele>151.66666666666669</ele><time>2026-04-11T14:41:30.937Z</time></trkpt><trkpt lat="44.9195667" lon="9.5833283"><ele>151.0</ele><time>2026-04-11T14:41:31.937Z</time></trkpt><trkpt lat="44.9197217" lon="9.5833117"><ele>151.0</ele><time>2026-04-11T14:41:32.938Z</time></trkpt><trkpt lat="44.9198783" lon="9.583275"><ele>151.0</ele><time>2026-04-11T14:41:33.938Z</time></trkpt><trkpt lat="44.920035" lon="9.58323"><ele>151.0</ele><time>2026-04-11T14:41:34.943Z</time></trkpt><trkpt lat="44.920195" lon="9.58318"><ele>150.0</ele><time>2026-04-11T14:41:35.937Z</time></trkpt><trkpt lat="44.92035" lon="9.583135"><ele>149.0</ele><time>2026-04-11T14:41:36.937Z</time></trkpt><trkpt lat="44.9205067" lon="9.5830967"><ele>148.0</ele><time>2026-04-11T14:41:37.937Z</time></trkpt><trkpt lat="44.92066" lon="9.5830567"><ele>148.0</ele><time>2026-04-11T14:41:38.939Z</time></trkpt><trkpt lat="44.9208133" lon="9.5830167"><ele>148.0</ele><time>2026-04-11T14:41:39.939Z</time></trkpt><trkpt lat="44.9209667" lon="9.582975"><ele>148.0</ele><time>2026-04-11T14:41:40.945Z</time></trkpt><trkpt lat="44.9211183" lon="9.58293"><ele>148.25</ele><time>2026-04-11T14:41:41.937Z</time></trkpt><trkpt lat="44.9212667" lon="9.5828883"><ele>148.5</ele><time>2026-04-11T14:41:42.937Z</time></trkpt><trkpt lat="44.9214117" lon="9.582845"><ele>148.75</ele><time>2026-04-11T14:41:43.937Z</time></trkpt><trkpt lat="44.92155" lon="9.582805"><ele>149.0</ele><time>2026-04-11T14:41:44.937Z</time></trkpt><trkpt lat="44.921685" lon="9.5827617"><ele>150.5</ele><time>2026-04-11T14:41:45.937Z</time></trkpt><trkpt lat="44.9218183" lon="9.5827167"><ele>152.0</ele><time>2026-04-11T14:41:46.937Z</time></trkpt><trkpt lat="44.9219533" lon="9.582685"><ele>153.5</ele><time>2026-04-11T14:41:47.938Z</time></trkpt><trkpt lat="44.9221" lon="9.58268"><ele>155.0</ele><time>2026-04-11T14:41:48.938Z</time></trkpt><trkpt lat="44.9222467" lon="9.5827"><ele>155.0</ele><time>2026-04-11T14:41:49.943Z</time></trkpt><trkpt lat="44.9223933" lon="9.5827283"><ele>155.0</ele><time>2026-04-11T14:41:50.938Z</time></trkpt><trkpt lat="44.9225433" lon="9.58276"><ele>155.0</ele><time>2026-04-11T14:41:51.939Z</time></trkpt><trkpt lat="44.9226933" lon="9.582795"><ele>154.66666666666666</ele><time>2026-04-11T14:41:52.938Z</time></trkpt><trkpt lat="44.9228467" lon="9.582835"><ele>154.33333333333334</ele><time>2026-04-11T14:41:53.939Z</time></trkpt><trkpt lat="44.9230017" lon="9.582875"><ele>154.0</ele><time>2026-04-11T14:41:54.938Z</time></trkpt><trkpt lat="44.9231567" lon="9.5829167"><ele>151.66666666666669</ele><time>2026-04-11T14:41:55.937Z</time></trkpt><trkpt lat="44.9233133" lon="9.5829483"><ele>149.33333333333334</ele><time>2026-04-11T14:41:56.938Z</time></trkpt><trkpt lat="44.9234633" lon="9.5829867"><ele>147.0</ele><time>2026-04-11T14:41:57.942Z</time></trkpt><trkpt lat="44.923605" lon="9.583025"><ele>147.0</ele><time>2026-04-11T14:41:58.938Z</time></trkpt><trkpt lat="44.9237467" lon="9.5830683"><ele>147.0</ele><time>2026-04-11T14:41:59.939Z</time></trkpt><trkpt lat="44.9238817" lon="9.5831283"><ele>147.0</ele><time>2026-04-11T14:42:00.938Z</time></trkpt><trkpt lat="44.9240167" lon="9.583205"><ele>147.0</ele><time>2026-04-11T14:42:01.938Z</time></trkpt><trkpt lat="44.9241583" lon="9.5832933"><ele>145.0</ele><time>2026-04-11T14:42:02.943Z</time></trkpt><trkpt lat="44.9243033" lon="9.5833833"><ele>143.0</ele><time>2026-04-11T14:42:03.939Z</time></trkpt><trkpt lat="44.9244517" lon="9.583475"><ele>141.0</ele><time>2026-04-11T14:42:04.937Z</time></trkpt><trkpt lat="44.9246" lon="9.58356"><ele>141.0</ele><time>2026-04-11T14:42:05.938Z</time></trkpt><trkpt lat="44.92475" lon="9.58365"><ele>141.0</ele><time>2026-04-11T14:42:06.937Z</time></trkpt><trkpt lat="44.9248967" lon="9.58374"><ele>141.0</ele><time>2026-04-11T14:42:07.939Z</time></trkpt><trkpt lat="44.9250467" lon="9.5838233"><ele>139.66666666666666</ele><time>2026-04-11T14:42:08.938Z</time></trkpt><trkpt lat="44.9251883" lon="9.5839067"><ele>138.33333333333331</ele><time>2026-04-11T14:42:09.937Z</time></trkpt><trkpt lat="44.9253317" lon="9.5839933"><ele>137.0</ele><time>2026-04-11T14:42:10.937Z</time></trkpt><trkpt lat="44.9254833" lon="9.58409"><ele>137.0</ele><time>2026-04-11T14:42:11.938Z</time></trkpt><trkpt lat="44.9256333" lon="9.58419"><ele>137.0</ele><time>2026-04-11T14:42:12.939Z</time></trkpt><trkpt lat="44.925785" lon="9.5842833"><ele>137.0</ele><time>2026-04-11T14:42:13.938Z</time></trkpt><trkpt lat="44.9259367" lon="9.5843817"><ele>136.66666666666666</ele><time>2026-04-11T14:42:14.938Z</time></trkpt><trkpt lat="44.9260883" lon="9.584475"><ele>136.33333333333334</ele><time>2026-04-11T14:42:15.945Z</time></trkpt><trkpt lat="44.926245" lon="9.5845683"><ele>136.0</ele><time>2026-04-11T14:42:16.938Z</time></trkpt><trkpt lat="44.926405" lon="9.5846583"><ele>135.33333333333334</ele><time>2026-04-11T14:42:17.937Z</time></trkpt><trkpt lat="44.9265683" lon="9.58475"><ele>134.66666666666666</ele><time>2026-04-11T14:42:18.938Z</time></trkpt><trkpt lat="44.9267317" lon="9.5848467"><ele>134.0</ele><time>2026-04-11T14:42:19.938Z</time></trkpt><trkpt lat="44.926895" lon="9.5849483"><ele>134.0</ele><time>2026-04-11T14:42:20.939Z</time></trkpt><trkpt lat="44.9270567" lon="9.585055"><ele>134.0</ele><time>2026-04-11T14:42:21.938Z</time></trkpt><trkpt lat="44.9272183" lon="9.58516"><ele>134.0</ele><time>2026-04-11T14:42:22.943Z</time></trkpt><trkpt lat="44.9273767" lon="9.58527"><ele>133.66666666666666</ele><time>2026-04-11T14:42:23.938Z</time></trkpt><trkpt lat="44.9275317" lon="9.5853783"><ele>133.33333333333334</ele><time>2026-04-11T14:42:24.939Z</time></trkpt><trkpt lat="44.92768" lon="9.5854717"><ele>133.0</ele><time>2026-04-11T14:42:25.938Z</time></trkpt><trkpt lat="44.9278333" lon="9.5855667"><ele>133.66666666666669</ele><time>2026-04-11T14:42:26.937Z</time></trkpt><trkpt lat="44.92799" lon="9.5856633"><ele>134.33333333333334</ele><time>2026-04-11T14:42:27.937Z</time></trkpt><trkpt lat="44.92815" lon="9.5857567"><ele>135.0</ele><time>2026-04-11T14:42:28.939Z</time></trkpt><trkpt lat="44.9283117" lon="9.58585"><ele>135.0</ele><time>2026-04-11T14:42:29.937Z</time></trkpt><trkpt lat="44.928475" lon="9.585945"><ele>135.0</ele><time>2026-04-11T14:42:30.941Z</time></trkpt><trkpt lat="44.928635" lon="9.5860417"><ele>135.0</ele><time>2026-04-11T14:42:31.939Z</time></trkpt><trkpt lat="44.92879" lon="9.586135"><ele>135.0</ele><time>2026-04-11T14:42:32.938Z</time></trkpt><trkpt lat="44.928945" lon="9.5862317"><ele>135.0</ele><time>2026-04-11T14:42:33.937Z</time></trkpt><trkpt lat="44.9291017" lon="9.5863267"><ele>135.0</ele><time>2026-04-11T14:42:34.938Z</time></trkpt><trkpt lat="44.9292583" lon="9.586425"><ele>135.0</ele><time>2026-04-11T14:42:35.938Z</time></trkpt><trkpt lat="44.92942" lon="9.5865267"><ele>135.0</ele><time>2026-04-11T14:42:36.938Z</time></trkpt><trkpt lat="44.9295817" lon="9.58663"><ele>135.0</ele><time>2026-04-11T14:42:37.939Z</time></trkpt><trkpt lat="44.9297483" lon="9.58673"><ele>135.0</ele><time>2026-04-11T14:42:38.939Z</time></trkpt><trkpt lat="44.9299117" lon="9.58683"><ele>135.0</ele><time>2026-04-11T14:42:39.938Z</time></trkpt><trkpt lat="44.9300667" lon="9.5869267"><ele>135.0</ele><time>2026-04-11T14:42:40.937Z</time></trkpt><trkpt lat="44.9302183" lon="9.58702"><ele>136.0</ele><time>2026-04-11T14:42:41.938Z</time></trkpt><trkpt lat="44.9303717" lon="9.5871167"><ele>137.0</ele><time>2026-04-11T14:42:42.939Z</time></trkpt><trkpt lat="44.930525" lon="9.5872133"><ele>138.0</ele><time>2026-04-11T14:42:43.938Z</time></trkpt><trkpt lat="44.93068" lon="9.5873083"><ele>138.0</ele><time>2026-04-11T14:42:44.945Z</time></trkpt><trkpt lat="44.9308317" lon="9.5873983"><ele>138.0</ele><time>2026-04-11T14:42:45.938Z</time></trkpt><trkpt lat="44.9309817" lon="9.5874867"><ele>138.0</ele><time>2026-04-11T14:42:46.937Z</time></trkpt><trkpt lat="44.9311333" lon="9.5875767"><ele>141.33333333333334</ele><time>2026-04-11T14:42:47.941Z</time></trkpt><trkpt lat="44.9312867" lon="9.587665"><ele>144.66666666666669</ele><time>2026-04-11T14:42:48.938Z</time></trkpt><trkpt lat="44.93144" lon="9.5877583"><ele>148.0</ele><time>2026-04-11T14:42:49.944Z</time></trkpt><trkpt lat="44.931595" lon="9.5878517"><ele>146.66666666666669</ele><time>2026-04-11T14:42:50.938Z</time></trkpt><trkpt lat="44.93175" lon="9.5879483"><ele>145.33333333333334</ele><time>2026-04-11T14:42:51.937Z</time></trkpt><trkpt lat="44.9318967" lon="9.5880433"><ele>144.0</ele><time>2026-04-11T14:42:52.936Z</time></trkpt><trkpt lat="44.9320433" lon="9.5881333"><ele>144.0</ele><time>2026-04-11T14:42:53.937Z</time></trkpt><trkpt lat="44.9321867" lon="9.588225"><ele>144.0</ele><time>2026-04-11T14:42:54.941Z</time></trkpt><trkpt lat="44.9323317" lon="9.588315"><ele>144.0</ele><time>2026-04-11T14:42:55.936Z</time></trkpt><trkpt lat="44.9324833" lon="9.5884033"><ele>142.0</ele><time>2026-04-11T14:42:56.937Z</time></trkpt><trkpt lat="44.932635" lon="9.5884983"><ele>140.0</ele><time>2026-04-11T14:42:57.936Z</time></trkpt><trkpt lat="44.9327867" lon="9.5886033"><ele>138.0</ele><time>2026-04-11T14:42:58.936Z</time></trkpt><trkpt lat="44.9329483" lon="9.5887067"><ele>138.0</ele><time>2026-04-11T14:42:59.936Z</time></trkpt><trkpt lat="44.9331167" lon="9.588815"><ele>138.0</ele><time>2026-04-11T14:43:00.939Z</time></trkpt><trkpt lat="44.933275" lon="9.5889117"><ele>138.0</ele><time>2026-04-11T14:43:01.938Z</time></trkpt><trkpt lat="44.933435" lon="9.58901"><ele>141.66666666666666</ele><time>2026-04-11T14:43:02.938Z</time></trkpt><trkpt lat="44.933595" lon="9.5891083"><ele>145.33333333333331</ele><time>2026-04-11T14:43:03.939Z</time></trkpt><trkpt lat="44.9337583" lon="9.589205"><ele>149.0</ele><time>2026-04-11T14:43:04.938Z</time></trkpt><trkpt lat="44.9339233" lon="9.5893067"><ele>149.0</ele><time>2026-04-11T14:43:05.945Z</time></trkpt><trkpt lat="44.934085" lon="9.58941"><ele>149.0</ele><time>2026-04-11T14:43:06.938Z</time></trkpt><trkpt lat="44.934245" lon="9.5895167"><ele>149.0</ele><time>2026-04-11T14:43:07.938Z</time></trkpt><trkpt lat="44.9344017" lon="9.58962"><ele>145.0</ele><time>2026-04-11T14:43:08.939Z</time></trkpt><trkpt lat="44.93456" lon="9.589725"><ele>141.0</ele><time>2026-04-11T14:43:09.937Z</time></trkpt><trkpt lat="44.9347217" lon="9.589825"><ele>137.0</ele><time>2026-04-11T14:43:10.936Z</time></trkpt><trkpt lat="44.9348833" lon="9.5899283"><ele>137.0</ele><time>2026-04-11T14:43:11.937Z</time></trkpt><trkpt lat="44.935045" lon="9.59003"><ele>137.0</ele><time>2026-04-11T14:43:12.939Z</time></trkpt><trkpt lat="44.9352067" lon="9.5901317"><ele>137.0</ele><time>2026-04-11T14:43:13.937Z</time></trkpt><trkpt lat="44.93537" lon="9.59023"><ele>135.66666666666666</ele><time>2026-04-11T14:43:14.942Z</time></trkpt><trkpt lat="44.9355283" lon="9.5903267"><ele>134.33333333333334</ele><time>2026-04-11T14:43:15.938Z</time></trkpt><trkpt lat="44.9356867" lon="9.5904233"><ele>133.0</ele><time>2026-04-11T14:43:16.937Z</time></trkpt><trkpt lat="44.9358417" lon="9.5905167"><ele>136.0</ele><time>2026-04-11T14:43:17.938Z</time></trkpt><trkpt lat="44.93599" lon="9.59061"><ele>139.0</ele><time>2026-04-11T14:43:18.937Z</time></trkpt><trkpt lat="44.936135" lon="9.590705"><ele>142.0</ele><time>2026-04-11T14:43:19.937Z</time></trkpt><trkpt lat="44.9362817" lon="9.5908"><ele>142.0</ele><time>2026-04-11T14:43:20.939Z</time></trkpt><trkpt lat="44.9364283" lon="9.5908917"><ele>142.0</ele><time>2026-04-11T14:43:21.938Z</time></trkpt><trkpt lat="44.93658" lon="9.5909667"><ele>142.0</ele><time>2026-04-11T14:43:22.939Z</time></trkpt><trkpt lat="44.936735" lon="9.59102"><ele>141.66666666666669</ele><time>2026-04-11T14:43:23.937Z</time></trkpt><trkpt lat="44.9369" lon="9.5910417"><ele>141.33333333333334</ele><time>2026-04-11T14:43:24.941Z</time></trkpt><trkpt lat="44.93707" lon="9.5910383"><ele>141.0</ele><time>2026-04-11T14:43:25.937Z</time></trkpt><trkpt lat="44.93724" lon="9.5910117"><ele>141.0</ele><time>2026-04-11T14:43:26.939Z</time></trkpt><trkpt lat="44.937415" lon="9.5909767"><ele>141.0</ele><time>2026-04-11T14:43:27.936Z</time></trkpt><trkpt lat="44.937595" lon="9.5909483"><ele>141.0</ele><time>2026-04-11T14:43:28.937Z</time></trkpt><trkpt lat="44.9377767" lon="9.5909317"><ele>137.0</ele><time>2026-04-11T14:43:29.94Z</time></trkpt><trkpt lat="44.9379567" lon="9.5909133"><ele>133.0</ele><time>2026-04-11T14:43:30.937Z</time></trkpt><trkpt lat="44.9381383" lon="9.5908917"><ele>129.0</ele><time>2026-04-11T14:43:31.936Z</time></trkpt><trkpt lat="44.9383183" lon="9.5908717"><ele>127.66666666666666</ele><time>2026-04-11T14:43:32.937Z</time></trkpt><trkpt lat="44.9384983" lon="9.5908533"><ele>126.33333333333333</ele><time>2026-04-11T14:43:33.937Z</time></trkpt><trkpt lat="44.9386783" lon="9.5908317"><ele>125.0</ele><time>2026-04-11T14:43:34.944Z</time></trkpt><trkpt lat="44.9388583" lon="9.5908083"><ele>125.0</ele><time>2026-04-11T14:43:35.938Z</time></trkpt><trkpt lat="44.9390367" lon="9.590785"><ele>125.0</ele><time>2026-04-11T14:43:36.937Z</time></trkpt><trkpt lat="44.9392133" lon="9.59076"><ele>125.0</ele><time>2026-04-11T14:43:37.936Z</time></trkpt><trkpt lat="44.939385" lon="9.5907367"><ele>125.0</ele><time>2026-04-11T14:43:38.937Z</time></trkpt><trkpt lat="44.9395567" lon="9.5907183"><ele>125.0</ele><time>2026-04-11T14:43:39.936Z</time></trkpt><trkpt lat="44.93973" lon="9.5906983"><ele>125.0</ele><time>2026-04-11T14:43:40.936Z</time></trkpt><trkpt lat="44.9399083" lon="9.5906717"><ele>125.0</ele><time>2026-04-11T14:43:41.937Z</time></trkpt><trkpt lat="44.9400833" lon="9.590645"><ele>125.0</ele><time>2026-04-11T14:43:42.937Z</time></trkpt><trkpt lat="44.9402567" lon="9.5906167"><ele>125.0</ele><time>2026-04-11T14:43:43.936Z</time></trkpt><trkpt lat="44.9404333" lon="9.590595"><ele>125.0</ele><time>2026-04-11T14:43:44.937Z</time></trkpt><trkpt lat="44.9406083" lon="9.5905783"><ele>125.0</ele><time>2026-04-11T14:43:45.941Z</time></trkpt><trkpt lat="44.940785" lon="9.59056"><ele>125.0</ele><time>2026-04-11T14:43:46.936Z</time></trkpt><trkpt lat="44.9409567" lon="9.59053"><ele>123.66666666666666</ele><time>2026-04-11T14:43:47.937Z</time></trkpt><trkpt lat="44.941125" lon="9.5904817"><ele>122.33333333333334</ele><time>2026-04-11T14:43:48.937Z</time></trkpt><trkpt lat="44.9412933" lon="9.59042"><ele>121.0</ele><time>2026-04-11T14:43:49.936Z</time></trkpt><trkpt lat="44.9414617" lon="9.5903433"><ele>124.0</ele><time>2026-04-11T14:43:50.942Z</time></trkpt><trkpt lat="44.941625" lon="9.5902667"><ele>127.0</ele><time>2026-04-11T14:43:51.937Z</time></trkpt><trkpt lat="44.9417867" lon="9.5901817"><ele>130.0</ele><time>2026-04-11T14:43:52.937Z</time></trkpt><trkpt lat="44.9419367" lon="9.590105"><ele>130.0</ele><time>2026-04-11T14:43:53.938Z</time></trkpt><trkpt lat="44.9420767" lon="9.590035"><ele>130.0</ele><time>2026-04-11T14:43:54.938Z</time></trkpt><trkpt lat="44.9422117" lon="9.589965"><ele>130.0</ele><time>2026-04-11T14:43:55.937Z</time></trkpt><trkpt lat="44.9423517" lon="9.5898967"><ele>130.0</ele><time>2026-04-11T14:43:56.944Z</time></trkpt><trkpt lat="44.9424933" lon="9.58983"><ele>128.75</ele><time>2026-04-11T14:43:57.939Z</time></trkpt><trkpt lat="44.9426333" lon="9.589765"><ele>127.5</ele><time>2026-04-11T14:43:58.939Z</time></trkpt><trkpt lat="44.9427733" lon="9.5897"><ele>126.25</ele><time>2026-04-11T14:43:59.936Z</time></trkpt><trkpt lat="44.9429167" lon="9.5896317"><ele>125.0</ele><time>2026-04-11T14:44:00.938Z</time></trkpt><trkpt lat="44.9430583" lon="9.5895633"><ele>129.0</ele><time>2026-04-11T14:44:01.94Z</time></trkpt><trkpt lat="44.9432017" lon="9.589495"><ele>133.0</ele><time>2026-04-11T14:44:02.938Z</time></trkpt><trkpt lat="44.9433467" lon="9.5894367"><ele>137.0</ele><time>2026-04-11T14:44:03.937Z</time></trkpt><trkpt lat="44.9434917" lon="9.5893883"><ele>137.0</ele><time>2026-04-11T14:44:04.94Z</time></trkpt><trkpt lat="44.943645" lon="9.5893467"><ele>137.0</ele><time>2026-04-11T14:44:05.937Z</time></trkpt><trkpt lat="44.9438067" lon="9.5893067"><ele>137.0</ele><time>2026-04-11T14:44:06.936Z</time></trkpt><trkpt lat="44.943975" lon="9.5892767"><ele>137.0</ele><time>2026-04-11T14:44:07.936Z</time></trkpt><trkpt lat="44.9441417" lon="9.589255"><ele>137.0</ele><time>2026-04-11T14:44:08.938Z</time></trkpt><trkpt lat="44.9443033" lon="9.5892383"><ele>137.0</ele><time>2026-04-11T14:44:09.936Z</time></trkpt><trkpt lat="44.9444667" lon="9.5892183"><ele>136.33333333333331</ele><time>2026-04-11T14:44:10.937Z</time></trkpt><trkpt lat="44.94463" lon="9.5891983"><ele>135.66666666666666</ele><time>2026-04-11T14:44:11.937Z</time></trkpt><trkpt lat="44.9447917" lon="9.589185"><ele>135.0</ele><time>2026-04-11T14:44:12.936Z</time></trkpt><trkpt lat="44.9449517" lon="9.58918"><ele>135.0</ele><time>2026-04-11T14:44:13.938Z</time></trkpt><trkpt lat="44.9451133" lon="9.58917"><ele>135.0</ele><time>2026-04-11T14:44:14.938Z</time></trkpt><trkpt lat="44.945275" lon="9.58916"><ele>135.0</ele><time>2026-04-11T14:44:15.938Z</time></trkpt><trkpt lat="44.94544" lon="9.5891467"><ele>135.0</ele><time>2026-04-11T14:44:16.937Z</time></trkpt><trkpt lat="44.9456067" lon="9.589135"><ele>135.0</ele><time>2026-04-11T14:44:17.937Z</time></trkpt><trkpt lat="44.945775" lon="9.5891267"><ele>135.0</ele><time>2026-04-11T14:44:18.937Z</time></trkpt><trkpt lat="44.9459433" lon="9.58912"><ele>134.66666666666666</ele><time>2026-04-11T14:44:19.937Z</time></trkpt><trkpt lat="44.9461117" lon="9.5891117"><ele>134.33333333333331</ele><time>2026-04-11T14:44:20.937Z</time></trkpt><trkpt lat="44.94628" lon="9.5891117"><ele>134.0</ele><time>2026-04-11T14:44:21.937Z</time></trkpt><trkpt lat="44.94645" lon="9.5891317"><ele>134.0</ele><time>2026-04-11T14:44:22.936Z</time></trkpt><trkpt lat="44.946615" lon="9.5891767"><ele>134.0</ele><time>2026-04-11T14:44:23.937Z</time></trkpt><trkpt lat="44.9467783" lon="9.5892383"><ele>134.0</ele><time>2026-04-11T14:44:24.936Z</time></trkpt><trkpt lat="44.94694" lon="9.5893117"><ele>133.33333333333331</ele><time>2026-04-11T14:44:25.939Z</time></trkpt><trkpt lat="44.947105" lon="9.5893883"><ele>132.66666666666666</ele><time>2026-04-11T14:44:26.938Z</time></trkpt><trkpt lat="44.94727" lon="9.5894633"><ele>132.0</ele><time>2026-04-11T14:44:27.936Z</time></trkpt><trkpt lat="44.947435" lon="9.589535"><ele>131.0</ele><time>2026-04-11T14:44:28.937Z</time></trkpt><trkpt lat="44.9475967" lon="9.5896083"><ele>130.0</ele><time>2026-04-11T14:44:29.937Z</time></trkpt><trkpt lat="44.9477617" lon="9.589685"><ele>129.0</ele><time>2026-04-11T14:44:30.937Z</time></trkpt><trkpt lat="44.9479267" lon="9.5897633"><ele>129.0</ele><time>2026-04-11T14:44:31.941Z</time></trkpt><trkpt lat="44.9480933" lon="9.5898433"><ele>129.0</ele><time>2026-04-11T14:44:32.937Z</time></trkpt><trkpt lat="44.9482583" lon="9.5899217"><ele>129.0</ele><time>2026-04-11T14:44:33.939Z</time></trkpt><trkpt lat="44.9484167" lon="9.5899917"><ele>130.33333333333334</ele><time>2026-04-11T14:44:34.937Z</time></trkpt><trkpt lat="44.9485717" lon="9.5900533"><ele>131.66666666666669</ele><time>2026-04-11T14:44:35.938Z</time></trkpt><trkpt lat="44.94873" lon="9.5900883"><ele>133.0</ele><time>2026-04-11T14:44:36.948Z</time></trkpt><trkpt lat="44.9488983" lon="9.5900867"><ele>133.0</ele><time>2026-04-11T14:44:37.937Z</time></trkpt><trkpt lat="44.9490667" lon="9.590055"><ele>133.0</ele><time>2026-04-11T14:44:38.938Z</time></trkpt><trkpt lat="44.9492317" lon="9.589995"><ele>133.0</ele><time>2026-04-11T14:44:39.938Z</time></trkpt><trkpt lat="44.9493917" lon="9.5899033"><ele>133.33333333333334</ele><time>2026-04-11T14:44:40.937Z</time></trkpt><trkpt lat="44.9495467" lon="9.5897917"><ele>133.66666666666666</ele><time>2026-04-11T14:44:41.937Z</time></trkpt><trkpt lat="44.9497" lon="9.5896767"><ele>134.0</ele><time>2026-04-11T14:44:42.937Z</time></trkpt><trkpt lat="44.949855" lon="9.58956"><ele>134.0</ele><time>2026-04-11T14:44:43.937Z</time></trkpt><trkpt lat="44.95001" lon="9.5894433"><ele>134.0</ele><time>2026-04-11T14:44:44.938Z</time></trkpt><trkpt lat="44.9501667" lon="9.5893317"><ele>134.0</ele><time>2026-04-11T14:44:45.937Z</time></trkpt><trkpt lat="44.9503233" lon="9.5892167"><ele>133.0</ele><time>2026-04-11T14:44:46.938Z</time></trkpt><trkpt lat="44.9504783" lon="9.5891033"><ele>132.0</ele><time>2026-04-11T14:44:47.94Z</time></trkpt><trkpt lat="44.9506317" lon="9.58898"><ele>131.0</ele><time>2026-04-11T14:44:48.937Z</time></trkpt><trkpt lat="44.95078" lon="9.58885"><ele>131.33333333333331</ele><time>2026-04-11T14:44:49.941Z</time></trkpt><trkpt lat="44.9509233" lon="9.58871"><ele>131.66666666666666</ele><time>2026-04-11T14:44:50.937Z</time></trkpt><trkpt lat="44.9510533" lon="9.5885667"><ele>132.0</ele><time>2026-04-11T14:44:51.937Z</time></trkpt><trkpt lat="44.9511817" lon="9.5884267"><ele>132.33333333333334</ele><time>2026-04-11T14:44:52.938Z</time></trkpt><trkpt lat="44.9513083" lon="9.5882917"><ele>132.66666666666669</ele><time>2026-04-11T14:44:53.938Z</time></trkpt><trkpt lat="44.9514317" lon="9.588155"><ele>133.0</ele><time>2026-04-11T14:44:54.942Z</time></trkpt><trkpt lat="44.951555" lon="9.5880117"><ele>133.0</ele><time>2026-04-11T14:44:55.937Z</time></trkpt><trkpt lat="44.9516783" lon="9.587865"><ele>133.0</ele><time>2026-04-11T14:44:56.937Z</time></trkpt><trkpt lat="44.95181" lon="9.5877317"><ele>133.0</ele><time>2026-04-11T14:44:57.937Z</time></trkpt><trkpt lat="44.9519567" lon="9.5876267"><ele>133.33333333333334</ele><time>2026-04-11T14:44:58.938Z</time></trkpt><trkpt lat="44.9521117" lon="9.5875433"><ele>133.66666666666666</ele><time>2026-04-11T14:44:59.939Z</time></trkpt><trkpt lat="44.95227" lon="9.587455"><ele>134.0</ele><time>2026-04-11T14:45:00.938Z</time></trkpt><trkpt lat="44.952425" lon="9.5873683"><ele>132.66666666666666</ele><time>2026-04-11T14:45:01.938Z</time></trkpt><trkpt lat="44.9525817" lon="9.5872733"><ele>131.33333333333334</ele><time>2026-04-11T14:45:02.938Z</time></trkpt><trkpt lat="44.95274" lon="9.5871817"><ele>130.0</ele><time>2026-04-11T14:45:03.937Z</time></trkpt><trkpt lat="44.952905" lon="9.5871033"><ele>130.0</ele><time>2026-04-11T14:45:04.938Z</time></trkpt><trkpt lat="44.9530733" lon="9.5870533"><ele>130.0</ele><time>2026-04-11T14:45:05.937Z</time></trkpt><trkpt lat="44.9532433" lon="9.5870383"><ele>130.0</ele><time>2026-04-11T14:45:06.937Z</time></trkpt><trkpt lat="44.953415" lon="9.5870583"><ele>130.0</ele><time>2026-04-11T14:45:07.943Z</time></trkpt><trkpt lat="44.953585" lon="9.5871083"><ele>130.0</ele><time>2026-04-11T14:45:08.937Z</time></trkpt><trkpt lat="44.9537533" lon="9.58717"><ele>130.0</ele><time>2026-04-11T14:45:09.937Z</time></trkpt><trkpt lat="44.95392" lon="9.5872417"><ele>130.0</ele><time>2026-04-11T14:45:10.937Z</time></trkpt><trkpt lat="44.9540867" lon="9.5873183"><ele>130.0</ele><time>2026-04-11T14:45:11.937Z</time></trkpt><trkpt lat="44.9542533" lon="9.5873933"><ele>130.0</ele><time>2026-04-11T14:45:12.937Z</time></trkpt><trkpt lat="44.9544217" lon="9.5874633"><ele>130.0</ele><time>2026-04-11T14:45:13.938Z</time></trkpt><trkpt lat="44.95459" lon="9.5875367"><ele>130.0</ele><time>2026-04-11T14:45:14.944Z</time></trkpt><trkpt lat="44.9547583" lon="9.5876067"><ele>130.0</ele><time>2026-04-11T14:45:15.938Z</time></trkpt><trkpt lat="44.9549267" lon="9.587675"><ele>129.33333333333334</ele><time>2026-04-11T14:45:16.938Z</time></trkpt><trkpt lat="44.955095" lon="9.5877283"><ele>128.66666666666666</ele><time>2026-04-11T14:45:17.937Z</time></trkpt><trkpt lat="44.9552633" lon="9.587755"><ele>128.0</ele><time>2026-04-11T14:45:18.938Z</time></trkpt><trkpt lat="44.9554367" lon="9.58775"><ele>128.0</ele><time>2026-04-11T14:45:19.94Z</time></trkpt><trkpt lat="44.95561" lon="9.5877167"><ele>128.0</ele><time>2026-04-11T14:45:20.938Z</time></trkpt><trkpt lat="44.9557833" lon="9.5876733"><ele>128.0</ele><time>2026-04-11T14:45:21.936Z</time></trkpt><trkpt lat="44.9559583" lon="9.58763"><ele>128.0</ele><time>2026-04-11T14:45:22.937Z</time></trkpt><trkpt lat="44.9561333" lon="9.58759"><ele>128.0</ele><time>2026-04-11T14:45:23.937Z</time></trkpt><trkpt lat="44.9563117" lon="9.5875417"><ele>128.0</ele><time>2026-04-11T14:45:24.938Z</time></trkpt><trkpt lat="44.9564883" lon="9.5874933"><ele>128.0</ele><time>2026-04-11T14:45:25.942Z</time></trkpt><trkpt lat="44.9566633" lon="9.5874667"><ele>128.0</ele><time>2026-04-11T14:45:26.938Z</time></trkpt><trkpt lat="44.95684" lon="9.5874767"><ele>128.0</ele><time>2026-04-11T14:45:27.937Z</time></trkpt><trkpt lat="44.957015" lon="9.5875117"><ele>127.33333333333333</ele><time>2026-04-11T14:45:28.937Z</time></trkpt><trkpt lat="44.9571867" lon="9.587555"><ele>126.66666666666666</ele><time>2026-04-11T14:45:29.939Z</time></trkpt><trkpt lat="44.95736" lon="9.5875983"><ele>126.0</ele><time>2026-04-11T14:45:30.938Z</time></trkpt><trkpt lat="44.957535" lon="9.5876433"><ele>126.0</ele><time>2026-04-11T14:45:31.938Z</time></trkpt><trkpt lat="44.9577117" lon="9.5876883"><ele>126.0</ele><time>2026-04-11T14:45:32.938Z</time></trkpt><trkpt lat="44.95789" lon="9.5877317"><ele>126.0</ele><time>2026-04-11T14:45:33.938Z</time></trkpt><trkpt lat="44.9580683" lon="9.5877567"><ele>126.0</ele><time>2026-04-11T14:45:34.942Z</time></trkpt><trkpt lat="44.958245" lon="9.587745"><ele>126.0</ele><time>2026-04-11T14:45:35.938Z</time></trkpt><trkpt lat="44.9584183" lon="9.5877017"><ele>126.0</ele><time>2026-04-11T14:45:36.937Z</time></trkpt><trkpt lat="44.9585883" lon="9.5876417"><ele>125.33333333333334</ele><time>2026-04-11T14:45:37.939Z</time></trkpt><trkpt lat="44.9587567" lon="9.5875733"><ele>124.66666666666667</ele><time>2026-04-11T14:45:38.938Z</time></trkpt><trkpt lat="44.958925" lon="9.587505"><ele>124.0</ele><time>2026-04-11T14:45:39.944Z</time></trkpt><trkpt lat="44.959095" lon="9.5874367"><ele>123.66666666666667</ele><time>2026-04-11T14:45:40.937Z</time></trkpt><trkpt lat="44.9592633" lon="9.58737"><ele>123.33333333333334</ele><time>2026-04-11T14:45:41.938Z</time></trkpt><trkpt lat="44.9594367" lon="9.5873017"><ele>123.0</ele><time>2026-04-11T14:45:42.937Z</time></trkpt><trkpt lat="44.959605" lon="9.5872333"><ele>123.0</ele><time>2026-04-11T14:45:43.938Z</time></trkpt><trkpt lat="44.9597683" lon="9.5871683"><ele>123.0</ele><time>2026-04-11T14:45:44.938Z</time></trkpt><trkpt lat="44.9599283" lon="9.5871117"><ele>123.0</ele><time>2026-04-11T14:45:45.937Z</time></trkpt><trkpt lat="44.9600917" lon="9.58706"><ele>122.33333333333334</ele><time>2026-04-11T14:45:46.937Z</time></trkpt><trkpt lat="44.9602583" lon="9.5870133"><ele>121.66666666666667</ele><time>2026-04-11T14:45:47.937Z</time></trkpt><trkpt lat="44.9604283" lon="9.5869633"><ele>121.0</ele><time>2026-04-11T14:45:48.937Z</time></trkpt><trkpt lat="44.9605983" lon="9.58691"><ele>121.0</ele><time>2026-04-11T14:45:49.938Z</time></trkpt><trkpt lat="44.9607683" lon="9.5868533"><ele>121.0</ele><time>2026-04-11T14:45:50.938Z</time></trkpt><trkpt lat="44.960935" lon="9.5868"><ele>121.0</ele><time>2026-04-11T14:45:51.938Z</time></trkpt><trkpt lat="44.9611033" lon="9.58675"><ele>121.33333333333334</ele><time>2026-04-11T14:45:52.938Z</time></trkpt><trkpt lat="44.96127" lon="9.5867033"><ele>121.66666666666666</ele><time>2026-04-11T14:45:53.938Z</time></trkpt><trkpt lat="44.9614383" lon="9.5866567"><ele>122.0</ele><time>2026-04-11T14:45:54.944Z</time></trkpt><trkpt lat="44.961605" lon="9.5866117"><ele>121.33333333333333</ele><time>2026-04-11T14:45:55.937Z</time></trkpt><trkpt lat="44.9617717" lon="9.5865633"><ele>120.66666666666666</ele><time>2026-04-11T14:45:56.939Z</time></trkpt><trkpt lat="44.9619333" lon="9.5865167"><ele>120.0</ele><time>2026-04-11T14:45:57.938Z</time></trkpt><trkpt lat="44.962095" lon="9.5864683"><ele>120.0</ele><time>2026-04-11T14:45:58.938Z</time></trkpt><trkpt lat="44.962255" lon="9.5864233"><ele>120.0</ele><time>2026-04-11T14:45:59.937Z</time></trkpt><trkpt lat="44.9624117" lon="9.5863817"><ele>120.0</ele><time>2026-04-11T14:46:00.944Z</time></trkpt><trkpt lat="44.962565" lon="9.586335"><ele>118.66666666666666</ele><time>2026-04-11T14:46:01.937Z</time></trkpt><trkpt lat="44.9627183" lon="9.5862883"><ele>117.33333333333333</ele><time>2026-04-11T14:46:02.939Z</time></trkpt><trkpt lat="44.962875" lon="9.5862383"><ele>116.0</ele><time>2026-04-11T14:46:03.939Z</time></trkpt><trkpt lat="44.963035" lon="9.5861883"><ele>115.66666666666666</ele><time>2026-04-11T14:46:04.937Z</time></trkpt><trkpt lat="44.9631933" lon="9.58614"><ele>115.33333333333334</ele><time>2026-04-11T14:46:05.945Z</time></trkpt><trkpt lat="44.963345" lon="9.586095"><ele>115.0</ele><time>2026-04-11T14:46:06.937Z</time></trkpt><trkpt lat="44.96349" lon="9.5860533"><ele>115.0</ele><time>2026-04-11T14:46:07.938Z</time></trkpt><trkpt lat="44.96363" lon="9.5860117"><ele>115.0</ele><time>2026-04-11T14:46:08.937Z</time></trkpt><trkpt lat="44.963765" lon="9.58597"><ele>115.0</ele><time>2026-04-11T14:46:09.937Z</time></trkpt><trkpt lat="44.9638933" lon="9.5859283"><ele>115.0</ele><time>2026-04-11T14:46:10.941Z</time></trkpt><trkpt lat="44.9640167" lon="9.5858883"><ele>115.0</ele><time>2026-04-11T14:46:11.937Z</time></trkpt><trkpt lat="44.964135" lon="9.5858517"><ele>115.0</ele><time>2026-04-11T14:46:12.944Z</time></trkpt><trkpt lat="44.9642433" lon="9.58583"><ele>115.0</ele><time>2026-04-11T14:46:13.939Z</time></trkpt><trkpt lat="44.9643367" lon="9.58584"><ele>115.0</ele><time>2026-04-11T14:46:14.938Z</time></trkpt><trkpt lat="44.9644133" lon="9.5858933"><ele>115.0</ele><time>2026-04-11T14:46:15.94Z</time></trkpt><trkpt lat="44.964465" lon="9.5860117"><ele>114.25</ele><time>2026-04-11T14:46:16.938Z</time></trkpt><trkpt lat="44.9644883" lon="9.5861783"><ele>113.5</ele><time>2026-04-11T14:46:17.937Z</time></trkpt><trkpt lat="44.9644883" lon="9.5863683"><ele>112.75</ele><time>2026-04-11T14:46:18.937Z</time></trkpt><trkpt lat="44.9644683" lon="9.5865783"><ele>112.0</ele><time>2026-04-11T14:46:19.938Z</time></trkpt><trkpt lat="44.96445" lon="9.586785"><ele>112.0</ele><time>2026-04-11T14:46:20.937Z</time></trkpt><trkpt lat="44.9644367" lon="9.5869883"><ele>112.0</ele><time>2026-04-11T14:46:21.938Z</time></trkpt><trkpt lat="44.964425" lon="9.58719"><ele>112.0</ele><time>2026-04-11T14:46:22.938Z</time></trkpt><trkpt lat="44.9644117" lon="9.5873883"><ele>112.0</ele><time>2026-04-11T14:46:23.938Z</time></trkpt><trkpt lat="44.9644" lon="9.5875917"><ele>110.66666666666667</ele><time>2026-04-11T14:46:24.938Z</time></trkpt><trkpt lat="44.9643867" lon="9.5878017"><ele>109.33333333333334</ele><time>2026-04-11T14:46:25.937Z</time></trkpt><trkpt lat="44.964375" lon="9.5880233"><ele>108.0</ele><time>2026-04-11T14:46:26.939Z</time></trkpt><trkpt lat="44.9643617" lon="9.5882383"><ele>107.33333333333334</ele><time>2026-04-11T14:46:27.938Z</time></trkpt><trkpt lat="44.964345" lon="9.5884533"><ele>106.66666666666667</ele><time>2026-04-11T14:46:28.939Z</time></trkpt><trkpt lat="44.9643283" lon="9.588675"><ele>106.0</ele><time>2026-04-11T14:46:29.939Z</time></trkpt><trkpt lat="44.9643117" lon="9.5889017"><ele>105.33333333333334</ele><time>2026-04-11T14:46:30.938Z</time></trkpt><trkpt lat="44.9642967" lon="9.58913"><ele>104.66666666666666</ele><time>2026-04-11T14:46:31.941Z</time></trkpt><trkpt lat="44.9642833" lon="9.5893583"><ele>104.0</ele><time>2026-04-11T14:46:32.937Z</time></trkpt><trkpt lat="44.9642667" lon="9.589585"><ele>103.33333333333333</ele><time>2026-04-11T14:46:33.939Z</time></trkpt><trkpt lat="44.96425" lon="9.5898133"><ele>102.66666666666666</ele><time>2026-04-11T14:46:34.937Z</time></trkpt><trkpt lat="44.9642333" lon="9.5900383"><ele>102.0</ele><time>2026-04-11T14:46:35.939Z</time></trkpt><trkpt lat="44.9642183" lon="9.5902617"><ele>102.0</ele><time>2026-04-11T14:46:36.937Z</time></trkpt><trkpt lat="44.9642033" lon="9.590485"><ele>102.0</ele><time>2026-04-11T14:46:37.938Z</time></trkpt><trkpt lat="44.9641883" lon="9.5907083"><ele>102.0</ele><time>2026-04-11T14:46:38.939Z</time></trkpt><trkpt lat="44.9641733" lon="9.59093"><ele>102.0</ele><time>2026-04-11T14:46:39.937Z</time></trkpt><trkpt lat="44.9641583" lon="9.59115"><ele>102.0</ele><time>2026-04-11T14:46:40.937Z</time></trkpt><trkpt lat="44.9641433" lon="9.5913717"><ele>102.0</ele><time>2026-04-11T14:46:41.938Z</time></trkpt><trkpt lat="44.9641283" lon="9.5915917"><ele>101.66666666666666</ele><time>2026-04-11T14:46:42.942Z</time></trkpt><trkpt lat="44.964115" lon="9.5918167"><ele>101.33333333333333</ele><time>2026-04-11T14:46:43.942Z</time></trkpt><trkpt lat="44.9641017" lon="9.5920433"><ele>101.0</ele><time>2026-04-11T14:46:44.94Z</time></trkpt><trkpt lat="44.9640867" lon="9.5922667"><ele>101.0</ele><time>2026-04-11T14:46:45.937Z</time></trkpt><trkpt lat="44.9640717" lon="9.592495"><ele>101.0</ele><time>2026-04-11T14:46:46.94Z</time></trkpt><trkpt lat="44.9640633" lon="9.5927333"><ele>101.0</ele><time>2026-04-11T14:46:47.938Z</time></trkpt><trkpt lat="44.96405" lon="9.5929633"><ele>101.0</ele><time>2026-04-11T14:46:48.937Z</time></trkpt><trkpt lat="44.9640367" lon="9.5931917"><ele>101.0</ele><time>2026-04-11T14:46:49.944Z</time></trkpt><trkpt lat="44.9640233" lon="9.5934183"><ele>101.0</ele><time>2026-04-11T14:46:50.939Z</time></trkpt><trkpt lat="44.9640083" lon="9.5936417"><ele>100.66666666666666</ele><time>2026-04-11T14:46:51.937Z</time></trkpt><trkpt lat="44.9639967" lon="9.593865"><ele>100.33333333333334</ele><time>2026-04-11T14:46:52.937Z</time></trkpt><trkpt lat="44.9639833" lon="9.5940867"><ele>100.0</ele><time>2026-04-11T14:46:53.938Z</time></trkpt><trkpt lat="44.96397" lon="9.5943"><ele>100.0</ele><time>2026-04-11T14:46:54.938Z</time></trkpt><trkpt lat="44.9639567" lon="9.5945"><ele>100.0</ele><time>2026-04-11T14:46:55.938Z</time></trkpt><trkpt lat="44.9639417" lon="9.5946817"><ele>100.0</ele><time>2026-04-11T14:46:56.938Z</time></trkpt><trkpt lat="44.9639267" lon="9.5948583"><ele>100.0</ele><time>2026-04-11T14:46:57.947Z</time></trkpt><trkpt lat="44.9639117" lon="9.5950483"><ele>100.0</ele><time>2026-04-11T14:46:58.938Z</time></trkpt><trkpt lat="44.9639" lon="9.5952433"><ele>100.0</ele><time>2026-04-11T14:46:59.938Z</time></trkpt><trkpt lat="44.9638883" lon="9.59544"><ele>100.0</ele><time>2026-04-11T14:47:00.937Z</time></trkpt><trkpt lat="44.9638767" lon="9.5956367"><ele>100.0</ele><time>2026-04-11T14:47:01.937Z</time></trkpt><trkpt lat="44.9638633" lon="9.5958317"><ele>100.0</ele><time>2026-04-11T14:47:02.939Z</time></trkpt><trkpt lat="44.96385" lon="9.5960283"><ele>100.0</ele><time>2026-04-11T14:47:03.937Z</time></trkpt><trkpt lat="44.9638367" lon="9.5962267"><ele>100.0</ele><time>2026-04-11T14:47:04.941Z</time></trkpt><trkpt lat="44.9638233" lon="9.59643"><ele>100.0</ele><time>2026-04-11T14:47:05.937Z</time></trkpt><trkpt lat="44.9638083" lon="9.5966333"><ele>100.25</ele><time>2026-04-11T14:47:06.938Z</time></trkpt><trkpt lat="44.963795" lon="9.596835"><ele>100.5</ele><time>2026-04-11T14:47:07.937Z</time></trkpt><trkpt lat="44.9637817" lon="9.5970317"><ele>100.75</ele><time>2026-04-11T14:47:08.938Z</time></trkpt><trkpt lat="44.9637683" lon="9.5972183"><ele>101.0</ele><time>2026-04-11T14:47:09.937Z</time></trkpt><trkpt lat="44.963755" lon="9.5974067"><ele>101.0</ele><time>2026-04-11T14:47:10.938Z</time></trkpt><trkpt lat="44.9637417" lon="9.5976"><ele>101.0</ele><time>2026-04-11T14:47:11.937Z</time></trkpt><trkpt lat="44.96373" lon="9.597795"><ele>101.0</ele><time>2026-04-11T14:47:12.94Z</time></trkpt><trkpt lat="44.9637183" lon="9.59799"><ele>101.0</ele><time>2026-04-11T14:47:13.938Z</time></trkpt><trkpt lat="44.9637067" lon="9.5981833"><ele>101.5</ele><time>2026-04-11T14:47:14.939Z</time></trkpt><trkpt lat="44.963695" lon="9.59838"><ele>102.0</ele><time>2026-04-11T14:47:15.938Z</time></trkpt><trkpt lat="44.963685" lon="9.598575"><ele>102.5</ele><time>2026-04-11T14:47:16.938Z</time></trkpt><trkpt lat="44.9636733" lon="9.5987783"><ele>103.0</ele><time>2026-04-11T14:47:17.938Z</time></trkpt><trkpt lat="44.9636617" lon="9.5989833"><ele>103.25</ele><time>2026-04-11T14:47:18.938Z</time></trkpt><trkpt lat="44.9636467" lon="9.5991817"><ele>103.5</ele><time>2026-04-11T14:47:19.938Z</time></trkpt><trkpt lat="44.96363" lon="9.59938"><ele>103.75</ele><time>2026-04-11T14:47:20.943Z</time></trkpt><trkpt lat="44.9636183" lon="9.59958"><ele>104.0</ele><time>2026-04-11T14:47:21.939Z</time></trkpt><trkpt lat="44.9636067" lon="9.5997783"><ele>104.0</ele><time>2026-04-11T14:47:22.94Z</time></trkpt><trkpt lat="44.963595" lon="9.5999767"><ele>104.0</ele><time>2026-04-11T14:47:23.938Z</time></trkpt><trkpt lat="44.9635833" lon="9.6001733"><ele>104.0</ele><time>2026-04-11T14:47:24.937Z</time></trkpt><trkpt lat="44.963575" lon="9.6003633"><ele>104.0</ele><time>2026-04-11T14:47:25.946Z</time></trkpt><trkpt lat="44.9635667" lon="9.60054"><ele>104.0</ele><time>2026-04-11T14:47:26.94Z</time></trkpt><trkpt lat="44.9635583" lon="9.6007067"><ele>104.0</ele><time>2026-04-11T14:47:27.938Z</time></trkpt><trkpt lat="44.963555" lon="9.6008733"><ele>104.0</ele><time>2026-04-11T14:47:28.938Z</time></trkpt><trkpt lat="44.963555" lon="9.6010383"><ele>104.0</ele><time>2026-04-11T14:47:29.937Z</time></trkpt><trkpt lat="44.9635617" lon="9.6012083"><ele>103.75</ele><time>2026-04-11T14:47:30.942Z</time></trkpt><trkpt lat="44.9635733" lon="9.6013767"><ele>103.5</ele><time>2026-04-11T14:47:31.937Z</time></trkpt><trkpt lat="44.96359" lon="9.6015467"><ele>103.25</ele><time>2026-04-11T14:47:32.938Z</time></trkpt><trkpt lat="44.9636133" lon="9.60172"><ele>103.0</ele><time>2026-04-11T14:47:33.938Z</time></trkpt><trkpt lat="44.9636417" lon="9.6018967"><ele>103.5</ele><time>2026-04-11T14:47:34.938Z</time></trkpt><trkpt lat="44.9636833" lon="9.6020683"><ele>104.0</ele><time>2026-04-11T14:47:35.937Z</time></trkpt><trkpt lat="44.9637367" lon="9.6022383"><ele>104.5</ele><time>2026-04-11T14:47:36.941Z</time></trkpt><trkpt lat="44.9637967" lon="9.6024033"><ele>105.0</ele><time>2026-04-11T14:47:37.937Z</time></trkpt><trkpt lat="44.9638633" lon="9.602565"><ele>105.0</ele><time>2026-04-11T14:47:38.937Z</time></trkpt><trkpt lat="44.9639383" lon="9.6027183"><ele>105.0</ele><time>2026-04-11T14:47:39.936Z</time></trkpt><trkpt lat="44.964025" lon="9.6028683"><ele>105.0</ele><time>2026-04-11T14:47:40.937Z</time></trkpt><trkpt lat="44.9641183" lon="9.6030067"><ele>105.0</ele><time>2026-04-11T14:47:41.937Z</time></trkpt><trkpt lat="44.9642167" lon="9.603135"><ele>105.0</ele><time>2026-04-11T14:47:42.936Z</time></trkpt><trkpt lat="44.9643217" lon="9.6032517"><ele>105.0</ele><time>2026-04-11T14:47:43.938Z</time></trkpt><trkpt lat="44.964435" lon="9.60336"><ele>105.0</ele><time>2026-04-11T14:47:44.946Z</time></trkpt><trkpt lat="44.964555" lon="9.6034567"><ele>105.0</ele><time>2026-04-11T14:47:45.939Z</time></trkpt><trkpt lat="44.9646817" lon="9.6035383"><ele>105.0</ele><time>2026-04-11T14:47:46.938Z</time></trkpt><trkpt lat="44.96481" lon="9.6036"><ele>105.0</ele><time>2026-04-11T14:47:47.938Z</time></trkpt><trkpt lat="44.9649433" lon="9.6036567"><ele>105.0</ele><time>2026-04-11T14:47:48.938Z</time></trkpt><trkpt lat="44.96508" lon="9.6037033"><ele>105.0</ele><time>2026-04-11T14:47:49.944Z</time></trkpt><trkpt lat="44.9652217" lon="9.6037317"><ele>105.0</ele><time>2026-04-11T14:47:50.938Z</time></trkpt><trkpt lat="44.9653667" lon="9.6037483"><ele>105.0</ele><time>2026-04-11T14:47:51.938Z</time></trkpt><trkpt lat="44.9655133" lon="9.6037533"><ele>105.0</ele><time>2026-04-11T14:47:52.937Z</time></trkpt><trkpt lat="44.9656633" lon="9.6037483"><ele>105.0</ele><time>2026-04-11T14:47:53.938Z</time></trkpt><trkpt lat="44.9658117" lon="9.6037333"><ele>104.66666666666666</ele><time>2026-04-11T14:47:54.937Z</time></trkpt><trkpt lat="44.9659633" lon="9.6037133"><ele>104.33333333333333</ele><time>2026-04-11T14:47:55.938Z</time></trkpt><trkpt lat="44.9661183" lon="9.6036967"><ele>104.0</ele><time>2026-04-11T14:47:56.94Z</time></trkpt><trkpt lat="44.9662767" lon="9.603675"><ele>104.33333333333333</ele><time>2026-04-11T14:47:57.938Z</time></trkpt><trkpt lat="44.9664383" lon="9.603655"><ele>104.66666666666666</ele><time>2026-04-11T14:47:58.938Z</time></trkpt><trkpt lat="44.9666017" lon="9.60363"><ele>105.0</ele><time>2026-04-11T14:47:59.938Z</time></trkpt><trkpt lat="44.9667667" lon="9.60361"><ele>105.0</ele><time>2026-04-11T14:48:00.942Z</time></trkpt><trkpt lat="44.9669333" lon="9.6035933"><ele>105.0</ele><time>2026-04-11T14:48:01.939Z</time></trkpt><trkpt lat="44.9671" lon="9.6035867"><ele>105.0</ele><time>2026-04-11T14:48:02.938Z</time></trkpt><trkpt lat="44.967265" lon="9.6035917"><ele>105.0</ele><time>2026-04-11T14:48:03.938Z</time></trkpt><trkpt lat="44.9674333" lon="9.603605"><ele>105.0</ele><time>2026-04-11T14:48:04.939Z</time></trkpt><trkpt lat="44.9676017" lon="9.6036283"><ele>105.0</ele><time>2026-04-11T14:48:05.938Z</time></trkpt><trkpt lat="44.9677733" lon="9.6036583"><ele>104.66666666666666</ele><time>2026-04-11T14:48:06.938Z</time></trkpt><trkpt lat="44.9679433" lon="9.6037"><ele>104.33333333333333</ele><time>2026-04-11T14:48:07.944Z</time></trkpt><trkpt lat="44.9681117" lon="9.6037517"><ele>104.0</ele><time>2026-04-11T14:48:08.938Z</time></trkpt><trkpt lat="44.96828" lon="9.6038133"><ele>104.66666666666666</ele><time>2026-04-11T14:48:09.938Z</time></trkpt><trkpt lat="44.968445" lon="9.6038917"><ele>105.33333333333334</ele><time>2026-04-11T14:48:10.937Z</time></trkpt><trkpt lat="44.968605" lon="9.60398"><ele>106.0</ele><time>2026-04-11T14:48:11.938Z</time></trkpt><trkpt lat="44.968755" lon="9.6040717"><ele>106.0</ele><time>2026-04-11T14:48:12.937Z</time></trkpt><trkpt lat="44.9688983" lon="9.6041683"><ele>106.0</ele><time>2026-04-11T14:48:13.937Z</time></trkpt><trkpt lat="44.9690333" lon="9.6042717"><ele>106.0</ele><time>2026-04-11T14:48:14.941Z</time></trkpt><trkpt lat="44.9691633" lon="9.6043833"><ele>105.33333333333334</ele><time>2026-04-11T14:48:15.937Z</time></trkpt><trkpt lat="44.9692883" lon="9.6045033"><ele>104.66666666666666</ele><time>2026-04-11T14:48:16.94Z</time></trkpt><trkpt lat="44.9694083" lon="9.60463"><ele>104.0</ele><time>2026-04-11T14:48:17.938Z</time></trkpt><trkpt lat="44.9695267" lon="9.6047617"><ele>104.0</ele><time>2026-04-11T14:48:18.937Z</time></trkpt><trkpt lat="44.9696433" lon="9.6048983"><ele>104.0</ele><time>2026-04-11T14:48:19.937Z</time></trkpt><trkpt lat="44.9697517" lon="9.605035"><ele>104.0</ele><time>2026-04-11T14:48:20.939Z</time></trkpt><trkpt lat="44.96985" lon="9.6051667"><ele>104.0</ele><time>2026-04-11T14:48:21.94Z</time></trkpt><trkpt lat="44.96994" lon="9.605295"><ele>103.6</ele><time>2026-04-11T14:48:22.938Z</time></trkpt><trkpt lat="44.9700167" lon="9.60542"><ele>103.2</ele><time>2026-04-11T14:48:23.939Z</time></trkpt><trkpt lat="44.97008" lon="9.6055317"><ele>102.8</ele><time>2026-04-11T14:48:24.943Z</time></trkpt><trkpt lat="44.9701317" lon="9.6056283"><ele>102.39999999999999</ele><time>2026-04-11T14:48:25.94Z</time></trkpt><trkpt lat="44.9701717" lon="9.605705"><ele>102.0</ele><time>2026-04-11T14:48:26.938Z</time></trkpt><trkpt lat="44.97024" lon="9.60582"><ele>101.75</ele><time>2026-04-11T14:48:28.938Z</time></trkpt><trkpt lat="44.9703683" lon="9.605845"><ele>101.5</ele><time>2026-04-11T14:48:30.937Z</time></trkpt><trkpt lat="44.970455" lon="9.6058033"><ele>101.25</ele><time>2026-04-11T14:48:31.939Z</time></trkpt><trkpt lat="44.9705517" lon="9.6057167"><ele>101.0</ele><time>2026-04-11T14:48:32.938Z</time></trkpt><trkpt lat="44.9706583" lon="9.60562"><ele>101.0</ele><time>2026-04-11T14:48:33.937Z</time></trkpt><trkpt lat="44.9707767" lon="9.60554"><ele>101.0</ele><time>2026-04-11T14:48:34.938Z</time></trkpt><trkpt lat="44.9709133" lon="9.605475"><ele>101.0</ele><time>2026-04-11T14:48:35.937Z</time></trkpt><trkpt lat="44.9710667" lon="9.60543"><ele>101.0</ele><time>2026-04-11T14:48:36.937Z</time></trkpt><trkpt lat="44.971225" lon="9.6054133"><ele>101.33333333333333</ele><time>2026-04-11T14:48:37.937Z</time></trkpt><trkpt lat="44.9713867" lon="9.60543"><ele>101.66666666666666</ele><time>2026-04-11T14:48:38.938Z</time></trkpt><trkpt lat="44.9715533" lon="9.6054617"><ele>102.0</ele><time>2026-04-11T14:48:39.939Z</time></trkpt><trkpt lat="44.97172" lon="9.6054917"><ele>101.0</ele><time>2026-04-11T14:48:40.938Z</time></trkpt><trkpt lat="44.9718883" lon="9.6055217"><ele>100.0</ele><time>2026-04-11T14:48:41.937Z</time></trkpt><trkpt lat="44.9720567" lon="9.6055483"><ele>99.0</ele><time>2026-04-11T14:48:42.939Z</time></trkpt><trkpt lat="44.972225" lon="9.605575"><ele>99.0</ele><time>2026-04-11T14:48:43.938Z</time></trkpt><trkpt lat="44.9723933" lon="9.6056083"><ele>99.0</ele><time>2026-04-11T14:48:44.944Z</time></trkpt><trkpt lat="44.9725583" lon="9.6056467"><ele>99.0</ele><time>2026-04-11T14:48:45.937Z</time></trkpt><trkpt lat="44.972715" lon="9.6056817"><ele>99.33333333333334</ele><time>2026-04-11T14:48:46.938Z</time></trkpt><trkpt lat="44.9728683" lon="9.6057017"><ele>99.66666666666667</ele><time>2026-04-11T14:48:47.94Z</time></trkpt><trkpt lat="44.9730183" lon="9.6057133"><ele>100.0</ele><time>2026-04-11T14:48:48.94Z</time></trkpt><trkpt lat="44.9731733" lon="9.6057167"><ele>100.0</ele><time>2026-04-11T14:48:49.946Z</time></trkpt><trkpt lat="44.9733317" lon="9.6057183"><ele>100.0</ele><time>2026-04-11T14:48:50.941Z</time></trkpt><trkpt lat="44.9734883" lon="9.60572"><ele>100.0</ele><time>2026-04-11T14:48:51.938Z</time></trkpt><trkpt lat="44.9736483" lon="9.6057267"><ele>100.33333333333334</ele><time>2026-04-11T14:48:52.94Z</time></trkpt><trkpt lat="44.9738083" lon="9.6057317"><ele>100.66666666666666</ele><time>2026-04-11T14:48:53.938Z</time></trkpt><trkpt lat="44.9739717" lon="9.6057367"><ele>101.0</ele><time>2026-04-11T14:48:54.944Z</time></trkpt><trkpt lat="44.9741367" lon="9.6057417"><ele>101.0</ele><time>2026-04-11T14:48:55.938Z</time></trkpt><trkpt lat="44.9743017" lon="9.6057467"><ele>101.0</ele><time>2026-04-11T14:48:56.938Z</time></trkpt><trkpt lat="44.9744633" lon="9.605755"><ele>101.0</ele><time>2026-04-11T14:48:57.938Z</time></trkpt><trkpt lat="44.9746217" lon="9.605765"><ele>101.0</ele><time>2026-04-11T14:48:58.938Z</time></trkpt><trkpt lat="44.9747817" lon="9.6057783"><ele>101.0</ele><time>2026-04-11T14:48:59.939Z</time></trkpt><trkpt lat="44.9749417" lon="9.605795"><ele>101.0</ele><time>2026-04-11T14:49:00.938Z</time></trkpt><trkpt lat="44.9751017" lon="9.6058233"><ele>99.66666666666666</ele><time>2026-04-11T14:49:01.938Z</time></trkpt><trkpt lat="44.9752583" lon="9.6058617"><ele>98.33333333333334</ele><time>2026-04-11T14:49:02.938Z</time></trkpt><trkpt lat="44.9754183" lon="9.6059067"><ele>97.0</ele><time>2026-04-11T14:49:03.938Z</time></trkpt><trkpt lat="44.97558" lon="9.6059483"><ele>97.0</ele><time>2026-04-11T14:49:04.937Z</time></trkpt><trkpt lat="44.975745" lon="9.6059867"><ele>97.0</ele><time>2026-04-11T14:49:05.939Z</time></trkpt><trkpt lat="44.9759033" lon="9.6060233"><ele>97.0</ele><time>2026-04-11T14:49:06.938Z</time></trkpt><trkpt lat="44.9760583" lon="9.6060583"><ele>97.0</ele><time>2026-04-11T14:49:07.94Z</time></trkpt><trkpt lat="44.9762167" lon="9.606095"><ele>97.0</ele><time>2026-04-11T14:49:08.939Z</time></trkpt><trkpt lat="44.9763783" lon="9.6061317"><ele>97.0</ele><time>2026-04-11T14:49:09.939Z</time></trkpt><trkpt lat="44.9765417" lon="9.60617"><ele>97.33333333333334</ele><time>2026-04-11T14:49:10.937Z</time></trkpt><trkpt lat="44.9767033" lon="9.6062117"><ele>97.66666666666666</ele><time>2026-04-11T14:49:11.938Z</time></trkpt><trkpt lat="44.976865" lon="9.6062517"><ele>98.0</ele><time>2026-04-11T14:49:12.943Z</time></trkpt><trkpt lat="44.9770233" lon="9.60629"><ele>98.0</ele><time>2026-04-11T14:49:13.937Z</time></trkpt><trkpt lat="44.97718" lon="9.6063283"><ele>98.0</ele><time>2026-04-11T14:49:14.939Z</time></trkpt><trkpt lat="44.977335" lon="9.6063667"><ele>98.0</ele><time>2026-04-11T14:49:15.937Z</time></trkpt><trkpt lat="44.9774867" lon="9.6064017"><ele>98.33333333333333</ele><time>2026-04-11T14:49:16.938Z</time></trkpt><trkpt lat="44.97764" lon="9.6064383"><ele>98.66666666666666</ele><time>2026-04-11T14:49:17.938Z</time></trkpt><trkpt lat="44.9777983" lon="9.606475"><ele>99.0</ele><time>2026-04-11T14:49:18.943Z</time></trkpt><trkpt lat="44.97796" lon="9.6065117"><ele>99.0</ele><time>2026-04-11T14:49:19.938Z</time></trkpt><trkpt lat="44.9781217" lon="9.60655"><ele>99.0</ele><time>2026-04-11T14:49:20.938Z</time></trkpt><trkpt lat="44.978285" lon="9.606595"><ele>99.0</ele><time>2026-04-11T14:49:21.938Z</time></trkpt><trkpt lat="44.9784517" lon="9.6066367"><ele>97.66666666666667</ele><time>2026-04-11T14:49:22.938Z</time></trkpt><trkpt lat="44.97862" lon="9.606675"><ele>96.33333333333334</ele><time>2026-04-11T14:49:23.944Z</time></trkpt><trkpt lat="44.9787867" lon="9.6067117"><ele>95.0</ele><time>2026-04-11T14:49:24.94Z</time></trkpt><trkpt lat="44.978945" lon="9.6067467"><ele>95.0</ele><time>2026-04-11T14:49:25.938Z</time></trkpt><trkpt lat="44.979095" lon="9.6067833"><ele>95.0</ele><time>2026-04-11T14:49:26.938Z</time></trkpt><trkpt lat="44.979245" lon="9.6068233"><ele>95.0</ele><time>2026-04-11T14:49:27.937Z</time></trkpt><trkpt lat="44.9793967" lon="9.6068633"><ele>95.66666666666667</ele><time>2026-04-11T14:49:28.938Z</time></trkpt><trkpt lat="44.9795517" lon="9.6069033"><ele>96.33333333333334</ele><time>2026-04-11T14:49:29.938Z</time></trkpt><trkpt lat="44.97971" lon="9.6069417"><ele>97.0</ele><time>2026-04-11T14:49:30.937Z</time></trkpt><trkpt lat="44.9798733" lon="9.6069767"><ele>96.0</ele><time>2026-04-11T14:49:31.938Z</time></trkpt><trkpt lat="44.98004" lon="9.6070067"><ele>95.0</ele><time>2026-04-11T14:49:32.947Z</time></trkpt><trkpt lat="44.9802067" lon="9.60703"><ele>94.0</ele><time>2026-04-11T14:49:33.937Z</time></trkpt><trkpt lat="44.98037" lon="9.6070433"><ele>94.0</ele><time>2026-04-11T14:49:34.937Z</time></trkpt><trkpt lat="44.9805333" lon="9.6070517"><ele>94.0</ele><time>2026-04-11T14:49:35.937Z</time></trkpt><trkpt lat="44.9807" lon="9.6070533"><ele>94.0</ele><time>2026-04-11T14:49:36.938Z</time></trkpt><trkpt lat="44.980865" lon="9.6070533"><ele>94.0</ele><time>2026-04-11T14:49:37.937Z</time></trkpt><trkpt lat="44.98103" lon="9.6070533"><ele>94.0</ele><time>2026-04-11T14:49:38.942Z</time></trkpt><trkpt lat="44.9811933" lon="9.6070517"><ele>94.0</ele><time>2026-04-11T14:49:39.937Z</time></trkpt><trkpt lat="44.9813567" lon="9.6070483"><ele>94.0</ele><time>2026-04-11T14:49:40.937Z</time></trkpt><trkpt lat="44.98152" lon="9.607045"><ele>94.0</ele><time>2026-04-11T14:49:41.937Z</time></trkpt><trkpt lat="44.981685" lon="9.6070417"><ele>94.0</ele><time>2026-04-11T14:49:42.938Z</time></trkpt><trkpt lat="44.981845" lon="9.60704"><ele>94.33333333333333</ele><time>2026-04-11T14:49:43.937Z</time></trkpt><trkpt lat="44.9820067" lon="9.6070333"><ele>94.66666666666667</ele><time>2026-04-11T14:49:44.939Z</time></trkpt><trkpt lat="44.98217" lon="9.607025"><ele>95.0</ele><time>2026-04-11T14:49:45.938Z</time></trkpt><trkpt lat="44.9823317" lon="9.6070217"><ele>95.0</ele><time>2026-04-11T14:49:46.936Z</time></trkpt><trkpt lat="44.9824917" lon="9.6070217"><ele>95.0</ele><time>2026-04-11T14:49:47.937Z</time></trkpt><trkpt lat="44.9826517" lon="9.60702"><ele>95.0</ele><time>2026-04-11T14:49:48.937Z</time></trkpt><trkpt lat="44.9828133" lon="9.6070133"><ele>94.66666666666667</ele><time>2026-04-11T14:49:49.937Z</time></trkpt><trkpt lat="44.982975" lon="9.607005"><ele>94.33333333333333</ele><time>2026-04-11T14:49:50.937Z</time></trkpt><trkpt lat="44.9831383" lon="9.6069983"><ele>94.0</ele><time>2026-04-11T14:49:51.937Z</time></trkpt><trkpt lat="44.9833033" lon="9.606995"><ele>94.33333333333333</ele><time>2026-04-11T14:49:52.936Z</time></trkpt><trkpt lat="44.983465" lon="9.6069867"><ele>94.66666666666667</ele><time>2026-04-11T14:49:53.937Z</time></trkpt><trkpt lat="44.9836233" lon="9.6069833"><ele>95.0</ele><time>2026-04-11T14:49:54.937Z</time></trkpt><trkpt lat="44.9837833" lon="9.60698"><ele>95.0</ele><time>2026-04-11T14:49:55.936Z</time></trkpt><trkpt lat="44.98394" lon="9.6069767"><ele>95.0</ele><time>2026-04-11T14:49:56.939Z</time></trkpt><trkpt lat="44.9840983" lon="9.6069717"><ele>95.0</ele><time>2026-04-11T14:49:57.937Z</time></trkpt><trkpt lat="44.9842617" lon="9.6069683"><ele>94.66666666666667</ele><time>2026-04-11T14:49:58.939Z</time></trkpt><trkpt lat="44.9844267" lon="9.606965"><ele>94.33333333333333</ele><time>2026-04-11T14:49:59.936Z</time></trkpt><trkpt lat="44.984595" lon="9.6069667"><ele>94.0</ele><time>2026-04-11T14:50:00.938Z</time></trkpt><trkpt lat="44.9847633" lon="9.60697"><ele>94.0</ele><time>2026-04-11T14:50:01.942Z</time></trkpt><trkpt lat="44.9849283" lon="9.6069783"><ele>94.0</ele><time>2026-04-11T14:50:02.937Z</time></trkpt><trkpt lat="44.9850933" lon="9.6069933"><ele>94.0</ele><time>2026-04-11T14:50:03.937Z</time></trkpt><trkpt lat="44.98526" lon="9.607015"><ele>93.66666666666666</ele><time>2026-04-11T14:50:04.938Z</time></trkpt><trkpt lat="44.9854267" lon="9.6070417"><ele>93.33333333333333</ele><time>2026-04-11T14:50:05.936Z</time></trkpt><trkpt lat="44.9855967" lon="9.607075"><ele>93.0</ele><time>2026-04-11T14:50:06.939Z</time></trkpt><trkpt lat="44.9857667" lon="9.60712"><ele>93.33333333333333</ele><time>2026-04-11T14:50:07.937Z</time></trkpt><trkpt lat="44.9859333" lon="9.60718"><ele>93.66666666666666</ele><time>2026-04-11T14:50:08.937Z</time></trkpt><trkpt lat="44.9860967" lon="9.60725"><ele>94.0</ele><time>2026-04-11T14:50:09.936Z</time></trkpt><trkpt lat="44.98626" lon="9.6073183"><ele>94.0</ele><time>2026-04-11T14:50:10.937Z</time></trkpt><trkpt lat="44.9864233" lon="9.6073883"><ele>94.0</ele><time>2026-04-11T14:50:11.936Z</time></trkpt><trkpt lat="44.9865883" lon="9.6074567"><ele>94.0</ele><time>2026-04-11T14:50:12.936Z</time></trkpt><trkpt lat="44.9867533" lon="9.6075283"><ele>93.66666666666666</ele><time>2026-04-11T14:50:13.936Z</time></trkpt><trkpt lat="44.9869183" lon="9.60761"><ele>93.33333333333333</ele><time>2026-04-11T14:50:14.936Z</time></trkpt><trkpt lat="44.9870783" lon="9.6077083"><ele>93.0</ele><time>2026-04-11T14:50:15.937Z</time></trkpt><trkpt lat="44.9872367" lon="9.6078133"><ele>92.66666666666667</ele><time>2026-04-11T14:50:16.938Z</time></trkpt><trkpt lat="44.9873983" lon="9.6079267"><ele>92.33333333333334</ele><time>2026-04-11T14:50:17.938Z</time></trkpt><trkpt lat="44.9875567" lon="9.608045"><ele>92.0</ele><time>2026-04-11T14:50:18.937Z</time></trkpt><trkpt lat="44.9877117" lon="9.6081667"><ele>92.66666666666667</ele><time>2026-04-11T14:50:19.937Z</time></trkpt><trkpt lat="44.987865" lon="9.6082933"><ele>93.33333333333333</ele><time>2026-04-11T14:50:20.938Z</time></trkpt><trkpt lat="44.988015" lon="9.6084217"><ele>94.0</ele><time>2026-04-11T14:50:21.937Z</time></trkpt><trkpt lat="44.9881617" lon="9.6085483"><ele>93.33333333333333</ele><time>2026-04-11T14:50:22.937Z</time></trkpt><trkpt lat="44.98831" lon="9.6086883"><ele>92.66666666666667</ele><time>2026-04-11T14:50:23.936Z</time></trkpt><trkpt lat="44.9884617" lon="9.6088283"><ele>92.0</ele><time>2026-04-11T14:50:24.937Z</time></trkpt><trkpt lat="44.9886117" lon="9.6089633"><ele>91.66666666666667</ele><time>2026-04-11T14:50:25.94Z</time></trkpt><trkpt lat="44.98876" lon="9.6090983"><ele>91.33333333333333</ele><time>2026-04-11T14:50:26.939Z</time></trkpt><trkpt lat="44.9889067" lon="9.6092317"><ele>91.0</ele><time>2026-04-11T14:50:27.942Z</time></trkpt><trkpt lat="44.989055" lon="9.609365"><ele>91.0</ele><time>2026-04-11T14:50:28.937Z</time></trkpt><trkpt lat="44.9892017" lon="9.6094967"><ele>91.0</ele><time>2026-04-11T14:50:29.937Z</time></trkpt><trkpt lat="44.9893483" lon="9.60963"><ele>91.0</ele><time>2026-04-11T14:50:30.936Z</time></trkpt><trkpt lat="44.9894917" lon="9.60976"><ele>91.0</ele><time>2026-04-11T14:50:31.936Z</time></trkpt><trkpt lat="44.9896333" lon="9.6098917"><ele>91.0</ele><time>2026-04-11T14:50:32.938Z</time></trkpt><trkpt lat="44.9897767" lon="9.610025"><ele>91.0</ele><time>2026-04-11T14:50:33.937Z</time></trkpt><trkpt lat="44.98992" lon="9.6101533"><ele>90.66666666666666</ele><time>2026-04-11T14:50:34.936Z</time></trkpt><trkpt lat="44.9900683" lon="9.610285"><ele>90.33333333333333</ele><time>2026-04-11T14:50:35.937Z</time></trkpt><trkpt lat="44.9902133" lon="9.6104117"><ele>90.0</ele><time>2026-04-11T14:50:36.944Z</time></trkpt><trkpt lat="44.99035" lon="9.6105383"><ele>90.66666666666667</ele><time>2026-04-11T14:50:37.936Z</time></trkpt><trkpt lat="44.990485" lon="9.6106667"><ele>91.33333333333334</ele><time>2026-04-11T14:50:38.937Z</time></trkpt><trkpt lat="44.9906233" lon="9.6107883"><ele>92.0</ele><time>2026-04-11T14:50:39.938Z</time></trkpt><trkpt lat="44.990765" lon="9.6109117"><ele>91.66666666666667</ele><time>2026-04-11T14:50:40.936Z</time></trkpt><trkpt lat="44.9909067" lon="9.6110333"><ele>91.33333333333333</ele><time>2026-04-11T14:50:41.937Z</time></trkpt><trkpt lat="44.9910517" lon="9.611155"><ele>91.0</ele><time>2026-04-11T14:50:42.937Z</time></trkpt><trkpt lat="44.9911983" lon="9.6112833"><ele>91.66666666666666</ele><time>2026-04-11T14:50:43.937Z</time></trkpt><trkpt lat="44.9913417" lon="9.6114067"><ele>92.33333333333333</ele><time>2026-04-11T14:50:44.944Z</time></trkpt><trkpt lat="44.991485" lon="9.6115317"><ele>93.0</ele><time>2026-04-11T14:50:45.937Z</time></trkpt><trkpt lat="44.99163" lon="9.6116583"><ele>92.0</ele><time>2026-04-11T14:50:46.937Z</time></trkpt><trkpt lat="44.991775" lon="9.611785"><ele>91.0</ele><time>2026-04-11T14:50:47.936Z</time></trkpt><trkpt lat="44.9919233" lon="9.6119133"><ele>90.0</ele><time>2026-04-11T14:50:48.939Z</time></trkpt><trkpt lat="44.99207" lon="9.6120367"><ele>90.0</ele><time>2026-04-11T14:50:49.937Z</time></trkpt><trkpt lat="44.9922117" lon="9.612155"><ele>90.0</ele><time>2026-04-11T14:50:50.937Z</time></trkpt><trkpt lat="44.9923517" lon="9.6122783"><ele>90.0</ele><time>2026-04-11T14:50:51.942Z</time></trkpt><trkpt lat="44.992495" lon="9.612405"><ele>90.33333333333333</ele><time>2026-04-11T14:50:52.938Z</time></trkpt><trkpt lat="44.99264" lon="9.6125317"><ele>90.66666666666666</ele><time>2026-04-11T14:50:53.938Z</time></trkpt><trkpt lat="44.99278" lon="9.6126567"><ele>91.0</ele><time>2026-04-11T14:50:54.938Z</time></trkpt><trkpt lat="44.9929133" lon="9.612775"><ele>91.33333333333333</ele><time>2026-04-11T14:50:55.938Z</time></trkpt><trkpt lat="44.9930433" lon="9.6128917"><ele>91.66666666666667</ele><time>2026-04-11T14:50:56.939Z</time></trkpt><trkpt lat="44.9931733" lon="9.6130067"><ele>92.0</ele><time>2026-04-11T14:50:57.937Z</time></trkpt><trkpt lat="44.9933033" lon="9.61312"><ele>91.0</ele><time>2026-04-11T14:50:58.937Z</time></trkpt><trkpt lat="44.99343" lon="9.61323"><ele>90.0</ele><time>2026-04-11T14:50:59.937Z</time></trkpt><trkpt lat="44.9935517" lon="9.61334"><ele>89.0</ele><time>2026-04-11T14:51:00.938Z</time></trkpt><trkpt lat="44.9936683" lon="9.613445"><ele>88.0</ele><time>2026-04-11T14:51:01.937Z</time></trkpt><trkpt lat="44.9937783" lon="9.6135467"><ele>88.0</ele><time>2026-04-11T14:51:02.938Z</time></trkpt><trkpt lat="44.99388" lon="9.6136483"><ele>88.0</ele><time>2026-04-11T14:51:03.937Z</time></trkpt><trkpt lat="44.9939767" lon="9.613745"><ele>88.0</ele><time>2026-04-11T14:51:04.937Z</time></trkpt><trkpt lat="44.994065" lon="9.6138433"><ele>88.0</ele><time>2026-04-11T14:51:05.937Z</time></trkpt><trkpt lat="44.9941417" lon="9.6139333"><ele>87.83333333333333</ele><time>2026-04-11T14:51:06.937Z</time></trkpt><trkpt lat="44.9942083" lon="9.61402"><ele>87.66666666666666</ele><time>2026-04-11T14:51:07.938Z</time></trkpt><trkpt lat="44.9942633" lon="9.6140983"><ele>87.5</ele><time>2026-04-11T14:51:08.938Z</time></trkpt><trkpt lat="44.9943" lon="9.6141733"><ele>87.33333333333333</ele><time>2026-04-11T14:51:09.943Z</time></trkpt><trkpt lat="44.9943267" lon="9.61432"><ele>87.16666666666667</ele><time>2026-04-11T14:51:11.937Z</time></trkpt><trkpt lat="44.9943117" lon="9.614425"><ele>87.0</ele><time>2026-04-11T14:51:13.937Z</time></trkpt><trkpt lat="44.9942817" lon="9.6145133"><ele>86.85714285714286</ele><time>2026-04-11T14:51:15.941Z</time></trkpt><trkpt lat="44.9942517" lon="9.6145933"><ele>86.71428571428572</ele><time>2026-04-11T14:51:17.939Z</time></trkpt><trkpt lat="44.9942267" lon="9.6146867"><ele>86.57142857142858</ele><time>2026-04-11T14:51:20.939Z</time></trkpt><trkpt lat="44.9942417" lon="9.6147983"><ele>86.42857142857143</ele><time>2026-04-11T14:51:23.939Z</time></trkpt><trkpt lat="44.994315" lon="9.6148333"><ele>86.28571428571429</ele><time>2026-04-11T14:51:26.938Z</time></trkpt><trkpt lat="44.9943567" lon="9.6147617"><ele>86.14285714285715</ele><time>2026-04-11T14:52:16.937Z</time></trkpt><trkpt lat="44.9942933" lon="9.6147433"><ele>86.0</ele><time>2026-04-11T14:52:30.938Z</time></trkpt><trkpt lat="44.9942317" lon="9.6147867"><ele>86.0</ele><time>2026-04-11T14:52:33.937Z</time></trkpt><trkpt lat="44.9942367" lon="9.6148783"><ele>86.0</ele><time>2026-04-11T14:52:35.937Z</time></trkpt><trkpt lat="44.9943267" lon="9.61493"><ele>86.0</ele><time>2026-04-11T14:53:22.938Z</time></trkpt><trkpt lat="44.9943533" lon="9.6148383"><ele>86.0</ele><time>2026-04-11T14:53:24.94Z</time></trkpt><trkpt lat="44.9943867" lon="9.6147617"><ele>86.0</ele><time>2026-04-11T14:53:25.938Z</time></trkpt><trkpt lat="44.9944833" lon="9.61464"><ele>86.0</ele><time>2026-04-11T14:53:27.937Z</time></trkpt><trkpt lat="44.9945733" lon="9.6145883"><ele>86.0</ele><time>2026-04-11T14:53:28.938Z</time></trkpt><trkpt lat="44.994675" lon="9.6145867"><ele>86.0</ele><time>2026-04-11T14:53:29.938Z</time></trkpt><trkpt lat="44.9947883" lon="9.614635"><ele>86.0</ele><time>2026-04-11T14:53:30.939Z</time></trkpt><trkpt lat="44.9949083" lon="9.614725"><ele>86.0</ele><time>2026-04-11T14:53:31.938Z</time></trkpt><trkpt lat="44.9950283" lon="9.614835"><ele>86.66666666666667</ele><time>2026-04-11T14:53:32.939Z</time></trkpt><trkpt lat="44.995155" lon="9.6149617"><ele>87.33333333333333</ele><time>2026-04-11T14:53:33.937Z</time></trkpt><trkpt lat="44.99529" lon="9.615095"><ele>88.0</ele><time>2026-04-11T14:53:34.937Z</time></trkpt><trkpt lat="44.9954267" lon="9.615225"><ele>88.25</ele><time>2026-04-11T14:53:35.938Z</time></trkpt><trkpt lat="44.9955533" lon="9.6153517"><ele>88.5</ele><time>2026-04-11T14:53:36.938Z</time></trkpt><trkpt lat="44.995665" lon="9.6154633"><ele>88.75</ele><time>2026-04-11T14:53:37.944Z</time></trkpt><trkpt lat="44.9957683" lon="9.6155433"><ele>89.0</ele><time>2026-04-11T14:53:38.937Z</time></trkpt><trkpt lat="44.9958517" lon="9.6155517"><ele>89.0</ele><time>2026-04-11T14:53:39.939Z</time></trkpt><trkpt lat="44.99593" lon="9.6155133"><ele>89.0</ele><time>2026-04-11T14:53:40.937Z</time></trkpt><trkpt lat="44.9960067" lon="9.6154"><ele>89.0</ele><time>2026-04-11T14:53:41.937Z</time></trkpt><trkpt lat="44.996085" lon="9.6152517"><ele>89.0</ele><time>2026-04-11T14:53:42.938Z</time></trkpt><trkpt lat="44.996175" lon="9.615095"><ele>89.0</ele><time>2026-04-11T14:53:43.938Z</time></trkpt><trkpt lat="44.9962733" lon="9.6149383"><ele>89.0</ele><time>2026-04-11T14:53:44.938Z</time></trkpt><trkpt lat="44.9963717" lon="9.61479"><ele>89.0</ele><time>2026-04-11T14:53:45.943Z</time></trkpt><trkpt lat="44.99647" lon="9.614645"><ele>89.0</ele><time>2026-04-11T14:53:46.937Z</time></trkpt><trkpt lat="44.996565" lon="9.614505"><ele>89.0</ele><time>2026-04-11T14:53:47.941Z</time></trkpt><trkpt lat="44.9966583" lon="9.6143717"><ele>89.0</ele><time>2026-04-11T14:53:48.939Z</time></trkpt><trkpt lat="44.9967517" lon="9.614245"><ele>89.0</ele><time>2026-04-11T14:53:49.938Z</time></trkpt><trkpt lat="44.9968433" lon="9.6141233"><ele>89.0</ele><time>2026-04-11T14:53:50.939Z</time></trkpt><trkpt lat="44.996925" lon="9.6140067"><ele>89.0</ele><time>2026-04-11T14:53:51.938Z</time></trkpt><trkpt lat="44.997005" lon="9.6138933"><ele>89.0</ele><time>2026-04-11T14:53:52.944Z</time></trkpt><trkpt lat="44.99708" lon="9.6137783"><ele>89.0</ele><time>2026-04-11T14:53:53.942Z</time></trkpt><trkpt lat="44.9971583" lon="9.613665"><ele>89.0</ele><time>2026-04-11T14:53:54.938Z</time></trkpt><trkpt lat="44.99724" lon="9.6135517"><ele>89.0</ele><time>2026-04-11T14:53:55.938Z</time></trkpt><trkpt lat="44.9973217" lon="9.61344"><ele>89.0</ele><time>2026-04-11T14:53:56.938Z</time></trkpt><trkpt lat="44.9974117" lon="9.613325"><ele>89.0</ele><time>2026-04-11T14:53:57.937Z</time></trkpt><trkpt lat="44.9975033" lon="9.613215"><ele>89.0</ele><time>2026-04-11T14:53:58.938Z</time></trkpt><trkpt lat="44.9976033" lon="9.61312"><ele>88.75</ele><time>2026-04-11T14:53:59.938Z</time></trkpt><trkpt lat="44.9977133" lon="9.6130483"><ele>88.5</ele><time>2026-04-11T14:54:00.942Z</time></trkpt><trkpt lat="44.997835" lon="9.613"><ele>88.25</ele><time>2026-04-11T14:54:01.937Z</time></trkpt><trkpt lat="44.9979617" lon="9.6129767"><ele>88.0</ele><time>2026-04-11T14:54:02.938Z</time></trkpt><trkpt lat="44.9980917" lon="9.6129767"><ele>88.0</ele><time>2026-04-11T14:54:03.939Z</time></trkpt><trkpt lat="44.9982217" lon="9.613"><ele>88.0</ele><time>2026-04-11T14:54:04.939Z</time></trkpt><trkpt lat="44.99835" lon="9.6130433"><ele>88.0</ele><time>2026-04-11T14:54:05.937Z</time></trkpt><trkpt lat="44.998475" lon="9.6131033"><ele>88.0</ele><time>2026-04-11T14:54:06.938Z</time></trkpt><trkpt lat="44.9985917" lon="9.6131667"><ele>88.0</ele><time>2026-04-11T14:54:07.938Z</time></trkpt><trkpt lat="44.9987033" lon="9.6132317"><ele>88.0</ele><time>2026-04-11T14:54:08.938Z</time></trkpt><trkpt lat="44.9988183" lon="9.6133"><ele>88.0</ele><time>2026-04-11T14:54:09.938Z</time></trkpt><trkpt lat="44.9989333" lon="9.6133633"><ele>88.0</ele><time>2026-04-11T14:54:10.937Z</time></trkpt><trkpt lat="44.99904" lon="9.613425"><ele>88.0</ele><time>2026-04-11T14:54:11.938Z</time></trkpt><trkpt lat="44.999145" lon="9.6134833"><ele>88.0</ele><time>2026-04-11T14:54:12.939Z</time></trkpt><trkpt lat="44.9992467" lon="9.6135433"><ele>88.0</ele><time>2026-04-11T14:54:13.938Z</time></trkpt><trkpt lat="44.9993567" lon="9.6135917"><ele>88.0</ele><time>2026-04-11T14:54:14.942Z</time></trkpt><trkpt lat="44.999465" lon="9.6136333"><ele>88.0</ele><time>2026-04-11T14:54:15.939Z</time></trkpt><trkpt lat="44.9995833" lon="9.6136917"><ele>88.0</ele><time>2026-04-11T14:54:16.938Z</time></trkpt><trkpt lat="44.9997" lon="9.613735"><ele>88.0</ele><time>2026-04-11T14:54:17.939Z</time></trkpt><trkpt lat="44.9998083" lon="9.6137717"><ele>88.0</ele><time>2026-04-11T14:54:18.938Z</time></trkpt><trkpt lat="44.9999167" lon="9.6137883"><ele>88.0</ele><time>2026-04-11T14:54:19.938Z</time></trkpt><trkpt lat="45.00003" lon="9.613765"><ele>88.0</ele><time>2026-04-11T14:54:20.938Z</time></trkpt><trkpt lat="45.0001417" lon="9.6137083"><ele>88.0</ele><time>2026-04-11T14:54:21.941Z</time></trkpt><trkpt lat="45.000265" lon="9.6136433"><ele>88.0</ele><time>2026-04-11T14:54:22.938Z</time></trkpt><trkpt lat="45.0004017" lon="9.6135867"><ele>87.75</ele><time>2026-04-11T14:54:23.937Z</time></trkpt><trkpt lat="45.0005367" lon="9.613555"><ele>87.5</ele><time>2026-04-11T14:54:24.939Z</time></trkpt><trkpt lat="45.00067" lon="9.6135417"><ele>87.25</ele><time>2026-04-11T14:54:25.938Z</time></trkpt><trkpt lat="45.0008033" lon="9.6135383"><ele>87.0</ele><time>2026-04-11T14:54:26.938Z</time></trkpt><trkpt lat="45.0009433" lon="9.613535"><ele>86.75</ele><time>2026-04-11T14:54:27.938Z</time></trkpt><trkpt lat="45.00108" lon="9.6135417"><ele>86.5</ele><time>2026-04-11T14:54:28.943Z</time></trkpt><trkpt lat="45.0012117" lon="9.613555"><ele>86.25</ele><time>2026-04-11T14:54:29.937Z</time></trkpt><trkpt lat="45.0013433" lon="9.6135717"><ele>86.0</ele><time>2026-04-11T14:54:30.938Z</time></trkpt><trkpt lat="45.001475" lon="9.61359"><ele>86.0</ele><time>2026-04-11T14:54:31.937Z</time></trkpt><trkpt lat="45.0016033" lon="9.6136133"><ele>86.0</ele><time>2026-04-11T14:54:32.938Z</time></trkpt><trkpt lat="45.001735" lon="9.61364"><ele>86.0</ele><time>2026-04-11T14:54:33.938Z</time></trkpt><trkpt lat="45.0018667" lon="9.613685"><ele>86.0</ele><time>2026-04-11T14:54:34.942Z</time></trkpt><trkpt lat="45.0019933" lon="9.613735"><ele>86.0</ele><time>2026-04-11T14:54:35.937Z</time></trkpt><trkpt lat="45.00212" lon="9.6137917"><ele>86.0</ele><time>2026-04-11T14:54:36.938Z</time></trkpt><trkpt lat="45.0022483" lon="9.6138483"><ele>86.0</ele><time>2026-04-11T14:54:37.938Z</time></trkpt><trkpt lat="45.0023833" lon="9.6138983"><ele>86.0</ele><time>2026-04-11T14:54:38.938Z</time></trkpt><trkpt lat="45.00252" lon="9.6139467"><ele>85.75</ele><time>2026-04-11T14:54:39.938Z</time></trkpt><trkpt lat="45.0026533" lon="9.613995"><ele>85.5</ele><time>2026-04-11T14:54:40.942Z</time></trkpt><trkpt lat="45.0027817" lon="9.614035"><ele>85.25</ele><time>2026-04-11T14:54:41.937Z</time></trkpt><trkpt lat="45.002905" lon="9.61407"><ele>85.0</ele><time>2026-04-11T14:54:42.938Z</time></trkpt><trkpt lat="45.0030317" lon="9.6141"><ele>85.0</ele><time>2026-04-11T14:54:43.937Z</time></trkpt><trkpt lat="45.0031583" lon="9.614115"><ele>85.0</ele><time>2026-04-11T14:54:44.938Z</time></trkpt><trkpt lat="45.00329" lon="9.6141183"><ele>85.0</ele><time>2026-04-11T14:54:45.938Z</time></trkpt><trkpt lat="45.0034267" lon="9.6141183"><ele>85.0</ele><time>2026-04-11T14:54:46.937Z</time></trkpt><trkpt lat="45.0035617" lon="9.6141233"><ele>85.0</ele><time>2026-04-11T14:54:47.938Z</time></trkpt><trkpt lat="45.0036933" lon="9.6141333"><ele>85.0</ele><time>2026-04-11T14:54:48.94Z</time></trkpt><trkpt lat="45.00382" lon="9.614135"><ele>85.0</ele><time>2026-04-11T14:54:49.938Z</time></trkpt><trkpt lat="45.0039433" lon="9.6141417"><ele>85.0</ele><time>2026-04-11T14:54:50.939Z</time></trkpt><trkpt lat="45.0040633" lon="9.614175"><ele>85.25</ele><time>2026-04-11T14:54:51.937Z</time></trkpt><trkpt lat="45.004185" lon="9.6142267"><ele>85.5</ele><time>2026-04-11T14:54:52.938Z</time></trkpt><trkpt lat="45.0043067" lon="9.61427"><ele>85.75</ele><time>2026-04-11T14:54:53.938Z</time></trkpt><trkpt lat="45.0044333" lon="9.614315"><ele>86.0</ele><time>2026-04-11T14:54:54.938Z</time></trkpt><trkpt lat="45.0045667" lon="9.61436"><ele>86.0</ele><time>2026-04-11T14:54:55.938Z</time></trkpt><trkpt lat="45.0046983" lon="9.6144083"><ele>86.0</ele><time>2026-04-11T14:54:56.937Z</time></trkpt><trkpt lat="45.004825" lon="9.6144583"><ele>86.0</ele><time>2026-04-11T14:54:57.944Z</time></trkpt><trkpt lat="45.0049533" lon="9.614505"><ele>86.0</ele><time>2026-04-11T14:54:58.937Z</time></trkpt><trkpt lat="45.00508" lon="9.6145533"><ele>85.5</ele><time>2026-04-11T14:54:59.937Z</time></trkpt><trkpt lat="45.005205" lon="9.6146083"><ele>85.0</ele><time>2026-04-11T14:55:00.938Z</time></trkpt><trkpt lat="45.0053317" lon="9.614675"><ele>84.5</ele><time>2026-04-11T14:55:01.937Z</time></trkpt><trkpt lat="45.00545" lon="9.6147617"><ele>84.0</ele><time>2026-04-11T14:55:02.943Z</time></trkpt><trkpt lat="45.00556" lon="9.6148533"><ele>84.0</ele><time>2026-04-11T14:55:03.936Z</time></trkpt><trkpt lat="45.0056733" lon="9.614915"><ele>84.0</ele><time>2026-04-11T14:55:04.938Z</time></trkpt><trkpt lat="45.0057917" lon="9.6149333"><ele>84.0</ele><time>2026-04-11T14:55:05.937Z</time></trkpt><trkpt lat="45.0059117" lon="9.6149233"><ele>84.0</ele><time>2026-04-11T14:55:06.937Z</time></trkpt><trkpt lat="45.0060367" lon="9.614905"><ele>83.75</ele><time>2026-04-11T14:55:07.94Z</time></trkpt><trkpt lat="45.0061633" lon="9.614885"><ele>83.5</ele><time>2026-04-11T14:55:08.936Z</time></trkpt><trkpt lat="45.0062833" lon="9.6148733"><ele>83.25</ele><time>2026-04-11T14:55:09.937Z</time></trkpt><trkpt lat="45.0063917" lon="9.6148933"><ele>83.0</ele><time>2026-04-11T14:55:10.937Z</time></trkpt><trkpt lat="45.006485" lon="9.6149317"><ele>83.0</ele><time>2026-04-11T14:55:11.937Z</time></trkpt><trkpt lat="45.0065667" lon="9.6149467"><ele>83.0</ele><time>2026-04-11T14:55:12.936Z</time></trkpt><trkpt lat="45.0066517" lon="9.6149167"><ele>83.0</ele><time>2026-04-11T14:55:13.937Z</time></trkpt><trkpt lat="45.0067567" lon="9.6149017"><ele>83.0</ele><time>2026-04-11T14:55:14.937Z</time></trkpt><trkpt lat="45.0068833" lon="9.614915"><ele>83.0</ele><time>2026-04-11T14:55:15.937Z</time></trkpt><trkpt lat="45.0070217" lon="9.61494"><ele>83.0</ele><time>2026-04-11T14:55:16.936Z</time></trkpt><trkpt lat="45.0071667" lon="9.614965"><ele>83.0</ele><time>2026-04-11T14:55:17.944Z</time></trkpt><trkpt lat="45.0073083" lon="9.6149917"><ele>83.0</ele><time>2026-04-11T14:55:18.937Z</time></trkpt><trkpt lat="45.00745" lon="9.6150217"><ele>83.0</ele><time>2026-04-11T14:55:19.937Z</time></trkpt><trkpt lat="45.0075867" lon="9.61506"><ele>83.0</ele><time>2026-04-11T14:55:20.938Z</time></trkpt><trkpt lat="45.00772" lon="9.6151033"><ele>83.0</ele><time>2026-04-11T14:55:21.937Z</time></trkpt><trkpt lat="45.0078467" lon="9.6151533"><ele>83.0</ele><time>2026-04-11T14:55:22.936Z</time></trkpt><trkpt lat="45.00797" lon="9.6152083"><ele>83.0</ele><time>2026-04-11T14:55:23.94Z</time></trkpt><trkpt lat="45.0080817" lon="9.6152683"><ele>82.80000000000001</ele><time>2026-04-11T14:55:24.936Z</time></trkpt><trkpt lat="45.0081783" lon="9.6153233"><ele>82.6</ele><time>2026-04-11T14:55:25.936Z</time></trkpt><trkpt lat="45.008255" lon="9.6153633"><ele>82.4</ele><time>2026-04-11T14:55:26.937Z</time></trkpt><trkpt lat="45.0083517" lon="9.6153583"><ele>82.19999999999999</ele><time>2026-04-11T14:55:28.937Z</time></trkpt><trkpt lat="45.0084267" lon="9.6151883"><ele>82.0</ele><time>2026-04-11T14:55:30.937Z</time></trkpt><trkpt lat="45.008435" lon="9.6150333"><ele>82.0</ele><time>2026-04-11T14:55:31.942Z</time></trkpt><trkpt lat="45.008435" lon="9.6148583"><ele>82.0</ele><time>2026-04-11T14:55:32.937Z</time></trkpt><trkpt lat="45.00844" lon="9.6146633"><ele>82.0</ele><time>2026-04-11T14:55:33.937Z</time></trkpt><trkpt lat="45.0084517" lon="9.6144617"><ele>82.0</ele><time>2026-04-11T14:55:34.937Z</time></trkpt><trkpt lat="45.0084617" lon="9.6142717"><ele>82.0</ele><time>2026-04-11T14:55:35.936Z</time></trkpt><trkpt lat="45.00848" lon="9.61411"><ele>82.0</ele><time>2026-04-11T14:55:36.943Z</time></trkpt><trkpt lat="45.0085217" lon="9.613995"><ele>82.0</ele><time>2026-04-11T14:55:37.94Z</time></trkpt><trkpt lat="45.008585" lon="9.613925"><ele>82.0</ele><time>2026-04-11T14:55:38.938Z</time></trkpt><trkpt lat="45.0086767" lon="9.61393"><ele>82.0</ele><time>2026-04-11T14:55:39.937Z</time></trkpt><trkpt lat="45.0087917" lon="9.6139767"><ele>82.0</ele><time>2026-04-11T14:55:40.937Z</time></trkpt><trkpt lat="45.0089217" lon="9.61404"><ele>82.0</ele><time>2026-04-11T14:55:41.936Z</time></trkpt><trkpt lat="45.0090683" lon="9.6141083"><ele>82.0</ele><time>2026-04-11T14:55:42.937Z</time></trkpt><trkpt lat="45.0092183" lon="9.6141733"><ele>82.0</ele><time>2026-04-11T14:55:43.937Z</time></trkpt><trkpt lat="45.0093667" lon="9.61424"><ele>81.66666666666666</ele><time>2026-04-11T14:55:44.937Z</time></trkpt><trkpt lat="45.0095167" lon="9.6143117"><ele>81.33333333333333</ele><time>2026-04-11T14:55:45.938Z</time></trkpt><trkpt lat="45.00967" lon="9.61438"><ele>81.0</ele><time>2026-04-11T14:55:46.937Z</time></trkpt><trkpt lat="45.0098267" lon="9.6144467"><ele>80.33333333333333</ele><time>2026-04-11T14:55:47.942Z</time></trkpt><trkpt lat="45.0099883" lon="9.6145167"><ele>79.66666666666666</ele><time>2026-04-11T14:55:48.937Z</time></trkpt><trkpt lat="45.0101467" lon="9.6145883"><ele>79.0</ele><time>2026-04-11T14:55:49.939Z</time></trkpt><trkpt lat="45.0103067" lon="9.6146583"><ele>78.66666666666666</ele><time>2026-04-11T14:55:50.938Z</time></trkpt><trkpt lat="45.0104667" lon="9.6147233"><ele>78.33333333333333</ele><time>2026-04-11T14:55:51.937Z</time></trkpt><trkpt lat="45.010625" lon="9.6147867"><ele>78.0</ele><time>2026-04-11T14:55:52.937Z</time></trkpt><trkpt lat="45.0107817" lon="9.61485"><ele>78.0</ele><time>2026-04-11T14:55:53.936Z</time></trkpt><trkpt lat="45.0109383" lon="9.614915"><ele>78.0</ele><time>2026-04-11T14:55:54.942Z</time></trkpt><trkpt lat="45.0110967" lon="9.6149767"><ele>78.0</ele><time>2026-04-11T14:55:55.936Z</time></trkpt><trkpt lat="45.011255" lon="9.6150383"><ele>78.0</ele><time>2026-04-11T14:55:56.937Z</time></trkpt><trkpt lat="45.0114133" lon="9.6151"><ele>78.0</ele><time>2026-04-11T14:55:57.937Z</time></trkpt><trkpt lat="45.01157" lon="9.61516"><ele>78.0</ele><time>2026-04-11T14:55:58.937Z</time></trkpt><trkpt lat="45.0117283" lon="9.6152217"><ele>77.33333333333333</ele><time>2026-04-11T14:55:59.942Z</time></trkpt><trkpt lat="45.01189" lon="9.6152867"><ele>76.66666666666666</ele><time>2026-04-11T14:56:00.938Z</time></trkpt><trkpt lat="45.0120483" lon="9.6153533"><ele>76.0</ele><time>2026-04-11T14:56:01.938Z</time></trkpt><trkpt lat="45.0122083" lon="9.61542"><ele>76.0</ele><time>2026-04-11T14:56:02.939Z</time></trkpt><trkpt lat="45.0123667" lon="9.6154867"><ele>76.0</ele><time>2026-04-11T14:56:03.937Z</time></trkpt><trkpt lat="45.0125267" lon="9.6155517"><ele>76.0</ele><time>2026-04-11T14:56:04.937Z</time></trkpt><trkpt lat="45.0126867" lon="9.6156183"><ele>75.66666666666666</ele><time>2026-04-11T14:56:05.94Z</time></trkpt><trkpt lat="45.0128467" lon="9.6156833"><ele>75.33333333333333</ele><time>2026-04-11T14:56:06.938Z</time></trkpt><trkpt lat="45.0130033" lon="9.6157467"><ele>75.0</ele><time>2026-04-11T14:56:07.937Z</time></trkpt><trkpt lat="45.0131633" lon="9.6158117"><ele>75.0</ele><time>2026-04-11T14:56:08.944Z</time></trkpt><trkpt lat="45.0133217" lon="9.6158783"><ele>75.0</ele><time>2026-04-11T14:56:09.937Z</time></trkpt><trkpt lat="45.0134833" lon="9.615945"><ele>75.0</ele><time>2026-04-11T14:56:10.937Z</time></trkpt><trkpt lat="45.013645" lon="9.6160117"><ele>75.0</ele><time>2026-04-11T14:56:11.937Z</time></trkpt><trkpt lat="45.0138083" lon="9.6160733"><ele>75.0</ele><time>2026-04-11T14:56:12.937Z</time></trkpt><trkpt lat="45.0139733" lon="9.6161383"><ele>75.0</ele><time>2026-04-11T14:56:13.937Z</time></trkpt><trkpt lat="45.0141333" lon="9.616205"><ele>75.33333333333333</ele><time>2026-04-11T14:56:14.94Z</time></trkpt><trkpt lat="45.01429" lon="9.6162683"><ele>75.66666666666666</ele><time>2026-04-11T14:56:15.937Z</time></trkpt><trkpt lat="45.0144417" lon="9.6163333"><ele>76.0</ele><time>2026-04-11T14:56:16.937Z</time></trkpt><trkpt lat="45.014595" lon="9.6163967"><ele>76.0</ele><time>2026-04-11T14:56:17.937Z</time></trkpt><trkpt lat="45.01475" lon="9.6164617"><ele>76.0</ele><time>2026-04-11T14:56:18.937Z</time></trkpt><trkpt lat="45.0149083" lon="9.616525"><ele>76.0</ele><time>2026-04-11T14:56:19.938Z</time></trkpt><trkpt lat="45.0150683" lon="9.6165867"><ele>75.66666666666666</ele><time>2026-04-11T14:56:20.938Z</time></trkpt><trkpt lat="45.0152267" lon="9.61665"><ele>75.33333333333333</ele><time>2026-04-11T14:56:21.937Z</time></trkpt><trkpt lat="45.0153817" lon="9.6167133"><ele>75.0</ele><time>2026-04-11T14:56:22.937Z</time></trkpt><trkpt lat="45.0155367" lon="9.616775"><ele>75.0</ele><time>2026-04-11T14:56:23.937Z</time></trkpt><trkpt lat="45.015695" lon="9.61684"><ele>75.0</ele><time>2026-04-11T14:56:24.939Z</time></trkpt><trkpt lat="45.0158533" lon="9.6168983"><ele>75.0</ele><time>2026-04-11T14:56:25.937Z</time></trkpt><trkpt lat="45.0160117" lon="9.6169617"><ele>75.33333333333333</ele><time>2026-04-11T14:56:26.941Z</time></trkpt><trkpt lat="45.0161733" lon="9.6170233"><ele>75.66666666666666</ele><time>2026-04-11T14:56:27.937Z</time></trkpt><trkpt lat="45.0163383" lon="9.6171"><ele>76.0</ele><time>2026-04-11T14:56:28.938Z</time></trkpt><trkpt lat="45.0165083" lon="9.617175"><ele>75.66666666666666</ele><time>2026-04-11T14:56:29.937Z</time></trkpt><trkpt lat="45.0166767" lon="9.6172467"><ele>75.33333333333333</ele><time>2026-04-11T14:56:30.938Z</time></trkpt><trkpt lat="45.01685" lon="9.617315"><ele>75.0</ele><time>2026-04-11T14:56:31.937Z</time></trkpt><trkpt lat="45.0170217" lon="9.6173817"><ele>75.0</ele><time>2026-04-11T14:56:32.937Z</time></trkpt><trkpt lat="45.017195" lon="9.6174483"><ele>75.0</ele><time>2026-04-11T14:56:33.937Z</time></trkpt><trkpt lat="45.017365" lon="9.6175183"><ele>75.0</ele><time>2026-04-11T14:56:34.937Z</time></trkpt><trkpt lat="45.017535" lon="9.6175867"><ele>74.33333333333333</ele><time>2026-04-11T14:56:35.937Z</time></trkpt><trkpt lat="45.0177033" lon="9.6176567"><ele>73.66666666666666</ele><time>2026-04-11T14:56:36.937Z</time></trkpt><trkpt lat="45.0178733" lon="9.6177233"><ele>73.0</ele><time>2026-04-11T14:56:37.939Z</time></trkpt><trkpt lat="45.0180417" lon="9.6177867"><ele>73.0</ele><time>2026-04-11T14:56:38.942Z</time></trkpt><trkpt lat="45.0182117" lon="9.6178467"><ele>73.0</ele><time>2026-04-11T14:56:39.937Z</time></trkpt><trkpt lat="45.0183767" lon="9.617905"><ele>73.0</ele><time>2026-04-11T14:56:40.938Z</time></trkpt><trkpt lat="45.0185433" lon="9.6179633"><ele>73.0</ele><time>2026-04-11T14:56:41.938Z</time></trkpt><trkpt lat="45.01871" lon="9.618025"><ele>73.0</ele><time>2026-04-11T14:56:42.937Z</time></trkpt><trkpt lat="45.0188767" lon="9.6180867"><ele>73.0</ele><time>2026-04-11T14:56:43.937Z</time></trkpt><trkpt lat="45.0190433" lon="9.61815"><ele>73.33333333333333</ele><time>2026-04-11T14:56:44.938Z</time></trkpt><trkpt lat="45.01921" lon="9.6182117"><ele>73.66666666666667</ele><time>2026-04-11T14:56:45.942Z</time></trkpt><trkpt lat="45.0193767" lon="9.61827"><ele>74.0</ele><time>2026-04-11T14:56:46.937Z</time></trkpt><trkpt lat="45.0195467" lon="9.61833"><ele>74.0</ele><time>2026-04-11T14:56:47.937Z</time></trkpt><trkpt lat="45.0197133" lon="9.618385"><ele>74.0</ele><time>2026-04-11T14:56:48.937Z</time></trkpt><trkpt lat="45.0198817" lon="9.6184133"><ele>74.0</ele><time>2026-04-11T14:56:49.936Z</time></trkpt><trkpt lat="45.0200467" lon="9.6183983"><ele>74.66666666666667</ele><time>2026-04-11T14:56:50.943Z</time></trkpt><trkpt lat="45.0202133" lon="9.618375"><ele>75.33333333333333</ele><time>2026-04-11T14:56:51.937Z</time></trkpt><trkpt lat="45.0203883" lon="9.618365"><ele>76.0</ele><time>2026-04-11T14:56:52.937Z</time></trkpt><trkpt lat="45.020565" lon="9.618365"><ele>76.0</ele><time>2026-04-11T14:56:53.937Z</time></trkpt><trkpt lat="45.0207417" lon="9.6183717"><ele>76.0</ele><time>2026-04-11T14:56:54.938Z</time></trkpt><trkpt lat="45.0209217" lon="9.6183817"><ele>76.0</ele><time>2026-04-11T14:56:55.937Z</time></trkpt><trkpt lat="45.0211033" lon="9.6183933"><ele>74.66666666666666</ele><time>2026-04-11T14:56:56.939Z</time></trkpt><trkpt lat="45.0212833" lon="9.6184017"><ele>73.33333333333333</ele><time>2026-04-11T14:56:57.944Z</time></trkpt><trkpt lat="45.021465" lon="9.618415"><ele>72.0</ele><time>2026-04-11T14:56:58.938Z</time></trkpt><trkpt lat="45.0216467" lon="9.6184283"><ele>72.66666666666667</ele><time>2026-04-11T14:56:59.939Z</time></trkpt><trkpt lat="45.0218233" lon="9.6184383"><ele>73.33333333333334</ele><time>2026-04-11T14:57:00.94Z</time></trkpt><trkpt lat="45.0219983" lon="9.6184467"><ele>74.0</ele><time>2026-04-11T14:57:01.94Z</time></trkpt><trkpt lat="45.0221733" lon="9.618455"><ele>74.0</ele><time>2026-04-11T14:57:02.938Z</time></trkpt><trkpt lat="45.0223467" lon="9.61846"><ele>74.0</ele><time>2026-04-11T14:57:03.938Z</time></trkpt><trkpt lat="45.02252" lon="9.6184733"><ele>74.0</ele><time>2026-04-11T14:57:04.944Z</time></trkpt><trkpt lat="45.0226883" lon="9.61851"><ele>74.0</ele><time>2026-04-11T14:57:05.938Z</time></trkpt><trkpt lat="45.0228533" lon="9.6185817"><ele>74.0</ele><time>2026-04-11T14:57:06.94Z</time></trkpt><trkpt lat="45.0230133" lon="9.6186767"><ele>74.0</ele><time>2026-04-11T14:57:07.937Z</time></trkpt><trkpt lat="45.0231717" lon="9.61878"><ele>73.0</ele><time>2026-04-11T14:57:08.938Z</time></trkpt><trkpt lat="45.02333" lon="9.6188817"><ele>72.0</ele><time>2026-04-11T14:57:09.938Z</time></trkpt><trkpt lat="45.0234883" lon="9.6189817"><ele>71.0</ele><time>2026-04-11T14:57:10.939Z</time></trkpt><trkpt lat="45.0236467" lon="9.6190833"><ele>71.0</ele><time>2026-04-11T14:57:11.939Z</time></trkpt><trkpt lat="45.0238067" lon="9.6191817"><ele>71.0</ele><time>2026-04-11T14:57:12.938Z</time></trkpt><trkpt lat="45.0239667" lon="9.6192783"><ele>71.0</ele><time>2026-04-11T14:57:13.938Z</time></trkpt><trkpt lat="45.0241267" lon="9.6193767"><ele>71.33333333333334</ele><time>2026-04-11T14:57:14.94Z</time></trkpt><trkpt lat="45.0242833" lon="9.61948"><ele>71.66666666666667</ele><time>2026-04-11T14:57:15.94Z</time></trkpt><trkpt lat="45.02444" lon="9.6195833"><ele>72.0</ele><time>2026-04-11T14:57:16.938Z</time></trkpt><trkpt lat="45.0246" lon="9.6196867"><ele>72.33333333333333</ele><time>2026-04-11T14:57:17.938Z</time></trkpt><trkpt lat="45.0247567" lon="9.6197833"><ele>72.66666666666666</ele><time>2026-04-11T14:57:18.937Z</time></trkpt><trkpt lat="45.024915" lon="9.6198833"><ele>73.0</ele><time>2026-04-11T14:57:19.938Z</time></trkpt><trkpt lat="45.0250717" lon="9.619985"><ele>72.0</ele><time>2026-04-11T14:57:20.937Z</time></trkpt><trkpt lat="45.0252267" lon="9.6200883"><ele>71.0</ele><time>2026-04-11T14:57:21.942Z</time></trkpt><trkpt lat="45.025375" lon="9.6201917"><ele>70.0</ele><time>2026-04-11T14:57:22.938Z</time></trkpt><trkpt lat="45.0255183" lon="9.6202867"><ele>70.0</ele><time>2026-04-11T14:57:23.937Z</time></trkpt><trkpt lat="45.02567" lon="9.6203467"><ele>70.0</ele><time>2026-04-11T14:57:24.938Z</time></trkpt><trkpt lat="45.0258367" lon="9.6203633"><ele>70.0</ele><time>2026-04-11T14:57:25.938Z</time></trkpt><trkpt lat="45.0260117" lon="9.6203517"><ele>70.0</ele><time>2026-04-11T14:57:26.938Z</time></trkpt><trkpt lat="45.0261867" lon="9.6203383"><ele>70.0</ele><time>2026-04-11T14:57:27.939Z</time></trkpt><trkpt lat="45.026365" lon="9.6203333"><ele>70.0</ele><time>2026-04-11T14:57:28.938Z</time></trkpt><trkpt lat="45.0265417" lon="9.6203283"><ele>70.0</ele><time>2026-04-11T14:57:29.937Z</time></trkpt><trkpt lat="45.0267167" lon="9.6203233"><ele>70.0</ele><time>2026-04-11T14:57:30.938Z</time></trkpt><trkpt lat="45.02689" lon="9.6203217"><ele>70.0</ele><time>2026-04-11T14:57:31.939Z</time></trkpt><trkpt lat="45.02706" lon="9.6203283"><ele>70.0</ele><time>2026-04-11T14:57:32.939Z</time></trkpt><trkpt lat="45.0272317" lon="9.620345"><ele>70.0</ele><time>2026-04-11T14:57:33.937Z</time></trkpt><trkpt lat="45.0274" lon="9.6203717"><ele>70.0</ele><time>2026-04-11T14:57:34.938Z</time></trkpt><trkpt lat="45.0275667" lon="9.6204"><ele>71.0</ele><time>2026-04-11T14:57:35.937Z</time></trkpt><trkpt lat="45.0277383" lon="9.6204283"><ele>72.0</ele><time>2026-04-11T14:57:36.94Z</time></trkpt><trkpt lat="45.02791" lon="9.620455"><ele>73.0</ele><time>2026-04-11T14:57:37.938Z</time></trkpt><trkpt lat="45.02808" lon="9.620485"><ele>73.0</ele><time>2026-04-11T14:57:38.944Z</time></trkpt><trkpt lat="45.0282517" lon="9.6205183"><ele>73.0</ele><time>2026-04-11T14:57:39.939Z</time></trkpt><trkpt lat="45.0284217" lon="9.6205567"><ele>73.0</ele><time>2026-04-11T14:57:40.938Z</time></trkpt><trkpt lat="45.02859" lon="9.6206033"><ele>72.0</ele><time>2026-04-11T14:57:41.94Z</time></trkpt><trkpt lat="45.028755" lon="9.6206567"><ele>71.0</ele><time>2026-04-11T14:57:42.938Z</time></trkpt><trkpt lat="45.02892" lon="9.6207217"><ele>70.0</ele><time>2026-04-11T14:57:43.937Z</time></trkpt><trkpt lat="45.0290833" lon="9.6207983"><ele>70.0</ele><time>2026-04-11T14:57:44.947Z</time></trkpt><trkpt lat="45.029235" lon="9.6208833"><ele>70.0</ele><time>2026-04-11T14:57:45.938Z</time></trkpt><trkpt lat="45.0293767" lon="9.620975"><ele>70.0</ele><time>2026-04-11T14:57:46.937Z</time></trkpt><trkpt lat="45.0294983" lon="9.6210717"><ele>70.0</ele><time>2026-04-11T14:57:47.938Z</time></trkpt><trkpt lat="45.029605" lon="9.6211717"><ele>70.0</ele><time>2026-04-11T14:57:48.938Z</time></trkpt><trkpt lat="45.02969" lon="9.6212717"><ele>70.0</ele><time>2026-04-11T14:57:49.945Z</time></trkpt><trkpt lat="45.0297533" lon="9.6213917"><ele>70.0</ele><time>2026-04-11T14:57:50.937Z</time></trkpt><trkpt lat="45.0298133" lon="9.6215417"><ele>70.0</ele><time>2026-04-11T14:57:51.937Z</time></trkpt><trkpt lat="45.0298767" lon="9.6217217"><ele>70.0</ele><time>2026-04-11T14:57:52.937Z</time></trkpt><trkpt lat="45.0299367" lon="9.621915"><ele>70.0</ele><time>2026-04-11T14:57:53.937Z</time></trkpt><trkpt lat="45.02999" lon="9.6221183"><ele>70.0</ele><time>2026-04-11T14:57:54.946Z</time></trkpt><trkpt lat="45.030045" lon="9.622335"><ele>70.0</ele><time>2026-04-11T14:57:55.937Z</time></trkpt><trkpt lat="45.0301067" lon="9.62255"><ele>70.0</ele><time>2026-04-11T14:57:56.937Z</time></trkpt><trkpt lat="45.0301767" lon="9.6227517"><ele>70.0</ele><time>2026-04-11T14:57:57.937Z</time></trkpt><trkpt lat="45.0302467" lon="9.622935"><ele>69.5</ele><time>2026-04-11T14:57:58.937Z</time></trkpt><trkpt lat="45.0303117" lon="9.6230967"><ele>69.0</ele><time>2026-04-11T14:57:59.937Z</time></trkpt><trkpt lat="45.03039" lon="9.6232333"><ele>68.5</ele><time>2026-04-11T14:58:00.938Z</time></trkpt><trkpt lat="45.0304867" lon="9.62335"><ele>68.0</ele><time>2026-04-11T14:58:01.94Z</time></trkpt><trkpt lat="45.0305767" lon="9.623485"><ele>68.0</ele><time>2026-04-11T14:58:02.937Z</time></trkpt><trkpt lat="45.0306483" lon="9.62367"><ele>68.0</ele><time>2026-04-11T14:58:03.937Z</time></trkpt><trkpt lat="45.030715" lon="9.6238833"><ele>68.0</ele><time>2026-04-11T14:58:04.938Z</time></trkpt><trkpt lat="45.03079" lon="9.6241067"><ele>68.0</ele><time>2026-04-11T14:58:05.938Z</time></trkpt><trkpt lat="45.0308683" lon="9.62433"><ele>68.0</ele><time>2026-04-11T14:58:06.94Z</time></trkpt><trkpt lat="45.0309467" lon="9.6245467"><ele>68.0</ele><time>2026-04-11T14:58:07.937Z</time></trkpt><trkpt lat="45.03102" lon="9.6247583"><ele>68.0</ele><time>2026-04-11T14:58:08.937Z</time></trkpt><trkpt lat="45.0310867" lon="9.624955"><ele>68.0</ele><time>2026-04-11T14:58:09.938Z</time></trkpt><trkpt lat="45.0311517" lon="9.625145"><ele>68.0</ele><time>2026-04-11T14:58:10.938Z</time></trkpt><trkpt lat="45.031215" lon="9.625325"><ele>68.0</ele><time>2026-04-11T14:58:11.937Z</time></trkpt><trkpt lat="45.0312733" lon="9.6254967"><ele>68.0</ele><time>2026-04-11T14:58:12.939Z</time></trkpt><trkpt lat="45.0313333" lon="9.6256583"><ele>68.0</ele><time>2026-04-11T14:58:13.937Z</time></trkpt><trkpt lat="45.0314083" lon="9.6257933"><ele>68.0</ele><time>2026-04-11T14:58:14.938Z</time></trkpt><trkpt lat="45.0315117" lon="9.6259033"><ele>68.0</ele><time>2026-04-11T14:58:15.939Z</time></trkpt><trkpt lat="45.0316283" lon="9.626005"><ele>67.5</ele><time>2026-04-11T14:58:16.939Z</time></trkpt><trkpt lat="45.0317283" lon="9.6261167"><ele>67.0</ele><time>2026-04-11T14:58:17.938Z</time></trkpt><trkpt lat="45.03183" lon="9.626235"><ele>66.5</ele><time>2026-04-11T14:58:18.938Z</time></trkpt><trkpt lat="45.031895" lon="9.626365"><ele>66.0</ele><time>2026-04-11T14:58:19.937Z</time></trkpt><trkpt lat="45.0319133" lon="9.6265267"><ele>66.0</ele><time>2026-04-11T14:58:20.939Z</time></trkpt><trkpt lat="45.0319183" lon="9.6267183"><ele>66.0</ele><time>2026-04-11T14:58:21.938Z</time></trkpt><trkpt lat="45.0319283" lon="9.6269333"><ele>66.0</ele><time>2026-04-11T14:58:22.942Z</time></trkpt><trkpt lat="45.0319467" lon="9.6271417"><ele>66.0</ele><time>2026-04-11T14:58:23.937Z</time></trkpt><trkpt lat="45.0319733" lon="9.6273517"><ele>66.33333333333333</ele><time>2026-04-11T14:58:24.938Z</time></trkpt><trkpt lat="45.0320117" lon="9.6275533"><ele>66.66666666666666</ele><time>2026-04-11T14:58:25.937Z</time></trkpt><trkpt lat="45.032065" lon="9.6277567"><ele>67.0</ele><time>2026-04-11T14:58:26.938Z</time></trkpt><trkpt lat="45.0321317" lon="9.6279583"><ele>67.0</ele><time>2026-04-11T14:58:27.938Z</time></trkpt><trkpt lat="45.0322033" lon="9.6281567"><ele>67.0</ele><time>2026-04-11T14:58:28.937Z</time></trkpt><trkpt lat="45.0322783" lon="9.6283633"><ele>67.0</ele><time>2026-04-11T14:58:29.941Z</time></trkpt><trkpt lat="45.032355" lon="9.6285767"><ele>67.33333333333333</ele><time>2026-04-11T14:58:30.937Z</time></trkpt><trkpt lat="45.0324317" lon="9.6287917"><ele>67.66666666666667</ele><time>2026-04-11T14:58:31.942Z</time></trkpt><trkpt lat="45.0325083" lon="9.6290067"><ele>68.0</ele><time>2026-04-11T14:58:32.939Z</time></trkpt><trkpt lat="45.0325867" lon="9.6292217"><ele>67.66666666666667</ele><time>2026-04-11T14:58:33.937Z</time></trkpt><trkpt lat="45.0326633" lon="9.6294367"><ele>67.33333333333333</ele><time>2026-04-11T14:58:34.938Z</time></trkpt><trkpt lat="45.03274" lon="9.6296533"><ele>67.0</ele><time>2026-04-11T14:58:35.937Z</time></trkpt><trkpt lat="45.0328133" lon="9.629865"><ele>67.0</ele><time>2026-04-11T14:58:36.938Z</time></trkpt><trkpt lat="45.0328867" lon="9.630075"><ele>67.0</ele><time>2026-04-11T14:58:37.944Z</time></trkpt><trkpt lat="45.03296" lon="9.6302817"><ele>67.0</ele><time>2026-04-11T14:58:38.937Z</time></trkpt><trkpt lat="45.0330317" lon="9.630485"><ele>66.66666666666666</ele><time>2026-04-11T14:58:39.938Z</time></trkpt><trkpt lat="45.0331033" lon="9.6306867"><ele>66.33333333333333</ele><time>2026-04-11T14:58:40.938Z</time></trkpt><trkpt lat="45.0331733" lon="9.6308867"><ele>66.0</ele><time>2026-04-11T14:58:41.937Z</time></trkpt><trkpt lat="45.033245" lon="9.6310867"><ele>66.0</ele><time>2026-04-11T14:58:42.939Z</time></trkpt><trkpt lat="45.033315" lon="9.631285"><ele>66.0</ele><time>2026-04-11T14:58:43.939Z</time></trkpt><trkpt lat="45.0333817" lon="9.6314767"><ele>66.0</ele><time>2026-04-11T14:58:44.938Z</time></trkpt><trkpt lat="45.0334433" lon="9.631655"><ele>66.0</ele><time>2026-04-11T14:58:45.945Z</time></trkpt><trkpt lat="45.0335017" lon="9.6318217"><ele>66.0</ele><time>2026-04-11T14:58:46.938Z</time></trkpt><trkpt lat="45.0335583" lon="9.6319817"><ele>66.0</ele><time>2026-04-11T14:58:47.938Z</time></trkpt><trkpt lat="45.03362" lon="9.6321367"><ele>66.0</ele><time>2026-04-11T14:58:48.938Z</time></trkpt><trkpt lat="45.03368" lon="9.63229"><ele>66.0</ele><time>2026-04-11T14:58:49.938Z</time></trkpt><trkpt lat="45.0337367" lon="9.6324467"><ele>66.0</ele><time>2026-04-11T14:58:50.938Z</time></trkpt><trkpt lat="45.033795" lon="9.6326117"><ele>66.0</ele><time>2026-04-11T14:58:51.938Z</time></trkpt><trkpt lat="45.033855" lon="9.6327833"><ele>66.0</ele><time>2026-04-11T14:58:52.938Z</time></trkpt><trkpt lat="45.0339167" lon="9.632965"><ele>66.0</ele><time>2026-04-11T14:58:53.938Z</time></trkpt><trkpt lat="45.0339767" lon="9.6331567"><ele>66.0</ele><time>2026-04-11T14:58:54.937Z</time></trkpt><trkpt lat="45.0340383" lon="9.6333567"><ele>66.0</ele><time>2026-04-11T14:58:55.937Z</time></trkpt><trkpt lat="45.0341067" lon="9.6335617"><ele>66.0</ele><time>2026-04-11T14:58:56.941Z</time></trkpt><trkpt lat="45.0341783" lon="9.6337617"><ele>66.0</ele><time>2026-04-11T14:58:57.937Z</time></trkpt><trkpt lat="45.0342483" lon="9.6339467"><ele>66.0</ele><time>2026-04-11T14:58:58.937Z</time></trkpt><trkpt lat="45.0343117" lon="9.6341183"><ele>66.0</ele><time>2026-04-11T14:58:59.938Z</time></trkpt><trkpt lat="45.0343717" lon="9.6342783"><ele>66.0</ele><time>2026-04-11T14:59:00.938Z</time></trkpt><trkpt lat="45.034425" lon="9.6344267"><ele>66.2</ele><time>2026-04-11T14:59:01.938Z</time></trkpt><trkpt lat="45.0344733" lon="9.6345583"><ele>66.39999999999999</ele><time>2026-04-11T14:59:02.938Z</time></trkpt><trkpt lat="45.0345317" lon="9.63466"><ele>66.6</ele><time>2026-04-11T14:59:03.946Z</time></trkpt><trkpt lat="45.0346" lon="9.6347267"><ele>66.8</ele><time>2026-04-11T14:59:04.939Z</time></trkpt><trkpt lat="45.0347083" lon="9.634725"><ele>67.0</ele><time>2026-04-11T14:59:05.938Z</time></trkpt><trkpt lat="45.0348417" lon="9.6346983"><ele>66.0</ele><time>2026-04-11T14:59:06.938Z</time></trkpt><trkpt lat="45.0349917" lon="9.634675"><ele>65.0</ele><time>2026-04-11T14:59:07.938Z</time></trkpt><trkpt lat="45.0351517" lon="9.634655"><ele>64.0</ele><time>2026-04-11T14:59:08.944Z</time></trkpt><trkpt lat="45.035315" lon="9.6346333"><ele>64.0</ele><time>2026-04-11T14:59:09.937Z</time></trkpt><trkpt lat="45.0354783" lon="9.6346117"><ele>64.0</ele><time>2026-04-11T14:59:10.94Z</time></trkpt><trkpt lat="45.0356383" lon="9.6345917"><ele>64.0</ele><time>2026-04-11T14:59:11.938Z</time></trkpt><trkpt lat="45.0358" lon="9.6345717"><ele>64.66666666666666</ele><time>2026-04-11T14:59:12.938Z</time></trkpt><trkpt lat="45.03596" lon="9.63455"><ele>65.33333333333333</ele><time>2026-04-11T14:59:13.937Z</time></trkpt><trkpt lat="45.0361183" lon="9.63453"><ele>66.0</ele><time>2026-04-11T14:59:14.938Z</time></trkpt><trkpt lat="45.0362767" lon="9.6345067"><ele>66.0</ele><time>2026-04-11T14:59:15.938Z</time></trkpt><trkpt lat="45.036435" lon="9.6344833"><ele>66.0</ele><time>2026-04-11T14:59:16.939Z</time></trkpt><trkpt lat="45.036595" lon="9.63446"><ele>66.0</ele><time>2026-04-11T14:59:17.945Z</time></trkpt><trkpt lat="45.036755" lon="9.6344383"><ele>65.0</ele><time>2026-04-11T14:59:18.939Z</time></trkpt><trkpt lat="45.0369167" lon="9.6344183"><ele>64.0</ele><time>2026-04-11T14:59:19.939Z</time></trkpt><trkpt lat="45.037075" lon="9.6343967"><ele>63.0</ele><time>2026-04-11T14:59:20.94Z</time></trkpt><trkpt lat="45.0372267" lon="9.63438"><ele>63.0</ele><time>2026-04-11T14:59:21.939Z</time></trkpt><trkpt lat="45.0373683" lon="9.634365"><ele>63.0</ele><time>2026-04-11T14:59:22.942Z</time></trkpt><trkpt lat="45.037495" lon="9.6343517"><ele>63.0</ele><time>2026-04-11T14:59:23.939Z</time></trkpt><trkpt lat="45.0376" lon="9.63435"><ele>63.0</ele><time>2026-04-11T14:59:24.94Z</time></trkpt><trkpt lat="45.0376833" lon="9.6343767"><ele>62.8</ele><time>2026-04-11T14:59:25.939Z</time></trkpt><trkpt lat="45.037735" lon="9.6344517"><ele>62.599999999999994</ele><time>2026-04-11T14:59:26.938Z</time></trkpt><trkpt lat="45.0377517" lon="9.6345667"><ele>62.400000000000006</ele><time>2026-04-11T14:59:27.938Z</time></trkpt><trkpt lat="45.03775" lon="9.6347133"><ele>62.2</ele><time>2026-04-11T14:59:28.938Z</time></trkpt><trkpt lat="45.037765" lon="9.63488"><ele>62.0</ele><time>2026-04-11T14:59:29.944Z</time></trkpt><trkpt lat="45.0378233" lon="9.6350133"><ele>62.0</ele><time>2026-04-11T14:59:30.939Z</time></trkpt><trkpt lat="45.037925" lon="9.6351167"><ele>62.0</ele><time>2026-04-11T14:59:31.938Z</time></trkpt><trkpt lat="45.0380567" lon="9.6351883"><ele>62.0</ele><time>2026-04-11T14:59:32.939Z</time></trkpt><trkpt lat="45.0382133" lon="9.6352517"><ele>62.0</ele><time>2026-04-11T14:59:33.938Z</time></trkpt><trkpt lat="45.0383817" lon="9.6353283"><ele>62.66666666666667</ele><time>2026-04-11T14:59:34.945Z</time></trkpt><trkpt lat="45.038555" lon="9.63541"><ele>63.33333333333333</ele><time>2026-04-11T14:59:35.938Z</time></trkpt><trkpt lat="45.03873" lon="9.6354917"><ele>64.0</ele><time>2026-04-11T14:59:36.937Z</time></trkpt><trkpt lat="45.038905" lon="9.6355717"><ele>64.0</ele><time>2026-04-11T14:59:37.938Z</time></trkpt><trkpt lat="45.0390783" lon="9.635645"><ele>64.0</ele><time>2026-04-11T14:59:38.938Z</time></trkpt><trkpt lat="45.03925" lon="9.6357233"><ele>64.0</ele><time>2026-04-11T14:59:39.938Z</time></trkpt><trkpt lat="45.0394133" lon="9.6357967"><ele>63.33333333333333</ele><time>2026-04-11T14:59:40.939Z</time></trkpt><trkpt lat="45.0395717" lon="9.635865"><ele>62.66666666666667</ele><time>2026-04-11T14:59:41.94Z</time></trkpt><trkpt lat="45.03973" lon="9.6359333"><ele>62.0</ele><time>2026-04-11T14:59:42.946Z</time></trkpt><trkpt lat="45.0398883" lon="9.6360017"><ele>62.0</ele><time>2026-04-11T14:59:43.938Z</time></trkpt><trkpt lat="45.0400433" lon="9.6360733"><ele>62.0</ele><time>2026-04-11T14:59:44.938Z</time></trkpt><trkpt lat="45.040195" lon="9.636145"><ele>62.0</ele><time>2026-04-11T14:59:45.94Z</time></trkpt><trkpt lat="45.0403483" lon="9.636215"><ele>62.0</ele><time>2026-04-11T14:59:46.939Z</time></trkpt><trkpt lat="45.0405033" lon="9.636285"><ele>62.0</ele><time>2026-04-11T14:59:47.941Z</time></trkpt><trkpt lat="45.0406567" lon="9.6363567"><ele>62.0</ele><time>2026-04-11T14:59:48.94Z</time></trkpt><trkpt lat="45.0408117" lon="9.6364283"><ele>62.0</ele><time>2026-04-11T14:59:49.942Z</time></trkpt><trkpt lat="45.0409667" lon="9.6365"><ele>62.0</ele><time>2026-04-11T14:59:50.939Z</time></trkpt><trkpt lat="45.0411233" lon="9.6365683"><ele>62.0</ele><time>2026-04-11T14:59:51.939Z</time></trkpt><trkpt lat="45.0412817" lon="9.63664"><ele>62.0</ele><time>2026-04-11T14:59:52.939Z</time></trkpt><trkpt lat="45.0414383" lon="9.63671"><ele>62.0</ele><time>2026-04-11T14:59:53.939Z</time></trkpt><trkpt lat="45.041595" lon="9.6367767"><ele>62.0</ele><time>2026-04-11T14:59:54.94Z</time></trkpt><trkpt lat="45.04175" lon="9.636845"><ele>61.66666666666667</ele><time>2026-04-11T14:59:55.943Z</time></trkpt><trkpt lat="45.0419067" lon="9.636915"><ele>61.33333333333333</ele><time>2026-04-11T14:59:56.941Z</time></trkpt><trkpt lat="45.042065" lon="9.6369867"><ele>61.0</ele><time>2026-04-11T14:59:57.938Z</time></trkpt><trkpt lat="45.0422233" lon="9.637065"><ele>61.0</ele><time>2026-04-11T14:59:58.939Z</time></trkpt><trkpt lat="45.0423783" lon="9.637155"><ele>61.0</ele><time>2026-04-11T14:59:59.938Z</time></trkpt><trkpt lat="45.0425317" lon="9.6372567"><ele>61.0</ele><time>2026-04-11T15:00:00.942Z</time></trkpt><trkpt lat="45.042685" lon="9.6373617"><ele>61.0</ele><time>2026-04-11T15:00:01.939Z</time></trkpt><trkpt lat="45.0428367" lon="9.6374633"><ele>61.0</ele><time>2026-04-11T15:00:02.939Z</time></trkpt><trkpt lat="45.0429883" lon="9.6375617"><ele>61.0</ele><time>2026-04-11T15:00:03.937Z</time></trkpt><trkpt lat="45.0431433" lon="9.6376433"><ele>61.0</ele><time>2026-04-11T15:00:04.938Z</time></trkpt><trkpt lat="45.0433033" lon="9.6377117"><ele>61.0</ele><time>2026-04-11T15:00:05.943Z</time></trkpt><trkpt lat="45.043465" lon="9.6377733"><ele>61.0</ele><time>2026-04-11T15:00:06.938Z</time></trkpt><trkpt lat="45.04363" lon="9.63783"><ele>61.0</ele><time>2026-04-11T15:00:07.939Z</time></trkpt><trkpt lat="45.0437983" lon="9.6378733"><ele>61.0</ele><time>2026-04-11T15:00:08.939Z</time></trkpt><trkpt lat="45.04397" lon="9.6379083"><ele>61.0</ele><time>2026-04-11T15:00:09.938Z</time></trkpt><trkpt lat="45.0441417" lon="9.6379417"><ele>60.33333333333333</ele><time>2026-04-11T15:00:10.938Z</time></trkpt><trkpt lat="45.044315" lon="9.637975"><ele>59.66666666666667</ele><time>2026-04-11T15:00:11.938Z</time></trkpt><trkpt lat="45.0444867" lon="9.63801"><ele>59.0</ele><time>2026-04-11T15:00:12.938Z</time></trkpt><trkpt lat="45.0446583" lon="9.6380467"><ele>59.0</ele><time>2026-04-11T15:00:13.938Z</time></trkpt><trkpt lat="45.0448283" lon="9.6380817"><ele>59.0</ele><time>2026-04-11T15:00:14.94Z</time></trkpt><trkpt lat="45.0450017" lon="9.6381167"><ele>59.0</ele><time>2026-04-11T15:00:15.94Z</time></trkpt><trkpt lat="45.0451733" lon="9.6381567"><ele>59.66666666666667</ele><time>2026-04-11T15:00:16.939Z</time></trkpt><trkpt lat="45.0453417" lon="9.638195"><ele>60.33333333333333</ele><time>2026-04-11T15:00:17.94Z</time></trkpt><trkpt lat="45.04551" lon="9.6382367"><ele>61.0</ele><time>2026-04-11T15:00:18.94Z</time></trkpt><trkpt lat="45.0456783" lon="9.63827"><ele>60.666666666666664</ele><time>2026-04-11T15:00:19.94Z</time></trkpt><trkpt lat="45.04585" lon="9.6382917"><ele>60.33333333333333</ele><time>2026-04-11T15:00:20.939Z</time></trkpt><trkpt lat="45.0460217" lon="9.6383117"><ele>60.0</ele><time>2026-04-11T15:00:21.94Z</time></trkpt><trkpt lat="45.0461967" lon="9.6383367"><ele>60.0</ele><time>2026-04-11T15:00:22.941Z</time></trkpt><trkpt lat="45.0463667" lon="9.6383683"><ele>60.0</ele><time>2026-04-11T15:00:23.939Z</time></trkpt><trkpt lat="45.0465417" lon="9.6384"><ele>60.0</ele><time>2026-04-11T15:00:24.938Z</time></trkpt><trkpt lat="45.0467133" lon="9.6384383"><ele>59.66666666666667</ele><time>2026-04-11T15:00:25.94Z</time></trkpt><trkpt lat="45.04689" lon="9.6384783"><ele>59.333333333333336</ele><time>2026-04-11T15:00:26.938Z</time></trkpt><trkpt lat="45.04706" lon="9.6385167"><ele>59.0</ele><time>2026-04-11T15:00:27.938Z</time></trkpt><trkpt lat="45.0472283" lon="9.6385617"><ele>59.0</ele><time>2026-04-11T15:00:28.943Z</time></trkpt><trkpt lat="45.0473983" lon="9.6386117"><ele>59.0</ele><time>2026-04-11T15:00:29.939Z</time></trkpt><trkpt lat="45.0475667" lon="9.6386683"><ele>59.0</ele><time>2026-04-11T15:00:30.939Z</time></trkpt><trkpt lat="45.047735" lon="9.6387317"><ele>59.0</ele><time>2026-04-11T15:00:31.939Z</time></trkpt><trkpt lat="45.0479033" lon="9.6387883"><ele>59.0</ele><time>2026-04-11T15:00:32.94Z</time></trkpt><trkpt lat="45.0480733" lon="9.63884"><ele>59.0</ele><time>2026-04-11T15:00:33.94Z</time></trkpt><trkpt lat="45.0482433" lon="9.638875"><ele>58.0</ele><time>2026-04-11T15:00:34.938Z</time></trkpt><trkpt lat="45.0484117" lon="9.6388933"><ele>57.0</ele><time>2026-04-11T15:00:35.946Z</time></trkpt><trkpt lat="45.0485783" lon="9.6388867"><ele>56.0</ele><time>2026-04-11T15:00:36.942Z</time></trkpt><trkpt lat="45.0487467" lon="9.638855"><ele>56.0</ele><time>2026-04-11T15:00:37.94Z</time></trkpt><trkpt lat="45.048915" lon="9.6388033"><ele>56.0</ele><time>2026-04-11T15:00:38.94Z</time></trkpt><trkpt lat="45.0490817" lon="9.6387433"><ele>56.0</ele><time>2026-04-11T15:00:39.939Z</time></trkpt><trkpt lat="45.0492483" lon="9.6386783"><ele>56.0</ele><time>2026-04-11T15:00:40.939Z</time></trkpt><trkpt lat="45.049415" lon="9.6386217"><ele>56.0</ele><time>2026-04-11T15:00:41.94Z</time></trkpt><trkpt lat="45.04958" lon="9.6385867"><ele>56.0</ele><time>2026-04-11T15:00:42.947Z</time></trkpt><trkpt lat="45.049745" lon="9.6385783"><ele>56.0</ele><time>2026-04-11T15:00:43.94Z</time></trkpt><trkpt lat="45.049915" lon="9.63858"><ele>56.0</ele><time>2026-04-11T15:00:44.94Z</time></trkpt><trkpt lat="45.0500867" lon="9.638585"><ele>56.0</ele><time>2026-04-11T15:00:45.937Z</time></trkpt><trkpt lat="45.0502567" lon="9.638605"><ele>56.66666666666667</ele><time>2026-04-11T15:00:46.937Z</time></trkpt><trkpt lat="45.0504233" lon="9.63866"><ele>57.33333333333333</ele><time>2026-04-11T15:00:47.94Z</time></trkpt><trkpt lat="45.050575" lon="9.6387483"><ele>58.0</ele><time>2026-04-11T15:00:48.94Z</time></trkpt><trkpt lat="45.0507183" lon="9.63884"><ele>58.0</ele><time>2026-04-11T15:00:49.945Z</time></trkpt><trkpt lat="45.0508683" lon="9.6389083"><ele>58.0</ele><time>2026-04-11T15:00:50.94Z</time></trkpt><trkpt lat="45.051025" lon="9.6389533"><ele>58.0</ele><time>2026-04-11T15:00:51.94Z</time></trkpt><trkpt lat="45.0511883" lon="9.6389833"><ele>58.0</ele><time>2026-04-11T15:00:52.938Z</time></trkpt><trkpt lat="45.051355" lon="9.6389967"><ele>58.0</ele><time>2026-04-11T15:00:53.94Z</time></trkpt><trkpt lat="45.0515217" lon="9.6389983"><ele>58.0</ele><time>2026-04-11T15:00:54.939Z</time></trkpt><trkpt lat="45.05169" lon="9.639"><ele>59.0</ele><time>2026-04-11T15:00:55.939Z</time></trkpt><trkpt lat="45.0518567" lon="9.63901"><ele>60.0</ele><time>2026-04-11T15:00:56.938Z</time></trkpt><trkpt lat="45.052025" lon="9.639035"><ele>61.0</ele><time>2026-04-11T15:00:57.938Z</time></trkpt><trkpt lat="45.0521933" lon="9.6390683"><ele>61.0</ele><time>2026-04-11T15:00:58.937Z</time></trkpt><trkpt lat="45.052355" lon="9.6391183"><ele>61.0</ele><time>2026-04-11T15:00:59.94Z</time></trkpt><trkpt lat="45.0525017" lon="9.6391733"><ele>61.0</ele><time>2026-04-11T15:01:00.939Z</time></trkpt><trkpt lat="45.0526333" lon="9.6392267"><ele>60.599999999999994</ele><time>2026-04-11T15:01:01.94Z</time></trkpt><trkpt lat="45.0527417" lon="9.639275"><ele>60.199999999999996</ele><time>2026-04-11T15:01:02.94Z</time></trkpt><trkpt lat="45.052825" lon="9.6393283"><ele>59.800000000000004</ele><time>2026-04-11T15:01:03.946Z</time></trkpt><trkpt lat="45.0528883" lon="9.639395"><ele>59.400000000000006</ele><time>2026-04-11T15:01:04.939Z</time></trkpt><trkpt lat="45.052875" lon="9.6395467"><ele>59.0</ele><time>2026-04-11T15:01:06.941Z</time></trkpt><trkpt lat="45.052815" lon="9.63965"><ele>59.0</ele><time>2026-04-11T15:01:07.941Z</time></trkpt><trkpt lat="45.0527233" lon="9.63976"><ele>59.0</ele><time>2026-04-11T15:01:08.942Z</time></trkpt><trkpt lat="45.052615" lon="9.6398933"><ele>59.0</ele><time>2026-04-11T15:01:09.94Z</time></trkpt><trkpt lat="45.0525083" lon="9.640055"><ele>59.0</ele><time>2026-04-11T15:01:10.937Z</time></trkpt><trkpt lat="45.0524067" lon="9.6402433"><ele>57.66666666666667</ele><time>2026-04-11T15:01:11.939Z</time></trkpt><trkpt lat="45.0523167" lon="9.64045"><ele>56.33333333333333</ele><time>2026-04-11T15:01:12.937Z</time></trkpt><trkpt lat="45.052245" lon="9.64067"><ele>55.0</ele><time>2026-04-11T15:01:13.938Z</time></trkpt><trkpt lat="45.05218" lon="9.6408983"><ele>56.0</ele><time>2026-04-11T15:01:14.937Z</time></trkpt><trkpt lat="45.05213" lon="9.641135"><ele>57.0</ele><time>2026-04-11T15:01:15.936Z</time></trkpt><trkpt lat="45.0520967" lon="9.6413783"><ele>58.0</ele><time>2026-04-11T15:01:16.936Z</time></trkpt><trkpt lat="45.0520717" lon="9.6416233"><ele>58.0</ele><time>2026-04-11T15:01:17.937Z</time></trkpt><trkpt lat="45.0520483" lon="9.64187"><ele>58.0</ele><time>2026-04-11T15:01:18.937Z</time></trkpt><trkpt lat="45.0520283" lon="9.6421167"><ele>58.0</ele><time>2026-04-11T15:01:19.938Z</time></trkpt><trkpt lat="45.0520083" lon="9.6423583"><ele>57.666666666666664</ele><time>2026-04-11T15:01:20.938Z</time></trkpt><trkpt lat="45.0519883" lon="9.6426"><ele>57.33333333333333</ele><time>2026-04-11T15:01:21.939Z</time></trkpt><trkpt lat="45.05197" lon="9.6428367"><ele>57.0</ele><time>2026-04-11T15:01:22.937Z</time></trkpt><trkpt lat="45.0519517" lon="9.64307"><ele>57.0</ele><time>2026-04-11T15:01:23.938Z</time></trkpt><trkpt lat="45.0519333" lon="9.6433017"><ele>57.0</ele><time>2026-04-11T15:01:24.936Z</time></trkpt><trkpt lat="45.051915" lon="9.643535"><ele>57.0</ele><time>2026-04-11T15:01:25.937Z</time></trkpt><trkpt lat="45.0518967" lon="9.6437717"><ele>57.0</ele><time>2026-04-11T15:01:26.937Z</time></trkpt><trkpt lat="45.0518767" lon="9.6440033"><ele>57.0</ele><time>2026-04-11T15:01:27.937Z</time></trkpt><trkpt lat="45.0518567" lon="9.6442317"><ele>57.0</ele><time>2026-04-11T15:01:28.94Z</time></trkpt><trkpt lat="45.05184" lon="9.6444633"><ele>56.66666666666667</ele><time>2026-04-11T15:01:29.938Z</time></trkpt><trkpt lat="45.051825" lon="9.6446967"><ele>56.333333333333336</ele><time>2026-04-11T15:01:30.937Z</time></trkpt><trkpt lat="45.0518067" lon="9.6449283"><ele>56.0</ele><time>2026-04-11T15:01:31.939Z</time></trkpt><trkpt lat="45.051785" lon="9.6451617"><ele>57.333333333333336</ele><time>2026-04-11T15:01:32.938Z</time></trkpt><trkpt lat="45.0517667" lon="9.645395"><ele>58.66666666666667</ele><time>2026-04-11T15:01:33.944Z</time></trkpt><trkpt lat="45.0517483" lon="9.64563"><ele>60.0</ele><time>2026-04-11T15:01:34.938Z</time></trkpt><trkpt lat="45.05173" lon="9.645865"><ele>60.0</ele><time>2026-04-11T15:01:35.937Z</time></trkpt><trkpt lat="45.05171" lon="9.6460983"><ele>60.0</ele><time>2026-04-11T15:01:36.938Z</time></trkpt><trkpt lat="45.0516917" lon="9.6463367"><ele>60.0</ele><time>2026-04-11T15:01:37.937Z</time></trkpt><trkpt lat="45.0516717" lon="9.646575"><ele>60.0</ele><time>2026-04-11T15:01:38.938Z</time></trkpt><trkpt lat="45.0516517" lon="9.6468167"><ele>60.0</ele><time>2026-04-11T15:01:39.937Z</time></trkpt><trkpt lat="45.0516333" lon="9.64706"><ele>60.0</ele><time>2026-04-11T15:01:40.938Z</time></trkpt><trkpt lat="45.051615" lon="9.647305"><ele>59.66666666666667</ele><time>2026-04-11T15:01:41.938Z</time></trkpt><trkpt lat="45.051595" lon="9.6475533"><ele>59.333333333333336</ele><time>2026-04-11T15:01:42.939Z</time></trkpt><trkpt lat="45.0515733" lon="9.6477983"><ele>59.0</ele><time>2026-04-11T15:01:43.937Z</time></trkpt><trkpt lat="45.05155" lon="9.6480467"><ele>58.66666666666667</ele><time>2026-04-11T15:01:44.938Z</time></trkpt><trkpt lat="45.0515283" lon="9.648295"><ele>58.33333333333333</ele><time>2026-04-11T15:01:45.941Z</time></trkpt><trkpt lat="45.0515083" lon="9.6485433"><ele>58.0</ele><time>2026-04-11T15:01:46.937Z</time></trkpt><trkpt lat="45.0514883" lon="9.6487883"><ele>58.33333333333333</ele><time>2026-04-11T15:01:47.937Z</time></trkpt><trkpt lat="45.05147" lon="9.649035"><ele>58.66666666666667</ele><time>2026-04-11T15:01:48.937Z</time></trkpt><trkpt lat="45.05145" lon="9.64928"><ele>59.0</ele><time>2026-04-11T15:01:49.938Z</time></trkpt><trkpt lat="45.0514283" lon="9.649525"><ele>59.0</ele><time>2026-04-11T15:01:50.938Z</time></trkpt><trkpt lat="45.0514067" lon="9.6497667"><ele>59.0</ele><time>2026-04-11T15:01:51.939Z</time></trkpt><trkpt lat="45.0513883" lon="9.6500117"><ele>59.0</ele><time>2026-04-11T15:01:52.94Z</time></trkpt><trkpt lat="45.05137" lon="9.65026"><ele>59.0</ele><time>2026-04-11T15:01:53.936Z</time></trkpt><trkpt lat="45.0513583" lon="9.65051"><ele>59.0</ele><time>2026-04-11T15:01:54.938Z</time></trkpt><trkpt lat="45.0513483" lon="9.6507533"><ele>59.0</ele><time>2026-04-11T15:01:55.938Z</time></trkpt><trkpt lat="45.0513367" lon="9.6509917"><ele>59.0</ele><time>2026-04-11T15:01:56.937Z</time></trkpt><trkpt lat="45.051325" lon="9.6512267"><ele>59.0</ele><time>2026-04-11T15:01:57.937Z</time></trkpt><trkpt lat="45.05131" lon="9.6514583"><ele>59.0</ele><time>2026-04-11T15:01:58.938Z</time></trkpt><trkpt lat="45.0512917" lon="9.6516917"><ele>59.0</ele><time>2026-04-11T15:01:59.937Z</time></trkpt><trkpt lat="45.051275" lon="9.6519267"><ele>59.0</ele><time>2026-04-11T15:02:00.938Z</time></trkpt><trkpt lat="45.0512567" lon="9.6521633"><ele>59.0</ele><time>2026-04-11T15:02:01.937Z</time></trkpt><trkpt lat="45.0512383" lon="9.652405"><ele>59.0</ele><time>2026-04-11T15:02:02.938Z</time></trkpt><trkpt lat="45.05122" lon="9.6526433"><ele>59.0</ele><time>2026-04-11T15:02:03.943Z</time></trkpt><trkpt lat="45.0512" lon="9.6528783"><ele>59.0</ele><time>2026-04-11T15:02:04.937Z</time></trkpt><trkpt lat="45.051175" lon="9.6531033"><ele>58.75</ele><time>2026-04-11T15:02:05.937Z</time></trkpt><trkpt lat="45.051135" lon="9.653305"><ele>58.5</ele><time>2026-04-11T15:02:06.938Z</time></trkpt><trkpt lat="45.0510833" lon="9.6534767"><ele>58.25</ele><time>2026-04-11T15:02:07.937Z</time></trkpt><trkpt lat="45.05104" lon="9.6536317"><ele>58.0</ele><time>2026-04-11T15:02:08.937Z</time></trkpt><trkpt lat="45.0510267" lon="9.6537667"><ele>58.00000000000001</ele><time>2026-04-11T15:02:09.937Z</time></trkpt><trkpt lat="45.0510433" lon="9.6538817"><ele>58.0</ele><time>2026-04-11T15:02:10.944Z</time></trkpt><trkpt lat="45.0510833" lon="9.65397"><ele>58.00000000000001</ele><time>2026-04-11T15:02:11.938Z</time></trkpt><trkpt lat="45.0511483" lon="9.6539817"><ele>58.00000000000001</ele><time>2026-04-11T15:02:12.937Z</time></trkpt><trkpt lat="45.05121" lon="9.65395"><ele>58.0</ele><time>2026-04-11T15:02:13.937Z</time></trkpt><trkpt lat="45.0512633" lon="9.6538733"><ele>58.00000000000001</ele><time>2026-04-11T15:02:14.937Z</time></trkpt><trkpt lat="45.0512917" lon="9.6537633"><ele>58.00000000000001</ele><time>2026-04-11T15:02:15.936Z</time></trkpt><trkpt lat="45.0512917" lon="9.6536217"><ele>58.0</ele><time>2026-04-11T15:02:16.937Z</time></trkpt><trkpt lat="45.0512767" lon="9.65344"><ele>58.0</ele><time>2026-04-11T15:02:17.936Z</time></trkpt><trkpt lat="45.0512733" lon="9.653235"><ele>58.0</ele><time>2026-04-11T15:02:18.936Z</time></trkpt><trkpt lat="45.05128" lon="9.6530117"><ele>58.0</ele><time>2026-04-11T15:02:19.942Z</time></trkpt><trkpt lat="45.0512967" lon="9.6527733"><ele>58.33333333333333</ele><time>2026-04-11T15:02:20.937Z</time></trkpt><trkpt lat="45.0513117" lon="9.65253"><ele>58.66666666666667</ele><time>2026-04-11T15:02:21.937Z</time></trkpt><trkpt lat="45.0513267" lon="9.65229"><ele>59.0</ele><time>2026-04-11T15:02:22.936Z</time></trkpt><trkpt lat="45.051345" lon="9.6520483"><ele>59.0</ele><time>2026-04-11T15:02:23.936Z</time></trkpt><trkpt lat="45.051365" lon="9.6518017"><ele>59.0</ele><time>2026-04-11T15:02:24.937Z</time></trkpt><trkpt lat="45.0513867" lon="9.65156"><ele>59.0</ele><time>2026-04-11T15:02:25.937Z</time></trkpt><trkpt lat="45.0514067" lon="9.6513267"><ele>59.0</ele><time>2026-04-11T15:02:26.937Z</time></trkpt><trkpt lat="45.05143" lon="9.6511017"><ele>59.0</ele><time>2026-04-11T15:02:27.938Z</time></trkpt><trkpt lat="45.051465" lon="9.650885"><ele>59.0</ele><time>2026-04-11T15:02:28.937Z</time></trkpt><trkpt lat="45.05151" lon="9.6506783"><ele>59.0</ele><time>2026-04-11T15:02:29.939Z</time></trkpt><trkpt lat="45.0515467" lon="9.6504833"><ele>59.0</ele><time>2026-04-11T15:02:30.937Z</time></trkpt><trkpt lat="45.0515733" lon="9.6503033"><ele>59.0</ele><time>2026-04-11T15:02:31.937Z</time></trkpt><trkpt lat="45.0515883" lon="9.650145"><ele>59.0</ele><time>2026-04-11T15:02:32.939Z</time></trkpt><trkpt lat="45.0516033" lon="9.6500067"><ele>59.00000000000001</ele><time>2026-04-11T15:02:33.938Z</time></trkpt><trkpt lat="45.0516217" lon="9.6498867"><ele>59.0</ele><time>2026-04-11T15:02:34.941Z</time></trkpt><trkpt lat="45.0516467" lon="9.6497867"><ele>59.0</ele><time>2026-04-11T15:02:35.938Z</time></trkpt><trkpt lat="45.05169" lon="9.64972"><ele>59.0</ele><time>2026-04-11T15:02:36.938Z</time></trkpt><trkpt lat="45.0517717" lon="9.6497267"><ele>59.00000000000001</ele><time>2026-04-11T15:02:37.937Z</time></trkpt><trkpt lat="45.05187" lon="9.6497467"><ele>59.0</ele><time>2026-04-11T15:02:38.938Z</time></trkpt><trkpt lat="45.05199" lon="9.649765"><ele>59.0</ele><time>2026-04-11T15:02:39.937Z</time></trkpt><trkpt lat="45.05212" lon="9.64979"><ele>59.0</ele><time>2026-04-11T15:02:40.937Z</time></trkpt><trkpt lat="45.05226" lon="9.649825"><ele>59.0</ele><time>2026-04-11T15:02:41.944Z</time></trkpt><trkpt lat="45.0524017" lon="9.6498717"><ele>59.0</ele><time>2026-04-11T15:02:42.937Z</time></trkpt><trkpt lat="45.052545" lon="9.6499283"><ele>59.0</ele><time>2026-04-11T15:02:43.937Z</time></trkpt><trkpt lat="45.0526867" lon="9.6499833"><ele>59.0</ele><time>2026-04-11T15:02:44.938Z</time></trkpt><trkpt lat="45.0528283" lon="9.6500267"><ele>59.0</ele><time>2026-04-11T15:02:45.936Z</time></trkpt><trkpt lat="45.0529583" lon="9.6500633"><ele>59.0</ele><time>2026-04-11T15:02:46.939Z</time></trkpt><trkpt lat="45.05308" lon="9.6500983"><ele>59.00000000000001</ele><time>2026-04-11T15:02:47.937Z</time></trkpt><trkpt lat="45.0531967" lon="9.6501267"><ele>59.0</ele><time>2026-04-11T15:02:48.936Z</time></trkpt><trkpt lat="45.0533033" lon="9.6501467"><ele>59.0</ele><time>2026-04-11T15:02:49.939Z</time></trkpt><trkpt lat="45.05339" lon="9.6501533"><ele>59.0</ele><time>2026-04-11T15:02:50.937Z</time></trkpt><trkpt lat="45.0534533" lon="9.65015"><ele>59.00000000000001</ele><time>2026-04-11T15:02:51.944Z</time></trkpt><trkpt lat="45.0535233" lon="9.6501467"><ele>59.0</ele><time>2026-04-11T15:02:53.936Z</time></trkpt><trkpt lat="45.0536183" lon="9.65018"><ele>62.0</ele><time>2026-04-11T15:02:56.938Z</time></trkpt><trkpt lat="45.05373" lon="9.65021"><ele>62.0</ele><time>2026-04-11T15:02:58.937Z</time></trkpt><trkpt lat="45.053795" lon="9.650195"><ele>62.0</ele><time>2026-04-11T15:03:01.937Z</time></trkpt></trkseg></trk></gpx>